<?xml version="1.0" encoding="UTF-8" standalone="no" ?>
<gpx xmlns="http://www.topografix.com/GPX/1/1" xmlns:xsi="http://www.w3.org/2001/XMLSchema-instance" xsi:schemaLocation="http://www.topografix.com/GPX/1/1 http://www.topografix.com/GPX/1/1/gpx.xsd" version="1.1" creator="VisuGPX - https://www.visugpx.com">
  <metadata>
    <name>Virée de Pignan à Argelliers</name>
    <desc><![CDATA[Une petite virée pour travailler le foncier avec quelques jolis passage technique en descente du coté de ST Paul et VAlmalle. Pas mal de piste dfci.
45 km à avaler tout de même !]]></desc>
  </metadata>
  <trk>
    <name><![CDATA[2011-05-29-01]]></name>
    <trkseg>
      <trkpt lat="43.58475" lon="3.75729">
        <ele>55.5</ele>
        <time>2011-05-29T06:03:27Z</time>
      </trkpt>
      <trkpt lat="43.58475" lon="3.75729">
        <ele>55.5</ele>
        <time>2011-05-29T06:03:28Z</time>
      </trkpt>
      <trkpt lat="43.58632" lon="3.76162">
        <ele>52.3</ele>
        <time>2011-05-29T06:10:29Z</time>
      </trkpt>
      <trkpt lat="43.58643" lon="3.76187">
        <ele>51.8</ele>
        <time>2011-05-29T06:10:34Z</time>
      </trkpt>
      <trkpt lat="43.58648" lon="3.76197">
        <ele>51.5</ele>
        <time>2011-05-29T06:10:36Z</time>
      </trkpt>
      <trkpt lat="43.58651" lon="3.76202">
        <ele>51.4</ele>
        <time>2011-05-29T06:10:37Z</time>
      </trkpt>
      <trkpt lat="43.58653" lon="3.76207">
        <ele>51.3</ele>
        <time>2011-05-29T06:10:38Z</time>
      </trkpt>
      <trkpt lat="43.58656" lon="3.76213">
        <ele>51.2</ele>
        <time>2011-05-29T06:10:39Z</time>
      </trkpt>
      <trkpt lat="43.58658" lon="3.76218">
        <ele>51</ele>
        <time>2011-05-29T06:10:40Z</time>
      </trkpt>
      <trkpt lat="43.58661" lon="3.76223">
        <ele>50.9</ele>
        <time>2011-05-29T06:10:41Z</time>
      </trkpt>
      <trkpt lat="43.58664" lon="3.76229">
        <ele>50.7</ele>
        <time>2011-05-29T06:10:42Z</time>
      </trkpt>
      <trkpt lat="43.58667" lon="3.76234">
        <ele>50.6</ele>
        <time>2011-05-29T06:10:43Z</time>
      </trkpt>
      <trkpt lat="43.58669" lon="3.7624">
        <ele>50.5</ele>
        <time>2011-05-29T06:10:44Z</time>
      </trkpt>
      <trkpt lat="43.58672" lon="3.76245">
        <ele>50.5</ele>
        <time>2011-05-29T06:10:45Z</time>
      </trkpt>
      <trkpt lat="43.58675" lon="3.76251">
        <ele>50.5</ele>
        <time>2011-05-29T06:10:46Z</time>
      </trkpt>
      <trkpt lat="43.58677" lon="3.76257">
        <ele>50.5</ele>
        <time>2011-05-29T06:10:47Z</time>
      </trkpt>
      <trkpt lat="43.5868" lon="3.76263">
        <ele>50.5</ele>
        <time>2011-05-29T06:10:48Z</time>
      </trkpt>
      <trkpt lat="43.58683" lon="3.76268">
        <ele>50.6</ele>
        <time>2011-05-29T06:10:49Z</time>
      </trkpt>
      <trkpt lat="43.58687" lon="3.76274">
        <ele>50.7</ele>
        <time>2011-05-29T06:10:50Z</time>
      </trkpt>
      <trkpt lat="43.5869" lon="3.7628">
        <ele>50.8</ele>
        <time>2011-05-29T06:10:51Z</time>
      </trkpt>
      <trkpt lat="43.58694" lon="3.76285">
        <ele>50.9</ele>
        <time>2011-05-29T06:10:52Z</time>
      </trkpt>
      <trkpt lat="43.58698" lon="3.7629">
        <ele>51.1</ele>
        <time>2011-05-29T06:10:53Z</time>
      </trkpt>
      <trkpt lat="43.58702" lon="3.76295">
        <ele>51.2</ele>
        <time>2011-05-29T06:10:54Z</time>
      </trkpt>
      <trkpt lat="43.58706" lon="3.76299">
        <ele>51.5</ele>
        <time>2011-05-29T06:10:55Z</time>
      </trkpt>
      <trkpt lat="43.58711" lon="3.763">
        <ele>51.8</ele>
        <time>2011-05-29T06:10:56Z</time>
      </trkpt>
      <trkpt lat="43.58716" lon="3.76297">
        <ele>52.2</ele>
        <time>2011-05-29T06:10:57Z</time>
      </trkpt>
      <trkpt lat="43.5872" lon="3.76294">
        <ele>52.5</ele>
        <time>2011-05-29T06:10:58Z</time>
      </trkpt>
      <trkpt lat="43.58725" lon="3.76289">
        <ele>52.9</ele>
        <time>2011-05-29T06:10:59Z</time>
      </trkpt>
      <trkpt lat="43.58729" lon="3.76285">
        <ele>53.2</ele>
        <time>2011-05-29T06:11:00Z</time>
      </trkpt>
      <trkpt lat="43.58733" lon="3.76282">
        <ele>53.5</ele>
        <time>2011-05-29T06:11:01Z</time>
      </trkpt>
      <trkpt lat="43.58741" lon="3.76284">
        <ele>54</ele>
        <time>2011-05-29T06:11:03Z</time>
      </trkpt>
      <trkpt lat="43.58744" lon="3.76289">
        <ele>54.1</ele>
        <time>2011-05-29T06:11:04Z</time>
      </trkpt>
      <trkpt lat="43.58747" lon="3.76294">
        <ele>54.3</ele>
        <time>2011-05-29T06:11:05Z</time>
      </trkpt>
      <trkpt lat="43.5875" lon="3.76299">
        <ele>54.4</ele>
        <time>2011-05-29T06:11:06Z</time>
      </trkpt>
      <trkpt lat="43.58753" lon="3.76304">
        <ele>54.6</ele>
        <time>2011-05-29T06:11:07Z</time>
      </trkpt>
      <trkpt lat="43.58756" lon="3.76309">
        <ele>54.7</ele>
        <time>2011-05-29T06:11:08Z</time>
      </trkpt>
      <trkpt lat="43.58758" lon="3.76315">
        <ele>54.8</ele>
        <time>2011-05-29T06:11:09Z</time>
      </trkpt>
      <trkpt lat="43.58761" lon="3.76319">
        <ele>55</ele>
        <time>2011-05-29T06:11:10Z</time>
      </trkpt>
      <trkpt lat="43.58764" lon="3.76325">
        <ele>55</ele>
        <time>2011-05-29T06:11:11Z</time>
      </trkpt>
      <trkpt lat="43.58767" lon="3.7633">
        <ele>55.1</ele>
        <time>2011-05-29T06:11:12Z</time>
      </trkpt>
      <trkpt lat="43.5877" lon="3.76335">
        <ele>55.2</ele>
        <time>2011-05-29T06:11:13Z</time>
      </trkpt>
      <trkpt lat="43.58773" lon="3.76341">
        <ele>55.2</ele>
        <time>2011-05-29T06:11:14Z</time>
      </trkpt>
      <trkpt lat="43.58777" lon="3.76346">
        <ele>55.2</ele>
        <time>2011-05-29T06:11:15Z</time>
      </trkpt>
      <trkpt lat="43.5878" lon="3.76351">
        <ele>55.2</ele>
        <time>2011-05-29T06:11:16Z</time>
      </trkpt>
      <trkpt lat="43.58783" lon="3.76355">
        <ele>55.3</ele>
        <time>2011-05-29T06:11:17Z</time>
      </trkpt>
      <trkpt lat="43.58787" lon="3.7636">
        <ele>55.3</ele>
        <time>2011-05-29T06:11:18Z</time>
      </trkpt>
      <trkpt lat="43.58794" lon="3.76366">
        <ele>55.5</ele>
        <time>2011-05-29T06:11:20Z</time>
      </trkpt>
      <trkpt lat="43.58803" lon="3.7637">
        <ele>55.7</ele>
        <time>2011-05-29T06:11:22Z</time>
      </trkpt>
      <trkpt lat="43.58811" lon="3.76372">
        <ele>56</ele>
        <time>2011-05-29T06:11:24Z</time>
      </trkpt>
      <trkpt lat="43.58818" lon="3.76376">
        <ele>56.2</ele>
        <time>2011-05-29T06:11:26Z</time>
      </trkpt>
      <trkpt lat="43.58823" lon="3.76383">
        <ele>56.2</ele>
        <time>2011-05-29T06:11:28Z</time>
      </trkpt>
      <trkpt lat="43.58828" lon="3.7639">
        <ele>56.1</ele>
        <time>2011-05-29T06:11:30Z</time>
      </trkpt>
      <trkpt lat="43.58831" lon="3.76395">
        <ele>56</ele>
        <time>2011-05-29T06:11:31Z</time>
      </trkpt>
      <trkpt lat="43.58834" lon="3.764">
        <ele>55.9</ele>
        <time>2011-05-29T06:11:32Z</time>
      </trkpt>
      <trkpt lat="43.58838" lon="3.76404">
        <ele>55.9</ele>
        <time>2011-05-29T06:11:33Z</time>
      </trkpt>
      <trkpt lat="43.58841" lon="3.76409">
        <ele>55.9</ele>
        <time>2011-05-29T06:11:34Z</time>
      </trkpt>
      <trkpt lat="43.58844" lon="3.76414">
        <ele>56</ele>
        <time>2011-05-29T06:11:35Z</time>
      </trkpt>
      <trkpt lat="43.58848" lon="3.76419">
        <ele>55.9</ele>
        <time>2011-05-29T06:11:36Z</time>
      </trkpt>
      <trkpt lat="43.58852" lon="3.76424">
        <ele>55.9</ele>
        <time>2011-05-29T06:11:37Z</time>
      </trkpt>
      <trkpt lat="43.58856" lon="3.7643">
        <ele>56</ele>
        <time>2011-05-29T06:11:38Z</time>
      </trkpt>
      <trkpt lat="43.5886" lon="3.76435">
        <ele>56</ele>
        <time>2011-05-29T06:11:39Z</time>
      </trkpt>
      <trkpt lat="43.58865" lon="3.76442">
        <ele>55.9</ele>
        <time>2011-05-29T06:11:41Z</time>
      </trkpt>
      <trkpt lat="43.5887" lon="3.76451">
        <ele>55.9</ele>
        <time>2011-05-29T06:11:44Z</time>
      </trkpt>
      <trkpt lat="43.58874" lon="3.76459">
        <ele>55.6</ele>
        <time>2011-05-29T06:11:46Z</time>
      </trkpt>
      <trkpt lat="43.58879" lon="3.76468">
        <ele>55.5</ele>
        <time>2011-05-29T06:11:48Z</time>
      </trkpt>
      <trkpt lat="43.58882" lon="3.76473">
        <ele>55.4</ele>
        <time>2011-05-29T06:11:49Z</time>
      </trkpt>
      <trkpt lat="43.58885" lon="3.76478">
        <ele>55.3</ele>
        <time>2011-05-29T06:11:50Z</time>
      </trkpt>
      <trkpt lat="43.58888" lon="3.76483">
        <ele>55.2</ele>
        <time>2011-05-29T06:11:51Z</time>
      </trkpt>
      <trkpt lat="43.58891" lon="3.76488">
        <ele>55.1</ele>
        <time>2011-05-29T06:11:52Z</time>
      </trkpt>
      <trkpt lat="43.58894" lon="3.76493">
        <ele>55</ele>
        <time>2011-05-29T06:11:53Z</time>
      </trkpt>
      <trkpt lat="43.58897" lon="3.76498">
        <ele>54.9</ele>
        <time>2011-05-29T06:11:54Z</time>
      </trkpt>
      <trkpt lat="43.589" lon="3.76504">
        <ele>54.8</ele>
        <time>2011-05-29T06:11:55Z</time>
      </trkpt>
      <trkpt lat="43.58903" lon="3.76509">
        <ele>54.8</ele>
        <time>2011-05-29T06:11:56Z</time>
      </trkpt>
      <trkpt lat="43.58906" lon="3.76514">
        <ele>54.7</ele>
        <time>2011-05-29T06:11:57Z</time>
      </trkpt>
      <trkpt lat="43.58908" lon="3.7652">
        <ele>54.6</ele>
        <time>2011-05-29T06:11:58Z</time>
      </trkpt>
      <trkpt lat="43.58911" lon="3.76525">
        <ele>54.5</ele>
        <time>2011-05-29T06:11:59Z</time>
      </trkpt>
      <trkpt lat="43.58915" lon="3.7653">
        <ele>54.4</ele>
        <time>2011-05-29T06:12:00Z</time>
      </trkpt>
      <trkpt lat="43.58918" lon="3.76535">
        <ele>54.3</ele>
        <time>2011-05-29T06:12:01Z</time>
      </trkpt>
      <trkpt lat="43.58921" lon="3.76541">
        <ele>54.2</ele>
        <time>2011-05-29T06:12:02Z</time>
      </trkpt>
      <trkpt lat="43.58925" lon="3.76546">
        <ele>54.1</ele>
        <time>2011-05-29T06:12:03Z</time>
      </trkpt>
      <trkpt lat="43.58928" lon="3.76552">
        <ele>53.9</ele>
        <time>2011-05-29T06:12:04Z</time>
      </trkpt>
      <trkpt lat="43.58932" lon="3.76558">
        <ele>53.7</ele>
        <time>2011-05-29T06:12:05Z</time>
      </trkpt>
      <trkpt lat="43.58936" lon="3.76564">
        <ele>53.5</ele>
        <time>2011-05-29T06:12:06Z</time>
      </trkpt>
      <trkpt lat="43.58939" lon="3.76571">
        <ele>53.3</ele>
        <time>2011-05-29T06:12:07Z</time>
      </trkpt>
      <trkpt lat="43.58943" lon="3.76578">
        <ele>53</ele>
        <time>2011-05-29T06:12:08Z</time>
      </trkpt>
      <trkpt lat="43.58947" lon="3.76585">
        <ele>52.7</ele>
        <time>2011-05-29T06:12:09Z</time>
      </trkpt>
      <trkpt lat="43.58952" lon="3.76592">
        <ele>52.6</ele>
        <time>2011-05-29T06:12:10Z</time>
      </trkpt>
      <trkpt lat="43.58956" lon="3.766">
        <ele>52.5</ele>
        <time>2011-05-29T06:12:11Z</time>
      </trkpt>
      <trkpt lat="43.58959" lon="3.76607">
        <ele>52.5</ele>
        <time>2011-05-29T06:12:12Z</time>
      </trkpt>
      <trkpt lat="43.58964" lon="3.76615">
        <ele>52.3</ele>
        <time>2011-05-29T06:12:14Z</time>
      </trkpt>
      <trkpt lat="43.58969" lon="3.76622">
        <ele>52.2</ele>
        <time>2011-05-29T06:12:16Z</time>
      </trkpt>
      <trkpt lat="43.58976" lon="3.7663">
        <ele>52.1</ele>
        <time>2011-05-29T06:12:18Z</time>
      </trkpt>
      <trkpt lat="43.5898" lon="3.76634">
        <ele>52</ele>
        <time>2011-05-29T06:12:19Z</time>
      </trkpt>
      <trkpt lat="43.58983" lon="3.76638">
        <ele>51.9</ele>
        <time>2011-05-29T06:12:20Z</time>
      </trkpt>
      <trkpt lat="43.58991" lon="3.76645">
        <ele>51.7</ele>
        <time>2011-05-29T06:12:22Z</time>
      </trkpt>
      <trkpt lat="43.58994" lon="3.76648">
        <ele>51.6</ele>
        <time>2011-05-29T06:12:23Z</time>
      </trkpt>
      <trkpt lat="43.58998" lon="3.76652">
        <ele>51.5</ele>
        <time>2011-05-29T06:12:24Z</time>
      </trkpt>
      <trkpt lat="43.59002" lon="3.76655">
        <ele>51.5</ele>
        <time>2011-05-29T06:12:25Z</time>
      </trkpt>
      <trkpt lat="43.59006" lon="3.76659">
        <ele>51.4</ele>
        <time>2011-05-29T06:12:26Z</time>
      </trkpt>
      <trkpt lat="43.5901" lon="3.76662">
        <ele>51.4</ele>
        <time>2011-05-29T06:12:27Z</time>
      </trkpt>
      <trkpt lat="43.59014" lon="3.76665">
        <ele>51.4</ele>
        <time>2011-05-29T06:12:28Z</time>
      </trkpt>
      <trkpt lat="43.59019" lon="3.76669">
        <ele>51.4</ele>
        <time>2011-05-29T06:12:29Z</time>
      </trkpt>
      <trkpt lat="43.59023" lon="3.76672">
        <ele>51.5</ele>
        <time>2011-05-29T06:12:30Z</time>
      </trkpt>
      <trkpt lat="43.59027" lon="3.76675">
        <ele>51.6</ele>
        <time>2011-05-29T06:12:31Z</time>
      </trkpt>
      <trkpt lat="43.59031" lon="3.76678">
        <ele>51.7</ele>
        <time>2011-05-29T06:12:32Z</time>
      </trkpt>
      <trkpt lat="43.59035" lon="3.76681">
        <ele>51.7</ele>
        <time>2011-05-29T06:12:33Z</time>
      </trkpt>
      <trkpt lat="43.59039" lon="3.76685">
        <ele>51.8</ele>
        <time>2011-05-29T06:12:34Z</time>
      </trkpt>
      <trkpt lat="43.59043" lon="3.7669">
        <ele>51.9</ele>
        <time>2011-05-29T06:12:35Z</time>
      </trkpt>
      <trkpt lat="43.59047" lon="3.76696">
        <ele>52</ele>
        <time>2011-05-29T06:12:36Z</time>
      </trkpt>
      <trkpt lat="43.59051" lon="3.76701">
        <ele>52.1</ele>
        <time>2011-05-29T06:12:37Z</time>
      </trkpt>
      <trkpt lat="43.59054" lon="3.76707">
        <ele>52.1</ele>
        <time>2011-05-29T06:12:38Z</time>
      </trkpt>
      <trkpt lat="43.59059" lon="3.76717">
        <ele>52.2</ele>
        <time>2011-05-29T06:12:40Z</time>
      </trkpt>
      <trkpt lat="43.59065" lon="3.76723">
        <ele>52.4</ele>
        <time>2011-05-29T06:12:42Z</time>
      </trkpt>
      <trkpt lat="43.59071" lon="3.76725">
        <ele>52.6</ele>
        <time>2011-05-29T06:12:44Z</time>
      </trkpt>
      <trkpt lat="43.59078" lon="3.76728">
        <ele>52.8</ele>
        <time>2011-05-29T06:12:46Z</time>
      </trkpt>
      <trkpt lat="43.59084" lon="3.76731">
        <ele>53</ele>
        <time>2011-05-29T06:12:48Z</time>
      </trkpt>
      <trkpt lat="43.5909" lon="3.76733">
        <ele>53.5</ele>
        <time>2011-05-29T06:12:50Z</time>
      </trkpt>
      <trkpt lat="43.59098" lon="3.76736">
        <ele>54.2</ele>
        <time>2011-05-29T06:12:53Z</time>
      </trkpt>
      <trkpt lat="43.59104" lon="3.76738">
        <ele>54.7</ele>
        <time>2011-05-29T06:12:55Z</time>
      </trkpt>
      <trkpt lat="43.59113" lon="3.76742">
        <ele>55.4</ele>
        <time>2011-05-29T06:12:58Z</time>
      </trkpt>
      <trkpt lat="43.5912" lon="3.76744">
        <ele>56</ele>
        <time>2011-05-29T06:13:01Z</time>
      </trkpt>
      <trkpt lat="43.59128" lon="3.76748">
        <ele>56.7</ele>
        <time>2011-05-29T06:13:04Z</time>
      </trkpt>
      <trkpt lat="43.59135" lon="3.76753">
        <ele>57.3</ele>
        <time>2011-05-29T06:13:07Z</time>
      </trkpt>
      <trkpt lat="43.59141" lon="3.76759">
        <ele>57.7</ele>
        <time>2011-05-29T06:13:10Z</time>
      </trkpt>
      <trkpt lat="43.59147" lon="3.76766">
        <ele>58.1</ele>
        <time>2011-05-29T06:13:13Z</time>
      </trkpt>
      <trkpt lat="43.59154" lon="3.76772">
        <ele>58.5</ele>
        <time>2011-05-29T06:13:16Z</time>
      </trkpt>
      <trkpt lat="43.59159" lon="3.76779">
        <ele>58.8</ele>
        <time>2011-05-29T06:13:19Z</time>
      </trkpt>
      <trkpt lat="43.59165" lon="3.76787">
        <ele>59</ele>
        <time>2011-05-29T06:13:22Z</time>
      </trkpt>
      <trkpt lat="43.5917" lon="3.76796">
        <ele>59.3</ele>
        <time>2011-05-29T06:13:25Z</time>
      </trkpt>
      <trkpt lat="43.59176" lon="3.76804">
        <ele>59.7</ele>
        <time>2011-05-29T06:13:28Z</time>
      </trkpt>
      <trkpt lat="43.59179" lon="3.76813">
        <ele>59.8</ele>
        <time>2011-05-29T06:13:31Z</time>
      </trkpt>
      <trkpt lat="43.59182" lon="3.76824">
        <ele>59.9</ele>
        <time>2011-05-29T06:13:35Z</time>
      </trkpt>
      <trkpt lat="43.59185" lon="3.76833">
        <ele>60</ele>
        <time>2011-05-29T06:13:38Z</time>
      </trkpt>
      <trkpt lat="43.59186" lon="3.76835">
        <ele>60.1</ele>
        <time>2011-05-29T06:13:39Z</time>
      </trkpt>
      <trkpt lat="43.59192" lon="3.7685">
        <ele>60.6</ele>
        <time>2011-05-29T06:13:44Z</time>
      </trkpt>
      <trkpt lat="43.59197" lon="3.76859">
        <ele>60.9</ele>
        <time>2011-05-29T06:13:47Z</time>
      </trkpt>
      <trkpt lat="43.59203" lon="3.76867">
        <ele>61.4</ele>
        <time>2011-05-29T06:13:50Z</time>
      </trkpt>
      <trkpt lat="43.5921" lon="3.76872">
        <ele>62</ele>
        <time>2011-05-29T06:13:53Z</time>
      </trkpt>
      <trkpt lat="43.59217" lon="3.76876">
        <ele>62.5</ele>
        <time>2011-05-29T06:13:56Z</time>
      </trkpt>
      <trkpt lat="43.59225" lon="3.7688">
        <ele>63.1</ele>
        <time>2011-05-29T06:13:59Z</time>
      </trkpt>
      <trkpt lat="43.59233" lon="3.76884">
        <ele>63.7</ele>
        <time>2011-05-29T06:14:02Z</time>
      </trkpt>
      <trkpt lat="43.59241" lon="3.76888">
        <ele>64.2</ele>
        <time>2011-05-29T06:14:05Z</time>
      </trkpt>
      <trkpt lat="43.59248" lon="3.76893">
        <ele>64.7</ele>
        <time>2011-05-29T06:14:08Z</time>
      </trkpt>
      <trkpt lat="43.59256" lon="3.76899">
        <ele>64.9</ele>
        <time>2011-05-29T06:14:11Z</time>
      </trkpt>
      <trkpt lat="43.59263" lon="3.76903">
        <ele>65.1</ele>
        <time>2011-05-29T06:14:14Z</time>
      </trkpt>
      <trkpt lat="43.59271" lon="3.76907">
        <ele>65.3</ele>
        <time>2011-05-29T06:14:17Z</time>
      </trkpt>
      <trkpt lat="43.59279" lon="3.7691">
        <ele>65.6</ele>
        <time>2011-05-29T06:14:20Z</time>
      </trkpt>
      <trkpt lat="43.59288" lon="3.76913">
        <ele>65.9</ele>
        <time>2011-05-29T06:14:23Z</time>
      </trkpt>
      <trkpt lat="43.59296" lon="3.76915">
        <ele>66.3</ele>
        <time>2011-05-29T06:14:26Z</time>
      </trkpt>
      <trkpt lat="43.59302" lon="3.76918">
        <ele>66.5</ele>
        <time>2011-05-29T06:14:28Z</time>
      </trkpt>
      <trkpt lat="43.59308" lon="3.76921">
        <ele>66.7</ele>
        <time>2011-05-29T06:14:30Z</time>
      </trkpt>
      <trkpt lat="43.59314" lon="3.76925">
        <ele>66.7</ele>
        <time>2011-05-29T06:14:32Z</time>
      </trkpt>
      <trkpt lat="43.5932" lon="3.76931">
        <ele>66.8</ele>
        <time>2011-05-29T06:14:34Z</time>
      </trkpt>
      <trkpt lat="43.59326" lon="3.76936">
        <ele>66.8</ele>
        <time>2011-05-29T06:14:36Z</time>
      </trkpt>
      <trkpt lat="43.59332" lon="3.76942">
        <ele>66.7</ele>
        <time>2011-05-29T06:14:38Z</time>
      </trkpt>
      <trkpt lat="43.59338" lon="3.76948">
        <ele>66.8</ele>
        <time>2011-05-29T06:14:40Z</time>
      </trkpt>
      <trkpt lat="43.5934" lon="3.76951">
        <ele>66.8</ele>
        <time>2011-05-29T06:14:41Z</time>
      </trkpt>
      <trkpt lat="43.59349" lon="3.7696">
        <ele>67</ele>
        <time>2011-05-29T06:14:44Z</time>
      </trkpt>
      <trkpt lat="43.59355" lon="3.76966">
        <ele>67</ele>
        <time>2011-05-29T06:14:46Z</time>
      </trkpt>
      <trkpt lat="43.59362" lon="3.76972">
        <ele>67.1</ele>
        <time>2011-05-29T06:14:48Z</time>
      </trkpt>
      <trkpt lat="43.59369" lon="3.76977">
        <ele>67.2</ele>
        <time>2011-05-29T06:14:50Z</time>
      </trkpt>
      <trkpt lat="43.59376" lon="3.76981">
        <ele>67.3</ele>
        <time>2011-05-29T06:14:52Z</time>
      </trkpt>
      <trkpt lat="43.59383" lon="3.76985">
        <ele>67.4</ele>
        <time>2011-05-29T06:14:54Z</time>
      </trkpt>
      <trkpt lat="43.59391" lon="3.76989">
        <ele>67.6</ele>
        <time>2011-05-29T06:14:56Z</time>
      </trkpt>
      <trkpt lat="43.59399" lon="3.76992">
        <ele>67.7</ele>
        <time>2011-05-29T06:14:58Z</time>
      </trkpt>
      <trkpt lat="43.59406" lon="3.76996">
        <ele>67.8</ele>
        <time>2011-05-29T06:15:00Z</time>
      </trkpt>
      <trkpt lat="43.59414" lon="3.77">
        <ele>67.9</ele>
        <time>2011-05-29T06:15:02Z</time>
      </trkpt>
      <trkpt lat="43.59422" lon="3.77003">
        <ele>67.9</ele>
        <time>2011-05-29T06:15:04Z</time>
      </trkpt>
      <trkpt lat="43.59429" lon="3.77007">
        <ele>67.9</ele>
        <time>2011-05-29T06:15:06Z</time>
      </trkpt>
      <trkpt lat="43.59437" lon="3.77011">
        <ele>67.8</ele>
        <time>2011-05-29T06:15:08Z</time>
      </trkpt>
      <trkpt lat="43.59445" lon="3.77016">
        <ele>67.6</ele>
        <time>2011-05-29T06:15:10Z</time>
      </trkpt>
      <trkpt lat="43.5945" lon="3.77019">
        <ele>67.5</ele>
        <time>2011-05-29T06:15:11Z</time>
      </trkpt>
      <trkpt lat="43.59454" lon="3.77022">
        <ele>67.4</ele>
        <time>2011-05-29T06:15:12Z</time>
      </trkpt>
      <trkpt lat="43.59459" lon="3.77026">
        <ele>67.3</ele>
        <time>2011-05-29T06:15:13Z</time>
      </trkpt>
      <trkpt lat="43.59464" lon="3.7703">
        <ele>67.1</ele>
        <time>2011-05-29T06:15:14Z</time>
      </trkpt>
      <trkpt lat="43.59469" lon="3.77033">
        <ele>66.9</ele>
        <time>2011-05-29T06:15:15Z</time>
      </trkpt>
      <trkpt lat="43.59474" lon="3.77037">
        <ele>66.7</ele>
        <time>2011-05-29T06:15:16Z</time>
      </trkpt>
      <trkpt lat="43.59479" lon="3.77041">
        <ele>66.5</ele>
        <time>2011-05-29T06:15:17Z</time>
      </trkpt>
      <trkpt lat="43.59484" lon="3.77045">
        <ele>66.3</ele>
        <time>2011-05-29T06:15:18Z</time>
      </trkpt>
      <trkpt lat="43.5949" lon="3.77048">
        <ele>66.1</ele>
        <time>2011-05-29T06:15:19Z</time>
      </trkpt>
      <trkpt lat="43.59495" lon="3.77051">
        <ele>66</ele>
        <time>2011-05-29T06:15:20Z</time>
      </trkpt>
      <trkpt lat="43.59501" lon="3.77054">
        <ele>65.8</ele>
        <time>2011-05-29T06:15:21Z</time>
      </trkpt>
      <trkpt lat="43.59507" lon="3.77056">
        <ele>65.7</ele>
        <time>2011-05-29T06:15:22Z</time>
      </trkpt>
      <trkpt lat="43.59513" lon="3.77059">
        <ele>65.7</ele>
        <time>2011-05-29T06:15:23Z</time>
      </trkpt>
      <trkpt lat="43.59519" lon="3.77061">
        <ele>65.7</ele>
        <time>2011-05-29T06:15:24Z</time>
      </trkpt>
      <trkpt lat="43.59525" lon="3.77063">
        <ele>65.7</ele>
        <time>2011-05-29T06:15:25Z</time>
      </trkpt>
      <trkpt lat="43.59531" lon="3.77065">
        <ele>65.7</ele>
        <time>2011-05-29T06:15:26Z</time>
      </trkpt>
      <trkpt lat="43.59537" lon="3.77068">
        <ele>65.6</ele>
        <time>2011-05-29T06:15:27Z</time>
      </trkpt>
      <trkpt lat="43.59543" lon="3.77071">
        <ele>65.6</ele>
        <time>2011-05-29T06:15:28Z</time>
      </trkpt>
      <trkpt lat="43.59549" lon="3.77074">
        <ele>65.6</ele>
        <time>2011-05-29T06:15:29Z</time>
      </trkpt>
      <trkpt lat="43.59554" lon="3.77077">
        <ele>65.6</ele>
        <time>2011-05-29T06:15:30Z</time>
      </trkpt>
      <trkpt lat="43.5956" lon="3.7708">
        <ele>65.6</ele>
        <time>2011-05-29T06:15:31Z</time>
      </trkpt>
      <trkpt lat="43.59566" lon="3.77083">
        <ele>65.6</ele>
        <time>2011-05-29T06:15:32Z</time>
      </trkpt>
      <trkpt lat="43.59572" lon="3.77086">
        <ele>65.6</ele>
        <time>2011-05-29T06:15:33Z</time>
      </trkpt>
      <trkpt lat="43.59578" lon="3.77089">
        <ele>65.6</ele>
        <time>2011-05-29T06:15:34Z</time>
      </trkpt>
      <trkpt lat="43.59584" lon="3.77092">
        <ele>65.5</ele>
        <time>2011-05-29T06:15:35Z</time>
      </trkpt>
      <trkpt lat="43.59589" lon="3.77095">
        <ele>65.4</ele>
        <time>2011-05-29T06:15:36Z</time>
      </trkpt>
      <trkpt lat="43.59595" lon="3.77098">
        <ele>65.3</ele>
        <time>2011-05-29T06:15:37Z</time>
      </trkpt>
      <trkpt lat="43.59601" lon="3.77101">
        <ele>65.2</ele>
        <time>2011-05-29T06:15:38Z</time>
      </trkpt>
      <trkpt lat="43.59606" lon="3.77104">
        <ele>65</ele>
        <time>2011-05-29T06:15:39Z</time>
      </trkpt>
      <trkpt lat="43.59612" lon="3.77107">
        <ele>64.9</ele>
        <time>2011-05-29T06:15:40Z</time>
      </trkpt>
      <trkpt lat="43.59618" lon="3.7711">
        <ele>64.8</ele>
        <time>2011-05-29T06:15:41Z</time>
      </trkpt>
      <trkpt lat="43.59623" lon="3.77113">
        <ele>64.7</ele>
        <time>2011-05-29T06:15:42Z</time>
      </trkpt>
      <trkpt lat="43.59629" lon="3.77116">
        <ele>64.6</ele>
        <time>2011-05-29T06:15:43Z</time>
      </trkpt>
      <trkpt lat="43.59634" lon="3.77119">
        <ele>64.5</ele>
        <time>2011-05-29T06:15:44Z</time>
      </trkpt>
      <trkpt lat="43.5964" lon="3.77122">
        <ele>64.3</ele>
        <time>2011-05-29T06:15:45Z</time>
      </trkpt>
      <trkpt lat="43.59645" lon="3.77125">
        <ele>64.2</ele>
        <time>2011-05-29T06:15:46Z</time>
      </trkpt>
      <trkpt lat="43.59651" lon="3.77129">
        <ele>64.1</ele>
        <time>2011-05-29T06:15:47Z</time>
      </trkpt>
      <trkpt lat="43.59656" lon="3.77132">
        <ele>64</ele>
        <time>2011-05-29T06:15:48Z</time>
      </trkpt>
      <trkpt lat="43.59662" lon="3.77135">
        <ele>63.8</ele>
        <time>2011-05-29T06:15:49Z</time>
      </trkpt>
      <trkpt lat="43.59667" lon="3.77138">
        <ele>63.7</ele>
        <time>2011-05-29T06:15:50Z</time>
      </trkpt>
      <trkpt lat="43.59673" lon="3.77141">
        <ele>63.7</ele>
        <time>2011-05-29T06:15:51Z</time>
      </trkpt>
      <trkpt lat="43.59678" lon="3.77144">
        <ele>63.6</ele>
        <time>2011-05-29T06:15:52Z</time>
      </trkpt>
      <trkpt lat="43.59684" lon="3.77147">
        <ele>63.5</ele>
        <time>2011-05-29T06:15:53Z</time>
      </trkpt>
      <trkpt lat="43.59689" lon="3.7715">
        <ele>63.5</ele>
        <time>2011-05-29T06:15:54Z</time>
      </trkpt>
      <trkpt lat="43.59694" lon="3.77153">
        <ele>63.4</ele>
        <time>2011-05-29T06:15:55Z</time>
      </trkpt>
      <trkpt lat="43.597" lon="3.77156">
        <ele>63.4</ele>
        <time>2011-05-29T06:15:56Z</time>
      </trkpt>
      <trkpt lat="43.59705" lon="3.7716">
        <ele>63.3</ele>
        <time>2011-05-29T06:15:57Z</time>
      </trkpt>
      <trkpt lat="43.59711" lon="3.77163">
        <ele>63.3</ele>
        <time>2011-05-29T06:15:58Z</time>
      </trkpt>
      <trkpt lat="43.59716" lon="3.77167">
        <ele>63.2</ele>
        <time>2011-05-29T06:15:59Z</time>
      </trkpt>
      <trkpt lat="43.59721" lon="3.77171">
        <ele>63.1</ele>
        <time>2011-05-29T06:16:00Z</time>
      </trkpt>
      <trkpt lat="43.59725" lon="3.77176">
        <ele>63.1</ele>
        <time>2011-05-29T06:16:01Z</time>
      </trkpt>
      <trkpt lat="43.5973" lon="3.77181">
        <ele>63.1</ele>
        <time>2011-05-29T06:16:02Z</time>
      </trkpt>
      <trkpt lat="43.59734" lon="3.77186">
        <ele>63.1</ele>
        <time>2011-05-29T06:16:03Z</time>
      </trkpt>
      <trkpt lat="43.59739" lon="3.7719">
        <ele>63.1</ele>
        <time>2011-05-29T06:16:04Z</time>
      </trkpt>
      <trkpt lat="43.59743" lon="3.77195">
        <ele>63.1</ele>
        <time>2011-05-29T06:16:05Z</time>
      </trkpt>
      <trkpt lat="43.59747" lon="3.77199">
        <ele>63.1</ele>
        <time>2011-05-29T06:16:06Z</time>
      </trkpt>
      <trkpt lat="43.59751" lon="3.77203">
        <ele>63.2</ele>
        <time>2011-05-29T06:16:07Z</time>
      </trkpt>
      <trkpt lat="43.59755" lon="3.77207">
        <ele>63.1</ele>
        <time>2011-05-29T06:16:08Z</time>
      </trkpt>
      <trkpt lat="43.59762" lon="3.77215">
        <ele>63</ele>
        <time>2011-05-29T06:16:10Z</time>
      </trkpt>
      <trkpt lat="43.59768" lon="3.77222">
        <ele>63</ele>
        <time>2011-05-29T06:16:12Z</time>
      </trkpt>
      <trkpt lat="43.59775" lon="3.77229">
        <ele>62.9</ele>
        <time>2011-05-29T06:16:14Z</time>
      </trkpt>
      <trkpt lat="43.59782" lon="3.77236">
        <ele>62.8</ele>
        <time>2011-05-29T06:16:16Z</time>
      </trkpt>
      <trkpt lat="43.59786" lon="3.7724">
        <ele>62.7</ele>
        <time>2011-05-29T06:16:17Z</time>
      </trkpt>
      <trkpt lat="43.5979" lon="3.77243">
        <ele>62.7</ele>
        <time>2011-05-29T06:16:18Z</time>
      </trkpt>
      <trkpt lat="43.59794" lon="3.77246">
        <ele>62.6</ele>
        <time>2011-05-29T06:16:19Z</time>
      </trkpt>
      <trkpt lat="43.59802" lon="3.77252">
        <ele>62.6</ele>
        <time>2011-05-29T06:16:21Z</time>
      </trkpt>
      <trkpt lat="43.59809" lon="3.77259">
        <ele>62.6</ele>
        <time>2011-05-29T06:16:23Z</time>
      </trkpt>
      <trkpt lat="43.59817" lon="3.77265">
        <ele>62.7</ele>
        <time>2011-05-29T06:16:25Z</time>
      </trkpt>
      <trkpt lat="43.59825" lon="3.77271">
        <ele>62.8</ele>
        <time>2011-05-29T06:16:27Z</time>
      </trkpt>
      <trkpt lat="43.59832" lon="3.77277">
        <ele>63</ele>
        <time>2011-05-29T06:16:29Z</time>
      </trkpt>
      <trkpt lat="43.5984" lon="3.77282">
        <ele>63.4</ele>
        <time>2011-05-29T06:16:31Z</time>
      </trkpt>
      <trkpt lat="43.59848" lon="3.77286">
        <ele>63.9</ele>
        <time>2011-05-29T06:16:33Z</time>
      </trkpt>
      <trkpt lat="43.59855" lon="3.77288">
        <ele>64.5</ele>
        <time>2011-05-29T06:16:35Z</time>
      </trkpt>
      <trkpt lat="43.59863" lon="3.77285">
        <ele>65</ele>
        <time>2011-05-29T06:16:37Z</time>
      </trkpt>
      <trkpt lat="43.59868" lon="3.77277">
        <ele>65.4</ele>
        <time>2011-05-29T06:16:39Z</time>
      </trkpt>
      <trkpt lat="43.59873" lon="3.77268">
        <ele>65.7</ele>
        <time>2011-05-29T06:16:41Z</time>
      </trkpt>
      <trkpt lat="43.59877" lon="3.7726">
        <ele>66.1</ele>
        <time>2011-05-29T06:16:43Z</time>
      </trkpt>
      <trkpt lat="43.59879" lon="3.77255">
        <ele>66.3</ele>
        <time>2011-05-29T06:16:44Z</time>
      </trkpt>
      <trkpt lat="43.59886" lon="3.77243">
        <ele>67.1</ele>
        <time>2011-05-29T06:16:47Z</time>
      </trkpt>
      <trkpt lat="43.5989" lon="3.77235">
        <ele>67.7</ele>
        <time>2011-05-29T06:16:49Z</time>
      </trkpt>
      <trkpt lat="43.59894" lon="3.7723">
        <ele>68.3</ele>
        <time>2011-05-29T06:16:51Z</time>
      </trkpt>
      <trkpt lat="43.59901" lon="3.77228">
        <ele>68.9</ele>
        <time>2011-05-29T06:16:53Z</time>
      </trkpt>
      <trkpt lat="43.59908" lon="3.77228">
        <ele>69.4</ele>
        <time>2011-05-29T06:16:55Z</time>
      </trkpt>
      <trkpt lat="43.59914" lon="3.77227">
        <ele>69.9</ele>
        <time>2011-05-29T06:16:57Z</time>
      </trkpt>
      <trkpt lat="43.59921" lon="3.77225">
        <ele>70.5</ele>
        <time>2011-05-29T06:16:59Z</time>
      </trkpt>
      <trkpt lat="43.59927" lon="3.77223">
        <ele>71</ele>
        <time>2011-05-29T06:17:01Z</time>
      </trkpt>
      <trkpt lat="43.59934" lon="3.77222">
        <ele>71.6</ele>
        <time>2011-05-29T06:17:03Z</time>
      </trkpt>
      <trkpt lat="43.59941" lon="3.77221">
        <ele>72.1</ele>
        <time>2011-05-29T06:17:05Z</time>
      </trkpt>
      <trkpt lat="43.59947" lon="3.77223">
        <ele>72.5</ele>
        <time>2011-05-29T06:17:07Z</time>
      </trkpt>
      <trkpt lat="43.59954" lon="3.77226">
        <ele>72.9</ele>
        <time>2011-05-29T06:17:09Z</time>
      </trkpt>
      <trkpt lat="43.5996" lon="3.77229">
        <ele>73.2</ele>
        <time>2011-05-29T06:17:11Z</time>
      </trkpt>
      <trkpt lat="43.59966" lon="3.77233">
        <ele>73.6</ele>
        <time>2011-05-29T06:17:13Z</time>
      </trkpt>
      <trkpt lat="43.59971" lon="3.77239">
        <ele>73.8</ele>
        <time>2011-05-29T06:17:15Z</time>
      </trkpt>
      <trkpt lat="43.59977" lon="3.77244">
        <ele>74.2</ele>
        <time>2011-05-29T06:17:17Z</time>
      </trkpt>
      <trkpt lat="43.59983" lon="3.77249">
        <ele>74.6</ele>
        <time>2011-05-29T06:17:19Z</time>
      </trkpt>
      <trkpt lat="43.59989" lon="3.77253">
        <ele>74.9</ele>
        <time>2011-05-29T06:17:21Z</time>
      </trkpt>
      <trkpt lat="43.59995" lon="3.77258">
        <ele>75.2</ele>
        <time>2011-05-29T06:17:23Z</time>
      </trkpt>
      <trkpt lat="43.6" lon="3.77262">
        <ele>75.4</ele>
        <time>2011-05-29T06:17:25Z</time>
      </trkpt>
      <trkpt lat="43.60006" lon="3.77265">
        <ele>75.5</ele>
        <time>2011-05-29T06:17:27Z</time>
      </trkpt>
      <trkpt lat="43.60012" lon="3.77268">
        <ele>75.5</ele>
        <time>2011-05-29T06:17:29Z</time>
      </trkpt>
      <trkpt lat="43.60018" lon="3.7727">
        <ele>75.6</ele>
        <time>2011-05-29T06:17:31Z</time>
      </trkpt>
      <trkpt lat="43.60025" lon="3.77272">
        <ele>75.8</ele>
        <time>2011-05-29T06:17:33Z</time>
      </trkpt>
      <trkpt lat="43.60031" lon="3.77272">
        <ele>75.9</ele>
        <time>2011-05-29T06:17:35Z</time>
      </trkpt>
      <trkpt lat="43.6004" lon="3.77273">
        <ele>76.2</ele>
        <time>2011-05-29T06:17:38Z</time>
      </trkpt>
      <trkpt lat="43.60048" lon="3.77274">
        <ele>76.4</ele>
        <time>2011-05-29T06:17:41Z</time>
      </trkpt>
      <trkpt lat="43.60054" lon="3.77275">
        <ele>76.6</ele>
        <time>2011-05-29T06:17:43Z</time>
      </trkpt>
      <trkpt lat="43.6006" lon="3.77277">
        <ele>76.6</ele>
        <time>2011-05-29T06:17:45Z</time>
      </trkpt>
      <trkpt lat="43.60063" lon="3.77279">
        <ele>76.7</ele>
        <time>2011-05-29T06:17:46Z</time>
      </trkpt>
      <trkpt lat="43.60073" lon="3.77282">
        <ele>76.8</ele>
        <time>2011-05-29T06:17:49Z</time>
      </trkpt>
      <trkpt lat="43.6008" lon="3.77285">
        <ele>76.8</ele>
        <time>2011-05-29T06:17:51Z</time>
      </trkpt>
      <trkpt lat="43.60088" lon="3.77289">
        <ele>76.6</ele>
        <time>2011-05-29T06:17:53Z</time>
      </trkpt>
      <trkpt lat="43.60093" lon="3.77292">
        <ele>76.3</ele>
        <time>2011-05-29T06:17:54Z</time>
      </trkpt>
      <trkpt lat="43.60097" lon="3.77295">
        <ele>76</ele>
        <time>2011-05-29T06:17:55Z</time>
      </trkpt>
      <trkpt lat="43.60102" lon="3.77299">
        <ele>75.8</ele>
        <time>2011-05-29T06:17:56Z</time>
      </trkpt>
      <trkpt lat="43.60107" lon="3.77302">
        <ele>75.5</ele>
        <time>2011-05-29T06:17:57Z</time>
      </trkpt>
      <trkpt lat="43.60112" lon="3.77305">
        <ele>75.2</ele>
        <time>2011-05-29T06:17:58Z</time>
      </trkpt>
      <trkpt lat="43.60118" lon="3.77308">
        <ele>75</ele>
        <time>2011-05-29T06:17:59Z</time>
      </trkpt>
      <trkpt lat="43.60123" lon="3.77311">
        <ele>74.8</ele>
        <time>2011-05-29T06:18:00Z</time>
      </trkpt>
      <trkpt lat="43.60128" lon="3.77313">
        <ele>74.5</ele>
        <time>2011-05-29T06:18:01Z</time>
      </trkpt>
      <trkpt lat="43.60133" lon="3.77315">
        <ele>74.4</ele>
        <time>2011-05-29T06:18:02Z</time>
      </trkpt>
      <trkpt lat="43.60139" lon="3.77317">
        <ele>74.2</ele>
        <time>2011-05-29T06:18:03Z</time>
      </trkpt>
      <trkpt lat="43.60144" lon="3.77319">
        <ele>74</ele>
        <time>2011-05-29T06:18:04Z</time>
      </trkpt>
      <trkpt lat="43.60149" lon="3.7732">
        <ele>73.9</ele>
        <time>2011-05-29T06:18:05Z</time>
      </trkpt>
      <trkpt lat="43.60154" lon="3.77321">
        <ele>73.8</ele>
        <time>2011-05-29T06:18:06Z</time>
      </trkpt>
      <trkpt lat="43.6016" lon="3.77322">
        <ele>73.6</ele>
        <time>2011-05-29T06:18:07Z</time>
      </trkpt>
      <trkpt lat="43.60165" lon="3.77323">
        <ele>73.5</ele>
        <time>2011-05-29T06:18:08Z</time>
      </trkpt>
      <trkpt lat="43.60171" lon="3.77324">
        <ele>73.4</ele>
        <time>2011-05-29T06:18:09Z</time>
      </trkpt>
      <trkpt lat="43.60177" lon="3.77325">
        <ele>73.4</ele>
        <time>2011-05-29T06:18:10Z</time>
      </trkpt>
      <trkpt lat="43.60183" lon="3.77325">
        <ele>73.3</ele>
        <time>2011-05-29T06:18:11Z</time>
      </trkpt>
      <trkpt lat="43.60189" lon="3.77326">
        <ele>73.3</ele>
        <time>2011-05-29T06:18:12Z</time>
      </trkpt>
      <trkpt lat="43.60195" lon="3.77327">
        <ele>73.3</ele>
        <time>2011-05-29T06:18:13Z</time>
      </trkpt>
      <trkpt lat="43.60201" lon="3.77327">
        <ele>73.2</ele>
        <time>2011-05-29T06:18:14Z</time>
      </trkpt>
      <trkpt lat="43.60208" lon="3.77327">
        <ele>73.2</ele>
        <time>2011-05-29T06:18:15Z</time>
      </trkpt>
      <trkpt lat="43.60214" lon="3.77327">
        <ele>73.2</ele>
        <time>2011-05-29T06:18:16Z</time>
      </trkpt>
      <trkpt lat="43.6022" lon="3.77327">
        <ele>73.2</ele>
        <time>2011-05-29T06:18:17Z</time>
      </trkpt>
      <trkpt lat="43.60227" lon="3.77327">
        <ele>73.2</ele>
        <time>2011-05-29T06:18:18Z</time>
      </trkpt>
      <trkpt lat="43.60233" lon="3.77329">
        <ele>73.1</ele>
        <time>2011-05-29T06:18:19Z</time>
      </trkpt>
      <trkpt lat="43.6024" lon="3.77331">
        <ele>73.1</ele>
        <time>2011-05-29T06:18:20Z</time>
      </trkpt>
      <trkpt lat="43.60246" lon="3.77334">
        <ele>73</ele>
        <time>2011-05-29T06:18:21Z</time>
      </trkpt>
      <trkpt lat="43.60252" lon="3.77337">
        <ele>72.8</ele>
        <time>2011-05-29T06:18:22Z</time>
      </trkpt>
      <trkpt lat="43.60257" lon="3.7734">
        <ele>72.7</ele>
        <time>2011-05-29T06:18:23Z</time>
      </trkpt>
      <trkpt lat="43.60263" lon="3.77344">
        <ele>72.5</ele>
        <time>2011-05-29T06:18:24Z</time>
      </trkpt>
      <trkpt lat="43.60268" lon="3.77347">
        <ele>72.4</ele>
        <time>2011-05-29T06:18:25Z</time>
      </trkpt>
      <trkpt lat="43.60273" lon="3.77351">
        <ele>72.2</ele>
        <time>2011-05-29T06:18:26Z</time>
      </trkpt>
      <trkpt lat="43.60278" lon="3.77357">
        <ele>72</ele>
        <time>2011-05-29T06:18:27Z</time>
      </trkpt>
      <trkpt lat="43.60283" lon="3.77361">
        <ele>71.8</ele>
        <time>2011-05-29T06:18:28Z</time>
      </trkpt>
      <trkpt lat="43.60289" lon="3.77362">
        <ele>71.8</ele>
        <time>2011-05-29T06:18:29Z</time>
      </trkpt>
      <trkpt lat="43.60294" lon="3.7736">
        <ele>71.9</ele>
        <time>2011-05-29T06:18:30Z</time>
      </trkpt>
      <trkpt lat="43.60298" lon="3.77356">
        <ele>72.1</ele>
        <time>2011-05-29T06:18:31Z</time>
      </trkpt>
      <trkpt lat="43.60302" lon="3.77345">
        <ele>72.5</ele>
        <time>2011-05-29T06:18:33Z</time>
      </trkpt>
      <trkpt lat="43.60306" lon="3.77334">
        <ele>73</ele>
        <time>2011-05-29T06:18:35Z</time>
      </trkpt>
      <trkpt lat="43.6031" lon="3.77324">
        <ele>73.4</ele>
        <time>2011-05-29T06:18:37Z</time>
      </trkpt>
      <trkpt lat="43.60313" lon="3.77313">
        <ele>73.8</ele>
        <time>2011-05-29T06:18:39Z</time>
      </trkpt>
      <trkpt lat="43.60316" lon="3.77303">
        <ele>74.3</ele>
        <time>2011-05-29T06:18:41Z</time>
      </trkpt>
      <trkpt lat="43.60319" lon="3.77293">
        <ele>74.8</ele>
        <time>2011-05-29T06:18:43Z</time>
      </trkpt>
      <trkpt lat="43.60322" lon="3.77283">
        <ele>75.2</ele>
        <time>2011-05-29T06:18:45Z</time>
      </trkpt>
      <trkpt lat="43.60325" lon="3.77274">
        <ele>75.7</ele>
        <time>2011-05-29T06:18:47Z</time>
      </trkpt>
      <trkpt lat="43.60326" lon="3.7727">
        <ele>75.9</ele>
        <time>2011-05-29T06:18:48Z</time>
      </trkpt>
      <trkpt lat="43.60331" lon="3.77256">
        <ele>76.7</ele>
        <time>2011-05-29T06:18:51Z</time>
      </trkpt>
      <trkpt lat="43.60334" lon="3.77247">
        <ele>77.1</ele>
        <time>2011-05-29T06:18:53Z</time>
      </trkpt>
      <trkpt lat="43.60337" lon="3.77238">
        <ele>77.4</ele>
        <time>2011-05-29T06:18:55Z</time>
      </trkpt>
      <trkpt lat="43.6034" lon="3.7723">
        <ele>77.7</ele>
        <time>2011-05-29T06:18:57Z</time>
      </trkpt>
      <trkpt lat="43.60343" lon="3.77221">
        <ele>78</ele>
        <time>2011-05-29T06:18:59Z</time>
      </trkpt>
      <trkpt lat="43.60346" lon="3.77213">
        <ele>78.3</ele>
        <time>2011-05-29T06:19:01Z</time>
      </trkpt>
      <trkpt lat="43.60349" lon="3.77205">
        <ele>78.5</ele>
        <time>2011-05-29T06:19:03Z</time>
      </trkpt>
      <trkpt lat="43.60353" lon="3.77196">
        <ele>78.7</ele>
        <time>2011-05-29T06:19:05Z</time>
      </trkpt>
      <trkpt lat="43.60355" lon="3.77188">
        <ele>79</ele>
        <time>2011-05-29T06:19:07Z</time>
      </trkpt>
      <trkpt lat="43.60356" lon="3.77176">
        <ele>79.5</ele>
        <time>2011-05-29T06:19:10Z</time>
      </trkpt>
      <trkpt lat="43.60358" lon="3.77165">
        <ele>80.1</ele>
        <time>2011-05-29T06:19:13Z</time>
      </trkpt>
      <trkpt lat="43.60358" lon="3.77154">
        <ele>80.8</ele>
        <time>2011-05-29T06:19:16Z</time>
      </trkpt>
      <trkpt lat="43.60359" lon="3.77142">
        <ele>81.5</ele>
        <time>2011-05-29T06:19:19Z</time>
      </trkpt>
      <trkpt lat="43.60359" lon="3.77131">
        <ele>82.2</ele>
        <time>2011-05-29T06:19:22Z</time>
      </trkpt>
      <trkpt lat="43.6036" lon="3.77121">
        <ele>82.9</ele>
        <time>2011-05-29T06:19:25Z</time>
      </trkpt>
      <trkpt lat="43.60363" lon="3.7711">
        <ele>83.4</ele>
        <time>2011-05-29T06:19:28Z</time>
      </trkpt>
      <trkpt lat="43.60362" lon="3.77098">
        <ele>84.3</ele>
        <time>2011-05-29T06:19:31Z</time>
      </trkpt>
      <trkpt lat="43.6036" lon="3.77088">
        <ele>85.1</ele>
        <time>2011-05-29T06:19:34Z</time>
      </trkpt>
      <trkpt lat="43.60358" lon="3.77077">
        <ele>86.1</ele>
        <time>2011-05-29T06:19:37Z</time>
      </trkpt>
      <trkpt lat="43.60356" lon="3.77065">
        <ele>87.2</ele>
        <time>2011-05-29T06:19:40Z</time>
      </trkpt>
      <trkpt lat="43.60354" lon="3.77056">
        <ele>88</ele>
        <time>2011-05-29T06:19:42Z</time>
      </trkpt>
      <trkpt lat="43.60354" lon="3.77048">
        <ele>88.7</ele>
        <time>2011-05-29T06:19:44Z</time>
      </trkpt>
      <trkpt lat="43.60354" lon="3.77035">
        <ele>89.7</ele>
        <time>2011-05-29T06:19:47Z</time>
      </trkpt>
      <trkpt lat="43.60353" lon="3.77027">
        <ele>90.4</ele>
        <time>2011-05-29T06:19:49Z</time>
      </trkpt>
      <trkpt lat="43.60354" lon="3.77023">
        <ele>90.6</ele>
        <time>2011-05-29T06:19:50Z</time>
      </trkpt>
      <trkpt lat="43.60354" lon="3.77009">
        <ele>91.6</ele>
        <time>2011-05-29T06:19:53Z</time>
      </trkpt>
      <trkpt lat="43.60354" lon="3.76999">
        <ele>92.3</ele>
        <time>2011-05-29T06:19:55Z</time>
      </trkpt>
      <trkpt lat="43.60354" lon="3.76991">
        <ele>92.7</ele>
        <time>2011-05-29T06:19:57Z</time>
      </trkpt>
      <trkpt lat="43.60355" lon="3.76983">
        <ele>93</ele>
        <time>2011-05-29T06:19:59Z</time>
      </trkpt>
      <trkpt lat="43.60355" lon="3.76974">
        <ele>93.3</ele>
        <time>2011-05-29T06:20:01Z</time>
      </trkpt>
      <trkpt lat="43.60355" lon="3.76965">
        <ele>93.7</ele>
        <time>2011-05-29T06:20:03Z</time>
      </trkpt>
      <trkpt lat="43.60355" lon="3.76956">
        <ele>94.2</ele>
        <time>2011-05-29T06:20:05Z</time>
      </trkpt>
      <trkpt lat="43.60354" lon="3.76947">
        <ele>94.6</ele>
        <time>2011-05-29T06:20:07Z</time>
      </trkpt>
      <trkpt lat="43.60355" lon="3.76938">
        <ele>95</ele>
        <time>2011-05-29T06:20:09Z</time>
      </trkpt>
      <trkpt lat="43.60355" lon="3.76929">
        <ele>95.4</ele>
        <time>2011-05-29T06:20:11Z</time>
      </trkpt>
      <trkpt lat="43.60354" lon="3.7692">
        <ele>95.9</ele>
        <time>2011-05-29T06:20:13Z</time>
      </trkpt>
      <trkpt lat="43.60353" lon="3.76911">
        <ele>96.4</ele>
        <time>2011-05-29T06:20:15Z</time>
      </trkpt>
      <trkpt lat="43.60354" lon="3.76902">
        <ele>96.6</ele>
        <time>2011-05-29T06:20:17Z</time>
      </trkpt>
      <trkpt lat="43.60356" lon="3.76894">
        <ele>96.8</ele>
        <time>2011-05-29T06:20:19Z</time>
      </trkpt>
      <trkpt lat="43.60358" lon="3.76886">
        <ele>96.8</ele>
        <time>2011-05-29T06:20:21Z</time>
      </trkpt>
      <trkpt lat="43.6036" lon="3.76876">
        <ele>97.1</ele>
        <time>2011-05-29T06:20:23Z</time>
      </trkpt>
      <trkpt lat="43.60363" lon="3.76866">
        <ele>97.3</ele>
        <time>2011-05-29T06:20:25Z</time>
      </trkpt>
      <trkpt lat="43.60365" lon="3.76855">
        <ele>97.6</ele>
        <time>2011-05-29T06:20:27Z</time>
      </trkpt>
      <trkpt lat="43.60367" lon="3.76844">
        <ele>98</ele>
        <time>2011-05-29T06:20:29Z</time>
      </trkpt>
      <trkpt lat="43.6037" lon="3.76834">
        <ele>98.3</ele>
        <time>2011-05-29T06:20:31Z</time>
      </trkpt>
      <trkpt lat="43.60375" lon="3.76823">
        <ele>98.6</ele>
        <time>2011-05-29T06:20:33Z</time>
      </trkpt>
      <trkpt lat="43.6038" lon="3.76815">
        <ele>98.7</ele>
        <time>2011-05-29T06:20:35Z</time>
      </trkpt>
      <trkpt lat="43.60385" lon="3.76808">
        <ele>98.9</ele>
        <time>2011-05-29T06:20:37Z</time>
      </trkpt>
      <trkpt lat="43.6039" lon="3.768">
        <ele>99.1</ele>
        <time>2011-05-29T06:20:39Z</time>
      </trkpt>
      <trkpt lat="43.60395" lon="3.76793">
        <ele>99.3</ele>
        <time>2011-05-29T06:20:41Z</time>
      </trkpt>
      <trkpt lat="43.604" lon="3.76786">
        <ele>99.6</ele>
        <time>2011-05-29T06:20:43Z</time>
      </trkpt>
      <trkpt lat="43.60407" lon="3.76778">
        <ele>100</ele>
        <time>2011-05-29T06:20:46Z</time>
      </trkpt>
      <trkpt lat="43.60412" lon="3.76773">
        <ele>100.2</ele>
        <time>2011-05-29T06:20:48Z</time>
      </trkpt>
      <trkpt lat="43.60419" lon="3.76768">
        <ele>100.6</ele>
        <time>2011-05-29T06:20:50Z</time>
      </trkpt>
      <trkpt lat="43.60426" lon="3.7676">
        <ele>101.6</ele>
        <time>2011-05-29T06:20:52Z</time>
      </trkpt>
      <trkpt lat="43.60428" lon="3.76755">
        <ele>102.1</ele>
        <time>2011-05-29T06:20:53Z</time>
      </trkpt>
      <trkpt lat="43.60434" lon="3.76739">
        <ele>103.3</ele>
        <time>2011-05-29T06:20:57Z</time>
      </trkpt>
      <trkpt lat="43.60434" lon="3.76729">
        <ele>103.7</ele>
        <time>2011-05-29T06:21:00Z</time>
      </trkpt>
      <trkpt lat="43.60431" lon="3.7672">
        <ele>103.9</ele>
        <time>2011-05-29T06:21:03Z</time>
      </trkpt>
      <trkpt lat="43.60426" lon="3.76709">
        <ele>104</ele>
        <time>2011-05-29T06:21:08Z</time>
      </trkpt>
      <trkpt lat="43.60428" lon="3.76697">
        <ele>104.5</ele>
        <time>2011-05-29T06:21:55Z</time>
      </trkpt>
      <trkpt lat="43.60428" lon="3.76697">
        <ele>104.5</ele>
        <time>2011-05-29T06:21:56Z</time>
      </trkpt>
      <trkpt lat="43.60415" lon="3.76682">
        <ele>104.5</ele>
        <time>2011-05-29T06:22:26Z</time>
      </trkpt>
      <trkpt lat="43.60409" lon="3.76677">
        <ele>104.7</ele>
        <time>2011-05-29T06:22:29Z</time>
      </trkpt>
      <trkpt lat="43.60403" lon="3.76672">
        <ele>104.8</ele>
        <time>2011-05-29T06:22:32Z</time>
      </trkpt>
      <trkpt lat="43.60397" lon="3.76666">
        <ele>105</ele>
        <time>2011-05-29T06:22:35Z</time>
      </trkpt>
      <trkpt lat="43.60392" lon="3.7666">
        <ele>105</ele>
        <time>2011-05-29T06:22:38Z</time>
      </trkpt>
      <trkpt lat="43.60388" lon="3.76651">
        <ele>105</ele>
        <time>2011-05-29T06:22:41Z</time>
      </trkpt>
      <trkpt lat="43.60388" lon="3.7664">
        <ele>105</ele>
        <time>2011-05-29T06:22:44Z</time>
      </trkpt>
      <trkpt lat="43.60392" lon="3.76632">
        <ele>105</ele>
        <time>2011-05-29T06:22:46Z</time>
      </trkpt>
      <trkpt lat="43.60398" lon="3.76627">
        <ele>104.8</ele>
        <time>2011-05-29T06:22:48Z</time>
      </trkpt>
      <trkpt lat="43.60406" lon="3.76622">
        <ele>104.7</ele>
        <time>2011-05-29T06:22:50Z</time>
      </trkpt>
      <trkpt lat="43.60415" lon="3.76621">
        <ele>104.5</ele>
        <time>2011-05-29T06:22:52Z</time>
      </trkpt>
      <trkpt lat="43.60423" lon="3.76622">
        <ele>104.7</ele>
        <time>2011-05-29T06:22:54Z</time>
      </trkpt>
      <trkpt lat="43.60431" lon="3.76622">
        <ele>105</ele>
        <time>2011-05-29T06:22:56Z</time>
      </trkpt>
      <trkpt lat="43.60439" lon="3.76622">
        <ele>105.2</ele>
        <time>2011-05-29T06:22:58Z</time>
      </trkpt>
      <trkpt lat="43.60443" lon="3.76621">
        <ele>105.3</ele>
        <time>2011-05-29T06:22:59Z</time>
      </trkpt>
      <trkpt lat="43.60455" lon="3.76616">
        <ele>105.6</ele>
        <time>2011-05-29T06:23:02Z</time>
      </trkpt>
      <trkpt lat="43.60462" lon="3.7661">
        <ele>105.6</ele>
        <time>2011-05-29T06:23:04Z</time>
      </trkpt>
      <trkpt lat="43.60468" lon="3.76602">
        <ele>105.4</ele>
        <time>2011-05-29T06:23:06Z</time>
      </trkpt>
      <trkpt lat="43.60471" lon="3.76597">
        <ele>105.2</ele>
        <time>2011-05-29T06:23:07Z</time>
      </trkpt>
      <trkpt lat="43.60474" lon="3.76591">
        <ele>105</ele>
        <time>2011-05-29T06:23:08Z</time>
      </trkpt>
      <trkpt lat="43.60478" lon="3.76582">
        <ele>104.7</ele>
        <time>2011-05-29T06:23:10Z</time>
      </trkpt>
      <trkpt lat="43.60475" lon="3.76571">
        <ele>104.2</ele>
        <time>2011-05-29T06:23:15Z</time>
      </trkpt>
      <trkpt lat="43.6047" lon="3.76566">
        <ele>104</ele>
        <time>2011-05-29T06:23:17Z</time>
      </trkpt>
      <trkpt lat="43.60466" lon="3.76556">
        <ele>103.7</ele>
        <time>2011-05-29T06:23:19Z</time>
      </trkpt>
      <trkpt lat="43.60463" lon="3.76551">
        <ele>103.6</ele>
        <time>2011-05-29T06:23:20Z</time>
      </trkpt>
      <trkpt lat="43.6046" lon="3.76546">
        <ele>103.6</ele>
        <time>2011-05-29T06:23:21Z</time>
      </trkpt>
      <trkpt lat="43.60457" lon="3.7654">
        <ele>103.5</ele>
        <time>2011-05-29T06:23:22Z</time>
      </trkpt>
      <trkpt lat="43.60454" lon="3.76535">
        <ele>103.5</ele>
        <time>2011-05-29T06:23:23Z</time>
      </trkpt>
      <trkpt lat="43.60449" lon="3.76527">
        <ele>103.5</ele>
        <time>2011-05-29T06:23:25Z</time>
      </trkpt>
      <trkpt lat="43.60443" lon="3.76519">
        <ele>103.6</ele>
        <time>2011-05-29T06:23:28Z</time>
      </trkpt>
      <trkpt lat="43.60439" lon="3.76511">
        <ele>103.7</ele>
        <time>2011-05-29T06:23:31Z</time>
      </trkpt>
      <trkpt lat="43.60433" lon="3.76503">
        <ele>104</ele>
        <time>2011-05-29T06:23:35Z</time>
      </trkpt>
      <trkpt lat="43.60427" lon="3.76496">
        <ele>104.5</ele>
        <time>2011-05-29T06:23:39Z</time>
      </trkpt>
      <trkpt lat="43.60424" lon="3.76487">
        <ele>104.9</ele>
        <time>2011-05-29T06:23:42Z</time>
      </trkpt>
      <trkpt lat="43.6042" lon="3.76479">
        <ele>105.5</ele>
        <time>2011-05-29T06:23:46Z</time>
      </trkpt>
      <trkpt lat="43.60416" lon="3.7647">
        <ele>106.1</ele>
        <time>2011-05-29T06:23:49Z</time>
      </trkpt>
      <trkpt lat="43.60412" lon="3.76461">
        <ele>106.7</ele>
        <time>2011-05-29T06:23:53Z</time>
      </trkpt>
      <trkpt lat="43.60407" lon="3.76451">
        <ele>107.3</ele>
        <time>2011-05-29T06:23:58Z</time>
      </trkpt>
      <trkpt lat="43.60402" lon="3.76442">
        <ele>107.8</ele>
        <time>2011-05-29T06:24:03Z</time>
      </trkpt>
      <trkpt lat="43.60401" lon="3.7644">
        <ele>108</ele>
        <time>2011-05-29T06:24:04Z</time>
      </trkpt>
      <trkpt lat="43.60394" lon="3.76423">
        <ele>108.9</ele>
        <time>2011-05-29T06:24:13Z</time>
      </trkpt>
      <trkpt lat="43.6039" lon="3.76412">
        <ele>109</ele>
        <time>2011-05-29T06:24:18Z</time>
      </trkpt>
      <trkpt lat="43.60386" lon="3.76402">
        <ele>108.7</ele>
        <time>2011-05-29T06:24:52Z</time>
      </trkpt>
      <trkpt lat="43.60388" lon="3.76393">
        <ele>108</ele>
        <time>2011-05-29T06:24:58Z</time>
      </trkpt>
      <trkpt lat="43.6039" lon="3.76381">
        <ele>107.3</ele>
        <time>2011-05-29T06:25:04Z</time>
      </trkpt>
      <trkpt lat="43.60388" lon="3.76379">
        <ele>107.2</ele>
        <time>2011-05-29T06:25:05Z</time>
      </trkpt>
      <trkpt lat="43.60374" lon="3.76379">
        <ele>107.8</ele>
        <time>2011-05-29T06:25:12Z</time>
      </trkpt>
      <trkpt lat="43.60367" lon="3.76379">
        <ele>108</ele>
        <time>2011-05-29T06:25:15Z</time>
      </trkpt>
      <trkpt lat="43.60359" lon="3.76377">
        <ele>108.2</ele>
        <time>2011-05-29T06:25:17Z</time>
      </trkpt>
      <trkpt lat="43.60353" lon="3.76371">
        <ele>108</ele>
        <time>2011-05-29T06:25:19Z</time>
      </trkpt>
      <trkpt lat="43.60347" lon="3.76364">
        <ele>107.8</ele>
        <time>2011-05-29T06:25:21Z</time>
      </trkpt>
      <trkpt lat="43.60341" lon="3.76357">
        <ele>107.5</ele>
        <time>2011-05-29T06:25:23Z</time>
      </trkpt>
      <trkpt lat="43.60335" lon="3.7635">
        <ele>107.1</ele>
        <time>2011-05-29T06:25:25Z</time>
      </trkpt>
      <trkpt lat="43.60328" lon="3.76344">
        <ele>106.5</ele>
        <time>2011-05-29T06:25:27Z</time>
      </trkpt>
      <trkpt lat="43.60321" lon="3.76349">
        <ele>106.4</ele>
        <time>2011-05-29T06:25:32Z</time>
      </trkpt>
      <trkpt lat="43.60316" lon="3.76358">
        <ele>106.7</ele>
        <time>2011-05-29T06:25:37Z</time>
      </trkpt>
      <trkpt lat="43.6031" lon="3.76366">
        <ele>106.9</ele>
        <time>2011-05-29T06:25:42Z</time>
      </trkpt>
      <trkpt lat="43.60304" lon="3.7637">
        <ele>106.7</ele>
        <time>2011-05-29T06:25:47Z</time>
      </trkpt>
      <trkpt lat="43.60296" lon="3.76375">
        <ele>106.5</ele>
        <time>2011-05-29T06:25:51Z</time>
      </trkpt>
      <trkpt lat="43.6029" lon="3.76385">
        <ele>106.7</ele>
        <time>2011-05-29T06:25:54Z</time>
      </trkpt>
      <trkpt lat="43.60286" lon="3.76393">
        <ele>106.8</ele>
        <time>2011-05-29T06:25:56Z</time>
      </trkpt>
      <trkpt lat="43.60282" lon="3.76402">
        <ele>106.9</ele>
        <time>2011-05-29T06:25:58Z</time>
      </trkpt>
      <trkpt lat="43.60278" lon="3.76409">
        <ele>107</ele>
        <time>2011-05-29T06:26:00Z</time>
      </trkpt>
      <trkpt lat="43.60273" lon="3.76418">
        <ele>106.9</ele>
        <time>2011-05-29T06:26:03Z</time>
      </trkpt>
      <trkpt lat="43.60268" lon="3.76428">
        <ele>106.6</ele>
        <time>2011-05-29T06:26:06Z</time>
      </trkpt>
      <trkpt lat="43.60267" lon="3.76432">
        <ele>106.5</ele>
        <time>2011-05-29T06:26:07Z</time>
      </trkpt>
      <trkpt lat="43.60257" lon="3.76428">
        <ele>105.7</ele>
        <time>2011-05-29T06:26:15Z</time>
      </trkpt>
      <trkpt lat="43.60254" lon="3.76418">
        <ele>105.3</ele>
        <time>2011-05-29T06:26:17Z</time>
      </trkpt>
      <trkpt lat="43.60253" lon="3.76406">
        <ele>104.8</ele>
        <time>2011-05-29T06:26:19Z</time>
      </trkpt>
      <trkpt lat="43.60254" lon="3.76396">
        <ele>104.5</ele>
        <time>2011-05-29T06:26:21Z</time>
      </trkpt>
      <trkpt lat="43.60254" lon="3.76386">
        <ele>104.2</ele>
        <time>2011-05-29T06:26:23Z</time>
      </trkpt>
      <trkpt lat="43.60253" lon="3.76374">
        <ele>103.6</ele>
        <time>2011-05-29T06:26:26Z</time>
      </trkpt>
      <trkpt lat="43.60248" lon="3.76368">
        <ele>103</ele>
        <time>2011-05-29T06:26:28Z</time>
      </trkpt>
      <trkpt lat="43.60242" lon="3.76361">
        <ele>101.9</ele>
        <time>2011-05-29T06:26:30Z</time>
      </trkpt>
      <trkpt lat="43.60235" lon="3.76356">
        <ele>100.8</ele>
        <time>2011-05-29T06:26:32Z</time>
      </trkpt>
      <trkpt lat="43.6023" lon="3.76356">
        <ele>100.1</ele>
        <time>2011-05-29T06:26:33Z</time>
      </trkpt>
      <trkpt lat="43.60226" lon="3.76357">
        <ele>99.6</ele>
        <time>2011-05-29T06:26:34Z</time>
      </trkpt>
      <trkpt lat="43.60218" lon="3.76358">
        <ele>98.5</ele>
        <time>2011-05-29T06:26:36Z</time>
      </trkpt>
      <trkpt lat="43.60213" lon="3.76352">
        <ele>97.7</ele>
        <time>2011-05-29T06:26:38Z</time>
      </trkpt>
      <trkpt lat="43.60208" lon="3.7635">
        <ele>96.9</ele>
        <time>2011-05-29T06:26:40Z</time>
      </trkpt>
      <trkpt lat="43.60201" lon="3.76354">
        <ele>96.1</ele>
        <time>2011-05-29T06:26:42Z</time>
      </trkpt>
      <trkpt lat="43.60195" lon="3.76359">
        <ele>95.5</ele>
        <time>2011-05-29T06:26:45Z</time>
      </trkpt>
      <trkpt lat="43.6019" lon="3.76368">
        <ele>95</ele>
        <time>2011-05-29T06:26:48Z</time>
      </trkpt>
      <trkpt lat="43.60185" lon="3.76373">
        <ele>94.4</ele>
        <time>2011-05-29T06:26:50Z</time>
      </trkpt>
      <trkpt lat="43.60178" lon="3.76372">
        <ele>93.4</ele>
        <time>2011-05-29T06:26:52Z</time>
      </trkpt>
      <trkpt lat="43.60171" lon="3.76366">
        <ele>92.3</ele>
        <time>2011-05-29T06:26:54Z</time>
      </trkpt>
      <trkpt lat="43.60163" lon="3.76364">
        <ele>91.9</ele>
        <time>2011-05-29T06:26:57Z</time>
      </trkpt>
      <trkpt lat="43.60155" lon="3.76367">
        <ele>92.3</ele>
        <time>2011-05-29T06:27:00Z</time>
      </trkpt>
      <trkpt lat="43.60148" lon="3.76367">
        <ele>92.6</ele>
        <time>2011-05-29T06:27:02Z</time>
      </trkpt>
      <trkpt lat="43.60145" lon="3.76356">
        <ele>92.8</ele>
        <time>2011-05-29T06:27:09Z</time>
      </trkpt>
      <trkpt lat="43.60145" lon="3.76354">
        <ele>92.7</ele>
        <time>2011-05-29T06:27:10Z</time>
      </trkpt>
      <trkpt lat="43.6015" lon="3.76335">
        <ele>92.4</ele>
        <time>2011-05-29T06:27:19Z</time>
      </trkpt>
      <trkpt lat="43.60152" lon="3.76324">
        <ele>92.3</ele>
        <time>2011-05-29T06:27:23Z</time>
      </trkpt>
      <trkpt lat="43.60154" lon="3.76315">
        <ele>92.2</ele>
        <time>2011-05-29T06:27:26Z</time>
      </trkpt>
      <trkpt lat="43.60155" lon="3.76305">
        <ele>92.1</ele>
        <time>2011-05-29T06:27:29Z</time>
      </trkpt>
      <trkpt lat="43.60155" lon="3.76295">
        <ele>92.1</ele>
        <time>2011-05-29T06:27:32Z</time>
      </trkpt>
      <trkpt lat="43.60155" lon="3.76285">
        <ele>92.2</ele>
        <time>2011-05-29T06:27:35Z</time>
      </trkpt>
      <trkpt lat="43.60154" lon="3.76275">
        <ele>92.3</ele>
        <time>2011-05-29T06:27:38Z</time>
      </trkpt>
      <trkpt lat="43.60152" lon="3.76263">
        <ele>92.5</ele>
        <time>2011-05-29T06:27:41Z</time>
      </trkpt>
      <trkpt lat="43.60151" lon="3.76255">
        <ele>92.7</ele>
        <time>2011-05-29T06:27:43Z</time>
      </trkpt>
      <trkpt lat="43.60149" lon="3.76246">
        <ele>92.8</ele>
        <time>2011-05-29T06:27:45Z</time>
      </trkpt>
      <trkpt lat="43.60147" lon="3.76238">
        <ele>92.8</ele>
        <time>2011-05-29T06:27:47Z</time>
      </trkpt>
      <trkpt lat="43.60145" lon="3.7623">
        <ele>92.9</ele>
        <time>2011-05-29T06:27:49Z</time>
      </trkpt>
      <trkpt lat="43.60142" lon="3.76221">
        <ele>93</ele>
        <time>2011-05-29T06:27:51Z</time>
      </trkpt>
      <trkpt lat="43.60139" lon="3.76214">
        <ele>93.2</ele>
        <time>2011-05-29T06:27:53Z</time>
      </trkpt>
      <trkpt lat="43.60135" lon="3.76207">
        <ele>93.3</ele>
        <time>2011-05-29T06:27:55Z</time>
      </trkpt>
      <trkpt lat="43.6013" lon="3.762">
        <ele>93.6</ele>
        <time>2011-05-29T06:27:57Z</time>
      </trkpt>
      <trkpt lat="43.60125" lon="3.76194">
        <ele>93.8</ele>
        <time>2011-05-29T06:27:59Z</time>
      </trkpt>
      <trkpt lat="43.60121" lon="3.76188">
        <ele>94</ele>
        <time>2011-05-29T06:28:01Z</time>
      </trkpt>
      <trkpt lat="43.60116" lon="3.76181">
        <ele>94.1</ele>
        <time>2011-05-29T06:28:03Z</time>
      </trkpt>
      <trkpt lat="43.60111" lon="3.76172">
        <ele>94.2</ele>
        <time>2011-05-29T06:28:06Z</time>
      </trkpt>
      <trkpt lat="43.60106" lon="3.76162">
        <ele>94.4</ele>
        <time>2011-05-29T06:28:11Z</time>
      </trkpt>
      <trkpt lat="43.60104" lon="3.7616">
        <ele>94.5</ele>
        <time>2011-05-29T06:28:12Z</time>
      </trkpt>
      <trkpt lat="43.60093" lon="3.76146">
        <ele>94.9</ele>
        <time>2011-05-29T06:28:26Z</time>
      </trkpt>
      <trkpt lat="43.60087" lon="3.76138">
        <ele>94.9</ele>
        <time>2011-05-29T06:28:35Z</time>
      </trkpt>
      <trkpt lat="43.60082" lon="3.76129">
        <ele>94.7</ele>
        <time>2011-05-29T06:28:40Z</time>
      </trkpt>
      <trkpt lat="43.60077" lon="3.7612">
        <ele>94.7</ele>
        <time>2011-05-29T06:28:44Z</time>
      </trkpt>
      <trkpt lat="43.60073" lon="3.76109">
        <ele>94.7</ele>
        <time>2011-05-29T06:28:48Z</time>
      </trkpt>
      <trkpt lat="43.60071" lon="3.761">
        <ele>94.6</ele>
        <time>2011-05-29T06:28:51Z</time>
      </trkpt>
      <trkpt lat="43.60068" lon="3.76091">
        <ele>94.5</ele>
        <time>2011-05-29T06:28:54Z</time>
      </trkpt>
      <trkpt lat="43.60066" lon="3.7608">
        <ele>94.5</ele>
        <time>2011-05-29T06:28:57Z</time>
      </trkpt>
      <trkpt lat="43.60065" lon="3.76069">
        <ele>94.9</ele>
        <time>2011-05-29T06:29:00Z</time>
      </trkpt>
      <trkpt lat="43.60065" lon="3.76058">
        <ele>95.3</ele>
        <time>2011-05-29T06:29:03Z</time>
      </trkpt>
      <trkpt lat="43.60066" lon="3.76046">
        <ele>95.5</ele>
        <time>2011-05-29T06:29:06Z</time>
      </trkpt>
      <trkpt lat="43.60071" lon="3.76037">
        <ele>95.2</ele>
        <time>2011-05-29T06:29:09Z</time>
      </trkpt>
      <trkpt lat="43.60077" lon="3.76029">
        <ele>94.9</ele>
        <time>2011-05-29T06:29:12Z</time>
      </trkpt>
      <trkpt lat="43.6008" lon="3.76021">
        <ele>94.8</ele>
        <time>2011-05-29T06:29:14Z</time>
      </trkpt>
      <trkpt lat="43.60081" lon="3.76017">
        <ele>94.9</ele>
        <time>2011-05-29T06:29:15Z</time>
      </trkpt>
      <trkpt lat="43.60083" lon="3.75997">
        <ele>95.1</ele>
        <time>2011-05-29T06:29:20Z</time>
      </trkpt>
      <trkpt lat="43.60085" lon="3.75986">
        <ele>95.6</ele>
        <time>2011-05-29T06:29:23Z</time>
      </trkpt>
      <trkpt lat="43.60086" lon="3.75977">
        <ele>96</ele>
        <time>2011-05-29T06:29:25Z</time>
      </trkpt>
      <trkpt lat="43.60089" lon="3.75969">
        <ele>96.4</ele>
        <time>2011-05-29T06:29:27Z</time>
      </trkpt>
      <trkpt lat="43.60091" lon="3.75962">
        <ele>96.7</ele>
        <time>2011-05-29T06:29:29Z</time>
      </trkpt>
      <trkpt lat="43.60094" lon="3.75954">
        <ele>97.1</ele>
        <time>2011-05-29T06:29:31Z</time>
      </trkpt>
      <trkpt lat="43.60098" lon="3.75946">
        <ele>97.4</ele>
        <time>2011-05-29T06:29:33Z</time>
      </trkpt>
      <trkpt lat="43.60102" lon="3.75939">
        <ele>97.6</ele>
        <time>2011-05-29T06:29:35Z</time>
      </trkpt>
      <trkpt lat="43.60106" lon="3.75931">
        <ele>97.8</ele>
        <time>2011-05-29T06:29:37Z</time>
      </trkpt>
      <trkpt lat="43.6011" lon="3.75923">
        <ele>97.9</ele>
        <time>2011-05-29T06:29:39Z</time>
      </trkpt>
      <trkpt lat="43.60115" lon="3.75916">
        <ele>98</ele>
        <time>2011-05-29T06:29:41Z</time>
      </trkpt>
      <trkpt lat="43.6012" lon="3.75909">
        <ele>98.2</ele>
        <time>2011-05-29T06:29:43Z</time>
      </trkpt>
      <trkpt lat="43.60126" lon="3.75903">
        <ele>98.2</ele>
        <time>2011-05-29T06:29:45Z</time>
      </trkpt>
      <trkpt lat="43.60132" lon="3.75898">
        <ele>98.2</ele>
        <time>2011-05-29T06:29:47Z</time>
      </trkpt>
      <trkpt lat="43.60138" lon="3.75893">
        <ele>98.1</ele>
        <time>2011-05-29T06:29:49Z</time>
      </trkpt>
      <trkpt lat="43.60145" lon="3.75889">
        <ele>98</ele>
        <time>2011-05-29T06:29:51Z</time>
      </trkpt>
      <trkpt lat="43.60151" lon="3.75885">
        <ele>97.7</ele>
        <time>2011-05-29T06:29:53Z</time>
      </trkpt>
      <trkpt lat="43.60158" lon="3.75884">
        <ele>97.5</ele>
        <time>2011-05-29T06:29:55Z</time>
      </trkpt>
      <trkpt lat="43.60165" lon="3.75883">
        <ele>97.3</ele>
        <time>2011-05-29T06:29:57Z</time>
      </trkpt>
      <trkpt lat="43.6017" lon="3.75879">
        <ele>97.3</ele>
        <time>2011-05-29T06:29:59Z</time>
      </trkpt>
      <trkpt lat="43.60176" lon="3.75874">
        <ele>97.5</ele>
        <time>2011-05-29T06:30:01Z</time>
      </trkpt>
      <trkpt lat="43.60181" lon="3.75869">
        <ele>97.7</ele>
        <time>2011-05-29T06:30:03Z</time>
      </trkpt>
      <trkpt lat="43.60187" lon="3.75863">
        <ele>97.9</ele>
        <time>2011-05-29T06:30:05Z</time>
      </trkpt>
      <trkpt lat="43.60193" lon="3.75857">
        <ele>98</ele>
        <time>2011-05-29T06:30:07Z</time>
      </trkpt>
      <trkpt lat="43.60199" lon="3.75852">
        <ele>98.2</ele>
        <time>2011-05-29T06:30:09Z</time>
      </trkpt>
      <trkpt lat="43.60205" lon="3.75847">
        <ele>98.3</ele>
        <time>2011-05-29T06:30:11Z</time>
      </trkpt>
      <trkpt lat="43.60212" lon="3.75842">
        <ele>98.5</ele>
        <time>2011-05-29T06:30:13Z</time>
      </trkpt>
      <trkpt lat="43.60218" lon="3.75838">
        <ele>98.7</ele>
        <time>2011-05-29T06:30:15Z</time>
      </trkpt>
      <trkpt lat="43.60224" lon="3.75833">
        <ele>98.8</ele>
        <time>2011-05-29T06:30:17Z</time>
      </trkpt>
      <trkpt lat="43.60227" lon="3.7583">
        <ele>98.9</ele>
        <time>2011-05-29T06:30:18Z</time>
      </trkpt>
      <trkpt lat="43.60234" lon="3.75818">
        <ele>99.1</ele>
        <time>2011-05-29T06:30:21Z</time>
      </trkpt>
      <trkpt lat="43.60239" lon="3.7581">
        <ele>99.1</ele>
        <time>2011-05-29T06:30:23Z</time>
      </trkpt>
      <trkpt lat="43.60243" lon="3.75801">
        <ele>99.1</ele>
        <time>2011-05-29T06:30:25Z</time>
      </trkpt>
      <trkpt lat="43.60248" lon="3.75791">
        <ele>99</ele>
        <time>2011-05-29T06:30:27Z</time>
      </trkpt>
      <trkpt lat="43.60252" lon="3.75781">
        <ele>98.7</ele>
        <time>2011-05-29T06:30:29Z</time>
      </trkpt>
      <trkpt lat="43.60256" lon="3.7577">
        <ele>98.3</ele>
        <time>2011-05-29T06:30:31Z</time>
      </trkpt>
      <trkpt lat="43.6026" lon="3.75759">
        <ele>97.9</ele>
        <time>2011-05-29T06:30:33Z</time>
      </trkpt>
      <trkpt lat="43.60264" lon="3.75748">
        <ele>97.7</ele>
        <time>2011-05-29T06:30:35Z</time>
      </trkpt>
      <trkpt lat="43.60267" lon="3.75742">
        <ele>98</ele>
        <time>2011-05-29T06:30:36Z</time>
      </trkpt>
      <trkpt lat="43.60269" lon="3.75737">
        <ele>98.4</ele>
        <time>2011-05-29T06:30:37Z</time>
      </trkpt>
      <trkpt lat="43.60272" lon="3.75731">
        <ele>98.7</ele>
        <time>2011-05-29T06:30:38Z</time>
      </trkpt>
      <trkpt lat="43.60274" lon="3.75726">
        <ele>98.9</ele>
        <time>2011-05-29T06:30:39Z</time>
      </trkpt>
      <trkpt lat="43.60276" lon="3.7572">
        <ele>99.2</ele>
        <time>2011-05-29T06:30:40Z</time>
      </trkpt>
      <trkpt lat="43.60278" lon="3.75714">
        <ele>99.4</ele>
        <time>2011-05-29T06:30:41Z</time>
      </trkpt>
      <trkpt lat="43.60281" lon="3.75709">
        <ele>99.5</ele>
        <time>2011-05-29T06:30:42Z</time>
      </trkpt>
      <trkpt lat="43.60283" lon="3.75703">
        <ele>99.7</ele>
        <time>2011-05-29T06:30:43Z</time>
      </trkpt>
      <trkpt lat="43.60285" lon="3.75697">
        <ele>99.8</ele>
        <time>2011-05-29T06:30:44Z</time>
      </trkpt>
      <trkpt lat="43.60287" lon="3.75692">
        <ele>99.9</ele>
        <time>2011-05-29T06:30:45Z</time>
      </trkpt>
      <trkpt lat="43.60289" lon="3.75686">
        <ele>99.9</ele>
        <time>2011-05-29T06:30:46Z</time>
      </trkpt>
      <trkpt lat="43.60293" lon="3.75675">
        <ele>99.8</ele>
        <time>2011-05-29T06:30:48Z</time>
      </trkpt>
      <trkpt lat="43.60296" lon="3.7567">
        <ele>99.8</ele>
        <time>2011-05-29T06:30:49Z</time>
      </trkpt>
      <trkpt lat="43.603" lon="3.75659">
        <ele>99.4</ele>
        <time>2011-05-29T06:30:51Z</time>
      </trkpt>
      <trkpt lat="43.60302" lon="3.75654">
        <ele>99.1</ele>
        <time>2011-05-29T06:30:52Z</time>
      </trkpt>
      <trkpt lat="43.60304" lon="3.75648">
        <ele>98.8</ele>
        <time>2011-05-29T06:30:53Z</time>
      </trkpt>
      <trkpt lat="43.60308" lon="3.75637">
        <ele>98.4</ele>
        <time>2011-05-29T06:30:55Z</time>
      </trkpt>
      <trkpt lat="43.60309" lon="3.75631">
        <ele>98.2</ele>
        <time>2011-05-29T06:30:56Z</time>
      </trkpt>
      <trkpt lat="43.6031" lon="3.75625">
        <ele>98.1</ele>
        <time>2011-05-29T06:30:57Z</time>
      </trkpt>
      <trkpt lat="43.60311" lon="3.75618">
        <ele>98.1</ele>
        <time>2011-05-29T06:30:58Z</time>
      </trkpt>
      <trkpt lat="43.60311" lon="3.75612">
        <ele>98.1</ele>
        <time>2011-05-29T06:30:59Z</time>
      </trkpt>
      <trkpt lat="43.60311" lon="3.756">
        <ele>98.3</ele>
        <time>2011-05-29T06:31:01Z</time>
      </trkpt>
      <trkpt lat="43.6031" lon="3.75588">
        <ele>98.6</ele>
        <time>2011-05-29T06:31:03Z</time>
      </trkpt>
      <trkpt lat="43.60309" lon="3.75576">
        <ele>99.1</ele>
        <time>2011-05-29T06:31:05Z</time>
      </trkpt>
      <trkpt lat="43.60308" lon="3.7557">
        <ele>99.3</ele>
        <time>2011-05-29T06:31:06Z</time>
      </trkpt>
      <trkpt lat="43.60307" lon="3.75563">
        <ele>99.5</ele>
        <time>2011-05-29T06:31:07Z</time>
      </trkpt>
      <trkpt lat="43.60307" lon="3.75557">
        <ele>99.7</ele>
        <time>2011-05-29T06:31:08Z</time>
      </trkpt>
      <trkpt lat="43.60306" lon="3.7555">
        <ele>99.8</ele>
        <time>2011-05-29T06:31:09Z</time>
      </trkpt>
      <trkpt lat="43.60307" lon="3.75543">
        <ele>99.8</ele>
        <time>2011-05-29T06:31:10Z</time>
      </trkpt>
      <trkpt lat="43.60307" lon="3.75537">
        <ele>99.8</ele>
        <time>2011-05-29T06:31:11Z</time>
      </trkpt>
      <trkpt lat="43.60308" lon="3.7553">
        <ele>99.8</ele>
        <time>2011-05-29T06:31:12Z</time>
      </trkpt>
      <trkpt lat="43.60308" lon="3.75524">
        <ele>99.7</ele>
        <time>2011-05-29T06:31:13Z</time>
      </trkpt>
      <trkpt lat="43.60309" lon="3.75517">
        <ele>99.6</ele>
        <time>2011-05-29T06:31:14Z</time>
      </trkpt>
      <trkpt lat="43.6031" lon="3.75511">
        <ele>99.6</ele>
        <time>2011-05-29T06:31:15Z</time>
      </trkpt>
      <trkpt lat="43.60311" lon="3.75504">
        <ele>99.5</ele>
        <time>2011-05-29T06:31:16Z</time>
      </trkpt>
      <trkpt lat="43.60311" lon="3.75498">
        <ele>99.4</ele>
        <time>2011-05-29T06:31:17Z</time>
      </trkpt>
      <trkpt lat="43.60312" lon="3.75492">
        <ele>99.3</ele>
        <time>2011-05-29T06:31:18Z</time>
      </trkpt>
      <trkpt lat="43.60312" lon="3.75485">
        <ele>99.2</ele>
        <time>2011-05-29T06:31:19Z</time>
      </trkpt>
      <trkpt lat="43.60312" lon="3.75479">
        <ele>99.2</ele>
        <time>2011-05-29T06:31:20Z</time>
      </trkpt>
      <trkpt lat="43.6031" lon="3.75467">
        <ele>99.4</ele>
        <time>2011-05-29T06:31:22Z</time>
      </trkpt>
      <trkpt lat="43.60309" lon="3.75461">
        <ele>99.5</ele>
        <time>2011-05-29T06:31:23Z</time>
      </trkpt>
      <trkpt lat="43.60307" lon="3.75455">
        <ele>99.7</ele>
        <time>2011-05-29T06:31:24Z</time>
      </trkpt>
      <trkpt lat="43.60304" lon="3.7545">
        <ele>99.9</ele>
        <time>2011-05-29T06:31:25Z</time>
      </trkpt>
      <trkpt lat="43.60302" lon="3.75445">
        <ele>100.1</ele>
        <time>2011-05-29T06:31:26Z</time>
      </trkpt>
      <trkpt lat="43.60299" lon="3.7544">
        <ele>100.4</ele>
        <time>2011-05-29T06:31:27Z</time>
      </trkpt>
      <trkpt lat="43.60295" lon="3.75436">
        <ele>100.6</ele>
        <time>2011-05-29T06:31:28Z</time>
      </trkpt>
      <trkpt lat="43.60291" lon="3.75432">
        <ele>100.9</ele>
        <time>2011-05-29T06:31:29Z</time>
      </trkpt>
      <trkpt lat="43.60288" lon="3.75429">
        <ele>101.2</ele>
        <time>2011-05-29T06:31:30Z</time>
      </trkpt>
      <trkpt lat="43.60284" lon="3.75425">
        <ele>101.4</ele>
        <time>2011-05-29T06:31:31Z</time>
      </trkpt>
      <trkpt lat="43.6028" lon="3.7542">
        <ele>101.6</ele>
        <time>2011-05-29T06:31:32Z</time>
      </trkpt>
      <trkpt lat="43.60277" lon="3.75415">
        <ele>101.7</ele>
        <time>2011-05-29T06:31:33Z</time>
      </trkpt>
      <trkpt lat="43.60275" lon="3.7541">
        <ele>101.8</ele>
        <time>2011-05-29T06:31:34Z</time>
      </trkpt>
      <trkpt lat="43.60273" lon="3.75404">
        <ele>101.9</ele>
        <time>2011-05-29T06:31:35Z</time>
      </trkpt>
      <trkpt lat="43.60273" lon="3.75392">
        <ele>101.8</ele>
        <time>2011-05-29T06:31:37Z</time>
      </trkpt>
      <trkpt lat="43.60275" lon="3.7538">
        <ele>101.6</ele>
        <time>2011-05-29T06:31:39Z</time>
      </trkpt>
      <trkpt lat="43.60276" lon="3.75368">
        <ele>101.4</ele>
        <time>2011-05-29T06:31:41Z</time>
      </trkpt>
      <trkpt lat="43.60276" lon="3.75357">
        <ele>101.3</ele>
        <time>2011-05-29T06:31:43Z</time>
      </trkpt>
      <trkpt lat="43.60275" lon="3.75345">
        <ele>101.2</ele>
        <time>2011-05-29T06:31:45Z</time>
      </trkpt>
      <trkpt lat="43.60273" lon="3.75333">
        <ele>101.2</ele>
        <time>2011-05-29T06:31:47Z</time>
      </trkpt>
      <trkpt lat="43.60272" lon="3.75327">
        <ele>101</ele>
        <time>2011-05-29T06:31:48Z</time>
      </trkpt>
      <trkpt lat="43.60272" lon="3.7532">
        <ele>100.9</ele>
        <time>2011-05-29T06:31:49Z</time>
      </trkpt>
      <trkpt lat="43.60272" lon="3.75314">
        <ele>100.8</ele>
        <time>2011-05-29T06:31:50Z</time>
      </trkpt>
      <trkpt lat="43.60272" lon="3.75307">
        <ele>100.6</ele>
        <time>2011-05-29T06:31:51Z</time>
      </trkpt>
      <trkpt lat="43.60274" lon="3.75301">
        <ele>100.4</ele>
        <time>2011-05-29T06:31:52Z</time>
      </trkpt>
      <trkpt lat="43.60277" lon="3.75295">
        <ele>100.3</ele>
        <time>2011-05-29T06:31:53Z</time>
      </trkpt>
      <trkpt lat="43.60281" lon="3.7529">
        <ele>100.1</ele>
        <time>2011-05-29T06:31:54Z</time>
      </trkpt>
      <trkpt lat="43.60284" lon="3.75285">
        <ele>100</ele>
        <time>2011-05-29T06:31:55Z</time>
      </trkpt>
      <trkpt lat="43.60288" lon="3.7528">
        <ele>99.9</ele>
        <time>2011-05-29T06:31:56Z</time>
      </trkpt>
      <trkpt lat="43.60291" lon="3.75275">
        <ele>99.8</ele>
        <time>2011-05-29T06:31:57Z</time>
      </trkpt>
      <trkpt lat="43.60295" lon="3.7527">
        <ele>99.7</ele>
        <time>2011-05-29T06:31:58Z</time>
      </trkpt>
      <trkpt lat="43.60299" lon="3.75264">
        <ele>99.7</ele>
        <time>2011-05-29T06:31:59Z</time>
      </trkpt>
      <trkpt lat="43.60302" lon="3.75259">
        <ele>99.7</ele>
        <time>2011-05-29T06:32:00Z</time>
      </trkpt>
      <trkpt lat="43.60306" lon="3.75254">
        <ele>99.7</ele>
        <time>2011-05-29T06:32:01Z</time>
      </trkpt>
      <trkpt lat="43.60309" lon="3.75249">
        <ele>99.7</ele>
        <time>2011-05-29T06:32:02Z</time>
      </trkpt>
      <trkpt lat="43.60312" lon="3.75244">
        <ele>99.5</ele>
        <time>2011-05-29T06:32:03Z</time>
      </trkpt>
      <trkpt lat="43.60316" lon="3.7524">
        <ele>99.4</ele>
        <time>2011-05-29T06:32:04Z</time>
      </trkpt>
      <trkpt lat="43.60319" lon="3.75235">
        <ele>99.3</ele>
        <time>2011-05-29T06:32:05Z</time>
      </trkpt>
      <trkpt lat="43.60322" lon="3.7523">
        <ele>99.1</ele>
        <time>2011-05-29T06:32:06Z</time>
      </trkpt>
      <trkpt lat="43.60325" lon="3.75225">
        <ele>99</ele>
        <time>2011-05-29T06:32:07Z</time>
      </trkpt>
      <trkpt lat="43.60329" lon="3.75221">
        <ele>98.9</ele>
        <time>2011-05-29T06:32:08Z</time>
      </trkpt>
      <trkpt lat="43.60332" lon="3.75216">
        <ele>98.7</ele>
        <time>2011-05-29T06:32:09Z</time>
      </trkpt>
      <trkpt lat="43.60335" lon="3.75211">
        <ele>98.5</ele>
        <time>2011-05-29T06:32:10Z</time>
      </trkpt>
      <trkpt lat="43.60339" lon="3.75206">
        <ele>98.2</ele>
        <time>2011-05-29T06:32:11Z</time>
      </trkpt>
      <trkpt lat="43.60342" lon="3.75201">
        <ele>98</ele>
        <time>2011-05-29T06:32:12Z</time>
      </trkpt>
      <trkpt lat="43.60345" lon="3.75196">
        <ele>97.8</ele>
        <time>2011-05-29T06:32:13Z</time>
      </trkpt>
      <trkpt lat="43.60349" lon="3.75191">
        <ele>97.6</ele>
        <time>2011-05-29T06:32:14Z</time>
      </trkpt>
      <trkpt lat="43.60352" lon="3.75187">
        <ele>97.4</ele>
        <time>2011-05-29T06:32:15Z</time>
      </trkpt>
      <trkpt lat="43.60355" lon="3.75182">
        <ele>97.3</ele>
        <time>2011-05-29T06:32:16Z</time>
      </trkpt>
      <trkpt lat="43.60358" lon="3.75177">
        <ele>97.2</ele>
        <time>2011-05-29T06:32:17Z</time>
      </trkpt>
      <trkpt lat="43.60364" lon="3.75168">
        <ele>97</ele>
        <time>2011-05-29T06:32:19Z</time>
      </trkpt>
      <trkpt lat="43.60367" lon="3.75164">
        <ele>97</ele>
        <time>2011-05-29T06:32:20Z</time>
      </trkpt>
      <trkpt lat="43.60371" lon="3.75159">
        <ele>96.9</ele>
        <time>2011-05-29T06:32:21Z</time>
      </trkpt>
      <trkpt lat="43.60374" lon="3.75155">
        <ele>96.9</ele>
        <time>2011-05-29T06:32:22Z</time>
      </trkpt>
      <trkpt lat="43.6038" lon="3.75146">
        <ele>96.9</ele>
        <time>2011-05-29T06:32:24Z</time>
      </trkpt>
      <trkpt lat="43.60384" lon="3.75142">
        <ele>96.9</ele>
        <time>2011-05-29T06:32:25Z</time>
      </trkpt>
      <trkpt lat="43.60388" lon="3.75138">
        <ele>97</ele>
        <time>2011-05-29T06:32:26Z</time>
      </trkpt>
      <trkpt lat="43.60391" lon="3.75134">
        <ele>97</ele>
        <time>2011-05-29T06:32:27Z</time>
      </trkpt>
      <trkpt lat="43.60394" lon="3.75129">
        <ele>97.1</ele>
        <time>2011-05-29T06:32:28Z</time>
      </trkpt>
      <trkpt lat="43.60398" lon="3.75125">
        <ele>97.2</ele>
        <time>2011-05-29T06:32:29Z</time>
      </trkpt>
      <trkpt lat="43.60402" lon="3.7512">
        <ele>97.3</ele>
        <time>2011-05-29T06:32:30Z</time>
      </trkpt>
      <trkpt lat="43.60405" lon="3.75116">
        <ele>97.4</ele>
        <time>2011-05-29T06:32:31Z</time>
      </trkpt>
      <trkpt lat="43.60408" lon="3.75111">
        <ele>97.5</ele>
        <time>2011-05-29T06:32:32Z</time>
      </trkpt>
      <trkpt lat="43.60412" lon="3.75106">
        <ele>97.6</ele>
        <time>2011-05-29T06:32:33Z</time>
      </trkpt>
      <trkpt lat="43.60415" lon="3.75102">
        <ele>97.7</ele>
        <time>2011-05-29T06:32:34Z</time>
      </trkpt>
      <trkpt lat="43.60418" lon="3.75097">
        <ele>97.9</ele>
        <time>2011-05-29T06:32:35Z</time>
      </trkpt>
      <trkpt lat="43.60421" lon="3.75092">
        <ele>98</ele>
        <time>2011-05-29T06:32:36Z</time>
      </trkpt>
      <trkpt lat="43.60424" lon="3.75087">
        <ele>98.2</ele>
        <time>2011-05-29T06:32:37Z</time>
      </trkpt>
      <trkpt lat="43.60427" lon="3.75082">
        <ele>98.4</ele>
        <time>2011-05-29T06:32:38Z</time>
      </trkpt>
      <trkpt lat="43.6043" lon="3.75077">
        <ele>98.4</ele>
        <time>2011-05-29T06:32:39Z</time>
      </trkpt>
      <trkpt lat="43.60433" lon="3.75071">
        <ele>98.5</ele>
        <time>2011-05-29T06:32:40Z</time>
      </trkpt>
      <trkpt lat="43.60436" lon="3.75066">
        <ele>98.6</ele>
        <time>2011-05-29T06:32:41Z</time>
      </trkpt>
      <trkpt lat="43.60439" lon="3.75061">
        <ele>98.7</ele>
        <time>2011-05-29T06:32:42Z</time>
      </trkpt>
      <trkpt lat="43.60442" lon="3.75055">
        <ele>98.8</ele>
        <time>2011-05-29T06:32:43Z</time>
      </trkpt>
      <trkpt lat="43.60445" lon="3.7505">
        <ele>98.9</ele>
        <time>2011-05-29T06:32:44Z</time>
      </trkpt>
      <trkpt lat="43.60448" lon="3.75044">
        <ele>99</ele>
        <time>2011-05-29T06:32:45Z</time>
      </trkpt>
      <trkpt lat="43.60454" lon="3.75036">
        <ele>99.3</ele>
        <time>2011-05-29T06:32:47Z</time>
      </trkpt>
      <trkpt lat="43.60461" lon="3.75042">
        <ele>99.6</ele>
        <time>2011-05-29T06:32:50Z</time>
      </trkpt>
      <trkpt lat="43.60464" lon="3.75052">
        <ele>99.7</ele>
        <time>2011-05-29T06:32:52Z</time>
      </trkpt>
      <trkpt lat="43.60465" lon="3.75058">
        <ele>99.8</ele>
        <time>2011-05-29T06:32:53Z</time>
      </trkpt>
      <trkpt lat="43.60467" lon="3.75064">
        <ele>99.9</ele>
        <time>2011-05-29T06:32:54Z</time>
      </trkpt>
      <trkpt lat="43.60469" lon="3.7507">
        <ele>99.9</ele>
        <time>2011-05-29T06:32:55Z</time>
      </trkpt>
      <trkpt lat="43.60471" lon="3.75077">
        <ele>100</ele>
        <time>2011-05-29T06:32:56Z</time>
      </trkpt>
      <trkpt lat="43.60473" lon="3.75085">
        <ele>100</ele>
        <time>2011-05-29T06:32:57Z</time>
      </trkpt>
      <trkpt lat="43.60474" lon="3.75093">
        <ele>99.7</ele>
        <time>2011-05-29T06:32:58Z</time>
      </trkpt>
      <trkpt lat="43.60477" lon="3.75101">
        <ele>99.5</ele>
        <time>2011-05-29T06:32:59Z</time>
      </trkpt>
      <trkpt lat="43.60479" lon="3.75109">
        <ele>99.2</ele>
        <time>2011-05-29T06:33:00Z</time>
      </trkpt>
      <trkpt lat="43.60482" lon="3.75118">
        <ele>99</ele>
        <time>2011-05-29T06:33:01Z</time>
      </trkpt>
      <trkpt lat="43.60484" lon="3.75127">
        <ele>98.6</ele>
        <time>2011-05-29T06:33:02Z</time>
      </trkpt>
      <trkpt lat="43.60486" lon="3.75136">
        <ele>98.3</ele>
        <time>2011-05-29T06:33:03Z</time>
      </trkpt>
      <trkpt lat="43.60489" lon="3.75145">
        <ele>97.9</ele>
        <time>2011-05-29T06:33:04Z</time>
      </trkpt>
      <trkpt lat="43.60491" lon="3.75154">
        <ele>97.5</ele>
        <time>2011-05-29T06:33:05Z</time>
      </trkpt>
      <trkpt lat="43.60495" lon="3.75164">
        <ele>97.1</ele>
        <time>2011-05-29T06:33:06Z</time>
      </trkpt>
      <trkpt lat="43.60499" lon="3.75172">
        <ele>96.6</ele>
        <time>2011-05-29T06:33:07Z</time>
      </trkpt>
      <trkpt lat="43.60503" lon="3.75181">
        <ele>95.9</ele>
        <time>2011-05-29T06:33:08Z</time>
      </trkpt>
      <trkpt lat="43.60509" lon="3.75189">
        <ele>95.2</ele>
        <time>2011-05-29T06:33:09Z</time>
      </trkpt>
      <trkpt lat="43.60515" lon="3.75196">
        <ele>94.6</ele>
        <time>2011-05-29T06:33:10Z</time>
      </trkpt>
      <trkpt lat="43.60523" lon="3.75201">
        <ele>94</ele>
        <time>2011-05-29T06:33:11Z</time>
      </trkpt>
      <trkpt lat="43.60531" lon="3.75206">
        <ele>93.6</ele>
        <time>2011-05-29T06:33:12Z</time>
      </trkpt>
      <trkpt lat="43.60539" lon="3.75209">
        <ele>93.3</ele>
        <time>2011-05-29T06:33:13Z</time>
      </trkpt>
      <trkpt lat="43.60548" lon="3.75211">
        <ele>93</ele>
        <time>2011-05-29T06:33:14Z</time>
      </trkpt>
      <trkpt lat="43.60557" lon="3.75215">
        <ele>92.6</ele>
        <time>2011-05-29T06:33:15Z</time>
      </trkpt>
      <trkpt lat="43.60566" lon="3.7522">
        <ele>92.3</ele>
        <time>2011-05-29T06:33:16Z</time>
      </trkpt>
      <trkpt lat="43.60575" lon="3.75226">
        <ele>91.9</ele>
        <time>2011-05-29T06:33:17Z</time>
      </trkpt>
      <trkpt lat="43.60582" lon="3.75235">
        <ele>91.6</ele>
        <time>2011-05-29T06:33:18Z</time>
      </trkpt>
      <trkpt lat="43.60588" lon="3.75244">
        <ele>91.4</ele>
        <time>2011-05-29T06:33:19Z</time>
      </trkpt>
      <trkpt lat="43.60593" lon="3.75255">
        <ele>91.1</ele>
        <time>2011-05-29T06:33:20Z</time>
      </trkpt>
      <trkpt lat="43.60598" lon="3.75266">
        <ele>90.7</ele>
        <time>2011-05-29T06:33:21Z</time>
      </trkpt>
      <trkpt lat="43.60603" lon="3.75277">
        <ele>90.3</ele>
        <time>2011-05-29T06:33:22Z</time>
      </trkpt>
      <trkpt lat="43.60607" lon="3.75288">
        <ele>90</ele>
        <time>2011-05-29T06:33:23Z</time>
      </trkpt>
      <trkpt lat="43.60612" lon="3.753">
        <ele>89.7</ele>
        <time>2011-05-29T06:33:24Z</time>
      </trkpt>
      <trkpt lat="43.60616" lon="3.75311">
        <ele>89.4</ele>
        <time>2011-05-29T06:33:25Z</time>
      </trkpt>
      <trkpt lat="43.60621" lon="3.75323">
        <ele>89.1</ele>
        <time>2011-05-29T06:33:26Z</time>
      </trkpt>
      <trkpt lat="43.60625" lon="3.75334">
        <ele>89</ele>
        <time>2011-05-29T06:33:27Z</time>
      </trkpt>
      <trkpt lat="43.60629" lon="3.75346">
        <ele>89.1</ele>
        <time>2011-05-29T06:33:28Z</time>
      </trkpt>
      <trkpt lat="43.60633" lon="3.75357">
        <ele>89.3</ele>
        <time>2011-05-29T06:33:29Z</time>
      </trkpt>
      <trkpt lat="43.60637" lon="3.75368">
        <ele>89.4</ele>
        <time>2011-05-29T06:33:30Z</time>
      </trkpt>
      <trkpt lat="43.6064" lon="3.7538">
        <ele>89.5</ele>
        <time>2011-05-29T06:33:31Z</time>
      </trkpt>
      <trkpt lat="43.60643" lon="3.75391">
        <ele>89.6</ele>
        <time>2011-05-29T06:33:32Z</time>
      </trkpt>
      <trkpt lat="43.60646" lon="3.75402">
        <ele>89.7</ele>
        <time>2011-05-29T06:33:33Z</time>
      </trkpt>
      <trkpt lat="43.60649" lon="3.75413">
        <ele>89.8</ele>
        <time>2011-05-29T06:33:34Z</time>
      </trkpt>
      <trkpt lat="43.60652" lon="3.75424">
        <ele>89.8</ele>
        <time>2011-05-29T06:33:35Z</time>
      </trkpt>
      <trkpt lat="43.60655" lon="3.75435">
        <ele>89.8</ele>
        <time>2011-05-29T06:33:36Z</time>
      </trkpt>
      <trkpt lat="43.60658" lon="3.75445">
        <ele>89.7</ele>
        <time>2011-05-29T06:33:37Z</time>
      </trkpt>
      <trkpt lat="43.60661" lon="3.75456">
        <ele>89.6</ele>
        <time>2011-05-29T06:33:38Z</time>
      </trkpt>
      <trkpt lat="43.60663" lon="3.75467">
        <ele>89.6</ele>
        <time>2011-05-29T06:33:39Z</time>
      </trkpt>
      <trkpt lat="43.60665" lon="3.75477">
        <ele>89.5</ele>
        <time>2011-05-29T06:33:40Z</time>
      </trkpt>
      <trkpt lat="43.60668" lon="3.75487">
        <ele>89.4</ele>
        <time>2011-05-29T06:33:41Z</time>
      </trkpt>
      <trkpt lat="43.6067" lon="3.75497">
        <ele>89.2</ele>
        <time>2011-05-29T06:33:42Z</time>
      </trkpt>
      <trkpt lat="43.60672" lon="3.75506">
        <ele>88.9</ele>
        <time>2011-05-29T06:33:43Z</time>
      </trkpt>
      <trkpt lat="43.60674" lon="3.75516">
        <ele>88.5</ele>
        <time>2011-05-29T06:33:44Z</time>
      </trkpt>
      <trkpt lat="43.60677" lon="3.75523">
        <ele>88.2</ele>
        <time>2011-05-29T06:33:45Z</time>
      </trkpt>
      <trkpt lat="43.6068" lon="3.75529">
        <ele>88.1</ele>
        <time>2011-05-29T06:33:46Z</time>
      </trkpt>
      <trkpt lat="43.60688" lon="3.75533">
        <ele>88.5</ele>
        <time>2011-05-29T06:33:48Z</time>
      </trkpt>
      <trkpt lat="43.60697" lon="3.75533">
        <ele>89</ele>
        <time>2011-05-29T06:33:51Z</time>
      </trkpt>
      <trkpt lat="43.60704" lon="3.75535">
        <ele>89.5</ele>
        <time>2011-05-29T06:33:54Z</time>
      </trkpt>
      <trkpt lat="43.60713" lon="3.75534">
        <ele>90.1</ele>
        <time>2011-05-29T06:33:57Z</time>
      </trkpt>
      <trkpt lat="43.60722" lon="3.75534">
        <ele>90.7</ele>
        <time>2011-05-29T06:34:00Z</time>
      </trkpt>
      <trkpt lat="43.60728" lon="3.75533">
        <ele>91.1</ele>
        <time>2011-05-29T06:34:02Z</time>
      </trkpt>
      <trkpt lat="43.60734" lon="3.75532">
        <ele>91.6</ele>
        <time>2011-05-29T06:34:04Z</time>
      </trkpt>
      <trkpt lat="43.60743" lon="3.7553">
        <ele>92.1</ele>
        <time>2011-05-29T06:34:07Z</time>
      </trkpt>
      <trkpt lat="43.60751" lon="3.75527">
        <ele>92.7</ele>
        <time>2011-05-29T06:34:10Z</time>
      </trkpt>
      <trkpt lat="43.60758" lon="3.7552">
        <ele>92.4</ele>
        <time>2011-05-29T06:34:13Z</time>
      </trkpt>
      <trkpt lat="43.60761" lon="3.75513">
        <ele>92.4</ele>
        <time>2011-05-29T06:34:15Z</time>
      </trkpt>
      <trkpt lat="43.60763" lon="3.75504">
        <ele>92.5</ele>
        <time>2011-05-29T06:34:17Z</time>
      </trkpt>
      <trkpt lat="43.60764" lon="3.75495">
        <ele>92.6</ele>
        <time>2011-05-29T06:34:19Z</time>
      </trkpt>
      <trkpt lat="43.60765" lon="3.75485">
        <ele>92.8</ele>
        <time>2011-05-29T06:34:21Z</time>
      </trkpt>
      <trkpt lat="43.60766" lon="3.75474">
        <ele>92.9</ele>
        <time>2011-05-29T06:34:23Z</time>
      </trkpt>
      <trkpt lat="43.60766" lon="3.75469">
        <ele>93</ele>
        <time>2011-05-29T06:34:24Z</time>
      </trkpt>
      <trkpt lat="43.60766" lon="3.75454">
        <ele>93.3</ele>
        <time>2011-05-29T06:34:27Z</time>
      </trkpt>
      <trkpt lat="43.60766" lon="3.75445">
        <ele>93.5</ele>
        <time>2011-05-29T06:34:29Z</time>
      </trkpt>
      <trkpt lat="43.60766" lon="3.75435">
        <ele>93.7</ele>
        <time>2011-05-29T06:34:31Z</time>
      </trkpt>
      <trkpt lat="43.60765" lon="3.75427">
        <ele>93.9</ele>
        <time>2011-05-29T06:34:33Z</time>
      </trkpt>
      <trkpt lat="43.60764" lon="3.75418">
        <ele>94.1</ele>
        <time>2011-05-29T06:34:35Z</time>
      </trkpt>
      <trkpt lat="43.60763" lon="3.75409">
        <ele>94.6</ele>
        <time>2011-05-29T06:34:37Z</time>
      </trkpt>
      <trkpt lat="43.60763" lon="3.75401">
        <ele>95</ele>
        <time>2011-05-29T06:34:39Z</time>
      </trkpt>
      <trkpt lat="43.60762" lon="3.75392">
        <ele>95.5</ele>
        <time>2011-05-29T06:34:41Z</time>
      </trkpt>
      <trkpt lat="43.60762" lon="3.75384">
        <ele>95.9</ele>
        <time>2011-05-29T06:34:43Z</time>
      </trkpt>
      <trkpt lat="43.60761" lon="3.75372">
        <ele>96.5</ele>
        <time>2011-05-29T06:34:46Z</time>
      </trkpt>
      <trkpt lat="43.60761" lon="3.75363">
        <ele>96.9</ele>
        <time>2011-05-29T06:34:48Z</time>
      </trkpt>
      <trkpt lat="43.6076" lon="3.75354">
        <ele>97.4</ele>
        <time>2011-05-29T06:34:50Z</time>
      </trkpt>
      <trkpt lat="43.60757" lon="3.75345">
        <ele>98.1</ele>
        <time>2011-05-29T06:34:52Z</time>
      </trkpt>
      <trkpt lat="43.60751" lon="3.75339">
        <ele>98.7</ele>
        <time>2011-05-29T06:34:54Z</time>
      </trkpt>
      <trkpt lat="43.60745" lon="3.75336">
        <ele>98.4</ele>
        <time>2011-05-29T06:34:56Z</time>
      </trkpt>
      <trkpt lat="43.60738" lon="3.75337">
        <ele>97.8</ele>
        <time>2011-05-29T06:34:58Z</time>
      </trkpt>
      <trkpt lat="43.6073" lon="3.75338">
        <ele>97.1</ele>
        <time>2011-05-29T06:35:00Z</time>
      </trkpt>
      <trkpt lat="43.60725" lon="3.75337">
        <ele>96.8</ele>
        <time>2011-05-29T06:35:01Z</time>
      </trkpt>
      <trkpt lat="43.60721" lon="3.75333">
        <ele>96.5</ele>
        <time>2011-05-29T06:35:02Z</time>
      </trkpt>
      <trkpt lat="43.60717" lon="3.75328">
        <ele>96.4</ele>
        <time>2011-05-29T06:35:03Z</time>
      </trkpt>
      <trkpt lat="43.60715" lon="3.75322">
        <ele>96.3</ele>
        <time>2011-05-29T06:35:04Z</time>
      </trkpt>
      <trkpt lat="43.60713" lon="3.75316">
        <ele>96.3</ele>
        <time>2011-05-29T06:35:05Z</time>
      </trkpt>
      <trkpt lat="43.60712" lon="3.75309">
        <ele>96.4</ele>
        <time>2011-05-29T06:35:06Z</time>
      </trkpt>
      <trkpt lat="43.60712" lon="3.75302">
        <ele>96.6</ele>
        <time>2011-05-29T06:35:07Z</time>
      </trkpt>
      <trkpt lat="43.60712" lon="3.7529">
        <ele>96.8</ele>
        <time>2011-05-29T06:35:09Z</time>
      </trkpt>
      <trkpt lat="43.60712" lon="3.75279">
        <ele>97.1</ele>
        <time>2011-05-29T06:35:11Z</time>
      </trkpt>
      <trkpt lat="43.60713" lon="3.75268">
        <ele>97.5</ele>
        <time>2011-05-29T06:35:13Z</time>
      </trkpt>
      <trkpt lat="43.60714" lon="3.75258">
        <ele>97.8</ele>
        <time>2011-05-29T06:35:15Z</time>
      </trkpt>
      <trkpt lat="43.60714" lon="3.75248">
        <ele>98.1</ele>
        <time>2011-05-29T06:35:17Z</time>
      </trkpt>
      <trkpt lat="43.60714" lon="3.75238">
        <ele>98.6</ele>
        <time>2011-05-29T06:35:19Z</time>
      </trkpt>
      <trkpt lat="43.60715" lon="3.75228">
        <ele>99.2</ele>
        <time>2011-05-29T06:35:21Z</time>
      </trkpt>
      <trkpt lat="43.6072" lon="3.75221">
        <ele>99.9</ele>
        <time>2011-05-29T06:35:23Z</time>
      </trkpt>
      <trkpt lat="43.60724" lon="3.75214">
        <ele>100.5</ele>
        <time>2011-05-29T06:35:25Z</time>
      </trkpt>
      <trkpt lat="43.60726" lon="3.75211">
        <ele>100.8</ele>
        <time>2011-05-29T06:35:26Z</time>
      </trkpt>
      <trkpt lat="43.6073" lon="3.75196">
        <ele>101.7</ele>
        <time>2011-05-29T06:35:30Z</time>
      </trkpt>
      <trkpt lat="43.60731" lon="3.75188">
        <ele>102.2</ele>
        <time>2011-05-29T06:35:32Z</time>
      </trkpt>
      <trkpt lat="43.60733" lon="3.75179">
        <ele>102.6</ele>
        <time>2011-05-29T06:35:34Z</time>
      </trkpt>
      <trkpt lat="43.60735" lon="3.75171">
        <ele>103.1</ele>
        <time>2011-05-29T06:35:36Z</time>
      </trkpt>
      <trkpt lat="43.60738" lon="3.75164">
        <ele>103.6</ele>
        <time>2011-05-29T06:35:38Z</time>
      </trkpt>
      <trkpt lat="43.6074" lon="3.75155">
        <ele>104</ele>
        <time>2011-05-29T06:35:40Z</time>
      </trkpt>
      <trkpt lat="43.60742" lon="3.75148">
        <ele>104.5</ele>
        <time>2011-05-29T06:35:42Z</time>
      </trkpt>
      <trkpt lat="43.60745" lon="3.75136">
        <ele>105.1</ele>
        <time>2011-05-29T06:35:45Z</time>
      </trkpt>
      <trkpt lat="43.60746" lon="3.75128">
        <ele>105.6</ele>
        <time>2011-05-29T06:35:47Z</time>
      </trkpt>
      <trkpt lat="43.60747" lon="3.75119">
        <ele>106.1</ele>
        <time>2011-05-29T06:35:49Z</time>
      </trkpt>
      <trkpt lat="43.60747" lon="3.75107">
        <ele>106.6</ele>
        <time>2011-05-29T06:35:52Z</time>
      </trkpt>
      <trkpt lat="43.60745" lon="3.75095">
        <ele>107.1</ele>
        <time>2011-05-29T06:35:55Z</time>
      </trkpt>
      <trkpt lat="43.60747" lon="3.75083">
        <ele>107.7</ele>
        <time>2011-05-29T06:35:58Z</time>
      </trkpt>
      <trkpt lat="43.60748" lon="3.75075">
        <ele>108</ele>
        <time>2011-05-29T06:36:00Z</time>
      </trkpt>
      <trkpt lat="43.60749" lon="3.75067">
        <ele>108.3</ele>
        <time>2011-05-29T06:36:02Z</time>
      </trkpt>
      <trkpt lat="43.60751" lon="3.75059">
        <ele>108.6</ele>
        <time>2011-05-29T06:36:04Z</time>
      </trkpt>
      <trkpt lat="43.60753" lon="3.75051">
        <ele>108.7</ele>
        <time>2011-05-29T06:36:06Z</time>
      </trkpt>
      <trkpt lat="43.60756" lon="3.75043">
        <ele>108.9</ele>
        <time>2011-05-29T06:36:08Z</time>
      </trkpt>
      <trkpt lat="43.60757" lon="3.75035">
        <ele>109.1</ele>
        <time>2011-05-29T06:36:10Z</time>
      </trkpt>
      <trkpt lat="43.60759" lon="3.75025">
        <ele>109.3</ele>
        <time>2011-05-29T06:36:12Z</time>
      </trkpt>
      <trkpt lat="43.60761" lon="3.75016">
        <ele>109.5</ele>
        <time>2011-05-29T06:36:14Z</time>
      </trkpt>
      <trkpt lat="43.60763" lon="3.75006">
        <ele>109.8</ele>
        <time>2011-05-29T06:36:16Z</time>
      </trkpt>
      <trkpt lat="43.60765" lon="3.74996">
        <ele>110.1</ele>
        <time>2011-05-29T06:36:18Z</time>
      </trkpt>
      <trkpt lat="43.60766" lon="3.74986">
        <ele>110.2</ele>
        <time>2011-05-29T06:36:20Z</time>
      </trkpt>
      <trkpt lat="43.60768" lon="3.74976">
        <ele>110.3</ele>
        <time>2011-05-29T06:36:22Z</time>
      </trkpt>
      <trkpt lat="43.60769" lon="3.74967">
        <ele>110.5</ele>
        <time>2011-05-29T06:36:24Z</time>
      </trkpt>
      <trkpt lat="43.60771" lon="3.74957">
        <ele>110.7</ele>
        <time>2011-05-29T06:36:26Z</time>
      </trkpt>
      <trkpt lat="43.60774" lon="3.74947">
        <ele>110.8</ele>
        <time>2011-05-29T06:36:28Z</time>
      </trkpt>
      <trkpt lat="43.60775" lon="3.74942">
        <ele>110.9</ele>
        <time>2011-05-29T06:36:29Z</time>
      </trkpt>
      <trkpt lat="43.60778" lon="3.74926">
        <ele>111.2</ele>
        <time>2011-05-29T06:36:32Z</time>
      </trkpt>
      <trkpt lat="43.60781" lon="3.74915">
        <ele>111.4</ele>
        <time>2011-05-29T06:36:34Z</time>
      </trkpt>
      <trkpt lat="43.60783" lon="3.74904">
        <ele>111.4</ele>
        <time>2011-05-29T06:36:36Z</time>
      </trkpt>
      <trkpt lat="43.60786" lon="3.74894">
        <ele>111.4</ele>
        <time>2011-05-29T06:36:38Z</time>
      </trkpt>
      <trkpt lat="43.6079" lon="3.74884">
        <ele>111.5</ele>
        <time>2011-05-29T06:36:40Z</time>
      </trkpt>
      <trkpt lat="43.60793" lon="3.74873">
        <ele>111.5</ele>
        <time>2011-05-29T06:36:42Z</time>
      </trkpt>
      <trkpt lat="43.60797" lon="3.74862">
        <ele>111.6</ele>
        <time>2011-05-29T06:36:44Z</time>
      </trkpt>
      <trkpt lat="43.608" lon="3.74851">
        <ele>111.8</ele>
        <time>2011-05-29T06:36:46Z</time>
      </trkpt>
      <trkpt lat="43.60804" lon="3.7484">
        <ele>111.9</ele>
        <time>2011-05-29T06:36:48Z</time>
      </trkpt>
      <trkpt lat="43.60807" lon="3.74829">
        <ele>112.1</ele>
        <time>2011-05-29T06:36:50Z</time>
      </trkpt>
      <trkpt lat="43.6081" lon="3.74818">
        <ele>112.3</ele>
        <time>2011-05-29T06:36:52Z</time>
      </trkpt>
      <trkpt lat="43.60814" lon="3.74807">
        <ele>112.5</ele>
        <time>2011-05-29T06:36:54Z</time>
      </trkpt>
      <trkpt lat="43.60815" lon="3.74801">
        <ele>112.6</ele>
        <time>2011-05-29T06:36:55Z</time>
      </trkpt>
      <trkpt lat="43.60817" lon="3.74794">
        <ele>112.7</ele>
        <time>2011-05-29T06:36:56Z</time>
      </trkpt>
      <trkpt lat="43.60818" lon="3.74789">
        <ele>112.8</ele>
        <time>2011-05-29T06:36:57Z</time>
      </trkpt>
      <trkpt lat="43.6082" lon="3.74783">
        <ele>112.9</ele>
        <time>2011-05-29T06:36:58Z</time>
      </trkpt>
      <trkpt lat="43.60823" lon="3.74771">
        <ele>113.2</ele>
        <time>2011-05-29T06:37:00Z</time>
      </trkpt>
      <trkpt lat="43.60827" lon="3.7476">
        <ele>113.5</ele>
        <time>2011-05-29T06:37:02Z</time>
      </trkpt>
      <trkpt lat="43.6083" lon="3.74749">
        <ele>113.8</ele>
        <time>2011-05-29T06:37:04Z</time>
      </trkpt>
      <trkpt lat="43.60834" lon="3.74738">
        <ele>114.2</ele>
        <time>2011-05-29T06:37:06Z</time>
      </trkpt>
      <trkpt lat="43.60837" lon="3.74727">
        <ele>114.4</ele>
        <time>2011-05-29T06:37:08Z</time>
      </trkpt>
      <trkpt lat="43.6084" lon="3.74716">
        <ele>114.6</ele>
        <time>2011-05-29T06:37:10Z</time>
      </trkpt>
      <trkpt lat="43.60844" lon="3.74704">
        <ele>114.8</ele>
        <time>2011-05-29T06:37:12Z</time>
      </trkpt>
      <trkpt lat="43.60846" lon="3.74699">
        <ele>115</ele>
        <time>2011-05-29T06:37:13Z</time>
      </trkpt>
      <trkpt lat="43.60849" lon="3.74694">
        <ele>115.1</ele>
        <time>2011-05-29T06:37:14Z</time>
      </trkpt>
      <trkpt lat="43.60857" lon="3.74689">
        <ele>115.4</ele>
        <time>2011-05-29T06:37:16Z</time>
      </trkpt>
      <trkpt lat="43.60866" lon="3.7469">
        <ele>115.7</ele>
        <time>2011-05-29T06:37:18Z</time>
      </trkpt>
      <trkpt lat="43.6087" lon="3.74691">
        <ele>115.8</ele>
        <time>2011-05-29T06:37:19Z</time>
      </trkpt>
      <trkpt lat="43.60875" lon="3.74691">
        <ele>115.9</ele>
        <time>2011-05-29T06:37:20Z</time>
      </trkpt>
      <trkpt lat="43.60883" lon="3.74689">
        <ele>116.2</ele>
        <time>2011-05-29T06:37:22Z</time>
      </trkpt>
      <trkpt lat="43.60892" lon="3.74687">
        <ele>116.5</ele>
        <time>2011-05-29T06:37:25Z</time>
      </trkpt>
      <trkpt lat="43.60899" lon="3.74684">
        <ele>116.8</ele>
        <time>2011-05-29T06:37:28Z</time>
      </trkpt>
      <trkpt lat="43.60905" lon="3.74681">
        <ele>117.1</ele>
        <time>2011-05-29T06:37:31Z</time>
      </trkpt>
      <trkpt lat="43.60907" lon="3.7468">
        <ele>117.2</ele>
        <time>2011-05-29T06:37:32Z</time>
      </trkpt>
      <trkpt lat="43.60919" lon="3.74674">
        <ele>117.6</ele>
        <time>2011-05-29T06:37:36Z</time>
      </trkpt>
      <trkpt lat="43.60926" lon="3.74669">
        <ele>117.3</ele>
        <time>2011-05-29T06:37:38Z</time>
      </trkpt>
      <trkpt lat="43.60933" lon="3.74664">
        <ele>116.9</ele>
        <time>2011-05-29T06:37:40Z</time>
      </trkpt>
      <trkpt lat="43.60941" lon="3.74658">
        <ele>116.5</ele>
        <time>2011-05-29T06:37:42Z</time>
      </trkpt>
      <trkpt lat="43.60945" lon="3.74655">
        <ele>116.4</ele>
        <time>2011-05-29T06:37:43Z</time>
      </trkpt>
      <trkpt lat="43.60953" lon="3.7465">
        <ele>116</ele>
        <time>2011-05-29T06:37:45Z</time>
      </trkpt>
      <trkpt lat="43.60961" lon="3.74643">
        <ele>115.8</ele>
        <time>2011-05-29T06:37:47Z</time>
      </trkpt>
      <trkpt lat="43.60964" lon="3.7464">
        <ele>115.8</ele>
        <time>2011-05-29T06:37:48Z</time>
      </trkpt>
      <trkpt lat="43.60971" lon="3.74633">
        <ele>115.7</ele>
        <time>2011-05-29T06:37:50Z</time>
      </trkpt>
      <trkpt lat="43.60977" lon="3.74626">
        <ele>115.7</ele>
        <time>2011-05-29T06:37:52Z</time>
      </trkpt>
      <trkpt lat="43.60982" lon="3.74621">
        <ele>115.7</ele>
        <time>2011-05-29T06:37:54Z</time>
      </trkpt>
      <trkpt lat="43.60987" lon="3.74614">
        <ele>115.8</ele>
        <time>2011-05-29T06:37:56Z</time>
      </trkpt>
      <trkpt lat="43.60992" lon="3.74608">
        <ele>115.9</ele>
        <time>2011-05-29T06:37:58Z</time>
      </trkpt>
      <trkpt lat="43.60998" lon="3.74603">
        <ele>115.9</ele>
        <time>2011-05-29T06:38:00Z</time>
      </trkpt>
      <trkpt lat="43.61004" lon="3.74598">
        <ele>116.1</ele>
        <time>2011-05-29T06:38:02Z</time>
      </trkpt>
      <trkpt lat="43.61011" lon="3.74591">
        <ele>116.4</ele>
        <time>2011-05-29T06:38:04Z</time>
      </trkpt>
      <trkpt lat="43.61019" lon="3.74584">
        <ele>116.7</ele>
        <time>2011-05-29T06:38:06Z</time>
      </trkpt>
      <trkpt lat="43.61025" lon="3.74578">
        <ele>116.9</ele>
        <time>2011-05-29T06:38:08Z</time>
      </trkpt>
      <trkpt lat="43.6103" lon="3.74572">
        <ele>117.2</ele>
        <time>2011-05-29T06:38:10Z</time>
      </trkpt>
      <trkpt lat="43.61035" lon="3.74566">
        <ele>117.4</ele>
        <time>2011-05-29T06:38:12Z</time>
      </trkpt>
      <trkpt lat="43.61041" lon="3.74556">
        <ele>117.8</ele>
        <time>2011-05-29T06:38:15Z</time>
      </trkpt>
      <trkpt lat="43.61045" lon="3.74549">
        <ele>118.1</ele>
        <time>2011-05-29T06:38:18Z</time>
      </trkpt>
      <trkpt lat="43.6105" lon="3.74541">
        <ele>118.4</ele>
        <time>2011-05-29T06:38:21Z</time>
      </trkpt>
      <trkpt lat="43.61056" lon="3.74534">
        <ele>118.7</ele>
        <time>2011-05-29T06:38:24Z</time>
      </trkpt>
      <trkpt lat="43.61061" lon="3.74528">
        <ele>118.9</ele>
        <time>2011-05-29T06:38:27Z</time>
      </trkpt>
      <trkpt lat="43.61068" lon="3.74524">
        <ele>119.1</ele>
        <time>2011-05-29T06:38:30Z</time>
      </trkpt>
      <trkpt lat="43.61075" lon="3.74522">
        <ele>119</ele>
        <time>2011-05-29T06:38:33Z</time>
      </trkpt>
      <trkpt lat="43.61078" lon="3.74522">
        <ele>119</ele>
        <time>2011-05-29T06:38:34Z</time>
      </trkpt>
      <trkpt lat="43.6109" lon="3.74525">
        <ele>119.1</ele>
        <time>2011-05-29T06:38:39Z</time>
      </trkpt>
      <trkpt lat="43.61098" lon="3.74525">
        <ele>119.6</ele>
        <time>2011-05-29T06:38:42Z</time>
      </trkpt>
      <trkpt lat="43.61105" lon="3.74522">
        <ele>120.1</ele>
        <time>2011-05-29T06:38:45Z</time>
      </trkpt>
      <trkpt lat="43.61113" lon="3.74519">
        <ele>120.6</ele>
        <time>2011-05-29T06:38:48Z</time>
      </trkpt>
      <trkpt lat="43.61119" lon="3.74515">
        <ele>121.1</ele>
        <time>2011-05-29T06:38:51Z</time>
      </trkpt>
      <trkpt lat="43.61126" lon="3.74511">
        <ele>121.6</ele>
        <time>2011-05-29T06:38:54Z</time>
      </trkpt>
      <trkpt lat="43.61133" lon="3.74507">
        <ele>122.1</ele>
        <time>2011-05-29T06:38:57Z</time>
      </trkpt>
      <trkpt lat="43.6114" lon="3.74503">
        <ele>122.6</ele>
        <time>2011-05-29T06:39:00Z</time>
      </trkpt>
      <trkpt lat="43.61146" lon="3.74498">
        <ele>123.1</ele>
        <time>2011-05-29T06:39:03Z</time>
      </trkpt>
      <trkpt lat="43.61153" lon="3.74494">
        <ele>123.5</ele>
        <time>2011-05-29T06:39:06Z</time>
      </trkpt>
      <trkpt lat="43.61159" lon="3.7449">
        <ele>123.9</ele>
        <time>2011-05-29T06:39:09Z</time>
      </trkpt>
      <trkpt lat="43.61167" lon="3.74487">
        <ele>124.3</ele>
        <time>2011-05-29T06:39:13Z</time>
      </trkpt>
      <trkpt lat="43.61174" lon="3.74494">
        <ele>124.1</ele>
        <time>2011-05-29T06:40:05Z</time>
      </trkpt>
      <trkpt lat="43.61175" lon="3.74495">
        <ele>124.1</ele>
        <time>2011-05-29T06:40:06Z</time>
      </trkpt>
      <trkpt lat="43.61179" lon="3.74516">
        <ele>123.6</ele>
        <time>2011-05-29T06:40:13Z</time>
      </trkpt>
      <trkpt lat="43.61181" lon="3.74524">
        <ele>123.3</ele>
        <time>2011-05-29T06:40:15Z</time>
      </trkpt>
      <trkpt lat="43.61182" lon="3.74533">
        <ele>123.1</ele>
        <time>2011-05-29T06:40:17Z</time>
      </trkpt>
      <trkpt lat="43.61184" lon="3.74542">
        <ele>122.9</ele>
        <time>2011-05-29T06:40:19Z</time>
      </trkpt>
      <trkpt lat="43.61186" lon="3.74551">
        <ele>122.7</ele>
        <time>2011-05-29T06:40:21Z</time>
      </trkpt>
      <trkpt lat="43.61188" lon="3.7456">
        <ele>122.6</ele>
        <time>2011-05-29T06:40:23Z</time>
      </trkpt>
      <trkpt lat="43.6119" lon="3.74569">
        <ele>122.4</ele>
        <time>2011-05-29T06:40:25Z</time>
      </trkpt>
      <trkpt lat="43.61191" lon="3.74577">
        <ele>122.3</ele>
        <time>2011-05-29T06:40:27Z</time>
      </trkpt>
      <trkpt lat="43.61192" lon="3.74585">
        <ele>122.2</ele>
        <time>2011-05-29T06:40:29Z</time>
      </trkpt>
      <trkpt lat="43.61193" lon="3.74594">
        <ele>122.2</ele>
        <time>2011-05-29T06:40:31Z</time>
      </trkpt>
      <trkpt lat="43.61193" lon="3.74603">
        <ele>122.1</ele>
        <time>2011-05-29T06:40:33Z</time>
      </trkpt>
      <trkpt lat="43.61194" lon="3.74612">
        <ele>122</ele>
        <time>2011-05-29T06:40:35Z</time>
      </trkpt>
      <trkpt lat="43.61194" lon="3.74622">
        <ele>122</ele>
        <time>2011-05-29T06:40:37Z</time>
      </trkpt>
      <trkpt lat="43.61195" lon="3.74632">
        <ele>122</ele>
        <time>2011-05-29T06:40:39Z</time>
      </trkpt>
      <trkpt lat="43.61195" lon="3.74642">
        <ele>121.9</ele>
        <time>2011-05-29T06:40:41Z</time>
      </trkpt>
      <trkpt lat="43.61196" lon="3.74652">
        <ele>121.9</ele>
        <time>2011-05-29T06:40:43Z</time>
      </trkpt>
      <trkpt lat="43.61197" lon="3.74662">
        <ele>121.9</ele>
        <time>2011-05-29T06:40:45Z</time>
      </trkpt>
      <trkpt lat="43.61198" lon="3.74673">
        <ele>121.9</ele>
        <time>2011-05-29T06:40:47Z</time>
      </trkpt>
      <trkpt lat="43.61197" lon="3.74684">
        <ele>121.7</ele>
        <time>2011-05-29T06:40:49Z</time>
      </trkpt>
      <trkpt lat="43.61197" lon="3.74697">
        <ele>121.4</ele>
        <time>2011-05-29T06:40:51Z</time>
      </trkpt>
      <trkpt lat="43.61196" lon="3.74703">
        <ele>121.3</ele>
        <time>2011-05-29T06:40:52Z</time>
      </trkpt>
      <trkpt lat="43.61196" lon="3.7471">
        <ele>121.1</ele>
        <time>2011-05-29T06:40:53Z</time>
      </trkpt>
      <trkpt lat="43.61196" lon="3.74716">
        <ele>121</ele>
        <time>2011-05-29T06:40:54Z</time>
      </trkpt>
      <trkpt lat="43.61196" lon="3.74724">
        <ele>120.9</ele>
        <time>2011-05-29T06:40:55Z</time>
      </trkpt>
      <trkpt lat="43.61195" lon="3.74731">
        <ele>120.7</ele>
        <time>2011-05-29T06:40:56Z</time>
      </trkpt>
      <trkpt lat="43.61196" lon="3.74738">
        <ele>120.6</ele>
        <time>2011-05-29T06:40:57Z</time>
      </trkpt>
      <trkpt lat="43.61196" lon="3.74746">
        <ele>120.6</ele>
        <time>2011-05-29T06:40:58Z</time>
      </trkpt>
      <trkpt lat="43.61196" lon="3.74754">
        <ele>120.4</ele>
        <time>2011-05-29T06:40:59Z</time>
      </trkpt>
      <trkpt lat="43.61197" lon="3.74762">
        <ele>120.3</ele>
        <time>2011-05-29T06:41:00Z</time>
      </trkpt>
      <trkpt lat="43.61199" lon="3.7477">
        <ele>120.2</ele>
        <time>2011-05-29T06:41:01Z</time>
      </trkpt>
      <trkpt lat="43.612" lon="3.74778">
        <ele>120.1</ele>
        <time>2011-05-29T06:41:02Z</time>
      </trkpt>
      <trkpt lat="43.61201" lon="3.74787">
        <ele>120</ele>
        <time>2011-05-29T06:41:03Z</time>
      </trkpt>
      <trkpt lat="43.61202" lon="3.74795">
        <ele>119.8</ele>
        <time>2011-05-29T06:41:04Z</time>
      </trkpt>
      <trkpt lat="43.61203" lon="3.74804">
        <ele>119.7</ele>
        <time>2011-05-29T06:41:05Z</time>
      </trkpt>
      <trkpt lat="43.61204" lon="3.74813">
        <ele>119.6</ele>
        <time>2011-05-29T06:41:06Z</time>
      </trkpt>
      <trkpt lat="43.61206" lon="3.74822">
        <ele>119.5</ele>
        <time>2011-05-29T06:41:07Z</time>
      </trkpt>
      <trkpt lat="43.61207" lon="3.74831">
        <ele>119.4</ele>
        <time>2011-05-29T06:41:08Z</time>
      </trkpt>
      <trkpt lat="43.61207" lon="3.7484">
        <ele>119.2</ele>
        <time>2011-05-29T06:41:09Z</time>
      </trkpt>
      <trkpt lat="43.61208" lon="3.74849">
        <ele>119</ele>
        <time>2011-05-29T06:41:10Z</time>
      </trkpt>
      <trkpt lat="43.61209" lon="3.74858">
        <ele>118.9</ele>
        <time>2011-05-29T06:41:11Z</time>
      </trkpt>
      <trkpt lat="43.61211" lon="3.74867">
        <ele>118.8</ele>
        <time>2011-05-29T06:41:12Z</time>
      </trkpt>
      <trkpt lat="43.61213" lon="3.74875">
        <ele>118.9</ele>
        <time>2011-05-29T06:41:13Z</time>
      </trkpt>
      <trkpt lat="43.61216" lon="3.74884">
        <ele>119</ele>
        <time>2011-05-29T06:41:14Z</time>
      </trkpt>
      <trkpt lat="43.61218" lon="3.74892">
        <ele>119</ele>
        <time>2011-05-29T06:41:15Z</time>
      </trkpt>
      <trkpt lat="43.61219" lon="3.749">
        <ele>119</ele>
        <time>2011-05-29T06:41:16Z</time>
      </trkpt>
      <trkpt lat="43.61221" lon="3.74908">
        <ele>119.1</ele>
        <time>2011-05-29T06:41:17Z</time>
      </trkpt>
      <trkpt lat="43.61223" lon="3.74916">
        <ele>119.1</ele>
        <time>2011-05-29T06:41:18Z</time>
      </trkpt>
      <trkpt lat="43.61224" lon="3.74925">
        <ele>119.1</ele>
        <time>2011-05-29T06:41:19Z</time>
      </trkpt>
      <trkpt lat="43.61225" lon="3.74933">
        <ele>119</ele>
        <time>2011-05-29T06:41:20Z</time>
      </trkpt>
      <trkpt lat="43.61225" lon="3.74941">
        <ele>118.7</ele>
        <time>2011-05-29T06:41:21Z</time>
      </trkpt>
      <trkpt lat="43.61225" lon="3.74949">
        <ele>118.5</ele>
        <time>2011-05-29T06:41:22Z</time>
      </trkpt>
      <trkpt lat="43.61225" lon="3.74957">
        <ele>118.2</ele>
        <time>2011-05-29T06:41:23Z</time>
      </trkpt>
      <trkpt lat="43.61224" lon="3.74965">
        <ele>117.9</ele>
        <time>2011-05-29T06:41:24Z</time>
      </trkpt>
      <trkpt lat="43.61224" lon="3.74973">
        <ele>117.6</ele>
        <time>2011-05-29T06:41:25Z</time>
      </trkpt>
      <trkpt lat="43.61224" lon="3.7498">
        <ele>117.4</ele>
        <time>2011-05-29T06:41:26Z</time>
      </trkpt>
      <trkpt lat="43.61224" lon="3.74987">
        <ele>117.2</ele>
        <time>2011-05-29T06:41:27Z</time>
      </trkpt>
      <trkpt lat="43.61223" lon="3.74994">
        <ele>117</ele>
        <time>2011-05-29T06:41:28Z</time>
      </trkpt>
      <trkpt lat="43.61224" lon="3.75001">
        <ele>116.8</ele>
        <time>2011-05-29T06:41:29Z</time>
      </trkpt>
      <trkpt lat="43.61224" lon="3.75008">
        <ele>116.6</ele>
        <time>2011-05-29T06:41:30Z</time>
      </trkpt>
      <trkpt lat="43.61224" lon="3.75014">
        <ele>116.5</ele>
        <time>2011-05-29T06:41:31Z</time>
      </trkpt>
      <trkpt lat="43.61224" lon="3.75021">
        <ele>116.3</ele>
        <time>2011-05-29T06:41:32Z</time>
      </trkpt>
      <trkpt lat="43.61225" lon="3.75028">
        <ele>116.1</ele>
        <time>2011-05-29T06:41:33Z</time>
      </trkpt>
      <trkpt lat="43.61225" lon="3.75036">
        <ele>116</ele>
        <time>2011-05-29T06:41:34Z</time>
      </trkpt>
      <trkpt lat="43.61226" lon="3.75043">
        <ele>115.9</ele>
        <time>2011-05-29T06:41:35Z</time>
      </trkpt>
      <trkpt lat="43.61227" lon="3.7505">
        <ele>115.8</ele>
        <time>2011-05-29T06:41:36Z</time>
      </trkpt>
      <trkpt lat="43.61228" lon="3.75057">
        <ele>115.7</ele>
        <time>2011-05-29T06:41:37Z</time>
      </trkpt>
      <trkpt lat="43.61229" lon="3.75063">
        <ele>115.6</ele>
        <time>2011-05-29T06:41:38Z</time>
      </trkpt>
      <trkpt lat="43.61231" lon="3.7507">
        <ele>115.5</ele>
        <time>2011-05-29T06:41:39Z</time>
      </trkpt>
      <trkpt lat="43.61232" lon="3.75077">
        <ele>115.5</ele>
        <time>2011-05-29T06:41:40Z</time>
      </trkpt>
      <trkpt lat="43.61233" lon="3.75084">
        <ele>115.4</ele>
        <time>2011-05-29T06:41:41Z</time>
      </trkpt>
      <trkpt lat="43.61235" lon="3.75091">
        <ele>115.4</ele>
        <time>2011-05-29T06:41:42Z</time>
      </trkpt>
      <trkpt lat="43.61236" lon="3.75098">
        <ele>115.3</ele>
        <time>2011-05-29T06:41:43Z</time>
      </trkpt>
      <trkpt lat="43.61237" lon="3.75106">
        <ele>115.3</ele>
        <time>2011-05-29T06:41:44Z</time>
      </trkpt>
      <trkpt lat="43.61239" lon="3.75113">
        <ele>115.3</ele>
        <time>2011-05-29T06:41:45Z</time>
      </trkpt>
      <trkpt lat="43.61242" lon="3.7512">
        <ele>115.4</ele>
        <time>2011-05-29T06:41:46Z</time>
      </trkpt>
      <trkpt lat="43.61247" lon="3.75123">
        <ele>115.8</ele>
        <time>2011-05-29T06:41:47Z</time>
      </trkpt>
      <trkpt lat="43.61253" lon="3.75124">
        <ele>116.3</ele>
        <time>2011-05-29T06:41:48Z</time>
      </trkpt>
      <trkpt lat="43.61258" lon="3.75123">
        <ele>116.8</ele>
        <time>2011-05-29T06:41:49Z</time>
      </trkpt>
      <trkpt lat="43.61262" lon="3.75121">
        <ele>117.4</ele>
        <time>2011-05-29T06:41:50Z</time>
      </trkpt>
      <trkpt lat="43.61267" lon="3.7512">
        <ele>117.9</ele>
        <time>2011-05-29T06:41:51Z</time>
      </trkpt>
      <trkpt lat="43.61275" lon="3.75117">
        <ele>118.8</ele>
        <time>2011-05-29T06:41:53Z</time>
      </trkpt>
      <trkpt lat="43.61283" lon="3.75113">
        <ele>119.7</ele>
        <time>2011-05-29T06:41:55Z</time>
      </trkpt>
      <trkpt lat="43.6129" lon="3.7511">
        <ele>120.6</ele>
        <time>2011-05-29T06:41:57Z</time>
      </trkpt>
      <trkpt lat="43.61298" lon="3.75106">
        <ele>121.4</ele>
        <time>2011-05-29T06:41:59Z</time>
      </trkpt>
      <trkpt lat="43.61304" lon="3.75101">
        <ele>122.3</ele>
        <time>2011-05-29T06:42:01Z</time>
      </trkpt>
      <trkpt lat="43.61311" lon="3.75096">
        <ele>123.1</ele>
        <time>2011-05-29T06:42:03Z</time>
      </trkpt>
      <trkpt lat="43.61317" lon="3.75091">
        <ele>124</ele>
        <time>2011-05-29T06:42:05Z</time>
      </trkpt>
      <trkpt lat="43.61323" lon="3.75085">
        <ele>124.8</ele>
        <time>2011-05-29T06:42:07Z</time>
      </trkpt>
      <trkpt lat="43.61326" lon="3.75082">
        <ele>125.2</ele>
        <time>2011-05-29T06:42:08Z</time>
      </trkpt>
      <trkpt lat="43.61334" lon="3.75075">
        <ele>126.5</ele>
        <time>2011-05-29T06:42:11Z</time>
      </trkpt>
      <trkpt lat="43.61342" lon="3.7507">
        <ele>128</ele>
        <time>2011-05-29T06:42:14Z</time>
      </trkpt>
      <trkpt lat="43.6135" lon="3.7507">
        <ele>129.4</ele>
        <time>2011-05-29T06:42:17Z</time>
      </trkpt>
      <trkpt lat="43.61357" lon="3.75075">
        <ele>130.4</ele>
        <time>2011-05-29T06:42:20Z</time>
      </trkpt>
      <trkpt lat="43.61362" lon="3.75083">
        <ele>130.8</ele>
        <time>2011-05-29T06:42:23Z</time>
      </trkpt>
      <trkpt lat="43.61366" lon="3.75092">
        <ele>131.3</ele>
        <time>2011-05-29T06:42:26Z</time>
      </trkpt>
      <trkpt lat="43.6137" lon="3.75101">
        <ele>131.8</ele>
        <time>2011-05-29T06:42:29Z</time>
      </trkpt>
      <trkpt lat="43.61374" lon="3.75109">
        <ele>132.4</ele>
        <time>2011-05-29T06:42:32Z</time>
      </trkpt>
      <trkpt lat="43.61378" lon="3.75118">
        <ele>132.9</ele>
        <time>2011-05-29T06:42:35Z</time>
      </trkpt>
      <trkpt lat="43.61381" lon="3.75128">
        <ele>133.4</ele>
        <time>2011-05-29T06:42:39Z</time>
      </trkpt>
      <trkpt lat="43.61385" lon="3.75139">
        <ele>133.9</ele>
        <time>2011-05-29T06:42:43Z</time>
      </trkpt>
      <trkpt lat="43.61387" lon="3.75148">
        <ele>134.1</ele>
        <time>2011-05-29T06:42:46Z</time>
      </trkpt>
      <trkpt lat="43.61388" lon="3.75157">
        <ele>134.3</ele>
        <time>2011-05-29T06:42:49Z</time>
      </trkpt>
      <trkpt lat="43.61391" lon="3.75167">
        <ele>134.7</ele>
        <time>2011-05-29T06:42:52Z</time>
      </trkpt>
      <trkpt lat="43.61393" lon="3.75177">
        <ele>134.8</ele>
        <time>2011-05-29T06:42:55Z</time>
      </trkpt>
      <trkpt lat="43.61396" lon="3.75186">
        <ele>135.2</ele>
        <time>2011-05-29T06:42:58Z</time>
      </trkpt>
      <trkpt lat="43.61403" lon="3.7518">
        <ele>136.8</ele>
        <time>2011-05-29T06:43:03Z</time>
      </trkpt>
      <trkpt lat="43.61403" lon="3.75171">
        <ele>137.1</ele>
        <time>2011-05-29T06:43:06Z</time>
      </trkpt>
      <trkpt lat="43.61406" lon="3.75162">
        <ele>137.8</ele>
        <time>2011-05-29T06:43:09Z</time>
      </trkpt>
      <trkpt lat="43.61407" lon="3.75159">
        <ele>138.1</ele>
        <time>2011-05-29T06:43:10Z</time>
      </trkpt>
      <trkpt lat="43.61411" lon="3.75143">
        <ele>138.9</ele>
        <time>2011-05-29T06:43:15Z</time>
      </trkpt>
      <trkpt lat="43.61414" lon="3.75135">
        <ele>139.6</ele>
        <time>2011-05-29T06:43:18Z</time>
      </trkpt>
      <trkpt lat="43.61418" lon="3.75127">
        <ele>140.1</ele>
        <time>2011-05-29T06:43:21Z</time>
      </trkpt>
      <trkpt lat="43.61422" lon="3.75119">
        <ele>140.2</ele>
        <time>2011-05-29T06:43:24Z</time>
      </trkpt>
      <trkpt lat="43.61426" lon="3.75111">
        <ele>140.3</ele>
        <time>2011-05-29T06:43:27Z</time>
      </trkpt>
      <trkpt lat="43.61432" lon="3.75102">
        <ele>140.4</ele>
        <time>2011-05-29T06:43:30Z</time>
      </trkpt>
      <trkpt lat="43.61436" lon="3.75095">
        <ele>140.4</ele>
        <time>2011-05-29T06:43:32Z</time>
      </trkpt>
      <trkpt lat="43.61441" lon="3.75089">
        <ele>140.4</ele>
        <time>2011-05-29T06:43:34Z</time>
      </trkpt>
      <trkpt lat="43.61446" lon="3.7508">
        <ele>140.5</ele>
        <time>2011-05-29T06:43:37Z</time>
      </trkpt>
      <trkpt lat="43.61448" lon="3.7507">
        <ele>140.9</ele>
        <time>2011-05-29T06:43:41Z</time>
      </trkpt>
      <trkpt lat="43.61454" lon="3.75065">
        <ele>141.1</ele>
        <time>2011-05-29T06:43:45Z</time>
      </trkpt>
      <trkpt lat="43.6146" lon="3.75058">
        <ele>141.4</ele>
        <time>2011-05-29T06:43:48Z</time>
      </trkpt>
      <trkpt lat="43.61469" lon="3.75056">
        <ele>141.5</ele>
        <time>2011-05-29T06:43:51Z</time>
      </trkpt>
      <trkpt lat="43.61476" lon="3.75058">
        <ele>141.5</ele>
        <time>2011-05-29T06:43:53Z</time>
      </trkpt>
      <trkpt lat="43.61485" lon="3.75058">
        <ele>141.5</ele>
        <time>2011-05-29T06:43:57Z</time>
      </trkpt>
      <trkpt lat="43.61492" lon="3.7506">
        <ele>141.5</ele>
        <time>2011-05-29T06:44:00Z</time>
      </trkpt>
      <trkpt lat="43.61499" lon="3.75061">
        <ele>141.5</ele>
        <time>2011-05-29T06:44:03Z</time>
      </trkpt>
      <trkpt lat="43.61506" lon="3.75061">
        <ele>140.5</ele>
        <time>2011-05-29T06:44:06Z</time>
      </trkpt>
      <trkpt lat="43.61515" lon="3.75059">
        <ele>139.1</ele>
        <time>2011-05-29T06:44:08Z</time>
      </trkpt>
      <trkpt lat="43.61523" lon="3.75055">
        <ele>137.9</ele>
        <time>2011-05-29T06:44:10Z</time>
      </trkpt>
      <trkpt lat="43.61528" lon="3.75054">
        <ele>137.1</ele>
        <time>2011-05-29T06:44:11Z</time>
      </trkpt>
      <trkpt lat="43.61533" lon="3.75052">
        <ele>136.2</ele>
        <time>2011-05-29T06:44:12Z</time>
      </trkpt>
      <trkpt lat="43.61538" lon="3.7505">
        <ele>135.4</ele>
        <time>2011-05-29T06:44:13Z</time>
      </trkpt>
      <trkpt lat="43.61543" lon="3.75048">
        <ele>134.7</ele>
        <time>2011-05-29T06:44:14Z</time>
      </trkpt>
      <trkpt lat="43.61546" lon="3.75044">
        <ele>134.2</ele>
        <time>2011-05-29T06:44:15Z</time>
      </trkpt>
      <trkpt lat="43.61552" lon="3.7504">
        <ele>133.3</ele>
        <time>2011-05-29T06:44:16Z</time>
      </trkpt>
      <trkpt lat="43.61558" lon="3.75036">
        <ele>132.4</ele>
        <time>2011-05-29T06:44:17Z</time>
      </trkpt>
      <trkpt lat="43.61564" lon="3.75031">
        <ele>131.4</ele>
        <time>2011-05-29T06:44:18Z</time>
      </trkpt>
      <trkpt lat="43.6157" lon="3.75028">
        <ele>130.7</ele>
        <time>2011-05-29T06:44:19Z</time>
      </trkpt>
      <trkpt lat="43.61576" lon="3.75026">
        <ele>129.6</ele>
        <time>2011-05-29T06:44:20Z</time>
      </trkpt>
      <trkpt lat="43.61582" lon="3.75025">
        <ele>128.6</ele>
        <time>2011-05-29T06:44:21Z</time>
      </trkpt>
      <trkpt lat="43.6159" lon="3.75027">
        <ele>127.6</ele>
        <time>2011-05-29T06:44:22Z</time>
      </trkpt>
      <trkpt lat="43.61598" lon="3.75029">
        <ele>126.6</ele>
        <time>2011-05-29T06:44:23Z</time>
      </trkpt>
      <trkpt lat="43.61605" lon="3.75032">
        <ele>125.7</ele>
        <time>2011-05-29T06:44:24Z</time>
      </trkpt>
      <trkpt lat="43.61612" lon="3.75035">
        <ele>124.8</ele>
        <time>2011-05-29T06:44:25Z</time>
      </trkpt>
      <trkpt lat="43.61617" lon="3.7504">
        <ele>123.8</ele>
        <time>2011-05-29T06:44:26Z</time>
      </trkpt>
      <trkpt lat="43.61622" lon="3.75045">
        <ele>122.9</ele>
        <time>2011-05-29T06:44:27Z</time>
      </trkpt>
      <trkpt lat="43.61631" lon="3.75048">
        <ele>121.6</ele>
        <time>2011-05-29T06:44:29Z</time>
      </trkpt>
      <trkpt lat="43.61635" lon="3.75049">
        <ele>120.9</ele>
        <time>2011-05-29T06:44:30Z</time>
      </trkpt>
      <trkpt lat="43.61641" lon="3.75051">
        <ele>120</ele>
        <time>2011-05-29T06:44:31Z</time>
      </trkpt>
      <trkpt lat="43.61646" lon="3.75055">
        <ele>118.9</ele>
        <time>2011-05-29T06:44:32Z</time>
      </trkpt>
      <trkpt lat="43.61652" lon="3.75059">
        <ele>117.7</ele>
        <time>2011-05-29T06:44:33Z</time>
      </trkpt>
      <trkpt lat="43.61658" lon="3.75065">
        <ele>116.3</ele>
        <time>2011-05-29T06:44:34Z</time>
      </trkpt>
      <trkpt lat="43.61663" lon="3.75072">
        <ele>114.9</ele>
        <time>2011-05-29T06:44:35Z</time>
      </trkpt>
      <trkpt lat="43.61668" lon="3.75078">
        <ele>113.6</ele>
        <time>2011-05-29T06:44:36Z</time>
      </trkpt>
      <trkpt lat="43.61673" lon="3.75084">
        <ele>112.6</ele>
        <time>2011-05-29T06:44:37Z</time>
      </trkpt>
      <trkpt lat="43.61678" lon="3.75091">
        <ele>111.9</ele>
        <time>2011-05-29T06:44:38Z</time>
      </trkpt>
      <trkpt lat="43.61681" lon="3.75098">
        <ele>111.2</ele>
        <time>2011-05-29T06:44:39Z</time>
      </trkpt>
      <trkpt lat="43.61685" lon="3.75106">
        <ele>110.5</ele>
        <time>2011-05-29T06:44:40Z</time>
      </trkpt>
      <trkpt lat="43.61689" lon="3.75114">
        <ele>109.8</ele>
        <time>2011-05-29T06:44:41Z</time>
      </trkpt>
      <trkpt lat="43.61693" lon="3.7512">
        <ele>109.2</ele>
        <time>2011-05-29T06:44:42Z</time>
      </trkpt>
      <trkpt lat="43.61699" lon="3.75128">
        <ele>108.4</ele>
        <time>2011-05-29T06:44:44Z</time>
      </trkpt>
      <trkpt lat="43.61702" lon="3.75138">
        <ele>107.6</ele>
        <time>2011-05-29T06:44:47Z</time>
      </trkpt>
      <trkpt lat="43.61705" lon="3.75147">
        <ele>106.9</ele>
        <time>2011-05-29T06:44:50Z</time>
      </trkpt>
      <trkpt lat="43.61708" lon="3.75158">
        <ele>106</ele>
        <time>2011-05-29T06:45:00Z</time>
      </trkpt>
      <trkpt lat="43.61704" lon="3.75169">
        <ele>105.7</ele>
        <time>2011-05-29T06:45:26Z</time>
      </trkpt>
      <trkpt lat="43.61704" lon="3.75169">
        <ele>105.7</ele>
        <time>2011-05-29T06:45:27Z</time>
      </trkpt>
      <trkpt lat="43.61701" lon="3.75148">
        <ele>107.1</ele>
        <time>2011-05-29T06:46:13Z</time>
      </trkpt>
      <trkpt lat="43.61708" lon="3.75141">
        <ele>107.1</ele>
        <time>2011-05-29T06:46:47Z</time>
      </trkpt>
      <trkpt lat="43.61708" lon="3.7514">
        <ele>107.1</ele>
        <time>2011-05-29T06:46:48Z</time>
      </trkpt>
      <trkpt lat="43.61713" lon="3.75151">
        <ele>106.1</ele>
        <time>2011-05-29T06:53:09Z</time>
      </trkpt>
      <trkpt lat="43.61712" lon="3.75166">
        <ele>105.3</ele>
        <time>2011-05-29T06:55:31Z</time>
      </trkpt>
      <trkpt lat="43.61705" lon="3.75183">
        <ele>105.3</ele>
        <time>2011-05-29T06:55:36Z</time>
      </trkpt>
      <trkpt lat="43.617" lon="3.75188">
        <ele>105.4</ele>
        <time>2011-05-29T06:55:38Z</time>
      </trkpt>
      <trkpt lat="43.61695" lon="3.75193">
        <ele>105.4</ele>
        <time>2011-05-29T06:55:40Z</time>
      </trkpt>
      <trkpt lat="43.61689" lon="3.75199">
        <ele>105.3</ele>
        <time>2011-05-29T06:55:42Z</time>
      </trkpt>
      <trkpt lat="43.61684" lon="3.75207">
        <ele>105</ele>
        <time>2011-05-29T06:55:44Z</time>
      </trkpt>
      <trkpt lat="43.61681" lon="3.75217">
        <ele>104.4</ele>
        <time>2011-05-29T06:55:46Z</time>
      </trkpt>
      <trkpt lat="43.61681" lon="3.75229">
        <ele>103.8</ele>
        <time>2011-05-29T06:55:48Z</time>
      </trkpt>
      <trkpt lat="43.6168" lon="3.75235">
        <ele>103.4</ele>
        <time>2011-05-29T06:55:49Z</time>
      </trkpt>
      <trkpt lat="43.61678" lon="3.75241">
        <ele>103</ele>
        <time>2011-05-29T06:55:50Z</time>
      </trkpt>
      <trkpt lat="43.61677" lon="3.75247">
        <ele>102.6</ele>
        <time>2011-05-29T06:55:51Z</time>
      </trkpt>
      <trkpt lat="43.61676" lon="3.75254">
        <ele>102.4</ele>
        <time>2011-05-29T06:55:52Z</time>
      </trkpt>
      <trkpt lat="43.61676" lon="3.75266">
        <ele>102.5</ele>
        <time>2011-05-29T06:55:54Z</time>
      </trkpt>
      <trkpt lat="43.61679" lon="3.75277">
        <ele>102.6</ele>
        <time>2011-05-29T06:55:56Z</time>
      </trkpt>
      <trkpt lat="43.61684" lon="3.75287">
        <ele>102.9</ele>
        <time>2011-05-29T06:55:58Z</time>
      </trkpt>
      <trkpt lat="43.6169" lon="3.75296">
        <ele>103.2</ele>
        <time>2011-05-29T06:56:00Z</time>
      </trkpt>
      <trkpt lat="43.61695" lon="3.75305">
        <ele>103.6</ele>
        <time>2011-05-29T06:56:02Z</time>
      </trkpt>
      <trkpt lat="43.617" lon="3.75315">
        <ele>103.9</ele>
        <time>2011-05-29T06:56:04Z</time>
      </trkpt>
      <trkpt lat="43.61703" lon="3.75326">
        <ele>104.2</ele>
        <time>2011-05-29T06:56:06Z</time>
      </trkpt>
      <trkpt lat="43.61706" lon="3.75338">
        <ele>104.5</ele>
        <time>2011-05-29T06:56:08Z</time>
      </trkpt>
      <trkpt lat="43.61707" lon="3.75349">
        <ele>104.9</ele>
        <time>2011-05-29T06:56:10Z</time>
      </trkpt>
      <trkpt lat="43.61708" lon="3.75356">
        <ele>105</ele>
        <time>2011-05-29T06:56:11Z</time>
      </trkpt>
      <trkpt lat="43.61709" lon="3.75362">
        <ele>105.2</ele>
        <time>2011-05-29T06:56:12Z</time>
      </trkpt>
      <trkpt lat="43.61711" lon="3.75369">
        <ele>105.3</ele>
        <time>2011-05-29T06:56:13Z</time>
      </trkpt>
      <trkpt lat="43.61713" lon="3.75374">
        <ele>105.3</ele>
        <time>2011-05-29T06:56:14Z</time>
      </trkpt>
      <trkpt lat="43.61717" lon="3.7538">
        <ele>105.2</ele>
        <time>2011-05-29T06:56:15Z</time>
      </trkpt>
      <trkpt lat="43.6172" lon="3.75385">
        <ele>105.1</ele>
        <time>2011-05-29T06:56:16Z</time>
      </trkpt>
      <trkpt lat="43.61724" lon="3.7539">
        <ele>104.8</ele>
        <time>2011-05-29T06:56:17Z</time>
      </trkpt>
      <trkpt lat="43.61727" lon="3.75395">
        <ele>104.5</ele>
        <time>2011-05-29T06:56:18Z</time>
      </trkpt>
      <trkpt lat="43.6173" lon="3.75401">
        <ele>104</ele>
        <time>2011-05-29T06:56:19Z</time>
      </trkpt>
      <trkpt lat="43.61734" lon="3.75406">
        <ele>103.5</ele>
        <time>2011-05-29T06:56:20Z</time>
      </trkpt>
      <trkpt lat="43.61737" lon="3.75412">
        <ele>102.9</ele>
        <time>2011-05-29T06:56:21Z</time>
      </trkpt>
      <trkpt lat="43.61741" lon="3.75417">
        <ele>102.2</ele>
        <time>2011-05-29T06:56:22Z</time>
      </trkpt>
      <trkpt lat="43.61744" lon="3.75423">
        <ele>101.8</ele>
        <time>2011-05-29T06:56:23Z</time>
      </trkpt>
      <trkpt lat="43.61747" lon="3.75428">
        <ele>101.3</ele>
        <time>2011-05-29T06:56:24Z</time>
      </trkpt>
      <trkpt lat="43.61751" lon="3.75434">
        <ele>100.9</ele>
        <time>2011-05-29T06:56:25Z</time>
      </trkpt>
      <trkpt lat="43.61754" lon="3.75439">
        <ele>101</ele>
        <time>2011-05-29T06:56:26Z</time>
      </trkpt>
      <trkpt lat="43.61758" lon="3.75445">
        <ele>101.1</ele>
        <time>2011-05-29T06:56:27Z</time>
      </trkpt>
      <trkpt lat="43.61761" lon="3.75451">
        <ele>101.2</ele>
        <time>2011-05-29T06:56:28Z</time>
      </trkpt>
      <trkpt lat="43.61765" lon="3.75457">
        <ele>101.2</ele>
        <time>2011-05-29T06:56:29Z</time>
      </trkpt>
      <trkpt lat="43.61768" lon="3.75462">
        <ele>101.1</ele>
        <time>2011-05-29T06:56:30Z</time>
      </trkpt>
      <trkpt lat="43.61772" lon="3.75468">
        <ele>101</ele>
        <time>2011-05-29T06:56:31Z</time>
      </trkpt>
      <trkpt lat="43.61775" lon="3.75473">
        <ele>100.8</ele>
        <time>2011-05-29T06:56:32Z</time>
      </trkpt>
      <trkpt lat="43.61779" lon="3.75479">
        <ele>100.5</ele>
        <time>2011-05-29T06:56:33Z</time>
      </trkpt>
      <trkpt lat="43.61782" lon="3.75484">
        <ele>100.2</ele>
        <time>2011-05-29T06:56:34Z</time>
      </trkpt>
      <trkpt lat="43.61785" lon="3.7549">
        <ele>99.8</ele>
        <time>2011-05-29T06:56:35Z</time>
      </trkpt>
      <trkpt lat="43.61789" lon="3.75495">
        <ele>99.4</ele>
        <time>2011-05-29T06:56:36Z</time>
      </trkpt>
      <trkpt lat="43.61792" lon="3.75501">
        <ele>99</ele>
        <time>2011-05-29T06:56:37Z</time>
      </trkpt>
      <trkpt lat="43.61795" lon="3.75507">
        <ele>99.1</ele>
        <time>2011-05-29T06:56:38Z</time>
      </trkpt>
      <trkpt lat="43.61799" lon="3.75512">
        <ele>99.2</ele>
        <time>2011-05-29T06:56:39Z</time>
      </trkpt>
      <trkpt lat="43.61802" lon="3.75518">
        <ele>99.1</ele>
        <time>2011-05-29T06:56:40Z</time>
      </trkpt>
      <trkpt lat="43.61805" lon="3.75524">
        <ele>99</ele>
        <time>2011-05-29T06:56:41Z</time>
      </trkpt>
      <trkpt lat="43.61809" lon="3.7553">
        <ele>98.8</ele>
        <time>2011-05-29T06:56:42Z</time>
      </trkpt>
      <trkpt lat="43.61812" lon="3.75535">
        <ele>98.4</ele>
        <time>2011-05-29T06:56:43Z</time>
      </trkpt>
      <trkpt lat="43.61816" lon="3.7554">
        <ele>98</ele>
        <time>2011-05-29T06:56:44Z</time>
      </trkpt>
      <trkpt lat="43.61819" lon="3.75546">
        <ele>97.5</ele>
        <time>2011-05-29T06:56:45Z</time>
      </trkpt>
      <trkpt lat="43.61822" lon="3.75552">
        <ele>97</ele>
        <time>2011-05-29T06:56:46Z</time>
      </trkpt>
      <trkpt lat="43.61825" lon="3.75558">
        <ele>96.5</ele>
        <time>2011-05-29T06:56:47Z</time>
      </trkpt>
      <trkpt lat="43.61828" lon="3.75564">
        <ele>95.9</ele>
        <time>2011-05-29T06:56:48Z</time>
      </trkpt>
      <trkpt lat="43.6183" lon="3.75571">
        <ele>95.2</ele>
        <time>2011-05-29T06:56:49Z</time>
      </trkpt>
      <trkpt lat="43.61833" lon="3.75578">
        <ele>94.4</ele>
        <time>2011-05-29T06:56:50Z</time>
      </trkpt>
      <trkpt lat="43.61836" lon="3.75584">
        <ele>94.1</ele>
        <time>2011-05-29T06:56:51Z</time>
      </trkpt>
      <trkpt lat="43.61839" lon="3.7559">
        <ele>94.9</ele>
        <time>2011-05-29T06:56:52Z</time>
      </trkpt>
      <trkpt lat="43.61843" lon="3.75595">
        <ele>95.6</ele>
        <time>2011-05-29T06:56:53Z</time>
      </trkpt>
      <trkpt lat="43.61848" lon="3.75599">
        <ele>96.2</ele>
        <time>2011-05-29T06:56:54Z</time>
      </trkpt>
      <trkpt lat="43.61852" lon="3.75602">
        <ele>96.6</ele>
        <time>2011-05-29T06:56:55Z</time>
      </trkpt>
      <trkpt lat="43.61857" lon="3.75604">
        <ele>96.9</ele>
        <time>2011-05-29T06:56:56Z</time>
      </trkpt>
      <trkpt lat="43.61862" lon="3.75606">
        <ele>97.1</ele>
        <time>2011-05-29T06:56:57Z</time>
      </trkpt>
      <trkpt lat="43.61867" lon="3.75607">
        <ele>97.3</ele>
        <time>2011-05-29T06:56:58Z</time>
      </trkpt>
      <trkpt lat="43.61873" lon="3.75608">
        <ele>97.4</ele>
        <time>2011-05-29T06:56:59Z</time>
      </trkpt>
      <trkpt lat="43.61878" lon="3.75609">
        <ele>97.5</ele>
        <time>2011-05-29T06:57:00Z</time>
      </trkpt>
      <trkpt lat="43.61883" lon="3.75609">
        <ele>97.5</ele>
        <time>2011-05-29T06:57:01Z</time>
      </trkpt>
      <trkpt lat="43.61889" lon="3.7561">
        <ele>97.6</ele>
        <time>2011-05-29T06:57:02Z</time>
      </trkpt>
      <trkpt lat="43.61894" lon="3.75611">
        <ele>97.7</ele>
        <time>2011-05-29T06:57:03Z</time>
      </trkpt>
      <trkpt lat="43.61899" lon="3.7561">
        <ele>97.6</ele>
        <time>2011-05-29T06:57:04Z</time>
      </trkpt>
      <trkpt lat="43.61905" lon="3.75608">
        <ele>97.3</ele>
        <time>2011-05-29T06:57:05Z</time>
      </trkpt>
      <trkpt lat="43.61909" lon="3.75604">
        <ele>96.8</ele>
        <time>2011-05-29T06:57:06Z</time>
      </trkpt>
      <trkpt lat="43.61913" lon="3.756">
        <ele>96.2</ele>
        <time>2011-05-29T06:57:07Z</time>
      </trkpt>
      <trkpt lat="43.61917" lon="3.75595">
        <ele>95.6</ele>
        <time>2011-05-29T06:57:08Z</time>
      </trkpt>
      <trkpt lat="43.61921" lon="3.75591">
        <ele>95</ele>
        <time>2011-05-29T06:57:09Z</time>
      </trkpt>
      <trkpt lat="43.61925" lon="3.75587">
        <ele>94.4</ele>
        <time>2011-05-29T06:57:10Z</time>
      </trkpt>
      <trkpt lat="43.61929" lon="3.75583">
        <ele>94.1</ele>
        <time>2011-05-29T06:57:11Z</time>
      </trkpt>
      <trkpt lat="43.61933" lon="3.75579">
        <ele>94.4</ele>
        <time>2011-05-29T06:57:12Z</time>
      </trkpt>
      <trkpt lat="43.61937" lon="3.75576">
        <ele>94.8</ele>
        <time>2011-05-29T06:57:13Z</time>
      </trkpt>
      <trkpt lat="43.61942" lon="3.75573">
        <ele>95.2</ele>
        <time>2011-05-29T06:57:14Z</time>
      </trkpt>
      <trkpt lat="43.61946" lon="3.7557">
        <ele>95.5</ele>
        <time>2011-05-29T06:57:15Z</time>
      </trkpt>
      <trkpt lat="43.61953" lon="3.75562">
        <ele>96.3</ele>
        <time>2011-05-29T06:57:17Z</time>
      </trkpt>
      <trkpt lat="43.61958" lon="3.75552">
        <ele>97.3</ele>
        <time>2011-05-29T06:57:27Z</time>
      </trkpt>
      <trkpt lat="43.61963" lon="3.75543">
        <ele>98.4</ele>
        <time>2011-05-29T06:57:41Z</time>
      </trkpt>
      <trkpt lat="43.61965" lon="3.75542">
        <ele>98.4</ele>
        <time>2011-05-29T06:57:42Z</time>
      </trkpt>
      <trkpt lat="43.6198" lon="3.7554">
        <ele>98.7</ele>
        <time>2011-05-29T06:57:56Z</time>
      </trkpt>
      <trkpt lat="43.61988" lon="3.75534">
        <ele>99.4</ele>
        <time>2011-05-29T06:58:04Z</time>
      </trkpt>
      <trkpt lat="43.61993" lon="3.75525">
        <ele>100.3</ele>
        <time>2011-05-29T06:58:14Z</time>
      </trkpt>
      <trkpt lat="43.62" lon="3.75517">
        <ele>101.1</ele>
        <time>2011-05-29T06:58:26Z</time>
      </trkpt>
      <trkpt lat="43.62007" lon="3.75517">
        <ele>101.3</ele>
        <time>2011-05-29T06:58:30Z</time>
      </trkpt>
      <trkpt lat="43.62016" lon="3.75519">
        <ele>101.2</ele>
        <time>2011-05-29T06:58:34Z</time>
      </trkpt>
      <trkpt lat="43.62025" lon="3.75517">
        <ele>101.6</ele>
        <time>2011-05-29T06:58:38Z</time>
      </trkpt>
      <trkpt lat="43.62032" lon="3.75514">
        <ele>102</ele>
        <time>2011-05-29T06:58:41Z</time>
      </trkpt>
      <trkpt lat="43.6204" lon="3.75517">
        <ele>101.8</ele>
        <time>2011-05-29T06:58:44Z</time>
      </trkpt>
      <trkpt lat="43.62044" lon="3.75519">
        <ele>101.7</ele>
        <time>2011-05-29T06:58:45Z</time>
      </trkpt>
      <trkpt lat="43.62053" lon="3.75513">
        <ele>102.5</ele>
        <time>2011-05-29T06:58:50Z</time>
      </trkpt>
      <trkpt lat="43.62056" lon="3.75502">
        <ele>103.5</ele>
        <time>2011-05-29T06:58:54Z</time>
      </trkpt>
      <trkpt lat="43.62059" lon="3.75492">
        <ele>104.2</ele>
        <time>2011-05-29T06:58:58Z</time>
      </trkpt>
      <trkpt lat="43.62061" lon="3.75481">
        <ele>104.8</ele>
        <time>2011-05-29T06:59:03Z</time>
      </trkpt>
      <trkpt lat="43.62063" lon="3.7547">
        <ele>105.4</ele>
        <time>2011-05-29T06:59:07Z</time>
      </trkpt>
      <trkpt lat="43.62063" lon="3.75461">
        <ele>105.8</ele>
        <time>2011-05-29T06:59:10Z</time>
      </trkpt>
      <trkpt lat="43.62062" lon="3.7545">
        <ele>106.5</ele>
        <time>2011-05-29T06:59:13Z</time>
      </trkpt>
      <trkpt lat="43.62063" lon="3.75441">
        <ele>107</ele>
        <time>2011-05-29T06:59:16Z</time>
      </trkpt>
      <trkpt lat="43.62063" lon="3.75431">
        <ele>107.5</ele>
        <time>2011-05-29T06:59:19Z</time>
      </trkpt>
      <trkpt lat="43.62062" lon="3.75421">
        <ele>108</ele>
        <time>2011-05-29T06:59:22Z</time>
      </trkpt>
      <trkpt lat="43.62061" lon="3.75409">
        <ele>108.6</ele>
        <time>2011-05-29T06:59:26Z</time>
      </trkpt>
      <trkpt lat="43.6206" lon="3.754">
        <ele>108.9</ele>
        <time>2011-05-29T06:59:29Z</time>
      </trkpt>
      <trkpt lat="43.62058" lon="3.7539">
        <ele>109.4</ele>
        <time>2011-05-29T06:59:32Z</time>
      </trkpt>
      <trkpt lat="43.62056" lon="3.75378">
        <ele>109.9</ele>
        <time>2011-05-29T06:59:35Z</time>
      </trkpt>
      <trkpt lat="43.62055" lon="3.7537">
        <ele>110.2</ele>
        <time>2011-05-29T06:59:37Z</time>
      </trkpt>
      <trkpt lat="43.62055" lon="3.75361">
        <ele>110.6</ele>
        <time>2011-05-29T06:59:39Z</time>
      </trkpt>
      <trkpt lat="43.62053" lon="3.7535">
        <ele>111.1</ele>
        <time>2011-05-29T06:59:42Z</time>
      </trkpt>
      <trkpt lat="43.62052" lon="3.75339">
        <ele>111.5</ele>
        <time>2011-05-29T06:59:45Z</time>
      </trkpt>
      <trkpt lat="43.62051" lon="3.75335">
        <ele>111.7</ele>
        <time>2011-05-29T06:59:46Z</time>
      </trkpt>
      <trkpt lat="43.62049" lon="3.75315">
        <ele>112.7</ele>
        <time>2011-05-29T06:59:51Z</time>
      </trkpt>
      <trkpt lat="43.62048" lon="3.75304">
        <ele>113.3</ele>
        <time>2011-05-29T06:59:54Z</time>
      </trkpt>
      <trkpt lat="43.62049" lon="3.75293">
        <ele>113.8</ele>
        <time>2011-05-29T06:59:57Z</time>
      </trkpt>
      <trkpt lat="43.62052" lon="3.75283">
        <ele>114.3</ele>
        <time>2011-05-29T07:00:00Z</time>
      </trkpt>
      <trkpt lat="43.62057" lon="3.75274">
        <ele>114.8</ele>
        <time>2011-05-29T07:00:03Z</time>
      </trkpt>
      <trkpt lat="43.62061" lon="3.75265">
        <ele>115.2</ele>
        <time>2011-05-29T07:00:06Z</time>
      </trkpt>
      <trkpt lat="43.62064" lon="3.75257">
        <ele>115.6</ele>
        <time>2011-05-29T07:00:09Z</time>
      </trkpt>
      <trkpt lat="43.62067" lon="3.75246">
        <ele>116.1</ele>
        <time>2011-05-29T07:00:13Z</time>
      </trkpt>
      <trkpt lat="43.6207" lon="3.75235">
        <ele>116.5</ele>
        <time>2011-05-29T07:00:17Z</time>
      </trkpt>
      <trkpt lat="43.62079" lon="3.75235">
        <ele>116.5</ele>
        <time>2011-05-29T07:00:25Z</time>
      </trkpt>
      <trkpt lat="43.62082" lon="3.75246">
        <ele>116.2</ele>
        <time>2011-05-29T07:00:30Z</time>
      </trkpt>
      <trkpt lat="43.62086" lon="3.75257">
        <ele>115.9</ele>
        <time>2011-05-29T07:00:36Z</time>
      </trkpt>
      <trkpt lat="43.62089" lon="3.75268">
        <ele>115.8</ele>
        <time>2011-05-29T07:00:42Z</time>
      </trkpt>
      <trkpt lat="43.62092" lon="3.75279">
        <ele>115.6</ele>
        <time>2011-05-29T07:00:49Z</time>
      </trkpt>
      <trkpt lat="43.62093" lon="3.7528">
        <ele>115.6</ele>
        <time>2011-05-29T07:00:50Z</time>
      </trkpt>
      <trkpt lat="43.621" lon="3.75299">
        <ele>115.5</ele>
        <time>2011-05-29T07:01:02Z</time>
      </trkpt>
      <trkpt lat="43.62104" lon="3.75309">
        <ele>115.6</ele>
        <time>2011-05-29T07:01:09Z</time>
      </trkpt>
      <trkpt lat="43.62108" lon="3.75319">
        <ele>115.7</ele>
        <time>2011-05-29T07:01:16Z</time>
      </trkpt>
      <trkpt lat="43.62112" lon="3.75329">
        <ele>115.6</ele>
        <time>2011-05-29T07:01:22Z</time>
      </trkpt>
      <trkpt lat="43.62117" lon="3.75338">
        <ele>116.1</ele>
        <time>2011-05-29T07:03:19Z</time>
      </trkpt>
      <trkpt lat="43.62117" lon="3.7534">
        <ele>116.1</ele>
        <time>2011-05-29T07:03:20Z</time>
      </trkpt>
      <trkpt lat="43.62124" lon="3.75356">
        <ele>116.7</ele>
        <time>2011-05-29T07:03:28Z</time>
      </trkpt>
      <trkpt lat="43.62129" lon="3.75366">
        <ele>117.1</ele>
        <time>2011-05-29T07:03:32Z</time>
      </trkpt>
      <trkpt lat="43.62132" lon="3.75375">
        <ele>117.4</ele>
        <time>2011-05-29T07:03:35Z</time>
      </trkpt>
      <trkpt lat="43.62135" lon="3.75383">
        <ele>117.7</ele>
        <time>2011-05-29T07:03:38Z</time>
      </trkpt>
      <trkpt lat="43.62139" lon="3.75392">
        <ele>118.1</ele>
        <time>2011-05-29T07:03:41Z</time>
      </trkpt>
      <trkpt lat="43.62143" lon="3.75401">
        <ele>118.5</ele>
        <time>2011-05-29T07:03:44Z</time>
      </trkpt>
      <trkpt lat="43.62147" lon="3.75409">
        <ele>118.9</ele>
        <time>2011-05-29T07:03:47Z</time>
      </trkpt>
      <trkpt lat="43.62151" lon="3.75418">
        <ele>119.3</ele>
        <time>2011-05-29T07:03:51Z</time>
      </trkpt>
      <trkpt lat="43.62155" lon="3.75428">
        <ele>119.5</ele>
        <time>2011-05-29T07:03:55Z</time>
      </trkpt>
      <trkpt lat="43.62159" lon="3.75437">
        <ele>119.8</ele>
        <time>2011-05-29T07:03:59Z</time>
      </trkpt>
      <trkpt lat="43.62164" lon="3.75445">
        <ele>120.2</ele>
        <time>2011-05-29T07:04:02Z</time>
      </trkpt>
      <trkpt lat="43.62168" lon="3.75454">
        <ele>120.6</ele>
        <time>2011-05-29T07:04:05Z</time>
      </trkpt>
      <trkpt lat="43.62174" lon="3.75464">
        <ele>121.2</ele>
        <time>2011-05-29T07:04:08Z</time>
      </trkpt>
      <trkpt lat="43.62179" lon="3.75473">
        <ele>121.9</ele>
        <time>2011-05-29T07:04:11Z</time>
      </trkpt>
      <trkpt lat="43.62185" lon="3.75482">
        <ele>122.7</ele>
        <time>2011-05-29T07:04:14Z</time>
      </trkpt>
      <trkpt lat="43.6219" lon="3.75491">
        <ele>123.5</ele>
        <time>2011-05-29T07:04:17Z</time>
      </trkpt>
      <trkpt lat="43.62196" lon="3.755">
        <ele>124.3</ele>
        <time>2011-05-29T07:04:20Z</time>
      </trkpt>
      <trkpt lat="43.62198" lon="3.75503">
        <ele>124.4</ele>
        <time>2011-05-29T07:04:21Z</time>
      </trkpt>
      <trkpt lat="43.62207" lon="3.75518">
        <ele>124.8</ele>
        <time>2011-05-29T07:04:26Z</time>
      </trkpt>
      <trkpt lat="43.62212" lon="3.75526">
        <ele>125</ele>
        <time>2011-05-29T07:04:29Z</time>
      </trkpt>
      <trkpt lat="43.62217" lon="3.75534">
        <ele>125.4</ele>
        <time>2011-05-29T07:04:32Z</time>
      </trkpt>
      <trkpt lat="43.62223" lon="3.75544">
        <ele>125.7</ele>
        <time>2011-05-29T07:04:35Z</time>
      </trkpt>
      <trkpt lat="43.62228" lon="3.75553">
        <ele>126.1</ele>
        <time>2011-05-29T07:04:38Z</time>
      </trkpt>
      <trkpt lat="43.62233" lon="3.75562">
        <ele>126.4</ele>
        <time>2011-05-29T07:04:41Z</time>
      </trkpt>
      <trkpt lat="43.62236" lon="3.75569">
        <ele>126.6</ele>
        <time>2011-05-29T07:04:43Z</time>
      </trkpt>
      <trkpt lat="43.62241" lon="3.75579">
        <ele>126.9</ele>
        <time>2011-05-29T07:04:46Z</time>
      </trkpt>
      <trkpt lat="43.62245" lon="3.75589">
        <ele>127</ele>
        <time>2011-05-29T07:04:49Z</time>
      </trkpt>
      <trkpt lat="43.6225" lon="3.75599">
        <ele>126.9</ele>
        <time>2011-05-29T07:04:52Z</time>
      </trkpt>
      <trkpt lat="43.62254" lon="3.7561">
        <ele>126.8</ele>
        <time>2011-05-29T07:04:55Z</time>
      </trkpt>
      <trkpt lat="43.62257" lon="3.75621">
        <ele>126.6</ele>
        <time>2011-05-29T07:04:58Z</time>
      </trkpt>
      <trkpt lat="43.6226" lon="3.75628">
        <ele>126.4</ele>
        <time>2011-05-29T07:05:00Z</time>
      </trkpt>
      <trkpt lat="43.62262" lon="3.75636">
        <ele>126.2</ele>
        <time>2011-05-29T07:05:02Z</time>
      </trkpt>
      <trkpt lat="43.62265" lon="3.75648">
        <ele>126</ele>
        <time>2011-05-29T07:05:05Z</time>
      </trkpt>
      <trkpt lat="43.62268" lon="3.75656">
        <ele>126</ele>
        <time>2011-05-29T07:05:07Z</time>
      </trkpt>
      <trkpt lat="43.6227" lon="3.75664">
        <ele>125.8</ele>
        <time>2011-05-29T07:05:09Z</time>
      </trkpt>
      <trkpt lat="43.62272" lon="3.75673">
        <ele>125.8</ele>
        <time>2011-05-29T07:05:11Z</time>
      </trkpt>
      <trkpt lat="43.62274" lon="3.75682">
        <ele>125.8</ele>
        <time>2011-05-29T07:05:13Z</time>
      </trkpt>
      <trkpt lat="43.62275" lon="3.75691">
        <ele>125.7</ele>
        <time>2011-05-29T07:05:15Z</time>
      </trkpt>
      <trkpt lat="43.62277" lon="3.75701">
        <ele>125.9</ele>
        <time>2011-05-29T07:05:17Z</time>
      </trkpt>
      <trkpt lat="43.62278" lon="3.7571">
        <ele>125.8</ele>
        <time>2011-05-29T07:05:19Z</time>
      </trkpt>
      <trkpt lat="43.62279" lon="3.75719">
        <ele>125.5</ele>
        <time>2011-05-29T07:05:21Z</time>
      </trkpt>
      <trkpt lat="43.62279" lon="3.75724">
        <ele>125.4</ele>
        <time>2011-05-29T07:05:22Z</time>
      </trkpt>
      <trkpt lat="43.6228" lon="3.75738">
        <ele>125</ele>
        <time>2011-05-29T07:05:25Z</time>
      </trkpt>
      <trkpt lat="43.62281" lon="3.75749">
        <ele>124.7</ele>
        <time>2011-05-29T07:05:27Z</time>
      </trkpt>
      <trkpt lat="43.62281" lon="3.75758">
        <ele>125</ele>
        <time>2011-05-29T07:05:29Z</time>
      </trkpt>
      <trkpt lat="43.62282" lon="3.75768">
        <ele>125.5</ele>
        <time>2011-05-29T07:05:31Z</time>
      </trkpt>
      <trkpt lat="43.62282" lon="3.75778">
        <ele>125.8</ele>
        <time>2011-05-29T07:05:33Z</time>
      </trkpt>
      <trkpt lat="43.62283" lon="3.75786">
        <ele>126.1</ele>
        <time>2011-05-29T07:05:35Z</time>
      </trkpt>
      <trkpt lat="43.62283" lon="3.75795">
        <ele>126.4</ele>
        <time>2011-05-29T07:05:37Z</time>
      </trkpt>
      <trkpt lat="43.62283" lon="3.75805">
        <ele>126.6</ele>
        <time>2011-05-29T07:05:39Z</time>
      </trkpt>
      <trkpt lat="43.62283" lon="3.75814">
        <ele>126.7</ele>
        <time>2011-05-29T07:05:41Z</time>
      </trkpt>
      <trkpt lat="43.62284" lon="3.75824">
        <ele>127.1</ele>
        <time>2011-05-29T07:05:43Z</time>
      </trkpt>
      <trkpt lat="43.62283" lon="3.75835">
        <ele>127</ele>
        <time>2011-05-29T07:05:45Z</time>
      </trkpt>
      <trkpt lat="43.62282" lon="3.75847">
        <ele>126.5</ele>
        <time>2011-05-29T07:05:47Z</time>
      </trkpt>
      <trkpt lat="43.6228" lon="3.75858">
        <ele>126</ele>
        <time>2011-05-29T07:05:49Z</time>
      </trkpt>
      <trkpt lat="43.62279" lon="3.7587">
        <ele>125.6</ele>
        <time>2011-05-29T07:05:51Z</time>
      </trkpt>
      <trkpt lat="43.62279" lon="3.75882">
        <ele>125.4</ele>
        <time>2011-05-29T07:05:53Z</time>
      </trkpt>
      <trkpt lat="43.6228" lon="3.75893">
        <ele>125.5</ele>
        <time>2011-05-29T07:05:55Z</time>
      </trkpt>
      <trkpt lat="43.62281" lon="3.75904">
        <ele>125.4</ele>
        <time>2011-05-29T07:05:57Z</time>
      </trkpt>
      <trkpt lat="43.62281" lon="3.75915">
        <ele>125.3</ele>
        <time>2011-05-29T07:05:59Z</time>
      </trkpt>
      <trkpt lat="43.6228" lon="3.75926">
        <ele>124.8</ele>
        <time>2011-05-29T07:06:01Z</time>
      </trkpt>
      <trkpt lat="43.6228" lon="3.75938">
        <ele>124.4</ele>
        <time>2011-05-29T07:06:03Z</time>
      </trkpt>
      <trkpt lat="43.6228" lon="3.75949">
        <ele>124</ele>
        <time>2011-05-29T07:06:05Z</time>
      </trkpt>
      <trkpt lat="43.6228" lon="3.75961">
        <ele>123.5</ele>
        <time>2011-05-29T07:06:07Z</time>
      </trkpt>
      <trkpt lat="43.6228" lon="3.75972">
        <ele>123</ele>
        <time>2011-05-29T07:06:09Z</time>
      </trkpt>
      <trkpt lat="43.6228" lon="3.75984">
        <ele>122.6</ele>
        <time>2011-05-29T07:06:11Z</time>
      </trkpt>
      <trkpt lat="43.6228" lon="3.75995">
        <ele>122.2</ele>
        <time>2011-05-29T07:06:13Z</time>
      </trkpt>
      <trkpt lat="43.6228" lon="3.76006">
        <ele>122.2</ele>
        <time>2011-05-29T07:06:15Z</time>
      </trkpt>
      <trkpt lat="43.62279" lon="3.76017">
        <ele>122.4</ele>
        <time>2011-05-29T07:06:17Z</time>
      </trkpt>
      <trkpt lat="43.62279" lon="3.76028">
        <ele>122.7</ele>
        <time>2011-05-29T07:06:19Z</time>
      </trkpt>
      <trkpt lat="43.62279" lon="3.76039">
        <ele>123</ele>
        <time>2011-05-29T07:06:21Z</time>
      </trkpt>
      <trkpt lat="43.62279" lon="3.76051">
        <ele>123.3</ele>
        <time>2011-05-29T07:06:23Z</time>
      </trkpt>
      <trkpt lat="43.62279" lon="3.76057">
        <ele>123.5</ele>
        <time>2011-05-29T07:06:24Z</time>
      </trkpt>
      <trkpt lat="43.62279" lon="3.76074">
        <ele>123.9</ele>
        <time>2011-05-29T07:06:27Z</time>
      </trkpt>
      <trkpt lat="43.62278" lon="3.76085">
        <ele>124.1</ele>
        <time>2011-05-29T07:06:29Z</time>
      </trkpt>
      <trkpt lat="43.62278" lon="3.76097">
        <ele>124.2</ele>
        <time>2011-05-29T07:06:31Z</time>
      </trkpt>
      <trkpt lat="43.62277" lon="3.76108">
        <ele>124.3</ele>
        <time>2011-05-29T07:06:33Z</time>
      </trkpt>
      <trkpt lat="43.62277" lon="3.7612">
        <ele>124.5</ele>
        <time>2011-05-29T07:06:35Z</time>
      </trkpt>
      <trkpt lat="43.62277" lon="3.76131">
        <ele>124.7</ele>
        <time>2011-05-29T07:06:37Z</time>
      </trkpt>
      <trkpt lat="43.62277" lon="3.76143">
        <ele>124.9</ele>
        <time>2011-05-29T07:06:39Z</time>
      </trkpt>
      <trkpt lat="43.62277" lon="3.76154">
        <ele>125.1</ele>
        <time>2011-05-29T07:06:41Z</time>
      </trkpt>
      <trkpt lat="43.62277" lon="3.76165">
        <ele>125.2</ele>
        <time>2011-05-29T07:06:43Z</time>
      </trkpt>
      <trkpt lat="43.62277" lon="3.76174">
        <ele>125.4</ele>
        <time>2011-05-29T07:06:45Z</time>
      </trkpt>
      <trkpt lat="43.62278" lon="3.76183">
        <ele>125.5</ele>
        <time>2011-05-29T07:06:47Z</time>
      </trkpt>
      <trkpt lat="43.62277" lon="3.76193">
        <ele>125.6</ele>
        <time>2011-05-29T07:06:49Z</time>
      </trkpt>
      <trkpt lat="43.62276" lon="3.76203">
        <ele>125.6</ele>
        <time>2011-05-29T07:06:51Z</time>
      </trkpt>
      <trkpt lat="43.62276" lon="3.76214">
        <ele>125.8</ele>
        <time>2011-05-29T07:06:54Z</time>
      </trkpt>
      <trkpt lat="43.62279" lon="3.76224">
        <ele>126.1</ele>
        <time>2011-05-29T07:06:59Z</time>
      </trkpt>
      <trkpt lat="43.62288" lon="3.76227">
        <ele>126.4</ele>
        <time>2011-05-29T07:07:03Z</time>
      </trkpt>
      <trkpt lat="43.62295" lon="3.76229">
        <ele>126.6</ele>
        <time>2011-05-29T07:07:06Z</time>
      </trkpt>
      <trkpt lat="43.62303" lon="3.7623">
        <ele>126.8</ele>
        <time>2011-05-29T07:07:09Z</time>
      </trkpt>
      <trkpt lat="43.6231" lon="3.76231">
        <ele>127</ele>
        <time>2011-05-29T07:07:12Z</time>
      </trkpt>
      <trkpt lat="43.62319" lon="3.7623">
        <ele>127.3</ele>
        <time>2011-05-29T07:07:16Z</time>
      </trkpt>
      <trkpt lat="43.62327" lon="3.76226">
        <ele>127.6</ele>
        <time>2011-05-29T07:07:20Z</time>
      </trkpt>
      <trkpt lat="43.62333" lon="3.76218">
        <ele>128.1</ele>
        <time>2011-05-29T07:07:23Z</time>
      </trkpt>
      <trkpt lat="43.62338" lon="3.76214">
        <ele>128.4</ele>
        <time>2011-05-29T07:07:25Z</time>
      </trkpt>
      <trkpt lat="43.62341" lon="3.76212">
        <ele>128.5</ele>
        <time>2011-05-29T07:07:26Z</time>
      </trkpt>
      <trkpt lat="43.6235" lon="3.76209">
        <ele>128.7</ele>
        <time>2011-05-29T07:07:29Z</time>
      </trkpt>
      <trkpt lat="43.62356" lon="3.76207">
        <ele>128.8</ele>
        <time>2011-05-29T07:07:31Z</time>
      </trkpt>
      <trkpt lat="43.62363" lon="3.76206">
        <ele>128.9</ele>
        <time>2011-05-29T07:07:33Z</time>
      </trkpt>
      <trkpt lat="43.62369" lon="3.76203">
        <ele>129.2</ele>
        <time>2011-05-29T07:07:35Z</time>
      </trkpt>
      <trkpt lat="43.62377" lon="3.76199">
        <ele>129.5</ele>
        <time>2011-05-29T07:07:38Z</time>
      </trkpt>
      <trkpt lat="43.62383" lon="3.7619">
        <ele>130</ele>
        <time>2011-05-29T07:07:41Z</time>
      </trkpt>
      <trkpt lat="43.62387" lon="3.76182">
        <ele>130.5</ele>
        <time>2011-05-29T07:07:44Z</time>
      </trkpt>
      <trkpt lat="43.62392" lon="3.76174">
        <ele>131</ele>
        <time>2011-05-29T07:07:47Z</time>
      </trkpt>
      <trkpt lat="43.62397" lon="3.76165">
        <ele>131.6</ele>
        <time>2011-05-29T07:07:50Z</time>
      </trkpt>
      <trkpt lat="43.62401" lon="3.76156">
        <ele>132.1</ele>
        <time>2011-05-29T07:07:53Z</time>
      </trkpt>
      <trkpt lat="43.62409" lon="3.76152">
        <ele>132.5</ele>
        <time>2011-05-29T07:07:57Z</time>
      </trkpt>
      <trkpt lat="43.62416" lon="3.76156">
        <ele>132.5</ele>
        <time>2011-05-29T07:08:00Z</time>
      </trkpt>
      <trkpt lat="43.62423" lon="3.76158">
        <ele>132.3</ele>
        <time>2011-05-29T07:08:02Z</time>
      </trkpt>
      <trkpt lat="43.6243" lon="3.76161">
        <ele>132.1</ele>
        <time>2011-05-29T07:08:04Z</time>
      </trkpt>
      <trkpt lat="43.62437" lon="3.76167">
        <ele>131.8</ele>
        <time>2011-05-29T07:08:06Z</time>
      </trkpt>
      <trkpt lat="43.62442" lon="3.76171">
        <ele>131.5</ele>
        <time>2011-05-29T07:08:07Z</time>
      </trkpt>
      <trkpt lat="43.62446" lon="3.76175">
        <ele>131.2</ele>
        <time>2011-05-29T07:08:08Z</time>
      </trkpt>
      <trkpt lat="43.6245" lon="3.76181">
        <ele>130.9</ele>
        <time>2011-05-29T07:08:09Z</time>
      </trkpt>
      <trkpt lat="43.62453" lon="3.76188">
        <ele>130.5</ele>
        <time>2011-05-29T07:08:10Z</time>
      </trkpt>
      <trkpt lat="43.62456" lon="3.76195">
        <ele>130.1</ele>
        <time>2011-05-29T07:08:11Z</time>
      </trkpt>
      <trkpt lat="43.62458" lon="3.76203">
        <ele>129.7</ele>
        <time>2011-05-29T07:08:12Z</time>
      </trkpt>
      <trkpt lat="43.62461" lon="3.76212">
        <ele>129.3</ele>
        <time>2011-05-29T07:08:13Z</time>
      </trkpt>
      <trkpt lat="43.62462" lon="3.7622">
        <ele>128.9</ele>
        <time>2011-05-29T07:08:14Z</time>
      </trkpt>
      <trkpt lat="43.62465" lon="3.76228">
        <ele>128.6</ele>
        <time>2011-05-29T07:08:15Z</time>
      </trkpt>
      <trkpt lat="43.62468" lon="3.76236">
        <ele>128.3</ele>
        <time>2011-05-29T07:08:16Z</time>
      </trkpt>
      <trkpt lat="43.62471" lon="3.76242">
        <ele>128</ele>
        <time>2011-05-29T07:08:17Z</time>
      </trkpt>
      <trkpt lat="43.62477" lon="3.7625">
        <ele>127.7</ele>
        <time>2011-05-29T07:08:19Z</time>
      </trkpt>
      <trkpt lat="43.62483" lon="3.76247">
        <ele>127.9</ele>
        <time>2011-05-29T07:08:22Z</time>
      </trkpt>
      <trkpt lat="43.62488" lon="3.76241">
        <ele>128.2</ele>
        <time>2011-05-29T07:08:24Z</time>
      </trkpt>
      <trkpt lat="43.62495" lon="3.76235">
        <ele>128.5</ele>
        <time>2011-05-29T07:08:27Z</time>
      </trkpt>
      <trkpt lat="43.62498" lon="3.76234">
        <ele>128.6</ele>
        <time>2011-05-29T07:08:28Z</time>
      </trkpt>
      <trkpt lat="43.6251" lon="3.76224">
        <ele>128.9</ele>
        <time>2011-05-29T07:08:33Z</time>
      </trkpt>
      <trkpt lat="43.62516" lon="3.76218">
        <ele>129.1</ele>
        <time>2011-05-29T07:08:36Z</time>
      </trkpt>
      <trkpt lat="43.62521" lon="3.76213">
        <ele>129.2</ele>
        <time>2011-05-29T07:08:38Z</time>
      </trkpt>
      <trkpt lat="43.62527" lon="3.76208">
        <ele>129.3</ele>
        <time>2011-05-29T07:08:40Z</time>
      </trkpt>
      <trkpt lat="43.62533" lon="3.76203">
        <ele>129.5</ele>
        <time>2011-05-29T07:08:42Z</time>
      </trkpt>
      <trkpt lat="43.62539" lon="3.76199">
        <ele>129.6</ele>
        <time>2011-05-29T07:08:44Z</time>
      </trkpt>
      <trkpt lat="43.62546" lon="3.76195">
        <ele>129.6</ele>
        <time>2011-05-29T07:08:46Z</time>
      </trkpt>
      <trkpt lat="43.62552" lon="3.7619">
        <ele>129.7</ele>
        <time>2011-05-29T07:08:48Z</time>
      </trkpt>
      <trkpt lat="43.62558" lon="3.76185">
        <ele>129.8</ele>
        <time>2011-05-29T07:08:50Z</time>
      </trkpt>
      <trkpt lat="43.62565" lon="3.7618">
        <ele>129.9</ele>
        <time>2011-05-29T07:08:52Z</time>
      </trkpt>
      <trkpt lat="43.62572" lon="3.76174">
        <ele>130</ele>
        <time>2011-05-29T07:08:54Z</time>
      </trkpt>
      <trkpt lat="43.62579" lon="3.76168">
        <ele>130</ele>
        <time>2011-05-29T07:08:56Z</time>
      </trkpt>
      <trkpt lat="43.62586" lon="3.76164">
        <ele>130.2</ele>
        <time>2011-05-29T07:08:58Z</time>
      </trkpt>
      <trkpt lat="43.62593" lon="3.76159">
        <ele>130.7</ele>
        <time>2011-05-29T07:09:00Z</time>
      </trkpt>
      <trkpt lat="43.62599" lon="3.76153">
        <ele>131.2</ele>
        <time>2011-05-29T07:09:02Z</time>
      </trkpt>
      <trkpt lat="43.62605" lon="3.76148">
        <ele>131.6</ele>
        <time>2011-05-29T07:09:04Z</time>
      </trkpt>
      <trkpt lat="43.62611" lon="3.7614">
        <ele>132.1</ele>
        <time>2011-05-29T07:09:06Z</time>
      </trkpt>
      <trkpt lat="43.62615" lon="3.76137">
        <ele>132.3</ele>
        <time>2011-05-29T07:09:07Z</time>
      </trkpt>
      <trkpt lat="43.62619" lon="3.76133">
        <ele>132.5</ele>
        <time>2011-05-29T07:09:08Z</time>
      </trkpt>
      <trkpt lat="43.62624" lon="3.76122">
        <ele>132.8</ele>
        <time>2011-05-29T07:09:10Z</time>
      </trkpt>
      <trkpt lat="43.62626" lon="3.76111">
        <ele>133.2</ele>
        <time>2011-05-29T07:09:12Z</time>
      </trkpt>
      <trkpt lat="43.62629" lon="3.761">
        <ele>133.5</ele>
        <time>2011-05-29T07:09:14Z</time>
      </trkpt>
      <trkpt lat="43.62632" lon="3.76089">
        <ele>133.7</ele>
        <time>2011-05-29T07:09:16Z</time>
      </trkpt>
      <trkpt lat="43.62636" lon="3.76078">
        <ele>134.3</ele>
        <time>2011-05-29T07:09:18Z</time>
      </trkpt>
      <trkpt lat="43.62638" lon="3.76072">
        <ele>134.7</ele>
        <time>2011-05-29T07:09:19Z</time>
      </trkpt>
      <trkpt lat="43.62643" lon="3.76062">
        <ele>135.7</ele>
        <time>2011-05-29T07:09:21Z</time>
      </trkpt>
      <trkpt lat="43.62647" lon="3.76051">
        <ele>136.6</ele>
        <time>2011-05-29T07:09:23Z</time>
      </trkpt>
      <trkpt lat="43.62651" lon="3.76041">
        <ele>137.5</ele>
        <time>2011-05-29T07:09:25Z</time>
      </trkpt>
      <trkpt lat="43.62655" lon="3.76031">
        <ele>138.3</ele>
        <time>2011-05-29T07:09:27Z</time>
      </trkpt>
      <trkpt lat="43.62659" lon="3.76022">
        <ele>139.1</ele>
        <time>2011-05-29T07:09:29Z</time>
      </trkpt>
      <trkpt lat="43.62661" lon="3.76018">
        <ele>139.4</ele>
        <time>2011-05-29T07:09:30Z</time>
      </trkpt>
      <trkpt lat="43.6267" lon="3.76007">
        <ele>140.4</ele>
        <time>2011-05-29T07:09:33Z</time>
      </trkpt>
      <trkpt lat="43.62677" lon="3.76">
        <ele>141.1</ele>
        <time>2011-05-29T07:09:35Z</time>
      </trkpt>
      <trkpt lat="43.62681" lon="3.75997">
        <ele>141.3</ele>
        <time>2011-05-29T07:09:36Z</time>
      </trkpt>
      <trkpt lat="43.62688" lon="3.7599">
        <ele>141.8</ele>
        <time>2011-05-29T07:09:38Z</time>
      </trkpt>
      <trkpt lat="43.62691" lon="3.75986">
        <ele>141.9</ele>
        <time>2011-05-29T07:09:39Z</time>
      </trkpt>
      <trkpt lat="43.62695" lon="3.75982">
        <ele>142.1</ele>
        <time>2011-05-29T07:09:40Z</time>
      </trkpt>
      <trkpt lat="43.62699" lon="3.75978">
        <ele>142.3</ele>
        <time>2011-05-29T07:09:41Z</time>
      </trkpt>
      <trkpt lat="43.62703" lon="3.75974">
        <ele>142.4</ele>
        <time>2011-05-29T07:09:42Z</time>
      </trkpt>
      <trkpt lat="43.62706" lon="3.7597">
        <ele>142.5</ele>
        <time>2011-05-29T07:09:43Z</time>
      </trkpt>
      <trkpt lat="43.6271" lon="3.75965">
        <ele>142.5</ele>
        <time>2011-05-29T07:09:44Z</time>
      </trkpt>
      <trkpt lat="43.62713" lon="3.75961">
        <ele>142.6</ele>
        <time>2011-05-29T07:09:45Z</time>
      </trkpt>
      <trkpt lat="43.62716" lon="3.75956">
        <ele>142.6</ele>
        <time>2011-05-29T07:09:46Z</time>
      </trkpt>
      <trkpt lat="43.6272" lon="3.75952">
        <ele>142.5</ele>
        <time>2011-05-29T07:09:47Z</time>
      </trkpt>
      <trkpt lat="43.62724" lon="3.75948">
        <ele>142.4</ele>
        <time>2011-05-29T07:09:48Z</time>
      </trkpt>
      <trkpt lat="43.62728" lon="3.75943">
        <ele>142.3</ele>
        <time>2011-05-29T07:09:49Z</time>
      </trkpt>
      <trkpt lat="43.62731" lon="3.75939">
        <ele>142.2</ele>
        <time>2011-05-29T07:09:50Z</time>
      </trkpt>
      <trkpt lat="43.62735" lon="3.75934">
        <ele>142.1</ele>
        <time>2011-05-29T07:09:51Z</time>
      </trkpt>
      <trkpt lat="43.62738" lon="3.7593">
        <ele>141.9</ele>
        <time>2011-05-29T07:09:52Z</time>
      </trkpt>
      <trkpt lat="43.62742" lon="3.75926">
        <ele>141.6</ele>
        <time>2011-05-29T07:09:53Z</time>
      </trkpt>
      <trkpt lat="43.62745" lon="3.75921">
        <ele>141.4</ele>
        <time>2011-05-29T07:09:54Z</time>
      </trkpt>
      <trkpt lat="43.62749" lon="3.75917">
        <ele>141.1</ele>
        <time>2011-05-29T07:09:55Z</time>
      </trkpt>
      <trkpt lat="43.62753" lon="3.75912">
        <ele>141.2</ele>
        <time>2011-05-29T07:09:56Z</time>
      </trkpt>
      <trkpt lat="43.62756" lon="3.75907">
        <ele>141.4</ele>
        <time>2011-05-29T07:09:57Z</time>
      </trkpt>
      <trkpt lat="43.62761" lon="3.75897">
        <ele>141.7</ele>
        <time>2011-05-29T07:09:59Z</time>
      </trkpt>
      <trkpt lat="43.62765" lon="3.75886">
        <ele>141.9</ele>
        <time>2011-05-29T07:10:02Z</time>
      </trkpt>
      <trkpt lat="43.62772" lon="3.75883">
        <ele>142.1</ele>
        <time>2011-05-29T07:10:09Z</time>
      </trkpt>
      <trkpt lat="43.6278" lon="3.75884">
        <ele>142.3</ele>
        <time>2011-05-29T07:10:12Z</time>
      </trkpt>
      <trkpt lat="43.62786" lon="3.75884">
        <ele>142.5</ele>
        <time>2011-05-29T07:10:14Z</time>
      </trkpt>
      <trkpt lat="43.62793" lon="3.75881">
        <ele>142.7</ele>
        <time>2011-05-29T07:10:17Z</time>
      </trkpt>
      <trkpt lat="43.62799" lon="3.75875">
        <ele>142.7</ele>
        <time>2011-05-29T07:10:19Z</time>
      </trkpt>
      <trkpt lat="43.62804" lon="3.75869">
        <ele>142.6</ele>
        <time>2011-05-29T07:10:21Z</time>
      </trkpt>
      <trkpt lat="43.62811" lon="3.75862">
        <ele>142.4</ele>
        <time>2011-05-29T07:10:23Z</time>
      </trkpt>
      <trkpt lat="43.62818" lon="3.75855">
        <ele>142.2</ele>
        <time>2011-05-29T07:10:25Z</time>
      </trkpt>
      <trkpt lat="43.62825" lon="3.7585">
        <ele>142</ele>
        <time>2011-05-29T07:10:27Z</time>
      </trkpt>
      <trkpt lat="43.62829" lon="3.75847">
        <ele>141.8</ele>
        <time>2011-05-29T07:10:28Z</time>
      </trkpt>
      <trkpt lat="43.62836" lon="3.75839">
        <ele>141.4</ele>
        <time>2011-05-29T07:10:30Z</time>
      </trkpt>
      <trkpt lat="43.6284" lon="3.75835">
        <ele>141.1</ele>
        <time>2011-05-29T07:10:31Z</time>
      </trkpt>
      <trkpt lat="43.62842" lon="3.7583">
        <ele>141.2</ele>
        <time>2011-05-29T07:10:32Z</time>
      </trkpt>
      <trkpt lat="43.62844" lon="3.75824">
        <ele>141.4</ele>
        <time>2011-05-29T07:10:33Z</time>
      </trkpt>
      <trkpt lat="43.62846" lon="3.75818">
        <ele>141.5</ele>
        <time>2011-05-29T07:10:34Z</time>
      </trkpt>
      <trkpt lat="43.62846" lon="3.75812">
        <ele>141.7</ele>
        <time>2011-05-29T07:10:35Z</time>
      </trkpt>
      <trkpt lat="43.62847" lon="3.75799">
        <ele>141.9</ele>
        <time>2011-05-29T07:10:37Z</time>
      </trkpt>
      <trkpt lat="43.62848" lon="3.75788">
        <ele>142.2</ele>
        <time>2011-05-29T07:10:39Z</time>
      </trkpt>
      <trkpt lat="43.62851" lon="3.75778">
        <ele>142.2</ele>
        <time>2011-05-29T07:10:41Z</time>
      </trkpt>
      <trkpt lat="43.62854" lon="3.75768">
        <ele>142.2</ele>
        <time>2011-05-29T07:10:43Z</time>
      </trkpt>
      <trkpt lat="43.62859" lon="3.75758">
        <ele>142.1</ele>
        <time>2011-05-29T07:10:45Z</time>
      </trkpt>
      <trkpt lat="43.62862" lon="3.75747">
        <ele>142</ele>
        <time>2011-05-29T07:10:47Z</time>
      </trkpt>
      <trkpt lat="43.62866" lon="3.75737">
        <ele>141.8</ele>
        <time>2011-05-29T07:10:49Z</time>
      </trkpt>
      <trkpt lat="43.62869" lon="3.75727">
        <ele>141.6</ele>
        <time>2011-05-29T07:10:51Z</time>
      </trkpt>
      <trkpt lat="43.62873" lon="3.75717">
        <ele>141.4</ele>
        <time>2011-05-29T07:10:53Z</time>
      </trkpt>
      <trkpt lat="43.62878" lon="3.75707">
        <ele>141.1</ele>
        <time>2011-05-29T07:10:55Z</time>
      </trkpt>
      <trkpt lat="43.62883" lon="3.75697">
        <ele>140.7</ele>
        <time>2011-05-29T07:10:57Z</time>
      </trkpt>
      <trkpt lat="43.62889" lon="3.75688">
        <ele>140.3</ele>
        <time>2011-05-29T07:10:59Z</time>
      </trkpt>
      <trkpt lat="43.62892" lon="3.75684">
        <ele>140</ele>
        <time>2011-05-29T07:11:00Z</time>
      </trkpt>
      <trkpt lat="43.62896" lon="3.75681">
        <ele>139.7</ele>
        <time>2011-05-29T07:11:01Z</time>
      </trkpt>
      <trkpt lat="43.629" lon="3.75677">
        <ele>139.4</ele>
        <time>2011-05-29T07:11:02Z</time>
      </trkpt>
      <trkpt lat="43.62907" lon="3.75671">
        <ele>138.8</ele>
        <time>2011-05-29T07:11:04Z</time>
      </trkpt>
      <trkpt lat="43.62912" lon="3.75665">
        <ele>138.5</ele>
        <time>2011-05-29T07:11:06Z</time>
      </trkpt>
      <trkpt lat="43.62919" lon="3.75662">
        <ele>138.3</ele>
        <time>2011-05-29T07:11:08Z</time>
      </trkpt>
      <trkpt lat="43.62927" lon="3.75661">
        <ele>138.6</ele>
        <time>2011-05-29T07:11:10Z</time>
      </trkpt>
      <trkpt lat="43.62936" lon="3.7566">
        <ele>139</ele>
        <time>2011-05-29T07:11:12Z</time>
      </trkpt>
      <trkpt lat="43.62944" lon="3.75658">
        <ele>139.4</ele>
        <time>2011-05-29T07:11:14Z</time>
      </trkpt>
      <trkpt lat="43.62952" lon="3.75656">
        <ele>139.7</ele>
        <time>2011-05-29T07:11:16Z</time>
      </trkpt>
      <trkpt lat="43.62954" lon="3.75645">
        <ele>140.3</ele>
        <time>2011-05-29T07:11:19Z</time>
      </trkpt>
      <trkpt lat="43.62953" lon="3.75636">
        <ele>140.6</ele>
        <time>2011-05-29T07:11:21Z</time>
      </trkpt>
      <trkpt lat="43.62953" lon="3.75626">
        <ele>141.1</ele>
        <time>2011-05-29T07:11:23Z</time>
      </trkpt>
      <trkpt lat="43.62953" lon="3.75615">
        <ele>141.5</ele>
        <time>2011-05-29T07:11:25Z</time>
      </trkpt>
      <trkpt lat="43.62953" lon="3.75605">
        <ele>142</ele>
        <time>2011-05-29T07:11:27Z</time>
      </trkpt>
      <trkpt lat="43.62953" lon="3.75593">
        <ele>142.4</ele>
        <time>2011-05-29T07:11:29Z</time>
      </trkpt>
      <trkpt lat="43.62953" lon="3.75583">
        <ele>142.9</ele>
        <time>2011-05-29T07:11:31Z</time>
      </trkpt>
      <trkpt lat="43.62953" lon="3.75577">
        <ele>143</ele>
        <time>2011-05-29T07:11:32Z</time>
      </trkpt>
      <trkpt lat="43.62952" lon="3.75562">
        <ele>143.5</ele>
        <time>2011-05-29T07:11:35Z</time>
      </trkpt>
      <trkpt lat="43.62951" lon="3.75551">
        <ele>143.8</ele>
        <time>2011-05-29T07:11:37Z</time>
      </trkpt>
      <trkpt lat="43.6295" lon="3.75539">
        <ele>144.1</ele>
        <time>2011-05-29T07:11:39Z</time>
      </trkpt>
      <trkpt lat="43.62949" lon="3.75528">
        <ele>144.3</ele>
        <time>2011-05-29T07:11:41Z</time>
      </trkpt>
      <trkpt lat="43.62947" lon="3.75517">
        <ele>144.6</ele>
        <time>2011-05-29T07:11:43Z</time>
      </trkpt>
      <trkpt lat="43.62946" lon="3.75505">
        <ele>144.9</ele>
        <time>2011-05-29T07:11:45Z</time>
      </trkpt>
      <trkpt lat="43.62945" lon="3.75494">
        <ele>145.1</ele>
        <time>2011-05-29T07:11:47Z</time>
      </trkpt>
      <trkpt lat="43.62945" lon="3.75483">
        <ele>145.3</ele>
        <time>2011-05-29T07:11:49Z</time>
      </trkpt>
      <trkpt lat="43.62944" lon="3.75473">
        <ele>145.4</ele>
        <time>2011-05-29T07:11:51Z</time>
      </trkpt>
      <trkpt lat="43.62944" lon="3.75462">
        <ele>145.6</ele>
        <time>2011-05-29T07:11:53Z</time>
      </trkpt>
      <trkpt lat="43.62943" lon="3.75452">
        <ele>145.7</ele>
        <time>2011-05-29T07:11:55Z</time>
      </trkpt>
      <trkpt lat="43.62943" lon="3.75441">
        <ele>145.9</ele>
        <time>2011-05-29T07:11:57Z</time>
      </trkpt>
      <trkpt lat="43.62942" lon="3.75431">
        <ele>146</ele>
        <time>2011-05-29T07:11:59Z</time>
      </trkpt>
      <trkpt lat="43.62942" lon="3.7542">
        <ele>146.2</ele>
        <time>2011-05-29T07:12:01Z</time>
      </trkpt>
      <trkpt lat="43.62941" lon="3.7541">
        <ele>146.2</ele>
        <time>2011-05-29T07:12:03Z</time>
      </trkpt>
      <trkpt lat="43.62941" lon="3.754">
        <ele>146.2</ele>
        <time>2011-05-29T07:12:05Z</time>
      </trkpt>
      <trkpt lat="43.62941" lon="3.75389">
        <ele>146.2</ele>
        <time>2011-05-29T07:12:07Z</time>
      </trkpt>
      <trkpt lat="43.62941" lon="3.75378">
        <ele>146.2</ele>
        <time>2011-05-29T07:12:09Z</time>
      </trkpt>
      <trkpt lat="43.62941" lon="3.75368">
        <ele>146.2</ele>
        <time>2011-05-29T07:12:11Z</time>
      </trkpt>
      <trkpt lat="43.62941" lon="3.75357">
        <ele>146.2</ele>
        <time>2011-05-29T07:12:13Z</time>
      </trkpt>
      <trkpt lat="43.62941" lon="3.75346">
        <ele>146.2</ele>
        <time>2011-05-29T07:12:15Z</time>
      </trkpt>
      <trkpt lat="43.62941" lon="3.75335">
        <ele>146.2</ele>
        <time>2011-05-29T07:12:17Z</time>
      </trkpt>
      <trkpt lat="43.62942" lon="3.75324">
        <ele>146.3</ele>
        <time>2011-05-29T07:12:19Z</time>
      </trkpt>
      <trkpt lat="43.62944" lon="3.75314">
        <ele>146.4</ele>
        <time>2011-05-29T07:12:21Z</time>
      </trkpt>
      <trkpt lat="43.62944" lon="3.75304">
        <ele>146.6</ele>
        <time>2011-05-29T07:12:23Z</time>
      </trkpt>
      <trkpt lat="43.62944" lon="3.75293">
        <ele>146.6</ele>
        <time>2011-05-29T07:12:25Z</time>
      </trkpt>
      <trkpt lat="43.62943" lon="3.75282">
        <ele>146.7</ele>
        <time>2011-05-29T07:12:27Z</time>
      </trkpt>
      <trkpt lat="43.62943" lon="3.75271">
        <ele>146.8</ele>
        <time>2011-05-29T07:12:29Z</time>
      </trkpt>
      <trkpt lat="43.62942" lon="3.7526">
        <ele>146.8</ele>
        <time>2011-05-29T07:12:31Z</time>
      </trkpt>
      <trkpt lat="43.6294" lon="3.75248">
        <ele>146.8</ele>
        <time>2011-05-29T07:12:33Z</time>
      </trkpt>
      <trkpt lat="43.6294" lon="3.75242">
        <ele>146.8</ele>
        <time>2011-05-29T07:12:34Z</time>
      </trkpt>
      <trkpt lat="43.62939" lon="3.75225">
        <ele>146.7</ele>
        <time>2011-05-29T07:12:37Z</time>
      </trkpt>
      <trkpt lat="43.62939" lon="3.75214">
        <ele>146.6</ele>
        <time>2011-05-29T07:12:39Z</time>
      </trkpt>
      <trkpt lat="43.62938" lon="3.75203">
        <ele>146.5</ele>
        <time>2011-05-29T07:12:41Z</time>
      </trkpt>
      <trkpt lat="43.62938" lon="3.75192">
        <ele>146.4</ele>
        <time>2011-05-29T07:12:43Z</time>
      </trkpt>
      <trkpt lat="43.62939" lon="3.75181">
        <ele>146.4</ele>
        <time>2011-05-29T07:12:45Z</time>
      </trkpt>
      <trkpt lat="43.6294" lon="3.75171">
        <ele>146.3</ele>
        <time>2011-05-29T07:12:47Z</time>
      </trkpt>
      <trkpt lat="43.62941" lon="3.75161">
        <ele>146.4</ele>
        <time>2011-05-29T07:12:49Z</time>
      </trkpt>
      <trkpt lat="43.62942" lon="3.75152">
        <ele>146.7</ele>
        <time>2011-05-29T07:12:51Z</time>
      </trkpt>
      <trkpt lat="43.62942" lon="3.75142">
        <ele>146.9</ele>
        <time>2011-05-29T07:12:53Z</time>
      </trkpt>
      <trkpt lat="43.62941" lon="3.75132">
        <ele>147.1</ele>
        <time>2011-05-29T07:12:55Z</time>
      </trkpt>
      <trkpt lat="43.62941" lon="3.75122">
        <ele>147.4</ele>
        <time>2011-05-29T07:12:57Z</time>
      </trkpt>
      <trkpt lat="43.62942" lon="3.75111">
        <ele>147.6</ele>
        <time>2011-05-29T07:12:59Z</time>
      </trkpt>
      <trkpt lat="43.62943" lon="3.75101">
        <ele>147.9</ele>
        <time>2011-05-29T07:13:01Z</time>
      </trkpt>
      <trkpt lat="43.62943" lon="3.75091">
        <ele>148.1</ele>
        <time>2011-05-29T07:13:03Z</time>
      </trkpt>
      <trkpt lat="43.62943" lon="3.75081">
        <ele>148.4</ele>
        <time>2011-05-29T07:13:05Z</time>
      </trkpt>
      <trkpt lat="43.62944" lon="3.75071">
        <ele>148.8</ele>
        <time>2011-05-29T07:13:07Z</time>
      </trkpt>
      <trkpt lat="43.62945" lon="3.75062">
        <ele>149.2</ele>
        <time>2011-05-29T07:13:09Z</time>
      </trkpt>
      <trkpt lat="43.62947" lon="3.75053">
        <ele>149.5</ele>
        <time>2011-05-29T07:13:11Z</time>
      </trkpt>
      <trkpt lat="43.62949" lon="3.75044">
        <ele>149.9</ele>
        <time>2011-05-29T07:13:13Z</time>
      </trkpt>
      <trkpt lat="43.62951" lon="3.75035">
        <ele>150.2</ele>
        <time>2011-05-29T07:13:15Z</time>
      </trkpt>
      <trkpt lat="43.62953" lon="3.75026">
        <ele>150.6</ele>
        <time>2011-05-29T07:13:17Z</time>
      </trkpt>
      <trkpt lat="43.62955" lon="3.75017">
        <ele>150.9</ele>
        <time>2011-05-29T07:13:19Z</time>
      </trkpt>
      <trkpt lat="43.62959" lon="3.75008">
        <ele>151.2</ele>
        <time>2011-05-29T07:13:21Z</time>
      </trkpt>
      <trkpt lat="43.62965" lon="3.75002">
        <ele>151.4</ele>
        <time>2011-05-29T07:13:23Z</time>
      </trkpt>
      <trkpt lat="43.62973" lon="3.74999">
        <ele>151.3</ele>
        <time>2011-05-29T07:13:25Z</time>
      </trkpt>
      <trkpt lat="43.62981" lon="3.74997">
        <ele>151.1</ele>
        <time>2011-05-29T07:13:27Z</time>
      </trkpt>
      <trkpt lat="43.62989" lon="3.74996">
        <ele>151</ele>
        <time>2011-05-29T07:13:29Z</time>
      </trkpt>
      <trkpt lat="43.62996" lon="3.74993">
        <ele>150.8</ele>
        <time>2011-05-29T07:13:31Z</time>
      </trkpt>
      <trkpt lat="43.63003" lon="3.74989">
        <ele>150.7</ele>
        <time>2011-05-29T07:13:33Z</time>
      </trkpt>
      <trkpt lat="43.6301" lon="3.74985">
        <ele>150.7</ele>
        <time>2011-05-29T07:13:36Z</time>
      </trkpt>
      <trkpt lat="43.63013" lon="3.74983">
        <ele>150.7</ele>
        <time>2011-05-29T07:13:37Z</time>
      </trkpt>
      <trkpt lat="43.63023" lon="3.74975">
        <ele>150.8</ele>
        <time>2011-05-29T07:13:41Z</time>
      </trkpt>
      <trkpt lat="43.63028" lon="3.7497">
        <ele>150.9</ele>
        <time>2011-05-29T07:13:43Z</time>
      </trkpt>
      <trkpt lat="43.63033" lon="3.74964">
        <ele>150.9</ele>
        <time>2011-05-29T07:13:45Z</time>
      </trkpt>
      <trkpt lat="43.63038" lon="3.74957">
        <ele>151.1</ele>
        <time>2011-05-29T07:13:47Z</time>
      </trkpt>
      <trkpt lat="43.63043" lon="3.7495">
        <ele>151.2</ele>
        <time>2011-05-29T07:13:49Z</time>
      </trkpt>
      <trkpt lat="43.63048" lon="3.74942">
        <ele>151.5</ele>
        <time>2011-05-29T07:13:51Z</time>
      </trkpt>
      <trkpt lat="43.63052" lon="3.74935">
        <ele>151.7</ele>
        <time>2011-05-29T07:13:53Z</time>
      </trkpt>
      <trkpt lat="43.63056" lon="3.74928">
        <ele>152</ele>
        <time>2011-05-29T07:13:55Z</time>
      </trkpt>
      <trkpt lat="43.6306" lon="3.7492">
        <ele>152.3</ele>
        <time>2011-05-29T07:13:57Z</time>
      </trkpt>
      <trkpt lat="43.63063" lon="3.74911">
        <ele>152.2</ele>
        <time>2011-05-29T07:13:59Z</time>
      </trkpt>
      <trkpt lat="43.63066" lon="3.74903">
        <ele>151.9</ele>
        <time>2011-05-29T07:14:01Z</time>
      </trkpt>
      <trkpt lat="43.6307" lon="3.74894">
        <ele>151.7</ele>
        <time>2011-05-29T07:14:03Z</time>
      </trkpt>
      <trkpt lat="43.63075" lon="3.74886">
        <ele>151.7</ele>
        <time>2011-05-29T07:14:05Z</time>
      </trkpt>
      <trkpt lat="43.6308" lon="3.74878">
        <ele>151.8</ele>
        <time>2011-05-29T07:14:07Z</time>
      </trkpt>
      <trkpt lat="43.63085" lon="3.74872">
        <ele>151.9</ele>
        <time>2011-05-29T07:14:09Z</time>
      </trkpt>
      <trkpt lat="43.63091" lon="3.74865">
        <ele>151.8</ele>
        <time>2011-05-29T07:14:11Z</time>
      </trkpt>
      <trkpt lat="43.63096" lon="3.74857">
        <ele>151.8</ele>
        <time>2011-05-29T07:14:13Z</time>
      </trkpt>
      <trkpt lat="43.63102" lon="3.7485">
        <ele>151.8</ele>
        <time>2011-05-29T07:14:15Z</time>
      </trkpt>
      <trkpt lat="43.63108" lon="3.74843">
        <ele>151.8</ele>
        <time>2011-05-29T07:14:17Z</time>
      </trkpt>
      <trkpt lat="43.63113" lon="3.74835">
        <ele>151.9</ele>
        <time>2011-05-29T07:14:19Z</time>
      </trkpt>
      <trkpt lat="43.63117" lon="3.74826">
        <ele>151.9</ele>
        <time>2011-05-29T07:14:21Z</time>
      </trkpt>
      <trkpt lat="43.6312" lon="3.74816">
        <ele>151.9</ele>
        <time>2011-05-29T07:14:23Z</time>
      </trkpt>
      <trkpt lat="43.63123" lon="3.74806">
        <ele>151.9</ele>
        <time>2011-05-29T07:14:25Z</time>
      </trkpt>
      <trkpt lat="43.63128" lon="3.74797">
        <ele>152</ele>
        <time>2011-05-29T07:14:27Z</time>
      </trkpt>
      <trkpt lat="43.63135" lon="3.74791">
        <ele>152.4</ele>
        <time>2011-05-29T07:14:29Z</time>
      </trkpt>
      <trkpt lat="43.63141" lon="3.74786">
        <ele>152.7</ele>
        <time>2011-05-29T07:14:31Z</time>
      </trkpt>
      <trkpt lat="43.63148" lon="3.7478">
        <ele>153.1</ele>
        <time>2011-05-29T07:14:33Z</time>
      </trkpt>
      <trkpt lat="43.63155" lon="3.74776">
        <ele>153.5</ele>
        <time>2011-05-29T07:14:35Z</time>
      </trkpt>
      <trkpt lat="43.63161" lon="3.74771">
        <ele>153.9</ele>
        <time>2011-05-29T07:14:37Z</time>
      </trkpt>
      <trkpt lat="43.63165" lon="3.74769">
        <ele>154.1</ele>
        <time>2011-05-29T07:14:38Z</time>
      </trkpt>
      <trkpt lat="43.63175" lon="3.74762">
        <ele>154.1</ele>
        <time>2011-05-29T07:14:41Z</time>
      </trkpt>
      <trkpt lat="43.63182" lon="3.74757">
        <ele>154.1</ele>
        <time>2011-05-29T07:14:43Z</time>
      </trkpt>
      <trkpt lat="43.63189" lon="3.74753">
        <ele>154</ele>
        <time>2011-05-29T07:14:45Z</time>
      </trkpt>
      <trkpt lat="43.63195" lon="3.74748">
        <ele>154</ele>
        <time>2011-05-29T07:14:47Z</time>
      </trkpt>
      <trkpt lat="43.63201" lon="3.74744">
        <ele>153.9</ele>
        <time>2011-05-29T07:14:49Z</time>
      </trkpt>
      <trkpt lat="43.63207" lon="3.74739">
        <ele>153.8</ele>
        <time>2011-05-29T07:14:51Z</time>
      </trkpt>
      <trkpt lat="43.63212" lon="3.74734">
        <ele>153.7</ele>
        <time>2011-05-29T07:14:53Z</time>
      </trkpt>
      <trkpt lat="43.63216" lon="3.74726">
        <ele>153.6</ele>
        <time>2011-05-29T07:14:55Z</time>
      </trkpt>
      <trkpt lat="43.63215" lon="3.74716">
        <ele>153.5</ele>
        <time>2011-05-29T07:14:57Z</time>
      </trkpt>
      <trkpt lat="43.63212" lon="3.74705">
        <ele>153.3</ele>
        <time>2011-05-29T07:14:59Z</time>
      </trkpt>
      <trkpt lat="43.63209" lon="3.74694">
        <ele>153</ele>
        <time>2011-05-29T07:15:01Z</time>
      </trkpt>
      <trkpt lat="43.63207" lon="3.74689">
        <ele>152.9</ele>
        <time>2011-05-29T07:15:02Z</time>
      </trkpt>
      <trkpt lat="43.63204" lon="3.74677">
        <ele>152.5</ele>
        <time>2011-05-29T07:15:04Z</time>
      </trkpt>
      <trkpt lat="43.63209" lon="3.74667">
        <ele>152.5</ele>
        <time>2011-05-29T07:15:07Z</time>
      </trkpt>
      <trkpt lat="43.63217" lon="3.74671">
        <ele>152.9</ele>
        <time>2011-05-29T07:15:10Z</time>
      </trkpt>
      <trkpt lat="43.63223" lon="3.74675">
        <ele>153.1</ele>
        <time>2011-05-29T07:15:12Z</time>
      </trkpt>
      <trkpt lat="43.63228" lon="3.74679">
        <ele>153.3</ele>
        <time>2011-05-29T07:15:14Z</time>
      </trkpt>
      <trkpt lat="43.63234" lon="3.74684">
        <ele>153.6</ele>
        <time>2011-05-29T07:15:16Z</time>
      </trkpt>
      <trkpt lat="43.63241" lon="3.74688">
        <ele>153.7</ele>
        <time>2011-05-29T07:15:18Z</time>
      </trkpt>
      <trkpt lat="43.63247" lon="3.74692">
        <ele>153.9</ele>
        <time>2011-05-29T07:15:20Z</time>
      </trkpt>
      <trkpt lat="43.63253" lon="3.74696">
        <ele>154.2</ele>
        <time>2011-05-29T07:15:22Z</time>
      </trkpt>
      <trkpt lat="43.6326" lon="3.747">
        <ele>154.5</ele>
        <time>2011-05-29T07:15:24Z</time>
      </trkpt>
      <trkpt lat="43.63266" lon="3.74704">
        <ele>154.8</ele>
        <time>2011-05-29T07:15:26Z</time>
      </trkpt>
      <trkpt lat="43.63272" lon="3.74708">
        <ele>155.1</ele>
        <time>2011-05-29T07:15:28Z</time>
      </trkpt>
      <trkpt lat="43.63278" lon="3.74712">
        <ele>155.3</ele>
        <time>2011-05-29T07:15:30Z</time>
      </trkpt>
      <trkpt lat="43.63284" lon="3.74716">
        <ele>155.6</ele>
        <time>2011-05-29T07:15:32Z</time>
      </trkpt>
      <trkpt lat="43.63291" lon="3.7472">
        <ele>155.8</ele>
        <time>2011-05-29T07:15:34Z</time>
      </trkpt>
      <trkpt lat="43.63297" lon="3.74724">
        <ele>156.1</ele>
        <time>2011-05-29T07:15:36Z</time>
      </trkpt>
      <trkpt lat="43.63304" lon="3.74729">
        <ele>156.3</ele>
        <time>2011-05-29T07:15:38Z</time>
      </trkpt>
      <trkpt lat="43.63308" lon="3.74731">
        <ele>156.4</ele>
        <time>2011-05-29T07:15:39Z</time>
      </trkpt>
      <trkpt lat="43.63319" lon="3.74739">
        <ele>156.7</ele>
        <time>2011-05-29T07:15:42Z</time>
      </trkpt>
      <trkpt lat="43.63327" lon="3.74744">
        <ele>156.9</ele>
        <time>2011-05-29T07:15:44Z</time>
      </trkpt>
      <trkpt lat="43.63335" lon="3.7475">
        <ele>157.1</ele>
        <time>2011-05-29T07:15:46Z</time>
      </trkpt>
      <trkpt lat="43.63343" lon="3.74755">
        <ele>157.3</ele>
        <time>2011-05-29T07:15:48Z</time>
      </trkpt>
      <trkpt lat="43.63347" lon="3.74758">
        <ele>157.3</ele>
        <time>2011-05-29T07:15:49Z</time>
      </trkpt>
      <trkpt lat="43.63355" lon="3.74764">
        <ele>157.5</ele>
        <time>2011-05-29T07:15:51Z</time>
      </trkpt>
      <trkpt lat="43.63359" lon="3.74766">
        <ele>157.5</ele>
        <time>2011-05-29T07:15:52Z</time>
      </trkpt>
      <trkpt lat="43.63363" lon="3.74769">
        <ele>157.6</ele>
        <time>2011-05-29T07:15:53Z</time>
      </trkpt>
      <trkpt lat="43.63368" lon="3.74772">
        <ele>157.6</ele>
        <time>2011-05-29T07:15:54Z</time>
      </trkpt>
      <trkpt lat="43.63372" lon="3.74774">
        <ele>157.7</ele>
        <time>2011-05-29T07:15:55Z</time>
      </trkpt>
      <trkpt lat="43.63376" lon="3.74777">
        <ele>157.7</ele>
        <time>2011-05-29T07:15:56Z</time>
      </trkpt>
      <trkpt lat="43.6338" lon="3.7478">
        <ele>157.8</ele>
        <time>2011-05-29T07:15:57Z</time>
      </trkpt>
      <trkpt lat="43.63384" lon="3.74783">
        <ele>157.8</ele>
        <time>2011-05-29T07:15:58Z</time>
      </trkpt>
      <trkpt lat="43.63388" lon="3.74785">
        <ele>157.8</ele>
        <time>2011-05-29T07:15:59Z</time>
      </trkpt>
      <trkpt lat="43.63392" lon="3.74788">
        <ele>157.8</ele>
        <time>2011-05-29T07:16:00Z</time>
      </trkpt>
      <trkpt lat="43.63397" lon="3.74791">
        <ele>157.8</ele>
        <time>2011-05-29T07:16:01Z</time>
      </trkpt>
      <trkpt lat="43.63401" lon="3.74793">
        <ele>157.8</ele>
        <time>2011-05-29T07:16:02Z</time>
      </trkpt>
      <trkpt lat="43.63405" lon="3.74796">
        <ele>157.8</ele>
        <time>2011-05-29T07:16:03Z</time>
      </trkpt>
      <trkpt lat="43.6341" lon="3.74799">
        <ele>157.8</ele>
        <time>2011-05-29T07:16:04Z</time>
      </trkpt>
      <trkpt lat="43.63414" lon="3.74802">
        <ele>157.8</ele>
        <time>2011-05-29T07:16:05Z</time>
      </trkpt>
      <trkpt lat="43.63419" lon="3.74804">
        <ele>157.9</ele>
        <time>2011-05-29T07:16:06Z</time>
      </trkpt>
      <trkpt lat="43.63424" lon="3.74807">
        <ele>158.2</ele>
        <time>2011-05-29T07:16:07Z</time>
      </trkpt>
      <trkpt lat="43.63429" lon="3.7481">
        <ele>158.4</ele>
        <time>2011-05-29T07:16:08Z</time>
      </trkpt>
      <trkpt lat="43.63433" lon="3.74814">
        <ele>158.6</ele>
        <time>2011-05-29T07:16:09Z</time>
      </trkpt>
      <trkpt lat="43.63438" lon="3.74817">
        <ele>158.8</ele>
        <time>2011-05-29T07:16:10Z</time>
      </trkpt>
      <trkpt lat="43.63443" lon="3.7482">
        <ele>159</ele>
        <time>2011-05-29T07:16:11Z</time>
      </trkpt>
      <trkpt lat="43.63448" lon="3.74823">
        <ele>159.3</ele>
        <time>2011-05-29T07:16:12Z</time>
      </trkpt>
      <trkpt lat="43.63452" lon="3.74826">
        <ele>159.5</ele>
        <time>2011-05-29T07:16:13Z</time>
      </trkpt>
      <trkpt lat="43.63457" lon="3.74829">
        <ele>159.7</ele>
        <time>2011-05-29T07:16:14Z</time>
      </trkpt>
      <trkpt lat="43.63461" lon="3.74832">
        <ele>159.9</ele>
        <time>2011-05-29T07:16:15Z</time>
      </trkpt>
      <trkpt lat="43.63466" lon="3.74835">
        <ele>160.1</ele>
        <time>2011-05-29T07:16:16Z</time>
      </trkpt>
      <trkpt lat="43.6347" lon="3.74838">
        <ele>160.3</ele>
        <time>2011-05-29T07:16:17Z</time>
      </trkpt>
      <trkpt lat="43.63475" lon="3.74841">
        <ele>160.4</ele>
        <time>2011-05-29T07:16:18Z</time>
      </trkpt>
      <trkpt lat="43.63479" lon="3.74844">
        <ele>160.6</ele>
        <time>2011-05-29T07:16:19Z</time>
      </trkpt>
      <trkpt lat="43.63484" lon="3.74847">
        <ele>160.8</ele>
        <time>2011-05-29T07:16:20Z</time>
      </trkpt>
      <trkpt lat="43.63489" lon="3.7485">
        <ele>161.1</ele>
        <time>2011-05-29T07:16:21Z</time>
      </trkpt>
      <trkpt lat="43.63493" lon="3.74853">
        <ele>161.3</ele>
        <time>2011-05-29T07:16:22Z</time>
      </trkpt>
      <trkpt lat="43.63498" lon="3.74856">
        <ele>161.5</ele>
        <time>2011-05-29T07:16:23Z</time>
      </trkpt>
      <trkpt lat="43.63503" lon="3.74859">
        <ele>161.6</ele>
        <time>2011-05-29T07:16:24Z</time>
      </trkpt>
      <trkpt lat="43.63507" lon="3.74862">
        <ele>161.7</ele>
        <time>2011-05-29T07:16:25Z</time>
      </trkpt>
      <trkpt lat="43.63512" lon="3.74864">
        <ele>161.8</ele>
        <time>2011-05-29T07:16:26Z</time>
      </trkpt>
      <trkpt lat="43.63517" lon="3.74867">
        <ele>161.9</ele>
        <time>2011-05-29T07:16:27Z</time>
      </trkpt>
      <trkpt lat="43.63521" lon="3.7487">
        <ele>161.9</ele>
        <time>2011-05-29T07:16:28Z</time>
      </trkpt>
      <trkpt lat="43.63526" lon="3.74873">
        <ele>162</ele>
        <time>2011-05-29T07:16:29Z</time>
      </trkpt>
      <trkpt lat="43.6353" lon="3.74876">
        <ele>162.1</ele>
        <time>2011-05-29T07:16:30Z</time>
      </trkpt>
      <trkpt lat="43.63535" lon="3.74878">
        <ele>162.2</ele>
        <time>2011-05-29T07:16:31Z</time>
      </trkpt>
      <trkpt lat="43.63539" lon="3.74881">
        <ele>162.2</ele>
        <time>2011-05-29T07:16:32Z</time>
      </trkpt>
      <trkpt lat="43.63544" lon="3.74884">
        <ele>162.3</ele>
        <time>2011-05-29T07:16:33Z</time>
      </trkpt>
      <trkpt lat="43.63548" lon="3.74886">
        <ele>162.4</ele>
        <time>2011-05-29T07:16:34Z</time>
      </trkpt>
      <trkpt lat="43.63552" lon="3.74889">
        <ele>162.4</ele>
        <time>2011-05-29T07:16:35Z</time>
      </trkpt>
      <trkpt lat="43.63556" lon="3.74892">
        <ele>162.4</ele>
        <time>2011-05-29T07:16:36Z</time>
      </trkpt>
      <trkpt lat="43.63561" lon="3.74894">
        <ele>162.4</ele>
        <time>2011-05-29T07:16:37Z</time>
      </trkpt>
      <trkpt lat="43.63565" lon="3.74897">
        <ele>162.5</ele>
        <time>2011-05-29T07:16:38Z</time>
      </trkpt>
      <trkpt lat="43.63569" lon="3.749">
        <ele>162.5</ele>
        <time>2011-05-29T07:16:39Z</time>
      </trkpt>
      <trkpt lat="43.63574" lon="3.74904">
        <ele>162.5</ele>
        <time>2011-05-29T07:16:40Z</time>
      </trkpt>
      <trkpt lat="43.63578" lon="3.74907">
        <ele>162.4</ele>
        <time>2011-05-29T07:16:41Z</time>
      </trkpt>
      <trkpt lat="43.63583" lon="3.7491">
        <ele>162.4</ele>
        <time>2011-05-29T07:16:42Z</time>
      </trkpt>
      <trkpt lat="43.63587" lon="3.74913">
        <ele>162.3</ele>
        <time>2011-05-29T07:16:43Z</time>
      </trkpt>
      <trkpt lat="43.63592" lon="3.74916">
        <ele>162.1</ele>
        <time>2011-05-29T07:16:44Z</time>
      </trkpt>
      <trkpt lat="43.63597" lon="3.74919">
        <ele>162.1</ele>
        <time>2011-05-29T07:16:45Z</time>
      </trkpt>
      <trkpt lat="43.63601" lon="3.74921">
        <ele>162</ele>
        <time>2011-05-29T07:16:46Z</time>
      </trkpt>
      <trkpt lat="43.63606" lon="3.74924">
        <ele>162</ele>
        <time>2011-05-29T07:16:47Z</time>
      </trkpt>
      <trkpt lat="43.63611" lon="3.74925">
        <ele>161.9</ele>
        <time>2011-05-29T07:16:48Z</time>
      </trkpt>
      <trkpt lat="43.63616" lon="3.74927">
        <ele>161.9</ele>
        <time>2011-05-29T07:16:49Z</time>
      </trkpt>
      <trkpt lat="43.63621" lon="3.74928">
        <ele>162</ele>
        <time>2011-05-29T07:16:50Z</time>
      </trkpt>
      <trkpt lat="43.63626" lon="3.74929">
        <ele>162</ele>
        <time>2011-05-29T07:16:51Z</time>
      </trkpt>
      <trkpt lat="43.63632" lon="3.74929">
        <ele>162.1</ele>
        <time>2011-05-29T07:16:52Z</time>
      </trkpt>
      <trkpt lat="43.63637" lon="3.7493">
        <ele>162.1</ele>
        <time>2011-05-29T07:16:53Z</time>
      </trkpt>
      <trkpt lat="43.63643" lon="3.74931">
        <ele>162.2</ele>
        <time>2011-05-29T07:16:54Z</time>
      </trkpt>
      <trkpt lat="43.63649" lon="3.74931">
        <ele>162.2</ele>
        <time>2011-05-29T07:16:55Z</time>
      </trkpt>
      <trkpt lat="43.63655" lon="3.74932">
        <ele>162.3</ele>
        <time>2011-05-29T07:16:56Z</time>
      </trkpt>
      <trkpt lat="43.6366" lon="3.74932">
        <ele>162.4</ele>
        <time>2011-05-29T07:16:57Z</time>
      </trkpt>
      <trkpt lat="43.63666" lon="3.74932">
        <ele>162.4</ele>
        <time>2011-05-29T07:16:58Z</time>
      </trkpt>
      <trkpt lat="43.63672" lon="3.74933">
        <ele>162.3</ele>
        <time>2011-05-29T07:16:59Z</time>
      </trkpt>
      <trkpt lat="43.63677" lon="3.74934">
        <ele>162.2</ele>
        <time>2011-05-29T07:17:00Z</time>
      </trkpt>
      <trkpt lat="43.63683" lon="3.74935">
        <ele>162.2</ele>
        <time>2011-05-29T07:17:01Z</time>
      </trkpt>
      <trkpt lat="43.63689" lon="3.74935">
        <ele>162.1</ele>
        <time>2011-05-29T07:17:02Z</time>
      </trkpt>
      <trkpt lat="43.63694" lon="3.74936">
        <ele>162</ele>
        <time>2011-05-29T07:17:03Z</time>
      </trkpt>
      <trkpt lat="43.637" lon="3.74936">
        <ele>161.9</ele>
        <time>2011-05-29T07:17:04Z</time>
      </trkpt>
      <trkpt lat="43.63706" lon="3.74937">
        <ele>161.8</ele>
        <time>2011-05-29T07:17:05Z</time>
      </trkpt>
      <trkpt lat="43.63713" lon="3.74937">
        <ele>161.7</ele>
        <time>2011-05-29T07:17:06Z</time>
      </trkpt>
      <trkpt lat="43.63719" lon="3.74938">
        <ele>161.6</ele>
        <time>2011-05-29T07:17:07Z</time>
      </trkpt>
      <trkpt lat="43.63726" lon="3.74938">
        <ele>161.5</ele>
        <time>2011-05-29T07:17:08Z</time>
      </trkpt>
      <trkpt lat="43.63734" lon="3.74938">
        <ele>161.4</ele>
        <time>2011-05-29T07:17:09Z</time>
      </trkpt>
      <trkpt lat="43.63741" lon="3.74939">
        <ele>161.3</ele>
        <time>2011-05-29T07:17:10Z</time>
      </trkpt>
      <trkpt lat="43.63749" lon="3.74939">
        <ele>161.2</ele>
        <time>2011-05-29T07:17:11Z</time>
      </trkpt>
      <trkpt lat="43.63757" lon="3.74939">
        <ele>161.3</ele>
        <time>2011-05-29T07:17:12Z</time>
      </trkpt>
      <trkpt lat="43.63765" lon="3.74939">
        <ele>161.5</ele>
        <time>2011-05-29T07:17:13Z</time>
      </trkpt>
      <trkpt lat="43.63772" lon="3.7494">
        <ele>161.6</ele>
        <time>2011-05-29T07:17:14Z</time>
      </trkpt>
      <trkpt lat="43.6378" lon="3.7494">
        <ele>161.8</ele>
        <time>2011-05-29T07:17:15Z</time>
      </trkpt>
      <trkpt lat="43.63787" lon="3.74941">
        <ele>161.9</ele>
        <time>2011-05-29T07:17:16Z</time>
      </trkpt>
      <trkpt lat="43.63794" lon="3.74942">
        <ele>162</ele>
        <time>2011-05-29T07:17:17Z</time>
      </trkpt>
      <trkpt lat="43.63802" lon="3.74943">
        <ele>162.1</ele>
        <time>2011-05-29T07:17:18Z</time>
      </trkpt>
      <trkpt lat="43.63808" lon="3.74944">
        <ele>162.2</ele>
        <time>2011-05-29T07:17:19Z</time>
      </trkpt>
      <trkpt lat="43.63815" lon="3.74945">
        <ele>162.3</ele>
        <time>2011-05-29T07:17:20Z</time>
      </trkpt>
      <trkpt lat="43.63822" lon="3.74946">
        <ele>162.4</ele>
        <time>2011-05-29T07:17:21Z</time>
      </trkpt>
      <trkpt lat="43.63828" lon="3.74948">
        <ele>162.4</ele>
        <time>2011-05-29T07:17:22Z</time>
      </trkpt>
      <trkpt lat="43.63834" lon="3.74949">
        <ele>162.4</ele>
        <time>2011-05-29T07:17:23Z</time>
      </trkpt>
      <trkpt lat="43.63842" lon="3.7495">
        <ele>161.9</ele>
        <time>2011-05-29T07:17:25Z</time>
      </trkpt>
      <trkpt lat="43.63849" lon="3.74952">
        <ele>161.4</ele>
        <time>2011-05-29T07:17:28Z</time>
      </trkpt>
      <trkpt lat="43.63856" lon="3.74955">
        <ele>160.9</ele>
        <time>2011-05-29T07:17:31Z</time>
      </trkpt>
      <trkpt lat="43.63864" lon="3.74957">
        <ele>160.4</ele>
        <time>2011-05-29T07:17:34Z</time>
      </trkpt>
      <trkpt lat="43.6387" lon="3.74957">
        <ele>160</ele>
        <time>2011-05-29T07:17:36Z</time>
      </trkpt>
      <trkpt lat="43.63878" lon="3.74958">
        <ele>159.6</ele>
        <time>2011-05-29T07:17:38Z</time>
      </trkpt>
      <trkpt lat="43.63887" lon="3.74959">
        <ele>159.1</ele>
        <time>2011-05-29T07:17:40Z</time>
      </trkpt>
      <trkpt lat="43.6389" lon="3.7496">
        <ele>158.9</ele>
        <time>2011-05-29T07:17:41Z</time>
      </trkpt>
      <trkpt lat="43.63901" lon="3.7495">
        <ele>158.5</ele>
        <time>2011-05-29T07:17:47Z</time>
      </trkpt>
      <trkpt lat="43.63909" lon="3.74945">
        <ele>158.1</ele>
        <time>2011-05-29T07:17:50Z</time>
      </trkpt>
      <trkpt lat="43.63914" lon="3.74937">
        <ele>157.9</ele>
        <time>2011-05-29T07:17:52Z</time>
      </trkpt>
      <trkpt lat="43.63917" lon="3.74932">
        <ele>157.8</ele>
        <time>2011-05-29T07:17:53Z</time>
      </trkpt>
      <trkpt lat="43.6392" lon="3.74927">
        <ele>157.7</ele>
        <time>2011-05-29T07:17:54Z</time>
      </trkpt>
      <trkpt lat="43.63923" lon="3.74921">
        <ele>157.6</ele>
        <time>2011-05-29T07:17:55Z</time>
      </trkpt>
      <trkpt lat="43.63926" lon="3.74915">
        <ele>157.4</ele>
        <time>2011-05-29T07:17:56Z</time>
      </trkpt>
      <trkpt lat="43.6393" lon="3.74909">
        <ele>157.2</ele>
        <time>2011-05-29T07:17:57Z</time>
      </trkpt>
      <trkpt lat="43.63933" lon="3.74903">
        <ele>157</ele>
        <time>2011-05-29T07:17:58Z</time>
      </trkpt>
      <trkpt lat="43.63937" lon="3.74897">
        <ele>156.7</ele>
        <time>2011-05-29T07:17:59Z</time>
      </trkpt>
      <trkpt lat="43.6394" lon="3.7489">
        <ele>156.5</ele>
        <time>2011-05-29T07:18:00Z</time>
      </trkpt>
      <trkpt lat="43.63944" lon="3.74883">
        <ele>156.2</ele>
        <time>2011-05-29T07:18:01Z</time>
      </trkpt>
      <trkpt lat="43.63947" lon="3.74876">
        <ele>156</ele>
        <time>2011-05-29T07:18:02Z</time>
      </trkpt>
      <trkpt lat="43.6395" lon="3.74869">
        <ele>155.8</ele>
        <time>2011-05-29T07:18:03Z</time>
      </trkpt>
      <trkpt lat="43.63954" lon="3.74862">
        <ele>155.5</ele>
        <time>2011-05-29T07:18:04Z</time>
      </trkpt>
      <trkpt lat="43.63957" lon="3.74854">
        <ele>155.2</ele>
        <time>2011-05-29T07:18:05Z</time>
      </trkpt>
      <trkpt lat="43.6396" lon="3.74846">
        <ele>155</ele>
        <time>2011-05-29T07:18:06Z</time>
      </trkpt>
      <trkpt lat="43.63962" lon="3.74838">
        <ele>154.8</ele>
        <time>2011-05-29T07:18:07Z</time>
      </trkpt>
      <trkpt lat="43.63962" lon="3.74829">
        <ele>154.7</ele>
        <time>2011-05-29T07:18:08Z</time>
      </trkpt>
      <trkpt lat="43.63962" lon="3.7482">
        <ele>154.7</ele>
        <time>2011-05-29T07:18:09Z</time>
      </trkpt>
      <trkpt lat="43.63961" lon="3.74811">
        <ele>154.7</ele>
        <time>2011-05-29T07:18:10Z</time>
      </trkpt>
      <trkpt lat="43.6396" lon="3.74803">
        <ele>154.7</ele>
        <time>2011-05-29T07:18:11Z</time>
      </trkpt>
      <trkpt lat="43.63959" lon="3.74795">
        <ele>154.7</ele>
        <time>2011-05-29T07:18:12Z</time>
      </trkpt>
      <trkpt lat="43.63958" lon="3.74787">
        <ele>154.8</ele>
        <time>2011-05-29T07:18:13Z</time>
      </trkpt>
      <trkpt lat="43.63957" lon="3.74779">
        <ele>154.7</ele>
        <time>2011-05-29T07:18:14Z</time>
      </trkpt>
      <trkpt lat="43.63956" lon="3.74771">
        <ele>154.8</ele>
        <time>2011-05-29T07:18:15Z</time>
      </trkpt>
      <trkpt lat="43.63955" lon="3.74764">
        <ele>154.8</ele>
        <time>2011-05-29T07:18:16Z</time>
      </trkpt>
      <trkpt lat="43.63954" lon="3.74756">
        <ele>154.8</ele>
        <time>2011-05-29T07:18:17Z</time>
      </trkpt>
      <trkpt lat="43.63953" lon="3.74749">
        <ele>154.8</ele>
        <time>2011-05-29T07:18:18Z</time>
      </trkpt>
      <trkpt lat="43.63951" lon="3.74741">
        <ele>154.8</ele>
        <time>2011-05-29T07:18:19Z</time>
      </trkpt>
      <trkpt lat="43.63949" lon="3.74734">
        <ele>154.8</ele>
        <time>2011-05-29T07:18:20Z</time>
      </trkpt>
      <trkpt lat="43.63947" lon="3.74727">
        <ele>154.8</ele>
        <time>2011-05-29T07:18:21Z</time>
      </trkpt>
      <trkpt lat="43.63946" lon="3.7472">
        <ele>154.7</ele>
        <time>2011-05-29T07:18:22Z</time>
      </trkpt>
      <trkpt lat="43.63945" lon="3.74712">
        <ele>154.7</ele>
        <time>2011-05-29T07:18:23Z</time>
      </trkpt>
      <trkpt lat="43.63945" lon="3.74704">
        <ele>154.6</ele>
        <time>2011-05-29T07:18:24Z</time>
      </trkpt>
      <trkpt lat="43.63944" lon="3.74696">
        <ele>154.5</ele>
        <time>2011-05-29T07:18:25Z</time>
      </trkpt>
      <trkpt lat="43.63944" lon="3.74689">
        <ele>154.4</ele>
        <time>2011-05-29T07:18:26Z</time>
      </trkpt>
      <trkpt lat="43.63943" lon="3.74681">
        <ele>154.3</ele>
        <time>2011-05-29T07:18:27Z</time>
      </trkpt>
      <trkpt lat="43.63942" lon="3.74673">
        <ele>154.3</ele>
        <time>2011-05-29T07:18:28Z</time>
      </trkpt>
      <trkpt lat="43.63941" lon="3.74666">
        <ele>154.3</ele>
        <time>2011-05-29T07:18:29Z</time>
      </trkpt>
      <trkpt lat="43.63939" lon="3.7466">
        <ele>154.4</ele>
        <time>2011-05-29T07:18:30Z</time>
      </trkpt>
      <trkpt lat="43.63937" lon="3.74648">
        <ele>154.5</ele>
        <time>2011-05-29T07:18:32Z</time>
      </trkpt>
      <trkpt lat="43.63936" lon="3.74637">
        <ele>154.5</ele>
        <time>2011-05-29T07:18:34Z</time>
      </trkpt>
      <trkpt lat="43.63934" lon="3.74625">
        <ele>154.6</ele>
        <time>2011-05-29T07:18:36Z</time>
      </trkpt>
      <trkpt lat="43.63933" lon="3.74619">
        <ele>154.6</ele>
        <time>2011-05-29T07:18:37Z</time>
      </trkpt>
      <trkpt lat="43.63932" lon="3.74612">
        <ele>154.6</ele>
        <time>2011-05-29T07:18:38Z</time>
      </trkpt>
      <trkpt lat="43.63931" lon="3.74605">
        <ele>154.6</ele>
        <time>2011-05-29T07:18:39Z</time>
      </trkpt>
      <trkpt lat="43.6393" lon="3.74598">
        <ele>154.6</ele>
        <time>2011-05-29T07:18:40Z</time>
      </trkpt>
      <trkpt lat="43.63928" lon="3.74592">
        <ele>154.6</ele>
        <time>2011-05-29T07:18:41Z</time>
      </trkpt>
      <trkpt lat="43.63927" lon="3.74585">
        <ele>154.6</ele>
        <time>2011-05-29T07:18:42Z</time>
      </trkpt>
      <trkpt lat="43.63926" lon="3.74578">
        <ele>154.6</ele>
        <time>2011-05-29T07:18:43Z</time>
      </trkpt>
      <trkpt lat="43.63924" lon="3.74571">
        <ele>154.5</ele>
        <time>2011-05-29T07:18:44Z</time>
      </trkpt>
      <trkpt lat="43.63922" lon="3.74565">
        <ele>154.4</ele>
        <time>2011-05-29T07:18:45Z</time>
      </trkpt>
      <trkpt lat="43.6392" lon="3.74558">
        <ele>154.3</ele>
        <time>2011-05-29T07:18:46Z</time>
      </trkpt>
      <trkpt lat="43.63919" lon="3.74551">
        <ele>154.2</ele>
        <time>2011-05-29T07:18:47Z</time>
      </trkpt>
      <trkpt lat="43.63917" lon="3.74544">
        <ele>154.1</ele>
        <time>2011-05-29T07:18:48Z</time>
      </trkpt>
      <trkpt lat="43.63915" lon="3.74538">
        <ele>154</ele>
        <time>2011-05-29T07:18:49Z</time>
      </trkpt>
      <trkpt lat="43.63914" lon="3.74531">
        <ele>153.9</ele>
        <time>2011-05-29T07:18:50Z</time>
      </trkpt>
      <trkpt lat="43.63913" lon="3.74524">
        <ele>153.8</ele>
        <time>2011-05-29T07:18:51Z</time>
      </trkpt>
      <trkpt lat="43.63912" lon="3.74517">
        <ele>153.7</ele>
        <time>2011-05-29T07:18:52Z</time>
      </trkpt>
      <trkpt lat="43.6391" lon="3.74509">
        <ele>153.5</ele>
        <time>2011-05-29T07:18:53Z</time>
      </trkpt>
      <trkpt lat="43.6391" lon="3.74502">
        <ele>153.4</ele>
        <time>2011-05-29T07:18:54Z</time>
      </trkpt>
      <trkpt lat="43.63909" lon="3.74495">
        <ele>153.5</ele>
        <time>2011-05-29T07:18:55Z</time>
      </trkpt>
      <trkpt lat="43.63908" lon="3.74487">
        <ele>153.7</ele>
        <time>2011-05-29T07:18:56Z</time>
      </trkpt>
      <trkpt lat="43.63908" lon="3.7448">
        <ele>153.9</ele>
        <time>2011-05-29T07:18:57Z</time>
      </trkpt>
      <trkpt lat="43.63907" lon="3.74473">
        <ele>154</ele>
        <time>2011-05-29T07:18:58Z</time>
      </trkpt>
      <trkpt lat="43.63907" lon="3.74465">
        <ele>154.2</ele>
        <time>2011-05-29T07:18:59Z</time>
      </trkpt>
      <trkpt lat="43.63906" lon="3.74458">
        <ele>154.4</ele>
        <time>2011-05-29T07:19:00Z</time>
      </trkpt>
      <trkpt lat="43.63906" lon="3.74451">
        <ele>154.5</ele>
        <time>2011-05-29T07:19:01Z</time>
      </trkpt>
      <trkpt lat="43.63906" lon="3.74443">
        <ele>154.7</ele>
        <time>2011-05-29T07:19:02Z</time>
      </trkpt>
      <trkpt lat="43.63907" lon="3.74436">
        <ele>154.8</ele>
        <time>2011-05-29T07:19:03Z</time>
      </trkpt>
      <trkpt lat="43.63907" lon="3.74429">
        <ele>155</ele>
        <time>2011-05-29T07:19:04Z</time>
      </trkpt>
      <trkpt lat="43.63908" lon="3.74422">
        <ele>155.1</ele>
        <time>2011-05-29T07:19:05Z</time>
      </trkpt>
      <trkpt lat="43.63908" lon="3.74415">
        <ele>155.2</ele>
        <time>2011-05-29T07:19:06Z</time>
      </trkpt>
      <trkpt lat="43.63908" lon="3.74409">
        <ele>155.2</ele>
        <time>2011-05-29T07:19:07Z</time>
      </trkpt>
      <trkpt lat="43.63908" lon="3.74402">
        <ele>155.3</ele>
        <time>2011-05-29T07:19:08Z</time>
      </trkpt>
      <trkpt lat="43.63907" lon="3.7439">
        <ele>155.3</ele>
        <time>2011-05-29T07:19:10Z</time>
      </trkpt>
      <trkpt lat="43.63905" lon="3.7438">
        <ele>155.5</ele>
        <time>2011-05-29T07:19:12Z</time>
      </trkpt>
      <trkpt lat="43.63901" lon="3.74369">
        <ele>155.7</ele>
        <time>2011-05-29T07:19:15Z</time>
      </trkpt>
      <trkpt lat="43.63894" lon="3.74368">
        <ele>156</ele>
        <time>2011-05-29T07:19:18Z</time>
      </trkpt>
      <trkpt lat="43.63885" lon="3.74372">
        <ele>156.4</ele>
        <time>2011-05-29T07:19:21Z</time>
      </trkpt>
      <trkpt lat="43.63877" lon="3.74375">
        <ele>156.7</ele>
        <time>2011-05-29T07:19:24Z</time>
      </trkpt>
      <trkpt lat="43.63872" lon="3.74381">
        <ele>156.8</ele>
        <time>2011-05-29T07:19:26Z</time>
      </trkpt>
      <trkpt lat="43.63866" lon="3.74387">
        <ele>156.9</ele>
        <time>2011-05-29T07:19:28Z</time>
      </trkpt>
      <trkpt lat="43.63858" lon="3.7439">
        <ele>157.1</ele>
        <time>2011-05-29T07:19:30Z</time>
      </trkpt>
      <trkpt lat="43.63851" lon="3.74391">
        <ele>157.3</ele>
        <time>2011-05-29T07:19:32Z</time>
      </trkpt>
      <trkpt lat="43.63843" lon="3.74392">
        <ele>157.6</ele>
        <time>2011-05-29T07:19:34Z</time>
      </trkpt>
      <trkpt lat="43.63836" lon="3.74391">
        <ele>157.8</ele>
        <time>2011-05-29T07:19:36Z</time>
      </trkpt>
      <trkpt lat="43.63828" lon="3.74392">
        <ele>158.5</ele>
        <time>2011-05-29T07:19:38Z</time>
      </trkpt>
      <trkpt lat="43.63821" lon="3.74392">
        <ele>159.2</ele>
        <time>2011-05-29T07:19:40Z</time>
      </trkpt>
      <trkpt lat="43.63813" lon="3.74393">
        <ele>160</ele>
        <time>2011-05-29T07:19:42Z</time>
      </trkpt>
      <trkpt lat="43.63809" lon="3.74393">
        <ele>160.4</ele>
        <time>2011-05-29T07:19:43Z</time>
      </trkpt>
      <trkpt lat="43.63798" lon="3.74394">
        <ele>161.6</ele>
        <time>2011-05-29T07:19:46Z</time>
      </trkpt>
      <trkpt lat="43.63791" lon="3.74395">
        <ele>162.4</ele>
        <time>2011-05-29T07:19:48Z</time>
      </trkpt>
      <trkpt lat="43.63783" lon="3.74395">
        <ele>163.2</ele>
        <time>2011-05-29T07:19:50Z</time>
      </trkpt>
      <trkpt lat="43.63776" lon="3.74395">
        <ele>164</ele>
        <time>2011-05-29T07:19:52Z</time>
      </trkpt>
      <trkpt lat="43.63769" lon="3.74395">
        <ele>164.8</ele>
        <time>2011-05-29T07:19:54Z</time>
      </trkpt>
      <trkpt lat="43.63763" lon="3.74391">
        <ele>165.4</ele>
        <time>2011-05-29T07:19:56Z</time>
      </trkpt>
      <trkpt lat="43.63758" lon="3.74382">
        <ele>165.8</ele>
        <time>2011-05-29T07:19:59Z</time>
      </trkpt>
      <trkpt lat="43.63755" lon="3.74374">
        <ele>166</ele>
        <time>2011-05-29T07:20:01Z</time>
      </trkpt>
      <trkpt lat="43.63752" lon="3.74365">
        <ele>166.2</ele>
        <time>2011-05-29T07:20:03Z</time>
      </trkpt>
      <trkpt lat="43.6375" lon="3.7436">
        <ele>166.3</ele>
        <time>2011-05-29T07:20:04Z</time>
      </trkpt>
      <trkpt lat="43.63749" lon="3.74353">
        <ele>166.4</ele>
        <time>2011-05-29T07:20:05Z</time>
      </trkpt>
      <trkpt lat="43.63748" lon="3.74346">
        <ele>166.4</ele>
        <time>2011-05-29T07:20:06Z</time>
      </trkpt>
      <trkpt lat="43.63749" lon="3.74337">
        <ele>166.2</ele>
        <time>2011-05-29T07:20:07Z</time>
      </trkpt>
      <trkpt lat="43.6375" lon="3.74328">
        <ele>165.9</ele>
        <time>2011-05-29T07:20:08Z</time>
      </trkpt>
      <trkpt lat="43.6375" lon="3.74318">
        <ele>165.5</ele>
        <time>2011-05-29T07:20:09Z</time>
      </trkpt>
      <trkpt lat="43.63749" lon="3.74309">
        <ele>165.2</ele>
        <time>2011-05-29T07:20:10Z</time>
      </trkpt>
      <trkpt lat="43.63749" lon="3.74299">
        <ele>165</ele>
        <time>2011-05-29T07:20:11Z</time>
      </trkpt>
      <trkpt lat="43.63748" lon="3.74292">
        <ele>164.8</ele>
        <time>2011-05-29T07:20:12Z</time>
      </trkpt>
      <trkpt lat="43.63746" lon="3.74285">
        <ele>164.8</ele>
        <time>2011-05-29T07:20:13Z</time>
      </trkpt>
      <trkpt lat="43.63741" lon="3.74276">
        <ele>165.1</ele>
        <time>2011-05-29T07:20:15Z</time>
      </trkpt>
      <trkpt lat="43.63737" lon="3.74269">
        <ele>165.4</ele>
        <time>2011-05-29T07:20:17Z</time>
      </trkpt>
      <trkpt lat="43.63733" lon="3.74262">
        <ele>165.7</ele>
        <time>2011-05-29T07:20:19Z</time>
      </trkpt>
      <trkpt lat="43.63732" lon="3.74253">
        <ele>165.5</ele>
        <time>2011-05-29T07:20:21Z</time>
      </trkpt>
      <trkpt lat="43.63732" lon="3.74247">
        <ele>165.3</ele>
        <time>2011-05-29T07:20:22Z</time>
      </trkpt>
      <trkpt lat="43.63732" lon="3.7424">
        <ele>165</ele>
        <time>2011-05-29T07:20:23Z</time>
      </trkpt>
      <trkpt lat="43.6373" lon="3.74232">
        <ele>164.9</ele>
        <time>2011-05-29T07:20:24Z</time>
      </trkpt>
      <trkpt lat="43.63728" lon="3.74224">
        <ele>164.9</ele>
        <time>2011-05-29T07:20:25Z</time>
      </trkpt>
      <trkpt lat="43.63725" lon="3.74215">
        <ele>165</ele>
        <time>2011-05-29T07:20:26Z</time>
      </trkpt>
      <trkpt lat="43.63721" lon="3.74207">
        <ele>165.3</ele>
        <time>2011-05-29T07:20:27Z</time>
      </trkpt>
      <trkpt lat="43.63717" lon="3.742">
        <ele>165.7</ele>
        <time>2011-05-29T07:20:28Z</time>
      </trkpt>
      <trkpt lat="43.63714" lon="3.74191">
        <ele>165.8</ele>
        <time>2011-05-29T07:20:29Z</time>
      </trkpt>
      <trkpt lat="43.63713" lon="3.74184">
        <ele>165.8</ele>
        <time>2011-05-29T07:20:30Z</time>
      </trkpt>
      <trkpt lat="43.63711" lon="3.74177">
        <ele>165.9</ele>
        <time>2011-05-29T07:20:31Z</time>
      </trkpt>
      <trkpt lat="43.63711" lon="3.74171">
        <ele>165.7</ele>
        <time>2011-05-29T07:20:32Z</time>
      </trkpt>
      <trkpt lat="43.63711" lon="3.74164">
        <ele>165.6</ele>
        <time>2011-05-29T07:20:33Z</time>
      </trkpt>
      <trkpt lat="43.6371" lon="3.74158">
        <ele>165.5</ele>
        <time>2011-05-29T07:20:34Z</time>
      </trkpt>
      <trkpt lat="43.63711" lon="3.74152">
        <ele>165.3</ele>
        <time>2011-05-29T07:20:35Z</time>
      </trkpt>
      <trkpt lat="43.63713" lon="3.74145">
        <ele>164.8</ele>
        <time>2011-05-29T07:20:36Z</time>
      </trkpt>
      <trkpt lat="43.63715" lon="3.74138">
        <ele>164.2</ele>
        <time>2011-05-29T07:20:37Z</time>
      </trkpt>
      <trkpt lat="43.63716" lon="3.7413">
        <ele>164</ele>
        <time>2011-05-29T07:20:38Z</time>
      </trkpt>
      <trkpt lat="43.63716" lon="3.74123">
        <ele>163.8</ele>
        <time>2011-05-29T07:20:39Z</time>
      </trkpt>
      <trkpt lat="43.63715" lon="3.74114">
        <ele>163.8</ele>
        <time>2011-05-29T07:20:40Z</time>
      </trkpt>
      <trkpt lat="43.63714" lon="3.74104">
        <ele>163.8</ele>
        <time>2011-05-29T07:20:41Z</time>
      </trkpt>
      <trkpt lat="43.63713" lon="3.74094">
        <ele>163.8</ele>
        <time>2011-05-29T07:20:42Z</time>
      </trkpt>
      <trkpt lat="43.63712" lon="3.74083">
        <ele>163.7</ele>
        <time>2011-05-29T07:20:43Z</time>
      </trkpt>
      <trkpt lat="43.63712" lon="3.74075">
        <ele>163.9</ele>
        <time>2011-05-29T07:20:44Z</time>
      </trkpt>
      <trkpt lat="43.63711" lon="3.74064">
        <ele>164.1</ele>
        <time>2011-05-29T07:20:46Z</time>
      </trkpt>
      <trkpt lat="43.63711" lon="3.74055">
        <ele>164.4</ele>
        <time>2011-05-29T07:20:48Z</time>
      </trkpt>
      <trkpt lat="43.63712" lon="3.74044">
        <ele>164.3</ele>
        <time>2011-05-29T07:20:51Z</time>
      </trkpt>
      <trkpt lat="43.63714" lon="3.74035">
        <ele>164</ele>
        <time>2011-05-29T07:20:53Z</time>
      </trkpt>
      <trkpt lat="43.63716" lon="3.74026">
        <ele>163.7</ele>
        <time>2011-05-29T07:20:55Z</time>
      </trkpt>
      <trkpt lat="43.63716" lon="3.74016">
        <ele>163.7</ele>
        <time>2011-05-29T07:20:57Z</time>
      </trkpt>
      <trkpt lat="43.63714" lon="3.74005">
        <ele>164.3</ele>
        <time>2011-05-29T07:20:59Z</time>
      </trkpt>
      <trkpt lat="43.63711" lon="3.73994">
        <ele>164.8</ele>
        <time>2011-05-29T07:21:01Z</time>
      </trkpt>
      <trkpt lat="43.6371" lon="3.73988">
        <ele>165.1</ele>
        <time>2011-05-29T07:21:02Z</time>
      </trkpt>
      <trkpt lat="43.63709" lon="3.73982">
        <ele>165.2</ele>
        <time>2011-05-29T07:21:03Z</time>
      </trkpt>
      <trkpt lat="43.63708" lon="3.73975">
        <ele>165.3</ele>
        <time>2011-05-29T07:21:04Z</time>
      </trkpt>
      <trkpt lat="43.63707" lon="3.73969">
        <ele>165.4</ele>
        <time>2011-05-29T07:21:05Z</time>
      </trkpt>
      <trkpt lat="43.63706" lon="3.73962">
        <ele>165.4</ele>
        <time>2011-05-29T07:21:06Z</time>
      </trkpt>
      <trkpt lat="43.63706" lon="3.73955">
        <ele>165.5</ele>
        <time>2011-05-29T07:21:07Z</time>
      </trkpt>
      <trkpt lat="43.63705" lon="3.73943">
        <ele>165.5</ele>
        <time>2011-05-29T07:21:09Z</time>
      </trkpt>
      <trkpt lat="43.63705" lon="3.73932">
        <ele>165.4</ele>
        <time>2011-05-29T07:21:11Z</time>
      </trkpt>
      <trkpt lat="43.63705" lon="3.73926">
        <ele>165.3</ele>
        <time>2011-05-29T07:21:12Z</time>
      </trkpt>
      <trkpt lat="43.63705" lon="3.73919">
        <ele>165.2</ele>
        <time>2011-05-29T07:21:13Z</time>
      </trkpt>
      <trkpt lat="43.63705" lon="3.73912">
        <ele>165.4</ele>
        <time>2011-05-29T07:21:14Z</time>
      </trkpt>
      <trkpt lat="43.63705" lon="3.73904">
        <ele>165.5</ele>
        <time>2011-05-29T07:21:15Z</time>
      </trkpt>
      <trkpt lat="43.63706" lon="3.73896">
        <ele>165.4</ele>
        <time>2011-05-29T07:21:16Z</time>
      </trkpt>
      <trkpt lat="43.63707" lon="3.73888">
        <ele>165.3</ele>
        <time>2011-05-29T07:21:17Z</time>
      </trkpt>
      <trkpt lat="43.63707" lon="3.73881">
        <ele>165.4</ele>
        <time>2011-05-29T07:21:18Z</time>
      </trkpt>
      <trkpt lat="43.63706" lon="3.73874">
        <ele>165.7</ele>
        <time>2011-05-29T07:21:19Z</time>
      </trkpt>
      <trkpt lat="43.63706" lon="3.73866">
        <ele>165.9</ele>
        <time>2011-05-29T07:21:20Z</time>
      </trkpt>
      <trkpt lat="43.63705" lon="3.73857">
        <ele>166.2</ele>
        <time>2011-05-29T07:21:21Z</time>
      </trkpt>
      <trkpt lat="43.63705" lon="3.73847">
        <ele>166.6</ele>
        <time>2011-05-29T07:21:22Z</time>
      </trkpt>
      <trkpt lat="43.63703" lon="3.73837">
        <ele>167</ele>
        <time>2011-05-29T07:21:23Z</time>
      </trkpt>
      <trkpt lat="43.63702" lon="3.7383">
        <ele>167.3</ele>
        <time>2011-05-29T07:21:24Z</time>
      </trkpt>
      <trkpt lat="43.63702" lon="3.7382">
        <ele>167.3</ele>
        <time>2011-05-29T07:21:26Z</time>
      </trkpt>
      <trkpt lat="43.63702" lon="3.7381">
        <ele>167.3</ele>
        <time>2011-05-29T07:21:28Z</time>
      </trkpt>
      <trkpt lat="43.637" lon="3.73799">
        <ele>167.5</ele>
        <time>2011-05-29T07:21:30Z</time>
      </trkpt>
      <trkpt lat="43.637" lon="3.73792">
        <ele>167.6</ele>
        <time>2011-05-29T07:21:31Z</time>
      </trkpt>
      <trkpt lat="43.63699" lon="3.73785">
        <ele>167.7</ele>
        <time>2011-05-29T07:21:32Z</time>
      </trkpt>
      <trkpt lat="43.63699" lon="3.73778">
        <ele>167.7</ele>
        <time>2011-05-29T07:21:33Z</time>
      </trkpt>
      <trkpt lat="43.63699" lon="3.73771">
        <ele>167.6</ele>
        <time>2011-05-29T07:21:34Z</time>
      </trkpt>
      <trkpt lat="43.63699" lon="3.73764">
        <ele>167.5</ele>
        <time>2011-05-29T07:21:35Z</time>
      </trkpt>
      <trkpt lat="43.637" lon="3.73758">
        <ele>167.3</ele>
        <time>2011-05-29T07:21:36Z</time>
      </trkpt>
      <trkpt lat="43.637" lon="3.73751">
        <ele>167.2</ele>
        <time>2011-05-29T07:21:37Z</time>
      </trkpt>
      <trkpt lat="43.637" lon="3.73744">
        <ele>167.4</ele>
        <time>2011-05-29T07:21:38Z</time>
      </trkpt>
      <trkpt lat="43.63698" lon="3.73737">
        <ele>167.8</ele>
        <time>2011-05-29T07:21:39Z</time>
      </trkpt>
      <trkpt lat="43.63697" lon="3.73731">
        <ele>168.2</ele>
        <time>2011-05-29T07:21:40Z</time>
      </trkpt>
      <trkpt lat="43.63696" lon="3.73725">
        <ele>168.6</ele>
        <time>2011-05-29T07:21:41Z</time>
      </trkpt>
      <trkpt lat="43.63695" lon="3.73718">
        <ele>168.9</ele>
        <time>2011-05-29T07:21:42Z</time>
      </trkpt>
      <trkpt lat="43.63694" lon="3.73711">
        <ele>169.3</ele>
        <time>2011-05-29T07:21:43Z</time>
      </trkpt>
      <trkpt lat="43.63691" lon="3.73704">
        <ele>169.9</ele>
        <time>2011-05-29T07:21:44Z</time>
      </trkpt>
      <trkpt lat="43.63689" lon="3.73698">
        <ele>170.5</ele>
        <time>2011-05-29T07:21:45Z</time>
      </trkpt>
      <trkpt lat="43.63687" lon="3.73685">
        <ele>171.2</ele>
        <time>2011-05-29T07:21:49Z</time>
      </trkpt>
      <trkpt lat="43.63685" lon="3.73675">
        <ele>171.9</ele>
        <time>2011-05-29T07:21:52Z</time>
      </trkpt>
      <trkpt lat="43.63682" lon="3.73666">
        <ele>172.7</ele>
        <time>2011-05-29T07:21:55Z</time>
      </trkpt>
      <trkpt lat="43.6368" lon="3.73655">
        <ele>172.9</ele>
        <time>2011-05-29T07:21:58Z</time>
      </trkpt>
      <trkpt lat="43.63678" lon="3.73646">
        <ele>173.2</ele>
        <time>2011-05-29T07:22:00Z</time>
      </trkpt>
      <trkpt lat="43.63675" lon="3.73636">
        <ele>173.5</ele>
        <time>2011-05-29T07:22:02Z</time>
      </trkpt>
      <trkpt lat="43.63673" lon="3.73625">
        <ele>173.7</ele>
        <time>2011-05-29T07:22:04Z</time>
      </trkpt>
      <trkpt lat="43.63672" lon="3.7362">
        <ele>173.7</ele>
        <time>2011-05-29T07:22:05Z</time>
      </trkpt>
      <trkpt lat="43.63671" lon="3.73612">
        <ele>173.9</ele>
        <time>2011-05-29T07:22:06Z</time>
      </trkpt>
      <trkpt lat="43.63669" lon="3.73605">
        <ele>174</ele>
        <time>2011-05-29T07:22:07Z</time>
      </trkpt>
      <trkpt lat="43.63668" lon="3.73596">
        <ele>174.1</ele>
        <time>2011-05-29T07:22:08Z</time>
      </trkpt>
      <trkpt lat="43.63667" lon="3.73588">
        <ele>174.1</ele>
        <time>2011-05-29T07:22:09Z</time>
      </trkpt>
      <trkpt lat="43.63666" lon="3.73579">
        <ele>174</ele>
        <time>2011-05-29T07:22:10Z</time>
      </trkpt>
      <trkpt lat="43.63665" lon="3.7357">
        <ele>173.9</ele>
        <time>2011-05-29T07:22:11Z</time>
      </trkpt>
      <trkpt lat="43.63664" lon="3.73562">
        <ele>173.7</ele>
        <time>2011-05-29T07:22:12Z</time>
      </trkpt>
      <trkpt lat="43.63663" lon="3.73554">
        <ele>173.6</ele>
        <time>2011-05-29T07:22:13Z</time>
      </trkpt>
      <trkpt lat="43.63662" lon="3.73546">
        <ele>173.5</ele>
        <time>2011-05-29T07:22:14Z</time>
      </trkpt>
      <trkpt lat="43.63661" lon="3.73539">
        <ele>173.4</ele>
        <time>2011-05-29T07:22:15Z</time>
      </trkpt>
      <trkpt lat="43.63661" lon="3.73532">
        <ele>173.3</ele>
        <time>2011-05-29T07:22:16Z</time>
      </trkpt>
      <trkpt lat="43.6366" lon="3.73525">
        <ele>173.2</ele>
        <time>2011-05-29T07:22:17Z</time>
      </trkpt>
      <trkpt lat="43.63659" lon="3.73517">
        <ele>173</ele>
        <time>2011-05-29T07:22:18Z</time>
      </trkpt>
      <trkpt lat="43.63658" lon="3.7351">
        <ele>173</ele>
        <time>2011-05-29T07:22:19Z</time>
      </trkpt>
      <trkpt lat="43.63657" lon="3.73503">
        <ele>172.9</ele>
        <time>2011-05-29T07:22:20Z</time>
      </trkpt>
      <trkpt lat="43.63656" lon="3.73495">
        <ele>172.8</ele>
        <time>2011-05-29T07:22:21Z</time>
      </trkpt>
      <trkpt lat="43.63655" lon="3.73488">
        <ele>172.8</ele>
        <time>2011-05-29T07:22:22Z</time>
      </trkpt>
      <trkpt lat="43.63654" lon="3.73479">
        <ele>172.7</ele>
        <time>2011-05-29T07:22:23Z</time>
      </trkpt>
      <trkpt lat="43.63653" lon="3.7347">
        <ele>172.6</ele>
        <time>2011-05-29T07:22:24Z</time>
      </trkpt>
      <trkpt lat="43.63652" lon="3.7346">
        <ele>172.5</ele>
        <time>2011-05-29T07:22:25Z</time>
      </trkpt>
      <trkpt lat="43.63651" lon="3.73449">
        <ele>172.4</ele>
        <time>2011-05-29T07:22:26Z</time>
      </trkpt>
      <trkpt lat="43.6365" lon="3.73439">
        <ele>172.3</ele>
        <time>2011-05-29T07:22:27Z</time>
      </trkpt>
      <trkpt lat="43.63649" lon="3.73429">
        <ele>172.2</ele>
        <time>2011-05-29T07:22:28Z</time>
      </trkpt>
      <trkpt lat="43.63649" lon="3.7342">
        <ele>172</ele>
        <time>2011-05-29T07:22:29Z</time>
      </trkpt>
      <trkpt lat="43.63648" lon="3.73411">
        <ele>171.8</ele>
        <time>2011-05-29T07:22:30Z</time>
      </trkpt>
      <trkpt lat="43.63648" lon="3.73402">
        <ele>171.5</ele>
        <time>2011-05-29T07:22:31Z</time>
      </trkpt>
      <trkpt lat="43.63647" lon="3.73394">
        <ele>171.2</ele>
        <time>2011-05-29T07:22:32Z</time>
      </trkpt>
      <trkpt lat="43.63646" lon="3.73386">
        <ele>171</ele>
        <time>2011-05-29T07:22:33Z</time>
      </trkpt>
      <trkpt lat="43.63644" lon="3.73377">
        <ele>170.8</ele>
        <time>2011-05-29T07:22:34Z</time>
      </trkpt>
      <trkpt lat="43.63641" lon="3.73368">
        <ele>170.8</ele>
        <time>2011-05-29T07:22:35Z</time>
      </trkpt>
      <trkpt lat="43.63639" lon="3.73359">
        <ele>170.7</ele>
        <time>2011-05-29T07:22:36Z</time>
      </trkpt>
      <trkpt lat="43.63636" lon="3.73348">
        <ele>170.6</ele>
        <time>2011-05-29T07:22:37Z</time>
      </trkpt>
      <trkpt lat="43.63634" lon="3.73336">
        <ele>170.5</ele>
        <time>2011-05-29T07:22:38Z</time>
      </trkpt>
      <trkpt lat="43.63633" lon="3.73325">
        <ele>170.3</ele>
        <time>2011-05-29T07:22:39Z</time>
      </trkpt>
      <trkpt lat="43.63634" lon="3.73315">
        <ele>170</ele>
        <time>2011-05-29T07:22:40Z</time>
      </trkpt>
      <trkpt lat="43.63635" lon="3.73307">
        <ele>169.7</ele>
        <time>2011-05-29T07:22:41Z</time>
      </trkpt>
      <trkpt lat="43.63637" lon="3.733">
        <ele>169.4</ele>
        <time>2011-05-29T07:22:42Z</time>
      </trkpt>
      <trkpt lat="43.63639" lon="3.73293">
        <ele>169.1</ele>
        <time>2011-05-29T07:22:43Z</time>
      </trkpt>
      <trkpt lat="43.6364" lon="3.73286">
        <ele>168.8</ele>
        <time>2011-05-29T07:22:44Z</time>
      </trkpt>
      <trkpt lat="43.63641" lon="3.73278">
        <ele>168.5</ele>
        <time>2011-05-29T07:22:45Z</time>
      </trkpt>
      <trkpt lat="43.63641" lon="3.7327">
        <ele>168.4</ele>
        <time>2011-05-29T07:22:46Z</time>
      </trkpt>
      <trkpt lat="43.63641" lon="3.73263">
        <ele>168.2</ele>
        <time>2011-05-29T07:22:47Z</time>
      </trkpt>
      <trkpt lat="43.63641" lon="3.73255">
        <ele>168.1</ele>
        <time>2011-05-29T07:22:48Z</time>
      </trkpt>
      <trkpt lat="43.63641" lon="3.73247">
        <ele>168</ele>
        <time>2011-05-29T07:22:49Z</time>
      </trkpt>
      <trkpt lat="43.6364" lon="3.73238">
        <ele>168.2</ele>
        <time>2011-05-29T07:22:50Z</time>
      </trkpt>
      <trkpt lat="43.63637" lon="3.73229">
        <ele>168.6</ele>
        <time>2011-05-29T07:22:51Z</time>
      </trkpt>
      <trkpt lat="43.63636" lon="3.7322">
        <ele>168.9</ele>
        <time>2011-05-29T07:22:52Z</time>
      </trkpt>
      <trkpt lat="43.63637" lon="3.73209">
        <ele>168.7</ele>
        <time>2011-05-29T07:22:54Z</time>
      </trkpt>
      <trkpt lat="43.63637" lon="3.73199">
        <ele>168.7</ele>
        <time>2011-05-29T07:22:57Z</time>
      </trkpt>
      <trkpt lat="43.63637" lon="3.7319">
        <ele>168.6</ele>
        <time>2011-05-29T07:23:00Z</time>
      </trkpt>
      <trkpt lat="43.63638" lon="3.73182">
        <ele>168.5</ele>
        <time>2011-05-29T07:23:02Z</time>
      </trkpt>
      <trkpt lat="43.63639" lon="3.73173">
        <ele>168.3</ele>
        <time>2011-05-29T07:23:04Z</time>
      </trkpt>
      <trkpt lat="43.6364" lon="3.73162">
        <ele>168.2</ele>
        <time>2011-05-29T07:23:06Z</time>
      </trkpt>
      <trkpt lat="43.63641" lon="3.73153">
        <ele>168.2</ele>
        <time>2011-05-29T07:23:08Z</time>
      </trkpt>
      <trkpt lat="43.63642" lon="3.73143">
        <ele>168</ele>
        <time>2011-05-29T07:23:10Z</time>
      </trkpt>
      <trkpt lat="43.63642" lon="3.73131">
        <ele>168</ele>
        <time>2011-05-29T07:23:12Z</time>
      </trkpt>
      <trkpt lat="43.63641" lon="3.7312">
        <ele>168.3</ele>
        <time>2011-05-29T07:23:14Z</time>
      </trkpt>
      <trkpt lat="43.63637" lon="3.73109">
        <ele>168.8</ele>
        <time>2011-05-29T07:23:16Z</time>
      </trkpt>
      <trkpt lat="43.63635" lon="3.73099">
        <ele>169</ele>
        <time>2011-05-29T07:23:18Z</time>
      </trkpt>
      <trkpt lat="43.63636" lon="3.73093">
        <ele>169</ele>
        <time>2011-05-29T07:23:19Z</time>
      </trkpt>
      <trkpt lat="43.63637" lon="3.73086">
        <ele>168.9</ele>
        <time>2011-05-29T07:23:20Z</time>
      </trkpt>
      <trkpt lat="43.63638" lon="3.73079">
        <ele>168.7</ele>
        <time>2011-05-29T07:23:21Z</time>
      </trkpt>
      <trkpt lat="43.63639" lon="3.73071">
        <ele>168.7</ele>
        <time>2011-05-29T07:23:22Z</time>
      </trkpt>
      <trkpt lat="43.6364" lon="3.73063">
        <ele>168.7</ele>
        <time>2011-05-29T07:23:23Z</time>
      </trkpt>
      <trkpt lat="43.63639" lon="3.73054">
        <ele>168.8</ele>
        <time>2011-05-29T07:23:24Z</time>
      </trkpt>
      <trkpt lat="43.63639" lon="3.73046">
        <ele>168.8</ele>
        <time>2011-05-29T07:23:25Z</time>
      </trkpt>
      <trkpt lat="43.63641" lon="3.73039">
        <ele>168.7</ele>
        <time>2011-05-29T07:23:26Z</time>
      </trkpt>
      <trkpt lat="43.63642" lon="3.73031">
        <ele>168.7</ele>
        <time>2011-05-29T07:23:27Z</time>
      </trkpt>
      <trkpt lat="43.63644" lon="3.73024">
        <ele>168.7</ele>
        <time>2011-05-29T07:23:28Z</time>
      </trkpt>
      <trkpt lat="43.63645" lon="3.73016">
        <ele>168.7</ele>
        <time>2011-05-29T07:23:29Z</time>
      </trkpt>
      <trkpt lat="43.63644" lon="3.73008">
        <ele>168.7</ele>
        <time>2011-05-29T07:23:30Z</time>
      </trkpt>
      <trkpt lat="43.63644" lon="3.73">
        <ele>168.8</ele>
        <time>2011-05-29T07:23:31Z</time>
      </trkpt>
      <trkpt lat="43.63645" lon="3.72992">
        <ele>168.5</ele>
        <time>2011-05-29T07:23:32Z</time>
      </trkpt>
      <trkpt lat="43.63647" lon="3.72983">
        <ele>168.3</ele>
        <time>2011-05-29T07:23:33Z</time>
      </trkpt>
      <trkpt lat="43.63648" lon="3.72973">
        <ele>168</ele>
        <time>2011-05-29T07:23:34Z</time>
      </trkpt>
      <trkpt lat="43.63648" lon="3.72964">
        <ele>167.7</ele>
        <time>2011-05-29T07:23:35Z</time>
      </trkpt>
      <trkpt lat="43.63648" lon="3.72955">
        <ele>167.5</ele>
        <time>2011-05-29T07:23:36Z</time>
      </trkpt>
      <trkpt lat="43.63648" lon="3.72945">
        <ele>167.2</ele>
        <time>2011-05-29T07:23:37Z</time>
      </trkpt>
      <trkpt lat="43.63649" lon="3.72936">
        <ele>166.9</ele>
        <time>2011-05-29T07:23:38Z</time>
      </trkpt>
      <trkpt lat="43.63651" lon="3.72927">
        <ele>166.6</ele>
        <time>2011-05-29T07:23:39Z</time>
      </trkpt>
      <trkpt lat="43.63652" lon="3.72917">
        <ele>166.4</ele>
        <time>2011-05-29T07:23:40Z</time>
      </trkpt>
      <trkpt lat="43.63653" lon="3.72907">
        <ele>166.1</ele>
        <time>2011-05-29T07:23:41Z</time>
      </trkpt>
      <trkpt lat="43.63654" lon="3.72898">
        <ele>165.7</ele>
        <time>2011-05-29T07:23:42Z</time>
      </trkpt>
      <trkpt lat="43.63656" lon="3.72888">
        <ele>165.4</ele>
        <time>2011-05-29T07:23:43Z</time>
      </trkpt>
      <trkpt lat="43.63658" lon="3.72878">
        <ele>165.1</ele>
        <time>2011-05-29T07:23:44Z</time>
      </trkpt>
      <trkpt lat="43.63659" lon="3.72868">
        <ele>164.9</ele>
        <time>2011-05-29T07:23:45Z</time>
      </trkpt>
      <trkpt lat="43.63659" lon="3.72858">
        <ele>164.6</ele>
        <time>2011-05-29T07:23:46Z</time>
      </trkpt>
      <trkpt lat="43.63658" lon="3.72848">
        <ele>164.3</ele>
        <time>2011-05-29T07:23:47Z</time>
      </trkpt>
      <trkpt lat="43.6366" lon="3.72838">
        <ele>164</ele>
        <time>2011-05-29T07:23:48Z</time>
      </trkpt>
      <trkpt lat="43.63662" lon="3.7283">
        <ele>163.9</ele>
        <time>2011-05-29T07:23:49Z</time>
      </trkpt>
      <trkpt lat="43.63663" lon="3.72821">
        <ele>163.8</ele>
        <time>2011-05-29T07:23:50Z</time>
      </trkpt>
      <trkpt lat="43.63664" lon="3.72813">
        <ele>163.7</ele>
        <time>2011-05-29T07:23:51Z</time>
      </trkpt>
      <trkpt lat="43.63665" lon="3.72805">
        <ele>163.7</ele>
        <time>2011-05-29T07:23:52Z</time>
      </trkpt>
      <trkpt lat="43.63666" lon="3.72798">
        <ele>163.6</ele>
        <time>2011-05-29T07:23:53Z</time>
      </trkpt>
      <trkpt lat="43.63668" lon="3.72792">
        <ele>163.3</ele>
        <time>2011-05-29T07:23:54Z</time>
      </trkpt>
      <trkpt lat="43.63672" lon="3.72783">
        <ele>162.7</ele>
        <time>2011-05-29T07:23:56Z</time>
      </trkpt>
      <trkpt lat="43.63674" lon="3.72771">
        <ele>162.2</ele>
        <time>2011-05-29T07:24:17Z</time>
      </trkpt>
      <trkpt lat="43.63677" lon="3.72762">
        <ele>161.7</ele>
        <time>2011-05-29T07:30:39Z</time>
      </trkpt>
      <trkpt lat="43.63678" lon="3.72759">
        <ele>161.6</ele>
        <time>2011-05-29T07:30:40Z</time>
      </trkpt>
      <trkpt lat="43.63684" lon="3.72746">
        <ele>161</ele>
        <time>2011-05-29T07:30:44Z</time>
      </trkpt>
      <trkpt lat="43.63687" lon="3.72738">
        <ele>160.9</ele>
        <time>2011-05-29T07:30:46Z</time>
      </trkpt>
      <trkpt lat="43.63691" lon="3.72729">
        <ele>160.7</ele>
        <time>2011-05-29T07:30:48Z</time>
      </trkpt>
      <trkpt lat="43.63694" lon="3.72724">
        <ele>160.5</ele>
        <time>2011-05-29T07:30:49Z</time>
      </trkpt>
      <trkpt lat="43.63697" lon="3.72718">
        <ele>160.5</ele>
        <time>2011-05-29T07:30:50Z</time>
      </trkpt>
      <trkpt lat="43.63699" lon="3.72712">
        <ele>160.5</ele>
        <time>2011-05-29T07:30:51Z</time>
      </trkpt>
      <trkpt lat="43.63701" lon="3.72707">
        <ele>160.5</ele>
        <time>2011-05-29T07:30:52Z</time>
      </trkpt>
      <trkpt lat="43.63704" lon="3.72701">
        <ele>160.4</ele>
        <time>2011-05-29T07:30:53Z</time>
      </trkpt>
      <trkpt lat="43.63707" lon="3.72696">
        <ele>160.3</ele>
        <time>2011-05-29T07:30:54Z</time>
      </trkpt>
      <trkpt lat="43.6371" lon="3.7269">
        <ele>160.3</ele>
        <time>2011-05-29T07:30:55Z</time>
      </trkpt>
      <trkpt lat="43.63712" lon="3.72684">
        <ele>160.3</ele>
        <time>2011-05-29T07:30:56Z</time>
      </trkpt>
      <trkpt lat="43.63715" lon="3.72678">
        <ele>160.2</ele>
        <time>2011-05-29T07:30:57Z</time>
      </trkpt>
      <trkpt lat="43.63718" lon="3.72672">
        <ele>160.2</ele>
        <time>2011-05-29T07:30:58Z</time>
      </trkpt>
      <trkpt lat="43.6372" lon="3.72666">
        <ele>160.3</ele>
        <time>2011-05-29T07:30:59Z</time>
      </trkpt>
      <trkpt lat="43.63722" lon="3.7266">
        <ele>160.1</ele>
        <time>2011-05-29T07:31:00Z</time>
      </trkpt>
      <trkpt lat="43.63725" lon="3.72654">
        <ele>159.9</ele>
        <time>2011-05-29T07:31:01Z</time>
      </trkpt>
      <trkpt lat="43.63728" lon="3.72648">
        <ele>159.7</ele>
        <time>2011-05-29T07:31:02Z</time>
      </trkpt>
      <trkpt lat="43.63731" lon="3.72641">
        <ele>159.6</ele>
        <time>2011-05-29T07:31:03Z</time>
      </trkpt>
      <trkpt lat="43.63734" lon="3.72635">
        <ele>159.4</ele>
        <time>2011-05-29T07:31:04Z</time>
      </trkpt>
      <trkpt lat="43.63738" lon="3.72629">
        <ele>159.2</ele>
        <time>2011-05-29T07:31:05Z</time>
      </trkpt>
      <trkpt lat="43.63742" lon="3.72623">
        <ele>158.9</ele>
        <time>2011-05-29T07:31:06Z</time>
      </trkpt>
      <trkpt lat="43.63745" lon="3.72617">
        <ele>158.7</ele>
        <time>2011-05-29T07:31:07Z</time>
      </trkpt>
      <trkpt lat="43.63748" lon="3.7261">
        <ele>158.6</ele>
        <time>2011-05-29T07:31:08Z</time>
      </trkpt>
      <trkpt lat="43.6375" lon="3.72603">
        <ele>158.5</ele>
        <time>2011-05-29T07:31:09Z</time>
      </trkpt>
      <trkpt lat="43.63753" lon="3.72596">
        <ele>158.2</ele>
        <time>2011-05-29T07:31:10Z</time>
      </trkpt>
      <trkpt lat="43.63756" lon="3.72589">
        <ele>158</ele>
        <time>2011-05-29T07:31:11Z</time>
      </trkpt>
      <trkpt lat="43.63759" lon="3.72582">
        <ele>157.6</ele>
        <time>2011-05-29T07:31:12Z</time>
      </trkpt>
      <trkpt lat="43.63763" lon="3.72575">
        <ele>157.1</ele>
        <time>2011-05-29T07:31:13Z</time>
      </trkpt>
      <trkpt lat="43.63766" lon="3.72568">
        <ele>156.7</ele>
        <time>2011-05-29T07:31:14Z</time>
      </trkpt>
      <trkpt lat="43.63769" lon="3.72561">
        <ele>156.2</ele>
        <time>2011-05-29T07:31:15Z</time>
      </trkpt>
      <trkpt lat="43.63772" lon="3.72554">
        <ele>155.9</ele>
        <time>2011-05-29T07:31:16Z</time>
      </trkpt>
      <trkpt lat="43.63775" lon="3.72547">
        <ele>155.5</ele>
        <time>2011-05-29T07:31:17Z</time>
      </trkpt>
      <trkpt lat="43.63777" lon="3.7254">
        <ele>155.3</ele>
        <time>2011-05-29T07:31:18Z</time>
      </trkpt>
      <trkpt lat="43.63777" lon="3.72533">
        <ele>155.3</ele>
        <time>2011-05-29T07:31:19Z</time>
      </trkpt>
      <trkpt lat="43.63775" lon="3.72525">
        <ele>155.5</ele>
        <time>2011-05-29T07:31:20Z</time>
      </trkpt>
      <trkpt lat="43.63774" lon="3.72518">
        <ele>155.6</ele>
        <time>2011-05-29T07:31:21Z</time>
      </trkpt>
      <trkpt lat="43.63773" lon="3.7251">
        <ele>155.8</ele>
        <time>2011-05-29T07:31:22Z</time>
      </trkpt>
      <trkpt lat="43.63773" lon="3.72502">
        <ele>155.8</ele>
        <time>2011-05-29T07:31:23Z</time>
      </trkpt>
      <trkpt lat="43.63773" lon="3.72494">
        <ele>155.8</ele>
        <time>2011-05-29T07:31:24Z</time>
      </trkpt>
      <trkpt lat="43.63773" lon="3.72486">
        <ele>155.6</ele>
        <time>2011-05-29T07:31:25Z</time>
      </trkpt>
      <trkpt lat="43.63775" lon="3.72479">
        <ele>155.4</ele>
        <time>2011-05-29T07:31:26Z</time>
      </trkpt>
      <trkpt lat="43.63777" lon="3.72472">
        <ele>155.2</ele>
        <time>2011-05-29T07:31:27Z</time>
      </trkpt>
      <trkpt lat="43.63779" lon="3.72465">
        <ele>155</ele>
        <time>2011-05-29T07:31:28Z</time>
      </trkpt>
      <trkpt lat="43.6378" lon="3.72458">
        <ele>154.8</ele>
        <time>2011-05-29T07:31:29Z</time>
      </trkpt>
      <trkpt lat="43.63782" lon="3.72451">
        <ele>154.6</ele>
        <time>2011-05-29T07:31:30Z</time>
      </trkpt>
      <trkpt lat="43.63784" lon="3.72443">
        <ele>154.4</ele>
        <time>2011-05-29T07:31:31Z</time>
      </trkpt>
      <trkpt lat="43.63784" lon="3.72435">
        <ele>154.2</ele>
        <time>2011-05-29T07:31:32Z</time>
      </trkpt>
      <trkpt lat="43.63785" lon="3.72427">
        <ele>154.1</ele>
        <time>2011-05-29T07:31:33Z</time>
      </trkpt>
      <trkpt lat="43.63786" lon="3.72418">
        <ele>154</ele>
        <time>2011-05-29T07:31:34Z</time>
      </trkpt>
      <trkpt lat="43.63785" lon="3.7241">
        <ele>153.8</ele>
        <time>2011-05-29T07:31:35Z</time>
      </trkpt>
      <trkpt lat="43.63784" lon="3.72402">
        <ele>153.7</ele>
        <time>2011-05-29T07:31:36Z</time>
      </trkpt>
      <trkpt lat="43.63781" lon="3.72395">
        <ele>153.7</ele>
        <time>2011-05-29T07:31:37Z</time>
      </trkpt>
      <trkpt lat="43.6378" lon="3.72388">
        <ele>153.6</ele>
        <time>2011-05-29T07:31:38Z</time>
      </trkpt>
      <trkpt lat="43.6378" lon="3.7238">
        <ele>153.3</ele>
        <time>2011-05-29T07:31:39Z</time>
      </trkpt>
      <trkpt lat="43.6378" lon="3.72372">
        <ele>153.1</ele>
        <time>2011-05-29T07:31:40Z</time>
      </trkpt>
      <trkpt lat="43.63779" lon="3.72364">
        <ele>152.9</ele>
        <time>2011-05-29T07:31:41Z</time>
      </trkpt>
      <trkpt lat="43.63778" lon="3.72356">
        <ele>152.7</ele>
        <time>2011-05-29T07:31:42Z</time>
      </trkpt>
      <trkpt lat="43.63778" lon="3.72347">
        <ele>152.4</ele>
        <time>2011-05-29T07:31:43Z</time>
      </trkpt>
      <trkpt lat="43.63778" lon="3.72338">
        <ele>152.1</ele>
        <time>2011-05-29T07:31:44Z</time>
      </trkpt>
      <trkpt lat="43.63777" lon="3.7233">
        <ele>151.9</ele>
        <time>2011-05-29T07:31:45Z</time>
      </trkpt>
      <trkpt lat="43.63775" lon="3.72323">
        <ele>151.9</ele>
        <time>2011-05-29T07:31:46Z</time>
      </trkpt>
      <trkpt lat="43.63773" lon="3.72316">
        <ele>151.8</ele>
        <time>2011-05-29T07:31:47Z</time>
      </trkpt>
      <trkpt lat="43.63772" lon="3.72308">
        <ele>151.7</ele>
        <time>2011-05-29T07:31:48Z</time>
      </trkpt>
      <trkpt lat="43.63771" lon="3.72299">
        <ele>151.5</ele>
        <time>2011-05-29T07:31:49Z</time>
      </trkpt>
      <trkpt lat="43.6377" lon="3.72291">
        <ele>151.3</ele>
        <time>2011-05-29T07:31:50Z</time>
      </trkpt>
      <trkpt lat="43.63769" lon="3.72283">
        <ele>151.1</ele>
        <time>2011-05-29T07:31:51Z</time>
      </trkpt>
      <trkpt lat="43.6377" lon="3.72276">
        <ele>150.8</ele>
        <time>2011-05-29T07:31:52Z</time>
      </trkpt>
      <trkpt lat="43.63772" lon="3.72268">
        <ele>150.5</ele>
        <time>2011-05-29T07:31:53Z</time>
      </trkpt>
      <trkpt lat="43.63773" lon="3.72261">
        <ele>150.2</ele>
        <time>2011-05-29T07:31:54Z</time>
      </trkpt>
      <trkpt lat="43.63773" lon="3.72253">
        <ele>149.9</ele>
        <time>2011-05-29T07:31:55Z</time>
      </trkpt>
      <trkpt lat="43.63775" lon="3.72246">
        <ele>149.7</ele>
        <time>2011-05-29T07:31:56Z</time>
      </trkpt>
      <trkpt lat="43.63775" lon="3.72238">
        <ele>149.6</ele>
        <time>2011-05-29T07:31:57Z</time>
      </trkpt>
      <trkpt lat="43.63775" lon="3.72231">
        <ele>149.7</ele>
        <time>2011-05-29T07:31:58Z</time>
      </trkpt>
      <trkpt lat="43.63774" lon="3.72223">
        <ele>149.8</ele>
        <time>2011-05-29T07:31:59Z</time>
      </trkpt>
      <trkpt lat="43.63772" lon="3.72217">
        <ele>149.9</ele>
        <time>2011-05-29T07:32:00Z</time>
      </trkpt>
      <trkpt lat="43.6377" lon="3.72211">
        <ele>150.1</ele>
        <time>2011-05-29T07:32:01Z</time>
      </trkpt>
      <trkpt lat="43.63767" lon="3.72205">
        <ele>150.3</ele>
        <time>2011-05-29T07:32:02Z</time>
      </trkpt>
      <trkpt lat="43.63764" lon="3.722">
        <ele>150.5</ele>
        <time>2011-05-29T07:32:03Z</time>
      </trkpt>
      <trkpt lat="43.6376" lon="3.72196">
        <ele>150.7</ele>
        <time>2011-05-29T07:32:04Z</time>
      </trkpt>
      <trkpt lat="43.63757" lon="3.72191">
        <ele>150.9</ele>
        <time>2011-05-29T07:32:05Z</time>
      </trkpt>
      <trkpt lat="43.63754" lon="3.72186">
        <ele>151</ele>
        <time>2011-05-29T07:32:06Z</time>
      </trkpt>
      <trkpt lat="43.63753" lon="3.7218">
        <ele>151</ele>
        <time>2011-05-29T07:32:07Z</time>
      </trkpt>
      <trkpt lat="43.63751" lon="3.72174">
        <ele>151</ele>
        <time>2011-05-29T07:32:08Z</time>
      </trkpt>
      <trkpt lat="43.6375" lon="3.72168">
        <ele>151</ele>
        <time>2011-05-29T07:32:09Z</time>
      </trkpt>
      <trkpt lat="43.6375" lon="3.72161">
        <ele>150.8</ele>
        <time>2011-05-29T07:32:10Z</time>
      </trkpt>
      <trkpt lat="43.63749" lon="3.72154">
        <ele>150.5</ele>
        <time>2011-05-29T07:32:11Z</time>
      </trkpt>
      <trkpt lat="43.6375" lon="3.72146">
        <ele>150</ele>
        <time>2011-05-29T07:32:12Z</time>
      </trkpt>
      <trkpt lat="43.6375" lon="3.72138">
        <ele>149.7</ele>
        <time>2011-05-29T07:32:13Z</time>
      </trkpt>
      <trkpt lat="43.63748" lon="3.72131">
        <ele>149.5</ele>
        <time>2011-05-29T07:32:14Z</time>
      </trkpt>
      <trkpt lat="43.63747" lon="3.72124">
        <ele>149.3</ele>
        <time>2011-05-29T07:32:15Z</time>
      </trkpt>
      <trkpt lat="43.63748" lon="3.72118">
        <ele>148.9</ele>
        <time>2011-05-29T07:32:16Z</time>
      </trkpt>
      <trkpt lat="43.63749" lon="3.72111">
        <ele>148.4</ele>
        <time>2011-05-29T07:32:17Z</time>
      </trkpt>
      <trkpt lat="43.6375" lon="3.72103">
        <ele>148</ele>
        <time>2011-05-29T07:32:18Z</time>
      </trkpt>
      <trkpt lat="43.63749" lon="3.72095">
        <ele>147.7</ele>
        <time>2011-05-29T07:32:19Z</time>
      </trkpt>
      <trkpt lat="43.63747" lon="3.72086">
        <ele>147.4</ele>
        <time>2011-05-29T07:32:20Z</time>
      </trkpt>
      <trkpt lat="43.63745" lon="3.72077">
        <ele>147.5</ele>
        <time>2011-05-29T07:32:21Z</time>
      </trkpt>
      <trkpt lat="43.63743" lon="3.72069">
        <ele>147.7</ele>
        <time>2011-05-29T07:32:22Z</time>
      </trkpt>
      <trkpt lat="43.63741" lon="3.7206">
        <ele>147.8</ele>
        <time>2011-05-29T07:32:23Z</time>
      </trkpt>
      <trkpt lat="43.63739" lon="3.72052">
        <ele>148</ele>
        <time>2011-05-29T07:32:24Z</time>
      </trkpt>
      <trkpt lat="43.63737" lon="3.72044">
        <ele>148.2</ele>
        <time>2011-05-29T07:32:25Z</time>
      </trkpt>
      <trkpt lat="43.63734" lon="3.72037">
        <ele>148.5</ele>
        <time>2011-05-29T07:32:26Z</time>
      </trkpt>
      <trkpt lat="43.6373" lon="3.72031">
        <ele>148.8</ele>
        <time>2011-05-29T07:32:27Z</time>
      </trkpt>
      <trkpt lat="43.63727" lon="3.72025">
        <ele>149</ele>
        <time>2011-05-29T07:32:28Z</time>
      </trkpt>
      <trkpt lat="43.63725" lon="3.72019">
        <ele>149.2</ele>
        <time>2011-05-29T07:32:29Z</time>
      </trkpt>
      <trkpt lat="43.6372" lon="3.72009">
        <ele>149.6</ele>
        <time>2011-05-29T07:32:31Z</time>
      </trkpt>
      <trkpt lat="43.63715" lon="3.72">
        <ele>149.9</ele>
        <time>2011-05-29T07:32:33Z</time>
      </trkpt>
      <trkpt lat="43.6371" lon="3.71992">
        <ele>150.3</ele>
        <time>2011-05-29T07:32:35Z</time>
      </trkpt>
      <trkpt lat="43.63705" lon="3.71984">
        <ele>150.5</ele>
        <time>2011-05-29T07:32:37Z</time>
      </trkpt>
      <trkpt lat="43.637" lon="3.71976">
        <ele>150.8</ele>
        <time>2011-05-29T07:32:39Z</time>
      </trkpt>
      <trkpt lat="43.63698" lon="3.71965">
        <ele>150.8</ele>
        <time>2011-05-29T07:32:41Z</time>
      </trkpt>
      <trkpt lat="43.63696" lon="3.71961">
        <ele>150.9</ele>
        <time>2011-05-29T07:32:42Z</time>
      </trkpt>
      <trkpt lat="43.63688" lon="3.7195">
        <ele>151.3</ele>
        <time>2011-05-29T07:32:45Z</time>
      </trkpt>
      <trkpt lat="43.63685" lon="3.71938">
        <ele>151.3</ele>
        <time>2011-05-29T07:32:47Z</time>
      </trkpt>
      <trkpt lat="43.63683" lon="3.71932">
        <ele>151.3</ele>
        <time>2011-05-29T07:32:48Z</time>
      </trkpt>
      <trkpt lat="43.63682" lon="3.71926">
        <ele>151.3</ele>
        <time>2011-05-29T07:32:49Z</time>
      </trkpt>
      <trkpt lat="43.6368" lon="3.7192">
        <ele>151.3</ele>
        <time>2011-05-29T07:32:50Z</time>
      </trkpt>
      <trkpt lat="43.63677" lon="3.71914">
        <ele>151.3</ele>
        <time>2011-05-29T07:32:51Z</time>
      </trkpt>
      <trkpt lat="43.63674" lon="3.71908">
        <ele>151.2</ele>
        <time>2011-05-29T07:32:52Z</time>
      </trkpt>
      <trkpt lat="43.63672" lon="3.71901">
        <ele>151</ele>
        <time>2011-05-29T07:32:53Z</time>
      </trkpt>
      <trkpt lat="43.6367" lon="3.71894">
        <ele>150.8</ele>
        <time>2011-05-29T07:32:54Z</time>
      </trkpt>
      <trkpt lat="43.63666" lon="3.71887">
        <ele>150.6</ele>
        <time>2011-05-29T07:32:55Z</time>
      </trkpt>
      <trkpt lat="43.63662" lon="3.71882">
        <ele>150.4</ele>
        <time>2011-05-29T07:32:56Z</time>
      </trkpt>
      <trkpt lat="43.63658" lon="3.71876">
        <ele>150.2</ele>
        <time>2011-05-29T07:32:57Z</time>
      </trkpt>
      <trkpt lat="43.63656" lon="3.71868">
        <ele>149.9</ele>
        <time>2011-05-29T07:32:58Z</time>
      </trkpt>
      <trkpt lat="43.63654" lon="3.7186">
        <ele>149.6</ele>
        <time>2011-05-29T07:32:59Z</time>
      </trkpt>
      <trkpt lat="43.63654" lon="3.71848">
        <ele>149.1</ele>
        <time>2011-05-29T07:33:01Z</time>
      </trkpt>
      <trkpt lat="43.6365" lon="3.71838">
        <ele>148.8</ele>
        <time>2011-05-29T07:33:04Z</time>
      </trkpt>
      <trkpt lat="43.63648" lon="3.71828">
        <ele>148.6</ele>
        <time>2011-05-29T07:33:06Z</time>
      </trkpt>
      <trkpt lat="43.63646" lon="3.71822">
        <ele>148.6</ele>
        <time>2011-05-29T07:33:07Z</time>
      </trkpt>
      <trkpt lat="43.63643" lon="3.71815">
        <ele>148.6</ele>
        <time>2011-05-29T07:33:08Z</time>
      </trkpt>
      <trkpt lat="43.63641" lon="3.71808">
        <ele>148.6</ele>
        <time>2011-05-29T07:33:09Z</time>
      </trkpt>
      <trkpt lat="43.63639" lon="3.718">
        <ele>148.6</ele>
        <time>2011-05-29T07:33:10Z</time>
      </trkpt>
      <trkpt lat="43.63636" lon="3.71793">
        <ele>148.6</ele>
        <time>2011-05-29T07:33:11Z</time>
      </trkpt>
      <trkpt lat="43.63632" lon="3.71788">
        <ele>148.7</ele>
        <time>2011-05-29T07:33:12Z</time>
      </trkpt>
      <trkpt lat="43.63628" lon="3.71784">
        <ele>148.8</ele>
        <time>2011-05-29T07:33:13Z</time>
      </trkpt>
      <trkpt lat="43.63623" lon="3.7178">
        <ele>148.9</ele>
        <time>2011-05-29T07:33:14Z</time>
      </trkpt>
      <trkpt lat="43.63618" lon="3.71777">
        <ele>149.1</ele>
        <time>2011-05-29T07:33:15Z</time>
      </trkpt>
      <trkpt lat="43.63613" lon="3.71774">
        <ele>149.2</ele>
        <time>2011-05-29T07:33:16Z</time>
      </trkpt>
      <trkpt lat="43.63608" lon="3.71771">
        <ele>149.4</ele>
        <time>2011-05-29T07:33:17Z</time>
      </trkpt>
      <trkpt lat="43.63604" lon="3.71767">
        <ele>149.5</ele>
        <time>2011-05-29T07:33:18Z</time>
      </trkpt>
      <trkpt lat="43.63599" lon="3.71762">
        <ele>149.6</ele>
        <time>2011-05-29T07:33:19Z</time>
      </trkpt>
      <trkpt lat="43.63595" lon="3.71757">
        <ele>149.7</ele>
        <time>2011-05-29T07:33:20Z</time>
      </trkpt>
      <trkpt lat="43.63591" lon="3.71753">
        <ele>149.8</ele>
        <time>2011-05-29T07:33:21Z</time>
      </trkpt>
      <trkpt lat="43.63586" lon="3.71749">
        <ele>149.9</ele>
        <time>2011-05-29T07:33:22Z</time>
      </trkpt>
      <trkpt lat="43.63582" lon="3.71745">
        <ele>150.1</ele>
        <time>2011-05-29T07:33:23Z</time>
      </trkpt>
      <trkpt lat="43.63578" lon="3.7174">
        <ele>150.2</ele>
        <time>2011-05-29T07:33:24Z</time>
      </trkpt>
      <trkpt lat="43.63575" lon="3.71735">
        <ele>150.3</ele>
        <time>2011-05-29T07:33:25Z</time>
      </trkpt>
      <trkpt lat="43.63573" lon="3.71729">
        <ele>150.3</ele>
        <time>2011-05-29T07:33:26Z</time>
      </trkpt>
      <trkpt lat="43.63571" lon="3.71723">
        <ele>150.4</ele>
        <time>2011-05-29T07:33:27Z</time>
      </trkpt>
      <trkpt lat="43.63569" lon="3.71717">
        <ele>150.5</ele>
        <time>2011-05-29T07:33:28Z</time>
      </trkpt>
      <trkpt lat="43.63567" lon="3.71711">
        <ele>150.6</ele>
        <time>2011-05-29T07:33:29Z</time>
      </trkpt>
      <trkpt lat="43.63563" lon="3.717">
        <ele>150.7</ele>
        <time>2011-05-29T07:33:31Z</time>
      </trkpt>
      <trkpt lat="43.6356" lon="3.71691">
        <ele>150.8</ele>
        <time>2011-05-29T07:33:33Z</time>
      </trkpt>
      <trkpt lat="43.6356" lon="3.7168">
        <ele>150.9</ele>
        <time>2011-05-29T07:33:35Z</time>
      </trkpt>
      <trkpt lat="43.63561" lon="3.71668">
        <ele>151</ele>
        <time>2011-05-29T07:33:37Z</time>
      </trkpt>
      <trkpt lat="43.63561" lon="3.71661">
        <ele>150.9</ele>
        <time>2011-05-29T07:33:38Z</time>
      </trkpt>
      <trkpt lat="43.63562" lon="3.71655">
        <ele>150.9</ele>
        <time>2011-05-29T07:33:39Z</time>
      </trkpt>
      <trkpt lat="43.63564" lon="3.71649">
        <ele>150.8</ele>
        <time>2011-05-29T07:33:40Z</time>
      </trkpt>
      <trkpt lat="43.63565" lon="3.71642">
        <ele>150.7</ele>
        <time>2011-05-29T07:33:41Z</time>
      </trkpt>
      <trkpt lat="43.63567" lon="3.71636">
        <ele>150.6</ele>
        <time>2011-05-29T07:33:42Z</time>
      </trkpt>
      <trkpt lat="43.63569" lon="3.7163">
        <ele>150.6</ele>
        <time>2011-05-29T07:33:43Z</time>
      </trkpt>
      <trkpt lat="43.63571" lon="3.71623">
        <ele>150.5</ele>
        <time>2011-05-29T07:33:44Z</time>
      </trkpt>
      <trkpt lat="43.63573" lon="3.71617">
        <ele>150.4</ele>
        <time>2011-05-29T07:33:45Z</time>
      </trkpt>
      <trkpt lat="43.63573" lon="3.7161">
        <ele>150.3</ele>
        <time>2011-05-29T07:33:46Z</time>
      </trkpt>
      <trkpt lat="43.63575" lon="3.71604">
        <ele>150.3</ele>
        <time>2011-05-29T07:33:47Z</time>
      </trkpt>
      <trkpt lat="43.63576" lon="3.71598">
        <ele>150.2</ele>
        <time>2011-05-29T07:33:48Z</time>
      </trkpt>
      <trkpt lat="43.63578" lon="3.71592">
        <ele>150.1</ele>
        <time>2011-05-29T07:33:49Z</time>
      </trkpt>
      <trkpt lat="43.63582" lon="3.71581">
        <ele>149.9</ele>
        <time>2011-05-29T07:33:51Z</time>
      </trkpt>
      <trkpt lat="43.63586" lon="3.71572">
        <ele>149.6</ele>
        <time>2011-05-29T07:33:53Z</time>
      </trkpt>
      <trkpt lat="43.63591" lon="3.71564">
        <ele>149.3</ele>
        <time>2011-05-29T07:33:55Z</time>
      </trkpt>
      <trkpt lat="43.63597" lon="3.71555">
        <ele>149</ele>
        <time>2011-05-29T07:33:57Z</time>
      </trkpt>
      <trkpt lat="43.636" lon="3.7155">
        <ele>148.9</ele>
        <time>2011-05-29T07:33:58Z</time>
      </trkpt>
      <trkpt lat="43.63603" lon="3.71545">
        <ele>148.7</ele>
        <time>2011-05-29T07:33:59Z</time>
      </trkpt>
      <trkpt lat="43.63606" lon="3.7154">
        <ele>148.6</ele>
        <time>2011-05-29T07:34:00Z</time>
      </trkpt>
      <trkpt lat="43.63609" lon="3.71535">
        <ele>148.4</ele>
        <time>2011-05-29T07:34:01Z</time>
      </trkpt>
      <trkpt lat="43.63613" lon="3.7153">
        <ele>148.3</ele>
        <time>2011-05-29T07:34:02Z</time>
      </trkpt>
      <trkpt lat="43.63616" lon="3.71525">
        <ele>148.2</ele>
        <time>2011-05-29T07:34:03Z</time>
      </trkpt>
      <trkpt lat="43.63619" lon="3.71519">
        <ele>148</ele>
        <time>2011-05-29T07:34:04Z</time>
      </trkpt>
      <trkpt lat="43.63622" lon="3.71513">
        <ele>147.9</ele>
        <time>2011-05-29T07:34:05Z</time>
      </trkpt>
      <trkpt lat="43.63626" lon="3.71507">
        <ele>147.7</ele>
        <time>2011-05-29T07:34:06Z</time>
      </trkpt>
      <trkpt lat="43.63629" lon="3.71501">
        <ele>147.6</ele>
        <time>2011-05-29T07:34:07Z</time>
      </trkpt>
      <trkpt lat="43.63633" lon="3.71494">
        <ele>147.5</ele>
        <time>2011-05-29T07:34:08Z</time>
      </trkpt>
      <trkpt lat="43.63637" lon="3.71488">
        <ele>147.4</ele>
        <time>2011-05-29T07:34:09Z</time>
      </trkpt>
      <trkpt lat="43.63641" lon="3.71482">
        <ele>147.3</ele>
        <time>2011-05-29T07:34:10Z</time>
      </trkpt>
      <trkpt lat="43.63646" lon="3.71476">
        <ele>147.2</ele>
        <time>2011-05-29T07:34:11Z</time>
      </trkpt>
      <trkpt lat="43.63651" lon="3.7147">
        <ele>147.2</ele>
        <time>2011-05-29T07:34:12Z</time>
      </trkpt>
      <trkpt lat="43.63656" lon="3.71464">
        <ele>147.1</ele>
        <time>2011-05-29T07:34:13Z</time>
      </trkpt>
      <trkpt lat="43.6366" lon="3.71458">
        <ele>147</ele>
        <time>2011-05-29T07:34:14Z</time>
      </trkpt>
      <trkpt lat="43.63664" lon="3.71452">
        <ele>146.8</ele>
        <time>2011-05-29T07:34:15Z</time>
      </trkpt>
      <trkpt lat="43.63667" lon="3.71446">
        <ele>146.7</ele>
        <time>2011-05-29T07:34:16Z</time>
      </trkpt>
      <trkpt lat="43.63671" lon="3.7144">
        <ele>146.7</ele>
        <time>2011-05-29T07:34:17Z</time>
      </trkpt>
      <trkpt lat="43.63674" lon="3.71434">
        <ele>146.6</ele>
        <time>2011-05-29T07:34:18Z</time>
      </trkpt>
      <trkpt lat="43.63678" lon="3.71428">
        <ele>146.6</ele>
        <time>2011-05-29T07:34:19Z</time>
      </trkpt>
      <trkpt lat="43.63681" lon="3.71422">
        <ele>146.5</ele>
        <time>2011-05-29T07:34:20Z</time>
      </trkpt>
      <trkpt lat="43.63684" lon="3.71416">
        <ele>146.4</ele>
        <time>2011-05-29T07:34:21Z</time>
      </trkpt>
      <trkpt lat="43.63688" lon="3.71411">
        <ele>146.6</ele>
        <time>2011-05-29T07:34:22Z</time>
      </trkpt>
      <trkpt lat="43.63691" lon="3.71405">
        <ele>146.8</ele>
        <time>2011-05-29T07:34:23Z</time>
      </trkpt>
      <trkpt lat="43.63694" lon="3.714">
        <ele>146.9</ele>
        <time>2011-05-29T07:34:24Z</time>
      </trkpt>
      <trkpt lat="43.63696" lon="3.71389">
        <ele>147.1</ele>
        <time>2011-05-29T07:34:26Z</time>
      </trkpt>
      <trkpt lat="43.63695" lon="3.7138">
        <ele>147.3</ele>
        <time>2011-05-29T07:34:28Z</time>
      </trkpt>
      <trkpt lat="43.63694" lon="3.7137">
        <ele>147.4</ele>
        <time>2011-05-29T07:34:30Z</time>
      </trkpt>
      <trkpt lat="43.63695" lon="3.71361">
        <ele>147.6</ele>
        <time>2011-05-29T07:34:32Z</time>
      </trkpt>
      <trkpt lat="43.63696" lon="3.71353">
        <ele>147.7</ele>
        <time>2011-05-29T07:34:34Z</time>
      </trkpt>
      <trkpt lat="43.63695" lon="3.71344">
        <ele>147.8</ele>
        <time>2011-05-29T07:34:36Z</time>
      </trkpt>
      <trkpt lat="43.63694" lon="3.71335">
        <ele>148</ele>
        <time>2011-05-29T07:34:38Z</time>
      </trkpt>
      <trkpt lat="43.6369" lon="3.71324">
        <ele>148.3</ele>
        <time>2011-05-29T07:34:41Z</time>
      </trkpt>
      <trkpt lat="43.63685" lon="3.71318">
        <ele>148.6</ele>
        <time>2011-05-29T07:34:43Z</time>
      </trkpt>
      <trkpt lat="43.63682" lon="3.71316">
        <ele>148.7</ele>
        <time>2011-05-29T07:34:44Z</time>
      </trkpt>
      <trkpt lat="43.63671" lon="3.71307">
        <ele>149.2</ele>
        <time>2011-05-29T07:34:48Z</time>
      </trkpt>
      <trkpt lat="43.63666" lon="3.71297">
        <ele>149.7</ele>
        <time>2011-05-29T07:34:53Z</time>
      </trkpt>
      <trkpt lat="43.63663" lon="3.71287">
        <ele>150.1</ele>
        <time>2011-05-29T07:34:59Z</time>
      </trkpt>
      <trkpt lat="43.63659" lon="3.71276">
        <ele>150.5</ele>
        <time>2011-05-29T07:35:58Z</time>
      </trkpt>
      <trkpt lat="43.63658" lon="3.71274">
        <ele>150.6</ele>
        <time>2011-05-29T07:35:59Z</time>
      </trkpt>
      <trkpt lat="43.63653" lon="3.71256">
        <ele>151.2</ele>
        <time>2011-05-29T07:36:09Z</time>
      </trkpt>
      <trkpt lat="43.63649" lon="3.71246">
        <ele>151.3</ele>
        <time>2011-05-29T07:36:13Z</time>
      </trkpt>
      <trkpt lat="43.63646" lon="3.71237">
        <ele>151.1</ele>
        <time>2011-05-29T07:36:16Z</time>
      </trkpt>
      <trkpt lat="43.63642" lon="3.71227">
        <ele>151</ele>
        <time>2011-05-29T07:36:20Z</time>
      </trkpt>
      <trkpt lat="43.63638" lon="3.71218">
        <ele>150.9</ele>
        <time>2011-05-29T07:36:24Z</time>
      </trkpt>
      <trkpt lat="43.63633" lon="3.71209">
        <ele>150.8</ele>
        <time>2011-05-29T07:36:27Z</time>
      </trkpt>
      <trkpt lat="43.63629" lon="3.71199">
        <ele>150.8</ele>
        <time>2011-05-29T07:36:31Z</time>
      </trkpt>
      <trkpt lat="43.63634" lon="3.7119">
        <ele>150.8</ele>
        <time>2011-05-29T07:36:38Z</time>
      </trkpt>
      <trkpt lat="43.63638" lon="3.71181">
        <ele>150.7</ele>
        <time>2011-05-29T07:36:41Z</time>
      </trkpt>
      <trkpt lat="43.63642" lon="3.71174">
        <ele>150.6</ele>
        <time>2011-05-29T07:36:43Z</time>
      </trkpt>
      <trkpt lat="43.63648" lon="3.71167">
        <ele>150.5</ele>
        <time>2011-05-29T07:36:45Z</time>
      </trkpt>
      <trkpt lat="43.63655" lon="3.71161">
        <ele>150.2</ele>
        <time>2011-05-29T07:36:47Z</time>
      </trkpt>
      <trkpt lat="43.63661" lon="3.71154">
        <ele>149.9</ele>
        <time>2011-05-29T07:36:49Z</time>
      </trkpt>
      <trkpt lat="43.63664" lon="3.71144">
        <ele>149.5</ele>
        <time>2011-05-29T07:36:51Z</time>
      </trkpt>
      <trkpt lat="43.63666" lon="3.71133">
        <ele>149.2</ele>
        <time>2011-05-29T07:36:53Z</time>
      </trkpt>
      <trkpt lat="43.63668" lon="3.71122">
        <ele>148.9</ele>
        <time>2011-05-29T07:36:55Z</time>
      </trkpt>
      <trkpt lat="43.63672" lon="3.71112">
        <ele>148.4</ele>
        <time>2011-05-29T07:36:57Z</time>
      </trkpt>
      <trkpt lat="43.63674" lon="3.71106">
        <ele>148.2</ele>
        <time>2011-05-29T07:36:58Z</time>
      </trkpt>
      <trkpt lat="43.63676" lon="3.71101">
        <ele>147.9</ele>
        <time>2011-05-29T07:36:59Z</time>
      </trkpt>
      <trkpt lat="43.63678" lon="3.71095">
        <ele>147.7</ele>
        <time>2011-05-29T07:37:00Z</time>
      </trkpt>
      <trkpt lat="43.6368" lon="3.71089">
        <ele>147.4</ele>
        <time>2011-05-29T07:37:01Z</time>
      </trkpt>
      <trkpt lat="43.63683" lon="3.71077">
        <ele>147</ele>
        <time>2011-05-29T07:37:03Z</time>
      </trkpt>
      <trkpt lat="43.63686" lon="3.71067">
        <ele>146.8</ele>
        <time>2011-05-29T07:37:05Z</time>
      </trkpt>
      <trkpt lat="43.63689" lon="3.71058">
        <ele>146.5</ele>
        <time>2011-05-29T07:37:07Z</time>
      </trkpt>
      <trkpt lat="43.63694" lon="3.71048">
        <ele>146.1</ele>
        <time>2011-05-29T07:37:09Z</time>
      </trkpt>
      <trkpt lat="43.63697" lon="3.71043">
        <ele>145.9</ele>
        <time>2011-05-29T07:37:10Z</time>
      </trkpt>
      <trkpt lat="43.637" lon="3.71038">
        <ele>145.6</ele>
        <time>2011-05-29T07:37:11Z</time>
      </trkpt>
      <trkpt lat="43.63703" lon="3.71031">
        <ele>145.3</ele>
        <time>2011-05-29T07:37:12Z</time>
      </trkpt>
      <trkpt lat="43.63705" lon="3.71025">
        <ele>145.1</ele>
        <time>2011-05-29T07:37:13Z</time>
      </trkpt>
      <trkpt lat="43.63707" lon="3.71018">
        <ele>144.8</ele>
        <time>2011-05-29T07:37:14Z</time>
      </trkpt>
      <trkpt lat="43.63707" lon="3.71011">
        <ele>144.7</ele>
        <time>2011-05-29T07:37:15Z</time>
      </trkpt>
      <trkpt lat="43.63707" lon="3.71003">
        <ele>144.6</ele>
        <time>2011-05-29T07:37:16Z</time>
      </trkpt>
      <trkpt lat="43.63706" lon="3.70995">
        <ele>144.5</ele>
        <time>2011-05-29T07:37:17Z</time>
      </trkpt>
      <trkpt lat="43.63705" lon="3.70988">
        <ele>144.4</ele>
        <time>2011-05-29T07:37:18Z</time>
      </trkpt>
      <trkpt lat="43.63703" lon="3.70977">
        <ele>144.2</ele>
        <time>2011-05-29T07:37:20Z</time>
      </trkpt>
      <trkpt lat="43.63706" lon="3.70966">
        <ele>143.7</ele>
        <time>2011-05-29T07:37:22Z</time>
      </trkpt>
      <trkpt lat="43.63708" lon="3.70955">
        <ele>143.2</ele>
        <time>2011-05-29T07:37:24Z</time>
      </trkpt>
      <trkpt lat="43.63712" lon="3.70948">
        <ele>142.7</ele>
        <time>2011-05-29T07:37:26Z</time>
      </trkpt>
      <trkpt lat="43.63713" lon="3.7094">
        <ele>142.4</ele>
        <time>2011-05-29T07:37:28Z</time>
      </trkpt>
      <trkpt lat="43.63714" lon="3.70931">
        <ele>142</ele>
        <time>2011-05-29T07:37:30Z</time>
      </trkpt>
      <trkpt lat="43.63715" lon="3.70925">
        <ele>141.8</ele>
        <time>2011-05-29T07:37:31Z</time>
      </trkpt>
      <trkpt lat="43.63715" lon="3.70917">
        <ele>141.5</ele>
        <time>2011-05-29T07:37:32Z</time>
      </trkpt>
      <trkpt lat="43.63715" lon="3.7091">
        <ele>141.5</ele>
        <time>2011-05-29T07:37:33Z</time>
      </trkpt>
      <trkpt lat="43.63715" lon="3.70902">
        <ele>141.4</ele>
        <time>2011-05-29T07:37:34Z</time>
      </trkpt>
      <trkpt lat="43.63715" lon="3.70894">
        <ele>141.3</ele>
        <time>2011-05-29T07:37:35Z</time>
      </trkpt>
      <trkpt lat="43.63716" lon="3.70886">
        <ele>141.1</ele>
        <time>2011-05-29T07:37:36Z</time>
      </trkpt>
      <trkpt lat="43.63718" lon="3.70878">
        <ele>140.9</ele>
        <time>2011-05-29T07:37:37Z</time>
      </trkpt>
      <trkpt lat="43.6372" lon="3.7087">
        <ele>140.6</ele>
        <time>2011-05-29T07:37:38Z</time>
      </trkpt>
      <trkpt lat="43.63722" lon="3.70861">
        <ele>140.3</ele>
        <time>2011-05-29T07:37:39Z</time>
      </trkpt>
      <trkpt lat="43.63724" lon="3.70853">
        <ele>140</ele>
        <time>2011-05-29T07:37:40Z</time>
      </trkpt>
      <trkpt lat="43.63726" lon="3.70845">
        <ele>139.8</ele>
        <time>2011-05-29T07:37:41Z</time>
      </trkpt>
      <trkpt lat="43.63728" lon="3.70836">
        <ele>139.5</ele>
        <time>2011-05-29T07:37:42Z</time>
      </trkpt>
      <trkpt lat="43.63729" lon="3.70828">
        <ele>139.3</ele>
        <time>2011-05-29T07:37:43Z</time>
      </trkpt>
      <trkpt lat="43.6373" lon="3.7082">
        <ele>139.2</ele>
        <time>2011-05-29T07:37:44Z</time>
      </trkpt>
      <trkpt lat="43.63732" lon="3.70811">
        <ele>139</ele>
        <time>2011-05-29T07:37:45Z</time>
      </trkpt>
      <trkpt lat="43.63733" lon="3.70803">
        <ele>138.9</ele>
        <time>2011-05-29T07:37:46Z</time>
      </trkpt>
      <trkpt lat="43.63734" lon="3.70795">
        <ele>138.8</ele>
        <time>2011-05-29T07:37:47Z</time>
      </trkpt>
      <trkpt lat="43.63735" lon="3.70788">
        <ele>138.8</ele>
        <time>2011-05-29T07:37:48Z</time>
      </trkpt>
      <trkpt lat="43.63736" lon="3.7078">
        <ele>138.7</ele>
        <time>2011-05-29T07:37:49Z</time>
      </trkpt>
      <trkpt lat="43.63737" lon="3.70772">
        <ele>138.6</ele>
        <time>2011-05-29T07:37:50Z</time>
      </trkpt>
      <trkpt lat="43.63737" lon="3.70765">
        <ele>138.6</ele>
        <time>2011-05-29T07:37:51Z</time>
      </trkpt>
      <trkpt lat="43.63737" lon="3.70758">
        <ele>138.6</ele>
        <time>2011-05-29T07:37:52Z</time>
      </trkpt>
      <trkpt lat="43.63735" lon="3.70751">
        <ele>138.8</ele>
        <time>2011-05-29T07:37:53Z</time>
      </trkpt>
      <trkpt lat="43.63733" lon="3.70739">
        <ele>139.5</ele>
        <time>2011-05-29T07:37:55Z</time>
      </trkpt>
      <trkpt lat="43.63737" lon="3.70729">
        <ele>139.5</ele>
        <time>2011-05-29T07:37:57Z</time>
      </trkpt>
      <trkpt lat="43.63743" lon="3.70723">
        <ele>139.1</ele>
        <time>2011-05-29T07:37:59Z</time>
      </trkpt>
      <trkpt lat="43.63748" lon="3.70716">
        <ele>138.8</ele>
        <time>2011-05-29T07:38:01Z</time>
      </trkpt>
      <trkpt lat="43.63751" lon="3.70714">
        <ele>138.7</ele>
        <time>2011-05-29T07:38:02Z</time>
      </trkpt>
      <trkpt lat="43.63759" lon="3.70697">
        <ele>138.8</ele>
        <time>2011-05-29T07:38:52Z</time>
      </trkpt>
      <trkpt lat="43.63763" lon="3.70688">
        <ele>138.7</ele>
        <time>2011-05-29T07:38:57Z</time>
      </trkpt>
      <trkpt lat="43.63765" lon="3.70677">
        <ele>138.9</ele>
        <time>2011-05-29T07:39:00Z</time>
      </trkpt>
      <trkpt lat="43.63766" lon="3.70667">
        <ele>139.1</ele>
        <time>2011-05-29T07:39:02Z</time>
      </trkpt>
      <trkpt lat="43.63766" lon="3.70663">
        <ele>139.1</ele>
        <time>2011-05-29T07:39:03Z</time>
      </trkpt>
      <trkpt lat="43.63766" lon="3.70649">
        <ele>139</ele>
        <time>2011-05-29T07:39:06Z</time>
      </trkpt>
      <trkpt lat="43.63766" lon="3.7064">
        <ele>139</ele>
        <time>2011-05-29T07:39:08Z</time>
      </trkpt>
      <trkpt lat="43.63767" lon="3.70631">
        <ele>138.9</ele>
        <time>2011-05-29T07:39:10Z</time>
      </trkpt>
      <trkpt lat="43.63768" lon="3.70622">
        <ele>138.8</ele>
        <time>2011-05-29T07:39:12Z</time>
      </trkpt>
      <trkpt lat="43.63769" lon="3.70611">
        <ele>138.6</ele>
        <time>2011-05-29T07:39:14Z</time>
      </trkpt>
      <trkpt lat="43.63771" lon="3.70599">
        <ele>138.3</ele>
        <time>2011-05-29T07:39:16Z</time>
      </trkpt>
      <trkpt lat="43.63771" lon="3.70593">
        <ele>138.2</ele>
        <time>2011-05-29T07:39:17Z</time>
      </trkpt>
      <trkpt lat="43.63773" lon="3.70581">
        <ele>138</ele>
        <time>2011-05-29T07:39:19Z</time>
      </trkpt>
      <trkpt lat="43.63774" lon="3.70568">
        <ele>137.9</ele>
        <time>2011-05-29T07:39:21Z</time>
      </trkpt>
      <trkpt lat="43.63777" lon="3.70557">
        <ele>137.6</ele>
        <time>2011-05-29T07:39:23Z</time>
      </trkpt>
      <trkpt lat="43.6378" lon="3.70545">
        <ele>137.2</ele>
        <time>2011-05-29T07:39:25Z</time>
      </trkpt>
      <trkpt lat="43.63782" lon="3.7054">
        <ele>136.9</ele>
        <time>2011-05-29T07:39:26Z</time>
      </trkpt>
      <trkpt lat="43.63786" lon="3.70534">
        <ele>136.5</ele>
        <time>2011-05-29T07:39:27Z</time>
      </trkpt>
      <trkpt lat="43.63789" lon="3.70529">
        <ele>136.2</ele>
        <time>2011-05-29T07:39:28Z</time>
      </trkpt>
      <trkpt lat="43.63792" lon="3.70523">
        <ele>135.9</ele>
        <time>2011-05-29T07:39:29Z</time>
      </trkpt>
      <trkpt lat="43.63794" lon="3.70517">
        <ele>135.6</ele>
        <time>2011-05-29T07:39:30Z</time>
      </trkpt>
      <trkpt lat="43.63797" lon="3.7051">
        <ele>135.3</ele>
        <time>2011-05-29T07:39:31Z</time>
      </trkpt>
      <trkpt lat="43.638" lon="3.70504">
        <ele>135</ele>
        <time>2011-05-29T07:39:32Z</time>
      </trkpt>
      <trkpt lat="43.63802" lon="3.70498">
        <ele>134.8</ele>
        <time>2011-05-29T07:39:33Z</time>
      </trkpt>
      <trkpt lat="43.63805" lon="3.70492">
        <ele>134.7</ele>
        <time>2011-05-29T07:39:34Z</time>
      </trkpt>
      <trkpt lat="43.63809" lon="3.70487">
        <ele>134.4</ele>
        <time>2011-05-29T07:39:35Z</time>
      </trkpt>
      <trkpt lat="43.63818" lon="3.70488">
        <ele>133.3</ele>
        <time>2011-05-29T07:39:37Z</time>
      </trkpt>
      <trkpt lat="43.63822" lon="3.70491">
        <ele>132.7</ele>
        <time>2011-05-29T07:39:38Z</time>
      </trkpt>
      <trkpt lat="43.63827" lon="3.70495">
        <ele>132</ele>
        <time>2011-05-29T07:39:39Z</time>
      </trkpt>
      <trkpt lat="43.63831" lon="3.70498">
        <ele>131.3</ele>
        <time>2011-05-29T07:39:40Z</time>
      </trkpt>
      <trkpt lat="43.63836" lon="3.70502">
        <ele>131</ele>
        <time>2011-05-29T07:39:41Z</time>
      </trkpt>
      <trkpt lat="43.63841" lon="3.70505">
        <ele>131</ele>
        <time>2011-05-29T07:39:42Z</time>
      </trkpt>
      <trkpt lat="43.63847" lon="3.70509">
        <ele>130.9</ele>
        <time>2011-05-29T07:39:43Z</time>
      </trkpt>
      <trkpt lat="43.63852" lon="3.70513">
        <ele>130.9</ele>
        <time>2011-05-29T07:39:44Z</time>
      </trkpt>
      <trkpt lat="43.63858" lon="3.70516">
        <ele>130.9</ele>
        <time>2011-05-29T07:39:45Z</time>
      </trkpt>
      <trkpt lat="43.63864" lon="3.70518">
        <ele>130.9</ele>
        <time>2011-05-29T07:39:46Z</time>
      </trkpt>
      <trkpt lat="43.6387" lon="3.70519">
        <ele>131</ele>
        <time>2011-05-29T07:39:47Z</time>
      </trkpt>
      <trkpt lat="43.63876" lon="3.70521">
        <ele>131</ele>
        <time>2011-05-29T07:39:48Z</time>
      </trkpt>
      <trkpt lat="43.63881" lon="3.70523">
        <ele>131</ele>
        <time>2011-05-29T07:39:49Z</time>
      </trkpt>
      <trkpt lat="43.63887" lon="3.70525">
        <ele>131.1</ele>
        <time>2011-05-29T07:39:50Z</time>
      </trkpt>
      <trkpt lat="43.63892" lon="3.70528">
        <ele>131.1</ele>
        <time>2011-05-29T07:39:51Z</time>
      </trkpt>
      <trkpt lat="43.63897" lon="3.7053">
        <ele>131.2</ele>
        <time>2011-05-29T07:39:52Z</time>
      </trkpt>
      <trkpt lat="43.63902" lon="3.70532">
        <ele>131.2</ele>
        <time>2011-05-29T07:39:53Z</time>
      </trkpt>
      <trkpt lat="43.6391" lon="3.70534">
        <ele>131.3</ele>
        <time>2011-05-29T07:39:55Z</time>
      </trkpt>
      <trkpt lat="43.63912" lon="3.70524">
        <ele>131.3</ele>
        <time>2011-05-29T07:40:00Z</time>
      </trkpt>
      <trkpt lat="43.63913" lon="3.70513">
        <ele>131.1</ele>
        <time>2011-05-29T07:40:04Z</time>
      </trkpt>
      <trkpt lat="43.63914" lon="3.70509">
        <ele>131.1</ele>
        <time>2011-05-29T07:40:05Z</time>
      </trkpt>
      <trkpt lat="43.63914" lon="3.70494">
        <ele>130.9</ele>
        <time>2011-05-29T07:40:09Z</time>
      </trkpt>
      <trkpt lat="43.63914" lon="3.70484">
        <ele>130.7</ele>
        <time>2011-05-29T07:40:11Z</time>
      </trkpt>
      <trkpt lat="43.63915" lon="3.70475">
        <ele>130.4</ele>
        <time>2011-05-29T07:40:13Z</time>
      </trkpt>
      <trkpt lat="43.63918" lon="3.70467">
        <ele>130.3</ele>
        <time>2011-05-29T07:40:15Z</time>
      </trkpt>
      <trkpt lat="43.63921" lon="3.70458">
        <ele>130.2</ele>
        <time>2011-05-29T07:40:17Z</time>
      </trkpt>
      <trkpt lat="43.63923" lon="3.70449">
        <ele>130.1</ele>
        <time>2011-05-29T07:40:19Z</time>
      </trkpt>
      <trkpt lat="43.63927" lon="3.70439">
        <ele>130</ele>
        <time>2011-05-29T07:40:21Z</time>
      </trkpt>
      <trkpt lat="43.63929" lon="3.7043">
        <ele>129.9</ele>
        <time>2011-05-29T07:40:23Z</time>
      </trkpt>
      <trkpt lat="43.63932" lon="3.70422">
        <ele>129.7</ele>
        <time>2011-05-29T07:40:25Z</time>
      </trkpt>
      <trkpt lat="43.63936" lon="3.70413">
        <ele>129.7</ele>
        <time>2011-05-29T07:40:27Z</time>
      </trkpt>
      <trkpt lat="43.6394" lon="3.70405">
        <ele>129.9</ele>
        <time>2011-05-29T07:40:29Z</time>
      </trkpt>
      <trkpt lat="43.63946" lon="3.70398">
        <ele>130</ele>
        <time>2011-05-29T07:40:31Z</time>
      </trkpt>
      <trkpt lat="43.63953" lon="3.70392">
        <ele>130.1</ele>
        <time>2011-05-29T07:40:33Z</time>
      </trkpt>
      <trkpt lat="43.63959" lon="3.70386">
        <ele>130.1</ele>
        <time>2011-05-29T07:40:35Z</time>
      </trkpt>
      <trkpt lat="43.63965" lon="3.70379">
        <ele>130.1</ele>
        <time>2011-05-29T07:40:37Z</time>
      </trkpt>
      <trkpt lat="43.63969" lon="3.70371">
        <ele>129.9</ele>
        <time>2011-05-29T07:40:39Z</time>
      </trkpt>
      <trkpt lat="43.63974" lon="3.70363">
        <ele>129.7</ele>
        <time>2011-05-29T07:40:41Z</time>
      </trkpt>
      <trkpt lat="43.6398" lon="3.70356">
        <ele>129.4</ele>
        <time>2011-05-29T07:40:43Z</time>
      </trkpt>
      <trkpt lat="43.63987" lon="3.7035">
        <ele>129.1</ele>
        <time>2011-05-29T07:40:45Z</time>
      </trkpt>
      <trkpt lat="43.63993" lon="3.70344">
        <ele>128.7</ele>
        <time>2011-05-29T07:40:47Z</time>
      </trkpt>
      <trkpt lat="43.63998" lon="3.70337">
        <ele>128.2</ele>
        <time>2011-05-29T07:40:49Z</time>
      </trkpt>
      <trkpt lat="43.64004" lon="3.7033">
        <ele>127.7</ele>
        <time>2011-05-29T07:40:51Z</time>
      </trkpt>
      <trkpt lat="43.64007" lon="3.70327">
        <ele>127.4</ele>
        <time>2011-05-29T07:40:52Z</time>
      </trkpt>
      <trkpt lat="43.64012" lon="3.70324">
        <ele>127</ele>
        <time>2011-05-29T07:40:53Z</time>
      </trkpt>
      <trkpt lat="43.64017" lon="3.70322">
        <ele>126.7</ele>
        <time>2011-05-29T07:40:54Z</time>
      </trkpt>
      <trkpt lat="43.64021" lon="3.7032">
        <ele>126.3</ele>
        <time>2011-05-29T07:40:55Z</time>
      </trkpt>
      <trkpt lat="43.64026" lon="3.70318">
        <ele>126</ele>
        <time>2011-05-29T07:40:56Z</time>
      </trkpt>
      <trkpt lat="43.6403" lon="3.70317">
        <ele>125.7</ele>
        <time>2011-05-29T07:40:57Z</time>
      </trkpt>
      <trkpt lat="43.64035" lon="3.70315">
        <ele>125.3</ele>
        <time>2011-05-29T07:40:58Z</time>
      </trkpt>
      <trkpt lat="43.6404" lon="3.70314">
        <ele>124.9</ele>
        <time>2011-05-29T07:40:59Z</time>
      </trkpt>
      <trkpt lat="43.64045" lon="3.70312">
        <ele>124.5</ele>
        <time>2011-05-29T07:41:00Z</time>
      </trkpt>
      <trkpt lat="43.64051" lon="3.7031">
        <ele>124.1</ele>
        <time>2011-05-29T07:41:01Z</time>
      </trkpt>
      <trkpt lat="43.64056" lon="3.70309">
        <ele>123.7</ele>
        <time>2011-05-29T07:41:02Z</time>
      </trkpt>
      <trkpt lat="43.64061" lon="3.70307">
        <ele>123.2</ele>
        <time>2011-05-29T07:41:03Z</time>
      </trkpt>
      <trkpt lat="43.64067" lon="3.70305">
        <ele>122.8</ele>
        <time>2011-05-29T07:41:04Z</time>
      </trkpt>
      <trkpt lat="43.64073" lon="3.70303">
        <ele>122.3</ele>
        <time>2011-05-29T07:41:05Z</time>
      </trkpt>
      <trkpt lat="43.64079" lon="3.703">
        <ele>121.7</ele>
        <time>2011-05-29T07:41:06Z</time>
      </trkpt>
      <trkpt lat="43.64087" lon="3.70297">
        <ele>121.1</ele>
        <time>2011-05-29T07:41:07Z</time>
      </trkpt>
      <trkpt lat="43.64094" lon="3.70294">
        <ele>120.6</ele>
        <time>2011-05-29T07:41:08Z</time>
      </trkpt>
      <trkpt lat="43.64102" lon="3.7029">
        <ele>120</ele>
        <time>2011-05-29T07:41:09Z</time>
      </trkpt>
      <trkpt lat="43.6411" lon="3.70284">
        <ele>119.4</ele>
        <time>2011-05-29T07:41:10Z</time>
      </trkpt>
      <trkpt lat="43.64118" lon="3.70276">
        <ele>118.7</ele>
        <time>2011-05-29T07:41:11Z</time>
      </trkpt>
      <trkpt lat="43.64126" lon="3.70269">
        <ele>118.1</ele>
        <time>2011-05-29T07:41:12Z</time>
      </trkpt>
      <trkpt lat="43.64134" lon="3.70261">
        <ele>117.6</ele>
        <time>2011-05-29T07:41:13Z</time>
      </trkpt>
      <trkpt lat="43.64142" lon="3.70254">
        <ele>117</ele>
        <time>2011-05-29T07:41:14Z</time>
      </trkpt>
      <trkpt lat="43.6415" lon="3.70246">
        <ele>116.4</ele>
        <time>2011-05-29T07:41:15Z</time>
      </trkpt>
      <trkpt lat="43.64158" lon="3.70237">
        <ele>115.6</ele>
        <time>2011-05-29T07:41:16Z</time>
      </trkpt>
      <trkpt lat="43.64165" lon="3.70227">
        <ele>114.7</ele>
        <time>2011-05-29T07:41:17Z</time>
      </trkpt>
      <trkpt lat="43.64173" lon="3.70217">
        <ele>113.9</ele>
        <time>2011-05-29T07:41:18Z</time>
      </trkpt>
      <trkpt lat="43.64181" lon="3.70207">
        <ele>113.2</ele>
        <time>2011-05-29T07:41:19Z</time>
      </trkpt>
      <trkpt lat="43.6419" lon="3.70196">
        <ele>112.7</ele>
        <time>2011-05-29T07:41:20Z</time>
      </trkpt>
      <trkpt lat="43.64199" lon="3.70187">
        <ele>112.2</ele>
        <time>2011-05-29T07:41:21Z</time>
      </trkpt>
      <trkpt lat="43.64208" lon="3.70177">
        <ele>111.9</ele>
        <time>2011-05-29T07:41:22Z</time>
      </trkpt>
      <trkpt lat="43.64217" lon="3.70169">
        <ele>111.7</ele>
        <time>2011-05-29T07:41:23Z</time>
      </trkpt>
      <trkpt lat="43.64227" lon="3.70162">
        <ele>111.7</ele>
        <time>2011-05-29T07:41:24Z</time>
      </trkpt>
      <trkpt lat="43.64237" lon="3.70155">
        <ele>111.7</ele>
        <time>2011-05-29T07:41:25Z</time>
      </trkpt>
      <trkpt lat="43.64246" lon="3.70148">
        <ele>111.7</ele>
        <time>2011-05-29T07:41:26Z</time>
      </trkpt>
      <trkpt lat="43.64255" lon="3.7014">
        <ele>111.6</ele>
        <time>2011-05-29T07:41:27Z</time>
      </trkpt>
      <trkpt lat="43.64262" lon="3.7013">
        <ele>111.5</ele>
        <time>2011-05-29T07:41:28Z</time>
      </trkpt>
      <trkpt lat="43.64267" lon="3.70119">
        <ele>111.5</ele>
        <time>2011-05-29T07:41:29Z</time>
      </trkpt>
      <trkpt lat="43.64273" lon="3.7011">
        <ele>111.5</ele>
        <time>2011-05-29T07:41:30Z</time>
      </trkpt>
      <trkpt lat="43.6428" lon="3.70103">
        <ele>111.6</ele>
        <time>2011-05-29T07:41:31Z</time>
      </trkpt>
      <trkpt lat="43.64286" lon="3.70096">
        <ele>111.7</ele>
        <time>2011-05-29T07:41:32Z</time>
      </trkpt>
      <trkpt lat="43.64291" lon="3.70091">
        <ele>111.9</ele>
        <time>2011-05-29T07:41:33Z</time>
      </trkpt>
      <trkpt lat="43.64296" lon="3.70085">
        <ele>112.1</ele>
        <time>2011-05-29T07:41:34Z</time>
      </trkpt>
      <trkpt lat="43.64301" lon="3.70081">
        <ele>112.3</ele>
        <time>2011-05-29T07:41:35Z</time>
      </trkpt>
      <trkpt lat="43.64306" lon="3.70076">
        <ele>112.4</ele>
        <time>2011-05-29T07:41:36Z</time>
      </trkpt>
      <trkpt lat="43.6431" lon="3.70072">
        <ele>112.6</ele>
        <time>2011-05-29T07:41:37Z</time>
      </trkpt>
      <trkpt lat="43.64314" lon="3.70068">
        <ele>112.7</ele>
        <time>2011-05-29T07:41:38Z</time>
      </trkpt>
      <trkpt lat="43.64318" lon="3.70064">
        <ele>112.9</ele>
        <time>2011-05-29T07:41:39Z</time>
      </trkpt>
      <trkpt lat="43.64322" lon="3.7006">
        <ele>113</ele>
        <time>2011-05-29T07:41:40Z</time>
      </trkpt>
      <trkpt lat="43.64326" lon="3.70056">
        <ele>113.1</ele>
        <time>2011-05-29T07:41:41Z</time>
      </trkpt>
      <trkpt lat="43.6433" lon="3.70053">
        <ele>113.3</ele>
        <time>2011-05-29T07:41:42Z</time>
      </trkpt>
      <trkpt lat="43.64334" lon="3.70049">
        <ele>113.4</ele>
        <time>2011-05-29T07:41:43Z</time>
      </trkpt>
      <trkpt lat="43.64338" lon="3.70046">
        <ele>113.5</ele>
        <time>2011-05-29T07:41:44Z</time>
      </trkpt>
      <trkpt lat="43.64342" lon="3.70043">
        <ele>113.5</ele>
        <time>2011-05-29T07:41:45Z</time>
      </trkpt>
      <trkpt lat="43.64346" lon="3.70039">
        <ele>113.6</ele>
        <time>2011-05-29T07:41:46Z</time>
      </trkpt>
      <trkpt lat="43.6435" lon="3.70036">
        <ele>113.7</ele>
        <time>2011-05-29T07:41:47Z</time>
      </trkpt>
      <trkpt lat="43.64354" lon="3.70033">
        <ele>113.8</ele>
        <time>2011-05-29T07:41:48Z</time>
      </trkpt>
      <trkpt lat="43.64358" lon="3.70029">
        <ele>113.8</ele>
        <time>2011-05-29T07:41:49Z</time>
      </trkpt>
      <trkpt lat="43.64363" lon="3.70026">
        <ele>113.9</ele>
        <time>2011-05-29T07:41:50Z</time>
      </trkpt>
      <trkpt lat="43.64367" lon="3.70022">
        <ele>114</ele>
        <time>2011-05-29T07:41:51Z</time>
      </trkpt>
      <trkpt lat="43.64372" lon="3.70019">
        <ele>114.1</ele>
        <time>2011-05-29T07:41:52Z</time>
      </trkpt>
      <trkpt lat="43.64376" lon="3.70015">
        <ele>114.2</ele>
        <time>2011-05-29T07:41:53Z</time>
      </trkpt>
      <trkpt lat="43.64381" lon="3.70012">
        <ele>114.3</ele>
        <time>2011-05-29T07:41:54Z</time>
      </trkpt>
      <trkpt lat="43.64386" lon="3.70009">
        <ele>114.4</ele>
        <time>2011-05-29T07:41:55Z</time>
      </trkpt>
      <trkpt lat="43.64391" lon="3.70007">
        <ele>114.6</ele>
        <time>2011-05-29T07:41:56Z</time>
      </trkpt>
      <trkpt lat="43.64397" lon="3.70004">
        <ele>114.7</ele>
        <time>2011-05-29T07:41:57Z</time>
      </trkpt>
      <trkpt lat="43.64404" lon="3.70001">
        <ele>114.8</ele>
        <time>2011-05-29T07:41:58Z</time>
      </trkpt>
      <trkpt lat="43.6441" lon="3.69999">
        <ele>114.9</ele>
        <time>2011-05-29T07:41:59Z</time>
      </trkpt>
      <trkpt lat="43.64417" lon="3.69996">
        <ele>115</ele>
        <time>2011-05-29T07:42:00Z</time>
      </trkpt>
      <trkpt lat="43.64424" lon="3.69994">
        <ele>114.6</ele>
        <time>2011-05-29T07:42:01Z</time>
      </trkpt>
      <trkpt lat="43.6443" lon="3.69993">
        <ele>114.3</ele>
        <time>2011-05-29T07:42:02Z</time>
      </trkpt>
      <trkpt lat="43.64437" lon="3.69992">
        <ele>113.9</ele>
        <time>2011-05-29T07:42:03Z</time>
      </trkpt>
      <trkpt lat="43.64443" lon="3.69991">
        <ele>113.6</ele>
        <time>2011-05-29T07:42:04Z</time>
      </trkpt>
      <trkpt lat="43.64449" lon="3.6999">
        <ele>113.3</ele>
        <time>2011-05-29T07:42:05Z</time>
      </trkpt>
      <trkpt lat="43.64455" lon="3.69988">
        <ele>113</ele>
        <time>2011-05-29T07:42:06Z</time>
      </trkpt>
      <trkpt lat="43.6446" lon="3.69985">
        <ele>112.8</ele>
        <time>2011-05-29T07:42:07Z</time>
      </trkpt>
      <trkpt lat="43.64465" lon="3.69982">
        <ele>112.6</ele>
        <time>2011-05-29T07:42:08Z</time>
      </trkpt>
      <trkpt lat="43.64471" lon="3.6998">
        <ele>112.4</ele>
        <time>2011-05-29T07:42:09Z</time>
      </trkpt>
      <trkpt lat="43.64475" lon="3.69977">
        <ele>112.3</ele>
        <time>2011-05-29T07:42:10Z</time>
      </trkpt>
      <trkpt lat="43.6448" lon="3.69974">
        <ele>112.1</ele>
        <time>2011-05-29T07:42:11Z</time>
      </trkpt>
      <trkpt lat="43.64485" lon="3.69972">
        <ele>112</ele>
        <time>2011-05-29T07:42:12Z</time>
      </trkpt>
      <trkpt lat="43.64489" lon="3.6997">
        <ele>111.9</ele>
        <time>2011-05-29T07:42:13Z</time>
      </trkpt>
      <trkpt lat="43.64494" lon="3.69968">
        <ele>111.8</ele>
        <time>2011-05-29T07:42:14Z</time>
      </trkpt>
      <trkpt lat="43.64499" lon="3.69965">
        <ele>111.7</ele>
        <time>2011-05-29T07:42:15Z</time>
      </trkpt>
      <trkpt lat="43.64504" lon="3.69963">
        <ele>111.9</ele>
        <time>2011-05-29T07:42:16Z</time>
      </trkpt>
      <trkpt lat="43.64509" lon="3.69961">
        <ele>112.1</ele>
        <time>2011-05-29T07:42:17Z</time>
      </trkpt>
      <trkpt lat="43.64514" lon="3.69958">
        <ele>112.3</ele>
        <time>2011-05-29T07:42:18Z</time>
      </trkpt>
      <trkpt lat="43.64519" lon="3.69956">
        <ele>112.5</ele>
        <time>2011-05-29T07:42:19Z</time>
      </trkpt>
      <trkpt lat="43.64524" lon="3.69954">
        <ele>112.7</ele>
        <time>2011-05-29T07:42:20Z</time>
      </trkpt>
      <trkpt lat="43.64529" lon="3.69952">
        <ele>112.9</ele>
        <time>2011-05-29T07:42:21Z</time>
      </trkpt>
      <trkpt lat="43.64533" lon="3.69949">
        <ele>113.1</ele>
        <time>2011-05-29T07:42:22Z</time>
      </trkpt>
      <trkpt lat="43.64538" lon="3.69947">
        <ele>113.3</ele>
        <time>2011-05-29T07:42:23Z</time>
      </trkpt>
      <trkpt lat="43.64543" lon="3.69945">
        <ele>113.5</ele>
        <time>2011-05-29T07:42:24Z</time>
      </trkpt>
      <trkpt lat="43.64548" lon="3.69943">
        <ele>113.7</ele>
        <time>2011-05-29T07:42:25Z</time>
      </trkpt>
      <trkpt lat="43.64553" lon="3.69941">
        <ele>113.8</ele>
        <time>2011-05-29T07:42:26Z</time>
      </trkpt>
      <trkpt lat="43.64558" lon="3.6994">
        <ele>114</ele>
        <time>2011-05-29T07:42:27Z</time>
      </trkpt>
      <trkpt lat="43.64562" lon="3.69939">
        <ele>114.1</ele>
        <time>2011-05-29T07:42:28Z</time>
      </trkpt>
      <trkpt lat="43.64567" lon="3.69939">
        <ele>114.2</ele>
        <time>2011-05-29T07:42:29Z</time>
      </trkpt>
      <trkpt lat="43.64572" lon="3.6994">
        <ele>114.2</ele>
        <time>2011-05-29T07:42:30Z</time>
      </trkpt>
      <trkpt lat="43.64576" lon="3.69941">
        <ele>114.3</ele>
        <time>2011-05-29T07:42:31Z</time>
      </trkpt>
      <trkpt lat="43.64581" lon="3.69941">
        <ele>114.4</ele>
        <time>2011-05-29T07:42:32Z</time>
      </trkpt>
      <trkpt lat="43.64586" lon="3.69941">
        <ele>114.5</ele>
        <time>2011-05-29T07:42:33Z</time>
      </trkpt>
      <trkpt lat="43.6459" lon="3.6994">
        <ele>114.8</ele>
        <time>2011-05-29T07:42:34Z</time>
      </trkpt>
      <trkpt lat="43.64595" lon="3.69939">
        <ele>115</ele>
        <time>2011-05-29T07:42:35Z</time>
      </trkpt>
      <trkpt lat="43.646" lon="3.69937">
        <ele>115.3</ele>
        <time>2011-05-29T07:42:36Z</time>
      </trkpt>
      <trkpt lat="43.64605" lon="3.69935">
        <ele>115.5</ele>
        <time>2011-05-29T07:42:37Z</time>
      </trkpt>
      <trkpt lat="43.64609" lon="3.69933">
        <ele>115.8</ele>
        <time>2011-05-29T07:42:38Z</time>
      </trkpt>
      <trkpt lat="43.64614" lon="3.69932">
        <ele>116</ele>
        <time>2011-05-29T07:42:39Z</time>
      </trkpt>
      <trkpt lat="43.64618" lon="3.6993">
        <ele>116.2</ele>
        <time>2011-05-29T07:42:40Z</time>
      </trkpt>
      <trkpt lat="43.64627" lon="3.69927">
        <ele>116.6</ele>
        <time>2011-05-29T07:42:42Z</time>
      </trkpt>
      <trkpt lat="43.64634" lon="3.69924">
        <ele>116.9</ele>
        <time>2011-05-29T07:42:44Z</time>
      </trkpt>
      <trkpt lat="43.64642" lon="3.6992">
        <ele>117.1</ele>
        <time>2011-05-29T07:42:46Z</time>
      </trkpt>
      <trkpt lat="43.64649" lon="3.69917">
        <ele>117.4</ele>
        <time>2011-05-29T07:42:48Z</time>
      </trkpt>
      <trkpt lat="43.64656" lon="3.69914">
        <ele>117.6</ele>
        <time>2011-05-29T07:42:50Z</time>
      </trkpt>
      <trkpt lat="43.64663" lon="3.69913">
        <ele>117.8</ele>
        <time>2011-05-29T07:42:52Z</time>
      </trkpt>
      <trkpt lat="43.64669" lon="3.6991">
        <ele>118.1</ele>
        <time>2011-05-29T07:42:54Z</time>
      </trkpt>
      <trkpt lat="43.64676" lon="3.69906">
        <ele>118.4</ele>
        <time>2011-05-29T07:42:56Z</time>
      </trkpt>
      <trkpt lat="43.64683" lon="3.69901">
        <ele>118.8</ele>
        <time>2011-05-29T07:42:58Z</time>
      </trkpt>
      <trkpt lat="43.64691" lon="3.69897">
        <ele>119.2</ele>
        <time>2011-05-29T07:43:00Z</time>
      </trkpt>
      <trkpt lat="43.64699" lon="3.69892">
        <ele>119.6</ele>
        <time>2011-05-29T07:43:02Z</time>
      </trkpt>
      <trkpt lat="43.64703" lon="3.69889">
        <ele>119.9</ele>
        <time>2011-05-29T07:43:03Z</time>
      </trkpt>
      <trkpt lat="43.64708" lon="3.69887">
        <ele>120.1</ele>
        <time>2011-05-29T07:43:04Z</time>
      </trkpt>
      <trkpt lat="43.64712" lon="3.69884">
        <ele>120.3</ele>
        <time>2011-05-29T07:43:05Z</time>
      </trkpt>
      <trkpt lat="43.6472" lon="3.6988">
        <ele>120.8</ele>
        <time>2011-05-29T07:43:07Z</time>
      </trkpt>
      <trkpt lat="43.64725" lon="3.69878">
        <ele>121</ele>
        <time>2011-05-29T07:43:08Z</time>
      </trkpt>
      <trkpt lat="43.64729" lon="3.69876">
        <ele>121.2</ele>
        <time>2011-05-29T07:43:09Z</time>
      </trkpt>
      <trkpt lat="43.64733" lon="3.69874">
        <ele>121.5</ele>
        <time>2011-05-29T07:43:10Z</time>
      </trkpt>
      <trkpt lat="43.64738" lon="3.69872">
        <ele>121.7</ele>
        <time>2011-05-29T07:43:11Z</time>
      </trkpt>
      <trkpt lat="43.64746" lon="3.69868">
        <ele>122.2</ele>
        <time>2011-05-29T07:43:13Z</time>
      </trkpt>
      <trkpt lat="43.64751" lon="3.69866">
        <ele>122.4</ele>
        <time>2011-05-29T07:43:14Z</time>
      </trkpt>
      <trkpt lat="43.64759" lon="3.69863">
        <ele>122.7</ele>
        <time>2011-05-29T07:43:16Z</time>
      </trkpt>
      <trkpt lat="43.64764" lon="3.69861">
        <ele>122.8</ele>
        <time>2011-05-29T07:43:17Z</time>
      </trkpt>
      <trkpt lat="43.64769" lon="3.69859">
        <ele>123</ele>
        <time>2011-05-29T07:43:18Z</time>
      </trkpt>
      <trkpt lat="43.64773" lon="3.69858">
        <ele>123.2</ele>
        <time>2011-05-29T07:43:19Z</time>
      </trkpt>
      <trkpt lat="43.64778" lon="3.69857">
        <ele>123.3</ele>
        <time>2011-05-29T07:43:20Z</time>
      </trkpt>
      <trkpt lat="43.64783" lon="3.69855">
        <ele>123.5</ele>
        <time>2011-05-29T07:43:21Z</time>
      </trkpt>
      <trkpt lat="43.64788" lon="3.69854">
        <ele>123.7</ele>
        <time>2011-05-29T07:43:22Z</time>
      </trkpt>
      <trkpt lat="43.64793" lon="3.69853">
        <ele>123.9</ele>
        <time>2011-05-29T07:43:23Z</time>
      </trkpt>
      <trkpt lat="43.64798" lon="3.69852">
        <ele>124.1</ele>
        <time>2011-05-29T07:43:24Z</time>
      </trkpt>
      <trkpt lat="43.64802" lon="3.69851">
        <ele>124.3</ele>
        <time>2011-05-29T07:43:25Z</time>
      </trkpt>
      <trkpt lat="43.64807" lon="3.6985">
        <ele>124.5</ele>
        <time>2011-05-29T07:43:26Z</time>
      </trkpt>
      <trkpt lat="43.64812" lon="3.69849">
        <ele>124.7</ele>
        <time>2011-05-29T07:43:27Z</time>
      </trkpt>
      <trkpt lat="43.64816" lon="3.69848">
        <ele>124.9</ele>
        <time>2011-05-29T07:43:28Z</time>
      </trkpt>
      <trkpt lat="43.64821" lon="3.69847">
        <ele>125.1</ele>
        <time>2011-05-29T07:43:29Z</time>
      </trkpt>
      <trkpt lat="43.6483" lon="3.69844">
        <ele>125.6</ele>
        <time>2011-05-29T07:43:31Z</time>
      </trkpt>
      <trkpt lat="43.64837" lon="3.69842">
        <ele>125.9</ele>
        <time>2011-05-29T07:43:33Z</time>
      </trkpt>
      <trkpt lat="43.64845" lon="3.69841">
        <ele>126.1</ele>
        <time>2011-05-29T07:43:36Z</time>
      </trkpt>
      <trkpt lat="43.64852" lon="3.69839">
        <ele>126.3</ele>
        <time>2011-05-29T07:43:39Z</time>
      </trkpt>
      <trkpt lat="43.64859" lon="3.69837">
        <ele>126.5</ele>
        <time>2011-05-29T07:43:42Z</time>
      </trkpt>
      <trkpt lat="43.64865" lon="3.69835">
        <ele>126.7</ele>
        <time>2011-05-29T07:43:45Z</time>
      </trkpt>
      <trkpt lat="43.64873" lon="3.69836">
        <ele>126.9</ele>
        <time>2011-05-29T07:43:48Z</time>
      </trkpt>
      <trkpt lat="43.64881" lon="3.69837">
        <ele>127.1</ele>
        <time>2011-05-29T07:43:51Z</time>
      </trkpt>
      <trkpt lat="43.64889" lon="3.69838">
        <ele>127.2</ele>
        <time>2011-05-29T07:43:54Z</time>
      </trkpt>
      <trkpt lat="43.64895" lon="3.69838">
        <ele>127.4</ele>
        <time>2011-05-29T07:43:56Z</time>
      </trkpt>
      <trkpt lat="43.64902" lon="3.69838">
        <ele>127.5</ele>
        <time>2011-05-29T07:43:58Z</time>
      </trkpt>
      <trkpt lat="43.64908" lon="3.69838">
        <ele>127.7</ele>
        <time>2011-05-29T07:44:00Z</time>
      </trkpt>
      <trkpt lat="43.64914" lon="3.69838">
        <ele>127.8</ele>
        <time>2011-05-29T07:44:02Z</time>
      </trkpt>
      <trkpt lat="43.64921" lon="3.69838">
        <ele>127.7</ele>
        <time>2011-05-29T07:44:04Z</time>
      </trkpt>
      <trkpt lat="43.64928" lon="3.6984">
        <ele>127.4</ele>
        <time>2011-05-29T07:44:06Z</time>
      </trkpt>
      <trkpt lat="43.64935" lon="3.69843">
        <ele>127.1</ele>
        <time>2011-05-29T07:44:08Z</time>
      </trkpt>
      <trkpt lat="43.64939" lon="3.69843">
        <ele>127</ele>
        <time>2011-05-29T07:44:09Z</time>
      </trkpt>
      <trkpt lat="43.64949" lon="3.69843">
        <ele>126.6</ele>
        <time>2011-05-29T07:44:12Z</time>
      </trkpt>
      <trkpt lat="43.64958" lon="3.69841">
        <ele>126.4</ele>
        <time>2011-05-29T07:44:18Z</time>
      </trkpt>
      <trkpt lat="43.64964" lon="3.69832">
        <ele>126.3</ele>
        <time>2011-05-29T07:46:37Z</time>
      </trkpt>
      <trkpt lat="43.64965" lon="3.69831">
        <ele>126.3</ele>
        <time>2011-05-29T07:46:38Z</time>
      </trkpt>
      <trkpt lat="43.64977" lon="3.69818">
        <ele>126.2</ele>
        <time>2011-05-29T07:46:46Z</time>
      </trkpt>
      <trkpt lat="43.64984" lon="3.69814">
        <ele>126.1</ele>
        <time>2011-05-29T07:46:49Z</time>
      </trkpt>
      <trkpt lat="43.64991" lon="3.69809">
        <ele>125.9</ele>
        <time>2011-05-29T07:46:52Z</time>
      </trkpt>
      <trkpt lat="43.64999" lon="3.69802">
        <ele>125.8</ele>
        <time>2011-05-29T07:46:55Z</time>
      </trkpt>
      <trkpt lat="43.65005" lon="3.69798">
        <ele>126</ele>
        <time>2011-05-29T07:46:57Z</time>
      </trkpt>
      <trkpt lat="43.65011" lon="3.69794">
        <ele>126.4</ele>
        <time>2011-05-29T07:46:59Z</time>
      </trkpt>
      <trkpt lat="43.65018" lon="3.69789">
        <ele>126.7</ele>
        <time>2011-05-29T07:47:01Z</time>
      </trkpt>
      <trkpt lat="43.65025" lon="3.69784">
        <ele>127</ele>
        <time>2011-05-29T07:47:03Z</time>
      </trkpt>
      <trkpt lat="43.65032" lon="3.69778">
        <ele>127.2</ele>
        <time>2011-05-29T07:47:05Z</time>
      </trkpt>
      <trkpt lat="43.65039" lon="3.69773">
        <ele>127.4</ele>
        <time>2011-05-29T07:47:07Z</time>
      </trkpt>
      <trkpt lat="43.65046" lon="3.69768">
        <ele>127.6</ele>
        <time>2011-05-29T07:47:09Z</time>
      </trkpt>
      <trkpt lat="43.65053" lon="3.69762">
        <ele>127.7</ele>
        <time>2011-05-29T07:47:11Z</time>
      </trkpt>
      <trkpt lat="43.6506" lon="3.69756">
        <ele>127.8</ele>
        <time>2011-05-29T07:47:13Z</time>
      </trkpt>
      <trkpt lat="43.65067" lon="3.69751">
        <ele>127.8</ele>
        <time>2011-05-29T07:47:15Z</time>
      </trkpt>
      <trkpt lat="43.65075" lon="3.69746">
        <ele>127.9</ele>
        <time>2011-05-29T07:47:17Z</time>
      </trkpt>
      <trkpt lat="43.65081" lon="3.6974">
        <ele>128.1</ele>
        <time>2011-05-29T07:47:19Z</time>
      </trkpt>
      <trkpt lat="43.65088" lon="3.69735">
        <ele>128.4</ele>
        <time>2011-05-29T07:47:21Z</time>
      </trkpt>
      <trkpt lat="43.65095" lon="3.6973">
        <ele>128.7</ele>
        <time>2011-05-29T07:47:23Z</time>
      </trkpt>
      <trkpt lat="43.65102" lon="3.69725">
        <ele>129</ele>
        <time>2011-05-29T07:47:25Z</time>
      </trkpt>
      <trkpt lat="43.65109" lon="3.69722">
        <ele>129.3</ele>
        <time>2011-05-29T07:47:27Z</time>
      </trkpt>
      <trkpt lat="43.65116" lon="3.6972">
        <ele>129.5</ele>
        <time>2011-05-29T07:47:29Z</time>
      </trkpt>
      <trkpt lat="43.65123" lon="3.69718">
        <ele>129.8</ele>
        <time>2011-05-29T07:47:31Z</time>
      </trkpt>
      <trkpt lat="43.6513" lon="3.69718">
        <ele>130</ele>
        <time>2011-05-29T07:47:33Z</time>
      </trkpt>
      <trkpt lat="43.65136" lon="3.69719">
        <ele>130.3</ele>
        <time>2011-05-29T07:47:35Z</time>
      </trkpt>
      <trkpt lat="43.65143" lon="3.6972">
        <ele>130.5</ele>
        <time>2011-05-29T07:47:37Z</time>
      </trkpt>
      <trkpt lat="43.6515" lon="3.69722">
        <ele>130.7</ele>
        <time>2011-05-29T07:47:39Z</time>
      </trkpt>
      <trkpt lat="43.65154" lon="3.69723">
        <ele>130.9</ele>
        <time>2011-05-29T07:47:40Z</time>
      </trkpt>
      <trkpt lat="43.65166" lon="3.69729">
        <ele>131.2</ele>
        <time>2011-05-29T07:47:43Z</time>
      </trkpt>
      <trkpt lat="43.6517" lon="3.69731">
        <ele>131</ele>
        <time>2011-05-29T07:47:44Z</time>
      </trkpt>
      <trkpt lat="43.65175" lon="3.69734">
        <ele>130.8</ele>
        <time>2011-05-29T07:47:45Z</time>
      </trkpt>
      <trkpt lat="43.65179" lon="3.69737">
        <ele>130.5</ele>
        <time>2011-05-29T07:47:46Z</time>
      </trkpt>
      <trkpt lat="43.65187" lon="3.69743">
        <ele>130.1</ele>
        <time>2011-05-29T07:47:48Z</time>
      </trkpt>
      <trkpt lat="43.65193" lon="3.69749">
        <ele>129.7</ele>
        <time>2011-05-29T07:47:50Z</time>
      </trkpt>
      <trkpt lat="43.65199" lon="3.69754">
        <ele>129.7</ele>
        <time>2011-05-29T07:47:52Z</time>
      </trkpt>
      <trkpt lat="43.65203" lon="3.69757">
        <ele>129.7</ele>
        <time>2011-05-29T07:47:53Z</time>
      </trkpt>
      <trkpt lat="43.65208" lon="3.6976">
        <ele>129.8</ele>
        <time>2011-05-29T07:47:54Z</time>
      </trkpt>
      <trkpt lat="43.65212" lon="3.69763">
        <ele>129.7</ele>
        <time>2011-05-29T07:47:55Z</time>
      </trkpt>
      <trkpt lat="43.65217" lon="3.69767">
        <ele>129.7</ele>
        <time>2011-05-29T07:47:56Z</time>
      </trkpt>
      <trkpt lat="43.65222" lon="3.6977">
        <ele>129.6</ele>
        <time>2011-05-29T07:47:57Z</time>
      </trkpt>
      <trkpt lat="43.65226" lon="3.69772">
        <ele>129.5</ele>
        <time>2011-05-29T07:47:58Z</time>
      </trkpt>
      <trkpt lat="43.65231" lon="3.69776">
        <ele>129.4</ele>
        <time>2011-05-29T07:47:59Z</time>
      </trkpt>
      <trkpt lat="43.65236" lon="3.69779">
        <ele>129.3</ele>
        <time>2011-05-29T07:48:00Z</time>
      </trkpt>
      <trkpt lat="43.65241" lon="3.69782">
        <ele>129.2</ele>
        <time>2011-05-29T07:48:01Z</time>
      </trkpt>
      <trkpt lat="43.65246" lon="3.69786">
        <ele>129</ele>
        <time>2011-05-29T07:48:02Z</time>
      </trkpt>
      <trkpt lat="43.65252" lon="3.69789">
        <ele>128.8</ele>
        <time>2011-05-29T07:48:03Z</time>
      </trkpt>
      <trkpt lat="43.65257" lon="3.69793">
        <ele>128.4</ele>
        <time>2011-05-29T07:48:04Z</time>
      </trkpt>
      <trkpt lat="43.65263" lon="3.69796">
        <ele>128.1</ele>
        <time>2011-05-29T07:48:05Z</time>
      </trkpt>
      <trkpt lat="43.65269" lon="3.69799">
        <ele>127.7</ele>
        <time>2011-05-29T07:48:06Z</time>
      </trkpt>
      <trkpt lat="43.65274" lon="3.69803">
        <ele>127.3</ele>
        <time>2011-05-29T07:48:07Z</time>
      </trkpt>
      <trkpt lat="43.6528" lon="3.69806">
        <ele>126.9</ele>
        <time>2011-05-29T07:48:08Z</time>
      </trkpt>
      <trkpt lat="43.65286" lon="3.6981">
        <ele>126.5</ele>
        <time>2011-05-29T07:48:09Z</time>
      </trkpt>
      <trkpt lat="43.65292" lon="3.69814">
        <ele>126</ele>
        <time>2011-05-29T07:48:10Z</time>
      </trkpt>
      <trkpt lat="43.65298" lon="3.69817">
        <ele>125.5</ele>
        <time>2011-05-29T07:48:11Z</time>
      </trkpt>
      <trkpt lat="43.65304" lon="3.69821">
        <ele>124.9</ele>
        <time>2011-05-29T07:48:12Z</time>
      </trkpt>
      <trkpt lat="43.65311" lon="3.69825">
        <ele>124.3</ele>
        <time>2011-05-29T07:48:13Z</time>
      </trkpt>
      <trkpt lat="43.65317" lon="3.69829">
        <ele>123.7</ele>
        <time>2011-05-29T07:48:14Z</time>
      </trkpt>
      <trkpt lat="43.65324" lon="3.69834">
        <ele>123.1</ele>
        <time>2011-05-29T07:48:15Z</time>
      </trkpt>
      <trkpt lat="43.6533" lon="3.69838">
        <ele>122.4</ele>
        <time>2011-05-29T07:48:16Z</time>
      </trkpt>
      <trkpt lat="43.65337" lon="3.69843">
        <ele>122</ele>
        <time>2011-05-29T07:48:17Z</time>
      </trkpt>
      <trkpt lat="43.65344" lon="3.69847">
        <ele>121.8</ele>
        <time>2011-05-29T07:48:18Z</time>
      </trkpt>
      <trkpt lat="43.65351" lon="3.69851">
        <ele>121.6</ele>
        <time>2011-05-29T07:48:19Z</time>
      </trkpt>
      <trkpt lat="43.65358" lon="3.69855">
        <ele>121.4</ele>
        <time>2011-05-29T07:48:20Z</time>
      </trkpt>
      <trkpt lat="43.65365" lon="3.69859">
        <ele>121.2</ele>
        <time>2011-05-29T07:48:21Z</time>
      </trkpt>
      <trkpt lat="43.65371" lon="3.69863">
        <ele>121</ele>
        <time>2011-05-29T07:48:22Z</time>
      </trkpt>
      <trkpt lat="43.65378" lon="3.69866">
        <ele>120.8</ele>
        <time>2011-05-29T07:48:23Z</time>
      </trkpt>
      <trkpt lat="43.65384" lon="3.69869">
        <ele>120.6</ele>
        <time>2011-05-29T07:48:24Z</time>
      </trkpt>
      <trkpt lat="43.65391" lon="3.69871">
        <ele>120.4</ele>
        <time>2011-05-29T07:48:25Z</time>
      </trkpt>
      <trkpt lat="43.65397" lon="3.69871">
        <ele>120.2</ele>
        <time>2011-05-29T07:48:26Z</time>
      </trkpt>
      <trkpt lat="43.65403" lon="3.69871">
        <ele>119.9</ele>
        <time>2011-05-29T07:48:27Z</time>
      </trkpt>
      <trkpt lat="43.65409" lon="3.69869">
        <ele>119.7</ele>
        <time>2011-05-29T07:48:28Z</time>
      </trkpt>
      <trkpt lat="43.65414" lon="3.69867">
        <ele>119.5</ele>
        <time>2011-05-29T07:48:29Z</time>
      </trkpt>
      <trkpt lat="43.65419" lon="3.69864">
        <ele>119.5</ele>
        <time>2011-05-29T07:48:30Z</time>
      </trkpt>
      <trkpt lat="43.65423" lon="3.6986">
        <ele>119.8</ele>
        <time>2011-05-29T07:48:31Z</time>
      </trkpt>
      <trkpt lat="43.65428" lon="3.69856">
        <ele>120.1</ele>
        <time>2011-05-29T07:48:32Z</time>
      </trkpt>
      <trkpt lat="43.65432" lon="3.69853">
        <ele>120.4</ele>
        <time>2011-05-29T07:48:33Z</time>
      </trkpt>
      <trkpt lat="43.65437" lon="3.69849">
        <ele>120.7</ele>
        <time>2011-05-29T07:48:34Z</time>
      </trkpt>
      <trkpt lat="43.65441" lon="3.69846">
        <ele>120.9</ele>
        <time>2011-05-29T07:48:35Z</time>
      </trkpt>
      <trkpt lat="43.65446" lon="3.69842">
        <ele>121.2</ele>
        <time>2011-05-29T07:48:36Z</time>
      </trkpt>
      <trkpt lat="43.6545" lon="3.69838">
        <ele>121.5</ele>
        <time>2011-05-29T07:48:37Z</time>
      </trkpt>
      <trkpt lat="43.65455" lon="3.69835">
        <ele>121.8</ele>
        <time>2011-05-29T07:48:38Z</time>
      </trkpt>
      <trkpt lat="43.6546" lon="3.69832">
        <ele>122.1</ele>
        <time>2011-05-29T07:48:39Z</time>
      </trkpt>
      <trkpt lat="43.65464" lon="3.69828">
        <ele>122.3</ele>
        <time>2011-05-29T07:48:40Z</time>
      </trkpt>
      <trkpt lat="43.65469" lon="3.69825">
        <ele>122.6</ele>
        <time>2011-05-29T07:48:41Z</time>
      </trkpt>
      <trkpt lat="43.65474" lon="3.69822">
        <ele>122.8</ele>
        <time>2011-05-29T07:48:42Z</time>
      </trkpt>
      <trkpt lat="43.65479" lon="3.69818">
        <ele>123</ele>
        <time>2011-05-29T07:48:43Z</time>
      </trkpt>
      <trkpt lat="43.65483" lon="3.69815">
        <ele>123.1</ele>
        <time>2011-05-29T07:48:44Z</time>
      </trkpt>
      <trkpt lat="43.65488" lon="3.69812">
        <ele>123.3</ele>
        <time>2011-05-29T07:48:45Z</time>
      </trkpt>
      <trkpt lat="43.65493" lon="3.69808">
        <ele>123.4</ele>
        <time>2011-05-29T07:48:46Z</time>
      </trkpt>
      <trkpt lat="43.65498" lon="3.69805">
        <ele>123.5</ele>
        <time>2011-05-29T07:48:47Z</time>
      </trkpt>
      <trkpt lat="43.65503" lon="3.69801">
        <ele>123.5</ele>
        <time>2011-05-29T07:48:48Z</time>
      </trkpt>
      <trkpt lat="43.65507" lon="3.69797">
        <ele>123.4</ele>
        <time>2011-05-29T07:48:49Z</time>
      </trkpt>
      <trkpt lat="43.65512" lon="3.69793">
        <ele>123.3</ele>
        <time>2011-05-29T07:48:50Z</time>
      </trkpt>
      <trkpt lat="43.65517" lon="3.69788">
        <ele>123.3</ele>
        <time>2011-05-29T07:48:51Z</time>
      </trkpt>
      <trkpt lat="43.65521" lon="3.69784">
        <ele>123.2</ele>
        <time>2011-05-29T07:48:52Z</time>
      </trkpt>
      <trkpt lat="43.65525" lon="3.6978">
        <ele>123.2</ele>
        <time>2011-05-29T07:48:53Z</time>
      </trkpt>
      <trkpt lat="43.6553" lon="3.69775">
        <ele>123.2</ele>
        <time>2011-05-29T07:48:54Z</time>
      </trkpt>
      <trkpt lat="43.65534" lon="3.69771">
        <ele>123.2</ele>
        <time>2011-05-29T07:48:55Z</time>
      </trkpt>
      <trkpt lat="43.65538" lon="3.69766">
        <ele>123.2</ele>
        <time>2011-05-29T07:48:56Z</time>
      </trkpt>
      <trkpt lat="43.65542" lon="3.69761">
        <ele>123.3</ele>
        <time>2011-05-29T07:48:57Z</time>
      </trkpt>
      <trkpt lat="43.65546" lon="3.69756">
        <ele>123.3</ele>
        <time>2011-05-29T07:48:58Z</time>
      </trkpt>
      <trkpt lat="43.65549" lon="3.69751">
        <ele>123.4</ele>
        <time>2011-05-29T07:48:59Z</time>
      </trkpt>
      <trkpt lat="43.65553" lon="3.69747">
        <ele>123.5</ele>
        <time>2011-05-29T07:49:00Z</time>
      </trkpt>
      <trkpt lat="43.65557" lon="3.69742">
        <ele>123.7</ele>
        <time>2011-05-29T07:49:01Z</time>
      </trkpt>
      <trkpt lat="43.65561" lon="3.69738">
        <ele>123.9</ele>
        <time>2011-05-29T07:49:02Z</time>
      </trkpt>
      <trkpt lat="43.65564" lon="3.69733">
        <ele>124.1</ele>
        <time>2011-05-29T07:49:03Z</time>
      </trkpt>
      <trkpt lat="43.65568" lon="3.69729">
        <ele>124.3</ele>
        <time>2011-05-29T07:49:04Z</time>
      </trkpt>
      <trkpt lat="43.65573" lon="3.69724">
        <ele>124.5</ele>
        <time>2011-05-29T07:49:05Z</time>
      </trkpt>
      <trkpt lat="43.65577" lon="3.69719">
        <ele>124.7</ele>
        <time>2011-05-29T07:49:06Z</time>
      </trkpt>
      <trkpt lat="43.65581" lon="3.69715">
        <ele>124.9</ele>
        <time>2011-05-29T07:49:07Z</time>
      </trkpt>
      <trkpt lat="43.65586" lon="3.69711">
        <ele>124.9</ele>
        <time>2011-05-29T07:49:08Z</time>
      </trkpt>
      <trkpt lat="43.65591" lon="3.69707">
        <ele>124.8</ele>
        <time>2011-05-29T07:49:09Z</time>
      </trkpt>
      <trkpt lat="43.65596" lon="3.69703">
        <ele>124.6</ele>
        <time>2011-05-29T07:49:10Z</time>
      </trkpt>
      <trkpt lat="43.65601" lon="3.697">
        <ele>124.5</ele>
        <time>2011-05-29T07:49:11Z</time>
      </trkpt>
      <trkpt lat="43.65606" lon="3.69697">
        <ele>124.3</ele>
        <time>2011-05-29T07:49:12Z</time>
      </trkpt>
      <trkpt lat="43.65612" lon="3.69694">
        <ele>124.1</ele>
        <time>2011-05-29T07:49:13Z</time>
      </trkpt>
      <trkpt lat="43.65618" lon="3.69692">
        <ele>123.9</ele>
        <time>2011-05-29T07:49:14Z</time>
      </trkpt>
      <trkpt lat="43.65624" lon="3.69691">
        <ele>123.7</ele>
        <time>2011-05-29T07:49:15Z</time>
      </trkpt>
      <trkpt lat="43.6563" lon="3.6969">
        <ele>123.5</ele>
        <time>2011-05-29T07:49:16Z</time>
      </trkpt>
      <trkpt lat="43.65636" lon="3.69689">
        <ele>123.3</ele>
        <time>2011-05-29T07:49:17Z</time>
      </trkpt>
      <trkpt lat="43.65643" lon="3.69689">
        <ele>123.1</ele>
        <time>2011-05-29T07:49:18Z</time>
      </trkpt>
      <trkpt lat="43.65649" lon="3.69688">
        <ele>122.8</ele>
        <time>2011-05-29T07:49:19Z</time>
      </trkpt>
      <trkpt lat="43.65656" lon="3.69688">
        <ele>122.6</ele>
        <time>2011-05-29T07:49:20Z</time>
      </trkpt>
      <trkpt lat="43.65662" lon="3.69688">
        <ele>122.4</ele>
        <time>2011-05-29T07:49:21Z</time>
      </trkpt>
      <trkpt lat="43.65669" lon="3.69687">
        <ele>122.2</ele>
        <time>2011-05-29T07:49:22Z</time>
      </trkpt>
      <trkpt lat="43.65675" lon="3.69687">
        <ele>122.1</ele>
        <time>2011-05-29T07:49:23Z</time>
      </trkpt>
      <trkpt lat="43.65682" lon="3.69686">
        <ele>122.1</ele>
        <time>2011-05-29T07:49:24Z</time>
      </trkpt>
      <trkpt lat="43.65688" lon="3.69686">
        <ele>122</ele>
        <time>2011-05-29T07:49:25Z</time>
      </trkpt>
      <trkpt lat="43.65695" lon="3.69685">
        <ele>121.9</ele>
        <time>2011-05-29T07:49:26Z</time>
      </trkpt>
      <trkpt lat="43.65701" lon="3.69684">
        <ele>121.8</ele>
        <time>2011-05-29T07:49:27Z</time>
      </trkpt>
      <trkpt lat="43.65708" lon="3.69683">
        <ele>121.7</ele>
        <time>2011-05-29T07:49:28Z</time>
      </trkpt>
      <trkpt lat="43.65714" lon="3.69683">
        <ele>121.6</ele>
        <time>2011-05-29T07:49:29Z</time>
      </trkpt>
      <trkpt lat="43.65721" lon="3.69682">
        <ele>121.5</ele>
        <time>2011-05-29T07:49:30Z</time>
      </trkpt>
      <trkpt lat="43.65727" lon="3.69681">
        <ele>121.4</ele>
        <time>2011-05-29T07:49:31Z</time>
      </trkpt>
      <trkpt lat="43.65733" lon="3.6968">
        <ele>121.4</ele>
        <time>2011-05-29T07:49:32Z</time>
      </trkpt>
      <trkpt lat="43.65739" lon="3.69679">
        <ele>121.3</ele>
        <time>2011-05-29T07:49:33Z</time>
      </trkpt>
      <trkpt lat="43.65745" lon="3.69679">
        <ele>121.2</ele>
        <time>2011-05-29T07:49:34Z</time>
      </trkpt>
      <trkpt lat="43.65752" lon="3.69679">
        <ele>121.2</ele>
        <time>2011-05-29T07:49:35Z</time>
      </trkpt>
      <trkpt lat="43.65758" lon="3.6968">
        <ele>121.2</ele>
        <time>2011-05-29T07:49:36Z</time>
      </trkpt>
      <trkpt lat="43.65764" lon="3.69681">
        <ele>121.3</ele>
        <time>2011-05-29T07:49:37Z</time>
      </trkpt>
      <trkpt lat="43.6577" lon="3.69681">
        <ele>121.4</ele>
        <time>2011-05-29T07:49:38Z</time>
      </trkpt>
      <trkpt lat="43.65775" lon="3.69682">
        <ele>121.5</ele>
        <time>2011-05-29T07:49:39Z</time>
      </trkpt>
      <trkpt lat="43.65781" lon="3.69683">
        <ele>121.6</ele>
        <time>2011-05-29T07:49:40Z</time>
      </trkpt>
      <trkpt lat="43.65787" lon="3.69685">
        <ele>121.7</ele>
        <time>2011-05-29T07:49:41Z</time>
      </trkpt>
      <trkpt lat="43.65793" lon="3.69686">
        <ele>121.8</ele>
        <time>2011-05-29T07:49:42Z</time>
      </trkpt>
      <trkpt lat="43.65799" lon="3.69688">
        <ele>121.8</ele>
        <time>2011-05-29T07:49:43Z</time>
      </trkpt>
      <trkpt lat="43.65805" lon="3.69691">
        <ele>121.9</ele>
        <time>2011-05-29T07:49:44Z</time>
      </trkpt>
      <trkpt lat="43.6581" lon="3.69695">
        <ele>122.1</ele>
        <time>2011-05-29T07:49:45Z</time>
      </trkpt>
      <trkpt lat="43.65815" lon="3.69701">
        <ele>122.2</ele>
        <time>2011-05-29T07:49:46Z</time>
      </trkpt>
      <trkpt lat="43.65819" lon="3.69708">
        <ele>122.3</ele>
        <time>2011-05-29T07:49:47Z</time>
      </trkpt>
      <trkpt lat="43.65822" lon="3.69716">
        <ele>122.5</ele>
        <time>2011-05-29T07:49:48Z</time>
      </trkpt>
      <trkpt lat="43.65826" lon="3.69722">
        <ele>122.6</ele>
        <time>2011-05-29T07:49:49Z</time>
      </trkpt>
      <trkpt lat="43.65833" lon="3.69727">
        <ele>122.7</ele>
        <time>2011-05-29T07:49:51Z</time>
      </trkpt>
      <trkpt lat="43.6584" lon="3.69728">
        <ele>122.8</ele>
        <time>2011-05-29T07:49:53Z</time>
      </trkpt>
      <trkpt lat="43.65848" lon="3.69729">
        <ele>122.9</ele>
        <time>2011-05-29T07:49:55Z</time>
      </trkpt>
      <trkpt lat="43.65856" lon="3.6973">
        <ele>123</ele>
        <time>2011-05-29T07:49:57Z</time>
      </trkpt>
      <trkpt lat="43.65864" lon="3.69732">
        <ele>123.1</ele>
        <time>2011-05-29T07:49:59Z</time>
      </trkpt>
      <trkpt lat="43.65873" lon="3.69735">
        <ele>123.2</ele>
        <time>2011-05-29T07:50:01Z</time>
      </trkpt>
      <trkpt lat="43.65881" lon="3.69737">
        <ele>123.3</ele>
        <time>2011-05-29T07:50:03Z</time>
      </trkpt>
      <trkpt lat="43.65889" lon="3.69738">
        <ele>123.4</ele>
        <time>2011-05-29T07:50:05Z</time>
      </trkpt>
      <trkpt lat="43.65896" lon="3.6974">
        <ele>123.5</ele>
        <time>2011-05-29T07:50:07Z</time>
      </trkpt>
      <trkpt lat="43.65903" lon="3.69741">
        <ele>123.6</ele>
        <time>2011-05-29T07:50:09Z</time>
      </trkpt>
      <trkpt lat="43.6591" lon="3.69743">
        <ele>123.8</ele>
        <time>2011-05-29T07:50:11Z</time>
      </trkpt>
      <trkpt lat="43.65915" lon="3.69747">
        <ele>123.9</ele>
        <time>2011-05-29T07:50:13Z</time>
      </trkpt>
      <trkpt lat="43.65923" lon="3.69755">
        <ele>124.5</ele>
        <time>2011-05-29T07:50:16Z</time>
      </trkpt>
      <trkpt lat="43.65931" lon="3.69759">
        <ele>125</ele>
        <time>2011-05-29T07:50:19Z</time>
      </trkpt>
      <trkpt lat="43.65937" lon="3.69761">
        <ele>125.3</ele>
        <time>2011-05-29T07:50:21Z</time>
      </trkpt>
      <trkpt lat="43.65943" lon="3.69764">
        <ele>125.6</ele>
        <time>2011-05-29T07:50:23Z</time>
      </trkpt>
      <trkpt lat="43.65951" lon="3.69766">
        <ele>126</ele>
        <time>2011-05-29T07:50:26Z</time>
      </trkpt>
      <trkpt lat="43.65957" lon="3.69767">
        <ele>126.2</ele>
        <time>2011-05-29T07:50:28Z</time>
      </trkpt>
      <trkpt lat="43.65966" lon="3.69769">
        <ele>126.6</ele>
        <time>2011-05-29T07:50:31Z</time>
      </trkpt>
      <trkpt lat="43.65974" lon="3.69773">
        <ele>127</ele>
        <time>2011-05-29T07:50:34Z</time>
      </trkpt>
      <trkpt lat="43.65982" lon="3.69777">
        <ele>127.5</ele>
        <time>2011-05-29T07:50:37Z</time>
      </trkpt>
      <trkpt lat="43.65988" lon="3.6978">
        <ele>127.8</ele>
        <time>2011-05-29T07:50:39Z</time>
      </trkpt>
      <trkpt lat="43.65996" lon="3.69785">
        <ele>128.4</ele>
        <time>2011-05-29T07:50:42Z</time>
      </trkpt>
      <trkpt lat="43.65999" lon="3.69787">
        <ele>128.7</ele>
        <time>2011-05-29T07:50:43Z</time>
      </trkpt>
      <trkpt lat="43.66009" lon="3.69801">
        <ele>129.9</ele>
        <time>2011-05-29T07:50:49Z</time>
      </trkpt>
      <trkpt lat="43.66014" lon="3.69807">
        <ele>130.4</ele>
        <time>2011-05-29T07:50:52Z</time>
      </trkpt>
      <trkpt lat="43.66019" lon="3.69815">
        <ele>131.1</ele>
        <time>2011-05-29T07:50:55Z</time>
      </trkpt>
      <trkpt lat="43.66025" lon="3.69822">
        <ele>131.8</ele>
        <time>2011-05-29T07:50:58Z</time>
      </trkpt>
      <trkpt lat="43.66031" lon="3.69828">
        <ele>132.4</ele>
        <time>2011-05-29T07:51:01Z</time>
      </trkpt>
      <trkpt lat="43.66039" lon="3.69833">
        <ele>132.9</ele>
        <time>2011-05-29T07:51:04Z</time>
      </trkpt>
      <trkpt lat="43.66044" lon="3.69841">
        <ele>133.6</ele>
        <time>2011-05-29T07:51:07Z</time>
      </trkpt>
      <trkpt lat="43.6605" lon="3.69848">
        <ele>134.1</ele>
        <time>2011-05-29T07:51:10Z</time>
      </trkpt>
      <trkpt lat="43.66058" lon="3.69853">
        <ele>134.6</ele>
        <time>2011-05-29T07:51:13Z</time>
      </trkpt>
      <trkpt lat="43.66065" lon="3.69858">
        <ele>135.1</ele>
        <time>2011-05-29T07:51:16Z</time>
      </trkpt>
      <trkpt lat="43.66072" lon="3.69865">
        <ele>135.7</ele>
        <time>2011-05-29T07:51:19Z</time>
      </trkpt>
      <trkpt lat="43.66076" lon="3.69871">
        <ele>136.2</ele>
        <time>2011-05-29T07:51:21Z</time>
      </trkpt>
      <trkpt lat="43.66081" lon="3.69878">
        <ele>136.6</ele>
        <time>2011-05-29T07:51:23Z</time>
      </trkpt>
      <trkpt lat="43.66085" lon="3.69884">
        <ele>137</ele>
        <time>2011-05-29T07:51:25Z</time>
      </trkpt>
      <trkpt lat="43.66089" lon="3.69892">
        <ele>137.4</ele>
        <time>2011-05-29T07:51:27Z</time>
      </trkpt>
      <trkpt lat="43.66094" lon="3.69899">
        <ele>137.7</ele>
        <time>2011-05-29T07:51:29Z</time>
      </trkpt>
      <trkpt lat="43.66098" lon="3.69906">
        <ele>138</ele>
        <time>2011-05-29T07:51:31Z</time>
      </trkpt>
      <trkpt lat="43.66103" lon="3.69913">
        <ele>138.3</ele>
        <time>2011-05-29T07:51:33Z</time>
      </trkpt>
      <trkpt lat="43.66107" lon="3.69921">
        <ele>138.7</ele>
        <time>2011-05-29T07:51:35Z</time>
      </trkpt>
      <trkpt lat="43.6611" lon="3.6993">
        <ele>139.2</ele>
        <time>2011-05-29T07:51:37Z</time>
      </trkpt>
      <trkpt lat="43.66113" lon="3.69939">
        <ele>139.8</ele>
        <time>2011-05-29T07:51:39Z</time>
      </trkpt>
      <trkpt lat="43.66115" lon="3.69948">
        <ele>140.4</ele>
        <time>2011-05-29T07:51:41Z</time>
      </trkpt>
      <trkpt lat="43.66118" lon="3.69958">
        <ele>140.9</ele>
        <time>2011-05-29T07:51:43Z</time>
      </trkpt>
      <trkpt lat="43.66119" lon="3.69962">
        <ele>141.2</ele>
        <time>2011-05-29T07:51:44Z</time>
      </trkpt>
      <trkpt lat="43.66125" lon="3.69973">
        <ele>141.8</ele>
        <time>2011-05-29T07:51:47Z</time>
      </trkpt>
      <trkpt lat="43.66129" lon="3.69981">
        <ele>142.1</ele>
        <time>2011-05-29T07:51:49Z</time>
      </trkpt>
      <trkpt lat="43.66133" lon="3.69988">
        <ele>142.4</ele>
        <time>2011-05-29T07:51:51Z</time>
      </trkpt>
      <trkpt lat="43.66138" lon="3.69995">
        <ele>142.7</ele>
        <time>2011-05-29T07:51:53Z</time>
      </trkpt>
      <trkpt lat="43.66143" lon="3.70002">
        <ele>143.1</ele>
        <time>2011-05-29T07:51:55Z</time>
      </trkpt>
      <trkpt lat="43.66147" lon="3.70009">
        <ele>143.7</ele>
        <time>2011-05-29T07:51:57Z</time>
      </trkpt>
      <trkpt lat="43.66152" lon="3.70015">
        <ele>144.2</ele>
        <time>2011-05-29T07:51:59Z</time>
      </trkpt>
      <trkpt lat="43.66157" lon="3.70022">
        <ele>144.8</ele>
        <time>2011-05-29T07:52:01Z</time>
      </trkpt>
      <trkpt lat="43.66162" lon="3.70028">
        <ele>145.2</ele>
        <time>2011-05-29T07:52:03Z</time>
      </trkpt>
      <trkpt lat="43.66168" lon="3.70033">
        <ele>145.6</ele>
        <time>2011-05-29T07:52:05Z</time>
      </trkpt>
      <trkpt lat="43.66173" lon="3.70038">
        <ele>146</ele>
        <time>2011-05-29T07:52:07Z</time>
      </trkpt>
      <trkpt lat="43.66179" lon="3.70041">
        <ele>146.3</ele>
        <time>2011-05-29T07:52:09Z</time>
      </trkpt>
      <trkpt lat="43.66186" lon="3.70043">
        <ele>146.4</ele>
        <time>2011-05-29T07:52:11Z</time>
      </trkpt>
      <trkpt lat="43.66192" lon="3.70046">
        <ele>146.6</ele>
        <time>2011-05-29T07:52:13Z</time>
      </trkpt>
      <trkpt lat="43.66198" lon="3.7005">
        <ele>146.8</ele>
        <time>2011-05-29T07:52:15Z</time>
      </trkpt>
      <trkpt lat="43.66205" lon="3.70053">
        <ele>147</ele>
        <time>2011-05-29T07:52:17Z</time>
      </trkpt>
      <trkpt lat="43.66211" lon="3.70056">
        <ele>147.2</ele>
        <time>2011-05-29T07:52:19Z</time>
      </trkpt>
      <trkpt lat="43.66218" lon="3.7006">
        <ele>147.3</ele>
        <time>2011-05-29T07:52:21Z</time>
      </trkpt>
      <trkpt lat="43.66225" lon="3.70063">
        <ele>147.4</ele>
        <time>2011-05-29T07:52:23Z</time>
      </trkpt>
      <trkpt lat="43.66231" lon="3.70068">
        <ele>147.6</ele>
        <time>2011-05-29T07:52:25Z</time>
      </trkpt>
      <trkpt lat="43.66237" lon="3.70073">
        <ele>147.8</ele>
        <time>2011-05-29T07:52:27Z</time>
      </trkpt>
      <trkpt lat="43.66242" lon="3.70077">
        <ele>147.8</ele>
        <time>2011-05-29T07:52:29Z</time>
      </trkpt>
      <trkpt lat="43.66249" lon="3.70079">
        <ele>147.8</ele>
        <time>2011-05-29T07:52:31Z</time>
      </trkpt>
      <trkpt lat="43.66256" lon="3.70081">
        <ele>147.8</ele>
        <time>2011-05-29T07:52:33Z</time>
      </trkpt>
      <trkpt lat="43.66263" lon="3.70083">
        <ele>147.9</ele>
        <time>2011-05-29T07:52:35Z</time>
      </trkpt>
      <trkpt lat="43.6627" lon="3.70085">
        <ele>148.1</ele>
        <time>2011-05-29T07:52:37Z</time>
      </trkpt>
      <trkpt lat="43.66276" lon="3.70087">
        <ele>148.5</ele>
        <time>2011-05-29T07:52:39Z</time>
      </trkpt>
      <trkpt lat="43.66283" lon="3.7009">
        <ele>148.8</ele>
        <time>2011-05-29T07:52:41Z</time>
      </trkpt>
      <trkpt lat="43.66291" lon="3.70094">
        <ele>149.1</ele>
        <time>2011-05-29T07:52:44Z</time>
      </trkpt>
      <trkpt lat="43.66293" lon="3.70096">
        <ele>149.3</ele>
        <time>2011-05-29T07:52:45Z</time>
      </trkpt>
      <trkpt lat="43.66306" lon="3.70101">
        <ele>149.6</ele>
        <time>2011-05-29T07:52:50Z</time>
      </trkpt>
      <trkpt lat="43.66314" lon="3.70102">
        <ele>149.6</ele>
        <time>2011-05-29T07:52:56Z</time>
      </trkpt>
      <trkpt lat="43.66323" lon="3.70102">
        <ele>149.5</ele>
        <time>2011-05-29T07:53:00Z</time>
      </trkpt>
      <trkpt lat="43.66332" lon="3.70104">
        <ele>149.5</ele>
        <time>2011-05-29T07:53:04Z</time>
      </trkpt>
      <trkpt lat="43.6634" lon="3.70106">
        <ele>149.4</ele>
        <time>2011-05-29T07:53:08Z</time>
      </trkpt>
      <trkpt lat="43.66347" lon="3.70109">
        <ele>149.5</ele>
        <time>2011-05-29T07:53:12Z</time>
      </trkpt>
      <trkpt lat="43.66355" lon="3.70114">
        <ele>149.6</ele>
        <time>2011-05-29T07:53:17Z</time>
      </trkpt>
      <trkpt lat="43.66362" lon="3.70119">
        <ele>149.7</ele>
        <time>2011-05-29T07:53:21Z</time>
      </trkpt>
      <trkpt lat="43.6637" lon="3.70124">
        <ele>149.9</ele>
        <time>2011-05-29T07:53:25Z</time>
      </trkpt>
      <trkpt lat="43.66378" lon="3.70129">
        <ele>149.9</ele>
        <time>2011-05-29T07:53:29Z</time>
      </trkpt>
      <trkpt lat="43.66385" lon="3.70132">
        <ele>149.9</ele>
        <time>2011-05-29T07:53:32Z</time>
      </trkpt>
      <trkpt lat="43.66392" lon="3.70136">
        <ele>150</ele>
        <time>2011-05-29T07:53:35Z</time>
      </trkpt>
      <trkpt lat="43.66398" lon="3.70141">
        <ele>150.1</ele>
        <time>2011-05-29T07:53:38Z</time>
      </trkpt>
      <trkpt lat="43.66405" lon="3.70146">
        <ele>150.2</ele>
        <time>2011-05-29T07:53:41Z</time>
      </trkpt>
      <trkpt lat="43.66411" lon="3.70151">
        <ele>150.3</ele>
        <time>2011-05-29T07:53:44Z</time>
      </trkpt>
      <trkpt lat="43.66417" lon="3.70156">
        <ele>150.4</ele>
        <time>2011-05-29T07:53:47Z</time>
      </trkpt>
      <trkpt lat="43.66419" lon="3.70157">
        <ele>150.5</ele>
        <time>2011-05-29T07:53:48Z</time>
      </trkpt>
      <trkpt lat="43.66432" lon="3.70163">
        <ele>151.3</ele>
        <time>2011-05-29T07:53:54Z</time>
      </trkpt>
      <trkpt lat="43.6644" lon="3.70166">
        <ele>151.8</ele>
        <time>2011-05-29T07:53:57Z</time>
      </trkpt>
      <trkpt lat="43.66446" lon="3.70171">
        <ele>152.4</ele>
        <time>2011-05-29T07:54:00Z</time>
      </trkpt>
      <trkpt lat="43.66453" lon="3.70177">
        <ele>153.2</ele>
        <time>2011-05-29T07:54:03Z</time>
      </trkpt>
      <trkpt lat="43.6646" lon="3.70183">
        <ele>154</ele>
        <time>2011-05-29T07:54:06Z</time>
      </trkpt>
      <trkpt lat="43.66467" lon="3.70188">
        <ele>154.6</ele>
        <time>2011-05-29T07:54:09Z</time>
      </trkpt>
      <trkpt lat="43.66475" lon="3.70193">
        <ele>155.1</ele>
        <time>2011-05-29T07:54:12Z</time>
      </trkpt>
      <trkpt lat="43.66483" lon="3.70197">
        <ele>155.6</ele>
        <time>2011-05-29T07:54:15Z</time>
      </trkpt>
      <trkpt lat="43.66492" lon="3.70201">
        <ele>156</ele>
        <time>2011-05-29T07:54:18Z</time>
      </trkpt>
      <trkpt lat="43.665" lon="3.70205">
        <ele>156.3</ele>
        <time>2011-05-29T07:54:21Z</time>
      </trkpt>
      <trkpt lat="43.66506" lon="3.70207">
        <ele>156.5</ele>
        <time>2011-05-29T07:54:23Z</time>
      </trkpt>
      <trkpt lat="43.66512" lon="3.7021">
        <ele>156.7</ele>
        <time>2011-05-29T07:54:25Z</time>
      </trkpt>
      <trkpt lat="43.66518" lon="3.70212">
        <ele>156.9</ele>
        <time>2011-05-29T07:54:27Z</time>
      </trkpt>
      <trkpt lat="43.66524" lon="3.70212">
        <ele>157</ele>
        <time>2011-05-29T07:54:29Z</time>
      </trkpt>
      <trkpt lat="43.66531" lon="3.70213">
        <ele>157.1</ele>
        <time>2011-05-29T07:54:31Z</time>
      </trkpt>
      <trkpt lat="43.66537" lon="3.70213">
        <ele>157.2</ele>
        <time>2011-05-29T07:54:33Z</time>
      </trkpt>
      <trkpt lat="43.66546" lon="3.70214">
        <ele>157.4</ele>
        <time>2011-05-29T07:54:36Z</time>
      </trkpt>
      <trkpt lat="43.66552" lon="3.70214">
        <ele>157.5</ele>
        <time>2011-05-29T07:54:38Z</time>
      </trkpt>
      <trkpt lat="43.66558" lon="3.70213">
        <ele>157.5</ele>
        <time>2011-05-29T07:54:40Z</time>
      </trkpt>
      <trkpt lat="43.66565" lon="3.70213">
        <ele>157.5</ele>
        <time>2011-05-29T07:54:42Z</time>
      </trkpt>
      <trkpt lat="43.66571" lon="3.70213">
        <ele>157.6</ele>
        <time>2011-05-29T07:54:44Z</time>
      </trkpt>
      <trkpt lat="43.66579" lon="3.70212">
        <ele>157.7</ele>
        <time>2011-05-29T07:54:46Z</time>
      </trkpt>
      <trkpt lat="43.66586" lon="3.70211">
        <ele>157.7</ele>
        <time>2011-05-29T07:54:48Z</time>
      </trkpt>
      <trkpt lat="43.6659" lon="3.70211">
        <ele>157.8</ele>
        <time>2011-05-29T07:54:49Z</time>
      </trkpt>
      <trkpt lat="43.66602" lon="3.70209">
        <ele>158</ele>
        <time>2011-05-29T07:54:52Z</time>
      </trkpt>
      <trkpt lat="43.6661" lon="3.70208">
        <ele>158.1</ele>
        <time>2011-05-29T07:54:54Z</time>
      </trkpt>
      <trkpt lat="43.66617" lon="3.70207">
        <ele>158.2</ele>
        <time>2011-05-29T07:54:56Z</time>
      </trkpt>
      <trkpt lat="43.66624" lon="3.70207">
        <ele>158.4</ele>
        <time>2011-05-29T07:54:58Z</time>
      </trkpt>
      <trkpt lat="43.66632" lon="3.70205">
        <ele>158.4</ele>
        <time>2011-05-29T07:55:00Z</time>
      </trkpt>
      <trkpt lat="43.66638" lon="3.70201">
        <ele>158.4</ele>
        <time>2011-05-29T07:55:02Z</time>
      </trkpt>
      <trkpt lat="43.66646" lon="3.70198">
        <ele>158.4</ele>
        <time>2011-05-29T07:55:04Z</time>
      </trkpt>
      <trkpt lat="43.66653" lon="3.70195">
        <ele>158.4</ele>
        <time>2011-05-29T07:55:06Z</time>
      </trkpt>
      <trkpt lat="43.6666" lon="3.70193">
        <ele>158.4</ele>
        <time>2011-05-29T07:55:08Z</time>
      </trkpt>
      <trkpt lat="43.66666" lon="3.70192">
        <ele>158.5</ele>
        <time>2011-05-29T07:55:10Z</time>
      </trkpt>
      <trkpt lat="43.66672" lon="3.70191">
        <ele>158.6</ele>
        <time>2011-05-29T07:55:12Z</time>
      </trkpt>
      <trkpt lat="43.66679" lon="3.70191">
        <ele>158.8</ele>
        <time>2011-05-29T07:55:14Z</time>
      </trkpt>
      <trkpt lat="43.66686" lon="3.7019">
        <ele>158.9</ele>
        <time>2011-05-29T07:55:16Z</time>
      </trkpt>
      <trkpt lat="43.66692" lon="3.7019">
        <ele>159.1</ele>
        <time>2011-05-29T07:55:18Z</time>
      </trkpt>
      <trkpt lat="43.667" lon="3.7019">
        <ele>159.3</ele>
        <time>2011-05-29T07:55:20Z</time>
      </trkpt>
      <trkpt lat="43.66707" lon="3.70188">
        <ele>159.3</ele>
        <time>2011-05-29T07:55:22Z</time>
      </trkpt>
      <trkpt lat="43.66714" lon="3.70184">
        <ele>159.3</ele>
        <time>2011-05-29T07:55:24Z</time>
      </trkpt>
      <trkpt lat="43.66722" lon="3.7018">
        <ele>159.2</ele>
        <time>2011-05-29T07:55:26Z</time>
      </trkpt>
      <trkpt lat="43.66728" lon="3.70177">
        <ele>159.2</ele>
        <time>2011-05-29T07:55:28Z</time>
      </trkpt>
      <trkpt lat="43.66735" lon="3.70174">
        <ele>159.2</ele>
        <time>2011-05-29T07:55:30Z</time>
      </trkpt>
      <trkpt lat="43.66742" lon="3.70173">
        <ele>159.3</ele>
        <time>2011-05-29T07:55:32Z</time>
      </trkpt>
      <trkpt lat="43.66749" lon="3.70173">
        <ele>159.4</ele>
        <time>2011-05-29T07:55:34Z</time>
      </trkpt>
      <trkpt lat="43.66757" lon="3.70172">
        <ele>159.5</ele>
        <time>2011-05-29T07:55:37Z</time>
      </trkpt>
      <trkpt lat="43.66766" lon="3.70169">
        <ele>159.6</ele>
        <time>2011-05-29T07:55:40Z</time>
      </trkpt>
      <trkpt lat="43.66774" lon="3.70167">
        <ele>159.6</ele>
        <time>2011-05-29T07:55:43Z</time>
      </trkpt>
      <trkpt lat="43.66783" lon="3.70165">
        <ele>159.7</ele>
        <time>2011-05-29T07:55:46Z</time>
      </trkpt>
      <trkpt lat="43.66791" lon="3.70164">
        <ele>159.8</ele>
        <time>2011-05-29T07:55:49Z</time>
      </trkpt>
      <trkpt lat="43.66794" lon="3.70164">
        <ele>159.9</ele>
        <time>2011-05-29T07:55:50Z</time>
      </trkpt>
      <trkpt lat="43.66805" lon="3.70165">
        <ele>160.2</ele>
        <time>2011-05-29T07:55:54Z</time>
      </trkpt>
      <trkpt lat="43.66811" lon="3.70166">
        <ele>160.4</ele>
        <time>2011-05-29T07:55:56Z</time>
      </trkpt>
      <trkpt lat="43.66818" lon="3.70167">
        <ele>160.6</ele>
        <time>2011-05-29T07:55:58Z</time>
      </trkpt>
      <trkpt lat="43.66824" lon="3.70167">
        <ele>160.8</ele>
        <time>2011-05-29T07:56:00Z</time>
      </trkpt>
      <trkpt lat="43.66831" lon="3.70167">
        <ele>161</ele>
        <time>2011-05-29T07:56:02Z</time>
      </trkpt>
      <trkpt lat="43.66837" lon="3.70167">
        <ele>161.1</ele>
        <time>2011-05-29T07:56:04Z</time>
      </trkpt>
      <trkpt lat="43.66844" lon="3.70167">
        <ele>161.4</ele>
        <time>2011-05-29T07:56:06Z</time>
      </trkpt>
      <trkpt lat="43.6685" lon="3.70166">
        <ele>161.6</ele>
        <time>2011-05-29T07:56:08Z</time>
      </trkpt>
      <trkpt lat="43.66857" lon="3.70164">
        <ele>161.7</ele>
        <time>2011-05-29T07:56:10Z</time>
      </trkpt>
      <trkpt lat="43.66863" lon="3.70163">
        <ele>161.8</ele>
        <time>2011-05-29T07:56:12Z</time>
      </trkpt>
      <trkpt lat="43.6687" lon="3.70162">
        <ele>162</ele>
        <time>2011-05-29T07:56:14Z</time>
      </trkpt>
      <trkpt lat="43.66877" lon="3.7016">
        <ele>162.1</ele>
        <time>2011-05-29T07:56:16Z</time>
      </trkpt>
      <trkpt lat="43.66884" lon="3.70157">
        <ele>162.2</ele>
        <time>2011-05-29T07:56:18Z</time>
      </trkpt>
      <trkpt lat="43.6689" lon="3.70155">
        <ele>162.3</ele>
        <time>2011-05-29T07:56:20Z</time>
      </trkpt>
      <trkpt lat="43.66897" lon="3.70153">
        <ele>162.3</ele>
        <time>2011-05-29T07:56:22Z</time>
      </trkpt>
      <trkpt lat="43.66903" lon="3.70152">
        <ele>162.5</ele>
        <time>2011-05-29T07:56:24Z</time>
      </trkpt>
      <trkpt lat="43.6691" lon="3.70151">
        <ele>162.6</ele>
        <time>2011-05-29T07:56:26Z</time>
      </trkpt>
      <trkpt lat="43.66916" lon="3.7015">
        <ele>162.8</ele>
        <time>2011-05-29T07:56:28Z</time>
      </trkpt>
      <trkpt lat="43.66923" lon="3.70148">
        <ele>162.9</ele>
        <time>2011-05-29T07:56:30Z</time>
      </trkpt>
      <trkpt lat="43.6693" lon="3.70145">
        <ele>162.8</ele>
        <time>2011-05-29T07:56:32Z</time>
      </trkpt>
      <trkpt lat="43.66936" lon="3.70141">
        <ele>162.7</ele>
        <time>2011-05-29T07:56:34Z</time>
      </trkpt>
      <trkpt lat="43.66944" lon="3.70138">
        <ele>162.7</ele>
        <time>2011-05-29T07:56:36Z</time>
      </trkpt>
      <trkpt lat="43.66952" lon="3.70137">
        <ele>162.9</ele>
        <time>2011-05-29T07:56:38Z</time>
      </trkpt>
      <trkpt lat="43.66959" lon="3.70137">
        <ele>163</ele>
        <time>2011-05-29T07:56:40Z</time>
      </trkpt>
      <trkpt lat="43.66966" lon="3.70138">
        <ele>163.3</ele>
        <time>2011-05-29T07:56:42Z</time>
      </trkpt>
      <trkpt lat="43.66974" lon="3.70139">
        <ele>163.6</ele>
        <time>2011-05-29T07:56:44Z</time>
      </trkpt>
      <trkpt lat="43.66981" lon="3.70139">
        <ele>163.8</ele>
        <time>2011-05-29T07:56:46Z</time>
      </trkpt>
      <trkpt lat="43.66989" lon="3.70139">
        <ele>164</ele>
        <time>2011-05-29T07:56:48Z</time>
      </trkpt>
      <trkpt lat="43.66997" lon="3.70138">
        <ele>164.1</ele>
        <time>2011-05-29T07:56:50Z</time>
      </trkpt>
      <trkpt lat="43.67001" lon="3.70136">
        <ele>164.1</ele>
        <time>2011-05-29T07:56:51Z</time>
      </trkpt>
      <trkpt lat="43.67013" lon="3.7013">
        <ele>163.9</ele>
        <time>2011-05-29T07:56:54Z</time>
      </trkpt>
      <trkpt lat="43.67017" lon="3.70127">
        <ele>163.7</ele>
        <time>2011-05-29T07:56:55Z</time>
      </trkpt>
      <trkpt lat="43.67021" lon="3.70125">
        <ele>163.6</ele>
        <time>2011-05-29T07:56:56Z</time>
      </trkpt>
      <trkpt lat="43.67026" lon="3.70122">
        <ele>163.4</ele>
        <time>2011-05-29T07:56:57Z</time>
      </trkpt>
      <trkpt lat="43.6703" lon="3.70119">
        <ele>163.2</ele>
        <time>2011-05-29T07:56:58Z</time>
      </trkpt>
      <trkpt lat="43.67034" lon="3.70116">
        <ele>163.1</ele>
        <time>2011-05-29T07:56:59Z</time>
      </trkpt>
      <trkpt lat="43.67038" lon="3.70113">
        <ele>162.9</ele>
        <time>2011-05-29T07:57:00Z</time>
      </trkpt>
      <trkpt lat="43.67042" lon="3.70111">
        <ele>162.8</ele>
        <time>2011-05-29T07:57:01Z</time>
      </trkpt>
      <trkpt lat="43.67051" lon="3.70108">
        <ele>162.8</ele>
        <time>2011-05-29T07:57:03Z</time>
      </trkpt>
      <trkpt lat="43.6706" lon="3.70106">
        <ele>162.8</ele>
        <time>2011-05-29T07:57:05Z</time>
      </trkpt>
      <trkpt lat="43.67064" lon="3.70105">
        <ele>162.9</ele>
        <time>2011-05-29T07:57:06Z</time>
      </trkpt>
      <trkpt lat="43.67073" lon="3.70103">
        <ele>162.9</ele>
        <time>2011-05-29T07:57:08Z</time>
      </trkpt>
      <trkpt lat="43.67077" lon="3.70102">
        <ele>162.8</ele>
        <time>2011-05-29T07:57:09Z</time>
      </trkpt>
      <trkpt lat="43.67082" lon="3.701">
        <ele>162.7</ele>
        <time>2011-05-29T07:57:10Z</time>
      </trkpt>
      <trkpt lat="43.67086" lon="3.70098">
        <ele>162.8</ele>
        <time>2011-05-29T07:57:11Z</time>
      </trkpt>
      <trkpt lat="43.67091" lon="3.70097">
        <ele>163</ele>
        <time>2011-05-29T07:57:12Z</time>
      </trkpt>
      <trkpt lat="43.67095" lon="3.70095">
        <ele>163.1</ele>
        <time>2011-05-29T07:57:13Z</time>
      </trkpt>
      <trkpt lat="43.671" lon="3.70093">
        <ele>163.2</ele>
        <time>2011-05-29T07:57:14Z</time>
      </trkpt>
      <trkpt lat="43.67104" lon="3.70091">
        <ele>163.3</ele>
        <time>2011-05-29T07:57:15Z</time>
      </trkpt>
      <trkpt lat="43.67109" lon="3.70089">
        <ele>163.4</ele>
        <time>2011-05-29T07:57:16Z</time>
      </trkpt>
      <trkpt lat="43.67114" lon="3.70086">
        <ele>163.4</ele>
        <time>2011-05-29T07:57:17Z</time>
      </trkpt>
      <trkpt lat="43.67119" lon="3.70083">
        <ele>163.5</ele>
        <time>2011-05-29T07:57:18Z</time>
      </trkpt>
      <trkpt lat="43.67124" lon="3.70081">
        <ele>163.7</ele>
        <time>2011-05-29T07:57:19Z</time>
      </trkpt>
      <trkpt lat="43.67129" lon="3.7008">
        <ele>164</ele>
        <time>2011-05-29T07:57:20Z</time>
      </trkpt>
      <trkpt lat="43.67134" lon="3.7008">
        <ele>164.4</ele>
        <time>2011-05-29T07:57:21Z</time>
      </trkpt>
      <trkpt lat="43.67139" lon="3.7008">
        <ele>164.8</ele>
        <time>2011-05-29T07:57:22Z</time>
      </trkpt>
      <trkpt lat="43.67144" lon="3.7008">
        <ele>165.1</ele>
        <time>2011-05-29T07:57:23Z</time>
      </trkpt>
      <trkpt lat="43.67149" lon="3.70078">
        <ele>165.3</ele>
        <time>2011-05-29T07:57:24Z</time>
      </trkpt>
      <trkpt lat="43.67154" lon="3.70077">
        <ele>165.6</ele>
        <time>2011-05-29T07:57:25Z</time>
      </trkpt>
      <trkpt lat="43.67158" lon="3.70076">
        <ele>165.9</ele>
        <time>2011-05-29T07:57:26Z</time>
      </trkpt>
      <trkpt lat="43.67166" lon="3.70075">
        <ele>166.4</ele>
        <time>2011-05-29T07:57:28Z</time>
      </trkpt>
      <trkpt lat="43.6716" lon="3.70073">
        <ele>165.8</ele>
        <time>2011-05-29T07:57:43Z</time>
      </trkpt>
      <trkpt lat="43.67151" lon="3.70076">
        <ele>165.4</ele>
        <time>2011-05-29T07:57:49Z</time>
      </trkpt>
      <trkpt lat="43.67148" lon="3.70066">
        <ele>164.3</ele>
        <time>2011-05-29T07:59:59Z</time>
      </trkpt>
      <trkpt lat="43.67149" lon="3.70063">
        <ele>164.2</ele>
        <time>2011-05-29T08:00:00Z</time>
      </trkpt>
      <trkpt lat="43.67157" lon="3.70049">
        <ele>163.7</ele>
        <time>2011-05-29T08:00:04Z</time>
      </trkpt>
      <trkpt lat="43.6716" lon="3.70041">
        <ele>163.4</ele>
        <time>2011-05-29T08:00:06Z</time>
      </trkpt>
      <trkpt lat="43.67163" lon="3.70033">
        <ele>163.1</ele>
        <time>2011-05-29T08:00:08Z</time>
      </trkpt>
      <trkpt lat="43.67167" lon="3.70026">
        <ele>162.8</ele>
        <time>2011-05-29T08:00:10Z</time>
      </trkpt>
      <trkpt lat="43.67171" lon="3.70018">
        <ele>162.3</ele>
        <time>2011-05-29T08:00:12Z</time>
      </trkpt>
      <trkpt lat="43.67176" lon="3.70011">
        <ele>161.9</ele>
        <time>2011-05-29T08:00:14Z</time>
      </trkpt>
      <trkpt lat="43.67182" lon="3.70004">
        <ele>161.5</ele>
        <time>2011-05-29T08:00:17Z</time>
      </trkpt>
      <trkpt lat="43.67187" lon="3.69995">
        <ele>161</ele>
        <time>2011-05-29T08:00:20Z</time>
      </trkpt>
      <trkpt lat="43.67192" lon="3.69988">
        <ele>160.6</ele>
        <time>2011-05-29T08:00:22Z</time>
      </trkpt>
      <trkpt lat="43.67195" lon="3.69981">
        <ele>160.3</ele>
        <time>2011-05-29T08:00:24Z</time>
      </trkpt>
      <trkpt lat="43.67198" lon="3.69974">
        <ele>159.9</ele>
        <time>2011-05-29T08:00:26Z</time>
      </trkpt>
      <trkpt lat="43.67202" lon="3.69967">
        <ele>159.6</ele>
        <time>2011-05-29T08:00:28Z</time>
      </trkpt>
      <trkpt lat="43.67207" lon="3.6996">
        <ele>159.3</ele>
        <time>2011-05-29T08:00:30Z</time>
      </trkpt>
      <trkpt lat="43.67214" lon="3.69955">
        <ele>159.2</ele>
        <time>2011-05-29T08:00:32Z</time>
      </trkpt>
      <trkpt lat="43.67221" lon="3.69952">
        <ele>159.2</ele>
        <time>2011-05-29T08:00:34Z</time>
      </trkpt>
      <trkpt lat="43.67227" lon="3.6995">
        <ele>159.2</ele>
        <time>2011-05-29T08:00:36Z</time>
      </trkpt>
      <trkpt lat="43.67234" lon="3.69949">
        <ele>159.3</ele>
        <time>2011-05-29T08:00:38Z</time>
      </trkpt>
      <trkpt lat="43.67242" lon="3.69949">
        <ele>159.4</ele>
        <time>2011-05-29T08:00:40Z</time>
      </trkpt>
      <trkpt lat="43.6725" lon="3.69948">
        <ele>159.5</ele>
        <time>2011-05-29T08:00:42Z</time>
      </trkpt>
      <trkpt lat="43.67257" lon="3.69947">
        <ele>159.5</ele>
        <time>2011-05-29T08:00:44Z</time>
      </trkpt>
      <trkpt lat="43.67264" lon="3.69946">
        <ele>159.5</ele>
        <time>2011-05-29T08:00:46Z</time>
      </trkpt>
      <trkpt lat="43.67271" lon="3.69944">
        <ele>159.5</ele>
        <time>2011-05-29T08:00:48Z</time>
      </trkpt>
      <trkpt lat="43.67277" lon="3.69943">
        <ele>159.4</ele>
        <time>2011-05-29T08:00:50Z</time>
      </trkpt>
      <trkpt lat="43.67284" lon="3.6994">
        <ele>159.4</ele>
        <time>2011-05-29T08:00:52Z</time>
      </trkpt>
      <trkpt lat="43.67291" lon="3.69939">
        <ele>159.3</ele>
        <time>2011-05-29T08:00:54Z</time>
      </trkpt>
      <trkpt lat="43.67298" lon="3.69936">
        <ele>159.2</ele>
        <time>2011-05-29T08:00:56Z</time>
      </trkpt>
      <trkpt lat="43.67305" lon="3.69933">
        <ele>159</ele>
        <time>2011-05-29T08:00:58Z</time>
      </trkpt>
      <trkpt lat="43.67312" lon="3.6993">
        <ele>158.8</ele>
        <time>2011-05-29T08:01:00Z</time>
      </trkpt>
      <trkpt lat="43.67315" lon="3.69928">
        <ele>158.7</ele>
        <time>2011-05-29T08:01:01Z</time>
      </trkpt>
      <trkpt lat="43.67325" lon="3.69923">
        <ele>158.5</ele>
        <time>2011-05-29T08:01:04Z</time>
      </trkpt>
      <trkpt lat="43.67331" lon="3.69922">
        <ele>158.4</ele>
        <time>2011-05-29T08:01:06Z</time>
      </trkpt>
      <trkpt lat="43.6734" lon="3.69921">
        <ele>158.4</ele>
        <time>2011-05-29T08:01:09Z</time>
      </trkpt>
      <trkpt lat="43.67346" lon="3.6992">
        <ele>158.6</ele>
        <time>2011-05-29T08:01:11Z</time>
      </trkpt>
      <trkpt lat="43.67353" lon="3.6992">
        <ele>158.7</ele>
        <time>2011-05-29T08:01:13Z</time>
      </trkpt>
      <trkpt lat="43.6736" lon="3.6992">
        <ele>158.8</ele>
        <time>2011-05-29T08:01:15Z</time>
      </trkpt>
      <trkpt lat="43.67366" lon="3.69921">
        <ele>159.1</ele>
        <time>2011-05-29T08:01:17Z</time>
      </trkpt>
      <trkpt lat="43.67373" lon="3.69919">
        <ele>159.2</ele>
        <time>2011-05-29T08:01:19Z</time>
      </trkpt>
      <trkpt lat="43.67381" lon="3.69918">
        <ele>159.2</ele>
        <time>2011-05-29T08:01:21Z</time>
      </trkpt>
      <trkpt lat="43.67387" lon="3.69916">
        <ele>159.3</ele>
        <time>2011-05-29T08:01:23Z</time>
      </trkpt>
      <trkpt lat="43.67393" lon="3.69914">
        <ele>159.3</ele>
        <time>2011-05-29T08:01:25Z</time>
      </trkpt>
      <trkpt lat="43.67399" lon="3.69912">
        <ele>159.3</ele>
        <time>2011-05-29T08:01:27Z</time>
      </trkpt>
      <trkpt lat="43.67406" lon="3.69911">
        <ele>159.4</ele>
        <time>2011-05-29T08:01:29Z</time>
      </trkpt>
      <trkpt lat="43.67412" lon="3.69907">
        <ele>159.3</ele>
        <time>2011-05-29T08:01:31Z</time>
      </trkpt>
      <trkpt lat="43.6742" lon="3.69905">
        <ele>159.4</ele>
        <time>2011-05-29T08:01:33Z</time>
      </trkpt>
      <trkpt lat="43.67425" lon="3.69901">
        <ele>159.2</ele>
        <time>2011-05-29T08:01:35Z</time>
      </trkpt>
      <trkpt lat="43.67433" lon="3.69895">
        <ele>159.1</ele>
        <time>2011-05-29T08:01:38Z</time>
      </trkpt>
      <trkpt lat="43.67439" lon="3.69888">
        <ele>158.8</ele>
        <time>2011-05-29T08:01:41Z</time>
      </trkpt>
      <trkpt lat="43.67444" lon="3.69883">
        <ele>158.6</ele>
        <time>2011-05-29T08:01:43Z</time>
      </trkpt>
      <trkpt lat="43.6745" lon="3.69879">
        <ele>158.5</ele>
        <time>2011-05-29T08:01:45Z</time>
      </trkpt>
      <trkpt lat="43.67456" lon="3.69874">
        <ele>158.4</ele>
        <time>2011-05-29T08:01:47Z</time>
      </trkpt>
      <trkpt lat="43.67463" lon="3.69871">
        <ele>158.3</ele>
        <time>2011-05-29T08:01:49Z</time>
      </trkpt>
      <trkpt lat="43.6747" lon="3.69867">
        <ele>158.3</ele>
        <time>2011-05-29T08:01:51Z</time>
      </trkpt>
      <trkpt lat="43.67478" lon="3.69863">
        <ele>158.3</ele>
        <time>2011-05-29T08:01:53Z</time>
      </trkpt>
      <trkpt lat="43.67485" lon="3.6986">
        <ele>158.3</ele>
        <time>2011-05-29T08:01:55Z</time>
      </trkpt>
      <trkpt lat="43.67492" lon="3.69858">
        <ele>158.3</ele>
        <time>2011-05-29T08:01:57Z</time>
      </trkpt>
      <trkpt lat="43.675" lon="3.69854">
        <ele>158.2</ele>
        <time>2011-05-29T08:01:59Z</time>
      </trkpt>
      <trkpt lat="43.67508" lon="3.69853">
        <ele>158.3</ele>
        <time>2011-05-29T08:02:01Z</time>
      </trkpt>
      <trkpt lat="43.67511" lon="3.69853">
        <ele>158.4</ele>
        <time>2011-05-29T08:02:02Z</time>
      </trkpt>
      <trkpt lat="43.67523" lon="3.69851">
        <ele>158.5</ele>
        <time>2011-05-29T08:02:06Z</time>
      </trkpt>
      <trkpt lat="43.67529" lon="3.69849">
        <ele>158.5</ele>
        <time>2011-05-29T08:02:08Z</time>
      </trkpt>
      <trkpt lat="43.67535" lon="3.69847">
        <ele>158.4</ele>
        <time>2011-05-29T08:02:10Z</time>
      </trkpt>
      <trkpt lat="43.67542" lon="3.69844">
        <ele>158.3</ele>
        <time>2011-05-29T08:02:12Z</time>
      </trkpt>
      <trkpt lat="43.6755" lon="3.69844">
        <ele>158.4</ele>
        <time>2011-05-29T08:02:15Z</time>
      </trkpt>
      <trkpt lat="43.67559" lon="3.69844">
        <ele>158.6</ele>
        <time>2011-05-29T08:02:18Z</time>
      </trkpt>
      <trkpt lat="43.67567" lon="3.69844">
        <ele>158.8</ele>
        <time>2011-05-29T08:02:21Z</time>
      </trkpt>
      <trkpt lat="43.67573" lon="3.69846">
        <ele>159</ele>
        <time>2011-05-29T08:02:23Z</time>
      </trkpt>
      <trkpt lat="43.67579" lon="3.69848">
        <ele>159.3</ele>
        <time>2011-05-29T08:02:25Z</time>
      </trkpt>
      <trkpt lat="43.67586" lon="3.69849">
        <ele>159.5</ele>
        <time>2011-05-29T08:02:27Z</time>
      </trkpt>
      <trkpt lat="43.67593" lon="3.69849">
        <ele>159.5</ele>
        <time>2011-05-29T08:02:29Z</time>
      </trkpt>
      <trkpt lat="43.676" lon="3.69848">
        <ele>159.4</ele>
        <time>2011-05-29T08:02:31Z</time>
      </trkpt>
      <trkpt lat="43.67607" lon="3.69847">
        <ele>159.3</ele>
        <time>2011-05-29T08:02:33Z</time>
      </trkpt>
      <trkpt lat="43.67613" lon="3.69846">
        <ele>159.2</ele>
        <time>2011-05-29T08:02:35Z</time>
      </trkpt>
      <trkpt lat="43.67619" lon="3.69847">
        <ele>159.3</ele>
        <time>2011-05-29T08:02:37Z</time>
      </trkpt>
      <trkpt lat="43.67626" lon="3.69848">
        <ele>159.4</ele>
        <time>2011-05-29T08:02:39Z</time>
      </trkpt>
      <trkpt lat="43.67633" lon="3.69848">
        <ele>159.4</ele>
        <time>2011-05-29T08:02:41Z</time>
      </trkpt>
      <trkpt lat="43.67639" lon="3.69846">
        <ele>159.2</ele>
        <time>2011-05-29T08:02:43Z</time>
      </trkpt>
      <trkpt lat="43.67647" lon="3.69843">
        <ele>158.9</ele>
        <time>2011-05-29T08:02:46Z</time>
      </trkpt>
      <trkpt lat="43.67653" lon="3.69842">
        <ele>158.8</ele>
        <time>2011-05-29T08:02:48Z</time>
      </trkpt>
      <trkpt lat="43.67661" lon="3.6984">
        <ele>158.6</ele>
        <time>2011-05-29T08:02:51Z</time>
      </trkpt>
      <trkpt lat="43.67668" lon="3.69841">
        <ele>158.8</ele>
        <time>2011-05-29T08:02:54Z</time>
      </trkpt>
      <trkpt lat="43.67676" lon="3.69844">
        <ele>159.4</ele>
        <time>2011-05-29T08:02:57Z</time>
      </trkpt>
      <trkpt lat="43.67685" lon="3.69844">
        <ele>159.8</ele>
        <time>2011-05-29T08:03:17Z</time>
      </trkpt>
      <trkpt lat="43.67685" lon="3.69844">
        <ele>159.8</ele>
        <time>2011-05-29T08:03:18Z</time>
      </trkpt>
      <trkpt lat="43.67698" lon="3.69835">
        <ele>159.6</ele>
        <time>2011-05-29T08:03:42Z</time>
      </trkpt>
      <trkpt lat="43.67707" lon="3.69836">
        <ele>160.1</ele>
        <time>2011-05-29T08:03:46Z</time>
      </trkpt>
      <trkpt lat="43.67714" lon="3.69836">
        <ele>160.5</ele>
        <time>2011-05-29T08:03:54Z</time>
      </trkpt>
      <trkpt lat="43.67723" lon="3.69836">
        <ele>160.9</ele>
        <time>2011-05-29T08:03:58Z</time>
      </trkpt>
      <trkpt lat="43.67731" lon="3.69838">
        <ele>161.4</ele>
        <time>2011-05-29T08:04:17Z</time>
      </trkpt>
      <trkpt lat="43.67739" lon="3.69837">
        <ele>161.7</ele>
        <time>2011-05-29T08:04:28Z</time>
      </trkpt>
      <trkpt lat="43.67741" lon="3.69837">
        <ele>161.8</ele>
        <time>2011-05-29T08:04:29Z</time>
      </trkpt>
      <trkpt lat="43.67753" lon="3.69832">
        <ele>161.9</ele>
        <time>2011-05-29T08:04:33Z</time>
      </trkpt>
      <trkpt lat="43.67759" lon="3.69827">
        <ele>161.6</ele>
        <time>2011-05-29T08:04:35Z</time>
      </trkpt>
      <trkpt lat="43.67765" lon="3.69822">
        <ele>161.4</ele>
        <time>2011-05-29T08:04:37Z</time>
      </trkpt>
      <trkpt lat="43.67771" lon="3.69819">
        <ele>161.2</ele>
        <time>2011-05-29T08:04:39Z</time>
      </trkpt>
      <trkpt lat="43.67779" lon="3.69816">
        <ele>161.1</ele>
        <time>2011-05-29T08:04:42Z</time>
      </trkpt>
      <trkpt lat="43.67786" lon="3.69816">
        <ele>161.2</ele>
        <time>2011-05-29T08:04:45Z</time>
      </trkpt>
      <trkpt lat="43.67794" lon="3.69815">
        <ele>161.2</ele>
        <time>2011-05-29T08:04:50Z</time>
      </trkpt>
      <trkpt lat="43.67803" lon="3.69816">
        <ele>161.4</ele>
        <time>2011-05-29T08:05:08Z</time>
      </trkpt>
      <trkpt lat="43.67809" lon="3.69813">
        <ele>161.2</ele>
        <time>2011-05-29T08:05:17Z</time>
      </trkpt>
      <trkpt lat="43.67817" lon="3.69812">
        <ele>161.3</ele>
        <time>2011-05-29T08:05:21Z</time>
      </trkpt>
      <trkpt lat="43.67825" lon="3.69811">
        <ele>161.3</ele>
        <time>2011-05-29T08:05:25Z</time>
      </trkpt>
      <trkpt lat="43.67833" lon="3.69811">
        <ele>161.4</ele>
        <time>2011-05-29T08:05:29Z</time>
      </trkpt>
      <trkpt lat="43.67835" lon="3.69811">
        <ele>161.4</ele>
        <time>2011-05-29T08:05:30Z</time>
      </trkpt>
      <trkpt lat="43.67848" lon="3.69804">
        <ele>161.4</ele>
        <time>2011-05-29T08:06:04Z</time>
      </trkpt>
      <trkpt lat="43.67855" lon="3.69801">
        <ele>161.3</ele>
        <time>2011-05-29T08:06:07Z</time>
      </trkpt>
      <trkpt lat="43.67864" lon="3.69799">
        <ele>161.5</ele>
        <time>2011-05-29T08:06:10Z</time>
      </trkpt>
      <trkpt lat="43.67871" lon="3.698">
        <ele>161.8</ele>
        <time>2011-05-29T08:06:12Z</time>
      </trkpt>
      <trkpt lat="43.67879" lon="3.698">
        <ele>162</ele>
        <time>2011-05-29T08:06:14Z</time>
      </trkpt>
      <trkpt lat="43.67886" lon="3.698">
        <ele>162.3</ele>
        <time>2011-05-29T08:06:16Z</time>
      </trkpt>
      <trkpt lat="43.67893" lon="3.69799">
        <ele>162.3</ele>
        <time>2011-05-29T08:06:18Z</time>
      </trkpt>
      <trkpt lat="43.679" lon="3.69798">
        <ele>162.5</ele>
        <time>2011-05-29T08:06:20Z</time>
      </trkpt>
      <trkpt lat="43.67907" lon="3.69796">
        <ele>162.6</ele>
        <time>2011-05-29T08:06:22Z</time>
      </trkpt>
      <trkpt lat="43.67914" lon="3.69793">
        <ele>162.6</ele>
        <time>2011-05-29T08:06:24Z</time>
      </trkpt>
      <trkpt lat="43.67921" lon="3.69789">
        <ele>162.4</ele>
        <time>2011-05-29T08:06:26Z</time>
      </trkpt>
      <trkpt lat="43.67929" lon="3.69784">
        <ele>162.3</ele>
        <time>2011-05-29T08:06:28Z</time>
      </trkpt>
      <trkpt lat="43.67933" lon="3.69781">
        <ele>162.2</ele>
        <time>2011-05-29T08:06:29Z</time>
      </trkpt>
      <trkpt lat="43.67938" lon="3.69778">
        <ele>162.1</ele>
        <time>2011-05-29T08:06:30Z</time>
      </trkpt>
      <trkpt lat="43.67942" lon="3.69775">
        <ele>162</ele>
        <time>2011-05-29T08:06:31Z</time>
      </trkpt>
      <trkpt lat="43.67952" lon="3.69767">
        <ele>161.7</ele>
        <time>2011-05-29T08:06:34Z</time>
      </trkpt>
      <trkpt lat="43.67958" lon="3.69761">
        <ele>161.4</ele>
        <time>2011-05-29T08:06:36Z</time>
      </trkpt>
      <trkpt lat="43.67965" lon="3.69754">
        <ele>161.1</ele>
        <time>2011-05-29T08:06:38Z</time>
      </trkpt>
      <trkpt lat="43.67972" lon="3.69747">
        <ele>160.9</ele>
        <time>2011-05-29T08:06:40Z</time>
      </trkpt>
      <trkpt lat="43.67976" lon="3.69742">
        <ele>160.9</ele>
        <time>2011-05-29T08:06:41Z</time>
      </trkpt>
      <trkpt lat="43.6798" lon="3.69737">
        <ele>160.9</ele>
        <time>2011-05-29T08:06:42Z</time>
      </trkpt>
      <trkpt lat="43.67985" lon="3.69732">
        <ele>160.9</ele>
        <time>2011-05-29T08:06:43Z</time>
      </trkpt>
      <trkpt lat="43.6799" lon="3.69727">
        <ele>160.9</ele>
        <time>2011-05-29T08:06:44Z</time>
      </trkpt>
      <trkpt lat="43.67996" lon="3.69724">
        <ele>160.9</ele>
        <time>2011-05-29T08:06:45Z</time>
      </trkpt>
      <trkpt lat="43.68001" lon="3.69721">
        <ele>161</ele>
        <time>2011-05-29T08:06:46Z</time>
      </trkpt>
      <trkpt lat="43.6801" lon="3.69718">
        <ele>161.3</ele>
        <time>2011-05-29T08:06:48Z</time>
      </trkpt>
      <trkpt lat="43.68018" lon="3.69719">
        <ele>161.6</ele>
        <time>2011-05-29T08:06:51Z</time>
      </trkpt>
      <trkpt lat="43.68025" lon="3.69716">
        <ele>161.8</ele>
        <time>2011-05-29T08:06:54Z</time>
      </trkpt>
      <trkpt lat="43.68033" lon="3.69711">
        <ele>161.8</ele>
        <time>2011-05-29T08:06:57Z</time>
      </trkpt>
      <trkpt lat="43.68039" lon="3.69709">
        <ele>161.9</ele>
        <time>2011-05-29T08:06:59Z</time>
      </trkpt>
      <trkpt lat="43.68045" lon="3.69705">
        <ele>161.9</ele>
        <time>2011-05-29T08:07:01Z</time>
      </trkpt>
      <trkpt lat="43.68051" lon="3.69703">
        <ele>162</ele>
        <time>2011-05-29T08:07:03Z</time>
      </trkpt>
      <trkpt lat="43.68058" lon="3.69701">
        <ele>162.1</ele>
        <time>2011-05-29T08:07:05Z</time>
      </trkpt>
      <trkpt lat="43.68066" lon="3.69698">
        <ele>162.1</ele>
        <time>2011-05-29T08:07:07Z</time>
      </trkpt>
      <trkpt lat="43.68073" lon="3.69694">
        <ele>162</ele>
        <time>2011-05-29T08:07:09Z</time>
      </trkpt>
      <trkpt lat="43.68081" lon="3.69689">
        <ele>161.9</ele>
        <time>2011-05-29T08:07:11Z</time>
      </trkpt>
      <trkpt lat="43.6809" lon="3.69684">
        <ele>161.7</ele>
        <time>2011-05-29T08:07:13Z</time>
      </trkpt>
      <trkpt lat="43.68094" lon="3.69682">
        <ele>161.6</ele>
        <time>2011-05-29T08:07:14Z</time>
      </trkpt>
      <trkpt lat="43.68098" lon="3.6968">
        <ele>161.5</ele>
        <time>2011-05-29T08:07:15Z</time>
      </trkpt>
      <trkpt lat="43.68102" lon="3.69677">
        <ele>161.4</ele>
        <time>2011-05-29T08:07:16Z</time>
      </trkpt>
      <trkpt lat="43.68106" lon="3.69675">
        <ele>161.3</ele>
        <time>2011-05-29T08:07:17Z</time>
      </trkpt>
      <trkpt lat="43.6811" lon="3.69672">
        <ele>161.1</ele>
        <time>2011-05-29T08:07:18Z</time>
      </trkpt>
      <trkpt lat="43.68114" lon="3.69669">
        <ele>161</ele>
        <time>2011-05-29T08:07:19Z</time>
      </trkpt>
      <trkpt lat="43.68119" lon="3.69666">
        <ele>160.8</ele>
        <time>2011-05-29T08:07:20Z</time>
      </trkpt>
      <trkpt lat="43.68123" lon="3.69664">
        <ele>160.9</ele>
        <time>2011-05-29T08:07:21Z</time>
      </trkpt>
      <trkpt lat="43.68127" lon="3.69661">
        <ele>160.9</ele>
        <time>2011-05-29T08:07:22Z</time>
      </trkpt>
      <trkpt lat="43.68131" lon="3.69659">
        <ele>160.9</ele>
        <time>2011-05-29T08:07:23Z</time>
      </trkpt>
      <trkpt lat="43.68135" lon="3.69656">
        <ele>160.9</ele>
        <time>2011-05-29T08:07:24Z</time>
      </trkpt>
      <trkpt lat="43.68143" lon="3.6965">
        <ele>160.8</ele>
        <time>2011-05-29T08:07:26Z</time>
      </trkpt>
      <trkpt lat="43.6815" lon="3.69644">
        <ele>160.6</ele>
        <time>2011-05-29T08:07:28Z</time>
      </trkpt>
      <trkpt lat="43.68158" lon="3.69639">
        <ele>160.3</ele>
        <time>2011-05-29T08:07:30Z</time>
      </trkpt>
      <trkpt lat="43.68166" lon="3.69634">
        <ele>160.1</ele>
        <time>2011-05-29T08:07:32Z</time>
      </trkpt>
      <trkpt lat="43.6817" lon="3.69632">
        <ele>159.9</ele>
        <time>2011-05-29T08:07:33Z</time>
      </trkpt>
      <trkpt lat="43.68181" lon="3.69623">
        <ele>159.7</ele>
        <time>2011-05-29T08:07:36Z</time>
      </trkpt>
      <trkpt lat="43.68189" lon="3.69619">
        <ele>159.5</ele>
        <time>2011-05-29T08:07:38Z</time>
      </trkpt>
      <trkpt lat="43.68197" lon="3.69615">
        <ele>159.5</ele>
        <time>2011-05-29T08:07:40Z</time>
      </trkpt>
      <trkpt lat="43.68206" lon="3.69612">
        <ele>159.5</ele>
        <time>2011-05-29T08:07:42Z</time>
      </trkpt>
      <trkpt lat="43.68214" lon="3.69611">
        <ele>159.6</ele>
        <time>2011-05-29T08:07:44Z</time>
      </trkpt>
      <trkpt lat="43.68223" lon="3.69613">
        <ele>159.9</ele>
        <time>2011-05-29T08:07:46Z</time>
      </trkpt>
      <trkpt lat="43.68231" lon="3.69616">
        <ele>160.2</ele>
        <time>2011-05-29T08:07:48Z</time>
      </trkpt>
      <trkpt lat="43.68239" lon="3.6962">
        <ele>160.6</ele>
        <time>2011-05-29T08:07:50Z</time>
      </trkpt>
      <trkpt lat="43.68248" lon="3.69621">
        <ele>160.7</ele>
        <time>2011-05-29T08:07:52Z</time>
      </trkpt>
      <trkpt lat="43.68256" lon="3.69617">
        <ele>161</ele>
        <time>2011-05-29T08:07:54Z</time>
      </trkpt>
      <trkpt lat="43.68262" lon="3.69611">
        <ele>161.1</ele>
        <time>2011-05-29T08:07:56Z</time>
      </trkpt>
      <trkpt lat="43.68267" lon="3.69603">
        <ele>160.9</ele>
        <time>2011-05-29T08:07:58Z</time>
      </trkpt>
      <trkpt lat="43.68271" lon="3.69594">
        <ele>160.6</ele>
        <time>2011-05-29T08:08:00Z</time>
      </trkpt>
      <trkpt lat="43.68275" lon="3.69585">
        <ele>160.3</ele>
        <time>2011-05-29T08:08:02Z</time>
      </trkpt>
      <trkpt lat="43.6828" lon="3.69575">
        <ele>160.4</ele>
        <time>2011-05-29T08:08:04Z</time>
      </trkpt>
      <trkpt lat="43.68286" lon="3.69566">
        <ele>160.6</ele>
        <time>2011-05-29T08:08:06Z</time>
      </trkpt>
      <trkpt lat="43.68291" lon="3.69557">
        <ele>160.8</ele>
        <time>2011-05-29T08:08:08Z</time>
      </trkpt>
      <trkpt lat="43.68294" lon="3.69553">
        <ele>160.9</ele>
        <time>2011-05-29T08:08:09Z</time>
      </trkpt>
      <trkpt lat="43.68297" lon="3.69548">
        <ele>161</ele>
        <time>2011-05-29T08:08:10Z</time>
      </trkpt>
      <trkpt lat="43.68301" lon="3.69544">
        <ele>161</ele>
        <time>2011-05-29T08:08:11Z</time>
      </trkpt>
      <trkpt lat="43.68304" lon="3.6954">
        <ele>161.1</ele>
        <time>2011-05-29T08:08:12Z</time>
      </trkpt>
      <trkpt lat="43.68308" lon="3.69537">
        <ele>161.2</ele>
        <time>2011-05-29T08:08:13Z</time>
      </trkpt>
      <trkpt lat="43.68312" lon="3.69533">
        <ele>161.2</ele>
        <time>2011-05-29T08:08:14Z</time>
      </trkpt>
      <trkpt lat="43.68319" lon="3.69526">
        <ele>161.3</ele>
        <time>2011-05-29T08:08:16Z</time>
      </trkpt>
      <trkpt lat="43.68324" lon="3.69523">
        <ele>161.3</ele>
        <time>2011-05-29T08:08:17Z</time>
      </trkpt>
      <trkpt lat="43.68328" lon="3.69521">
        <ele>161.4</ele>
        <time>2011-05-29T08:08:18Z</time>
      </trkpt>
      <trkpt lat="43.68332" lon="3.6952">
        <ele>161.5</ele>
        <time>2011-05-29T08:08:19Z</time>
      </trkpt>
      <trkpt lat="43.68337" lon="3.69519">
        <ele>161.5</ele>
        <time>2011-05-29T08:08:20Z</time>
      </trkpt>
      <trkpt lat="43.68342" lon="3.69518">
        <ele>161.4</ele>
        <time>2011-05-29T08:08:21Z</time>
      </trkpt>
      <trkpt lat="43.68346" lon="3.69517">
        <ele>161.4</ele>
        <time>2011-05-29T08:08:22Z</time>
      </trkpt>
      <trkpt lat="43.68351" lon="3.69516">
        <ele>161.3</ele>
        <time>2011-05-29T08:08:23Z</time>
      </trkpt>
      <trkpt lat="43.68355" lon="3.69515">
        <ele>161.3</ele>
        <time>2011-05-29T08:08:24Z</time>
      </trkpt>
      <trkpt lat="43.6836" lon="3.69514">
        <ele>161.2</ele>
        <time>2011-05-29T08:08:25Z</time>
      </trkpt>
      <trkpt lat="43.68365" lon="3.69513">
        <ele>161.2</ele>
        <time>2011-05-29T08:08:26Z</time>
      </trkpt>
      <trkpt lat="43.68369" lon="3.69511">
        <ele>161.1</ele>
        <time>2011-05-29T08:08:27Z</time>
      </trkpt>
      <trkpt lat="43.68374" lon="3.6951">
        <ele>161</ele>
        <time>2011-05-29T08:08:28Z</time>
      </trkpt>
      <trkpt lat="43.68379" lon="3.69509">
        <ele>160.9</ele>
        <time>2011-05-29T08:08:29Z</time>
      </trkpt>
      <trkpt lat="43.68385" lon="3.69503">
        <ele>160.5</ele>
        <time>2011-05-29T08:08:31Z</time>
      </trkpt>
      <trkpt lat="43.68383" lon="3.69491">
        <ele>160.4</ele>
        <time>2011-05-29T08:08:34Z</time>
      </trkpt>
      <trkpt lat="43.68382" lon="3.69488">
        <ele>160.5</ele>
        <time>2011-05-29T08:08:35Z</time>
      </trkpt>
      <trkpt lat="43.68376" lon="3.69475">
        <ele>160.6</ele>
        <time>2011-05-29T08:08:40Z</time>
      </trkpt>
      <trkpt lat="43.68371" lon="3.69465">
        <ele>160.8</ele>
        <time>2011-05-29T08:08:43Z</time>
      </trkpt>
      <trkpt lat="43.68366" lon="3.69455">
        <ele>160.9</ele>
        <time>2011-05-29T08:08:46Z</time>
      </trkpt>
      <trkpt lat="43.68359" lon="3.69447">
        <ele>161.1</ele>
        <time>2011-05-29T08:08:49Z</time>
      </trkpt>
      <trkpt lat="43.68354" lon="3.69441">
        <ele>161.3</ele>
        <time>2011-05-29T08:08:52Z</time>
      </trkpt>
      <trkpt lat="43.68348" lon="3.69435">
        <ele>161.5</ele>
        <time>2011-05-29T08:08:55Z</time>
      </trkpt>
      <trkpt lat="43.68341" lon="3.69428">
        <ele>161.7</ele>
        <time>2011-05-29T08:08:58Z</time>
      </trkpt>
      <trkpt lat="43.68334" lon="3.69422">
        <ele>161.9</ele>
        <time>2011-05-29T08:09:01Z</time>
      </trkpt>
      <trkpt lat="43.68326" lon="3.69418">
        <ele>162.2</ele>
        <time>2011-05-29T08:09:04Z</time>
      </trkpt>
      <trkpt lat="43.6832" lon="3.69416">
        <ele>162.3</ele>
        <time>2011-05-29T08:09:06Z</time>
      </trkpt>
      <trkpt lat="43.68313" lon="3.69414">
        <ele>162.6</ele>
        <time>2011-05-29T08:09:08Z</time>
      </trkpt>
      <trkpt lat="43.68306" lon="3.69411">
        <ele>162.8</ele>
        <time>2011-05-29T08:09:10Z</time>
      </trkpt>
      <trkpt lat="43.68298" lon="3.69409">
        <ele>163</ele>
        <time>2011-05-29T08:09:12Z</time>
      </trkpt>
      <trkpt lat="43.68292" lon="3.69405">
        <ele>163.3</ele>
        <time>2011-05-29T08:09:14Z</time>
      </trkpt>
      <trkpt lat="43.68285" lon="3.69401">
        <ele>163.5</ele>
        <time>2011-05-29T08:09:16Z</time>
      </trkpt>
      <trkpt lat="43.68279" lon="3.69397">
        <ele>163.7</ele>
        <time>2011-05-29T08:09:18Z</time>
      </trkpt>
      <trkpt lat="43.68272" lon="3.69394">
        <ele>163.9</ele>
        <time>2011-05-29T08:09:20Z</time>
      </trkpt>
      <trkpt lat="43.68265" lon="3.6939">
        <ele>164.1</ele>
        <time>2011-05-29T08:09:22Z</time>
      </trkpt>
      <trkpt lat="43.68257" lon="3.69385">
        <ele>164.3</ele>
        <time>2011-05-29T08:09:24Z</time>
      </trkpt>
      <trkpt lat="43.6825" lon="3.69379">
        <ele>164.5</ele>
        <time>2011-05-29T08:09:26Z</time>
      </trkpt>
      <trkpt lat="43.68243" lon="3.69373">
        <ele>164.9</ele>
        <time>2011-05-29T08:09:28Z</time>
      </trkpt>
      <trkpt lat="43.68237" lon="3.69364">
        <ele>165.4</ele>
        <time>2011-05-29T08:09:30Z</time>
      </trkpt>
      <trkpt lat="43.68233" lon="3.69355">
        <ele>165.7</ele>
        <time>2011-05-29T08:09:32Z</time>
      </trkpt>
      <trkpt lat="43.6823" lon="3.69344">
        <ele>166</ele>
        <time>2011-05-29T08:09:34Z</time>
      </trkpt>
      <trkpt lat="43.68229" lon="3.69336">
        <ele>166.2</ele>
        <time>2011-05-29T08:09:36Z</time>
      </trkpt>
      <trkpt lat="43.68229" lon="3.69331">
        <ele>166.3</ele>
        <time>2011-05-29T08:09:37Z</time>
      </trkpt>
      <trkpt lat="43.68226" lon="3.69318">
        <ele>166.7</ele>
        <time>2011-05-29T08:09:40Z</time>
      </trkpt>
      <trkpt lat="43.68224" lon="3.6931">
        <ele>167</ele>
        <time>2011-05-29T08:09:42Z</time>
      </trkpt>
      <trkpt lat="43.68222" lon="3.69302">
        <ele>167.2</ele>
        <time>2011-05-29T08:09:44Z</time>
      </trkpt>
      <trkpt lat="43.68219" lon="3.69294">
        <ele>167.5</ele>
        <time>2011-05-29T08:09:46Z</time>
      </trkpt>
      <trkpt lat="43.68213" lon="3.69285">
        <ele>167.9</ele>
        <time>2011-05-29T08:09:49Z</time>
      </trkpt>
      <trkpt lat="43.68208" lon="3.69275">
        <ele>168.2</ele>
        <time>2011-05-29T08:09:52Z</time>
      </trkpt>
      <trkpt lat="43.68204" lon="3.69269">
        <ele>168.5</ele>
        <time>2011-05-29T08:09:54Z</time>
      </trkpt>
      <trkpt lat="43.68197" lon="3.69261">
        <ele>168.8</ele>
        <time>2011-05-29T08:09:57Z</time>
      </trkpt>
      <trkpt lat="43.6819" lon="3.69252">
        <ele>169.1</ele>
        <time>2011-05-29T08:10:14Z</time>
      </trkpt>
      <trkpt lat="43.68185" lon="3.69259">
        <ele>169.3</ele>
        <time>2011-05-29T08:10:22Z</time>
      </trkpt>
      <trkpt lat="43.68179" lon="3.69261">
        <ele>169.5</ele>
        <time>2011-05-29T08:10:24Z</time>
      </trkpt>
      <trkpt lat="43.68171" lon="3.69262">
        <ele>169.8</ele>
        <time>2011-05-29T08:10:26Z</time>
      </trkpt>
      <trkpt lat="43.68163" lon="3.69262">
        <ele>170</ele>
        <time>2011-05-29T08:10:28Z</time>
      </trkpt>
      <trkpt lat="43.68154" lon="3.69262">
        <ele>169.9</ele>
        <time>2011-05-29T08:10:30Z</time>
      </trkpt>
      <trkpt lat="43.6815" lon="3.69264">
        <ele>169.9</ele>
        <time>2011-05-29T08:10:31Z</time>
      </trkpt>
      <trkpt lat="43.68141" lon="3.69266">
        <ele>169.9</ele>
        <time>2011-05-29T08:10:33Z</time>
      </trkpt>
      <trkpt lat="43.68133" lon="3.69263">
        <ele>169.8</ele>
        <time>2011-05-29T08:10:46Z</time>
      </trkpt>
      <trkpt lat="43.68132" lon="3.69263">
        <ele>169.8</ele>
        <time>2011-05-29T08:10:47Z</time>
      </trkpt>
      <trkpt lat="43.68146" lon="3.6925">
        <ele>169.8</ele>
        <time>2011-05-29T08:11:49Z</time>
      </trkpt>
      <trkpt lat="43.68149" lon="3.69249">
        <ele>169.8</ele>
        <time>2011-05-29T08:11:50Z</time>
      </trkpt>
      <trkpt lat="43.68157" lon="3.69242">
        <ele>170</ele>
        <time>2011-05-29T08:11:53Z</time>
      </trkpt>
      <trkpt lat="43.68163" lon="3.69237">
        <ele>170.2</ele>
        <time>2011-05-29T08:11:55Z</time>
      </trkpt>
      <trkpt lat="43.68169" lon="3.69231">
        <ele>170.4</ele>
        <time>2011-05-29T08:11:57Z</time>
      </trkpt>
      <trkpt lat="43.68175" lon="3.69223">
        <ele>170.4</ele>
        <time>2011-05-29T08:12:00Z</time>
      </trkpt>
      <trkpt lat="43.6818" lon="3.69215">
        <ele>170.4</ele>
        <time>2011-05-29T08:12:04Z</time>
      </trkpt>
      <trkpt lat="43.68189" lon="3.69213">
        <ele>170.2</ele>
        <time>2011-05-29T08:12:08Z</time>
      </trkpt>
      <trkpt lat="43.68194" lon="3.69206">
        <ele>170.2</ele>
        <time>2011-05-29T08:12:10Z</time>
      </trkpt>
      <trkpt lat="43.68201" lon="3.69198">
        <ele>170.3</ele>
        <time>2011-05-29T08:12:12Z</time>
      </trkpt>
      <trkpt lat="43.68207" lon="3.69191">
        <ele>170.3</ele>
        <time>2011-05-29T08:12:14Z</time>
      </trkpt>
      <trkpt lat="43.68214" lon="3.69185">
        <ele>170.3</ele>
        <time>2011-05-29T08:12:16Z</time>
      </trkpt>
      <trkpt lat="43.68222" lon="3.6918">
        <ele>170.3</ele>
        <time>2011-05-29T08:12:18Z</time>
      </trkpt>
      <trkpt lat="43.6823" lon="3.69175">
        <ele>170.2</ele>
        <time>2011-05-29T08:12:20Z</time>
      </trkpt>
      <trkpt lat="43.68238" lon="3.69171">
        <ele>170.1</ele>
        <time>2011-05-29T08:12:22Z</time>
      </trkpt>
      <trkpt lat="43.68243" lon="3.69169">
        <ele>170.1</ele>
        <time>2011-05-29T08:12:23Z</time>
      </trkpt>
      <trkpt lat="43.68247" lon="3.69167">
        <ele>170.1</ele>
        <time>2011-05-29T08:12:24Z</time>
      </trkpt>
      <trkpt lat="43.68251" lon="3.69164">
        <ele>170.1</ele>
        <time>2011-05-29T08:12:25Z</time>
      </trkpt>
      <trkpt lat="43.68256" lon="3.69161">
        <ele>170.1</ele>
        <time>2011-05-29T08:12:26Z</time>
      </trkpt>
      <trkpt lat="43.6826" lon="3.69157">
        <ele>170.2</ele>
        <time>2011-05-29T08:12:27Z</time>
      </trkpt>
      <trkpt lat="43.68265" lon="3.69153">
        <ele>170.3</ele>
        <time>2011-05-29T08:12:28Z</time>
      </trkpt>
      <trkpt lat="43.68269" lon="3.69148">
        <ele>170.4</ele>
        <time>2011-05-29T08:12:29Z</time>
      </trkpt>
      <trkpt lat="43.68273" lon="3.69143">
        <ele>170.5</ele>
        <time>2011-05-29T08:12:30Z</time>
      </trkpt>
      <trkpt lat="43.68277" lon="3.69137">
        <ele>170.6</ele>
        <time>2011-05-29T08:12:31Z</time>
      </trkpt>
      <trkpt lat="43.68281" lon="3.69132">
        <ele>170.7</ele>
        <time>2011-05-29T08:12:32Z</time>
      </trkpt>
      <trkpt lat="43.68284" lon="3.69126">
        <ele>170.9</ele>
        <time>2011-05-29T08:12:33Z</time>
      </trkpt>
      <trkpt lat="43.68289" lon="3.69121">
        <ele>170.9</ele>
        <time>2011-05-29T08:12:34Z</time>
      </trkpt>
      <trkpt lat="43.68293" lon="3.69116">
        <ele>171</ele>
        <time>2011-05-29T08:12:35Z</time>
      </trkpt>
      <trkpt lat="43.68297" lon="3.6911">
        <ele>171.1</ele>
        <time>2011-05-29T08:12:36Z</time>
      </trkpt>
      <trkpt lat="43.68302" lon="3.69105">
        <ele>171.1</ele>
        <time>2011-05-29T08:12:37Z</time>
      </trkpt>
      <trkpt lat="43.68306" lon="3.691">
        <ele>171.2</ele>
        <time>2011-05-29T08:12:38Z</time>
      </trkpt>
      <trkpt lat="43.68311" lon="3.69095">
        <ele>171.2</ele>
        <time>2011-05-29T08:12:39Z</time>
      </trkpt>
      <trkpt lat="43.68316" lon="3.69091">
        <ele>171.2</ele>
        <time>2011-05-29T08:12:40Z</time>
      </trkpt>
      <trkpt lat="43.68321" lon="3.69086">
        <ele>171.2</ele>
        <time>2011-05-29T08:12:41Z</time>
      </trkpt>
      <trkpt lat="43.68326" lon="3.69082">
        <ele>171.3</ele>
        <time>2011-05-29T08:12:42Z</time>
      </trkpt>
      <trkpt lat="43.6833" lon="3.69078">
        <ele>171.5</ele>
        <time>2011-05-29T08:12:43Z</time>
      </trkpt>
      <trkpt lat="43.68335" lon="3.69074">
        <ele>171.8</ele>
        <time>2011-05-29T08:12:44Z</time>
      </trkpt>
      <trkpt lat="43.6834" lon="3.69069">
        <ele>172.2</ele>
        <time>2011-05-29T08:12:45Z</time>
      </trkpt>
      <trkpt lat="43.68344" lon="3.69065">
        <ele>172.6</ele>
        <time>2011-05-29T08:12:46Z</time>
      </trkpt>
      <trkpt lat="43.68349" lon="3.69061">
        <ele>172.9</ele>
        <time>2011-05-29T08:12:47Z</time>
      </trkpt>
      <trkpt lat="43.68354" lon="3.69057">
        <ele>173.2</ele>
        <time>2011-05-29T08:12:48Z</time>
      </trkpt>
      <trkpt lat="43.68359" lon="3.69053">
        <ele>173.5</ele>
        <time>2011-05-29T08:12:49Z</time>
      </trkpt>
      <trkpt lat="43.68364" lon="3.69049">
        <ele>173.7</ele>
        <time>2011-05-29T08:12:50Z</time>
      </trkpt>
      <trkpt lat="43.68369" lon="3.69045">
        <ele>173.8</ele>
        <time>2011-05-29T08:12:51Z</time>
      </trkpt>
      <trkpt lat="43.68374" lon="3.69042">
        <ele>174</ele>
        <time>2011-05-29T08:12:52Z</time>
      </trkpt>
      <trkpt lat="43.68379" lon="3.69039">
        <ele>174.1</ele>
        <time>2011-05-29T08:12:53Z</time>
      </trkpt>
      <trkpt lat="43.68385" lon="3.69036">
        <ele>174.2</ele>
        <time>2011-05-29T08:12:54Z</time>
      </trkpt>
      <trkpt lat="43.6839" lon="3.69033">
        <ele>174.2</ele>
        <time>2011-05-29T08:12:55Z</time>
      </trkpt>
      <trkpt lat="43.68396" lon="3.69031">
        <ele>174.2</ele>
        <time>2011-05-29T08:12:56Z</time>
      </trkpt>
      <trkpt lat="43.68402" lon="3.69029">
        <ele>174.2</ele>
        <time>2011-05-29T08:12:57Z</time>
      </trkpt>
      <trkpt lat="43.68409" lon="3.69029">
        <ele>174.1</ele>
        <time>2011-05-29T08:12:58Z</time>
      </trkpt>
      <trkpt lat="43.68415" lon="3.69028">
        <ele>174</ele>
        <time>2011-05-29T08:12:59Z</time>
      </trkpt>
      <trkpt lat="43.68422" lon="3.69027">
        <ele>174.1</ele>
        <time>2011-05-29T08:13:00Z</time>
      </trkpt>
      <trkpt lat="43.68428" lon="3.69025">
        <ele>174.3</ele>
        <time>2011-05-29T08:13:01Z</time>
      </trkpt>
      <trkpt lat="43.68434" lon="3.69023">
        <ele>174.5</ele>
        <time>2011-05-29T08:13:02Z</time>
      </trkpt>
      <trkpt lat="43.68439" lon="3.69019">
        <ele>174.6</ele>
        <time>2011-05-29T08:13:03Z</time>
      </trkpt>
      <trkpt lat="43.68444" lon="3.69016">
        <ele>174.7</ele>
        <time>2011-05-29T08:13:04Z</time>
      </trkpt>
      <trkpt lat="43.68451" lon="3.6901">
        <ele>174.9</ele>
        <time>2011-05-29T08:13:06Z</time>
      </trkpt>
      <trkpt lat="43.68457" lon="3.69004">
        <ele>175</ele>
        <time>2011-05-29T08:13:08Z</time>
      </trkpt>
      <trkpt lat="43.68462" lon="3.68998">
        <ele>175.1</ele>
        <time>2011-05-29T08:13:10Z</time>
      </trkpt>
      <trkpt lat="43.68468" lon="3.68993">
        <ele>175.4</ele>
        <time>2011-05-29T08:13:12Z</time>
      </trkpt>
      <trkpt lat="43.68473" lon="3.68987">
        <ele>175.6</ele>
        <time>2011-05-29T08:13:14Z</time>
      </trkpt>
      <trkpt lat="43.68477" lon="3.68981">
        <ele>175.7</ele>
        <time>2011-05-29T08:13:16Z</time>
      </trkpt>
      <trkpt lat="43.68483" lon="3.68975">
        <ele>175.8</ele>
        <time>2011-05-29T08:13:18Z</time>
      </trkpt>
      <trkpt lat="43.68489" lon="3.68969">
        <ele>175.8</ele>
        <time>2011-05-29T08:13:20Z</time>
      </trkpt>
      <trkpt lat="43.68495" lon="3.68964">
        <ele>175.7</ele>
        <time>2011-05-29T08:13:22Z</time>
      </trkpt>
      <trkpt lat="43.68501" lon="3.68959">
        <ele>175.4</ele>
        <time>2011-05-29T08:13:24Z</time>
      </trkpt>
      <trkpt lat="43.68507" lon="3.68954">
        <ele>174.8</ele>
        <time>2011-05-29T08:13:26Z</time>
      </trkpt>
      <trkpt lat="43.68514" lon="3.68949">
        <ele>174.2</ele>
        <time>2011-05-29T08:13:28Z</time>
      </trkpt>
      <trkpt lat="43.68521" lon="3.68945">
        <ele>173.6</ele>
        <time>2011-05-29T08:13:30Z</time>
      </trkpt>
      <trkpt lat="43.68528" lon="3.68941">
        <ele>173</ele>
        <time>2011-05-29T08:13:32Z</time>
      </trkpt>
      <trkpt lat="43.68535" lon="3.68937">
        <ele>172.3</ele>
        <time>2011-05-29T08:13:34Z</time>
      </trkpt>
      <trkpt lat="43.68543" lon="3.68931">
        <ele>171.5</ele>
        <time>2011-05-29T08:13:36Z</time>
      </trkpt>
      <trkpt lat="43.68548" lon="3.68928">
        <ele>171.1</ele>
        <time>2011-05-29T08:13:37Z</time>
      </trkpt>
      <trkpt lat="43.68552" lon="3.68926">
        <ele>170.7</ele>
        <time>2011-05-29T08:13:38Z</time>
      </trkpt>
      <trkpt lat="43.68557" lon="3.68923">
        <ele>170.3</ele>
        <time>2011-05-29T08:13:39Z</time>
      </trkpt>
      <trkpt lat="43.68562" lon="3.6892">
        <ele>169.8</ele>
        <time>2011-05-29T08:13:40Z</time>
      </trkpt>
      <trkpt lat="43.68567" lon="3.68917">
        <ele>169.4</ele>
        <time>2011-05-29T08:13:41Z</time>
      </trkpt>
      <trkpt lat="43.68572" lon="3.68914">
        <ele>169.1</ele>
        <time>2011-05-29T08:13:42Z</time>
      </trkpt>
      <trkpt lat="43.68578" lon="3.68911">
        <ele>168.9</ele>
        <time>2011-05-29T08:13:43Z</time>
      </trkpt>
      <trkpt lat="43.68583" lon="3.68908">
        <ele>168.6</ele>
        <time>2011-05-29T08:13:44Z</time>
      </trkpt>
      <trkpt lat="43.68589" lon="3.68905">
        <ele>168.8</ele>
        <time>2011-05-29T08:13:45Z</time>
      </trkpt>
      <trkpt lat="43.68594" lon="3.68902">
        <ele>168.9</ele>
        <time>2011-05-29T08:13:46Z</time>
      </trkpt>
      <trkpt lat="43.686" lon="3.689">
        <ele>169.1</ele>
        <time>2011-05-29T08:13:47Z</time>
      </trkpt>
      <trkpt lat="43.68606" lon="3.68897">
        <ele>169.2</ele>
        <time>2011-05-29T08:13:48Z</time>
      </trkpt>
      <trkpt lat="43.68612" lon="3.68896">
        <ele>169.3</ele>
        <time>2011-05-29T08:13:49Z</time>
      </trkpt>
      <trkpt lat="43.68619" lon="3.68895">
        <ele>169.2</ele>
        <time>2011-05-29T08:13:50Z</time>
      </trkpt>
      <trkpt lat="43.68625" lon="3.68896">
        <ele>169.1</ele>
        <time>2011-05-29T08:13:51Z</time>
      </trkpt>
      <trkpt lat="43.68631" lon="3.68897">
        <ele>169</ele>
        <time>2011-05-29T08:13:52Z</time>
      </trkpt>
      <trkpt lat="43.68638" lon="3.68898">
        <ele>168.8</ele>
        <time>2011-05-29T08:13:53Z</time>
      </trkpt>
      <trkpt lat="43.68644" lon="3.68899">
        <ele>168.7</ele>
        <time>2011-05-29T08:13:54Z</time>
      </trkpt>
      <trkpt lat="43.6865" lon="3.689">
        <ele>168.6</ele>
        <time>2011-05-29T08:13:55Z</time>
      </trkpt>
      <trkpt lat="43.68657" lon="3.68901">
        <ele>168.4</ele>
        <time>2011-05-29T08:13:56Z</time>
      </trkpt>
      <trkpt lat="43.68663" lon="3.68902">
        <ele>168.3</ele>
        <time>2011-05-29T08:13:57Z</time>
      </trkpt>
      <trkpt lat="43.6867" lon="3.68904">
        <ele>168.2</ele>
        <time>2011-05-29T08:13:58Z</time>
      </trkpt>
      <trkpt lat="43.68677" lon="3.68906">
        <ele>168.1</ele>
        <time>2011-05-29T08:13:59Z</time>
      </trkpt>
      <trkpt lat="43.68683" lon="3.68909">
        <ele>167.9</ele>
        <time>2011-05-29T08:14:00Z</time>
      </trkpt>
      <trkpt lat="43.6869" lon="3.68913">
        <ele>167.8</ele>
        <time>2011-05-29T08:14:01Z</time>
      </trkpt>
      <trkpt lat="43.68697" lon="3.68918">
        <ele>167.8</ele>
        <time>2011-05-29T08:14:02Z</time>
      </trkpt>
      <trkpt lat="43.68703" lon="3.68923">
        <ele>168.2</ele>
        <time>2011-05-29T08:14:03Z</time>
      </trkpt>
      <trkpt lat="43.6871" lon="3.68927">
        <ele>168.7</ele>
        <time>2011-05-29T08:14:04Z</time>
      </trkpt>
      <trkpt lat="43.68717" lon="3.68929">
        <ele>169.1</ele>
        <time>2011-05-29T08:14:05Z</time>
      </trkpt>
      <trkpt lat="43.68724" lon="3.6893">
        <ele>169.5</ele>
        <time>2011-05-29T08:14:06Z</time>
      </trkpt>
      <trkpt lat="43.68731" lon="3.68931">
        <ele>169.9</ele>
        <time>2011-05-29T08:14:07Z</time>
      </trkpt>
      <trkpt lat="43.68738" lon="3.6893">
        <ele>170.1</ele>
        <time>2011-05-29T08:14:08Z</time>
      </trkpt>
      <trkpt lat="43.68744" lon="3.68928">
        <ele>170.1</ele>
        <time>2011-05-29T08:14:09Z</time>
      </trkpt>
      <trkpt lat="43.6875" lon="3.68927">
        <ele>170.2</ele>
        <time>2011-05-29T08:14:10Z</time>
      </trkpt>
      <trkpt lat="43.68756" lon="3.68925">
        <ele>170.1</ele>
        <time>2011-05-29T08:14:11Z</time>
      </trkpt>
      <trkpt lat="43.68761" lon="3.68924">
        <ele>170</ele>
        <time>2011-05-29T08:14:12Z</time>
      </trkpt>
      <trkpt lat="43.68767" lon="3.68923">
        <ele>170.1</ele>
        <time>2011-05-29T08:14:13Z</time>
      </trkpt>
      <trkpt lat="43.68772" lon="3.68923">
        <ele>170.1</ele>
        <time>2011-05-29T08:14:14Z</time>
      </trkpt>
      <trkpt lat="43.68778" lon="3.68923">
        <ele>170.2</ele>
        <time>2011-05-29T08:14:15Z</time>
      </trkpt>
      <trkpt lat="43.68783" lon="3.68924">
        <ele>170.4</ele>
        <time>2011-05-29T08:14:16Z</time>
      </trkpt>
      <trkpt lat="43.68789" lon="3.68925">
        <ele>170.6</ele>
        <time>2011-05-29T08:14:17Z</time>
      </trkpt>
      <trkpt lat="43.68794" lon="3.68926">
        <ele>170.9</ele>
        <time>2011-05-29T08:14:18Z</time>
      </trkpt>
      <trkpt lat="43.68799" lon="3.68928">
        <ele>171.2</ele>
        <time>2011-05-29T08:14:19Z</time>
      </trkpt>
      <trkpt lat="43.68804" lon="3.68929">
        <ele>171.5</ele>
        <time>2011-05-29T08:14:20Z</time>
      </trkpt>
      <trkpt lat="43.68809" lon="3.6893">
        <ele>171.8</ele>
        <time>2011-05-29T08:14:21Z</time>
      </trkpt>
      <trkpt lat="43.68814" lon="3.68931">
        <ele>172</ele>
        <time>2011-05-29T08:14:22Z</time>
      </trkpt>
      <trkpt lat="43.68819" lon="3.68931">
        <ele>172.1</ele>
        <time>2011-05-29T08:14:23Z</time>
      </trkpt>
      <trkpt lat="43.68824" lon="3.68931">
        <ele>172.2</ele>
        <time>2011-05-29T08:14:24Z</time>
      </trkpt>
      <trkpt lat="43.68829" lon="3.68931">
        <ele>172.2</ele>
        <time>2011-05-29T08:14:25Z</time>
      </trkpt>
      <trkpt lat="43.68834" lon="3.6893">
        <ele>172.3</ele>
        <time>2011-05-29T08:14:26Z</time>
      </trkpt>
      <trkpt lat="43.68839" lon="3.6893">
        <ele>172.1</ele>
        <time>2011-05-29T08:14:27Z</time>
      </trkpt>
      <trkpt lat="43.68843" lon="3.68929">
        <ele>171.8</ele>
        <time>2011-05-29T08:14:28Z</time>
      </trkpt>
      <trkpt lat="43.68848" lon="3.68928">
        <ele>171.5</ele>
        <time>2011-05-29T08:14:29Z</time>
      </trkpt>
      <trkpt lat="43.68854" lon="3.68927">
        <ele>171.3</ele>
        <time>2011-05-29T08:14:30Z</time>
      </trkpt>
      <trkpt lat="43.68859" lon="3.68927">
        <ele>171.1</ele>
        <time>2011-05-29T08:14:31Z</time>
      </trkpt>
      <trkpt lat="43.68864" lon="3.68926">
        <ele>170.9</ele>
        <time>2011-05-29T08:14:32Z</time>
      </trkpt>
      <trkpt lat="43.68869" lon="3.68924">
        <ele>170.6</ele>
        <time>2011-05-29T08:14:33Z</time>
      </trkpt>
      <trkpt lat="43.68874" lon="3.68922">
        <ele>170.2</ele>
        <time>2011-05-29T08:14:34Z</time>
      </trkpt>
      <trkpt lat="43.68879" lon="3.68919">
        <ele>169.7</ele>
        <time>2011-05-29T08:14:35Z</time>
      </trkpt>
      <trkpt lat="43.68885" lon="3.68917">
        <ele>169.4</ele>
        <time>2011-05-29T08:14:36Z</time>
      </trkpt>
      <trkpt lat="43.6889" lon="3.68915">
        <ele>169.3</ele>
        <time>2011-05-29T08:14:37Z</time>
      </trkpt>
      <trkpt lat="43.68896" lon="3.68914">
        <ele>169.2</ele>
        <time>2011-05-29T08:14:38Z</time>
      </trkpt>
      <trkpt lat="43.68902" lon="3.68913">
        <ele>169.1</ele>
        <time>2011-05-29T08:14:39Z</time>
      </trkpt>
      <trkpt lat="43.68907" lon="3.6891">
        <ele>169</ele>
        <time>2011-05-29T08:14:40Z</time>
      </trkpt>
      <trkpt lat="43.68912" lon="3.68908">
        <ele>168.9</ele>
        <time>2011-05-29T08:14:41Z</time>
      </trkpt>
      <trkpt lat="43.68918" lon="3.68905">
        <ele>168.9</ele>
        <time>2011-05-29T08:14:42Z</time>
      </trkpt>
      <trkpt lat="43.68923" lon="3.68903">
        <ele>169</ele>
        <time>2011-05-29T08:14:43Z</time>
      </trkpt>
      <trkpt lat="43.68928" lon="3.689">
        <ele>169.1</ele>
        <time>2011-05-29T08:14:44Z</time>
      </trkpt>
      <trkpt lat="43.68933" lon="3.68898">
        <ele>169.2</ele>
        <time>2011-05-29T08:14:45Z</time>
      </trkpt>
      <trkpt lat="43.68938" lon="3.68895">
        <ele>169.3</ele>
        <time>2011-05-29T08:14:46Z</time>
      </trkpt>
      <trkpt lat="43.68942" lon="3.68893">
        <ele>169.4</ele>
        <time>2011-05-29T08:14:47Z</time>
      </trkpt>
      <trkpt lat="43.68947" lon="3.6889">
        <ele>169.4</ele>
        <time>2011-05-29T08:14:48Z</time>
      </trkpt>
      <trkpt lat="43.68951" lon="3.68888">
        <ele>169.5</ele>
        <time>2011-05-29T08:14:49Z</time>
      </trkpt>
      <trkpt lat="43.68956" lon="3.68886">
        <ele>169.5</ele>
        <time>2011-05-29T08:14:50Z</time>
      </trkpt>
      <trkpt lat="43.68961" lon="3.68884">
        <ele>169.6</ele>
        <time>2011-05-29T08:14:51Z</time>
      </trkpt>
      <trkpt lat="43.68966" lon="3.68882">
        <ele>169.6</ele>
        <time>2011-05-29T08:14:52Z</time>
      </trkpt>
      <trkpt lat="43.6897" lon="3.6888">
        <ele>169.6</ele>
        <time>2011-05-29T08:14:53Z</time>
      </trkpt>
      <trkpt lat="43.68975" lon="3.68878">
        <ele>169.7</ele>
        <time>2011-05-29T08:14:54Z</time>
      </trkpt>
      <trkpt lat="43.6898" lon="3.68877">
        <ele>169.7</ele>
        <time>2011-05-29T08:14:55Z</time>
      </trkpt>
      <trkpt lat="43.68986" lon="3.68877">
        <ele>169.8</ele>
        <time>2011-05-29T08:14:56Z</time>
      </trkpt>
      <trkpt lat="43.68994" lon="3.68882">
        <ele>170.2</ele>
        <time>2011-05-29T08:14:58Z</time>
      </trkpt>
      <trkpt lat="43.68998" lon="3.68885">
        <ele>170.4</ele>
        <time>2011-05-29T08:14:59Z</time>
      </trkpt>
      <trkpt lat="43.69002" lon="3.68889">
        <ele>170.7</ele>
        <time>2011-05-29T08:15:00Z</time>
      </trkpt>
      <trkpt lat="43.69006" lon="3.68893">
        <ele>171</ele>
        <time>2011-05-29T08:15:01Z</time>
      </trkpt>
      <trkpt lat="43.6901" lon="3.68897">
        <ele>171.3</ele>
        <time>2011-05-29T08:15:02Z</time>
      </trkpt>
      <trkpt lat="43.69015" lon="3.689">
        <ele>171.5</ele>
        <time>2011-05-29T08:15:03Z</time>
      </trkpt>
      <trkpt lat="43.69019" lon="3.68904">
        <ele>171.8</ele>
        <time>2011-05-29T08:15:04Z</time>
      </trkpt>
      <trkpt lat="43.69024" lon="3.68906">
        <ele>172</ele>
        <time>2011-05-29T08:15:05Z</time>
      </trkpt>
      <trkpt lat="43.69028" lon="3.68908">
        <ele>172.2</ele>
        <time>2011-05-29T08:15:06Z</time>
      </trkpt>
      <trkpt lat="43.69033" lon="3.68909">
        <ele>172.4</ele>
        <time>2011-05-29T08:15:07Z</time>
      </trkpt>
      <trkpt lat="43.69042" lon="3.68909">
        <ele>172.6</ele>
        <time>2011-05-29T08:15:09Z</time>
      </trkpt>
      <trkpt lat="43.69046" lon="3.68908">
        <ele>172.6</ele>
        <time>2011-05-29T08:15:10Z</time>
      </trkpt>
      <trkpt lat="43.69051" lon="3.68908">
        <ele>172.7</ele>
        <time>2011-05-29T08:15:11Z</time>
      </trkpt>
      <trkpt lat="43.69055" lon="3.68907">
        <ele>172.8</ele>
        <time>2011-05-29T08:15:12Z</time>
      </trkpt>
      <trkpt lat="43.6906" lon="3.68906">
        <ele>172.8</ele>
        <time>2011-05-29T08:15:13Z</time>
      </trkpt>
      <trkpt lat="43.69064" lon="3.68905">
        <ele>172.9</ele>
        <time>2011-05-29T08:15:14Z</time>
      </trkpt>
      <trkpt lat="43.69069" lon="3.68904">
        <ele>172.9</ele>
        <time>2011-05-29T08:15:15Z</time>
      </trkpt>
      <trkpt lat="43.69073" lon="3.68903">
        <ele>173</ele>
        <time>2011-05-29T08:15:16Z</time>
      </trkpt>
      <trkpt lat="43.69078" lon="3.68902">
        <ele>173</ele>
        <time>2011-05-29T08:15:17Z</time>
      </trkpt>
      <trkpt lat="43.69083" lon="3.689">
        <ele>173</ele>
        <time>2011-05-29T08:15:18Z</time>
      </trkpt>
      <trkpt lat="43.69087" lon="3.68899">
        <ele>173</ele>
        <time>2011-05-29T08:15:19Z</time>
      </trkpt>
      <trkpt lat="43.69092" lon="3.68898">
        <ele>173</ele>
        <time>2011-05-29T08:15:20Z</time>
      </trkpt>
      <trkpt lat="43.69096" lon="3.68896">
        <ele>172.9</ele>
        <time>2011-05-29T08:15:21Z</time>
      </trkpt>
      <trkpt lat="43.69101" lon="3.68894">
        <ele>172.9</ele>
        <time>2011-05-29T08:15:22Z</time>
      </trkpt>
      <trkpt lat="43.69105" lon="3.68892">
        <ele>172.9</ele>
        <time>2011-05-29T08:15:23Z</time>
      </trkpt>
      <trkpt lat="43.6911" lon="3.68891">
        <ele>172.8</ele>
        <time>2011-05-29T08:15:24Z</time>
      </trkpt>
      <trkpt lat="43.69114" lon="3.68889">
        <ele>172.8</ele>
        <time>2011-05-29T08:15:25Z</time>
      </trkpt>
      <trkpt lat="43.69119" lon="3.68888">
        <ele>172.8</ele>
        <time>2011-05-29T08:15:26Z</time>
      </trkpt>
      <trkpt lat="43.69123" lon="3.68887">
        <ele>172.8</ele>
        <time>2011-05-29T08:15:27Z</time>
      </trkpt>
      <trkpt lat="43.69128" lon="3.68886">
        <ele>172.9</ele>
        <time>2011-05-29T08:15:28Z</time>
      </trkpt>
      <trkpt lat="43.69133" lon="3.68884">
        <ele>172.9</ele>
        <time>2011-05-29T08:15:29Z</time>
      </trkpt>
      <trkpt lat="43.69137" lon="3.68883">
        <ele>172.9</ele>
        <time>2011-05-29T08:15:30Z</time>
      </trkpt>
      <trkpt lat="43.69146" lon="3.68881">
        <ele>172.9</ele>
        <time>2011-05-29T08:15:32Z</time>
      </trkpt>
      <trkpt lat="43.69155" lon="3.68879">
        <ele>173</ele>
        <time>2011-05-29T08:15:34Z</time>
      </trkpt>
      <trkpt lat="43.69159" lon="3.68877">
        <ele>173</ele>
        <time>2011-05-29T08:15:35Z</time>
      </trkpt>
      <trkpt lat="43.69164" lon="3.68876">
        <ele>173</ele>
        <time>2011-05-29T08:15:36Z</time>
      </trkpt>
      <trkpt lat="43.69168" lon="3.68874">
        <ele>173</ele>
        <time>2011-05-29T08:15:37Z</time>
      </trkpt>
      <trkpt lat="43.69173" lon="3.68873">
        <ele>173</ele>
        <time>2011-05-29T08:15:38Z</time>
      </trkpt>
      <trkpt lat="43.69177" lon="3.68872">
        <ele>173.1</ele>
        <time>2011-05-29T08:15:39Z</time>
      </trkpt>
      <trkpt lat="43.69182" lon="3.6887">
        <ele>173.1</ele>
        <time>2011-05-29T08:15:40Z</time>
      </trkpt>
      <trkpt lat="43.69187" lon="3.68869">
        <ele>173.2</ele>
        <time>2011-05-29T08:15:41Z</time>
      </trkpt>
      <trkpt lat="43.69191" lon="3.68868">
        <ele>173.3</ele>
        <time>2011-05-29T08:15:42Z</time>
      </trkpt>
      <trkpt lat="43.69195" lon="3.68866">
        <ele>173.3</ele>
        <time>2011-05-29T08:15:43Z</time>
      </trkpt>
      <trkpt lat="43.692" lon="3.68864">
        <ele>173.3</ele>
        <time>2011-05-29T08:15:44Z</time>
      </trkpt>
      <trkpt lat="43.69204" lon="3.68862">
        <ele>173.3</ele>
        <time>2011-05-29T08:15:45Z</time>
      </trkpt>
      <trkpt lat="43.69209" lon="3.6886">
        <ele>173.3</ele>
        <time>2011-05-29T08:15:46Z</time>
      </trkpt>
      <trkpt lat="43.69213" lon="3.68858">
        <ele>173.3</ele>
        <time>2011-05-29T08:15:47Z</time>
      </trkpt>
      <trkpt lat="43.69218" lon="3.68856">
        <ele>173.3</ele>
        <time>2011-05-29T08:15:48Z</time>
      </trkpt>
      <trkpt lat="43.69222" lon="3.68854">
        <ele>173.3</ele>
        <time>2011-05-29T08:15:49Z</time>
      </trkpt>
      <trkpt lat="43.69226" lon="3.68851">
        <ele>173.3</ele>
        <time>2011-05-29T08:15:50Z</time>
      </trkpt>
      <trkpt lat="43.6923" lon="3.68848">
        <ele>173.2</ele>
        <time>2011-05-29T08:15:51Z</time>
      </trkpt>
      <trkpt lat="43.69234" lon="3.68845">
        <ele>173.2</ele>
        <time>2011-05-29T08:15:52Z</time>
      </trkpt>
      <trkpt lat="43.69238" lon="3.68841">
        <ele>173.1</ele>
        <time>2011-05-29T08:15:53Z</time>
      </trkpt>
      <trkpt lat="43.69241" lon="3.68838">
        <ele>173</ele>
        <time>2011-05-29T08:15:54Z</time>
      </trkpt>
      <trkpt lat="43.69249" lon="3.68831">
        <ele>172.8</ele>
        <time>2011-05-29T08:15:56Z</time>
      </trkpt>
      <trkpt lat="43.69252" lon="3.68827">
        <ele>172.9</ele>
        <time>2011-05-29T08:15:57Z</time>
      </trkpt>
      <trkpt lat="43.69256" lon="3.68823">
        <ele>172.9</ele>
        <time>2011-05-29T08:15:58Z</time>
      </trkpt>
      <trkpt lat="43.6926" lon="3.68819">
        <ele>173</ele>
        <time>2011-05-29T08:15:59Z</time>
      </trkpt>
      <trkpt lat="43.69263" lon="3.68815">
        <ele>173</ele>
        <time>2011-05-29T08:16:00Z</time>
      </trkpt>
      <trkpt lat="43.69267" lon="3.68812">
        <ele>173.1</ele>
        <time>2011-05-29T08:16:01Z</time>
      </trkpt>
      <trkpt lat="43.69271" lon="3.68807">
        <ele>173.1</ele>
        <time>2011-05-29T08:16:02Z</time>
      </trkpt>
      <trkpt lat="43.69274" lon="3.68803">
        <ele>173.1</ele>
        <time>2011-05-29T08:16:03Z</time>
      </trkpt>
      <trkpt lat="43.69277" lon="3.68799">
        <ele>173</ele>
        <time>2011-05-29T08:16:04Z</time>
      </trkpt>
      <trkpt lat="43.69281" lon="3.68795">
        <ele>173</ele>
        <time>2011-05-29T08:16:05Z</time>
      </trkpt>
      <trkpt lat="43.69284" lon="3.6879">
        <ele>172.9</ele>
        <time>2011-05-29T08:16:06Z</time>
      </trkpt>
      <trkpt lat="43.69287" lon="3.68786">
        <ele>172.9</ele>
        <time>2011-05-29T08:16:07Z</time>
      </trkpt>
      <trkpt lat="43.6929" lon="3.68781">
        <ele>172.8</ele>
        <time>2011-05-29T08:16:08Z</time>
      </trkpt>
      <trkpt lat="43.69294" lon="3.68777">
        <ele>172.7</ele>
        <time>2011-05-29T08:16:09Z</time>
      </trkpt>
      <trkpt lat="43.69297" lon="3.68772">
        <ele>172.6</ele>
        <time>2011-05-29T08:16:10Z</time>
      </trkpt>
      <trkpt lat="43.693" lon="3.68768">
        <ele>172.5</ele>
        <time>2011-05-29T08:16:11Z</time>
      </trkpt>
      <trkpt lat="43.69307" lon="3.6876">
        <ele>172.4</ele>
        <time>2011-05-29T08:16:13Z</time>
      </trkpt>
      <trkpt lat="43.69314" lon="3.68752">
        <ele>172.2</ele>
        <time>2011-05-29T08:16:15Z</time>
      </trkpt>
      <trkpt lat="43.6932" lon="3.68745">
        <ele>172.3</ele>
        <time>2011-05-29T08:16:17Z</time>
      </trkpt>
      <trkpt lat="43.69328" lon="3.68739">
        <ele>172.5</ele>
        <time>2011-05-29T08:16:19Z</time>
      </trkpt>
      <trkpt lat="43.69332" lon="3.68736">
        <ele>172.6</ele>
        <time>2011-05-29T08:16:20Z</time>
      </trkpt>
      <trkpt lat="43.69336" lon="3.68733">
        <ele>172.7</ele>
        <time>2011-05-29T08:16:21Z</time>
      </trkpt>
      <trkpt lat="43.69341" lon="3.6873">
        <ele>172.7</ele>
        <time>2011-05-29T08:16:22Z</time>
      </trkpt>
      <trkpt lat="43.69346" lon="3.68727">
        <ele>172.8</ele>
        <time>2011-05-29T08:16:23Z</time>
      </trkpt>
      <trkpt lat="43.69351" lon="3.68723">
        <ele>172.8</ele>
        <time>2011-05-29T08:16:24Z</time>
      </trkpt>
      <trkpt lat="43.69356" lon="3.6872">
        <ele>172.8</ele>
        <time>2011-05-29T08:16:25Z</time>
      </trkpt>
      <trkpt lat="43.69361" lon="3.68718">
        <ele>172.8</ele>
        <time>2011-05-29T08:16:26Z</time>
      </trkpt>
      <trkpt lat="43.69366" lon="3.68715">
        <ele>172.8</ele>
        <time>2011-05-29T08:16:27Z</time>
      </trkpt>
      <trkpt lat="43.69371" lon="3.68713">
        <ele>172.9</ele>
        <time>2011-05-29T08:16:28Z</time>
      </trkpt>
      <trkpt lat="43.69376" lon="3.68711">
        <ele>172.9</ele>
        <time>2011-05-29T08:16:29Z</time>
      </trkpt>
      <trkpt lat="43.69381" lon="3.68708">
        <ele>172.8</ele>
        <time>2011-05-29T08:16:30Z</time>
      </trkpt>
      <trkpt lat="43.69386" lon="3.68704">
        <ele>172.8</ele>
        <time>2011-05-29T08:16:31Z</time>
      </trkpt>
      <trkpt lat="43.69391" lon="3.687">
        <ele>172.6</ele>
        <time>2011-05-29T08:16:32Z</time>
      </trkpt>
      <trkpt lat="43.69395" lon="3.68696">
        <ele>172.5</ele>
        <time>2011-05-29T08:16:33Z</time>
      </trkpt>
      <trkpt lat="43.694" lon="3.68693">
        <ele>172.4</ele>
        <time>2011-05-29T08:16:34Z</time>
      </trkpt>
      <trkpt lat="43.69404" lon="3.68689">
        <ele>172.2</ele>
        <time>2011-05-29T08:16:35Z</time>
      </trkpt>
      <trkpt lat="43.69409" lon="3.68686">
        <ele>172.1</ele>
        <time>2011-05-29T08:16:36Z</time>
      </trkpt>
      <trkpt lat="43.69413" lon="3.68682">
        <ele>171.9</ele>
        <time>2011-05-29T08:16:37Z</time>
      </trkpt>
      <trkpt lat="43.69417" lon="3.68679">
        <ele>171.8</ele>
        <time>2011-05-29T08:16:38Z</time>
      </trkpt>
      <trkpt lat="43.69422" lon="3.68676">
        <ele>171.9</ele>
        <time>2011-05-29T08:16:39Z</time>
      </trkpt>
      <trkpt lat="43.69426" lon="3.68672">
        <ele>172</ele>
        <time>2011-05-29T08:16:40Z</time>
      </trkpt>
      <trkpt lat="43.6943" lon="3.68669">
        <ele>172.1</ele>
        <time>2011-05-29T08:16:41Z</time>
      </trkpt>
      <trkpt lat="43.69435" lon="3.68666">
        <ele>172.3</ele>
        <time>2011-05-29T08:16:42Z</time>
      </trkpt>
      <trkpt lat="43.69439" lon="3.68663">
        <ele>172.5</ele>
        <time>2011-05-29T08:16:43Z</time>
      </trkpt>
      <trkpt lat="43.69444" lon="3.68661">
        <ele>172.8</ele>
        <time>2011-05-29T08:16:44Z</time>
      </trkpt>
      <trkpt lat="43.69448" lon="3.68658">
        <ele>173</ele>
        <time>2011-05-29T08:16:45Z</time>
      </trkpt>
      <trkpt lat="43.69453" lon="3.68656">
        <ele>173.2</ele>
        <time>2011-05-29T08:16:46Z</time>
      </trkpt>
      <trkpt lat="43.69457" lon="3.68653">
        <ele>173.4</ele>
        <time>2011-05-29T08:16:47Z</time>
      </trkpt>
      <trkpt lat="43.69462" lon="3.68651">
        <ele>173.6</ele>
        <time>2011-05-29T08:16:48Z</time>
      </trkpt>
      <trkpt lat="43.69466" lon="3.68648">
        <ele>173.8</ele>
        <time>2011-05-29T08:16:49Z</time>
      </trkpt>
      <trkpt lat="43.6947" lon="3.68646">
        <ele>173.9</ele>
        <time>2011-05-29T08:16:50Z</time>
      </trkpt>
      <trkpt lat="43.69475" lon="3.68644">
        <ele>174</ele>
        <time>2011-05-29T08:16:51Z</time>
      </trkpt>
      <trkpt lat="43.69479" lon="3.68641">
        <ele>174.1</ele>
        <time>2011-05-29T08:16:52Z</time>
      </trkpt>
      <trkpt lat="43.69484" lon="3.68639">
        <ele>174.3</ele>
        <time>2011-05-29T08:16:53Z</time>
      </trkpt>
      <trkpt lat="43.69489" lon="3.68637">
        <ele>174.3</ele>
        <time>2011-05-29T08:16:54Z</time>
      </trkpt>
      <trkpt lat="43.69493" lon="3.68635">
        <ele>174.4</ele>
        <time>2011-05-29T08:16:55Z</time>
      </trkpt>
      <trkpt lat="43.69497" lon="3.68632">
        <ele>174.4</ele>
        <time>2011-05-29T08:16:56Z</time>
      </trkpt>
      <trkpt lat="43.69502" lon="3.68629">
        <ele>174.4</ele>
        <time>2011-05-29T08:16:57Z</time>
      </trkpt>
      <trkpt lat="43.69506" lon="3.68626">
        <ele>174.2</ele>
        <time>2011-05-29T08:16:58Z</time>
      </trkpt>
      <trkpt lat="43.6951" lon="3.68623">
        <ele>174.1</ele>
        <time>2011-05-29T08:16:59Z</time>
      </trkpt>
      <trkpt lat="43.69514" lon="3.6862">
        <ele>174</ele>
        <time>2011-05-29T08:17:00Z</time>
      </trkpt>
      <trkpt lat="43.69518" lon="3.68617">
        <ele>173.8</ele>
        <time>2011-05-29T08:17:01Z</time>
      </trkpt>
      <trkpt lat="43.69522" lon="3.68614">
        <ele>173.6</ele>
        <time>2011-05-29T08:17:02Z</time>
      </trkpt>
      <trkpt lat="43.69527" lon="3.68611">
        <ele>173.4</ele>
        <time>2011-05-29T08:17:03Z</time>
      </trkpt>
      <trkpt lat="43.69532" lon="3.68608">
        <ele>173.2</ele>
        <time>2011-05-29T08:17:04Z</time>
      </trkpt>
      <trkpt lat="43.69537" lon="3.68605">
        <ele>173</ele>
        <time>2011-05-29T08:17:05Z</time>
      </trkpt>
      <trkpt lat="43.69542" lon="3.68602">
        <ele>172.8</ele>
        <time>2011-05-29T08:17:06Z</time>
      </trkpt>
      <trkpt lat="43.69546" lon="3.686">
        <ele>172.6</ele>
        <time>2011-05-29T08:17:07Z</time>
      </trkpt>
      <trkpt lat="43.69551" lon="3.68598">
        <ele>172.5</ele>
        <time>2011-05-29T08:17:08Z</time>
      </trkpt>
      <trkpt lat="43.69559" lon="3.68595">
        <ele>172.3</ele>
        <time>2011-05-29T08:17:10Z</time>
      </trkpt>
      <trkpt lat="43.69564" lon="3.68594">
        <ele>172.1</ele>
        <time>2011-05-29T08:17:11Z</time>
      </trkpt>
      <trkpt lat="43.69568" lon="3.68592">
        <ele>172</ele>
        <time>2011-05-29T08:17:12Z</time>
      </trkpt>
      <trkpt lat="43.69573" lon="3.68591">
        <ele>171.8</ele>
        <time>2011-05-29T08:17:13Z</time>
      </trkpt>
      <trkpt lat="43.69577" lon="3.68589">
        <ele>171.6</ele>
        <time>2011-05-29T08:17:14Z</time>
      </trkpt>
      <trkpt lat="43.69582" lon="3.68587">
        <ele>171.5</ele>
        <time>2011-05-29T08:17:15Z</time>
      </trkpt>
      <trkpt lat="43.69587" lon="3.68586">
        <ele>171.4</ele>
        <time>2011-05-29T08:17:16Z</time>
      </trkpt>
      <trkpt lat="43.69591" lon="3.68584">
        <ele>171.4</ele>
        <time>2011-05-29T08:17:17Z</time>
      </trkpt>
      <trkpt lat="43.69596" lon="3.68582">
        <ele>171.6</ele>
        <time>2011-05-29T08:17:18Z</time>
      </trkpt>
      <trkpt lat="43.696" lon="3.68581">
        <ele>171.7</ele>
        <time>2011-05-29T08:17:19Z</time>
      </trkpt>
      <trkpt lat="43.69605" lon="3.68579">
        <ele>171.9</ele>
        <time>2011-05-29T08:17:20Z</time>
      </trkpt>
      <trkpt lat="43.6961" lon="3.68578">
        <ele>172.1</ele>
        <time>2011-05-29T08:17:21Z</time>
      </trkpt>
      <trkpt lat="43.69614" lon="3.68577">
        <ele>172.2</ele>
        <time>2011-05-29T08:17:22Z</time>
      </trkpt>
      <trkpt lat="43.69619" lon="3.68576">
        <ele>172.4</ele>
        <time>2011-05-29T08:17:23Z</time>
      </trkpt>
      <trkpt lat="43.69624" lon="3.68575">
        <ele>172.6</ele>
        <time>2011-05-29T08:17:24Z</time>
      </trkpt>
      <trkpt lat="43.69629" lon="3.68575">
        <ele>172.8</ele>
        <time>2011-05-29T08:17:25Z</time>
      </trkpt>
      <trkpt lat="43.69633" lon="3.68574">
        <ele>173</ele>
        <time>2011-05-29T08:17:26Z</time>
      </trkpt>
      <trkpt lat="43.69638" lon="3.68573">
        <ele>173.1</ele>
        <time>2011-05-29T08:17:27Z</time>
      </trkpt>
      <trkpt lat="43.69643" lon="3.68572">
        <ele>173.3</ele>
        <time>2011-05-29T08:17:28Z</time>
      </trkpt>
      <trkpt lat="43.69647" lon="3.68571">
        <ele>173.4</ele>
        <time>2011-05-29T08:17:29Z</time>
      </trkpt>
      <trkpt lat="43.69652" lon="3.6857">
        <ele>173.6</ele>
        <time>2011-05-29T08:17:30Z</time>
      </trkpt>
      <trkpt lat="43.69657" lon="3.68569">
        <ele>173.7</ele>
        <time>2011-05-29T08:17:31Z</time>
      </trkpt>
      <trkpt lat="43.69661" lon="3.68568">
        <ele>173.9</ele>
        <time>2011-05-29T08:17:32Z</time>
      </trkpt>
      <trkpt lat="43.69666" lon="3.68568">
        <ele>174</ele>
        <time>2011-05-29T08:17:33Z</time>
      </trkpt>
      <trkpt lat="43.6967" lon="3.68567">
        <ele>174.2</ele>
        <time>2011-05-29T08:17:34Z</time>
      </trkpt>
      <trkpt lat="43.69679" lon="3.68565">
        <ele>174.5</ele>
        <time>2011-05-29T08:17:36Z</time>
      </trkpt>
      <trkpt lat="43.69687" lon="3.68562">
        <ele>174.8</ele>
        <time>2011-05-29T08:17:38Z</time>
      </trkpt>
      <trkpt lat="43.69696" lon="3.68559">
        <ele>175.1</ele>
        <time>2011-05-29T08:17:40Z</time>
      </trkpt>
      <trkpt lat="43.69705" lon="3.68556">
        <ele>175.4</ele>
        <time>2011-05-29T08:17:42Z</time>
      </trkpt>
      <trkpt lat="43.69714" lon="3.68555">
        <ele>175.7</ele>
        <time>2011-05-29T08:17:44Z</time>
      </trkpt>
      <trkpt lat="43.69718" lon="3.68554">
        <ele>175.9</ele>
        <time>2011-05-29T08:17:45Z</time>
      </trkpt>
      <trkpt lat="43.69723" lon="3.68552">
        <ele>176.1</ele>
        <time>2011-05-29T08:17:46Z</time>
      </trkpt>
      <trkpt lat="43.69727" lon="3.6855">
        <ele>176.2</ele>
        <time>2011-05-29T08:17:47Z</time>
      </trkpt>
      <trkpt lat="43.69731" lon="3.68548">
        <ele>176.3</ele>
        <time>2011-05-29T08:17:48Z</time>
      </trkpt>
      <trkpt lat="43.69735" lon="3.68545">
        <ele>176.4</ele>
        <time>2011-05-29T08:17:49Z</time>
      </trkpt>
      <trkpt lat="43.6974" lon="3.68542">
        <ele>176.5</ele>
        <time>2011-05-29T08:17:50Z</time>
      </trkpt>
      <trkpt lat="43.69744" lon="3.68539">
        <ele>176.5</ele>
        <time>2011-05-29T08:17:51Z</time>
      </trkpt>
      <trkpt lat="43.69748" lon="3.68536">
        <ele>176.6</ele>
        <time>2011-05-29T08:17:52Z</time>
      </trkpt>
      <trkpt lat="43.69755" lon="3.6853">
        <ele>176.5</ele>
        <time>2011-05-29T08:17:54Z</time>
      </trkpt>
      <trkpt lat="43.69763" lon="3.68524">
        <ele>176.2</ele>
        <time>2011-05-29T08:17:56Z</time>
      </trkpt>
      <trkpt lat="43.69767" lon="3.68521">
        <ele>176.2</ele>
        <time>2011-05-29T08:17:57Z</time>
      </trkpt>
      <trkpt lat="43.69779" lon="3.68514">
        <ele>176</ele>
        <time>2011-05-29T08:18:00Z</time>
      </trkpt>
      <trkpt lat="43.69787" lon="3.6851">
        <ele>175.8</ele>
        <time>2011-05-29T08:18:02Z</time>
      </trkpt>
      <trkpt lat="43.69791" lon="3.68507">
        <ele>175.8</ele>
        <time>2011-05-29T08:18:03Z</time>
      </trkpt>
      <trkpt lat="43.69795" lon="3.68504">
        <ele>175.7</ele>
        <time>2011-05-29T08:18:04Z</time>
      </trkpt>
      <trkpt lat="43.69799" lon="3.68501">
        <ele>175.6</ele>
        <time>2011-05-29T08:18:05Z</time>
      </trkpt>
      <trkpt lat="43.69803" lon="3.68497">
        <ele>175.6</ele>
        <time>2011-05-29T08:18:06Z</time>
      </trkpt>
      <trkpt lat="43.69807" lon="3.68494">
        <ele>175.6</ele>
        <time>2011-05-29T08:18:07Z</time>
      </trkpt>
      <trkpt lat="43.69811" lon="3.68491">
        <ele>175.6</ele>
        <time>2011-05-29T08:18:08Z</time>
      </trkpt>
      <trkpt lat="43.69815" lon="3.68489">
        <ele>175.6</ele>
        <time>2011-05-29T08:18:09Z</time>
      </trkpt>
      <trkpt lat="43.69819" lon="3.68486">
        <ele>175.6</ele>
        <time>2011-05-29T08:18:10Z</time>
      </trkpt>
      <trkpt lat="43.69827" lon="3.68479">
        <ele>175.7</ele>
        <time>2011-05-29T08:18:12Z</time>
      </trkpt>
      <trkpt lat="43.69834" lon="3.68474">
        <ele>175.7</ele>
        <time>2011-05-29T08:18:14Z</time>
      </trkpt>
      <trkpt lat="43.6984" lon="3.6847">
        <ele>175.7</ele>
        <time>2011-05-29T08:18:16Z</time>
      </trkpt>
      <trkpt lat="43.69848" lon="3.68466">
        <ele>175.7</ele>
        <time>2011-05-29T08:18:19Z</time>
      </trkpt>
      <trkpt lat="43.69855" lon="3.68464">
        <ele>175.7</ele>
        <time>2011-05-29T08:18:22Z</time>
      </trkpt>
      <trkpt lat="43.69861" lon="3.68462">
        <ele>175.7</ele>
        <time>2011-05-29T08:18:24Z</time>
      </trkpt>
      <trkpt lat="43.69867" lon="3.68461">
        <ele>175.7</ele>
        <time>2011-05-29T08:18:26Z</time>
      </trkpt>
      <trkpt lat="43.69873" lon="3.68458">
        <ele>175.7</ele>
        <time>2011-05-29T08:18:28Z</time>
      </trkpt>
      <trkpt lat="43.6988" lon="3.68456">
        <ele>175.7</ele>
        <time>2011-05-29T08:18:30Z</time>
      </trkpt>
      <trkpt lat="43.69887" lon="3.68456">
        <ele>175.8</ele>
        <time>2011-05-29T08:18:32Z</time>
      </trkpt>
      <trkpt lat="43.69895" lon="3.68454">
        <ele>175.8</ele>
        <time>2011-05-29T08:18:34Z</time>
      </trkpt>
      <trkpt lat="43.69902" lon="3.68452">
        <ele>175.8</ele>
        <time>2011-05-29T08:18:36Z</time>
      </trkpt>
      <trkpt lat="43.6991" lon="3.6845">
        <ele>175.8</ele>
        <time>2011-05-29T08:18:38Z</time>
      </trkpt>
      <trkpt lat="43.69918" lon="3.68448">
        <ele>175.8</ele>
        <time>2011-05-29T08:18:40Z</time>
      </trkpt>
      <trkpt lat="43.69926" lon="3.68446">
        <ele>175.8</ele>
        <time>2011-05-29T08:18:42Z</time>
      </trkpt>
      <trkpt lat="43.69932" lon="3.68444">
        <ele>175.8</ele>
        <time>2011-05-29T08:18:44Z</time>
      </trkpt>
      <trkpt lat="43.69939" lon="3.68443">
        <ele>175.8</ele>
        <time>2011-05-29T08:18:46Z</time>
      </trkpt>
      <trkpt lat="43.69946" lon="3.68439">
        <ele>175.7</ele>
        <time>2011-05-29T08:18:48Z</time>
      </trkpt>
      <trkpt lat="43.69953" lon="3.68435">
        <ele>175.6</ele>
        <time>2011-05-29T08:18:50Z</time>
      </trkpt>
      <trkpt lat="43.6996" lon="3.68428">
        <ele>175.4</ele>
        <time>2011-05-29T08:18:52Z</time>
      </trkpt>
      <trkpt lat="43.69963" lon="3.68419">
        <ele>175.1</ele>
        <time>2011-05-29T08:18:54Z</time>
      </trkpt>
      <trkpt lat="43.69963" lon="3.6841">
        <ele>175</ele>
        <time>2011-05-29T08:18:56Z</time>
      </trkpt>
      <trkpt lat="43.69961" lon="3.68401">
        <ele>175</ele>
        <time>2011-05-29T08:18:58Z</time>
      </trkpt>
      <trkpt lat="43.6996" lon="3.68396">
        <ele>175</ele>
        <time>2011-05-29T08:18:59Z</time>
      </trkpt>
      <trkpt lat="43.69957" lon="3.68383">
        <ele>175</ele>
        <time>2011-05-29T08:19:02Z</time>
      </trkpt>
      <trkpt lat="43.69955" lon="3.68374">
        <ele>175</ele>
        <time>2011-05-29T08:19:04Z</time>
      </trkpt>
      <trkpt lat="43.69955" lon="3.68365">
        <ele>175</ele>
        <time>2011-05-29T08:19:06Z</time>
      </trkpt>
      <trkpt lat="43.69958" lon="3.68357">
        <ele>175</ele>
        <time>2011-05-29T08:19:08Z</time>
      </trkpt>
      <trkpt lat="43.69964" lon="3.6835">
        <ele>175</ele>
        <time>2011-05-29T08:19:10Z</time>
      </trkpt>
      <trkpt lat="43.6997" lon="3.68345">
        <ele>175</ele>
        <time>2011-05-29T08:19:12Z</time>
      </trkpt>
      <trkpt lat="43.69976" lon="3.6834">
        <ele>175</ele>
        <time>2011-05-29T08:19:14Z</time>
      </trkpt>
      <trkpt lat="43.69982" lon="3.68336">
        <ele>175</ele>
        <time>2011-05-29T08:19:16Z</time>
      </trkpt>
      <trkpt lat="43.69987" lon="3.68331">
        <ele>175</ele>
        <time>2011-05-29T08:19:18Z</time>
      </trkpt>
      <trkpt lat="43.69994" lon="3.68327">
        <ele>175</ele>
        <time>2011-05-29T08:19:20Z</time>
      </trkpt>
      <trkpt lat="43.7" lon="3.68323">
        <ele>175</ele>
        <time>2011-05-29T08:19:22Z</time>
      </trkpt>
      <trkpt lat="43.70006" lon="3.68319">
        <ele>175</ele>
        <time>2011-05-29T08:19:24Z</time>
      </trkpt>
      <trkpt lat="43.70013" lon="3.68314">
        <ele>174.9</ele>
        <time>2011-05-29T08:19:26Z</time>
      </trkpt>
      <trkpt lat="43.7002" lon="3.6831">
        <ele>174.9</ele>
        <time>2011-05-29T08:19:28Z</time>
      </trkpt>
      <trkpt lat="43.70027" lon="3.68306">
        <ele>174.9</ele>
        <time>2011-05-29T08:19:30Z</time>
      </trkpt>
      <trkpt lat="43.70033" lon="3.68302">
        <ele>174.9</ele>
        <time>2011-05-29T08:19:32Z</time>
      </trkpt>
      <trkpt lat="43.70039" lon="3.68297">
        <ele>174.9</ele>
        <time>2011-05-29T08:19:34Z</time>
      </trkpt>
      <trkpt lat="43.70045" lon="3.68294">
        <ele>175</ele>
        <time>2011-05-29T08:19:36Z</time>
      </trkpt>
      <trkpt lat="43.7005" lon="3.68289">
        <ele>175</ele>
        <time>2011-05-29T08:19:38Z</time>
      </trkpt>
      <trkpt lat="43.70055" lon="3.6828">
        <ele>175.2</ele>
        <time>2011-05-29T08:19:40Z</time>
      </trkpt>
      <trkpt lat="43.70056" lon="3.68269">
        <ele>175.4</ele>
        <time>2011-05-29T08:19:42Z</time>
      </trkpt>
      <trkpt lat="43.70055" lon="3.68257">
        <ele>175.5</ele>
        <time>2011-05-29T08:19:44Z</time>
      </trkpt>
      <trkpt lat="43.70051" lon="3.68246">
        <ele>175.6</ele>
        <time>2011-05-29T08:19:46Z</time>
      </trkpt>
      <trkpt lat="43.70047" lon="3.68235">
        <ele>175.6</ele>
        <time>2011-05-29T08:19:48Z</time>
      </trkpt>
      <trkpt lat="43.70045" lon="3.68229">
        <ele>175.6</ele>
        <time>2011-05-29T08:19:49Z</time>
      </trkpt>
      <trkpt lat="43.70043" lon="3.68223">
        <ele>175.7</ele>
        <time>2011-05-29T08:19:50Z</time>
      </trkpt>
      <trkpt lat="43.70041" lon="3.68217">
        <ele>175.7</ele>
        <time>2011-05-29T08:19:51Z</time>
      </trkpt>
      <trkpt lat="43.70039" lon="3.68212">
        <ele>175.7</ele>
        <time>2011-05-29T08:19:52Z</time>
      </trkpt>
      <trkpt lat="43.70037" lon="3.68206">
        <ele>175.8</ele>
        <time>2011-05-29T08:19:53Z</time>
      </trkpt>
      <trkpt lat="43.70036" lon="3.682">
        <ele>175.9</ele>
        <time>2011-05-29T08:19:54Z</time>
      </trkpt>
      <trkpt lat="43.70034" lon="3.68194">
        <ele>175.9</ele>
        <time>2011-05-29T08:19:55Z</time>
      </trkpt>
      <trkpt lat="43.7003" lon="3.68183">
        <ele>176.1</ele>
        <time>2011-05-29T08:19:57Z</time>
      </trkpt>
      <trkpt lat="43.70026" lon="3.68173">
        <ele>176.3</ele>
        <time>2011-05-29T08:19:59Z</time>
      </trkpt>
      <trkpt lat="43.70024" lon="3.68168">
        <ele>176.4</ele>
        <time>2011-05-29T08:20:00Z</time>
      </trkpt>
      <trkpt lat="43.70019" lon="3.68153">
        <ele>177.3</ele>
        <time>2011-05-29T08:20:03Z</time>
      </trkpt>
      <trkpt lat="43.70015" lon="3.68143">
        <ele>177.8</ele>
        <time>2011-05-29T08:20:05Z</time>
      </trkpt>
      <trkpt lat="43.70012" lon="3.68133">
        <ele>178.4</ele>
        <time>2011-05-29T08:20:07Z</time>
      </trkpt>
      <trkpt lat="43.70009" lon="3.68123">
        <ele>179</ele>
        <time>2011-05-29T08:20:09Z</time>
      </trkpt>
      <trkpt lat="43.70005" lon="3.68113">
        <ele>179.5</ele>
        <time>2011-05-29T08:20:11Z</time>
      </trkpt>
      <trkpt lat="43.70002" lon="3.68103">
        <ele>180</ele>
        <time>2011-05-29T08:20:13Z</time>
      </trkpt>
      <trkpt lat="43.7" lon="3.68093">
        <ele>180.6</ele>
        <time>2011-05-29T08:20:15Z</time>
      </trkpt>
      <trkpt lat="43.69998" lon="3.68083">
        <ele>181.1</ele>
        <time>2011-05-29T08:20:17Z</time>
      </trkpt>
      <trkpt lat="43.69996" lon="3.68073">
        <ele>181.6</ele>
        <time>2011-05-29T08:20:19Z</time>
      </trkpt>
      <trkpt lat="43.69994" lon="3.68064">
        <ele>182</ele>
        <time>2011-05-29T08:20:21Z</time>
      </trkpt>
      <trkpt lat="43.69992" lon="3.68054">
        <ele>182.4</ele>
        <time>2011-05-29T08:20:23Z</time>
      </trkpt>
      <trkpt lat="43.6999" lon="3.68045">
        <ele>182.9</ele>
        <time>2011-05-29T08:20:25Z</time>
      </trkpt>
      <trkpt lat="43.69989" lon="3.68035">
        <ele>183.3</ele>
        <time>2011-05-29T08:20:27Z</time>
      </trkpt>
      <trkpt lat="43.69987" lon="3.68025">
        <ele>183.7</ele>
        <time>2011-05-29T08:20:29Z</time>
      </trkpt>
      <trkpt lat="43.69985" lon="3.68016">
        <ele>184.2</ele>
        <time>2011-05-29T08:20:31Z</time>
      </trkpt>
      <trkpt lat="43.69983" lon="3.68006">
        <ele>184.6</ele>
        <time>2011-05-29T08:20:33Z</time>
      </trkpt>
      <trkpt lat="43.69982" lon="3.67997">
        <ele>185</ele>
        <time>2011-05-29T08:20:35Z</time>
      </trkpt>
      <trkpt lat="43.6998" lon="3.67987">
        <ele>185.3</ele>
        <time>2011-05-29T08:20:37Z</time>
      </trkpt>
      <trkpt lat="43.69978" lon="3.67977">
        <ele>185.6</ele>
        <time>2011-05-29T08:20:39Z</time>
      </trkpt>
      <trkpt lat="43.69977" lon="3.67967">
        <ele>186</ele>
        <time>2011-05-29T08:20:41Z</time>
      </trkpt>
      <trkpt lat="43.69978" lon="3.67957">
        <ele>186.2</ele>
        <time>2011-05-29T08:20:43Z</time>
      </trkpt>
      <trkpt lat="43.6998" lon="3.67947">
        <ele>186.4</ele>
        <time>2011-05-29T08:20:45Z</time>
      </trkpt>
      <trkpt lat="43.69983" lon="3.67937">
        <ele>186.6</ele>
        <time>2011-05-29T08:20:47Z</time>
      </trkpt>
      <trkpt lat="43.69988" lon="3.6793">
        <ele>186.8</ele>
        <time>2011-05-29T08:20:49Z</time>
      </trkpt>
      <trkpt lat="43.69993" lon="3.67922">
        <ele>186.9</ele>
        <time>2011-05-29T08:20:51Z</time>
      </trkpt>
      <trkpt lat="43.69997" lon="3.67915">
        <ele>187.1</ele>
        <time>2011-05-29T08:20:53Z</time>
      </trkpt>
      <trkpt lat="43.70002" lon="3.67907">
        <ele>187.5</ele>
        <time>2011-05-29T08:20:55Z</time>
      </trkpt>
      <trkpt lat="43.70006" lon="3.679">
        <ele>187.9</ele>
        <time>2011-05-29T08:20:57Z</time>
      </trkpt>
      <trkpt lat="43.70011" lon="3.67893">
        <ele>188.3</ele>
        <time>2011-05-29T08:20:59Z</time>
      </trkpt>
      <trkpt lat="43.70014" lon="3.67884">
        <ele>188.7</ele>
        <time>2011-05-29T08:21:01Z</time>
      </trkpt>
      <trkpt lat="43.70016" lon="3.6788">
        <ele>188.9</ele>
        <time>2011-05-29T08:21:02Z</time>
      </trkpt>
      <trkpt lat="43.70018" lon="3.67866">
        <ele>189.5</ele>
        <time>2011-05-29T08:21:05Z</time>
      </trkpt>
      <trkpt lat="43.70018" lon="3.67857">
        <ele>189.8</ele>
        <time>2011-05-29T08:21:07Z</time>
      </trkpt>
      <trkpt lat="43.70018" lon="3.67848">
        <ele>190.2</ele>
        <time>2011-05-29T08:21:09Z</time>
      </trkpt>
      <trkpt lat="43.70017" lon="3.67838">
        <ele>190.6</ele>
        <time>2011-05-29T08:21:11Z</time>
      </trkpt>
      <trkpt lat="43.70016" lon="3.67828">
        <ele>191.2</ele>
        <time>2011-05-29T08:21:13Z</time>
      </trkpt>
      <trkpt lat="43.70016" lon="3.67819">
        <ele>191.8</ele>
        <time>2011-05-29T08:21:15Z</time>
      </trkpt>
      <trkpt lat="43.70015" lon="3.6781">
        <ele>192.5</ele>
        <time>2011-05-29T08:21:17Z</time>
      </trkpt>
      <trkpt lat="43.70014" lon="3.67801">
        <ele>193.1</ele>
        <time>2011-05-29T08:21:19Z</time>
      </trkpt>
      <trkpt lat="43.70013" lon="3.67792">
        <ele>193.8</ele>
        <time>2011-05-29T08:21:21Z</time>
      </trkpt>
      <trkpt lat="43.70011" lon="3.67783">
        <ele>194.4</ele>
        <time>2011-05-29T08:21:23Z</time>
      </trkpt>
      <trkpt lat="43.70009" lon="3.67775">
        <ele>195</ele>
        <time>2011-05-29T08:21:25Z</time>
      </trkpt>
      <trkpt lat="43.70006" lon="3.67767">
        <ele>195.7</ele>
        <time>2011-05-29T08:21:27Z</time>
      </trkpt>
      <trkpt lat="43.70003" lon="3.67759">
        <ele>196.3</ele>
        <time>2011-05-29T08:21:29Z</time>
      </trkpt>
      <trkpt lat="43.69999" lon="3.67752">
        <ele>196.9</ele>
        <time>2011-05-29T08:21:31Z</time>
      </trkpt>
      <trkpt lat="43.69994" lon="3.67745">
        <ele>197.7</ele>
        <time>2011-05-29T08:21:33Z</time>
      </trkpt>
      <trkpt lat="43.69989" lon="3.6774">
        <ele>198.4</ele>
        <time>2011-05-29T08:21:35Z</time>
      </trkpt>
      <trkpt lat="43.69984" lon="3.67734">
        <ele>199.2</ele>
        <time>2011-05-29T08:21:37Z</time>
      </trkpt>
      <trkpt lat="43.69978" lon="3.6773">
        <ele>199.8</ele>
        <time>2011-05-29T08:21:39Z</time>
      </trkpt>
      <trkpt lat="43.69973" lon="3.67727">
        <ele>200.4</ele>
        <time>2011-05-29T08:21:41Z</time>
      </trkpt>
      <trkpt lat="43.69967" lon="3.67725">
        <ele>200.9</ele>
        <time>2011-05-29T08:21:43Z</time>
      </trkpt>
      <trkpt lat="43.69961" lon="3.67724">
        <ele>201.2</ele>
        <time>2011-05-29T08:21:45Z</time>
      </trkpt>
      <trkpt lat="43.69955" lon="3.67724">
        <ele>201.4</ele>
        <time>2011-05-29T08:21:47Z</time>
      </trkpt>
      <trkpt lat="43.69948" lon="3.67726">
        <ele>201.6</ele>
        <time>2011-05-29T08:21:49Z</time>
      </trkpt>
      <trkpt lat="43.69943" lon="3.67727">
        <ele>201.6</ele>
        <time>2011-05-29T08:21:51Z</time>
      </trkpt>
      <trkpt lat="43.69937" lon="3.67729">
        <ele>201.7</ele>
        <time>2011-05-29T08:21:53Z</time>
      </trkpt>
      <trkpt lat="43.69931" lon="3.6773">
        <ele>201.8</ele>
        <time>2011-05-29T08:21:55Z</time>
      </trkpt>
      <trkpt lat="43.69922" lon="3.67732">
        <ele>201.9</ele>
        <time>2011-05-29T08:21:58Z</time>
      </trkpt>
      <trkpt lat="43.69913" lon="3.67735">
        <ele>202</ele>
        <time>2011-05-29T08:22:01Z</time>
      </trkpt>
      <trkpt lat="43.69907" lon="3.67737">
        <ele>202.2</ele>
        <time>2011-05-29T08:22:03Z</time>
      </trkpt>
      <trkpt lat="43.69904" lon="3.67737">
        <ele>202.2</ele>
        <time>2011-05-29T08:22:04Z</time>
      </trkpt>
      <trkpt lat="43.69893" lon="3.6774">
        <ele>202.6</ele>
        <time>2011-05-29T08:22:08Z</time>
      </trkpt>
      <trkpt lat="43.69887" lon="3.67742">
        <ele>202.7</ele>
        <time>2011-05-29T08:22:10Z</time>
      </trkpt>
      <trkpt lat="43.69881" lon="3.67743">
        <ele>202.9</ele>
        <time>2011-05-29T08:22:12Z</time>
      </trkpt>
      <trkpt lat="43.69875" lon="3.67746">
        <ele>203</ele>
        <time>2011-05-29T08:22:14Z</time>
      </trkpt>
      <trkpt lat="43.69868" lon="3.67747">
        <ele>203.2</ele>
        <time>2011-05-29T08:22:16Z</time>
      </trkpt>
      <trkpt lat="43.69862" lon="3.67749">
        <ele>203.4</ele>
        <time>2011-05-29T08:22:18Z</time>
      </trkpt>
      <trkpt lat="43.69856" lon="3.6775">
        <ele>203.6</ele>
        <time>2011-05-29T08:22:20Z</time>
      </trkpt>
      <trkpt lat="43.6985" lon="3.67751">
        <ele>203.9</ele>
        <time>2011-05-29T08:22:22Z</time>
      </trkpt>
      <trkpt lat="43.69844" lon="3.67751">
        <ele>204.3</ele>
        <time>2011-05-29T08:22:24Z</time>
      </trkpt>
      <trkpt lat="43.69838" lon="3.67749">
        <ele>204.8</ele>
        <time>2011-05-29T08:22:26Z</time>
      </trkpt>
      <trkpt lat="43.69832" lon="3.67747">
        <ele>205.3</ele>
        <time>2011-05-29T08:22:28Z</time>
      </trkpt>
      <trkpt lat="43.69826" lon="3.67743">
        <ele>205.6</ele>
        <time>2011-05-29T08:22:30Z</time>
      </trkpt>
      <trkpt lat="43.69821" lon="3.67738">
        <ele>206.1</ele>
        <time>2011-05-29T08:22:32Z</time>
      </trkpt>
      <trkpt lat="43.69816" lon="3.67732">
        <ele>206.6</ele>
        <time>2011-05-29T08:22:34Z</time>
      </trkpt>
      <trkpt lat="43.69812" lon="3.67725">
        <ele>207.3</ele>
        <time>2011-05-29T08:22:36Z</time>
      </trkpt>
      <trkpt lat="43.69809" lon="3.67718">
        <ele>208</ele>
        <time>2011-05-29T08:22:38Z</time>
      </trkpt>
      <trkpt lat="43.69805" lon="3.67711">
        <ele>208.7</ele>
        <time>2011-05-29T08:22:40Z</time>
      </trkpt>
      <trkpt lat="43.69802" lon="3.67704">
        <ele>209.4</ele>
        <time>2011-05-29T08:22:42Z</time>
      </trkpt>
      <trkpt lat="43.69798" lon="3.67697">
        <ele>210.2</ele>
        <time>2011-05-29T08:22:44Z</time>
      </trkpt>
      <trkpt lat="43.69795" lon="3.6769">
        <ele>211</ele>
        <time>2011-05-29T08:22:46Z</time>
      </trkpt>
      <trkpt lat="43.69792" lon="3.67683">
        <ele>211.8</ele>
        <time>2011-05-29T08:22:48Z</time>
      </trkpt>
      <trkpt lat="43.69789" lon="3.67676">
        <ele>212.6</ele>
        <time>2011-05-29T08:22:50Z</time>
      </trkpt>
      <trkpt lat="43.69786" lon="3.67667">
        <ele>213.5</ele>
        <time>2011-05-29T08:22:52Z</time>
      </trkpt>
      <trkpt lat="43.69786" lon="3.67657">
        <ele>214.4</ele>
        <time>2011-05-29T08:22:54Z</time>
      </trkpt>
      <trkpt lat="43.69788" lon="3.67648">
        <ele>215.1</ele>
        <time>2011-05-29T08:22:56Z</time>
      </trkpt>
      <trkpt lat="43.69791" lon="3.6764">
        <ele>215.6</ele>
        <time>2011-05-29T08:22:58Z</time>
      </trkpt>
      <trkpt lat="43.69795" lon="3.67633">
        <ele>216</ele>
        <time>2011-05-29T08:23:00Z</time>
      </trkpt>
      <trkpt lat="43.69801" lon="3.67628">
        <ele>216.3</ele>
        <time>2011-05-29T08:23:02Z</time>
      </trkpt>
      <trkpt lat="43.69806" lon="3.67623">
        <ele>216.4</ele>
        <time>2011-05-29T08:23:04Z</time>
      </trkpt>
      <trkpt lat="43.69809" lon="3.67621">
        <ele>216.5</ele>
        <time>2011-05-29T08:23:05Z</time>
      </trkpt>
      <trkpt lat="43.69817" lon="3.67614">
        <ele>216.7</ele>
        <time>2011-05-29T08:23:08Z</time>
      </trkpt>
      <trkpt lat="43.69824" lon="3.67609">
        <ele>216.8</ele>
        <time>2011-05-29T08:23:10Z</time>
      </trkpt>
      <trkpt lat="43.69831" lon="3.67604">
        <ele>216.8</ele>
        <time>2011-05-29T08:23:12Z</time>
      </trkpt>
      <trkpt lat="43.69838" lon="3.67599">
        <ele>216.9</ele>
        <time>2011-05-29T08:23:14Z</time>
      </trkpt>
      <trkpt lat="43.69846" lon="3.67593">
        <ele>217</ele>
        <time>2011-05-29T08:23:16Z</time>
      </trkpt>
      <trkpt lat="43.69852" lon="3.67588">
        <ele>217.1</ele>
        <time>2011-05-29T08:23:18Z</time>
      </trkpt>
      <trkpt lat="43.69859" lon="3.67582">
        <ele>217.2</ele>
        <time>2011-05-29T08:23:20Z</time>
      </trkpt>
      <trkpt lat="43.69866" lon="3.67577">
        <ele>217.6</ele>
        <time>2011-05-29T08:23:22Z</time>
      </trkpt>
      <trkpt lat="43.69872" lon="3.67572">
        <ele>217.9</ele>
        <time>2011-05-29T08:23:24Z</time>
      </trkpt>
      <trkpt lat="43.69879" lon="3.67567">
        <ele>218.2</ele>
        <time>2011-05-29T08:23:26Z</time>
      </trkpt>
      <trkpt lat="43.69885" lon="3.67562">
        <ele>218.5</ele>
        <time>2011-05-29T08:23:28Z</time>
      </trkpt>
      <trkpt lat="43.69891" lon="3.67557">
        <ele>218.9</ele>
        <time>2011-05-29T08:23:30Z</time>
      </trkpt>
      <trkpt lat="43.69898" lon="3.67552">
        <ele>219.2</ele>
        <time>2011-05-29T08:23:32Z</time>
      </trkpt>
      <trkpt lat="43.69904" lon="3.67546">
        <ele>219.5</ele>
        <time>2011-05-29T08:23:34Z</time>
      </trkpt>
      <trkpt lat="43.69911" lon="3.67541">
        <ele>219.8</ele>
        <time>2011-05-29T08:23:36Z</time>
      </trkpt>
      <trkpt lat="43.69917" lon="3.67536">
        <ele>220.1</ele>
        <time>2011-05-29T08:23:38Z</time>
      </trkpt>
      <trkpt lat="43.69924" lon="3.67531">
        <ele>220.1</ele>
        <time>2011-05-29T08:23:40Z</time>
      </trkpt>
      <trkpt lat="43.69931" lon="3.67526">
        <ele>220.1</ele>
        <time>2011-05-29T08:23:42Z</time>
      </trkpt>
      <trkpt lat="43.69937" lon="3.67521">
        <ele>220.2</ele>
        <time>2011-05-29T08:23:44Z</time>
      </trkpt>
      <trkpt lat="43.69944" lon="3.67515">
        <ele>220.2</ele>
        <time>2011-05-29T08:23:46Z</time>
      </trkpt>
      <trkpt lat="43.69951" lon="3.6751">
        <ele>220.1</ele>
        <time>2011-05-29T08:23:48Z</time>
      </trkpt>
      <trkpt lat="43.69958" lon="3.67505">
        <ele>220.1</ele>
        <time>2011-05-29T08:23:50Z</time>
      </trkpt>
      <trkpt lat="43.69964" lon="3.675">
        <ele>220</ele>
        <time>2011-05-29T08:23:52Z</time>
      </trkpt>
      <trkpt lat="43.69971" lon="3.67494">
        <ele>220.2</ele>
        <time>2011-05-29T08:23:54Z</time>
      </trkpt>
      <trkpt lat="43.69977" lon="3.67489">
        <ele>220.3</ele>
        <time>2011-05-29T08:23:56Z</time>
      </trkpt>
      <trkpt lat="43.69984" lon="3.67484">
        <ele>220.4</ele>
        <time>2011-05-29T08:23:58Z</time>
      </trkpt>
      <trkpt lat="43.6999" lon="3.6748">
        <ele>220.5</ele>
        <time>2011-05-29T08:24:00Z</time>
      </trkpt>
      <trkpt lat="43.69997" lon="3.67475">
        <ele>220.6</ele>
        <time>2011-05-29T08:24:02Z</time>
      </trkpt>
      <trkpt lat="43.70003" lon="3.6747">
        <ele>220.7</ele>
        <time>2011-05-29T08:24:04Z</time>
      </trkpt>
      <trkpt lat="43.70009" lon="3.67466">
        <ele>220.7</ele>
        <time>2011-05-29T08:24:06Z</time>
      </trkpt>
      <trkpt lat="43.70012" lon="3.67463">
        <ele>220.8</ele>
        <time>2011-05-29T08:24:07Z</time>
      </trkpt>
      <trkpt lat="43.7002" lon="3.67454">
        <ele>221.3</ele>
        <time>2011-05-29T08:24:10Z</time>
      </trkpt>
      <trkpt lat="43.70024" lon="3.67446">
        <ele>222</ele>
        <time>2011-05-29T08:24:12Z</time>
      </trkpt>
      <trkpt lat="43.70026" lon="3.67436">
        <ele>222.9</ele>
        <time>2011-05-29T08:24:14Z</time>
      </trkpt>
      <trkpt lat="43.70027" lon="3.67426">
        <ele>224.3</ele>
        <time>2011-05-29T08:24:16Z</time>
      </trkpt>
      <trkpt lat="43.70024" lon="3.67415">
        <ele>225.8</ele>
        <time>2011-05-29T08:24:18Z</time>
      </trkpt>
      <trkpt lat="43.70021" lon="3.67411">
        <ele>226.5</ele>
        <time>2011-05-29T08:24:19Z</time>
      </trkpt>
      <trkpt lat="43.70018" lon="3.67406">
        <ele>227.1</ele>
        <time>2011-05-29T08:24:20Z</time>
      </trkpt>
      <trkpt lat="43.7001" lon="3.674">
        <ele>228.2</ele>
        <time>2011-05-29T08:24:22Z</time>
      </trkpt>
      <trkpt lat="43.70005" lon="3.67399">
        <ele>228.7</ele>
        <time>2011-05-29T08:24:23Z</time>
      </trkpt>
      <trkpt lat="43.70001" lon="3.67397">
        <ele>229.1</ele>
        <time>2011-05-29T08:24:24Z</time>
      </trkpt>
      <trkpt lat="43.69996" lon="3.67397">
        <ele>229.5</ele>
        <time>2011-05-29T08:24:25Z</time>
      </trkpt>
      <trkpt lat="43.69991" lon="3.67396">
        <ele>229.8</ele>
        <time>2011-05-29T08:24:26Z</time>
      </trkpt>
      <trkpt lat="43.69986" lon="3.67396">
        <ele>230.2</ele>
        <time>2011-05-29T08:24:27Z</time>
      </trkpt>
      <trkpt lat="43.69981" lon="3.67396">
        <ele>230.5</ele>
        <time>2011-05-29T08:24:28Z</time>
      </trkpt>
      <trkpt lat="43.69976" lon="3.67395">
        <ele>230.8</ele>
        <time>2011-05-29T08:24:29Z</time>
      </trkpt>
      <trkpt lat="43.69971" lon="3.67395">
        <ele>231.1</ele>
        <time>2011-05-29T08:24:30Z</time>
      </trkpt>
      <trkpt lat="43.69966" lon="3.67396">
        <ele>231.4</ele>
        <time>2011-05-29T08:24:31Z</time>
      </trkpt>
      <trkpt lat="43.6996" lon="3.67396">
        <ele>231.8</ele>
        <time>2011-05-29T08:24:32Z</time>
      </trkpt>
      <trkpt lat="43.69955" lon="3.67395">
        <ele>232.1</ele>
        <time>2011-05-29T08:24:33Z</time>
      </trkpt>
      <trkpt lat="43.6995" lon="3.67395">
        <ele>232.4</ele>
        <time>2011-05-29T08:24:34Z</time>
      </trkpt>
      <trkpt lat="43.69945" lon="3.67395">
        <ele>232.7</ele>
        <time>2011-05-29T08:24:35Z</time>
      </trkpt>
      <trkpt lat="43.6994" lon="3.67395">
        <ele>233.1</ele>
        <time>2011-05-29T08:24:36Z</time>
      </trkpt>
      <trkpt lat="43.69935" lon="3.67394">
        <ele>233.4</ele>
        <time>2011-05-29T08:24:37Z</time>
      </trkpt>
      <trkpt lat="43.69926" lon="3.67394">
        <ele>233.9</ele>
        <time>2011-05-29T08:24:39Z</time>
      </trkpt>
      <trkpt lat="43.6992" lon="3.67394">
        <ele>234.4</ele>
        <time>2011-05-29T08:24:41Z</time>
      </trkpt>
      <trkpt lat="43.69912" lon="3.67393">
        <ele>234.8</ele>
        <time>2011-05-29T08:24:44Z</time>
      </trkpt>
      <trkpt lat="43.69905" lon="3.67391">
        <ele>235.2</ele>
        <time>2011-05-29T08:24:46Z</time>
      </trkpt>
      <trkpt lat="43.69897" lon="3.67391">
        <ele>235.5</ele>
        <time>2011-05-29T08:24:48Z</time>
      </trkpt>
      <trkpt lat="43.6989" lon="3.67393">
        <ele>235.9</ele>
        <time>2011-05-29T08:24:50Z</time>
      </trkpt>
      <trkpt lat="43.69883" lon="3.67395">
        <ele>236.1</ele>
        <time>2011-05-29T08:24:52Z</time>
      </trkpt>
      <trkpt lat="43.69876" lon="3.67397">
        <ele>236.4</ele>
        <time>2011-05-29T08:24:54Z</time>
      </trkpt>
      <trkpt lat="43.69869" lon="3.674">
        <ele>236.7</ele>
        <time>2011-05-29T08:24:56Z</time>
      </trkpt>
      <trkpt lat="43.69862" lon="3.67403">
        <ele>237</ele>
        <time>2011-05-29T08:24:58Z</time>
      </trkpt>
      <trkpt lat="43.69855" lon="3.67407">
        <ele>237.2</ele>
        <time>2011-05-29T08:25:00Z</time>
      </trkpt>
      <trkpt lat="43.69848" lon="3.6741">
        <ele>237.5</ele>
        <time>2011-05-29T08:25:02Z</time>
      </trkpt>
      <trkpt lat="43.69842" lon="3.67412">
        <ele>237.7</ele>
        <time>2011-05-29T08:25:04Z</time>
      </trkpt>
      <trkpt lat="43.69835" lon="3.67414">
        <ele>238</ele>
        <time>2011-05-29T08:25:06Z</time>
      </trkpt>
      <trkpt lat="43.69829" lon="3.67417">
        <ele>238.4</ele>
        <time>2011-05-29T08:25:08Z</time>
      </trkpt>
      <trkpt lat="43.69826" lon="3.67418">
        <ele>238.5</ele>
        <time>2011-05-29T08:25:09Z</time>
      </trkpt>
      <trkpt lat="43.69817" lon="3.67422">
        <ele>239</ele>
        <time>2011-05-29T08:25:12Z</time>
      </trkpt>
      <trkpt lat="43.6981" lon="3.67424">
        <ele>239.4</ele>
        <time>2011-05-29T08:25:14Z</time>
      </trkpt>
      <trkpt lat="43.69803" lon="3.67426">
        <ele>239.8</ele>
        <time>2011-05-29T08:25:16Z</time>
      </trkpt>
      <trkpt lat="43.69796" lon="3.67429">
        <ele>240</ele>
        <time>2011-05-29T08:25:18Z</time>
      </trkpt>
      <trkpt lat="43.6979" lon="3.67432">
        <ele>240.3</ele>
        <time>2011-05-29T08:25:20Z</time>
      </trkpt>
      <trkpt lat="43.69783" lon="3.67435">
        <ele>240.6</ele>
        <time>2011-05-29T08:25:22Z</time>
      </trkpt>
      <trkpt lat="43.69775" lon="3.67438">
        <ele>240.8</ele>
        <time>2011-05-29T08:25:24Z</time>
      </trkpt>
      <trkpt lat="43.69768" lon="3.67442">
        <ele>241</ele>
        <time>2011-05-29T08:25:26Z</time>
      </trkpt>
      <trkpt lat="43.6976" lon="3.67445">
        <ele>241.3</ele>
        <time>2011-05-29T08:25:28Z</time>
      </trkpt>
      <trkpt lat="43.69752" lon="3.67448">
        <ele>241.6</ele>
        <time>2011-05-29T08:25:30Z</time>
      </trkpt>
      <trkpt lat="43.69745" lon="3.67451">
        <ele>241.5</ele>
        <time>2011-05-29T08:25:32Z</time>
      </trkpt>
      <trkpt lat="43.69737" lon="3.67454">
        <ele>241.2</ele>
        <time>2011-05-29T08:25:34Z</time>
      </trkpt>
      <trkpt lat="43.69731" lon="3.67458">
        <ele>240.8</ele>
        <time>2011-05-29T08:25:36Z</time>
      </trkpt>
      <trkpt lat="43.69724" lon="3.67452">
        <ele>241.7</ele>
        <time>2011-05-29T08:26:44Z</time>
      </trkpt>
      <trkpt lat="43.69724" lon="3.67452">
        <ele>241.7</ele>
        <time>2011-05-29T08:26:45Z</time>
      </trkpt>
      <trkpt lat="43.69718" lon="3.67461">
        <ele>240.6</ele>
        <time>2011-05-29T08:29:43Z</time>
      </trkpt>
      <trkpt lat="43.69709" lon="3.67452">
        <ele>241.8</ele>
        <time>2011-05-29T08:36:10Z</time>
      </trkpt>
      <trkpt lat="43.69696" lon="3.6745">
        <ele>242.1</ele>
        <time>2011-05-29T08:36:16Z</time>
      </trkpt>
      <trkpt lat="43.69688" lon="3.67449">
        <ele>242.4</ele>
        <time>2011-05-29T08:36:22Z</time>
      </trkpt>
      <trkpt lat="43.6968" lon="3.67451">
        <ele>242.2</ele>
        <time>2011-05-29T08:36:28Z</time>
      </trkpt>
      <trkpt lat="43.69673" lon="3.67453">
        <ele>242</ele>
        <time>2011-05-29T08:36:31Z</time>
      </trkpt>
      <trkpt lat="43.69666" lon="3.67454">
        <ele>242</ele>
        <time>2011-05-29T08:36:33Z</time>
      </trkpt>
      <trkpt lat="43.69659" lon="3.67455">
        <ele>241.7</ele>
        <time>2011-05-29T08:36:35Z</time>
      </trkpt>
      <trkpt lat="43.69652" lon="3.67456">
        <ele>241.4</ele>
        <time>2011-05-29T08:36:37Z</time>
      </trkpt>
      <trkpt lat="43.69645" lon="3.67457">
        <ele>241.1</ele>
        <time>2011-05-29T08:36:39Z</time>
      </trkpt>
      <trkpt lat="43.69636" lon="3.67458">
        <ele>240.8</ele>
        <time>2011-05-29T08:36:41Z</time>
      </trkpt>
      <trkpt lat="43.69628" lon="3.67458">
        <ele>240.6</ele>
        <time>2011-05-29T08:36:43Z</time>
      </trkpt>
      <trkpt lat="43.69623" lon="3.67458">
        <ele>240.5</ele>
        <time>2011-05-29T08:36:44Z</time>
      </trkpt>
      <trkpt lat="43.69618" lon="3.67459">
        <ele>240.3</ele>
        <time>2011-05-29T08:36:45Z</time>
      </trkpt>
      <trkpt lat="43.69612" lon="3.67459">
        <ele>240.2</ele>
        <time>2011-05-29T08:36:46Z</time>
      </trkpt>
      <trkpt lat="43.69607" lon="3.67459">
        <ele>240</ele>
        <time>2011-05-29T08:36:47Z</time>
      </trkpt>
      <trkpt lat="43.69601" lon="3.67459">
        <ele>239.8</ele>
        <time>2011-05-29T08:36:48Z</time>
      </trkpt>
      <trkpt lat="43.69595" lon="3.6746">
        <ele>239.7</ele>
        <time>2011-05-29T08:36:49Z</time>
      </trkpt>
      <trkpt lat="43.69589" lon="3.6746">
        <ele>239.5</ele>
        <time>2011-05-29T08:36:50Z</time>
      </trkpt>
      <trkpt lat="43.69583" lon="3.6746">
        <ele>239.4</ele>
        <time>2011-05-29T08:36:51Z</time>
      </trkpt>
      <trkpt lat="43.69576" lon="3.6746">
        <ele>239</ele>
        <time>2011-05-29T08:36:52Z</time>
      </trkpt>
      <trkpt lat="43.6957" lon="3.67461">
        <ele>238.6</ele>
        <time>2011-05-29T08:36:53Z</time>
      </trkpt>
      <trkpt lat="43.69563" lon="3.67462">
        <ele>238.2</ele>
        <time>2011-05-29T08:36:54Z</time>
      </trkpt>
      <trkpt lat="43.69557" lon="3.67462">
        <ele>237.8</ele>
        <time>2011-05-29T08:36:55Z</time>
      </trkpt>
      <trkpt lat="43.6955" lon="3.67463">
        <ele>237.4</ele>
        <time>2011-05-29T08:36:56Z</time>
      </trkpt>
      <trkpt lat="43.69543" lon="3.67464">
        <ele>237</ele>
        <time>2011-05-29T08:36:57Z</time>
      </trkpt>
      <trkpt lat="43.69536" lon="3.67466">
        <ele>236.6</ele>
        <time>2011-05-29T08:36:58Z</time>
      </trkpt>
      <trkpt lat="43.6953" lon="3.67467">
        <ele>236.2</ele>
        <time>2011-05-29T08:36:59Z</time>
      </trkpt>
      <trkpt lat="43.69523" lon="3.67468">
        <ele>235.8</ele>
        <time>2011-05-29T08:37:00Z</time>
      </trkpt>
      <trkpt lat="43.69516" lon="3.67469">
        <ele>235.3</ele>
        <time>2011-05-29T08:37:01Z</time>
      </trkpt>
      <trkpt lat="43.69509" lon="3.6747">
        <ele>234.9</ele>
        <time>2011-05-29T08:37:02Z</time>
      </trkpt>
      <trkpt lat="43.69502" lon="3.67472">
        <ele>234.5</ele>
        <time>2011-05-29T08:37:03Z</time>
      </trkpt>
      <trkpt lat="43.69495" lon="3.67473">
        <ele>234.2</ele>
        <time>2011-05-29T08:37:04Z</time>
      </trkpt>
      <trkpt lat="43.69488" lon="3.67474">
        <ele>234</ele>
        <time>2011-05-29T08:37:05Z</time>
      </trkpt>
      <trkpt lat="43.69481" lon="3.67476">
        <ele>233.8</ele>
        <time>2011-05-29T08:37:06Z</time>
      </trkpt>
      <trkpt lat="43.69473" lon="3.67478">
        <ele>233.6</ele>
        <time>2011-05-29T08:37:07Z</time>
      </trkpt>
      <trkpt lat="43.69466" lon="3.67479">
        <ele>233.4</ele>
        <time>2011-05-29T08:37:08Z</time>
      </trkpt>
      <trkpt lat="43.69459" lon="3.67481">
        <ele>233.2</ele>
        <time>2011-05-29T08:37:09Z</time>
      </trkpt>
      <trkpt lat="43.69452" lon="3.67483">
        <ele>233.1</ele>
        <time>2011-05-29T08:37:10Z</time>
      </trkpt>
      <trkpt lat="43.69445" lon="3.67486">
        <ele>233</ele>
        <time>2011-05-29T08:37:11Z</time>
      </trkpt>
      <trkpt lat="43.69438" lon="3.67488">
        <ele>232.9</ele>
        <time>2011-05-29T08:37:12Z</time>
      </trkpt>
      <trkpt lat="43.69431" lon="3.67491">
        <ele>232.9</ele>
        <time>2011-05-29T08:37:13Z</time>
      </trkpt>
      <trkpt lat="43.69424" lon="3.67493">
        <ele>232.9</ele>
        <time>2011-05-29T08:37:14Z</time>
      </trkpt>
      <trkpt lat="43.69417" lon="3.67495">
        <ele>232.9</ele>
        <time>2011-05-29T08:37:15Z</time>
      </trkpt>
      <trkpt lat="43.69411" lon="3.67498">
        <ele>233</ele>
        <time>2011-05-29T08:37:16Z</time>
      </trkpt>
      <trkpt lat="43.69404" lon="3.67501">
        <ele>233.1</ele>
        <time>2011-05-29T08:37:17Z</time>
      </trkpt>
      <trkpt lat="43.69398" lon="3.67504">
        <ele>233</ele>
        <time>2011-05-29T08:37:18Z</time>
      </trkpt>
      <trkpt lat="43.69392" lon="3.67508">
        <ele>232.8</ele>
        <time>2011-05-29T08:37:19Z</time>
      </trkpt>
      <trkpt lat="43.69385" lon="3.67512">
        <ele>232.7</ele>
        <time>2011-05-29T08:37:20Z</time>
      </trkpt>
      <trkpt lat="43.69379" lon="3.67517">
        <ele>232.5</ele>
        <time>2011-05-29T08:37:21Z</time>
      </trkpt>
      <trkpt lat="43.69372" lon="3.67519">
        <ele>232.5</ele>
        <time>2011-05-29T08:37:22Z</time>
      </trkpt>
      <trkpt lat="43.69364" lon="3.6752">
        <ele>232.6</ele>
        <time>2011-05-29T08:37:23Z</time>
      </trkpt>
      <trkpt lat="43.69358" lon="3.67522">
        <ele>232.7</ele>
        <time>2011-05-29T08:37:24Z</time>
      </trkpt>
      <trkpt lat="43.69351" lon="3.67523">
        <ele>232.8</ele>
        <time>2011-05-29T08:37:25Z</time>
      </trkpt>
      <trkpt lat="43.69344" lon="3.67522">
        <ele>233</ele>
        <time>2011-05-29T08:37:26Z</time>
      </trkpt>
      <trkpt lat="43.69338" lon="3.67521">
        <ele>233.1</ele>
        <time>2011-05-29T08:37:27Z</time>
      </trkpt>
      <trkpt lat="43.69333" lon="3.67521">
        <ele>233.2</ele>
        <time>2011-05-29T08:37:28Z</time>
      </trkpt>
      <trkpt lat="43.69328" lon="3.67521">
        <ele>233.2</ele>
        <time>2011-05-29T08:37:29Z</time>
      </trkpt>
      <trkpt lat="43.69324" lon="3.6752">
        <ele>233.2</ele>
        <time>2011-05-29T08:37:30Z</time>
      </trkpt>
      <trkpt lat="43.69319" lon="3.6752">
        <ele>233.1</ele>
        <time>2011-05-29T08:37:31Z</time>
      </trkpt>
      <trkpt lat="43.69314" lon="3.67519">
        <ele>233.1</ele>
        <time>2011-05-29T08:37:32Z</time>
      </trkpt>
      <trkpt lat="43.69309" lon="3.67519">
        <ele>233.1</ele>
        <time>2011-05-29T08:37:33Z</time>
      </trkpt>
      <trkpt lat="43.69304" lon="3.67518">
        <ele>233</ele>
        <time>2011-05-29T08:37:34Z</time>
      </trkpt>
      <trkpt lat="43.69299" lon="3.67518">
        <ele>233</ele>
        <time>2011-05-29T08:37:35Z</time>
      </trkpt>
      <trkpt lat="43.69294" lon="3.67518">
        <ele>232.9</ele>
        <time>2011-05-29T08:37:36Z</time>
      </trkpt>
      <trkpt lat="43.69288" lon="3.67518">
        <ele>232.9</ele>
        <time>2011-05-29T08:37:37Z</time>
      </trkpt>
      <trkpt lat="43.69282" lon="3.67517">
        <ele>232.8</ele>
        <time>2011-05-29T08:37:38Z</time>
      </trkpt>
      <trkpt lat="43.69276" lon="3.67517">
        <ele>232.7</ele>
        <time>2011-05-29T08:37:39Z</time>
      </trkpt>
      <trkpt lat="43.69269" lon="3.67517">
        <ele>232.6</ele>
        <time>2011-05-29T08:37:40Z</time>
      </trkpt>
      <trkpt lat="43.69261" lon="3.67518">
        <ele>232.6</ele>
        <time>2011-05-29T08:37:41Z</time>
      </trkpt>
      <trkpt lat="43.69253" lon="3.67519">
        <ele>232.5</ele>
        <time>2011-05-29T08:37:42Z</time>
      </trkpt>
      <trkpt lat="43.69246" lon="3.67519">
        <ele>232.7</ele>
        <time>2011-05-29T08:37:43Z</time>
      </trkpt>
      <trkpt lat="43.69238" lon="3.6752">
        <ele>233.1</ele>
        <time>2011-05-29T08:37:44Z</time>
      </trkpt>
      <trkpt lat="43.69231" lon="3.6752">
        <ele>233.5</ele>
        <time>2011-05-29T08:37:45Z</time>
      </trkpt>
      <trkpt lat="43.69224" lon="3.67521">
        <ele>233.9</ele>
        <time>2011-05-29T08:37:46Z</time>
      </trkpt>
      <trkpt lat="43.69218" lon="3.67521">
        <ele>234.3</ele>
        <time>2011-05-29T08:37:47Z</time>
      </trkpt>
      <trkpt lat="43.69211" lon="3.67522">
        <ele>234.7</ele>
        <time>2011-05-29T08:37:48Z</time>
      </trkpt>
      <trkpt lat="43.69206" lon="3.67524">
        <ele>235.1</ele>
        <time>2011-05-29T08:37:49Z</time>
      </trkpt>
      <trkpt lat="43.69201" lon="3.67527">
        <ele>235.6</ele>
        <time>2011-05-29T08:37:50Z</time>
      </trkpt>
      <trkpt lat="43.69196" lon="3.6753">
        <ele>236.1</ele>
        <time>2011-05-29T08:37:51Z</time>
      </trkpt>
      <trkpt lat="43.69192" lon="3.67533">
        <ele>236.5</ele>
        <time>2011-05-29T08:37:52Z</time>
      </trkpt>
      <trkpt lat="43.69184" lon="3.67538">
        <ele>237.4</ele>
        <time>2011-05-29T08:37:54Z</time>
      </trkpt>
      <trkpt lat="43.69177" lon="3.67543">
        <ele>238.3</ele>
        <time>2011-05-29T08:37:56Z</time>
      </trkpt>
      <trkpt lat="43.6917" lon="3.67547">
        <ele>239.3</ele>
        <time>2011-05-29T08:37:58Z</time>
      </trkpt>
      <trkpt lat="43.69163" lon="3.67551">
        <ele>240.1</ele>
        <time>2011-05-29T08:38:00Z</time>
      </trkpt>
      <trkpt lat="43.69157" lon="3.67553">
        <ele>240.8</ele>
        <time>2011-05-29T08:38:02Z</time>
      </trkpt>
      <trkpt lat="43.69148" lon="3.67556">
        <ele>241.8</ele>
        <time>2011-05-29T08:38:05Z</time>
      </trkpt>
      <trkpt lat="43.69141" lon="3.67558">
        <ele>242.6</ele>
        <time>2011-05-29T08:38:08Z</time>
      </trkpt>
      <trkpt lat="43.69133" lon="3.6756">
        <ele>243.4</ele>
        <time>2011-05-29T08:38:11Z</time>
      </trkpt>
      <trkpt lat="43.69131" lon="3.6756">
        <ele>243.6</ele>
        <time>2011-05-29T08:38:12Z</time>
      </trkpt>
      <trkpt lat="43.69119" lon="3.67561">
        <ele>244.6</ele>
        <time>2011-05-29T08:38:17Z</time>
      </trkpt>
      <trkpt lat="43.6911" lon="3.67562">
        <ele>245.4</ele>
        <time>2011-05-29T08:38:21Z</time>
      </trkpt>
      <trkpt lat="43.69102" lon="3.67564">
        <ele>246.1</ele>
        <time>2011-05-29T08:38:25Z</time>
      </trkpt>
      <trkpt lat="43.69094" lon="3.67565">
        <ele>246.9</ele>
        <time>2011-05-29T08:38:29Z</time>
      </trkpt>
      <trkpt lat="43.69086" lon="3.67567">
        <ele>247.6</ele>
        <time>2011-05-29T08:38:33Z</time>
      </trkpt>
      <trkpt lat="43.69078" lon="3.67569">
        <ele>248.2</ele>
        <time>2011-05-29T08:38:37Z</time>
      </trkpt>
      <trkpt lat="43.6907" lon="3.67571">
        <ele>248.7</ele>
        <time>2011-05-29T08:38:41Z</time>
      </trkpt>
      <trkpt lat="43.69061" lon="3.67572">
        <ele>249.2</ele>
        <time>2011-05-29T08:38:45Z</time>
      </trkpt>
      <trkpt lat="43.69054" lon="3.67574">
        <ele>249.7</ele>
        <time>2011-05-29T08:38:49Z</time>
      </trkpt>
      <trkpt lat="43.69045" lon="3.67575">
        <ele>250.2</ele>
        <time>2011-05-29T08:38:53Z</time>
      </trkpt>
      <trkpt lat="43.69038" lon="3.67577">
        <ele>250.7</ele>
        <time>2011-05-29T08:38:56Z</time>
      </trkpt>
      <trkpt lat="43.69031" lon="3.6758">
        <ele>251.2</ele>
        <time>2011-05-29T08:38:59Z</time>
      </trkpt>
      <trkpt lat="43.69024" lon="3.67583">
        <ele>251.8</ele>
        <time>2011-05-29T08:39:02Z</time>
      </trkpt>
      <trkpt lat="43.69017" lon="3.67587">
        <ele>252.6</ele>
        <time>2011-05-29T08:39:05Z</time>
      </trkpt>
      <trkpt lat="43.69009" lon="3.67593">
        <ele>253.6</ele>
        <time>2011-05-29T08:39:08Z</time>
      </trkpt>
      <trkpt lat="43.69002" lon="3.67598">
        <ele>254.5</ele>
        <time>2011-05-29T08:39:11Z</time>
      </trkpt>
      <trkpt lat="43.68994" lon="3.67603">
        <ele>254.8</ele>
        <time>2011-05-29T08:39:14Z</time>
      </trkpt>
      <trkpt lat="43.68991" lon="3.67605">
        <ele>254.9</ele>
        <time>2011-05-29T08:39:15Z</time>
      </trkpt>
      <trkpt lat="43.6898" lon="3.67611">
        <ele>255.1</ele>
        <time>2011-05-29T08:39:19Z</time>
      </trkpt>
      <trkpt lat="43.68974" lon="3.67615">
        <ele>255.3</ele>
        <time>2011-05-29T08:39:21Z</time>
      </trkpt>
      <trkpt lat="43.68969" lon="3.67619">
        <ele>255.5</ele>
        <time>2011-05-29T08:39:23Z</time>
      </trkpt>
      <trkpt lat="43.68962" lon="3.67623">
        <ele>255.7</ele>
        <time>2011-05-29T08:39:25Z</time>
      </trkpt>
      <trkpt lat="43.68956" lon="3.67628">
        <ele>255.9</ele>
        <time>2011-05-29T08:39:27Z</time>
      </trkpt>
      <trkpt lat="43.68949" lon="3.67632">
        <ele>256.2</ele>
        <time>2011-05-29T08:39:29Z</time>
      </trkpt>
      <trkpt lat="43.68943" lon="3.67637">
        <ele>256.5</ele>
        <time>2011-05-29T08:39:31Z</time>
      </trkpt>
      <trkpt lat="43.68936" lon="3.67641">
        <ele>256.7</ele>
        <time>2011-05-29T08:39:33Z</time>
      </trkpt>
      <trkpt lat="43.6893" lon="3.67646">
        <ele>257</ele>
        <time>2011-05-29T08:39:35Z</time>
      </trkpt>
      <trkpt lat="43.68924" lon="3.67649">
        <ele>257.2</ele>
        <time>2011-05-29T08:39:37Z</time>
      </trkpt>
      <trkpt lat="43.68918" lon="3.67653">
        <ele>257.4</ele>
        <time>2011-05-29T08:39:39Z</time>
      </trkpt>
      <trkpt lat="43.68912" lon="3.67658">
        <ele>258</ele>
        <time>2011-05-29T08:39:41Z</time>
      </trkpt>
      <trkpt lat="43.68906" lon="3.67661">
        <ele>258.5</ele>
        <time>2011-05-29T08:39:43Z</time>
      </trkpt>
      <trkpt lat="43.68899" lon="3.67664">
        <ele>258.9</ele>
        <time>2011-05-29T08:39:45Z</time>
      </trkpt>
      <trkpt lat="43.68893" lon="3.67667">
        <ele>259.4</ele>
        <time>2011-05-29T08:39:47Z</time>
      </trkpt>
      <trkpt lat="43.68887" lon="3.67671">
        <ele>259.8</ele>
        <time>2011-05-29T08:39:49Z</time>
      </trkpt>
      <trkpt lat="43.68882" lon="3.67674">
        <ele>260.1</ele>
        <time>2011-05-29T08:39:51Z</time>
      </trkpt>
      <trkpt lat="43.68876" lon="3.67677">
        <ele>260.3</ele>
        <time>2011-05-29T08:39:53Z</time>
      </trkpt>
      <trkpt lat="43.68867" lon="3.6768">
        <ele>260.6</ele>
        <time>2011-05-29T08:39:56Z</time>
      </trkpt>
      <trkpt lat="43.68859" lon="3.67682">
        <ele>260.8</ele>
        <time>2011-05-29T08:39:59Z</time>
      </trkpt>
      <trkpt lat="43.68851" lon="3.67684">
        <ele>260.9</ele>
        <time>2011-05-29T08:40:02Z</time>
      </trkpt>
      <trkpt lat="43.68842" lon="3.67686">
        <ele>261</ele>
        <time>2011-05-29T08:40:05Z</time>
      </trkpt>
      <trkpt lat="43.68836" lon="3.67688">
        <ele>261</ele>
        <time>2011-05-29T08:40:07Z</time>
      </trkpt>
      <trkpt lat="43.6883" lon="3.67689">
        <ele>261.1</ele>
        <time>2011-05-29T08:40:09Z</time>
      </trkpt>
      <trkpt lat="43.68824" lon="3.67691">
        <ele>261.3</ele>
        <time>2011-05-29T08:40:11Z</time>
      </trkpt>
      <trkpt lat="43.68818" lon="3.67692">
        <ele>261.5</ele>
        <time>2011-05-29T08:40:13Z</time>
      </trkpt>
      <trkpt lat="43.68812" lon="3.67693">
        <ele>261.6</ele>
        <time>2011-05-29T08:40:15Z</time>
      </trkpt>
      <trkpt lat="43.68809" lon="3.67694">
        <ele>261.6</ele>
        <time>2011-05-29T08:40:16Z</time>
      </trkpt>
      <trkpt lat="43.68799" lon="3.67695">
        <ele>261.7</ele>
        <time>2011-05-29T08:40:19Z</time>
      </trkpt>
      <trkpt lat="43.68793" lon="3.67696">
        <ele>261.8</ele>
        <time>2011-05-29T08:40:21Z</time>
      </trkpt>
      <trkpt lat="43.68787" lon="3.67696">
        <ele>261.9</ele>
        <time>2011-05-29T08:40:23Z</time>
      </trkpt>
      <trkpt lat="43.68781" lon="3.67697">
        <ele>261.9</ele>
        <time>2011-05-29T08:40:25Z</time>
      </trkpt>
      <trkpt lat="43.68774" lon="3.67697">
        <ele>262</ele>
        <time>2011-05-29T08:40:27Z</time>
      </trkpt>
      <trkpt lat="43.68767" lon="3.67698">
        <ele>262</ele>
        <time>2011-05-29T08:40:29Z</time>
      </trkpt>
      <trkpt lat="43.6876" lon="3.67699">
        <ele>262</ele>
        <time>2011-05-29T08:40:31Z</time>
      </trkpt>
      <trkpt lat="43.68753" lon="3.67699">
        <ele>262</ele>
        <time>2011-05-29T08:40:33Z</time>
      </trkpt>
      <trkpt lat="43.68745" lon="3.67699">
        <ele>262</ele>
        <time>2011-05-29T08:40:35Z</time>
      </trkpt>
      <trkpt lat="43.68736" lon="3.67697">
        <ele>262</ele>
        <time>2011-05-29T08:40:37Z</time>
      </trkpt>
      <trkpt lat="43.68732" lon="3.67696">
        <ele>262</ele>
        <time>2011-05-29T08:40:38Z</time>
      </trkpt>
      <trkpt lat="43.68727" lon="3.67695">
        <ele>262.1</ele>
        <time>2011-05-29T08:40:39Z</time>
      </trkpt>
      <trkpt lat="43.68723" lon="3.67693">
        <ele>262.1</ele>
        <time>2011-05-29T08:40:40Z</time>
      </trkpt>
      <trkpt lat="43.68718" lon="3.67692">
        <ele>262.2</ele>
        <time>2011-05-29T08:40:41Z</time>
      </trkpt>
      <trkpt lat="43.68714" lon="3.6769">
        <ele>262.2</ele>
        <time>2011-05-29T08:40:42Z</time>
      </trkpt>
      <trkpt lat="43.68705" lon="3.67687">
        <ele>262.4</ele>
        <time>2011-05-29T08:40:44Z</time>
      </trkpt>
      <trkpt lat="43.68701" lon="3.67686">
        <ele>262.5</ele>
        <time>2011-05-29T08:40:45Z</time>
      </trkpt>
      <trkpt lat="43.68696" lon="3.67684">
        <ele>262.5</ele>
        <time>2011-05-29T08:40:46Z</time>
      </trkpt>
      <trkpt lat="43.68691" lon="3.67683">
        <ele>262.6</ele>
        <time>2011-05-29T08:40:47Z</time>
      </trkpt>
      <trkpt lat="43.68686" lon="3.67682">
        <ele>262.7</ele>
        <time>2011-05-29T08:40:48Z</time>
      </trkpt>
      <trkpt lat="43.68681" lon="3.6768">
        <ele>262.8</ele>
        <time>2011-05-29T08:40:49Z</time>
      </trkpt>
      <trkpt lat="43.68676" lon="3.67679">
        <ele>262.9</ele>
        <time>2011-05-29T08:40:50Z</time>
      </trkpt>
      <trkpt lat="43.68671" lon="3.67678">
        <ele>263</ele>
        <time>2011-05-29T08:40:51Z</time>
      </trkpt>
      <trkpt lat="43.68666" lon="3.67676">
        <ele>263</ele>
        <time>2011-05-29T08:40:52Z</time>
      </trkpt>
      <trkpt lat="43.68661" lon="3.67675">
        <ele>262.8</ele>
        <time>2011-05-29T08:40:53Z</time>
      </trkpt>
      <trkpt lat="43.68656" lon="3.67674">
        <ele>262.6</ele>
        <time>2011-05-29T08:40:54Z</time>
      </trkpt>
      <trkpt lat="43.68651" lon="3.67673">
        <ele>262.4</ele>
        <time>2011-05-29T08:40:55Z</time>
      </trkpt>
      <trkpt lat="43.68646" lon="3.67673">
        <ele>262.2</ele>
        <time>2011-05-29T08:40:56Z</time>
      </trkpt>
      <trkpt lat="43.68641" lon="3.67673">
        <ele>261.9</ele>
        <time>2011-05-29T08:40:57Z</time>
      </trkpt>
      <trkpt lat="43.68636" lon="3.67673">
        <ele>261.6</ele>
        <time>2011-05-29T08:40:58Z</time>
      </trkpt>
      <trkpt lat="43.68632" lon="3.67673">
        <ele>261.3</ele>
        <time>2011-05-29T08:40:59Z</time>
      </trkpt>
      <trkpt lat="43.68627" lon="3.67673">
        <ele>261</ele>
        <time>2011-05-29T08:41:00Z</time>
      </trkpt>
      <trkpt lat="43.68622" lon="3.67673">
        <ele>260.8</ele>
        <time>2011-05-29T08:41:01Z</time>
      </trkpt>
      <trkpt lat="43.68617" lon="3.67671">
        <ele>260.6</ele>
        <time>2011-05-29T08:41:02Z</time>
      </trkpt>
      <trkpt lat="43.68613" lon="3.67669">
        <ele>260.6</ele>
        <time>2011-05-29T08:41:03Z</time>
      </trkpt>
      <trkpt lat="43.68608" lon="3.67667">
        <ele>260.5</ele>
        <time>2011-05-29T08:41:04Z</time>
      </trkpt>
      <trkpt lat="43.68603" lon="3.67664">
        <ele>260.2</ele>
        <time>2011-05-29T08:41:05Z</time>
      </trkpt>
      <trkpt lat="43.68598" lon="3.67662">
        <ele>259.9</ele>
        <time>2011-05-29T08:41:06Z</time>
      </trkpt>
      <trkpt lat="43.68593" lon="3.6766">
        <ele>259.6</ele>
        <time>2011-05-29T08:41:07Z</time>
      </trkpt>
      <trkpt lat="43.68588" lon="3.67658">
        <ele>259.3</ele>
        <time>2011-05-29T08:41:08Z</time>
      </trkpt>
      <trkpt lat="43.68582" lon="3.67655">
        <ele>259</ele>
        <time>2011-05-29T08:41:09Z</time>
      </trkpt>
      <trkpt lat="43.68577" lon="3.67653">
        <ele>259</ele>
        <time>2011-05-29T08:41:10Z</time>
      </trkpt>
      <trkpt lat="43.68572" lon="3.67649">
        <ele>258.9</ele>
        <time>2011-05-29T08:41:11Z</time>
      </trkpt>
      <trkpt lat="43.68567" lon="3.67646">
        <ele>258.9</ele>
        <time>2011-05-29T08:41:12Z</time>
      </trkpt>
      <trkpt lat="43.68562" lon="3.67643">
        <ele>259</ele>
        <time>2011-05-29T08:41:13Z</time>
      </trkpt>
      <trkpt lat="43.68557" lon="3.6764">
        <ele>259</ele>
        <time>2011-05-29T08:41:14Z</time>
      </trkpt>
      <trkpt lat="43.68552" lon="3.67637">
        <ele>259</ele>
        <time>2011-05-29T08:41:15Z</time>
      </trkpt>
      <trkpt lat="43.68547" lon="3.67634">
        <ele>259.1</ele>
        <time>2011-05-29T08:41:16Z</time>
      </trkpt>
      <trkpt lat="43.68542" lon="3.67631">
        <ele>259.1</ele>
        <time>2011-05-29T08:41:17Z</time>
      </trkpt>
      <trkpt lat="43.68537" lon="3.67628">
        <ele>259.2</ele>
        <time>2011-05-29T08:41:18Z</time>
      </trkpt>
      <trkpt lat="43.68533" lon="3.67625">
        <ele>259.3</ele>
        <time>2011-05-29T08:41:19Z</time>
      </trkpt>
      <trkpt lat="43.68528" lon="3.67622">
        <ele>259.4</ele>
        <time>2011-05-29T08:41:20Z</time>
      </trkpt>
      <trkpt lat="43.68524" lon="3.6762">
        <ele>259.5</ele>
        <time>2011-05-29T08:41:21Z</time>
      </trkpt>
      <trkpt lat="43.68519" lon="3.67617">
        <ele>259.6</ele>
        <time>2011-05-29T08:41:22Z</time>
      </trkpt>
      <trkpt lat="43.68515" lon="3.67614">
        <ele>259.7</ele>
        <time>2011-05-29T08:41:23Z</time>
      </trkpt>
      <trkpt lat="43.6851" lon="3.67612">
        <ele>259.8</ele>
        <time>2011-05-29T08:41:24Z</time>
      </trkpt>
      <trkpt lat="43.68505" lon="3.67611">
        <ele>260</ele>
        <time>2011-05-29T08:41:25Z</time>
      </trkpt>
      <trkpt lat="43.685" lon="3.6761">
        <ele>260.1</ele>
        <time>2011-05-29T08:41:26Z</time>
      </trkpt>
      <trkpt lat="43.68496" lon="3.67608">
        <ele>260.2</ele>
        <time>2011-05-29T08:41:27Z</time>
      </trkpt>
      <trkpt lat="43.68491" lon="3.67608">
        <ele>260.3</ele>
        <time>2011-05-29T08:41:28Z</time>
      </trkpt>
      <trkpt lat="43.68483" lon="3.67606">
        <ele>260.6</ele>
        <time>2011-05-29T08:41:30Z</time>
      </trkpt>
      <trkpt lat="43.68475" lon="3.67605">
        <ele>260.8</ele>
        <time>2011-05-29T08:41:32Z</time>
      </trkpt>
      <trkpt lat="43.68467" lon="3.67604">
        <ele>261.1</ele>
        <time>2011-05-29T08:41:34Z</time>
      </trkpt>
      <trkpt lat="43.6846" lon="3.67602">
        <ele>261.4</ele>
        <time>2011-05-29T08:41:36Z</time>
      </trkpt>
      <trkpt lat="43.68453" lon="3.676">
        <ele>261.7</ele>
        <time>2011-05-29T08:41:38Z</time>
      </trkpt>
      <trkpt lat="43.68446" lon="3.67598">
        <ele>262</ele>
        <time>2011-05-29T08:41:40Z</time>
      </trkpt>
      <trkpt lat="43.68439" lon="3.67595">
        <ele>262.4</ele>
        <time>2011-05-29T08:41:42Z</time>
      </trkpt>
      <trkpt lat="43.68432" lon="3.67591">
        <ele>262.9</ele>
        <time>2011-05-29T08:41:44Z</time>
      </trkpt>
      <trkpt lat="43.68425" lon="3.67588">
        <ele>263.4</ele>
        <time>2011-05-29T08:41:46Z</time>
      </trkpt>
      <trkpt lat="43.68418" lon="3.67584">
        <ele>263.9</ele>
        <time>2011-05-29T08:41:48Z</time>
      </trkpt>
      <trkpt lat="43.6841" lon="3.67581">
        <ele>264</ele>
        <time>2011-05-29T08:41:50Z</time>
      </trkpt>
      <trkpt lat="43.68403" lon="3.67577">
        <ele>264.1</ele>
        <time>2011-05-29T08:41:52Z</time>
      </trkpt>
      <trkpt lat="43.68395" lon="3.67575">
        <ele>264.2</ele>
        <time>2011-05-29T08:41:54Z</time>
      </trkpt>
      <trkpt lat="43.68387" lon="3.67573">
        <ele>264.4</ele>
        <time>2011-05-29T08:41:56Z</time>
      </trkpt>
      <trkpt lat="43.68379" lon="3.67573">
        <ele>264.6</ele>
        <time>2011-05-29T08:41:58Z</time>
      </trkpt>
      <trkpt lat="43.68372" lon="3.67574">
        <ele>264.9</ele>
        <time>2011-05-29T08:42:00Z</time>
      </trkpt>
      <trkpt lat="43.68364" lon="3.67575">
        <ele>265.1</ele>
        <time>2011-05-29T08:42:02Z</time>
      </trkpt>
      <trkpt lat="43.68356" lon="3.67578">
        <ele>265.4</ele>
        <time>2011-05-29T08:42:04Z</time>
      </trkpt>
      <trkpt lat="43.68349" lon="3.6758">
        <ele>265.6</ele>
        <time>2011-05-29T08:42:06Z</time>
      </trkpt>
      <trkpt lat="43.68341" lon="3.67583">
        <ele>265.8</ele>
        <time>2011-05-29T08:42:08Z</time>
      </trkpt>
      <trkpt lat="43.68334" lon="3.67586">
        <ele>265.6</ele>
        <time>2011-05-29T08:42:10Z</time>
      </trkpt>
      <trkpt lat="43.68326" lon="3.6759">
        <ele>264.7</ele>
        <time>2011-05-29T08:42:12Z</time>
      </trkpt>
      <trkpt lat="43.68317" lon="3.67592">
        <ele>263.9</ele>
        <time>2011-05-29T08:42:14Z</time>
      </trkpt>
      <trkpt lat="43.68312" lon="3.67591">
        <ele>263.6</ele>
        <time>2011-05-29T08:42:15Z</time>
      </trkpt>
      <trkpt lat="43.68308" lon="3.67589">
        <ele>263.5</ele>
        <time>2011-05-29T08:42:16Z</time>
      </trkpt>
      <trkpt lat="43.68304" lon="3.67587">
        <ele>263.4</ele>
        <time>2011-05-29T08:42:17Z</time>
      </trkpt>
      <trkpt lat="43.68299" lon="3.67584">
        <ele>263.4</ele>
        <time>2011-05-29T08:42:18Z</time>
      </trkpt>
      <trkpt lat="43.68295" lon="3.67581">
        <ele>263.3</ele>
        <time>2011-05-29T08:42:19Z</time>
      </trkpt>
      <trkpt lat="43.68288" lon="3.67575">
        <ele>262.9</ele>
        <time>2011-05-29T08:42:21Z</time>
      </trkpt>
      <trkpt lat="43.68282" lon="3.67568">
        <ele>262.6</ele>
        <time>2011-05-29T08:42:23Z</time>
      </trkpt>
      <trkpt lat="43.68276" lon="3.67561">
        <ele>262.4</ele>
        <time>2011-05-29T08:42:25Z</time>
      </trkpt>
      <trkpt lat="43.6827" lon="3.67555">
        <ele>262.2</ele>
        <time>2011-05-29T08:42:27Z</time>
      </trkpt>
      <trkpt lat="43.68266" lon="3.67548">
        <ele>262.2</ele>
        <time>2011-05-29T08:42:29Z</time>
      </trkpt>
      <trkpt lat="43.68258" lon="3.67544">
        <ele>261.9</ele>
        <time>2011-05-29T08:42:31Z</time>
      </trkpt>
      <trkpt lat="43.68254" lon="3.67542">
        <ele>261.7</ele>
        <time>2011-05-29T08:42:32Z</time>
      </trkpt>
      <trkpt lat="43.68249" lon="3.67541">
        <ele>261.4</ele>
        <time>2011-05-29T08:42:33Z</time>
      </trkpt>
      <trkpt lat="43.68244" lon="3.6754">
        <ele>260.8</ele>
        <time>2011-05-29T08:42:34Z</time>
      </trkpt>
      <trkpt lat="43.68238" lon="3.67541">
        <ele>260.2</ele>
        <time>2011-05-29T08:42:35Z</time>
      </trkpt>
      <trkpt lat="43.68231" lon="3.67543">
        <ele>259.4</ele>
        <time>2011-05-29T08:42:36Z</time>
      </trkpt>
      <trkpt lat="43.68224" lon="3.67547">
        <ele>258.6</ele>
        <time>2011-05-29T08:42:37Z</time>
      </trkpt>
      <trkpt lat="43.68217" lon="3.67554">
        <ele>257.7</ele>
        <time>2011-05-29T08:42:38Z</time>
      </trkpt>
      <trkpt lat="43.6821" lon="3.67562">
        <ele>256.7</ele>
        <time>2011-05-29T08:42:39Z</time>
      </trkpt>
      <trkpt lat="43.68202" lon="3.6757">
        <ele>255.7</ele>
        <time>2011-05-29T08:42:40Z</time>
      </trkpt>
      <trkpt lat="43.68193" lon="3.67576">
        <ele>254.7</ele>
        <time>2011-05-29T08:42:41Z</time>
      </trkpt>
      <trkpt lat="43.68184" lon="3.6758">
        <ele>253.7</ele>
        <time>2011-05-29T08:42:42Z</time>
      </trkpt>
      <trkpt lat="43.68174" lon="3.67581">
        <ele>252.7</ele>
        <time>2011-05-29T08:42:43Z</time>
      </trkpt>
      <trkpt lat="43.68164" lon="3.6758">
        <ele>252</ele>
        <time>2011-05-29T08:42:44Z</time>
      </trkpt>
      <trkpt lat="43.68154" lon="3.67579">
        <ele>252</ele>
        <time>2011-05-29T08:42:45Z</time>
      </trkpt>
      <trkpt lat="43.68145" lon="3.6758">
        <ele>252</ele>
        <time>2011-05-29T08:42:46Z</time>
      </trkpt>
      <trkpt lat="43.68135" lon="3.67582">
        <ele>252</ele>
        <time>2011-05-29T08:42:47Z</time>
      </trkpt>
      <trkpt lat="43.68127" lon="3.67585">
        <ele>252</ele>
        <time>2011-05-29T08:42:48Z</time>
      </trkpt>
      <trkpt lat="43.68119" lon="3.67587">
        <ele>252.1</ele>
        <time>2011-05-29T08:42:49Z</time>
      </trkpt>
      <trkpt lat="43.68111" lon="3.67589">
        <ele>252.2</ele>
        <time>2011-05-29T08:42:50Z</time>
      </trkpt>
      <trkpt lat="43.68103" lon="3.6759">
        <ele>252.3</ele>
        <time>2011-05-29T08:42:51Z</time>
      </trkpt>
      <trkpt lat="43.68097" lon="3.6759">
        <ele>252.3</ele>
        <time>2011-05-29T08:42:52Z</time>
      </trkpt>
      <trkpt lat="43.6809" lon="3.6759">
        <ele>252.3</ele>
        <time>2011-05-29T08:42:53Z</time>
      </trkpt>
      <trkpt lat="43.68085" lon="3.67589">
        <ele>252.3</ele>
        <time>2011-05-29T08:42:54Z</time>
      </trkpt>
      <trkpt lat="43.68079" lon="3.67588">
        <ele>252.4</ele>
        <time>2011-05-29T08:42:55Z</time>
      </trkpt>
      <trkpt lat="43.68074" lon="3.67587">
        <ele>252.6</ele>
        <time>2011-05-29T08:42:56Z</time>
      </trkpt>
      <trkpt lat="43.68069" lon="3.67586">
        <ele>252.7</ele>
        <time>2011-05-29T08:42:57Z</time>
      </trkpt>
      <trkpt lat="43.68064" lon="3.67585">
        <ele>252.8</ele>
        <time>2011-05-29T08:42:58Z</time>
      </trkpt>
      <trkpt lat="43.68059" lon="3.67584">
        <ele>252.9</ele>
        <time>2011-05-29T08:42:59Z</time>
      </trkpt>
      <trkpt lat="43.68054" lon="3.67583">
        <ele>253.1</ele>
        <time>2011-05-29T08:43:00Z</time>
      </trkpt>
      <trkpt lat="43.68049" lon="3.67582">
        <ele>253.3</ele>
        <time>2011-05-29T08:43:01Z</time>
      </trkpt>
      <trkpt lat="43.68044" lon="3.6758">
        <ele>253.5</ele>
        <time>2011-05-29T08:43:02Z</time>
      </trkpt>
      <trkpt lat="43.68039" lon="3.67579">
        <ele>253.7</ele>
        <time>2011-05-29T08:43:03Z</time>
      </trkpt>
      <trkpt lat="43.68034" lon="3.67578">
        <ele>254</ele>
        <time>2011-05-29T08:43:04Z</time>
      </trkpt>
      <trkpt lat="43.68029" lon="3.67577">
        <ele>254.2</ele>
        <time>2011-05-29T08:43:05Z</time>
      </trkpt>
      <trkpt lat="43.68023" lon="3.67575">
        <ele>254.5</ele>
        <time>2011-05-29T08:43:06Z</time>
      </trkpt>
      <trkpt lat="43.68018" lon="3.67574">
        <ele>254.8</ele>
        <time>2011-05-29T08:43:07Z</time>
      </trkpt>
      <trkpt lat="43.68013" lon="3.67573">
        <ele>255</ele>
        <time>2011-05-29T08:43:08Z</time>
      </trkpt>
      <trkpt lat="43.68007" lon="3.67573">
        <ele>255.3</ele>
        <time>2011-05-29T08:43:09Z</time>
      </trkpt>
      <trkpt lat="43.68002" lon="3.67572">
        <ele>255.6</ele>
        <time>2011-05-29T08:43:10Z</time>
      </trkpt>
      <trkpt lat="43.67996" lon="3.67572">
        <ele>256</ele>
        <time>2011-05-29T08:43:11Z</time>
      </trkpt>
      <trkpt lat="43.6799" lon="3.67572">
        <ele>256.5</ele>
        <time>2011-05-29T08:43:12Z</time>
      </trkpt>
      <trkpt lat="43.67984" lon="3.67573">
        <ele>256.9</ele>
        <time>2011-05-29T08:43:13Z</time>
      </trkpt>
      <trkpt lat="43.67978" lon="3.67573">
        <ele>257.4</ele>
        <time>2011-05-29T08:43:14Z</time>
      </trkpt>
      <trkpt lat="43.67972" lon="3.67574">
        <ele>257.8</ele>
        <time>2011-05-29T08:43:15Z</time>
      </trkpt>
      <trkpt lat="43.67966" lon="3.67575">
        <ele>258.2</ele>
        <time>2011-05-29T08:43:16Z</time>
      </trkpt>
      <trkpt lat="43.6796" lon="3.67576">
        <ele>258.6</ele>
        <time>2011-05-29T08:43:17Z</time>
      </trkpt>
      <trkpt lat="43.67954" lon="3.67576">
        <ele>259</ele>
        <time>2011-05-29T08:43:18Z</time>
      </trkpt>
      <trkpt lat="43.67948" lon="3.67577">
        <ele>259.3</ele>
        <time>2011-05-29T08:43:19Z</time>
      </trkpt>
      <trkpt lat="43.67943" lon="3.67578">
        <ele>259.7</ele>
        <time>2011-05-29T08:43:20Z</time>
      </trkpt>
      <trkpt lat="43.67938" lon="3.67578">
        <ele>260</ele>
        <time>2011-05-29T08:43:21Z</time>
      </trkpt>
      <trkpt lat="43.67933" lon="3.67579">
        <ele>260.3</ele>
        <time>2011-05-29T08:43:22Z</time>
      </trkpt>
      <trkpt lat="43.67928" lon="3.6758">
        <ele>260.6</ele>
        <time>2011-05-29T08:43:23Z</time>
      </trkpt>
      <trkpt lat="43.67923" lon="3.67581">
        <ele>260.8</ele>
        <time>2011-05-29T08:43:24Z</time>
      </trkpt>
      <trkpt lat="43.67915" lon="3.67583">
        <ele>261.3</ele>
        <time>2011-05-29T08:43:26Z</time>
      </trkpt>
      <trkpt lat="43.67907" lon="3.67586">
        <ele>262</ele>
        <time>2011-05-29T08:43:28Z</time>
      </trkpt>
      <trkpt lat="43.67899" lon="3.6759">
        <ele>262.8</ele>
        <time>2011-05-29T08:43:30Z</time>
      </trkpt>
      <trkpt lat="43.67892" lon="3.67594">
        <ele>263.5</ele>
        <time>2011-05-29T08:43:32Z</time>
      </trkpt>
      <trkpt lat="43.67885" lon="3.67598">
        <ele>264.1</ele>
        <time>2011-05-29T08:43:34Z</time>
      </trkpt>
      <trkpt lat="43.67879" lon="3.67602">
        <ele>264.7</ele>
        <time>2011-05-29T08:43:36Z</time>
      </trkpt>
      <trkpt lat="43.67873" lon="3.67606">
        <ele>265.2</ele>
        <time>2011-05-29T08:43:38Z</time>
      </trkpt>
      <trkpt lat="43.67867" lon="3.67611">
        <ele>265.6</ele>
        <time>2011-05-29T08:43:40Z</time>
      </trkpt>
      <trkpt lat="43.67861" lon="3.67615">
        <ele>266</ele>
        <time>2011-05-29T08:43:42Z</time>
      </trkpt>
      <trkpt lat="43.67855" lon="3.6762">
        <ele>266.3</ele>
        <time>2011-05-29T08:43:44Z</time>
      </trkpt>
      <trkpt lat="43.67849" lon="3.67626">
        <ele>266.5</ele>
        <time>2011-05-29T08:43:46Z</time>
      </trkpt>
      <trkpt lat="43.67843" lon="3.67632">
        <ele>266.7</ele>
        <time>2011-05-29T08:43:48Z</time>
      </trkpt>
      <trkpt lat="43.67837" lon="3.67637">
        <ele>266.9</ele>
        <time>2011-05-29T08:43:50Z</time>
      </trkpt>
      <trkpt lat="43.67831" lon="3.67643">
        <ele>267.1</ele>
        <time>2011-05-29T08:43:52Z</time>
      </trkpt>
      <trkpt lat="43.67825" lon="3.67648">
        <ele>267.4</ele>
        <time>2011-05-29T08:43:54Z</time>
      </trkpt>
      <trkpt lat="43.67819" lon="3.67653">
        <ele>267.6</ele>
        <time>2011-05-29T08:43:56Z</time>
      </trkpt>
      <trkpt lat="43.67813" lon="3.67658">
        <ele>267.8</ele>
        <time>2011-05-29T08:43:58Z</time>
      </trkpt>
      <trkpt lat="43.67806" lon="3.67662">
        <ele>268</ele>
        <time>2011-05-29T08:44:00Z</time>
      </trkpt>
      <trkpt lat="43.678" lon="3.67666">
        <ele>268</ele>
        <time>2011-05-29T08:44:02Z</time>
      </trkpt>
      <trkpt lat="43.67794" lon="3.6767">
        <ele>268.6</ele>
        <time>2011-05-29T08:44:04Z</time>
      </trkpt>
      <trkpt lat="43.67788" lon="3.67675">
        <ele>269.2</ele>
        <time>2011-05-29T08:44:06Z</time>
      </trkpt>
      <trkpt lat="43.67782" lon="3.67678">
        <ele>269.6</ele>
        <time>2011-05-29T08:44:08Z</time>
      </trkpt>
      <trkpt lat="43.67774" lon="3.67683">
        <ele>270.2</ele>
        <time>2011-05-29T08:44:11Z</time>
      </trkpt>
      <trkpt lat="43.67769" lon="3.67688">
        <ele>270.6</ele>
        <time>2011-05-29T08:44:13Z</time>
      </trkpt>
      <trkpt lat="43.67764" lon="3.67692">
        <ele>270.9</ele>
        <time>2011-05-29T08:44:15Z</time>
      </trkpt>
      <trkpt lat="43.67758" lon="3.67697">
        <ele>271.1</ele>
        <time>2011-05-29T08:44:17Z</time>
      </trkpt>
      <trkpt lat="43.67753" lon="3.67702">
        <ele>271.4</ele>
        <time>2011-05-29T08:44:19Z</time>
      </trkpt>
      <trkpt lat="43.67751" lon="3.67704">
        <ele>271.4</ele>
        <time>2011-05-29T08:44:20Z</time>
      </trkpt>
      <trkpt lat="43.6774" lon="3.67714">
        <ele>272.8</ele>
        <time>2011-05-29T08:44:24Z</time>
      </trkpt>
      <trkpt lat="43.67736" lon="3.67719">
        <ele>273.3</ele>
        <time>2011-05-29T08:44:26Z</time>
      </trkpt>
      <trkpt lat="43.67731" lon="3.67725">
        <ele>273.8</ele>
        <time>2011-05-29T08:44:28Z</time>
      </trkpt>
      <trkpt lat="43.67726" lon="3.6773">
        <ele>274.1</ele>
        <time>2011-05-29T08:44:30Z</time>
      </trkpt>
      <trkpt lat="43.67721" lon="3.67734">
        <ele>274.4</ele>
        <time>2011-05-29T08:44:32Z</time>
      </trkpt>
      <trkpt lat="43.67716" lon="3.67739">
        <ele>274.7</ele>
        <time>2011-05-29T08:44:34Z</time>
      </trkpt>
      <trkpt lat="43.6771" lon="3.67743">
        <ele>274.8</ele>
        <time>2011-05-29T08:44:36Z</time>
      </trkpt>
      <trkpt lat="43.67705" lon="3.67747">
        <ele>274.9</ele>
        <time>2011-05-29T08:44:38Z</time>
      </trkpt>
      <trkpt lat="43.67699" lon="3.67751">
        <ele>275.1</ele>
        <time>2011-05-29T08:44:40Z</time>
      </trkpt>
      <trkpt lat="43.67694" lon="3.67754">
        <ele>275.7</ele>
        <time>2011-05-29T08:44:42Z</time>
      </trkpt>
      <trkpt lat="43.67688" lon="3.67757">
        <ele>276.2</ele>
        <time>2011-05-29T08:44:44Z</time>
      </trkpt>
      <trkpt lat="43.67682" lon="3.67759">
        <ele>276.6</ele>
        <time>2011-05-29T08:44:46Z</time>
      </trkpt>
      <trkpt lat="43.67676" lon="3.67762">
        <ele>277</ele>
        <time>2011-05-29T08:44:48Z</time>
      </trkpt>
      <trkpt lat="43.6767" lon="3.67763">
        <ele>277.4</ele>
        <time>2011-05-29T08:44:50Z</time>
      </trkpt>
      <trkpt lat="43.67661" lon="3.67766">
        <ele>277.9</ele>
        <time>2011-05-29T08:44:53Z</time>
      </trkpt>
      <trkpt lat="43.67655" lon="3.67767">
        <ele>278.3</ele>
        <time>2011-05-29T08:44:55Z</time>
      </trkpt>
      <trkpt lat="43.67649" lon="3.67767">
        <ele>278.7</ele>
        <time>2011-05-29T08:44:57Z</time>
      </trkpt>
      <trkpt lat="43.6764" lon="3.67769">
        <ele>279.2</ele>
        <time>2011-05-29T08:45:00Z</time>
      </trkpt>
      <trkpt lat="43.67631" lon="3.6777">
        <ele>279.8</ele>
        <time>2011-05-29T08:45:03Z</time>
      </trkpt>
      <trkpt lat="43.67626" lon="3.67772">
        <ele>280.1</ele>
        <time>2011-05-29T08:45:05Z</time>
      </trkpt>
      <trkpt lat="43.67617" lon="3.67776">
        <ele>280.6</ele>
        <time>2011-05-29T08:45:08Z</time>
      </trkpt>
      <trkpt lat="43.67609" lon="3.67781">
        <ele>281</ele>
        <time>2011-05-29T08:45:11Z</time>
      </trkpt>
      <trkpt lat="43.67601" lon="3.67783">
        <ele>281.4</ele>
        <time>2011-05-29T08:45:14Z</time>
      </trkpt>
      <trkpt lat="43.67595" lon="3.67782">
        <ele>281.7</ele>
        <time>2011-05-29T08:45:16Z</time>
      </trkpt>
      <trkpt lat="43.67586" lon="3.6778">
        <ele>282.1</ele>
        <time>2011-05-29T08:45:19Z</time>
      </trkpt>
      <trkpt lat="43.67578" lon="3.67779">
        <ele>282.7</ele>
        <time>2011-05-29T08:45:22Z</time>
      </trkpt>
      <trkpt lat="43.67576" lon="3.67779">
        <ele>282.9</ele>
        <time>2011-05-29T08:45:23Z</time>
      </trkpt>
      <trkpt lat="43.67562" lon="3.67778">
        <ele>283.9</ele>
        <time>2011-05-29T08:45:31Z</time>
      </trkpt>
      <trkpt lat="43.67554" lon="3.67778">
        <ele>284.6</ele>
        <time>2011-05-29T08:45:36Z</time>
      </trkpt>
      <trkpt lat="43.67546" lon="3.67777">
        <ele>285.2</ele>
        <time>2011-05-29T08:45:41Z</time>
      </trkpt>
      <trkpt lat="43.67537" lon="3.67776">
        <ele>285.9</ele>
        <time>2011-05-29T08:45:46Z</time>
      </trkpt>
      <trkpt lat="43.67528" lon="3.67774">
        <ele>286.6</ele>
        <time>2011-05-29T08:45:51Z</time>
      </trkpt>
      <trkpt lat="43.6752" lon="3.67772">
        <ele>287.2</ele>
        <time>2011-05-29T08:45:56Z</time>
      </trkpt>
      <trkpt lat="43.67513" lon="3.67768">
        <ele>287.8</ele>
        <time>2011-05-29T08:46:01Z</time>
      </trkpt>
      <trkpt lat="43.67505" lon="3.67763">
        <ele>288.5</ele>
        <time>2011-05-29T08:46:07Z</time>
      </trkpt>
      <trkpt lat="43.67497" lon="3.67759">
        <ele>289.2</ele>
        <time>2011-05-29T08:46:12Z</time>
      </trkpt>
      <trkpt lat="43.6749" lon="3.67756">
        <ele>290.2</ele>
        <time>2011-05-29T08:46:17Z</time>
      </trkpt>
      <trkpt lat="43.67482" lon="3.67752">
        <ele>291.1</ele>
        <time>2011-05-29T08:46:22Z</time>
      </trkpt>
      <trkpt lat="43.67475" lon="3.6775">
        <ele>292.1</ele>
        <time>2011-05-29T08:46:27Z</time>
      </trkpt>
      <trkpt lat="43.67473" lon="3.6775">
        <ele>292.3</ele>
        <time>2011-05-29T08:46:28Z</time>
      </trkpt>
      <trkpt lat="43.67458" lon="3.67747">
        <ele>294.1</ele>
        <time>2011-05-29T08:46:37Z</time>
      </trkpt>
      <trkpt lat="43.6745" lon="3.67747">
        <ele>295</ele>
        <time>2011-05-29T08:46:42Z</time>
      </trkpt>
      <trkpt lat="43.67442" lon="3.67746">
        <ele>295.9</ele>
        <time>2011-05-29T08:46:47Z</time>
      </trkpt>
      <trkpt lat="43.67433" lon="3.67745">
        <ele>296.8</ele>
        <time>2011-05-29T08:46:52Z</time>
      </trkpt>
      <trkpt lat="43.67426" lon="3.67749">
        <ele>297.8</ele>
        <time>2011-05-29T08:46:57Z</time>
      </trkpt>
      <trkpt lat="43.67417" lon="3.67753">
        <ele>299</ele>
        <time>2011-05-29T08:47:02Z</time>
      </trkpt>
      <trkpt lat="43.6741" lon="3.67759">
        <ele>299.6</ele>
        <time>2011-05-29T08:47:07Z</time>
      </trkpt>
      <trkpt lat="43.67403" lon="3.67767">
        <ele>300.2</ele>
        <time>2011-05-29T08:47:12Z</time>
      </trkpt>
      <trkpt lat="43.67397" lon="3.67773">
        <ele>300.8</ele>
        <time>2011-05-29T08:47:17Z</time>
      </trkpt>
      <trkpt lat="43.6739" lon="3.6778">
        <ele>301.6</ele>
        <time>2011-05-29T08:47:22Z</time>
      </trkpt>
      <trkpt lat="43.67383" lon="3.67786">
        <ele>302.5</ele>
        <time>2011-05-29T08:47:26Z</time>
      </trkpt>
      <trkpt lat="43.67376" lon="3.6779">
        <ele>303.3</ele>
        <time>2011-05-29T08:47:29Z</time>
      </trkpt>
      <trkpt lat="43.67373" lon="3.67791">
        <ele>303.6</ele>
        <time>2011-05-29T08:47:30Z</time>
      </trkpt>
      <trkpt lat="43.6736" lon="3.67795">
        <ele>304.9</ele>
        <time>2011-05-29T08:47:35Z</time>
      </trkpt>
      <trkpt lat="43.67354" lon="3.67797">
        <ele>305.6</ele>
        <time>2011-05-29T08:47:37Z</time>
      </trkpt>
      <trkpt lat="43.67346" lon="3.678">
        <ele>306.6</ele>
        <time>2011-05-29T08:47:40Z</time>
      </trkpt>
      <trkpt lat="43.67338" lon="3.67802">
        <ele>307.5</ele>
        <time>2011-05-29T08:47:43Z</time>
      </trkpt>
      <trkpt lat="43.67333" lon="3.67804">
        <ele>308.1</ele>
        <time>2011-05-29T08:47:45Z</time>
      </trkpt>
      <trkpt lat="43.67327" lon="3.67808">
        <ele>308.3</ele>
        <time>2011-05-29T08:47:47Z</time>
      </trkpt>
      <trkpt lat="43.6732" lon="3.67812">
        <ele>308.6</ele>
        <time>2011-05-29T08:47:49Z</time>
      </trkpt>
      <trkpt lat="43.67314" lon="3.67817">
        <ele>308.9</ele>
        <time>2011-05-29T08:47:51Z</time>
      </trkpt>
      <trkpt lat="43.67308" lon="3.67821">
        <ele>309.2</ele>
        <time>2011-05-29T08:47:53Z</time>
      </trkpt>
      <trkpt lat="43.67302" lon="3.67826">
        <ele>309.6</ele>
        <time>2011-05-29T08:47:55Z</time>
      </trkpt>
      <trkpt lat="43.67295" lon="3.67831">
        <ele>309.9</ele>
        <time>2011-05-29T08:47:57Z</time>
      </trkpt>
      <trkpt lat="43.67289" lon="3.67836">
        <ele>309.9</ele>
        <time>2011-05-29T08:47:59Z</time>
      </trkpt>
      <trkpt lat="43.67283" lon="3.67841">
        <ele>309.8</ele>
        <time>2011-05-29T08:48:01Z</time>
      </trkpt>
      <trkpt lat="43.67276" lon="3.67847">
        <ele>309.5</ele>
        <time>2011-05-29T08:48:04Z</time>
      </trkpt>
      <trkpt lat="43.67269" lon="3.6785">
        <ele>309.2</ele>
        <time>2011-05-29T08:48:07Z</time>
      </trkpt>
      <trkpt lat="43.67261" lon="3.67855">
        <ele>308.9</ele>
        <time>2011-05-29T08:48:52Z</time>
      </trkpt>
      <trkpt lat="43.67261" lon="3.67855">
        <ele>308.8</ele>
        <time>2011-05-29T08:48:53Z</time>
      </trkpt>
      <trkpt lat="43.67251" lon="3.67858">
        <ele>308.3</ele>
        <time>2011-05-29T08:57:24Z</time>
      </trkpt>
      <trkpt lat="43.67237" lon="3.67861">
        <ele>306.2</ele>
        <time>2011-05-29T08:57:30Z</time>
      </trkpt>
      <trkpt lat="43.67231" lon="3.67867">
        <ele>305.4</ele>
        <time>2011-05-29T08:57:32Z</time>
      </trkpt>
      <trkpt lat="43.67224" lon="3.67873">
        <ele>304.6</ele>
        <time>2011-05-29T08:57:34Z</time>
      </trkpt>
      <trkpt lat="43.67218" lon="3.67881">
        <ele>303.9</ele>
        <time>2011-05-29T08:57:36Z</time>
      </trkpt>
      <trkpt lat="43.67211" lon="3.67887">
        <ele>303.1</ele>
        <time>2011-05-29T08:57:38Z</time>
      </trkpt>
      <trkpt lat="43.67204" lon="3.67891">
        <ele>302.4</ele>
        <time>2011-05-29T08:57:40Z</time>
      </trkpt>
      <trkpt lat="43.67197" lon="3.67893">
        <ele>301.5</ele>
        <time>2011-05-29T08:57:42Z</time>
      </trkpt>
      <trkpt lat="43.67193" lon="3.67892">
        <ele>300.8</ele>
        <time>2011-05-29T08:57:43Z</time>
      </trkpt>
      <trkpt lat="43.67188" lon="3.67892">
        <ele>300.1</ele>
        <time>2011-05-29T08:57:44Z</time>
      </trkpt>
      <trkpt lat="43.67182" lon="3.67892">
        <ele>299.4</ele>
        <time>2011-05-29T08:57:45Z</time>
      </trkpt>
      <trkpt lat="43.67177" lon="3.67894">
        <ele>298.7</ele>
        <time>2011-05-29T08:57:46Z</time>
      </trkpt>
      <trkpt lat="43.67171" lon="3.67898">
        <ele>298.2</ele>
        <time>2011-05-29T08:57:47Z</time>
      </trkpt>
      <trkpt lat="43.67165" lon="3.67904">
        <ele>297.9</ele>
        <time>2011-05-29T08:57:48Z</time>
      </trkpt>
      <trkpt lat="43.6716" lon="3.67911">
        <ele>297.8</ele>
        <time>2011-05-29T08:57:49Z</time>
      </trkpt>
      <trkpt lat="43.67154" lon="3.67919">
        <ele>297.4</ele>
        <time>2011-05-29T08:57:50Z</time>
      </trkpt>
      <trkpt lat="43.67148" lon="3.67927">
        <ele>296</ele>
        <time>2011-05-29T08:57:51Z</time>
      </trkpt>
      <trkpt lat="43.67141" lon="3.67935">
        <ele>294.6</ele>
        <time>2011-05-29T08:57:52Z</time>
      </trkpt>
      <trkpt lat="43.67132" lon="3.67942">
        <ele>293.2</ele>
        <time>2011-05-29T08:57:53Z</time>
      </trkpt>
      <trkpt lat="43.67123" lon="3.67948">
        <ele>291.9</ele>
        <time>2011-05-29T08:57:54Z</time>
      </trkpt>
      <trkpt lat="43.67113" lon="3.67953">
        <ele>290.7</ele>
        <time>2011-05-29T08:57:55Z</time>
      </trkpt>
      <trkpt lat="43.67103" lon="3.67957">
        <ele>289.6</ele>
        <time>2011-05-29T08:57:56Z</time>
      </trkpt>
      <trkpt lat="43.67093" lon="3.6796">
        <ele>288.7</ele>
        <time>2011-05-29T08:57:57Z</time>
      </trkpt>
      <trkpt lat="43.67083" lon="3.67963">
        <ele>287.8</ele>
        <time>2011-05-29T08:57:58Z</time>
      </trkpt>
      <trkpt lat="43.67073" lon="3.67965">
        <ele>287.7</ele>
        <time>2011-05-29T08:57:59Z</time>
      </trkpt>
      <trkpt lat="43.67062" lon="3.67967">
        <ele>287.6</ele>
        <time>2011-05-29T08:58:00Z</time>
      </trkpt>
      <trkpt lat="43.67053" lon="3.67969">
        <ele>287.6</ele>
        <time>2011-05-29T08:58:01Z</time>
      </trkpt>
      <trkpt lat="43.67043" lon="3.6797">
        <ele>287.5</ele>
        <time>2011-05-29T08:58:02Z</time>
      </trkpt>
      <trkpt lat="43.67034" lon="3.67972">
        <ele>287.5</ele>
        <time>2011-05-29T08:58:03Z</time>
      </trkpt>
      <trkpt lat="43.67025" lon="3.67973">
        <ele>287.6</ele>
        <time>2011-05-29T08:58:04Z</time>
      </trkpt>
      <trkpt lat="43.67017" lon="3.67975">
        <ele>287.6</ele>
        <time>2011-05-29T08:58:05Z</time>
      </trkpt>
      <trkpt lat="43.6701" lon="3.67978">
        <ele>287.7</ele>
        <time>2011-05-29T08:58:06Z</time>
      </trkpt>
      <trkpt lat="43.67003" lon="3.6798">
        <ele>287.7</ele>
        <time>2011-05-29T08:58:07Z</time>
      </trkpt>
      <trkpt lat="43.66996" lon="3.67982">
        <ele>287.8</ele>
        <time>2011-05-29T08:58:08Z</time>
      </trkpt>
      <trkpt lat="43.66989" lon="3.67985">
        <ele>287.8</ele>
        <time>2011-05-29T08:58:09Z</time>
      </trkpt>
      <trkpt lat="43.66983" lon="3.67986">
        <ele>287.8</ele>
        <time>2011-05-29T08:58:10Z</time>
      </trkpt>
      <trkpt lat="43.66976" lon="3.67988">
        <ele>287.9</ele>
        <time>2011-05-29T08:58:11Z</time>
      </trkpt>
      <trkpt lat="43.66969" lon="3.67988">
        <ele>287.9</ele>
        <time>2011-05-29T08:58:12Z</time>
      </trkpt>
      <trkpt lat="43.66963" lon="3.67987">
        <ele>287.8</ele>
        <time>2011-05-29T08:58:13Z</time>
      </trkpt>
      <trkpt lat="43.66956" lon="3.67986">
        <ele>287.8</ele>
        <time>2011-05-29T08:58:14Z</time>
      </trkpt>
      <trkpt lat="43.6695" lon="3.67985">
        <ele>287.8</ele>
        <time>2011-05-29T08:58:15Z</time>
      </trkpt>
      <trkpt lat="43.66944" lon="3.67983">
        <ele>287.8</ele>
        <time>2011-05-29T08:58:16Z</time>
      </trkpt>
      <trkpt lat="43.66938" lon="3.67982">
        <ele>287.8</ele>
        <time>2011-05-29T08:58:17Z</time>
      </trkpt>
      <trkpt lat="43.66932" lon="3.6798">
        <ele>287.8</ele>
        <time>2011-05-29T08:58:18Z</time>
      </trkpt>
      <trkpt lat="43.66926" lon="3.67978">
        <ele>287.7</ele>
        <time>2011-05-29T08:58:19Z</time>
      </trkpt>
      <trkpt lat="43.6692" lon="3.67976">
        <ele>287.7</ele>
        <time>2011-05-29T08:58:20Z</time>
      </trkpt>
      <trkpt lat="43.66914" lon="3.67974">
        <ele>287.6</ele>
        <time>2011-05-29T08:58:21Z</time>
      </trkpt>
      <trkpt lat="43.66908" lon="3.67971">
        <ele>287.3</ele>
        <time>2011-05-29T08:58:22Z</time>
      </trkpt>
      <trkpt lat="43.66902" lon="3.67968">
        <ele>287.1</ele>
        <time>2011-05-29T08:58:23Z</time>
      </trkpt>
      <trkpt lat="43.66896" lon="3.67965">
        <ele>286.9</ele>
        <time>2011-05-29T08:58:24Z</time>
      </trkpt>
      <trkpt lat="43.6689" lon="3.67961">
        <ele>286.7</ele>
        <time>2011-05-29T08:58:25Z</time>
      </trkpt>
      <trkpt lat="43.66884" lon="3.67958">
        <ele>286.5</ele>
        <time>2011-05-29T08:58:26Z</time>
      </trkpt>
      <trkpt lat="43.66878" lon="3.67954">
        <ele>286.4</ele>
        <time>2011-05-29T08:58:27Z</time>
      </trkpt>
      <trkpt lat="43.66872" lon="3.6795">
        <ele>286.3</ele>
        <time>2011-05-29T08:58:28Z</time>
      </trkpt>
      <trkpt lat="43.66865" lon="3.67947">
        <ele>286.2</ele>
        <time>2011-05-29T08:58:29Z</time>
      </trkpt>
      <trkpt lat="43.66858" lon="3.67944">
        <ele>286.2</ele>
        <time>2011-05-29T08:58:30Z</time>
      </trkpt>
      <trkpt lat="43.66851" lon="3.67942">
        <ele>286.1</ele>
        <time>2011-05-29T08:58:31Z</time>
      </trkpt>
      <trkpt lat="43.66844" lon="3.67941">
        <ele>286</ele>
        <time>2011-05-29T08:58:32Z</time>
      </trkpt>
      <trkpt lat="43.66837" lon="3.67939">
        <ele>286</ele>
        <time>2011-05-29T08:58:33Z</time>
      </trkpt>
      <trkpt lat="43.6683" lon="3.67938">
        <ele>285.7</ele>
        <time>2011-05-29T08:58:34Z</time>
      </trkpt>
      <trkpt lat="43.66823" lon="3.67936">
        <ele>285.3</ele>
        <time>2011-05-29T08:58:35Z</time>
      </trkpt>
      <trkpt lat="43.66816" lon="3.67934">
        <ele>284.9</ele>
        <time>2011-05-29T08:58:36Z</time>
      </trkpt>
      <trkpt lat="43.6681" lon="3.67931">
        <ele>284.6</ele>
        <time>2011-05-29T08:58:37Z</time>
      </trkpt>
      <trkpt lat="43.66803" lon="3.67929">
        <ele>284.4</ele>
        <time>2011-05-29T08:58:38Z</time>
      </trkpt>
      <trkpt lat="43.66796" lon="3.67926">
        <ele>284.3</ele>
        <time>2011-05-29T08:58:39Z</time>
      </trkpt>
      <trkpt lat="43.66789" lon="3.67923">
        <ele>284.2</ele>
        <time>2011-05-29T08:58:40Z</time>
      </trkpt>
      <trkpt lat="43.66782" lon="3.67919">
        <ele>284.2</ele>
        <time>2011-05-29T08:58:41Z</time>
      </trkpt>
      <trkpt lat="43.66776" lon="3.67916">
        <ele>284.3</ele>
        <time>2011-05-29T08:58:42Z</time>
      </trkpt>
      <trkpt lat="43.66769" lon="3.67913">
        <ele>284.2</ele>
        <time>2011-05-29T08:58:43Z</time>
      </trkpt>
      <trkpt lat="43.66762" lon="3.6791">
        <ele>284.2</ele>
        <time>2011-05-29T08:58:44Z</time>
      </trkpt>
      <trkpt lat="43.66756" lon="3.67908">
        <ele>284.1</ele>
        <time>2011-05-29T08:58:45Z</time>
      </trkpt>
      <trkpt lat="43.66749" lon="3.67906">
        <ele>284</ele>
        <time>2011-05-29T08:58:46Z</time>
      </trkpt>
      <trkpt lat="43.66741" lon="3.67905">
        <ele>283.5</ele>
        <time>2011-05-29T08:58:47Z</time>
      </trkpt>
      <trkpt lat="43.66734" lon="3.67903">
        <ele>283.1</ele>
        <time>2011-05-29T08:58:48Z</time>
      </trkpt>
      <trkpt lat="43.66727" lon="3.67902">
        <ele>282.6</ele>
        <time>2011-05-29T08:58:49Z</time>
      </trkpt>
      <trkpt lat="43.6672" lon="3.67901">
        <ele>282.1</ele>
        <time>2011-05-29T08:58:50Z</time>
      </trkpt>
      <trkpt lat="43.66712" lon="3.67901">
        <ele>281.5</ele>
        <time>2011-05-29T08:58:51Z</time>
      </trkpt>
      <trkpt lat="43.66704" lon="3.67901">
        <ele>280.8</ele>
        <time>2011-05-29T08:58:52Z</time>
      </trkpt>
      <trkpt lat="43.66696" lon="3.67902">
        <ele>280</ele>
        <time>2011-05-29T08:58:53Z</time>
      </trkpt>
      <trkpt lat="43.66687" lon="3.67903">
        <ele>279</ele>
        <time>2011-05-29T08:58:54Z</time>
      </trkpt>
      <trkpt lat="43.66678" lon="3.67906">
        <ele>277.8</ele>
        <time>2011-05-29T08:58:55Z</time>
      </trkpt>
      <trkpt lat="43.66669" lon="3.67909">
        <ele>276.5</ele>
        <time>2011-05-29T08:58:56Z</time>
      </trkpt>
      <trkpt lat="43.66658" lon="3.67912">
        <ele>275.6</ele>
        <time>2011-05-29T08:58:57Z</time>
      </trkpt>
      <trkpt lat="43.66648" lon="3.67914">
        <ele>275</ele>
        <time>2011-05-29T08:58:58Z</time>
      </trkpt>
      <trkpt lat="43.66636" lon="3.67915">
        <ele>274.5</ele>
        <time>2011-05-29T08:58:59Z</time>
      </trkpt>
      <trkpt lat="43.66625" lon="3.67916">
        <ele>274.1</ele>
        <time>2011-05-29T08:59:00Z</time>
      </trkpt>
      <trkpt lat="43.66614" lon="3.67917">
        <ele>273.6</ele>
        <time>2011-05-29T08:59:01Z</time>
      </trkpt>
      <trkpt lat="43.66602" lon="3.67918">
        <ele>273.1</ele>
        <time>2011-05-29T08:59:02Z</time>
      </trkpt>
      <trkpt lat="43.66591" lon="3.67918">
        <ele>272.8</ele>
        <time>2011-05-29T08:59:03Z</time>
      </trkpt>
      <trkpt lat="43.6658" lon="3.67918">
        <ele>272.6</ele>
        <time>2011-05-29T08:59:04Z</time>
      </trkpt>
      <trkpt lat="43.66569" lon="3.67918">
        <ele>272.8</ele>
        <time>2011-05-29T08:59:05Z</time>
      </trkpt>
      <trkpt lat="43.66557" lon="3.67919">
        <ele>272.8</ele>
        <time>2011-05-29T08:59:06Z</time>
      </trkpt>
      <trkpt lat="43.66546" lon="3.6792">
        <ele>272.8</ele>
        <time>2011-05-29T08:59:07Z</time>
      </trkpt>
      <trkpt lat="43.66535" lon="3.67921">
        <ele>272.8</ele>
        <time>2011-05-29T08:59:08Z</time>
      </trkpt>
      <trkpt lat="43.66525" lon="3.67921">
        <ele>272.8</ele>
        <time>2011-05-29T08:59:09Z</time>
      </trkpt>
      <trkpt lat="43.66515" lon="3.67922">
        <ele>272.9</ele>
        <time>2011-05-29T08:59:10Z</time>
      </trkpt>
      <trkpt lat="43.66506" lon="3.6792">
        <ele>273.4</ele>
        <time>2011-05-29T08:59:11Z</time>
      </trkpt>
      <trkpt lat="43.66498" lon="3.67916">
        <ele>273.8</ele>
        <time>2011-05-29T08:59:12Z</time>
      </trkpt>
      <trkpt lat="43.6649" lon="3.67911">
        <ele>273.3</ele>
        <time>2011-05-29T08:59:13Z</time>
      </trkpt>
      <trkpt lat="43.66484" lon="3.67906">
        <ele>272.8</ele>
        <time>2011-05-29T08:59:14Z</time>
      </trkpt>
      <trkpt lat="43.66476" lon="3.67902">
        <ele>272.3</ele>
        <time>2011-05-29T08:59:15Z</time>
      </trkpt>
      <trkpt lat="43.66469" lon="3.67896">
        <ele>272</ele>
        <time>2011-05-29T08:59:16Z</time>
      </trkpt>
      <trkpt lat="43.66463" lon="3.6789">
        <ele>271.8</ele>
        <time>2011-05-29T08:59:17Z</time>
      </trkpt>
      <trkpt lat="43.66458" lon="3.67885">
        <ele>271.6</ele>
        <time>2011-05-29T08:59:18Z</time>
      </trkpt>
      <trkpt lat="43.66453" lon="3.67879">
        <ele>271.5</ele>
        <time>2011-05-29T08:59:19Z</time>
      </trkpt>
      <trkpt lat="43.66448" lon="3.67873">
        <ele>271.5</ele>
        <time>2011-05-29T08:59:20Z</time>
      </trkpt>
      <trkpt lat="43.66444" lon="3.67866">
        <ele>271.5</ele>
        <time>2011-05-29T08:59:21Z</time>
      </trkpt>
      <trkpt lat="43.6644" lon="3.6786">
        <ele>271.6</ele>
        <time>2011-05-29T08:59:22Z</time>
      </trkpt>
      <trkpt lat="43.66436" lon="3.67853">
        <ele>271.7</ele>
        <time>2011-05-29T08:59:23Z</time>
      </trkpt>
      <trkpt lat="43.66431" lon="3.67847">
        <ele>271.8</ele>
        <time>2011-05-29T08:59:24Z</time>
      </trkpt>
      <trkpt lat="43.66427" lon="3.67842">
        <ele>271.9</ele>
        <time>2011-05-29T08:59:25Z</time>
      </trkpt>
      <trkpt lat="43.66423" lon="3.67836">
        <ele>272</ele>
        <time>2011-05-29T08:59:26Z</time>
      </trkpt>
      <trkpt lat="43.66418" lon="3.67832">
        <ele>272</ele>
        <time>2011-05-29T08:59:27Z</time>
      </trkpt>
      <trkpt lat="43.66414" lon="3.67829">
        <ele>271.9</ele>
        <time>2011-05-29T08:59:28Z</time>
      </trkpt>
      <trkpt lat="43.66409" lon="3.67826">
        <ele>271.8</ele>
        <time>2011-05-29T08:59:29Z</time>
      </trkpt>
      <trkpt lat="43.66404" lon="3.67824">
        <ele>271.6</ele>
        <time>2011-05-29T08:59:30Z</time>
      </trkpt>
      <trkpt lat="43.66399" lon="3.67821">
        <ele>271.6</ele>
        <time>2011-05-29T08:59:31Z</time>
      </trkpt>
      <trkpt lat="43.66394" lon="3.67819">
        <ele>271.5</ele>
        <time>2011-05-29T08:59:32Z</time>
      </trkpt>
      <trkpt lat="43.66389" lon="3.67817">
        <ele>271.4</ele>
        <time>2011-05-29T08:59:33Z</time>
      </trkpt>
      <trkpt lat="43.66384" lon="3.67815">
        <ele>271.3</ele>
        <time>2011-05-29T08:59:34Z</time>
      </trkpt>
      <trkpt lat="43.6638" lon="3.67814">
        <ele>271.3</ele>
        <time>2011-05-29T08:59:35Z</time>
      </trkpt>
      <trkpt lat="43.66375" lon="3.67812">
        <ele>271.3</ele>
        <time>2011-05-29T08:59:36Z</time>
      </trkpt>
      <trkpt lat="43.6637" lon="3.67811">
        <ele>271.2</ele>
        <time>2011-05-29T08:59:37Z</time>
      </trkpt>
      <trkpt lat="43.66366" lon="3.6781">
        <ele>271.2</ele>
        <time>2011-05-29T08:59:38Z</time>
      </trkpt>
      <trkpt lat="43.66361" lon="3.67809">
        <ele>271.1</ele>
        <time>2011-05-29T08:59:39Z</time>
      </trkpt>
      <trkpt lat="43.66356" lon="3.67808">
        <ele>271.1</ele>
        <time>2011-05-29T08:59:40Z</time>
      </trkpt>
      <trkpt lat="43.66352" lon="3.67807">
        <ele>271.1</ele>
        <time>2011-05-29T08:59:41Z</time>
      </trkpt>
      <trkpt lat="43.66347" lon="3.67806">
        <ele>271.1</ele>
        <time>2011-05-29T08:59:42Z</time>
      </trkpt>
      <trkpt lat="43.66343" lon="3.67805">
        <ele>271.1</ele>
        <time>2011-05-29T08:59:43Z</time>
      </trkpt>
      <trkpt lat="43.66338" lon="3.67803">
        <ele>271.1</ele>
        <time>2011-05-29T08:59:44Z</time>
      </trkpt>
      <trkpt lat="43.66333" lon="3.67801">
        <ele>271.2</ele>
        <time>2011-05-29T08:59:45Z</time>
      </trkpt>
      <trkpt lat="43.66328" lon="3.678">
        <ele>271.3</ele>
        <time>2011-05-29T08:59:46Z</time>
      </trkpt>
      <trkpt lat="43.66324" lon="3.67797">
        <ele>271.5</ele>
        <time>2011-05-29T08:59:47Z</time>
      </trkpt>
      <trkpt lat="43.66319" lon="3.67795">
        <ele>271.6</ele>
        <time>2011-05-29T08:59:48Z</time>
      </trkpt>
      <trkpt lat="43.66315" lon="3.67793">
        <ele>271.8</ele>
        <time>2011-05-29T08:59:49Z</time>
      </trkpt>
      <trkpt lat="43.66307" lon="3.67789">
        <ele>272.1</ele>
        <time>2011-05-29T08:59:51Z</time>
      </trkpt>
      <trkpt lat="43.66299" lon="3.67786">
        <ele>272.4</ele>
        <time>2011-05-29T08:59:53Z</time>
      </trkpt>
      <trkpt lat="43.66292" lon="3.67783">
        <ele>272.6</ele>
        <time>2011-05-29T08:59:55Z</time>
      </trkpt>
      <trkpt lat="43.66286" lon="3.6778">
        <ele>272.9</ele>
        <time>2011-05-29T08:59:57Z</time>
      </trkpt>
      <trkpt lat="43.66279" lon="3.67778">
        <ele>273.1</ele>
        <time>2011-05-29T08:59:59Z</time>
      </trkpt>
      <trkpt lat="43.66272" lon="3.67775">
        <ele>273.3</ele>
        <time>2011-05-29T09:00:01Z</time>
      </trkpt>
      <trkpt lat="43.66264" lon="3.67775">
        <ele>273.5</ele>
        <time>2011-05-29T09:00:03Z</time>
      </trkpt>
      <trkpt lat="43.66257" lon="3.67776">
        <ele>273.6</ele>
        <time>2011-05-29T09:00:05Z</time>
      </trkpt>
      <trkpt lat="43.6625" lon="3.67778">
        <ele>273.7</ele>
        <time>2011-05-29T09:00:07Z</time>
      </trkpt>
      <trkpt lat="43.66243" lon="3.6778">
        <ele>273.7</ele>
        <time>2011-05-29T09:00:09Z</time>
      </trkpt>
      <trkpt lat="43.66237" lon="3.67782">
        <ele>273.8</ele>
        <time>2011-05-29T09:00:11Z</time>
      </trkpt>
      <trkpt lat="43.66231" lon="3.67783">
        <ele>273.9</ele>
        <time>2011-05-29T09:00:13Z</time>
      </trkpt>
      <trkpt lat="43.66223" lon="3.67782">
        <ele>274</ele>
        <time>2011-05-29T09:00:15Z</time>
      </trkpt>
      <trkpt lat="43.66217" lon="3.67782">
        <ele>274.2</ele>
        <time>2011-05-29T09:00:17Z</time>
      </trkpt>
      <trkpt lat="43.66208" lon="3.67782">
        <ele>274.4</ele>
        <time>2011-05-29T09:00:20Z</time>
      </trkpt>
      <trkpt lat="43.66202" lon="3.67781">
        <ele>274.5</ele>
        <time>2011-05-29T09:00:22Z</time>
      </trkpt>
      <trkpt lat="43.66196" lon="3.6778">
        <ele>274.7</ele>
        <time>2011-05-29T09:00:24Z</time>
      </trkpt>
      <trkpt lat="43.6619" lon="3.67778">
        <ele>274.9</ele>
        <time>2011-05-29T09:00:26Z</time>
      </trkpt>
      <trkpt lat="43.66186" lon="3.67777">
        <ele>275</ele>
        <time>2011-05-29T09:00:27Z</time>
      </trkpt>
      <trkpt lat="43.66176" lon="3.67773">
        <ele>275.3</ele>
        <time>2011-05-29T09:00:30Z</time>
      </trkpt>
      <trkpt lat="43.66169" lon="3.6777">
        <ele>275.5</ele>
        <time>2011-05-29T09:00:32Z</time>
      </trkpt>
      <trkpt lat="43.66161" lon="3.67767">
        <ele>275.3</ele>
        <time>2011-05-29T09:00:34Z</time>
      </trkpt>
      <trkpt lat="43.66153" lon="3.67764">
        <ele>274.9</ele>
        <time>2011-05-29T09:00:36Z</time>
      </trkpt>
      <trkpt lat="43.66145" lon="3.67762">
        <ele>274.4</ele>
        <time>2011-05-29T09:00:38Z</time>
      </trkpt>
      <trkpt lat="43.6614" lon="3.67761">
        <ele>274.1</ele>
        <time>2011-05-29T09:00:39Z</time>
      </trkpt>
      <trkpt lat="43.66136" lon="3.67762">
        <ele>273.8</ele>
        <time>2011-05-29T09:00:40Z</time>
      </trkpt>
      <trkpt lat="43.66131" lon="3.67763">
        <ele>273.6</ele>
        <time>2011-05-29T09:00:41Z</time>
      </trkpt>
      <trkpt lat="43.66126" lon="3.67765">
        <ele>273.3</ele>
        <time>2011-05-29T09:00:42Z</time>
      </trkpt>
      <trkpt lat="43.66121" lon="3.67767">
        <ele>273.1</ele>
        <time>2011-05-29T09:00:43Z</time>
      </trkpt>
      <trkpt lat="43.66116" lon="3.67769">
        <ele>272.9</ele>
        <time>2011-05-29T09:00:44Z</time>
      </trkpt>
      <trkpt lat="43.66111" lon="3.67772">
        <ele>272.7</ele>
        <time>2011-05-29T09:00:45Z</time>
      </trkpt>
      <trkpt lat="43.66106" lon="3.67775">
        <ele>272.5</ele>
        <time>2011-05-29T09:00:46Z</time>
      </trkpt>
      <trkpt lat="43.661" lon="3.67778">
        <ele>272.4</ele>
        <time>2011-05-29T09:00:47Z</time>
      </trkpt>
      <trkpt lat="43.66095" lon="3.67781">
        <ele>272.3</ele>
        <time>2011-05-29T09:00:48Z</time>
      </trkpt>
      <trkpt lat="43.6609" lon="3.67784">
        <ele>272.3</ele>
        <time>2011-05-29T09:00:49Z</time>
      </trkpt>
      <trkpt lat="43.66084" lon="3.67786">
        <ele>272.2</ele>
        <time>2011-05-29T09:00:50Z</time>
      </trkpt>
      <trkpt lat="43.66079" lon="3.67788">
        <ele>272.5</ele>
        <time>2011-05-29T09:00:51Z</time>
      </trkpt>
      <trkpt lat="43.66074" lon="3.67791">
        <ele>273</ele>
        <time>2011-05-29T09:00:52Z</time>
      </trkpt>
      <trkpt lat="43.66068" lon="3.67792">
        <ele>273.4</ele>
        <time>2011-05-29T09:00:53Z</time>
      </trkpt>
      <trkpt lat="43.66062" lon="3.67793">
        <ele>273.7</ele>
        <time>2011-05-29T09:00:54Z</time>
      </trkpt>
      <trkpt lat="43.66056" lon="3.67793">
        <ele>274</ele>
        <time>2011-05-29T09:00:55Z</time>
      </trkpt>
      <trkpt lat="43.66051" lon="3.67794">
        <ele>274.4</ele>
        <time>2011-05-29T09:00:56Z</time>
      </trkpt>
      <trkpt lat="43.66045" lon="3.67795">
        <ele>274.8</ele>
        <time>2011-05-29T09:00:57Z</time>
      </trkpt>
      <trkpt lat="43.66039" lon="3.67795">
        <ele>275.1</ele>
        <time>2011-05-29T09:00:58Z</time>
      </trkpt>
      <trkpt lat="43.66034" lon="3.67796">
        <ele>275.5</ele>
        <time>2011-05-29T09:00:59Z</time>
      </trkpt>
      <trkpt lat="43.66028" lon="3.67796">
        <ele>275.8</ele>
        <time>2011-05-29T09:01:00Z</time>
      </trkpt>
      <trkpt lat="43.66022" lon="3.67796">
        <ele>276.1</ele>
        <time>2011-05-29T09:01:01Z</time>
      </trkpt>
      <trkpt lat="43.66017" lon="3.67795">
        <ele>276.4</ele>
        <time>2011-05-29T09:01:02Z</time>
      </trkpt>
      <trkpt lat="43.66011" lon="3.67794">
        <ele>276.5</ele>
        <time>2011-05-29T09:01:03Z</time>
      </trkpt>
      <trkpt lat="43.66006" lon="3.67791">
        <ele>276.6</ele>
        <time>2011-05-29T09:01:04Z</time>
      </trkpt>
      <trkpt lat="43.66001" lon="3.67788">
        <ele>276.6</ele>
        <time>2011-05-29T09:01:05Z</time>
      </trkpt>
      <trkpt lat="43.65997" lon="3.67783">
        <ele>276.6</ele>
        <time>2011-05-29T09:01:06Z</time>
      </trkpt>
      <trkpt lat="43.65993" lon="3.67778">
        <ele>276.6</ele>
        <time>2011-05-29T09:01:07Z</time>
      </trkpt>
      <trkpt lat="43.65989" lon="3.67773">
        <ele>276.6</ele>
        <time>2011-05-29T09:01:08Z</time>
      </trkpt>
      <trkpt lat="43.65983" lon="3.67765">
        <ele>276.6</ele>
        <time>2011-05-29T09:01:10Z</time>
      </trkpt>
      <trkpt lat="43.65977" lon="3.67759">
        <ele>276.8</ele>
        <time>2011-05-29T09:01:12Z</time>
      </trkpt>
      <trkpt lat="43.65971" lon="3.67754">
        <ele>277.1</ele>
        <time>2011-05-29T09:01:14Z</time>
      </trkpt>
      <trkpt lat="43.65965" lon="3.6775">
        <ele>277.4</ele>
        <time>2011-05-29T09:01:16Z</time>
      </trkpt>
      <trkpt lat="43.65959" lon="3.67746">
        <ele>277.9</ele>
        <time>2011-05-29T09:01:18Z</time>
      </trkpt>
      <trkpt lat="43.65953" lon="3.67744">
        <ele>278.4</ele>
        <time>2011-05-29T09:01:20Z</time>
      </trkpt>
      <trkpt lat="43.65946" lon="3.67741">
        <ele>279</ele>
        <time>2011-05-29T09:01:22Z</time>
      </trkpt>
      <trkpt lat="43.65939" lon="3.67739">
        <ele>279.6</ele>
        <time>2011-05-29T09:01:24Z</time>
      </trkpt>
      <trkpt lat="43.65932" lon="3.67737">
        <ele>280.2</ele>
        <time>2011-05-29T09:01:26Z</time>
      </trkpt>
      <trkpt lat="43.65925" lon="3.67736">
        <ele>280.9</ele>
        <time>2011-05-29T09:01:28Z</time>
      </trkpt>
      <trkpt lat="43.65921" lon="3.67735">
        <ele>281.2</ele>
        <time>2011-05-29T09:01:29Z</time>
      </trkpt>
      <trkpt lat="43.6591" lon="3.67734">
        <ele>281.5</ele>
        <time>2011-05-29T09:01:32Z</time>
      </trkpt>
      <trkpt lat="43.65903" lon="3.67734">
        <ele>281.4</ele>
        <time>2011-05-29T09:01:34Z</time>
      </trkpt>
      <trkpt lat="43.65895" lon="3.67735">
        <ele>281.3</ele>
        <time>2011-05-29T09:01:36Z</time>
      </trkpt>
      <trkpt lat="43.65888" lon="3.67736">
        <ele>281.2</ele>
        <time>2011-05-29T09:01:38Z</time>
      </trkpt>
      <trkpt lat="43.65882" lon="3.67737">
        <ele>281.1</ele>
        <time>2011-05-29T09:01:40Z</time>
      </trkpt>
      <trkpt lat="43.65876" lon="3.67739">
        <ele>281.1</ele>
        <time>2011-05-29T09:01:42Z</time>
      </trkpt>
      <trkpt lat="43.65869" lon="3.6774">
        <ele>281.1</ele>
        <time>2011-05-29T09:01:44Z</time>
      </trkpt>
      <trkpt lat="43.65863" lon="3.67741">
        <ele>281</ele>
        <time>2011-05-29T09:01:46Z</time>
      </trkpt>
      <trkpt lat="43.65856" lon="3.67743">
        <ele>281</ele>
        <time>2011-05-29T09:01:48Z</time>
      </trkpt>
      <trkpt lat="43.65849" lon="3.67743">
        <ele>280.9</ele>
        <time>2011-05-29T09:01:50Z</time>
      </trkpt>
      <trkpt lat="43.65842" lon="3.67744">
        <ele>280.8</ele>
        <time>2011-05-29T09:01:52Z</time>
      </trkpt>
      <trkpt lat="43.65833" lon="3.67744">
        <ele>280.7</ele>
        <time>2011-05-29T09:01:54Z</time>
      </trkpt>
      <trkpt lat="43.65829" lon="3.67744">
        <ele>280.3</ele>
        <time>2011-05-29T09:01:55Z</time>
      </trkpt>
      <trkpt lat="43.65824" lon="3.67744">
        <ele>279.9</ele>
        <time>2011-05-29T09:01:56Z</time>
      </trkpt>
      <trkpt lat="43.65818" lon="3.67745">
        <ele>279.5</ele>
        <time>2011-05-29T09:01:57Z</time>
      </trkpt>
      <trkpt lat="43.65813" lon="3.67746">
        <ele>279</ele>
        <time>2011-05-29T09:01:58Z</time>
      </trkpt>
      <trkpt lat="43.65807" lon="3.67746">
        <ele>278.6</ele>
        <time>2011-05-29T09:01:59Z</time>
      </trkpt>
      <trkpt lat="43.65802" lon="3.67747">
        <ele>278.2</ele>
        <time>2011-05-29T09:02:00Z</time>
      </trkpt>
      <trkpt lat="43.65796" lon="3.67749">
        <ele>277.8</ele>
        <time>2011-05-29T09:02:01Z</time>
      </trkpt>
      <trkpt lat="43.6579" lon="3.6775">
        <ele>277.3</ele>
        <time>2011-05-29T09:02:02Z</time>
      </trkpt>
      <trkpt lat="43.65783" lon="3.67752">
        <ele>276.9</ele>
        <time>2011-05-29T09:02:03Z</time>
      </trkpt>
      <trkpt lat="43.65777" lon="3.67754">
        <ele>276.5</ele>
        <time>2011-05-29T09:02:04Z</time>
      </trkpt>
      <trkpt lat="43.65771" lon="3.67756">
        <ele>276.1</ele>
        <time>2011-05-29T09:02:05Z</time>
      </trkpt>
      <trkpt lat="43.65764" lon="3.67758">
        <ele>275.7</ele>
        <time>2011-05-29T09:02:06Z</time>
      </trkpt>
      <trkpt lat="43.65758" lon="3.6776">
        <ele>275.3</ele>
        <time>2011-05-29T09:02:07Z</time>
      </trkpt>
      <trkpt lat="43.65751" lon="3.67762">
        <ele>274.8</ele>
        <time>2011-05-29T09:02:08Z</time>
      </trkpt>
      <trkpt lat="43.65745" lon="3.67764">
        <ele>274.6</ele>
        <time>2011-05-29T09:02:09Z</time>
      </trkpt>
      <trkpt lat="43.65738" lon="3.67766">
        <ele>274.5</ele>
        <time>2011-05-29T09:02:10Z</time>
      </trkpt>
      <trkpt lat="43.65732" lon="3.67768">
        <ele>274.3</ele>
        <time>2011-05-29T09:02:11Z</time>
      </trkpt>
      <trkpt lat="43.65725" lon="3.67771">
        <ele>274.1</ele>
        <time>2011-05-29T09:02:12Z</time>
      </trkpt>
      <trkpt lat="43.65718" lon="3.67774">
        <ele>273.9</ele>
        <time>2011-05-29T09:02:13Z</time>
      </trkpt>
      <trkpt lat="43.65711" lon="3.67777">
        <ele>273.6</ele>
        <time>2011-05-29T09:02:14Z</time>
      </trkpt>
      <trkpt lat="43.65704" lon="3.67779">
        <ele>273.3</ele>
        <time>2011-05-29T09:02:15Z</time>
      </trkpt>
      <trkpt lat="43.65696" lon="3.67781">
        <ele>272.9</ele>
        <time>2011-05-29T09:02:16Z</time>
      </trkpt>
      <trkpt lat="43.65689" lon="3.67782">
        <ele>272.5</ele>
        <time>2011-05-29T09:02:17Z</time>
      </trkpt>
      <trkpt lat="43.65682" lon="3.67782">
        <ele>272.1</ele>
        <time>2011-05-29T09:02:18Z</time>
      </trkpt>
      <trkpt lat="43.65676" lon="3.67782">
        <ele>271.7</ele>
        <time>2011-05-29T09:02:19Z</time>
      </trkpt>
      <trkpt lat="43.6567" lon="3.67781">
        <ele>271.4</ele>
        <time>2011-05-29T09:02:20Z</time>
      </trkpt>
      <trkpt lat="43.65665" lon="3.6778">
        <ele>271.4</ele>
        <time>2011-05-29T09:02:21Z</time>
      </trkpt>
      <trkpt lat="43.6566" lon="3.67778">
        <ele>271.7</ele>
        <time>2011-05-29T09:02:22Z</time>
      </trkpt>
      <trkpt lat="43.65655" lon="3.67776">
        <ele>272</ele>
        <time>2011-05-29T09:02:23Z</time>
      </trkpt>
      <trkpt lat="43.6565" lon="3.67775">
        <ele>272.3</ele>
        <time>2011-05-29T09:02:24Z</time>
      </trkpt>
      <trkpt lat="43.65645" lon="3.67773">
        <ele>272.6</ele>
        <time>2011-05-29T09:02:25Z</time>
      </trkpt>
      <trkpt lat="43.65641" lon="3.67771">
        <ele>272.9</ele>
        <time>2011-05-29T09:02:26Z</time>
      </trkpt>
      <trkpt lat="43.65636" lon="3.67769">
        <ele>273.2</ele>
        <time>2011-05-29T09:02:27Z</time>
      </trkpt>
      <trkpt lat="43.65631" lon="3.67767">
        <ele>273.5</ele>
        <time>2011-05-29T09:02:28Z</time>
      </trkpt>
      <trkpt lat="43.65627" lon="3.67765">
        <ele>273.7</ele>
        <time>2011-05-29T09:02:29Z</time>
      </trkpt>
      <trkpt lat="43.65623" lon="3.67763">
        <ele>274</ele>
        <time>2011-05-29T09:02:30Z</time>
      </trkpt>
      <trkpt lat="43.6561" lon="3.67758">
        <ele>274.6</ele>
        <time>2011-05-29T09:02:33Z</time>
      </trkpt>
      <trkpt lat="43.65602" lon="3.67755">
        <ele>275.1</ele>
        <time>2011-05-29T09:02:35Z</time>
      </trkpt>
      <trkpt lat="43.65594" lon="3.67753">
        <ele>275.5</ele>
        <time>2011-05-29T09:02:37Z</time>
      </trkpt>
      <trkpt lat="43.65587" lon="3.6775">
        <ele>275.8</ele>
        <time>2011-05-29T09:02:39Z</time>
      </trkpt>
      <trkpt lat="43.65579" lon="3.67747">
        <ele>276</ele>
        <time>2011-05-29T09:02:41Z</time>
      </trkpt>
      <trkpt lat="43.65571" lon="3.67743">
        <ele>276.1</ele>
        <time>2011-05-29T09:02:43Z</time>
      </trkpt>
      <trkpt lat="43.65564" lon="3.67739">
        <ele>276.1</ele>
        <time>2011-05-29T09:02:45Z</time>
      </trkpt>
      <trkpt lat="43.65558" lon="3.67735">
        <ele>276</ele>
        <time>2011-05-29T09:02:47Z</time>
      </trkpt>
      <trkpt lat="43.65551" lon="3.6773">
        <ele>275.9</ele>
        <time>2011-05-29T09:02:49Z</time>
      </trkpt>
      <trkpt lat="43.65543" lon="3.67727">
        <ele>275.9</ele>
        <time>2011-05-29T09:02:51Z</time>
      </trkpt>
      <trkpt lat="43.65538" lon="3.67725">
        <ele>275.8</ele>
        <time>2011-05-29T09:02:52Z</time>
      </trkpt>
      <trkpt lat="43.65534" lon="3.67723">
        <ele>275.8</ele>
        <time>2011-05-29T09:02:53Z</time>
      </trkpt>
      <trkpt lat="43.65529" lon="3.67722">
        <ele>275.7</ele>
        <time>2011-05-29T09:02:54Z</time>
      </trkpt>
      <trkpt lat="43.65523" lon="3.67721">
        <ele>275.7</ele>
        <time>2011-05-29T09:02:55Z</time>
      </trkpt>
      <trkpt lat="43.65518" lon="3.6772">
        <ele>275.7</ele>
        <time>2011-05-29T09:02:56Z</time>
      </trkpt>
      <trkpt lat="43.65513" lon="3.67718">
        <ele>275.6</ele>
        <time>2011-05-29T09:02:57Z</time>
      </trkpt>
      <trkpt lat="43.65507" lon="3.67717">
        <ele>275.6</ele>
        <time>2011-05-29T09:02:58Z</time>
      </trkpt>
      <trkpt lat="43.65501" lon="3.67716">
        <ele>275.5</ele>
        <time>2011-05-29T09:02:59Z</time>
      </trkpt>
      <trkpt lat="43.65494" lon="3.67715">
        <ele>274.8</ele>
        <time>2011-05-29T09:03:00Z</time>
      </trkpt>
      <trkpt lat="43.65487" lon="3.67713">
        <ele>274</ele>
        <time>2011-05-29T09:03:01Z</time>
      </trkpt>
      <trkpt lat="43.6548" lon="3.67712">
        <ele>273.1</ele>
        <time>2011-05-29T09:03:02Z</time>
      </trkpt>
      <trkpt lat="43.65472" lon="3.67711">
        <ele>272.2</ele>
        <time>2011-05-29T09:03:03Z</time>
      </trkpt>
      <trkpt lat="43.65463" lon="3.67711">
        <ele>271.3</ele>
        <time>2011-05-29T09:03:04Z</time>
      </trkpt>
      <trkpt lat="43.65455" lon="3.67713">
        <ele>270.5</ele>
        <time>2011-05-29T09:03:05Z</time>
      </trkpt>
      <trkpt lat="43.65446" lon="3.67716">
        <ele>269.7</ele>
        <time>2011-05-29T09:03:06Z</time>
      </trkpt>
      <trkpt lat="43.65437" lon="3.67721">
        <ele>269.1</ele>
        <time>2011-05-29T09:03:07Z</time>
      </trkpt>
      <trkpt lat="43.65429" lon="3.67727">
        <ele>268.6</ele>
        <time>2011-05-29T09:03:08Z</time>
      </trkpt>
      <trkpt lat="43.65421" lon="3.67733">
        <ele>268.2</ele>
        <time>2011-05-29T09:03:09Z</time>
      </trkpt>
      <trkpt lat="43.65413" lon="3.6774">
        <ele>267.9</ele>
        <time>2011-05-29T09:03:10Z</time>
      </trkpt>
      <trkpt lat="43.65404" lon="3.67746">
        <ele>267.5</ele>
        <time>2011-05-29T09:03:11Z</time>
      </trkpt>
      <trkpt lat="43.65396" lon="3.67754">
        <ele>267.1</ele>
        <time>2011-05-29T09:03:12Z</time>
      </trkpt>
      <trkpt lat="43.65388" lon="3.67761">
        <ele>266.3</ele>
        <time>2011-05-29T09:03:13Z</time>
      </trkpt>
      <trkpt lat="43.6538" lon="3.67768">
        <ele>265.6</ele>
        <time>2011-05-29T09:03:14Z</time>
      </trkpt>
      <trkpt lat="43.65373" lon="3.67775">
        <ele>264.9</ele>
        <time>2011-05-29T09:03:15Z</time>
      </trkpt>
      <trkpt lat="43.65366" lon="3.67782">
        <ele>264.2</ele>
        <time>2011-05-29T09:03:16Z</time>
      </trkpt>
      <trkpt lat="43.65361" lon="3.67787">
        <ele>263.6</ele>
        <time>2011-05-29T09:03:17Z</time>
      </trkpt>
      <trkpt lat="43.65356" lon="3.67793">
        <ele>263.1</ele>
        <time>2011-05-29T09:03:18Z</time>
      </trkpt>
      <trkpt lat="43.6535" lon="3.678">
        <ele>262.3</ele>
        <time>2011-05-29T09:03:20Z</time>
      </trkpt>
      <trkpt lat="43.65344" lon="3.67809">
        <ele>261.6</ele>
        <time>2011-05-29T09:03:45Z</time>
      </trkpt>
      <trkpt lat="43.65344" lon="3.6781">
        <ele>261.6</ele>
        <time>2011-05-29T09:03:46Z</time>
      </trkpt>
      <trkpt lat="43.65329" lon="3.67813">
        <ele>260.5</ele>
        <time>2011-05-29T09:04:40Z</time>
      </trkpt>
      <trkpt lat="43.65322" lon="3.6781">
        <ele>260.9</ele>
        <time>2011-05-29T09:04:43Z</time>
      </trkpt>
      <trkpt lat="43.65316" lon="3.67805">
        <ele>261.3</ele>
        <time>2011-05-29T09:04:46Z</time>
      </trkpt>
      <trkpt lat="43.65314" lon="3.67803">
        <ele>261.4</ele>
        <time>2011-05-29T09:04:47Z</time>
      </trkpt>
      <trkpt lat="43.65302" lon="3.67794">
        <ele>262.2</ele>
        <time>2011-05-29T09:04:58Z</time>
      </trkpt>
      <trkpt lat="43.65295" lon="3.67797">
        <ele>262.6</ele>
        <time>2011-05-29T09:05:03Z</time>
      </trkpt>
      <trkpt lat="43.65291" lon="3.67787">
        <ele>262.8</ele>
        <time>2011-05-29T09:05:21Z</time>
      </trkpt>
      <trkpt lat="43.65283" lon="3.67784">
        <ele>263.3</ele>
        <time>2011-05-29T09:05:27Z</time>
      </trkpt>
      <trkpt lat="43.65275" lon="3.67785">
        <ele>263.7</ele>
        <time>2011-05-29T09:05:32Z</time>
      </trkpt>
      <trkpt lat="43.65267" lon="3.67782">
        <ele>264.1</ele>
        <time>2011-05-29T09:05:43Z</time>
      </trkpt>
      <trkpt lat="43.6526" lon="3.67782">
        <ele>264.5</ele>
        <time>2011-05-29T09:05:47Z</time>
      </trkpt>
      <trkpt lat="43.65258" lon="3.67783">
        <ele>264.6</ele>
        <time>2011-05-29T09:05:48Z</time>
      </trkpt>
      <trkpt lat="43.65247" lon="3.6779">
        <ele>265.3</ele>
        <time>2011-05-29T09:05:53Z</time>
      </trkpt>
      <trkpt lat="43.65241" lon="3.67796">
        <ele>265.8</ele>
        <time>2011-05-29T09:05:56Z</time>
      </trkpt>
      <trkpt lat="43.65235" lon="3.67799">
        <ele>266.4</ele>
        <time>2011-05-29T09:05:59Z</time>
      </trkpt>
      <trkpt lat="43.65228" lon="3.67801">
        <ele>267</ele>
        <time>2011-05-29T09:06:02Z</time>
      </trkpt>
      <trkpt lat="43.6522" lon="3.67802">
        <ele>267.7</ele>
        <time>2011-05-29T09:06:05Z</time>
      </trkpt>
      <trkpt lat="43.65213" lon="3.67803">
        <ele>268.4</ele>
        <time>2011-05-29T09:06:08Z</time>
      </trkpt>
      <trkpt lat="43.65205" lon="3.67805">
        <ele>269.1</ele>
        <time>2011-05-29T09:06:11Z</time>
      </trkpt>
      <trkpt lat="43.65197" lon="3.67806">
        <ele>269.9</ele>
        <time>2011-05-29T09:06:14Z</time>
      </trkpt>
      <trkpt lat="43.65189" lon="3.67808">
        <ele>270.7</ele>
        <time>2011-05-29T09:06:17Z</time>
      </trkpt>
      <trkpt lat="43.65181" lon="3.67809">
        <ele>271.5</ele>
        <time>2011-05-29T09:06:20Z</time>
      </trkpt>
      <trkpt lat="43.65172" lon="3.6781">
        <ele>272.4</ele>
        <time>2011-05-29T09:06:23Z</time>
      </trkpt>
      <trkpt lat="43.65164" lon="3.67811">
        <ele>273</ele>
        <time>2011-05-29T09:06:26Z</time>
      </trkpt>
      <trkpt lat="43.65156" lon="3.67813">
        <ele>273.2</ele>
        <time>2011-05-29T09:06:29Z</time>
      </trkpt>
      <trkpt lat="43.6515" lon="3.67814">
        <ele>273.4</ele>
        <time>2011-05-29T09:06:31Z</time>
      </trkpt>
      <trkpt lat="43.65141" lon="3.67814">
        <ele>273.6</ele>
        <time>2011-05-29T09:06:34Z</time>
      </trkpt>
      <trkpt lat="43.65133" lon="3.67812">
        <ele>273.7</ele>
        <time>2011-05-29T09:06:37Z</time>
      </trkpt>
      <trkpt lat="43.65127" lon="3.6781">
        <ele>273.7</ele>
        <time>2011-05-29T09:06:39Z</time>
      </trkpt>
      <trkpt lat="43.65121" lon="3.67807">
        <ele>273.6</ele>
        <time>2011-05-29T09:06:41Z</time>
      </trkpt>
      <trkpt lat="43.65115" lon="3.67803">
        <ele>273.5</ele>
        <time>2011-05-29T09:06:43Z</time>
      </trkpt>
      <trkpt lat="43.65109" lon="3.67799">
        <ele>273.4</ele>
        <time>2011-05-29T09:06:45Z</time>
      </trkpt>
      <trkpt lat="43.65103" lon="3.67795">
        <ele>273.3</ele>
        <time>2011-05-29T09:06:47Z</time>
      </trkpt>
      <trkpt lat="43.65097" lon="3.67789">
        <ele>273.1</ele>
        <time>2011-05-29T09:06:49Z</time>
      </trkpt>
      <trkpt lat="43.65094" lon="3.67786">
        <ele>273</ele>
        <time>2011-05-29T09:06:50Z</time>
      </trkpt>
      <trkpt lat="43.65084" lon="3.67775">
        <ele>272.5</ele>
        <time>2011-05-29T09:06:53Z</time>
      </trkpt>
      <trkpt lat="43.6508" lon="3.67773">
        <ele>272.4</ele>
        <time>2011-05-29T09:06:54Z</time>
      </trkpt>
      <trkpt lat="43.65075" lon="3.6777">
        <ele>272.2</ele>
        <time>2011-05-29T09:06:55Z</time>
      </trkpt>
      <trkpt lat="43.65071" lon="3.67768">
        <ele>272.1</ele>
        <time>2011-05-29T09:06:56Z</time>
      </trkpt>
      <trkpt lat="43.65066" lon="3.67765">
        <ele>272</ele>
        <time>2011-05-29T09:06:57Z</time>
      </trkpt>
      <trkpt lat="43.65061" lon="3.67763">
        <ele>271.9</ele>
        <time>2011-05-29T09:06:58Z</time>
      </trkpt>
      <trkpt lat="43.65056" lon="3.6776">
        <ele>271.7</ele>
        <time>2011-05-29T09:06:59Z</time>
      </trkpt>
      <trkpt lat="43.65051" lon="3.67758">
        <ele>271.5</ele>
        <time>2011-05-29T09:07:00Z</time>
      </trkpt>
      <trkpt lat="43.65046" lon="3.67755">
        <ele>271.4</ele>
        <time>2011-05-29T09:07:01Z</time>
      </trkpt>
      <trkpt lat="43.6504" lon="3.67754">
        <ele>271.3</ele>
        <time>2011-05-29T09:07:02Z</time>
      </trkpt>
      <trkpt lat="43.65035" lon="3.67753">
        <ele>271.2</ele>
        <time>2011-05-29T09:07:03Z</time>
      </trkpt>
      <trkpt lat="43.65029" lon="3.67752">
        <ele>271.1</ele>
        <time>2011-05-29T09:07:04Z</time>
      </trkpt>
      <trkpt lat="43.65023" lon="3.67751">
        <ele>271.1</ele>
        <time>2011-05-29T09:07:05Z</time>
      </trkpt>
      <trkpt lat="43.65017" lon="3.67752">
        <ele>271.2</ele>
        <time>2011-05-29T09:07:06Z</time>
      </trkpt>
      <trkpt lat="43.65011" lon="3.67754">
        <ele>271.3</ele>
        <time>2011-05-29T09:07:07Z</time>
      </trkpt>
      <trkpt lat="43.65006" lon="3.67755">
        <ele>271.4</ele>
        <time>2011-05-29T09:07:08Z</time>
      </trkpt>
      <trkpt lat="43.65" lon="3.67755">
        <ele>271.5</ele>
        <time>2011-05-29T09:07:09Z</time>
      </trkpt>
      <trkpt lat="43.64994" lon="3.67755">
        <ele>271.5</ele>
        <time>2011-05-29T09:07:10Z</time>
      </trkpt>
      <trkpt lat="43.64987" lon="3.67755">
        <ele>271.5</ele>
        <time>2011-05-29T09:07:11Z</time>
      </trkpt>
      <trkpt lat="43.64981" lon="3.67755">
        <ele>271.6</ele>
        <time>2011-05-29T09:07:12Z</time>
      </trkpt>
      <trkpt lat="43.64975" lon="3.67754">
        <ele>271.6</ele>
        <time>2011-05-29T09:07:13Z</time>
      </trkpt>
      <trkpt lat="43.64968" lon="3.67753">
        <ele>271.6</ele>
        <time>2011-05-29T09:07:14Z</time>
      </trkpt>
      <trkpt lat="43.64962" lon="3.67751">
        <ele>271.5</ele>
        <time>2011-05-29T09:07:15Z</time>
      </trkpt>
      <trkpt lat="43.64956" lon="3.67748">
        <ele>271.4</ele>
        <time>2011-05-29T09:07:16Z</time>
      </trkpt>
      <trkpt lat="43.6495" lon="3.67745">
        <ele>271.2</ele>
        <time>2011-05-29T09:07:17Z</time>
      </trkpt>
      <trkpt lat="43.64944" lon="3.67741">
        <ele>270.9</ele>
        <time>2011-05-29T09:07:18Z</time>
      </trkpt>
      <trkpt lat="43.64938" lon="3.67736">
        <ele>270.5</ele>
        <time>2011-05-29T09:07:19Z</time>
      </trkpt>
      <trkpt lat="43.64933" lon="3.6773">
        <ele>270.1</ele>
        <time>2011-05-29T09:07:20Z</time>
      </trkpt>
      <trkpt lat="43.64928" lon="3.67724">
        <ele>269.7</ele>
        <time>2011-05-29T09:07:21Z</time>
      </trkpt>
      <trkpt lat="43.64923" lon="3.67718">
        <ele>269.2</ele>
        <time>2011-05-29T09:07:22Z</time>
      </trkpt>
      <trkpt lat="43.64919" lon="3.67712">
        <ele>268.8</ele>
        <time>2011-05-29T09:07:23Z</time>
      </trkpt>
      <trkpt lat="43.64914" lon="3.67706">
        <ele>268.3</ele>
        <time>2011-05-29T09:07:24Z</time>
      </trkpt>
      <trkpt lat="43.64908" lon="3.67702">
        <ele>267.8</ele>
        <time>2011-05-29T09:07:25Z</time>
      </trkpt>
      <trkpt lat="43.64903" lon="3.67697">
        <ele>267.4</ele>
        <time>2011-05-29T09:07:26Z</time>
      </trkpt>
      <trkpt lat="43.64896" lon="3.67693">
        <ele>267.1</ele>
        <time>2011-05-29T09:07:27Z</time>
      </trkpt>
      <trkpt lat="43.6489" lon="3.6769">
        <ele>266.7</ele>
        <time>2011-05-29T09:07:28Z</time>
      </trkpt>
      <trkpt lat="43.64884" lon="3.67686">
        <ele>266.4</ele>
        <time>2011-05-29T09:07:29Z</time>
      </trkpt>
      <trkpt lat="43.64877" lon="3.67682">
        <ele>266.1</ele>
        <time>2011-05-29T09:07:30Z</time>
      </trkpt>
      <trkpt lat="43.64871" lon="3.67679">
        <ele>265.9</ele>
        <time>2011-05-29T09:07:31Z</time>
      </trkpt>
      <trkpt lat="43.64864" lon="3.67676">
        <ele>265.7</ele>
        <time>2011-05-29T09:07:32Z</time>
      </trkpt>
      <trkpt lat="43.64858" lon="3.67675">
        <ele>265.5</ele>
        <time>2011-05-29T09:07:33Z</time>
      </trkpt>
      <trkpt lat="43.64851" lon="3.67674">
        <ele>265.5</ele>
        <time>2011-05-29T09:07:34Z</time>
      </trkpt>
      <trkpt lat="43.64845" lon="3.67671">
        <ele>265.3</ele>
        <time>2011-05-29T09:07:35Z</time>
      </trkpt>
      <trkpt lat="43.64839" lon="3.67667">
        <ele>265</ele>
        <time>2011-05-29T09:07:36Z</time>
      </trkpt>
      <trkpt lat="43.64833" lon="3.67663">
        <ele>264.9</ele>
        <time>2011-05-29T09:07:37Z</time>
      </trkpt>
      <trkpt lat="43.64826" lon="3.67661">
        <ele>264.8</ele>
        <time>2011-05-29T09:07:38Z</time>
      </trkpt>
      <trkpt lat="43.6482" lon="3.6766">
        <ele>264.7</ele>
        <time>2011-05-29T09:07:39Z</time>
      </trkpt>
      <trkpt lat="43.64814" lon="3.67659">
        <ele>264.6</ele>
        <time>2011-05-29T09:07:40Z</time>
      </trkpt>
      <trkpt lat="43.64807" lon="3.67657">
        <ele>264.5</ele>
        <time>2011-05-29T09:07:41Z</time>
      </trkpt>
      <trkpt lat="43.64801" lon="3.67654">
        <ele>264.4</ele>
        <time>2011-05-29T09:07:42Z</time>
      </trkpt>
      <trkpt lat="43.64794" lon="3.67651">
        <ele>264.2</ele>
        <time>2011-05-29T09:07:43Z</time>
      </trkpt>
      <trkpt lat="43.64788" lon="3.67647">
        <ele>263.9</ele>
        <time>2011-05-29T09:07:44Z</time>
      </trkpt>
      <trkpt lat="43.64782" lon="3.67642">
        <ele>263.6</ele>
        <time>2011-05-29T09:07:45Z</time>
      </trkpt>
      <trkpt lat="43.64777" lon="3.67638">
        <ele>263.3</ele>
        <time>2011-05-29T09:07:46Z</time>
      </trkpt>
      <trkpt lat="43.6477" lon="3.67632">
        <ele>262.8</ele>
        <time>2011-05-29T09:07:48Z</time>
      </trkpt>
      <trkpt lat="43.64768" lon="3.67622">
        <ele>262.1</ele>
        <time>2011-05-29T09:07:52Z</time>
      </trkpt>
      <trkpt lat="43.64769" lon="3.6762">
        <ele>262</ele>
        <time>2011-05-29T09:07:53Z</time>
      </trkpt>
      <trkpt lat="43.64768" lon="3.676">
        <ele>260.7</ele>
        <time>2011-05-29T09:08:01Z</time>
      </trkpt>
      <trkpt lat="43.64764" lon="3.67591">
        <ele>260</ele>
        <time>2011-05-29T09:08:04Z</time>
      </trkpt>
      <trkpt lat="43.64758" lon="3.67583">
        <ele>259.3</ele>
        <time>2011-05-29T09:08:09Z</time>
      </trkpt>
      <trkpt lat="43.64751" lon="3.67575">
        <ele>258.5</ele>
        <time>2011-05-29T09:08:18Z</time>
      </trkpt>
      <trkpt lat="43.64746" lon="3.67566">
        <ele>257.7</ele>
        <time>2011-05-29T09:08:51Z</time>
      </trkpt>
      <trkpt lat="43.64737" lon="3.67568">
        <ele>257.3</ele>
        <time>2011-05-29T09:09:02Z</time>
      </trkpt>
      <trkpt lat="43.64736" lon="3.67569">
        <ele>257.3</ele>
        <time>2011-05-29T09:09:03Z</time>
      </trkpt>
      <trkpt lat="43.64725" lon="3.67581">
        <ele>257.3</ele>
        <time>2011-05-29T09:09:12Z</time>
      </trkpt>
      <trkpt lat="43.64717" lon="3.67587">
        <ele>257.3</ele>
        <time>2011-05-29T09:09:15Z</time>
      </trkpt>
      <trkpt lat="43.64711" lon="3.67592">
        <ele>257.3</ele>
        <time>2011-05-29T09:09:17Z</time>
      </trkpt>
      <trkpt lat="43.64704" lon="3.67596">
        <ele>257.2</ele>
        <time>2011-05-29T09:09:19Z</time>
      </trkpt>
      <trkpt lat="43.64696" lon="3.67599">
        <ele>257</ele>
        <time>2011-05-29T09:09:21Z</time>
      </trkpt>
      <trkpt lat="43.64688" lon="3.67602">
        <ele>256.8</ele>
        <time>2011-05-29T09:09:23Z</time>
      </trkpt>
      <trkpt lat="43.6468" lon="3.67605">
        <ele>256.6</ele>
        <time>2011-05-29T09:09:25Z</time>
      </trkpt>
      <trkpt lat="43.64672" lon="3.67608">
        <ele>256.3</ele>
        <time>2011-05-29T09:09:27Z</time>
      </trkpt>
      <trkpt lat="43.64664" lon="3.6761">
        <ele>256.3</ele>
        <time>2011-05-29T09:09:29Z</time>
      </trkpt>
      <trkpt lat="43.64656" lon="3.67612">
        <ele>256.5</ele>
        <time>2011-05-29T09:09:31Z</time>
      </trkpt>
      <trkpt lat="43.6465" lon="3.67614">
        <ele>256.7</ele>
        <time>2011-05-29T09:09:33Z</time>
      </trkpt>
      <trkpt lat="43.64643" lon="3.67615">
        <ele>256.9</ele>
        <time>2011-05-29T09:09:35Z</time>
      </trkpt>
      <trkpt lat="43.64637" lon="3.67617">
        <ele>257</ele>
        <time>2011-05-29T09:09:37Z</time>
      </trkpt>
      <trkpt lat="43.6463" lon="3.67618">
        <ele>257.2</ele>
        <time>2011-05-29T09:09:39Z</time>
      </trkpt>
      <trkpt lat="43.64624" lon="3.6762">
        <ele>257.4</ele>
        <time>2011-05-29T09:09:41Z</time>
      </trkpt>
      <trkpt lat="43.64618" lon="3.67622">
        <ele>257.5</ele>
        <time>2011-05-29T09:09:43Z</time>
      </trkpt>
      <trkpt lat="43.64612" lon="3.67623">
        <ele>257.7</ele>
        <time>2011-05-29T09:09:45Z</time>
      </trkpt>
      <trkpt lat="43.64606" lon="3.67624">
        <ele>257.8</ele>
        <time>2011-05-29T09:09:47Z</time>
      </trkpt>
      <trkpt lat="43.64597" lon="3.67627">
        <ele>258</ele>
        <time>2011-05-29T09:09:50Z</time>
      </trkpt>
      <trkpt lat="43.64591" lon="3.67628">
        <ele>258.2</ele>
        <time>2011-05-29T09:09:52Z</time>
      </trkpt>
      <trkpt lat="43.64583" lon="3.67629">
        <ele>258.3</ele>
        <time>2011-05-29T09:09:54Z</time>
      </trkpt>
      <trkpt lat="43.64579" lon="3.67631">
        <ele>258.5</ele>
        <time>2011-05-29T09:09:55Z</time>
      </trkpt>
      <trkpt lat="43.64574" lon="3.67632">
        <ele>258.8</ele>
        <time>2011-05-29T09:09:56Z</time>
      </trkpt>
      <trkpt lat="43.64565" lon="3.67635">
        <ele>259.2</ele>
        <time>2011-05-29T09:09:58Z</time>
      </trkpt>
      <trkpt lat="43.64561" lon="3.67636">
        <ele>259.4</ele>
        <time>2011-05-29T09:09:59Z</time>
      </trkpt>
      <trkpt lat="43.64556" lon="3.67637">
        <ele>259.6</ele>
        <time>2011-05-29T09:10:00Z</time>
      </trkpt>
      <trkpt lat="43.64551" lon="3.67638">
        <ele>259.9</ele>
        <time>2011-05-29T09:10:01Z</time>
      </trkpt>
      <trkpt lat="43.64546" lon="3.6764">
        <ele>260.1</ele>
        <time>2011-05-29T09:10:02Z</time>
      </trkpt>
      <trkpt lat="43.64541" lon="3.67641">
        <ele>260.3</ele>
        <time>2011-05-29T09:10:03Z</time>
      </trkpt>
      <trkpt lat="43.64537" lon="3.67643">
        <ele>260.6</ele>
        <time>2011-05-29T09:10:04Z</time>
      </trkpt>
      <trkpt lat="43.64532" lon="3.67645">
        <ele>260.8</ele>
        <time>2011-05-29T09:10:05Z</time>
      </trkpt>
      <trkpt lat="43.64527" lon="3.67646">
        <ele>261.1</ele>
        <time>2011-05-29T09:10:06Z</time>
      </trkpt>
      <trkpt lat="43.64521" lon="3.67647">
        <ele>261.3</ele>
        <time>2011-05-29T09:10:07Z</time>
      </trkpt>
      <trkpt lat="43.64516" lon="3.67648">
        <ele>261.4</ele>
        <time>2011-05-29T09:10:08Z</time>
      </trkpt>
      <trkpt lat="43.6451" lon="3.67649">
        <ele>261.7</ele>
        <time>2011-05-29T09:10:09Z</time>
      </trkpt>
      <trkpt lat="43.64505" lon="3.67651">
        <ele>261.9</ele>
        <time>2011-05-29T09:10:10Z</time>
      </trkpt>
      <trkpt lat="43.645" lon="3.67653">
        <ele>262.2</ele>
        <time>2011-05-29T09:10:11Z</time>
      </trkpt>
      <trkpt lat="43.64495" lon="3.67654">
        <ele>262.4</ele>
        <time>2011-05-29T09:10:12Z</time>
      </trkpt>
      <trkpt lat="43.64486" lon="3.67657">
        <ele>262.8</ele>
        <time>2011-05-29T09:10:14Z</time>
      </trkpt>
      <trkpt lat="43.64478" lon="3.67659">
        <ele>263.1</ele>
        <time>2011-05-29T09:10:16Z</time>
      </trkpt>
      <trkpt lat="43.64474" lon="3.6766">
        <ele>263.3</ele>
        <time>2011-05-29T09:10:17Z</time>
      </trkpt>
      <trkpt lat="43.64469" lon="3.67661">
        <ele>263.4</ele>
        <time>2011-05-29T09:10:18Z</time>
      </trkpt>
      <trkpt lat="43.64463" lon="3.67661">
        <ele>263.6</ele>
        <time>2011-05-29T09:10:19Z</time>
      </trkpt>
      <trkpt lat="43.64458" lon="3.67663">
        <ele>263.8</ele>
        <time>2011-05-29T09:10:20Z</time>
      </trkpt>
      <trkpt lat="43.64453" lon="3.67664">
        <ele>264</ele>
        <time>2011-05-29T09:10:21Z</time>
      </trkpt>
      <trkpt lat="43.64448" lon="3.67665">
        <ele>264.2</ele>
        <time>2011-05-29T09:10:22Z</time>
      </trkpt>
      <trkpt lat="43.64443" lon="3.67666">
        <ele>264.3</ele>
        <time>2011-05-29T09:10:23Z</time>
      </trkpt>
      <trkpt lat="43.64438" lon="3.67667">
        <ele>264.5</ele>
        <time>2011-05-29T09:10:24Z</time>
      </trkpt>
      <trkpt lat="43.64433" lon="3.67668">
        <ele>264.6</ele>
        <time>2011-05-29T09:10:25Z</time>
      </trkpt>
      <trkpt lat="43.64429" lon="3.67669">
        <ele>264.7</ele>
        <time>2011-05-29T09:10:26Z</time>
      </trkpt>
      <trkpt lat="43.6442" lon="3.67669">
        <ele>264.9</ele>
        <time>2011-05-29T09:10:28Z</time>
      </trkpt>
      <trkpt lat="43.64411" lon="3.67669">
        <ele>265.2</ele>
        <time>2011-05-29T09:10:30Z</time>
      </trkpt>
      <trkpt lat="43.64403" lon="3.6767">
        <ele>265.5</ele>
        <time>2011-05-29T09:10:32Z</time>
      </trkpt>
      <trkpt lat="43.64396" lon="3.6767">
        <ele>265.8</ele>
        <time>2011-05-29T09:10:34Z</time>
      </trkpt>
      <trkpt lat="43.64388" lon="3.67669">
        <ele>266.1</ele>
        <time>2011-05-29T09:10:36Z</time>
      </trkpt>
      <trkpt lat="43.64381" lon="3.67669">
        <ele>266.3</ele>
        <time>2011-05-29T09:10:38Z</time>
      </trkpt>
      <trkpt lat="43.64373" lon="3.67668">
        <ele>266.6</ele>
        <time>2011-05-29T09:10:41Z</time>
      </trkpt>
      <trkpt lat="43.64364" lon="3.67668">
        <ele>266.9</ele>
        <time>2011-05-29T09:10:44Z</time>
      </trkpt>
      <trkpt lat="43.64357" lon="3.67666">
        <ele>267.1</ele>
        <time>2011-05-29T09:10:47Z</time>
      </trkpt>
      <trkpt lat="43.64349" lon="3.67666">
        <ele>267.4</ele>
        <time>2011-05-29T09:10:50Z</time>
      </trkpt>
      <trkpt lat="43.64342" lon="3.67665">
        <ele>267.6</ele>
        <time>2011-05-29T09:10:52Z</time>
      </trkpt>
      <trkpt lat="43.64335" lon="3.67665">
        <ele>267.8</ele>
        <time>2011-05-29T09:10:54Z</time>
      </trkpt>
      <trkpt lat="43.64327" lon="3.67663">
        <ele>267.8</ele>
        <time>2011-05-29T09:10:56Z</time>
      </trkpt>
      <trkpt lat="43.6432" lon="3.67662">
        <ele>267.8</ele>
        <time>2011-05-29T09:10:58Z</time>
      </trkpt>
      <trkpt lat="43.64312" lon="3.67661">
        <ele>267.8</ele>
        <time>2011-05-29T09:11:00Z</time>
      </trkpt>
      <trkpt lat="43.64304" lon="3.6766">
        <ele>267.9</ele>
        <time>2011-05-29T09:11:02Z</time>
      </trkpt>
      <trkpt lat="43.64296" lon="3.67659">
        <ele>267.9</ele>
        <time>2011-05-29T09:11:04Z</time>
      </trkpt>
      <trkpt lat="43.64292" lon="3.67658">
        <ele>267.9</ele>
        <time>2011-05-29T09:11:05Z</time>
      </trkpt>
      <trkpt lat="43.64279" lon="3.67657">
        <ele>267.9</ele>
        <time>2011-05-29T09:11:08Z</time>
      </trkpt>
      <trkpt lat="43.64274" lon="3.67656">
        <ele>267.9</ele>
        <time>2011-05-29T09:11:09Z</time>
      </trkpt>
      <trkpt lat="43.6427" lon="3.67655">
        <ele>267.9</ele>
        <time>2011-05-29T09:11:10Z</time>
      </trkpt>
      <trkpt lat="43.64265" lon="3.67654">
        <ele>267.9</ele>
        <time>2011-05-29T09:11:11Z</time>
      </trkpt>
      <trkpt lat="43.64261" lon="3.67652">
        <ele>267.8</ele>
        <time>2011-05-29T09:11:12Z</time>
      </trkpt>
      <trkpt lat="43.64252" lon="3.67648">
        <ele>267.6</ele>
        <time>2011-05-29T09:11:14Z</time>
      </trkpt>
      <trkpt lat="43.64248" lon="3.67646">
        <ele>267.5</ele>
        <time>2011-05-29T09:11:15Z</time>
      </trkpt>
      <trkpt lat="43.64243" lon="3.67644">
        <ele>267.4</ele>
        <time>2011-05-29T09:11:16Z</time>
      </trkpt>
      <trkpt lat="43.64239" lon="3.67642">
        <ele>267.3</ele>
        <time>2011-05-29T09:11:17Z</time>
      </trkpt>
      <trkpt lat="43.64231" lon="3.67638">
        <ele>267.1</ele>
        <time>2011-05-29T09:11:19Z</time>
      </trkpt>
      <trkpt lat="43.64227" lon="3.67635">
        <ele>267</ele>
        <time>2011-05-29T09:11:20Z</time>
      </trkpt>
      <trkpt lat="43.64222" lon="3.67633">
        <ele>266.9</ele>
        <time>2011-05-29T09:11:21Z</time>
      </trkpt>
      <trkpt lat="43.64218" lon="3.67631">
        <ele>266.8</ele>
        <time>2011-05-29T09:11:22Z</time>
      </trkpt>
      <trkpt lat="43.64213" lon="3.67629">
        <ele>266.7</ele>
        <time>2011-05-29T09:11:23Z</time>
      </trkpt>
      <trkpt lat="43.64209" lon="3.67627">
        <ele>266.6</ele>
        <time>2011-05-29T09:11:24Z</time>
      </trkpt>
      <trkpt lat="43.64204" lon="3.67625">
        <ele>266.6</ele>
        <time>2011-05-29T09:11:25Z</time>
      </trkpt>
      <trkpt lat="43.642" lon="3.67624">
        <ele>266.5</ele>
        <time>2011-05-29T09:11:26Z</time>
      </trkpt>
      <trkpt lat="43.64195" lon="3.67622">
        <ele>266.5</ele>
        <time>2011-05-29T09:11:27Z</time>
      </trkpt>
      <trkpt lat="43.6419" lon="3.6762">
        <ele>266.4</ele>
        <time>2011-05-29T09:11:28Z</time>
      </trkpt>
      <trkpt lat="43.64185" lon="3.67618">
        <ele>266.4</ele>
        <time>2011-05-29T09:11:29Z</time>
      </trkpt>
      <trkpt lat="43.6418" lon="3.67617">
        <ele>266.4</ele>
        <time>2011-05-29T09:11:30Z</time>
      </trkpt>
      <trkpt lat="43.64175" lon="3.67615">
        <ele>266.4</ele>
        <time>2011-05-29T09:11:31Z</time>
      </trkpt>
      <trkpt lat="43.6417" lon="3.67614">
        <ele>266.4</ele>
        <time>2011-05-29T09:11:32Z</time>
      </trkpt>
      <trkpt lat="43.64164" lon="3.67612">
        <ele>266.4</ele>
        <time>2011-05-29T09:11:33Z</time>
      </trkpt>
      <trkpt lat="43.64159" lon="3.67611">
        <ele>266.3</ele>
        <time>2011-05-29T09:11:34Z</time>
      </trkpt>
      <trkpt lat="43.64153" lon="3.6761">
        <ele>266.2</ele>
        <time>2011-05-29T09:11:35Z</time>
      </trkpt>
      <trkpt lat="43.64148" lon="3.67609">
        <ele>266.1</ele>
        <time>2011-05-29T09:11:36Z</time>
      </trkpt>
      <trkpt lat="43.64143" lon="3.67607">
        <ele>266</ele>
        <time>2011-05-29T09:11:37Z</time>
      </trkpt>
      <trkpt lat="43.64137" lon="3.67606">
        <ele>265.9</ele>
        <time>2011-05-29T09:11:38Z</time>
      </trkpt>
      <trkpt lat="43.64132" lon="3.67605">
        <ele>265.8</ele>
        <time>2011-05-29T09:11:39Z</time>
      </trkpt>
      <trkpt lat="43.64126" lon="3.67604">
        <ele>265.8</ele>
        <time>2011-05-29T09:11:40Z</time>
      </trkpt>
      <trkpt lat="43.64121" lon="3.67604">
        <ele>265.7</ele>
        <time>2011-05-29T09:11:41Z</time>
      </trkpt>
      <trkpt lat="43.64116" lon="3.67603">
        <ele>265.6</ele>
        <time>2011-05-29T09:11:42Z</time>
      </trkpt>
      <trkpt lat="43.6411" lon="3.67603">
        <ele>265.6</ele>
        <time>2011-05-29T09:11:43Z</time>
      </trkpt>
      <trkpt lat="43.64105" lon="3.67602">
        <ele>265.6</ele>
        <time>2011-05-29T09:11:44Z</time>
      </trkpt>
      <trkpt lat="43.641" lon="3.67602">
        <ele>265.5</ele>
        <time>2011-05-29T09:11:45Z</time>
      </trkpt>
      <trkpt lat="43.64095" lon="3.67602">
        <ele>265.5</ele>
        <time>2011-05-29T09:11:46Z</time>
      </trkpt>
      <trkpt lat="43.64089" lon="3.67602">
        <ele>265.5</ele>
        <time>2011-05-29T09:11:47Z</time>
      </trkpt>
      <trkpt lat="43.64084" lon="3.67602">
        <ele>265.4</ele>
        <time>2011-05-29T09:11:48Z</time>
      </trkpt>
      <trkpt lat="43.64079" lon="3.67602">
        <ele>265.6</ele>
        <time>2011-05-29T09:11:49Z</time>
      </trkpt>
      <trkpt lat="43.64073" lon="3.67602">
        <ele>265.7</ele>
        <time>2011-05-29T09:11:50Z</time>
      </trkpt>
      <trkpt lat="43.64068" lon="3.67602">
        <ele>265.9</ele>
        <time>2011-05-29T09:11:51Z</time>
      </trkpt>
      <trkpt lat="43.64063" lon="3.67602">
        <ele>266</ele>
        <time>2011-05-29T09:11:52Z</time>
      </trkpt>
      <trkpt lat="43.64057" lon="3.67602">
        <ele>266.2</ele>
        <time>2011-05-29T09:11:53Z</time>
      </trkpt>
      <trkpt lat="43.64052" lon="3.67601">
        <ele>266.3</ele>
        <time>2011-05-29T09:11:54Z</time>
      </trkpt>
      <trkpt lat="43.64047" lon="3.67602">
        <ele>266.5</ele>
        <time>2011-05-29T09:11:55Z</time>
      </trkpt>
      <trkpt lat="43.64042" lon="3.67603">
        <ele>266.6</ele>
        <time>2011-05-29T09:11:56Z</time>
      </trkpt>
      <trkpt lat="43.64037" lon="3.67604">
        <ele>266.7</ele>
        <time>2011-05-29T09:11:57Z</time>
      </trkpt>
      <trkpt lat="43.64033" lon="3.67605">
        <ele>266.9</ele>
        <time>2011-05-29T09:11:58Z</time>
      </trkpt>
      <trkpt lat="43.64028" lon="3.67607">
        <ele>267</ele>
        <time>2011-05-29T09:11:59Z</time>
      </trkpt>
      <trkpt lat="43.64023" lon="3.67609">
        <ele>267.1</ele>
        <time>2011-05-29T09:12:00Z</time>
      </trkpt>
      <trkpt lat="43.64018" lon="3.67612">
        <ele>267.2</ele>
        <time>2011-05-29T09:12:01Z</time>
      </trkpt>
      <trkpt lat="43.64014" lon="3.67615">
        <ele>267.3</ele>
        <time>2011-05-29T09:12:02Z</time>
      </trkpt>
      <trkpt lat="43.64009" lon="3.67618">
        <ele>267.4</ele>
        <time>2011-05-29T09:12:03Z</time>
      </trkpt>
      <trkpt lat="43.64004" lon="3.67621">
        <ele>267.5</ele>
        <time>2011-05-29T09:12:04Z</time>
      </trkpt>
      <trkpt lat="43.63999" lon="3.67624">
        <ele>267.5</ele>
        <time>2011-05-29T09:12:05Z</time>
      </trkpt>
      <trkpt lat="43.63994" lon="3.67626">
        <ele>267.5</ele>
        <time>2011-05-29T09:12:06Z</time>
      </trkpt>
      <trkpt lat="43.6399" lon="3.67628">
        <ele>267.5</ele>
        <time>2011-05-29T09:12:07Z</time>
      </trkpt>
      <trkpt lat="43.63981" lon="3.67632">
        <ele>267.4</ele>
        <time>2011-05-29T09:12:09Z</time>
      </trkpt>
      <trkpt lat="43.63977" lon="3.67634">
        <ele>267.3</ele>
        <time>2011-05-29T09:12:10Z</time>
      </trkpt>
      <trkpt lat="43.63972" lon="3.67636">
        <ele>267.3</ele>
        <time>2011-05-29T09:12:11Z</time>
      </trkpt>
      <trkpt lat="43.63967" lon="3.67639">
        <ele>267.2</ele>
        <time>2011-05-29T09:12:12Z</time>
      </trkpt>
      <trkpt lat="43.63961" lon="3.67641">
        <ele>267.1</ele>
        <time>2011-05-29T09:12:13Z</time>
      </trkpt>
      <trkpt lat="43.63956" lon="3.67643">
        <ele>267</ele>
        <time>2011-05-29T09:12:14Z</time>
      </trkpt>
      <trkpt lat="43.6395" lon="3.67646">
        <ele>266.9</ele>
        <time>2011-05-29T09:12:15Z</time>
      </trkpt>
      <trkpt lat="43.63945" lon="3.67649">
        <ele>266.8</ele>
        <time>2011-05-29T09:12:16Z</time>
      </trkpt>
      <trkpt lat="43.63939" lon="3.67651">
        <ele>266.7</ele>
        <time>2011-05-29T09:12:17Z</time>
      </trkpt>
      <trkpt lat="43.63934" lon="3.67653">
        <ele>266.6</ele>
        <time>2011-05-29T09:12:18Z</time>
      </trkpt>
      <trkpt lat="43.63928" lon="3.67656">
        <ele>266.5</ele>
        <time>2011-05-29T09:12:19Z</time>
      </trkpt>
      <trkpt lat="43.63923" lon="3.67658">
        <ele>266.4</ele>
        <time>2011-05-29T09:12:20Z</time>
      </trkpt>
      <trkpt lat="43.63918" lon="3.67659">
        <ele>266.3</ele>
        <time>2011-05-29T09:12:21Z</time>
      </trkpt>
      <trkpt lat="43.6391" lon="3.67661">
        <ele>266.1</ele>
        <time>2011-05-29T09:12:23Z</time>
      </trkpt>
      <trkpt lat="43.63902" lon="3.67666">
        <ele>265.9</ele>
        <time>2011-05-29T09:12:42Z</time>
      </trkpt>
      <trkpt lat="43.63896" lon="3.67673">
        <ele>265.3</ele>
        <time>2011-05-29T09:12:47Z</time>
      </trkpt>
      <trkpt lat="43.63889" lon="3.67678">
        <ele>264.8</ele>
        <time>2011-05-29T09:12:50Z</time>
      </trkpt>
      <trkpt lat="43.63882" lon="3.67681">
        <ele>264.5</ele>
        <time>2011-05-29T09:12:52Z</time>
      </trkpt>
      <trkpt lat="43.63877" lon="3.67686">
        <ele>264</ele>
        <time>2011-05-29T09:12:54Z</time>
      </trkpt>
      <trkpt lat="43.6387" lon="3.67694">
        <ele>263.3</ele>
        <time>2011-05-29T09:12:57Z</time>
      </trkpt>
      <trkpt lat="43.63864" lon="3.67694">
        <ele>263.3</ele>
        <time>2011-05-29T09:12:59Z</time>
      </trkpt>
      <trkpt lat="43.63857" lon="3.67693">
        <ele>263.3</ele>
        <time>2011-05-29T09:13:01Z</time>
      </trkpt>
      <trkpt lat="43.63851" lon="3.67692">
        <ele>263.3</ele>
        <time>2011-05-29T09:13:03Z</time>
      </trkpt>
      <trkpt lat="43.63844" lon="3.67691">
        <ele>263.3</ele>
        <time>2011-05-29T09:13:05Z</time>
      </trkpt>
      <trkpt lat="43.63837" lon="3.67689">
        <ele>263.4</ele>
        <time>2011-05-29T09:13:07Z</time>
      </trkpt>
      <trkpt lat="43.63833" lon="3.67688">
        <ele>263.5</ele>
        <time>2011-05-29T09:13:08Z</time>
      </trkpt>
      <trkpt lat="43.63824" lon="3.67687">
        <ele>263.6</ele>
        <time>2011-05-29T09:13:10Z</time>
      </trkpt>
      <trkpt lat="43.63819" lon="3.67686">
        <ele>263.6</ele>
        <time>2011-05-29T09:13:11Z</time>
      </trkpt>
      <trkpt lat="43.63814" lon="3.67686">
        <ele>263.7</ele>
        <time>2011-05-29T09:13:12Z</time>
      </trkpt>
      <trkpt lat="43.63809" lon="3.67685">
        <ele>263.8</ele>
        <time>2011-05-29T09:13:13Z</time>
      </trkpt>
      <trkpt lat="43.63804" lon="3.67684">
        <ele>263.9</ele>
        <time>2011-05-29T09:13:14Z</time>
      </trkpt>
      <trkpt lat="43.63798" lon="3.67682">
        <ele>264.1</ele>
        <time>2011-05-29T09:13:15Z</time>
      </trkpt>
      <trkpt lat="43.63793" lon="3.67682">
        <ele>264.1</ele>
        <time>2011-05-29T09:13:16Z</time>
      </trkpt>
      <trkpt lat="43.63787" lon="3.67683">
        <ele>264.1</ele>
        <time>2011-05-29T09:13:17Z</time>
      </trkpt>
      <trkpt lat="43.63782" lon="3.67682">
        <ele>264.2</ele>
        <time>2011-05-29T09:13:18Z</time>
      </trkpt>
      <trkpt lat="43.63777" lon="3.67681">
        <ele>264.3</ele>
        <time>2011-05-29T09:13:19Z</time>
      </trkpt>
      <trkpt lat="43.63772" lon="3.67681">
        <ele>264.4</ele>
        <time>2011-05-29T09:13:20Z</time>
      </trkpt>
      <trkpt lat="43.63768" lon="3.67681">
        <ele>264.3</ele>
        <time>2011-05-29T09:13:21Z</time>
      </trkpt>
      <trkpt lat="43.63761" lon="3.67682">
        <ele>264.3</ele>
        <time>2011-05-29T09:13:23Z</time>
      </trkpt>
      <trkpt lat="43.63752" lon="3.67683">
        <ele>264.2</ele>
        <time>2011-05-29T09:13:26Z</time>
      </trkpt>
      <trkpt lat="43.63745" lon="3.67684">
        <ele>264.3</ele>
        <time>2011-05-29T09:13:28Z</time>
      </trkpt>
      <trkpt lat="43.63737" lon="3.67684">
        <ele>264.6</ele>
        <time>2011-05-29T09:13:30Z</time>
      </trkpt>
      <trkpt lat="43.63729" lon="3.67688">
        <ele>264.4</ele>
        <time>2011-05-29T09:13:32Z</time>
      </trkpt>
      <trkpt lat="43.63721" lon="3.67694">
        <ele>263.9</ele>
        <time>2011-05-29T09:13:34Z</time>
      </trkpt>
      <trkpt lat="43.63716" lon="3.67697">
        <ele>263.6</ele>
        <time>2011-05-29T09:13:35Z</time>
      </trkpt>
      <trkpt lat="43.63712" lon="3.677">
        <ele>263.3</ele>
        <time>2011-05-29T09:13:36Z</time>
      </trkpt>
      <trkpt lat="43.63708" lon="3.67704">
        <ele>262.9</ele>
        <time>2011-05-29T09:13:37Z</time>
      </trkpt>
      <trkpt lat="43.63701" lon="3.6771">
        <ele>262.1</ele>
        <time>2011-05-29T09:13:39Z</time>
      </trkpt>
      <trkpt lat="43.63693" lon="3.67716">
        <ele>261.4</ele>
        <time>2011-05-29T09:13:41Z</time>
      </trkpt>
      <trkpt lat="43.6369" lon="3.67719">
        <ele>260.9</ele>
        <time>2011-05-29T09:13:42Z</time>
      </trkpt>
      <trkpt lat="43.63685" lon="3.67723">
        <ele>260.4</ele>
        <time>2011-05-29T09:13:43Z</time>
      </trkpt>
      <trkpt lat="43.63678" lon="3.67729">
        <ele>259.5</ele>
        <time>2011-05-29T09:13:45Z</time>
      </trkpt>
      <trkpt lat="43.63671" lon="3.67734">
        <ele>258.7</ele>
        <time>2011-05-29T09:13:47Z</time>
      </trkpt>
      <trkpt lat="43.63665" lon="3.67737">
        <ele>258.2</ele>
        <time>2011-05-29T09:13:49Z</time>
      </trkpt>
      <trkpt lat="43.63659" lon="3.67739">
        <ele>258</ele>
        <time>2011-05-29T09:13:51Z</time>
      </trkpt>
      <trkpt lat="43.63653" lon="3.67743">
        <ele>257.5</ele>
        <time>2011-05-29T09:13:53Z</time>
      </trkpt>
      <trkpt lat="43.63647" lon="3.67748">
        <ele>256.8</ele>
        <time>2011-05-29T09:13:55Z</time>
      </trkpt>
      <trkpt lat="43.63642" lon="3.67754">
        <ele>255.7</ele>
        <time>2011-05-29T09:13:57Z</time>
      </trkpt>
      <trkpt lat="43.63637" lon="3.67758">
        <ele>254.9</ele>
        <time>2011-05-29T09:13:59Z</time>
      </trkpt>
      <trkpt lat="43.6363" lon="3.6776">
        <ele>254.5</ele>
        <time>2011-05-29T09:14:01Z</time>
      </trkpt>
      <trkpt lat="43.63623" lon="3.67765">
        <ele>253.6</ele>
        <time>2011-05-29T09:14:03Z</time>
      </trkpt>
      <trkpt lat="43.63616" lon="3.67767">
        <ele>253.2</ele>
        <time>2011-05-29T09:14:05Z</time>
      </trkpt>
      <trkpt lat="43.63608" lon="3.6777">
        <ele>252.6</ele>
        <time>2011-05-29T09:14:07Z</time>
      </trkpt>
      <trkpt lat="43.63601" lon="3.67773">
        <ele>252</ele>
        <time>2011-05-29T09:14:09Z</time>
      </trkpt>
      <trkpt lat="43.63597" lon="3.67775">
        <ele>251.5</ele>
        <time>2011-05-29T09:14:10Z</time>
      </trkpt>
      <trkpt lat="43.63587" lon="3.67782">
        <ele>249.9</ele>
        <time>2011-05-29T09:14:13Z</time>
      </trkpt>
      <trkpt lat="43.63583" lon="3.67784">
        <ele>249.6</ele>
        <time>2011-05-29T09:14:14Z</time>
      </trkpt>
      <trkpt lat="43.63578" lon="3.67785">
        <ele>249.2</ele>
        <time>2011-05-29T09:14:15Z</time>
      </trkpt>
      <trkpt lat="43.63573" lon="3.67787">
        <ele>248.8</ele>
        <time>2011-05-29T09:14:16Z</time>
      </trkpt>
      <trkpt lat="43.63568" lon="3.6779">
        <ele>248.1</ele>
        <time>2011-05-29T09:14:17Z</time>
      </trkpt>
      <trkpt lat="43.63564" lon="3.67792">
        <ele>247.6</ele>
        <time>2011-05-29T09:14:18Z</time>
      </trkpt>
      <trkpt lat="43.63558" lon="3.67793">
        <ele>247.3</ele>
        <time>2011-05-29T09:14:19Z</time>
      </trkpt>
      <trkpt lat="43.63553" lon="3.67795">
        <ele>247</ele>
        <time>2011-05-29T09:14:20Z</time>
      </trkpt>
      <trkpt lat="43.63548" lon="3.67796">
        <ele>246.8</ele>
        <time>2011-05-29T09:14:21Z</time>
      </trkpt>
      <trkpt lat="43.63543" lon="3.67797">
        <ele>246.5</ele>
        <time>2011-05-29T09:14:22Z</time>
      </trkpt>
      <trkpt lat="43.63539" lon="3.67799">
        <ele>246.2</ele>
        <time>2011-05-29T09:14:23Z</time>
      </trkpt>
      <trkpt lat="43.63535" lon="3.67802">
        <ele>245.5</ele>
        <time>2011-05-29T09:14:24Z</time>
      </trkpt>
      <trkpt lat="43.63531" lon="3.67805">
        <ele>245</ele>
        <time>2011-05-29T09:14:25Z</time>
      </trkpt>
      <trkpt lat="43.63526" lon="3.67807">
        <ele>244.6</ele>
        <time>2011-05-29T09:14:26Z</time>
      </trkpt>
      <trkpt lat="43.6352" lon="3.67809">
        <ele>244.2</ele>
        <time>2011-05-29T09:14:27Z</time>
      </trkpt>
      <trkpt lat="43.63515" lon="3.67812">
        <ele>243.8</ele>
        <time>2011-05-29T09:14:28Z</time>
      </trkpt>
      <trkpt lat="43.6351" lon="3.67815">
        <ele>243.4</ele>
        <time>2011-05-29T09:14:29Z</time>
      </trkpt>
      <trkpt lat="43.63506" lon="3.67818">
        <ele>242.9</ele>
        <time>2011-05-29T09:14:30Z</time>
      </trkpt>
      <trkpt lat="43.63501" lon="3.67821">
        <ele>242.4</ele>
        <time>2011-05-29T09:14:31Z</time>
      </trkpt>
      <trkpt lat="43.63495" lon="3.67823">
        <ele>242</ele>
        <time>2011-05-29T09:14:32Z</time>
      </trkpt>
      <trkpt lat="43.6349" lon="3.67825">
        <ele>241.5</ele>
        <time>2011-05-29T09:14:33Z</time>
      </trkpt>
      <trkpt lat="43.63483" lon="3.67829">
        <ele>240.8</ele>
        <time>2011-05-29T09:14:34Z</time>
      </trkpt>
      <trkpt lat="43.63478" lon="3.67834">
        <ele>240</ele>
        <time>2011-05-29T09:14:35Z</time>
      </trkpt>
      <trkpt lat="43.63472" lon="3.67835">
        <ele>239.4</ele>
        <time>2011-05-29T09:14:36Z</time>
      </trkpt>
      <trkpt lat="43.63467" lon="3.67837">
        <ele>238.9</ele>
        <time>2011-05-29T09:14:37Z</time>
      </trkpt>
      <trkpt lat="43.63461" lon="3.67838">
        <ele>238.7</ele>
        <time>2011-05-29T09:14:38Z</time>
      </trkpt>
      <trkpt lat="43.63456" lon="3.67838">
        <ele>238.7</ele>
        <time>2011-05-29T09:14:39Z</time>
      </trkpt>
      <trkpt lat="43.6345" lon="3.67839">
        <ele>238.7</ele>
        <time>2011-05-29T09:14:40Z</time>
      </trkpt>
      <trkpt lat="43.63445" lon="3.67838">
        <ele>238.8</ele>
        <time>2011-05-29T09:14:41Z</time>
      </trkpt>
      <trkpt lat="43.63437" lon="3.67841">
        <ele>238.2</ele>
        <time>2011-05-29T09:14:43Z</time>
      </trkpt>
      <trkpt lat="43.63428" lon="3.67845">
        <ele>237.3</ele>
        <time>2011-05-29T09:14:45Z</time>
      </trkpt>
      <trkpt lat="43.63425" lon="3.6785">
        <ele>236.3</ele>
        <time>2011-05-29T09:14:46Z</time>
      </trkpt>
      <trkpt lat="43.63422" lon="3.67855">
        <ele>235.3</ele>
        <time>2011-05-29T09:14:47Z</time>
      </trkpt>
      <trkpt lat="43.63419" lon="3.67861">
        <ele>234</ele>
        <time>2011-05-29T09:14:48Z</time>
      </trkpt>
      <trkpt lat="43.63416" lon="3.67868">
        <ele>232.6</ele>
        <time>2011-05-29T09:14:49Z</time>
      </trkpt>
      <trkpt lat="43.63414" lon="3.67874">
        <ele>231.2</ele>
        <time>2011-05-29T09:14:50Z</time>
      </trkpt>
      <trkpt lat="43.63412" lon="3.67882">
        <ele>229.7</ele>
        <time>2011-05-29T09:14:51Z</time>
      </trkpt>
      <trkpt lat="43.63409" lon="3.67889">
        <ele>228.3</ele>
        <time>2011-05-29T09:14:52Z</time>
      </trkpt>
      <trkpt lat="43.63408" lon="3.67895">
        <ele>226.9</ele>
        <time>2011-05-29T09:14:53Z</time>
      </trkpt>
      <trkpt lat="43.63406" lon="3.67904">
        <ele>225.3</ele>
        <time>2011-05-29T09:14:54Z</time>
      </trkpt>
      <trkpt lat="43.63403" lon="3.67912">
        <ele>223.7</ele>
        <time>2011-05-29T09:14:55Z</time>
      </trkpt>
      <trkpt lat="43.63399" lon="3.67921">
        <ele>222.1</ele>
        <time>2011-05-29T09:14:56Z</time>
      </trkpt>
      <trkpt lat="43.63396" lon="3.6793">
        <ele>220.5</ele>
        <time>2011-05-29T09:14:57Z</time>
      </trkpt>
      <trkpt lat="43.63392" lon="3.67939">
        <ele>218.9</ele>
        <time>2011-05-29T09:14:58Z</time>
      </trkpt>
      <trkpt lat="43.63387" lon="3.67948">
        <ele>217.6</ele>
        <time>2011-05-29T09:14:59Z</time>
      </trkpt>
      <trkpt lat="43.63384" lon="3.67954">
        <ele>216.5</ele>
        <time>2011-05-29T09:15:00Z</time>
      </trkpt>
      <trkpt lat="43.63381" lon="3.67961">
        <ele>215.6</ele>
        <time>2011-05-29T09:15:01Z</time>
      </trkpt>
      <trkpt lat="43.63379" lon="3.67967">
        <ele>214.6</ele>
        <time>2011-05-29T09:15:02Z</time>
      </trkpt>
      <trkpt lat="43.63377" lon="3.67972">
        <ele>213.7</ele>
        <time>2011-05-29T09:15:03Z</time>
      </trkpt>
      <trkpt lat="43.63374" lon="3.67978">
        <ele>212.8</ele>
        <time>2011-05-29T09:15:04Z</time>
      </trkpt>
      <trkpt lat="43.63371" lon="3.67984">
        <ele>211.9</ele>
        <time>2011-05-29T09:15:05Z</time>
      </trkpt>
      <trkpt lat="43.63368" lon="3.6799">
        <ele>211.2</ele>
        <time>2011-05-29T09:15:06Z</time>
      </trkpt>
      <trkpt lat="43.63365" lon="3.67995">
        <ele>210.6</ele>
        <time>2011-05-29T09:15:07Z</time>
      </trkpt>
      <trkpt lat="43.63361" lon="3.68">
        <ele>210</ele>
        <time>2011-05-29T09:15:08Z</time>
      </trkpt>
      <trkpt lat="43.63357" lon="3.68005">
        <ele>209.8</ele>
        <time>2011-05-29T09:15:09Z</time>
      </trkpt>
      <trkpt lat="43.63353" lon="3.68009">
        <ele>209.7</ele>
        <time>2011-05-29T09:15:10Z</time>
      </trkpt>
      <trkpt lat="43.63348" lon="3.68012">
        <ele>209.8</ele>
        <time>2011-05-29T09:15:11Z</time>
      </trkpt>
      <trkpt lat="43.63343" lon="3.68015">
        <ele>210</ele>
        <time>2011-05-29T09:15:12Z</time>
      </trkpt>
      <trkpt lat="43.63338" lon="3.68018">
        <ele>210.1</ele>
        <time>2011-05-29T09:15:13Z</time>
      </trkpt>
      <trkpt lat="43.63335" lon="3.68022">
        <ele>209.9</ele>
        <time>2011-05-29T09:15:14Z</time>
      </trkpt>
      <trkpt lat="43.63331" lon="3.68027">
        <ele>209.1</ele>
        <time>2011-05-29T09:15:15Z</time>
      </trkpt>
      <trkpt lat="43.63327" lon="3.68033">
        <ele>207.7</ele>
        <time>2011-05-29T09:15:16Z</time>
      </trkpt>
      <trkpt lat="43.63325" lon="3.68039">
        <ele>206.5</ele>
        <time>2011-05-29T09:15:17Z</time>
      </trkpt>
      <trkpt lat="43.63323" lon="3.68045">
        <ele>205.5</ele>
        <time>2011-05-29T09:15:18Z</time>
      </trkpt>
      <trkpt lat="43.63322" lon="3.68053">
        <ele>204.4</ele>
        <time>2011-05-29T09:15:19Z</time>
      </trkpt>
      <trkpt lat="43.6332" lon="3.68059">
        <ele>203.3</ele>
        <time>2011-05-29T09:15:20Z</time>
      </trkpt>
      <trkpt lat="43.63319" lon="3.68066">
        <ele>202.2</ele>
        <time>2011-05-29T09:15:21Z</time>
      </trkpt>
      <trkpt lat="43.63317" lon="3.68072">
        <ele>201.2</ele>
        <time>2011-05-29T09:15:22Z</time>
      </trkpt>
      <trkpt lat="43.63314" lon="3.68077">
        <ele>200.2</ele>
        <time>2011-05-29T09:15:23Z</time>
      </trkpt>
      <trkpt lat="43.6331" lon="3.68081">
        <ele>199.2</ele>
        <time>2011-05-29T09:15:24Z</time>
      </trkpt>
      <trkpt lat="43.63305" lon="3.68085">
        <ele>198.2</ele>
        <time>2011-05-29T09:15:25Z</time>
      </trkpt>
      <trkpt lat="43.63303" lon="3.6809">
        <ele>197.6</ele>
        <time>2011-05-29T09:15:26Z</time>
      </trkpt>
      <trkpt lat="43.63301" lon="3.68096">
        <ele>197.1</ele>
        <time>2011-05-29T09:15:27Z</time>
      </trkpt>
      <trkpt lat="43.63299" lon="3.68103">
        <ele>196.5</ele>
        <time>2011-05-29T09:15:28Z</time>
      </trkpt>
      <trkpt lat="43.63297" lon="3.6811">
        <ele>195.9</ele>
        <time>2011-05-29T09:15:29Z</time>
      </trkpt>
      <trkpt lat="43.63295" lon="3.68116">
        <ele>195.4</ele>
        <time>2011-05-29T09:15:30Z</time>
      </trkpt>
      <trkpt lat="43.63293" lon="3.68123">
        <ele>195</ele>
        <time>2011-05-29T09:15:31Z</time>
      </trkpt>
      <trkpt lat="43.63289" lon="3.68132">
        <ele>194.2</ele>
        <time>2011-05-29T09:15:33Z</time>
      </trkpt>
      <trkpt lat="43.63288" lon="3.68138">
        <ele>193.9</ele>
        <time>2011-05-29T09:15:34Z</time>
      </trkpt>
      <trkpt lat="43.63286" lon="3.68145">
        <ele>193.5</ele>
        <time>2011-05-29T09:15:35Z</time>
      </trkpt>
      <trkpt lat="43.63286" lon="3.68154">
        <ele>193.2</ele>
        <time>2011-05-29T09:15:36Z</time>
      </trkpt>
      <trkpt lat="43.63286" lon="3.68163">
        <ele>192.9</ele>
        <time>2011-05-29T09:15:37Z</time>
      </trkpt>
      <trkpt lat="43.63286" lon="3.68171">
        <ele>192.7</ele>
        <time>2011-05-29T09:15:38Z</time>
      </trkpt>
      <trkpt lat="43.63286" lon="3.6818">
        <ele>192.8</ele>
        <time>2011-05-29T09:15:39Z</time>
      </trkpt>
      <trkpt lat="43.63286" lon="3.68189">
        <ele>192.8</ele>
        <time>2011-05-29T09:15:40Z</time>
      </trkpt>
      <trkpt lat="43.63285" lon="3.68197">
        <ele>192.7</ele>
        <time>2011-05-29T09:15:41Z</time>
      </trkpt>
      <trkpt lat="43.63284" lon="3.68206">
        <ele>192.7</ele>
        <time>2011-05-29T09:15:42Z</time>
      </trkpt>
      <trkpt lat="43.63282" lon="3.68214">
        <ele>192.7</ele>
        <time>2011-05-29T09:15:43Z</time>
      </trkpt>
      <trkpt lat="43.63281" lon="3.68222">
        <ele>192.7</ele>
        <time>2011-05-29T09:15:44Z</time>
      </trkpt>
      <trkpt lat="43.6328" lon="3.68231">
        <ele>192.6</ele>
        <time>2011-05-29T09:15:45Z</time>
      </trkpt>
      <trkpt lat="43.63278" lon="3.68239">
        <ele>192.6</ele>
        <time>2011-05-29T09:15:46Z</time>
      </trkpt>
      <trkpt lat="43.63277" lon="3.68248">
        <ele>192.6</ele>
        <time>2011-05-29T09:15:47Z</time>
      </trkpt>
      <trkpt lat="43.63275" lon="3.68257">
        <ele>192.9</ele>
        <time>2011-05-29T09:15:48Z</time>
      </trkpt>
      <trkpt lat="43.63274" lon="3.68266">
        <ele>193.2</ele>
        <time>2011-05-29T09:15:49Z</time>
      </trkpt>
      <trkpt lat="43.63272" lon="3.68275">
        <ele>193.4</ele>
        <time>2011-05-29T09:15:50Z</time>
      </trkpt>
      <trkpt lat="43.6327" lon="3.68284">
        <ele>193.6</ele>
        <time>2011-05-29T09:15:51Z</time>
      </trkpt>
      <trkpt lat="43.63268" lon="3.68293">
        <ele>193.7</ele>
        <time>2011-05-29T09:15:52Z</time>
      </trkpt>
      <trkpt lat="43.63265" lon="3.68299">
        <ele>193.7</ele>
        <time>2011-05-29T09:15:53Z</time>
      </trkpt>
      <trkpt lat="43.63262" lon="3.68305">
        <ele>193.6</ele>
        <time>2011-05-29T09:15:54Z</time>
      </trkpt>
      <trkpt lat="43.6326" lon="3.68315">
        <ele>193.6</ele>
        <time>2011-05-29T09:15:56Z</time>
      </trkpt>
      <trkpt lat="43.63257" lon="3.68324">
        <ele>193.5</ele>
        <time>2011-05-29T09:15:58Z</time>
      </trkpt>
      <trkpt lat="43.63253" lon="3.68335">
        <ele>193.3</ele>
        <time>2011-05-29T09:16:01Z</time>
      </trkpt>
      <trkpt lat="43.6325" lon="3.68342">
        <ele>192.8</ele>
        <time>2011-05-29T09:16:03Z</time>
      </trkpt>
      <trkpt lat="43.63245" lon="3.68352">
        <ele>191.8</ele>
        <time>2011-05-29T09:16:06Z</time>
      </trkpt>
      <trkpt lat="43.6324" lon="3.68361">
        <ele>190.7</ele>
        <time>2011-05-29T09:16:09Z</time>
      </trkpt>
      <trkpt lat="43.63236" lon="3.68367">
        <ele>189.9</ele>
        <time>2011-05-29T09:16:11Z</time>
      </trkpt>
      <trkpt lat="43.63233" lon="3.68371">
        <ele>189.4</ele>
        <time>2011-05-29T09:16:12Z</time>
      </trkpt>
      <trkpt lat="43.63225" lon="3.68383">
        <ele>187.6</ele>
        <time>2011-05-29T09:16:16Z</time>
      </trkpt>
      <trkpt lat="43.63222" lon="3.68391">
        <ele>186.8</ele>
        <time>2011-05-29T09:16:18Z</time>
      </trkpt>
      <trkpt lat="43.63218" lon="3.684">
        <ele>185.9</ele>
        <time>2011-05-29T09:16:20Z</time>
      </trkpt>
      <trkpt lat="43.63214" lon="3.68408">
        <ele>184.8</ele>
        <time>2011-05-29T09:16:22Z</time>
      </trkpt>
      <trkpt lat="43.63209" lon="3.68416">
        <ele>183.6</ele>
        <time>2011-05-29T09:16:24Z</time>
      </trkpt>
      <trkpt lat="43.63203" lon="3.68424">
        <ele>182.4</ele>
        <time>2011-05-29T09:16:26Z</time>
      </trkpt>
      <trkpt lat="43.632" lon="3.68428">
        <ele>181.7</ele>
        <time>2011-05-29T09:16:27Z</time>
      </trkpt>
      <trkpt lat="43.63197" lon="3.68433">
        <ele>181</ele>
        <time>2011-05-29T09:16:28Z</time>
      </trkpt>
      <trkpt lat="43.63193" lon="3.68438">
        <ele>180.2</ele>
        <time>2011-05-29T09:16:29Z</time>
      </trkpt>
      <trkpt lat="43.6319" lon="3.68443">
        <ele>179.5</ele>
        <time>2011-05-29T09:16:30Z</time>
      </trkpt>
      <trkpt lat="43.63186" lon="3.68448">
        <ele>178.7</ele>
        <time>2011-05-29T09:16:31Z</time>
      </trkpt>
      <trkpt lat="43.63183" lon="3.68453">
        <ele>178</ele>
        <time>2011-05-29T09:16:32Z</time>
      </trkpt>
      <trkpt lat="43.63179" lon="3.68458">
        <ele>177.1</ele>
        <time>2011-05-29T09:16:33Z</time>
      </trkpt>
      <trkpt lat="43.63175" lon="3.68463">
        <ele>176.2</ele>
        <time>2011-05-29T09:16:34Z</time>
      </trkpt>
      <trkpt lat="43.63171" lon="3.68469">
        <ele>175.4</ele>
        <time>2011-05-29T09:16:35Z</time>
      </trkpt>
      <trkpt lat="43.63168" lon="3.68475">
        <ele>174.6</ele>
        <time>2011-05-29T09:16:36Z</time>
      </trkpt>
      <trkpt lat="43.63164" lon="3.6848">
        <ele>173.8</ele>
        <time>2011-05-29T09:16:37Z</time>
      </trkpt>
      <trkpt lat="43.6316" lon="3.68485">
        <ele>173</ele>
        <time>2011-05-29T09:16:38Z</time>
      </trkpt>
      <trkpt lat="43.63156" lon="3.68489">
        <ele>172</ele>
        <time>2011-05-29T09:16:39Z</time>
      </trkpt>
      <trkpt lat="43.63149" lon="3.68497">
        <ele>170.7</ele>
        <time>2011-05-29T09:16:41Z</time>
      </trkpt>
      <trkpt lat="43.63144" lon="3.68506">
        <ele>169.3</ele>
        <time>2011-05-29T09:16:53Z</time>
      </trkpt>
      <trkpt lat="43.63139" lon="3.68517">
        <ele>168</ele>
        <time>2011-05-29T09:17:29Z</time>
      </trkpt>
      <trkpt lat="43.63139" lon="3.68517">
        <ele>167.9</ele>
        <time>2011-05-29T09:17:30Z</time>
      </trkpt>
      <trkpt lat="43.63132" lon="3.68526">
        <ele>166.2</ele>
        <time>2011-05-29T09:19:06Z</time>
      </trkpt>
      <trkpt lat="43.63124" lon="3.68539">
        <ele>164.4</ele>
        <time>2011-05-29T09:19:09Z</time>
      </trkpt>
      <trkpt lat="43.63125" lon="3.68548">
        <ele>164.3</ele>
        <time>2011-05-29T09:19:12Z</time>
      </trkpt>
      <trkpt lat="43.63131" lon="3.68556">
        <ele>164.9</ele>
        <time>2011-05-29T09:19:15Z</time>
      </trkpt>
      <trkpt lat="43.63136" lon="3.68565">
        <ele>165.4</ele>
        <time>2011-05-29T09:19:18Z</time>
      </trkpt>
      <trkpt lat="43.63137" lon="3.68575">
        <ele>165.1</ele>
        <time>2011-05-29T09:19:21Z</time>
      </trkpt>
      <trkpt lat="43.63136" lon="3.68583">
        <ele>164.6</ele>
        <time>2011-05-29T09:19:23Z</time>
      </trkpt>
      <trkpt lat="43.63135" lon="3.68591">
        <ele>163.4</ele>
        <time>2011-05-29T09:19:25Z</time>
      </trkpt>
      <trkpt lat="43.63133" lon="3.68604">
        <ele>161.5</ele>
        <time>2011-05-29T09:19:28Z</time>
      </trkpt>
      <trkpt lat="43.63132" lon="3.68613">
        <ele>160.1</ele>
        <time>2011-05-29T09:19:30Z</time>
      </trkpt>
      <trkpt lat="43.63131" lon="3.68623">
        <ele>158.8</ele>
        <time>2011-05-29T09:19:32Z</time>
      </trkpt>
      <trkpt lat="43.6313" lon="3.68633">
        <ele>157.4</ele>
        <time>2011-05-29T09:19:34Z</time>
      </trkpt>
      <trkpt lat="43.63129" lon="3.68644">
        <ele>155.7</ele>
        <time>2011-05-29T09:19:36Z</time>
      </trkpt>
      <trkpt lat="43.63128" lon="3.68655">
        <ele>154.2</ele>
        <time>2011-05-29T09:19:38Z</time>
      </trkpt>
      <trkpt lat="43.63125" lon="3.68666">
        <ele>152.6</ele>
        <time>2011-05-29T09:19:40Z</time>
      </trkpt>
      <trkpt lat="43.63124" lon="3.68679">
        <ele>150.9</ele>
        <time>2011-05-29T09:19:42Z</time>
      </trkpt>
      <trkpt lat="43.63122" lon="3.6869">
        <ele>149.3</ele>
        <time>2011-05-29T09:19:44Z</time>
      </trkpt>
      <trkpt lat="43.6312" lon="3.68697">
        <ele>148.4</ele>
        <time>2011-05-29T09:19:45Z</time>
      </trkpt>
      <trkpt lat="43.63119" lon="3.68708">
        <ele>147.1</ele>
        <time>2011-05-29T09:19:47Z</time>
      </trkpt>
      <trkpt lat="43.6311" lon="3.68708">
        <ele>146.7</ele>
        <time>2011-05-29T09:19:54Z</time>
      </trkpt>
      <trkpt lat="43.63102" lon="3.68708">
        <ele>146.4</ele>
        <time>2011-05-29T09:19:58Z</time>
      </trkpt>
      <trkpt lat="43.63047" lon="3.6867">
        <ele>146.6</ele>
        <time>2011-05-29T09:20:23Z</time>
      </trkpt>
      <trkpt lat="43.63018" lon="3.68637">
        <ele>147.1</ele>
        <time>2011-05-29T09:20:31Z</time>
      </trkpt>
      <trkpt lat="43.63009" lon="3.68634">
        <ele>146.6</ele>
        <time>2011-05-29T09:20:36Z</time>
      </trkpt>
      <trkpt lat="43.63001" lon="3.68636">
        <ele>145.9</ele>
        <time>2011-05-29T09:20:42Z</time>
      </trkpt>
      <trkpt lat="43.62993" lon="3.68636">
        <ele>145.9</ele>
        <time>2011-05-29T09:20:48Z</time>
      </trkpt>
      <trkpt lat="43.62984" lon="3.68634">
        <ele>146.1</ele>
        <time>2011-05-29T09:20:53Z</time>
      </trkpt>
      <trkpt lat="43.62977" lon="3.68629">
        <ele>146.4</ele>
        <time>2011-05-29T09:20:57Z</time>
      </trkpt>
      <trkpt lat="43.6297" lon="3.68626">
        <ele>146.6</ele>
        <time>2011-05-29T09:21:01Z</time>
      </trkpt>
      <trkpt lat="43.62962" lon="3.68628">
        <ele>146.6</ele>
        <time>2011-05-29T09:21:06Z</time>
      </trkpt>
      <trkpt lat="43.62955" lon="3.68634">
        <ele>146.2</ele>
        <time>2011-05-29T09:21:11Z</time>
      </trkpt>
      <trkpt lat="43.62951" lon="3.68644">
        <ele>145.5</ele>
        <time>2011-05-29T09:21:16Z</time>
      </trkpt>
      <trkpt lat="43.62947" lon="3.68654">
        <ele>144.8</ele>
        <time>2011-05-29T09:21:20Z</time>
      </trkpt>
      <trkpt lat="43.62944" lon="3.68665">
        <ele>144.1</ele>
        <time>2011-05-29T09:21:26Z</time>
      </trkpt>
      <trkpt lat="43.62938" lon="3.68673">
        <ele>143.6</ele>
        <time>2011-05-29T09:22:06Z</time>
      </trkpt>
      <trkpt lat="43.62937" lon="3.68675">
        <ele>143.6</ele>
        <time>2011-05-29T09:22:07Z</time>
      </trkpt>
      <trkpt lat="43.62922" lon="3.68677">
        <ele>143.4</ele>
        <time>2011-05-29T09:22:17Z</time>
      </trkpt>
      <trkpt lat="43.62913" lon="3.68674">
        <ele>143.5</ele>
        <time>2011-05-29T09:22:20Z</time>
      </trkpt>
      <trkpt lat="43.62907" lon="3.68674">
        <ele>143.5</ele>
        <time>2011-05-29T09:22:22Z</time>
      </trkpt>
      <trkpt lat="43.629" lon="3.68673">
        <ele>143.4</ele>
        <time>2011-05-29T09:22:24Z</time>
      </trkpt>
      <trkpt lat="43.62893" lon="3.68672">
        <ele>143.4</ele>
        <time>2011-05-29T09:22:26Z</time>
      </trkpt>
      <trkpt lat="43.62886" lon="3.6867">
        <ele>143.4</ele>
        <time>2011-05-29T09:22:28Z</time>
      </trkpt>
      <trkpt lat="43.62879" lon="3.68668">
        <ele>143.5</ele>
        <time>2011-05-29T09:22:30Z</time>
      </trkpt>
      <trkpt lat="43.62871" lon="3.68666">
        <ele>143.5</ele>
        <time>2011-05-29T09:22:32Z</time>
      </trkpt>
      <trkpt lat="43.62864" lon="3.68664">
        <ele>143.6</ele>
        <time>2011-05-29T09:22:34Z</time>
      </trkpt>
      <trkpt lat="43.62855" lon="3.68661">
        <ele>143.7</ele>
        <time>2011-05-29T09:22:36Z</time>
      </trkpt>
      <trkpt lat="43.62847" lon="3.6866">
        <ele>143.7</ele>
        <time>2011-05-29T09:22:38Z</time>
      </trkpt>
      <trkpt lat="43.62839" lon="3.68659">
        <ele>143.7</ele>
        <time>2011-05-29T09:22:40Z</time>
      </trkpt>
      <trkpt lat="43.6283" lon="3.68658">
        <ele>143.7</ele>
        <time>2011-05-29T09:22:42Z</time>
      </trkpt>
      <trkpt lat="43.62822" lon="3.68657">
        <ele>143.8</ele>
        <time>2011-05-29T09:22:44Z</time>
      </trkpt>
      <trkpt lat="43.62814" lon="3.68656">
        <ele>143.9</ele>
        <time>2011-05-29T09:22:46Z</time>
      </trkpt>
      <trkpt lat="43.62806" lon="3.68654">
        <ele>143.9</ele>
        <time>2011-05-29T09:22:48Z</time>
      </trkpt>
      <trkpt lat="43.62798" lon="3.68652">
        <ele>144.1</ele>
        <time>2011-05-29T09:22:50Z</time>
      </trkpt>
      <trkpt lat="43.6279" lon="3.6865">
        <ele>144.2</ele>
        <time>2011-05-29T09:22:52Z</time>
      </trkpt>
      <trkpt lat="43.62782" lon="3.68647">
        <ele>144.4</ele>
        <time>2011-05-29T09:22:54Z</time>
      </trkpt>
      <trkpt lat="43.62775" lon="3.68642">
        <ele>144.6</ele>
        <time>2011-05-29T09:22:56Z</time>
      </trkpt>
      <trkpt lat="43.62768" lon="3.68636">
        <ele>145</ele>
        <time>2011-05-29T09:22:58Z</time>
      </trkpt>
      <trkpt lat="43.62761" lon="3.6863">
        <ele>145.3</ele>
        <time>2011-05-29T09:23:00Z</time>
      </trkpt>
      <trkpt lat="43.62754" lon="3.68627">
        <ele>145.5</ele>
        <time>2011-05-29T09:23:02Z</time>
      </trkpt>
      <trkpt lat="43.62748" lon="3.68635">
        <ele>144.9</ele>
        <time>2011-05-29T09:23:06Z</time>
      </trkpt>
      <trkpt lat="43.62745" lon="3.68646">
        <ele>144.3</ele>
        <time>2011-05-29T09:23:09Z</time>
      </trkpt>
      <trkpt lat="43.62743" lon="3.6865">
        <ele>144</ele>
        <time>2011-05-29T09:23:10Z</time>
      </trkpt>
      <trkpt lat="43.62743" lon="3.68665">
        <ele>143.1</ele>
        <time>2011-05-29T09:23:13Z</time>
      </trkpt>
      <trkpt lat="43.62744" lon="3.68677">
        <ele>142.6</ele>
        <time>2011-05-29T09:23:15Z</time>
      </trkpt>
      <trkpt lat="43.62744" lon="3.68683">
        <ele>142.4</ele>
        <time>2011-05-29T09:23:16Z</time>
      </trkpt>
      <trkpt lat="43.62745" lon="3.6869">
        <ele>142.2</ele>
        <time>2011-05-29T09:23:17Z</time>
      </trkpt>
      <trkpt lat="43.62746" lon="3.68696">
        <ele>141.9</ele>
        <time>2011-05-29T09:23:18Z</time>
      </trkpt>
      <trkpt lat="43.62747" lon="3.68704">
        <ele>141.7</ele>
        <time>2011-05-29T09:23:19Z</time>
      </trkpt>
      <trkpt lat="43.62748" lon="3.68711">
        <ele>141.4</ele>
        <time>2011-05-29T09:23:20Z</time>
      </trkpt>
      <trkpt lat="43.62749" lon="3.68719">
        <ele>141.1</ele>
        <time>2011-05-29T09:23:21Z</time>
      </trkpt>
      <trkpt lat="43.6275" lon="3.68726">
        <ele>140.9</ele>
        <time>2011-05-29T09:23:22Z</time>
      </trkpt>
      <trkpt lat="43.62751" lon="3.68734">
        <ele>140.6</ele>
        <time>2011-05-29T09:23:23Z</time>
      </trkpt>
      <trkpt lat="43.62752" lon="3.68741">
        <ele>140.3</ele>
        <time>2011-05-29T09:23:24Z</time>
      </trkpt>
      <trkpt lat="43.62753" lon="3.68749">
        <ele>140</ele>
        <time>2011-05-29T09:23:25Z</time>
      </trkpt>
      <trkpt lat="43.62753" lon="3.68757">
        <ele>139.7</ele>
        <time>2011-05-29T09:23:26Z</time>
      </trkpt>
      <trkpt lat="43.62751" lon="3.68764">
        <ele>139.5</ele>
        <time>2011-05-29T09:23:27Z</time>
      </trkpt>
      <trkpt lat="43.62747" lon="3.6877">
        <ele>139.3</ele>
        <time>2011-05-29T09:23:28Z</time>
      </trkpt>
      <trkpt lat="43.62742" lon="3.68775">
        <ele>139.2</ele>
        <time>2011-05-29T09:23:29Z</time>
      </trkpt>
      <trkpt lat="43.62737" lon="3.68779">
        <ele>139.1</ele>
        <time>2011-05-29T09:23:30Z</time>
      </trkpt>
      <trkpt lat="43.62732" lon="3.68784">
        <ele>139</ele>
        <time>2011-05-29T09:23:31Z</time>
      </trkpt>
      <trkpt lat="43.62727" lon="3.68788">
        <ele>138.9</ele>
        <time>2011-05-29T09:23:32Z</time>
      </trkpt>
      <trkpt lat="43.62723" lon="3.68792">
        <ele>138.8</ele>
        <time>2011-05-29T09:23:33Z</time>
      </trkpt>
      <trkpt lat="43.62718" lon="3.68796">
        <ele>138.8</ele>
        <time>2011-05-29T09:23:34Z</time>
      </trkpt>
      <trkpt lat="43.62714" lon="3.68799">
        <ele>138.7</ele>
        <time>2011-05-29T09:23:35Z</time>
      </trkpt>
      <trkpt lat="43.6271" lon="3.68803">
        <ele>138.7</ele>
        <time>2011-05-29T09:23:36Z</time>
      </trkpt>
      <trkpt lat="43.62704" lon="3.68808">
        <ele>138.7</ele>
        <time>2011-05-29T09:23:38Z</time>
      </trkpt>
      <trkpt lat="43.62697" lon="3.68815">
        <ele>138.7</ele>
        <time>2011-05-29T09:23:41Z</time>
      </trkpt>
      <trkpt lat="43.62691" lon="3.6882">
        <ele>138.7</ele>
        <time>2011-05-29T09:23:43Z</time>
      </trkpt>
      <trkpt lat="43.62684" lon="3.68826">
        <ele>138.7</ele>
        <time>2011-05-29T09:23:45Z</time>
      </trkpt>
      <trkpt lat="43.62676" lon="3.68832">
        <ele>138.8</ele>
        <time>2011-05-29T09:23:47Z</time>
      </trkpt>
      <trkpt lat="43.62672" lon="3.68835">
        <ele>138.8</ele>
        <time>2011-05-29T09:23:48Z</time>
      </trkpt>
      <trkpt lat="43.62668" lon="3.68839">
        <ele>138.8</ele>
        <time>2011-05-29T09:23:49Z</time>
      </trkpt>
      <trkpt lat="43.62664" lon="3.68842">
        <ele>138.8</ele>
        <time>2011-05-29T09:23:50Z</time>
      </trkpt>
      <trkpt lat="43.6266" lon="3.68845">
        <ele>138.7</ele>
        <time>2011-05-29T09:23:51Z</time>
      </trkpt>
      <trkpt lat="43.62655" lon="3.68848">
        <ele>138.6</ele>
        <time>2011-05-29T09:23:52Z</time>
      </trkpt>
      <trkpt lat="43.62651" lon="3.68851">
        <ele>138.5</ele>
        <time>2011-05-29T09:23:53Z</time>
      </trkpt>
      <trkpt lat="43.62647" lon="3.68854">
        <ele>138.4</ele>
        <time>2011-05-29T09:23:54Z</time>
      </trkpt>
      <trkpt lat="43.62642" lon="3.68858">
        <ele>138.2</ele>
        <time>2011-05-29T09:23:55Z</time>
      </trkpt>
      <trkpt lat="43.62638" lon="3.68861">
        <ele>138.1</ele>
        <time>2011-05-29T09:23:56Z</time>
      </trkpt>
      <trkpt lat="43.62633" lon="3.68864">
        <ele>138</ele>
        <time>2011-05-29T09:23:57Z</time>
      </trkpt>
      <trkpt lat="43.62628" lon="3.68867">
        <ele>137.8</ele>
        <time>2011-05-29T09:23:58Z</time>
      </trkpt>
      <trkpt lat="43.62623" lon="3.6887">
        <ele>137.7</ele>
        <time>2011-05-29T09:23:59Z</time>
      </trkpt>
      <trkpt lat="43.62618" lon="3.68873">
        <ele>137.5</ele>
        <time>2011-05-29T09:24:00Z</time>
      </trkpt>
      <trkpt lat="43.62613" lon="3.68876">
        <ele>137.3</ele>
        <time>2011-05-29T09:24:01Z</time>
      </trkpt>
      <trkpt lat="43.62608" lon="3.68879">
        <ele>137.2</ele>
        <time>2011-05-29T09:24:02Z</time>
      </trkpt>
      <trkpt lat="43.62603" lon="3.68881">
        <ele>137</ele>
        <time>2011-05-29T09:24:03Z</time>
      </trkpt>
      <trkpt lat="43.62597" lon="3.68882">
        <ele>136.9</ele>
        <time>2011-05-29T09:24:04Z</time>
      </trkpt>
      <trkpt lat="43.62592" lon="3.68883">
        <ele>136.8</ele>
        <time>2011-05-29T09:24:05Z</time>
      </trkpt>
      <trkpt lat="43.62587" lon="3.68883">
        <ele>136.7</ele>
        <time>2011-05-29T09:24:06Z</time>
      </trkpt>
      <trkpt lat="43.62582" lon="3.68881">
        <ele>136.7</ele>
        <time>2011-05-29T09:24:07Z</time>
      </trkpt>
      <trkpt lat="43.62577" lon="3.68879">
        <ele>136.7</ele>
        <time>2011-05-29T09:24:08Z</time>
      </trkpt>
      <trkpt lat="43.62572" lon="3.68877">
        <ele>136.7</ele>
        <time>2011-05-29T09:24:09Z</time>
      </trkpt>
      <trkpt lat="43.62567" lon="3.68874">
        <ele>136.8</ele>
        <time>2011-05-29T09:24:10Z</time>
      </trkpt>
      <trkpt lat="43.62562" lon="3.68871">
        <ele>136.8</ele>
        <time>2011-05-29T09:24:11Z</time>
      </trkpt>
      <trkpt lat="43.62558" lon="3.68869">
        <ele>136.8</ele>
        <time>2011-05-29T09:24:12Z</time>
      </trkpt>
      <trkpt lat="43.6255" lon="3.68866">
        <ele>136.7</ele>
        <time>2011-05-29T09:24:14Z</time>
      </trkpt>
      <trkpt lat="43.62541" lon="3.68864">
        <ele>136.6</ele>
        <time>2011-05-29T09:24:17Z</time>
      </trkpt>
      <trkpt lat="43.62533" lon="3.68864">
        <ele>136.4</ele>
        <time>2011-05-29T09:24:20Z</time>
      </trkpt>
      <trkpt lat="43.62524" lon="3.68866">
        <ele>136.2</ele>
        <time>2011-05-29T09:24:22Z</time>
      </trkpt>
      <trkpt lat="43.6252" lon="3.68866">
        <ele>136</ele>
        <time>2011-05-29T09:24:23Z</time>
      </trkpt>
      <trkpt lat="43.62515" lon="3.68869">
        <ele>135.9</ele>
        <time>2011-05-29T09:24:24Z</time>
      </trkpt>
      <trkpt lat="43.62512" lon="3.68873">
        <ele>135.7</ele>
        <time>2011-05-29T09:24:25Z</time>
      </trkpt>
      <trkpt lat="43.62508" lon="3.68879">
        <ele>135.6</ele>
        <time>2011-05-29T09:24:26Z</time>
      </trkpt>
      <trkpt lat="43.62506" lon="3.68886">
        <ele>135.4</ele>
        <time>2011-05-29T09:24:27Z</time>
      </trkpt>
      <trkpt lat="43.62504" lon="3.68894">
        <ele>135.3</ele>
        <time>2011-05-29T09:24:28Z</time>
      </trkpt>
      <trkpt lat="43.62503" lon="3.68902">
        <ele>135.2</ele>
        <time>2011-05-29T09:24:29Z</time>
      </trkpt>
      <trkpt lat="43.62501" lon="3.6891">
        <ele>135.1</ele>
        <time>2011-05-29T09:24:30Z</time>
      </trkpt>
      <trkpt lat="43.625" lon="3.68919">
        <ele>135.1</ele>
        <time>2011-05-29T09:24:31Z</time>
      </trkpt>
      <trkpt lat="43.62499" lon="3.68927">
        <ele>135.3</ele>
        <time>2011-05-29T09:24:32Z</time>
      </trkpt>
      <trkpt lat="43.62498" lon="3.68935">
        <ele>135.6</ele>
        <time>2011-05-29T09:24:33Z</time>
      </trkpt>
      <trkpt lat="43.62496" lon="3.68942">
        <ele>135.8</ele>
        <time>2011-05-29T09:24:34Z</time>
      </trkpt>
      <trkpt lat="43.62495" lon="3.68949">
        <ele>136</ele>
        <time>2011-05-29T09:24:35Z</time>
      </trkpt>
      <trkpt lat="43.62494" lon="3.68956">
        <ele>136.2</ele>
        <time>2011-05-29T09:24:36Z</time>
      </trkpt>
      <trkpt lat="43.62493" lon="3.68963">
        <ele>136.4</ele>
        <time>2011-05-29T09:24:37Z</time>
      </trkpt>
      <trkpt lat="43.62491" lon="3.68969">
        <ele>136.6</ele>
        <time>2011-05-29T09:24:38Z</time>
      </trkpt>
      <trkpt lat="43.6249" lon="3.68976">
        <ele>136.8</ele>
        <time>2011-05-29T09:24:39Z</time>
      </trkpt>
      <trkpt lat="43.62488" lon="3.68988">
        <ele>137.1</ele>
        <time>2011-05-29T09:24:41Z</time>
      </trkpt>
      <trkpt lat="43.62486" lon="3.68999">
        <ele>137.5</ele>
        <time>2011-05-29T09:24:43Z</time>
      </trkpt>
      <trkpt lat="43.62484" lon="3.69011">
        <ele>137.6</ele>
        <time>2011-05-29T09:24:45Z</time>
      </trkpt>
      <trkpt lat="43.62481" lon="3.69022">
        <ele>137.8</ele>
        <time>2011-05-29T09:24:47Z</time>
      </trkpt>
      <trkpt lat="43.62477" lon="3.69033">
        <ele>138</ele>
        <time>2011-05-29T09:24:49Z</time>
      </trkpt>
      <trkpt lat="43.62472" lon="3.69044">
        <ele>138.2</ele>
        <time>2011-05-29T09:24:51Z</time>
      </trkpt>
      <trkpt lat="43.62468" lon="3.69054">
        <ele>138.5</ele>
        <time>2011-05-29T09:24:53Z</time>
      </trkpt>
      <trkpt lat="43.62463" lon="3.69062">
        <ele>138.7</ele>
        <time>2011-05-29T09:24:55Z</time>
      </trkpt>
      <trkpt lat="43.62458" lon="3.69071">
        <ele>139.1</ele>
        <time>2011-05-29T09:24:57Z</time>
      </trkpt>
      <trkpt lat="43.62454" lon="3.69079">
        <ele>139.4</ele>
        <time>2011-05-29T09:24:59Z</time>
      </trkpt>
      <trkpt lat="43.62449" lon="3.69086">
        <ele>139.7</ele>
        <time>2011-05-29T09:25:01Z</time>
      </trkpt>
      <trkpt lat="43.62445" lon="3.69094">
        <ele>140.1</ele>
        <time>2011-05-29T09:25:03Z</time>
      </trkpt>
      <trkpt lat="43.62442" lon="3.69102">
        <ele>140.5</ele>
        <time>2011-05-29T09:25:05Z</time>
      </trkpt>
      <trkpt lat="43.62438" lon="3.6911">
        <ele>140.9</ele>
        <time>2011-05-29T09:25:07Z</time>
      </trkpt>
      <trkpt lat="43.62435" lon="3.69119">
        <ele>141.5</ele>
        <time>2011-05-29T09:25:09Z</time>
      </trkpt>
      <trkpt lat="43.62431" lon="3.69127">
        <ele>142</ele>
        <time>2011-05-29T09:25:11Z</time>
      </trkpt>
      <trkpt lat="43.62429" lon="3.69131">
        <ele>142.3</ele>
        <time>2011-05-29T09:25:12Z</time>
      </trkpt>
      <trkpt lat="43.62424" lon="3.69143">
        <ele>143.2</ele>
        <time>2011-05-29T09:25:15Z</time>
      </trkpt>
      <trkpt lat="43.62422" lon="3.69152">
        <ele>143.8</ele>
        <time>2011-05-29T09:25:17Z</time>
      </trkpt>
      <trkpt lat="43.6242" lon="3.69161">
        <ele>144.4</ele>
        <time>2011-05-29T09:25:19Z</time>
      </trkpt>
      <trkpt lat="43.62418" lon="3.6917">
        <ele>145</ele>
        <time>2011-05-29T09:25:21Z</time>
      </trkpt>
      <trkpt lat="43.62416" lon="3.69179">
        <ele>145.3</ele>
        <time>2011-05-29T09:25:23Z</time>
      </trkpt>
      <trkpt lat="43.62414" lon="3.69187">
        <ele>145.4</ele>
        <time>2011-05-29T09:25:25Z</time>
      </trkpt>
      <trkpt lat="43.6241" lon="3.69195">
        <ele>145.6</ele>
        <time>2011-05-29T09:25:27Z</time>
      </trkpt>
      <trkpt lat="43.62407" lon="3.69203">
        <ele>145.7</ele>
        <time>2011-05-29T09:25:29Z</time>
      </trkpt>
      <trkpt lat="43.62402" lon="3.6921">
        <ele>145.8</ele>
        <time>2011-05-29T09:25:31Z</time>
      </trkpt>
      <trkpt lat="43.62398" lon="3.69218">
        <ele>145.9</ele>
        <time>2011-05-29T09:25:33Z</time>
      </trkpt>
      <trkpt lat="43.62395" lon="3.69226">
        <ele>146.1</ele>
        <time>2011-05-29T09:25:35Z</time>
      </trkpt>
      <trkpt lat="43.62391" lon="3.69233">
        <ele>146.2</ele>
        <time>2011-05-29T09:25:37Z</time>
      </trkpt>
      <trkpt lat="43.62387" lon="3.69244">
        <ele>146.5</ele>
        <time>2011-05-29T09:25:40Z</time>
      </trkpt>
      <trkpt lat="43.62382" lon="3.69254">
        <ele>146.7</ele>
        <time>2011-05-29T09:25:43Z</time>
      </trkpt>
      <trkpt lat="43.62378" lon="3.69264">
        <ele>147</ele>
        <time>2011-05-29T09:25:46Z</time>
      </trkpt>
      <trkpt lat="43.62373" lon="3.69274">
        <ele>147.4</ele>
        <time>2011-05-29T09:25:49Z</time>
      </trkpt>
      <trkpt lat="43.62369" lon="3.69285">
        <ele>147.8</ele>
        <time>2011-05-29T09:25:52Z</time>
      </trkpt>
      <trkpt lat="43.62364" lon="3.69294">
        <ele>148.2</ele>
        <time>2011-05-29T09:25:55Z</time>
      </trkpt>
      <trkpt lat="43.6236" lon="3.69305">
        <ele>148.8</ele>
        <time>2011-05-29T09:25:58Z</time>
      </trkpt>
      <trkpt lat="43.62356" lon="3.69315">
        <ele>149.3</ele>
        <time>2011-05-29T09:26:01Z</time>
      </trkpt>
      <trkpt lat="43.62352" lon="3.69326">
        <ele>150</ele>
        <time>2011-05-29T09:26:04Z</time>
      </trkpt>
      <trkpt lat="43.62347" lon="3.69334">
        <ele>150.6</ele>
        <time>2011-05-29T09:26:07Z</time>
      </trkpt>
      <trkpt lat="43.62343" lon="3.69342">
        <ele>151.2</ele>
        <time>2011-05-29T09:26:10Z</time>
      </trkpt>
      <trkpt lat="43.62338" lon="3.6935">
        <ele>152</ele>
        <time>2011-05-29T09:26:13Z</time>
      </trkpt>
      <trkpt lat="43.62337" lon="3.69353">
        <ele>152.2</ele>
        <time>2011-05-29T09:26:14Z</time>
      </trkpt>
      <trkpt lat="43.62329" lon="3.69367">
        <ele>153.3</ele>
        <time>2011-05-29T09:26:20Z</time>
      </trkpt>
      <trkpt lat="43.62325" lon="3.69375">
        <ele>153.7</ele>
        <time>2011-05-29T09:26:23Z</time>
      </trkpt>
      <trkpt lat="43.62321" lon="3.69382">
        <ele>154.2</ele>
        <time>2011-05-29T09:26:26Z</time>
      </trkpt>
      <trkpt lat="43.62316" lon="3.6939">
        <ele>154.6</ele>
        <time>2011-05-29T09:26:29Z</time>
      </trkpt>
      <trkpt lat="43.62312" lon="3.69398">
        <ele>155.2</ele>
        <time>2011-05-29T09:26:32Z</time>
      </trkpt>
      <trkpt lat="43.62308" lon="3.69406">
        <ele>155.8</ele>
        <time>2011-05-29T09:26:35Z</time>
      </trkpt>
      <trkpt lat="43.62302" lon="3.69415">
        <ele>156.4</ele>
        <time>2011-05-29T09:26:39Z</time>
      </trkpt>
      <trkpt lat="43.62297" lon="3.69422">
        <ele>156.7</ele>
        <time>2011-05-29T09:26:42Z</time>
      </trkpt>
      <trkpt lat="43.62292" lon="3.69428">
        <ele>156.9</ele>
        <time>2011-05-29T09:26:45Z</time>
      </trkpt>
      <trkpt lat="43.62288" lon="3.69436">
        <ele>157.2</ele>
        <time>2011-05-29T09:26:48Z</time>
      </trkpt>
      <trkpt lat="43.62283" lon="3.69443">
        <ele>157.5</ele>
        <time>2011-05-29T09:26:51Z</time>
      </trkpt>
      <trkpt lat="43.62278" lon="3.6945">
        <ele>157.8</ele>
        <time>2011-05-29T09:26:54Z</time>
      </trkpt>
      <trkpt lat="43.62275" lon="3.69459">
        <ele>158.2</ele>
        <time>2011-05-29T09:26:57Z</time>
      </trkpt>
      <trkpt lat="43.62271" lon="3.69467">
        <ele>158.7</ele>
        <time>2011-05-29T09:27:00Z</time>
      </trkpt>
      <trkpt lat="43.62266" lon="3.69475">
        <ele>159.1</ele>
        <time>2011-05-29T09:27:03Z</time>
      </trkpt>
      <trkpt lat="43.62261" lon="3.69483">
        <ele>159.7</ele>
        <time>2011-05-29T09:27:06Z</time>
      </trkpt>
      <trkpt lat="43.62257" lon="3.69492">
        <ele>160.3</ele>
        <time>2011-05-29T09:27:09Z</time>
      </trkpt>
      <trkpt lat="43.62252" lon="3.695">
        <ele>160.9</ele>
        <time>2011-05-29T09:27:12Z</time>
      </trkpt>
      <trkpt lat="43.62248" lon="3.69508">
        <ele>161</ele>
        <time>2011-05-29T09:27:15Z</time>
      </trkpt>
      <trkpt lat="43.62246" lon="3.69511">
        <ele>161</ele>
        <time>2011-05-29T09:27:16Z</time>
      </trkpt>
      <trkpt lat="43.6224" lon="3.69525">
        <ele>161.1</ele>
        <time>2011-05-29T09:27:21Z</time>
      </trkpt>
      <trkpt lat="43.62238" lon="3.69534">
        <ele>161.3</ele>
        <time>2011-05-29T09:27:24Z</time>
      </trkpt>
      <trkpt lat="43.62235" lon="3.69544">
        <ele>161.5</ele>
        <time>2011-05-29T09:27:27Z</time>
      </trkpt>
      <trkpt lat="43.62232" lon="3.69553">
        <ele>161.7</ele>
        <time>2011-05-29T09:27:30Z</time>
      </trkpt>
      <trkpt lat="43.62228" lon="3.69562">
        <ele>161.9</ele>
        <time>2011-05-29T09:27:33Z</time>
      </trkpt>
      <trkpt lat="43.62224" lon="3.6957">
        <ele>162.1</ele>
        <time>2011-05-29T09:27:36Z</time>
      </trkpt>
      <trkpt lat="43.62218" lon="3.69576">
        <ele>162.1</ele>
        <time>2011-05-29T09:27:39Z</time>
      </trkpt>
      <trkpt lat="43.62211" lon="3.69583">
        <ele>162.1</ele>
        <time>2011-05-29T09:27:43Z</time>
      </trkpt>
      <trkpt lat="43.62206" lon="3.69589">
        <ele>162</ele>
        <time>2011-05-29T09:27:46Z</time>
      </trkpt>
      <trkpt lat="43.622" lon="3.69598">
        <ele>162</ele>
        <time>2011-05-29T09:27:49Z</time>
      </trkpt>
      <trkpt lat="43.62196" lon="3.69609">
        <ele>162.3</ele>
        <time>2011-05-29T09:27:52Z</time>
      </trkpt>
      <trkpt lat="43.62193" lon="3.69617">
        <ele>162.5</ele>
        <time>2011-05-29T09:27:54Z</time>
      </trkpt>
      <trkpt lat="43.6219" lon="3.69626">
        <ele>162.9</ele>
        <time>2011-05-29T09:27:56Z</time>
      </trkpt>
      <trkpt lat="43.62187" lon="3.69634">
        <ele>163.3</ele>
        <time>2011-05-29T09:27:58Z</time>
      </trkpt>
      <trkpt lat="43.62184" lon="3.69641">
        <ele>163.7</ele>
        <time>2011-05-29T09:28:00Z</time>
      </trkpt>
      <trkpt lat="43.62179" lon="3.69651">
        <ele>164.4</ele>
        <time>2011-05-29T09:28:03Z</time>
      </trkpt>
      <trkpt lat="43.62175" lon="3.69659">
        <ele>165.1</ele>
        <time>2011-05-29T09:28:06Z</time>
      </trkpt>
      <trkpt lat="43.62169" lon="3.69668">
        <ele>165.8</ele>
        <time>2011-05-29T09:28:10Z</time>
      </trkpt>
      <trkpt lat="43.62163" lon="3.69678">
        <ele>165.6</ele>
        <time>2011-05-29T09:28:14Z</time>
      </trkpt>
      <trkpt lat="43.62159" lon="3.69688">
        <ele>165.3</ele>
        <time>2011-05-29T09:28:18Z</time>
      </trkpt>
      <trkpt lat="43.62158" lon="3.6969">
        <ele>165.2</ele>
        <time>2011-05-29T09:28:19Z</time>
      </trkpt>
      <trkpt lat="43.6215" lon="3.69702">
        <ele>164.9</ele>
        <time>2011-05-29T09:28:24Z</time>
      </trkpt>
      <trkpt lat="43.62146" lon="3.6971">
        <ele>164.9</ele>
        <time>2011-05-29T09:28:27Z</time>
      </trkpt>
      <trkpt lat="43.6214" lon="3.69719">
        <ele>164.9</ele>
        <time>2011-05-29T09:28:30Z</time>
      </trkpt>
      <trkpt lat="43.62135" lon="3.69726">
        <ele>164.9</ele>
        <time>2011-05-29T09:28:33Z</time>
      </trkpt>
      <trkpt lat="43.62131" lon="3.69734">
        <ele>165.1</ele>
        <time>2011-05-29T09:28:36Z</time>
      </trkpt>
      <trkpt lat="43.62126" lon="3.69742">
        <ele>165.3</ele>
        <time>2011-05-29T09:28:39Z</time>
      </trkpt>
      <trkpt lat="43.62121" lon="3.6975">
        <ele>165.6</ele>
        <time>2011-05-29T09:28:42Z</time>
      </trkpt>
      <trkpt lat="43.62117" lon="3.69758">
        <ele>165.9</ele>
        <time>2011-05-29T09:28:45Z</time>
      </trkpt>
      <trkpt lat="43.62112" lon="3.69766">
        <ele>166.2</ele>
        <time>2011-05-29T09:28:48Z</time>
      </trkpt>
      <trkpt lat="43.62107" lon="3.69775">
        <ele>166.6</ele>
        <time>2011-05-29T09:28:51Z</time>
      </trkpt>
      <trkpt lat="43.62102" lon="3.69784">
        <ele>167.1</ele>
        <time>2011-05-29T09:28:54Z</time>
      </trkpt>
      <trkpt lat="43.62097" lon="3.69793">
        <ele>167.6</ele>
        <time>2011-05-29T09:28:57Z</time>
      </trkpt>
      <trkpt lat="43.62094" lon="3.698">
        <ele>168</ele>
        <time>2011-05-29T09:28:59Z</time>
      </trkpt>
      <trkpt lat="43.62091" lon="3.69808">
        <ele>168.5</ele>
        <time>2011-05-29T09:29:01Z</time>
      </trkpt>
      <trkpt lat="43.62087" lon="3.69817">
        <ele>169.1</ele>
        <time>2011-05-29T09:29:03Z</time>
      </trkpt>
      <trkpt lat="43.62083" lon="3.69826">
        <ele>169.7</ele>
        <time>2011-05-29T09:29:05Z</time>
      </trkpt>
      <trkpt lat="43.62079" lon="3.69835">
        <ele>170.1</ele>
        <time>2011-05-29T09:29:07Z</time>
      </trkpt>
      <trkpt lat="43.62075" lon="3.69845">
        <ele>170.1</ele>
        <time>2011-05-29T09:29:09Z</time>
      </trkpt>
      <trkpt lat="43.6207" lon="3.69854">
        <ele>170.3</ele>
        <time>2011-05-29T09:29:11Z</time>
      </trkpt>
      <trkpt lat="43.62064" lon="3.69863">
        <ele>170.5</ele>
        <time>2011-05-29T09:29:13Z</time>
      </trkpt>
      <trkpt lat="43.6206" lon="3.69872">
        <ele>170.7</ele>
        <time>2011-05-29T09:29:15Z</time>
      </trkpt>
      <trkpt lat="43.62054" lon="3.69881">
        <ele>170.9</ele>
        <time>2011-05-29T09:29:17Z</time>
      </trkpt>
      <trkpt lat="43.6205" lon="3.6989">
        <ele>171.2</ele>
        <time>2011-05-29T09:29:19Z</time>
      </trkpt>
      <trkpt lat="43.62048" lon="3.69895">
        <ele>171.4</ele>
        <time>2011-05-29T09:29:20Z</time>
      </trkpt>
      <trkpt lat="43.62042" lon="3.69911">
        <ele>171.9</ele>
        <time>2011-05-29T09:29:23Z</time>
      </trkpt>
      <trkpt lat="43.62038" lon="3.69922">
        <ele>172.2</ele>
        <time>2011-05-29T09:29:25Z</time>
      </trkpt>
      <trkpt lat="43.62036" lon="3.69927">
        <ele>172.3</ele>
        <time>2011-05-29T09:29:26Z</time>
      </trkpt>
      <trkpt lat="43.62034" lon="3.69933">
        <ele>172.5</ele>
        <time>2011-05-29T09:29:27Z</time>
      </trkpt>
      <trkpt lat="43.62032" lon="3.69938">
        <ele>172.6</ele>
        <time>2011-05-29T09:29:28Z</time>
      </trkpt>
      <trkpt lat="43.62029" lon="3.69944">
        <ele>172.8</ele>
        <time>2011-05-29T09:29:29Z</time>
      </trkpt>
      <trkpt lat="43.62027" lon="3.69949">
        <ele>173</ele>
        <time>2011-05-29T09:29:30Z</time>
      </trkpt>
      <trkpt lat="43.62024" lon="3.69955">
        <ele>173.2</ele>
        <time>2011-05-29T09:29:31Z</time>
      </trkpt>
      <trkpt lat="43.62021" lon="3.6996">
        <ele>173.4</ele>
        <time>2011-05-29T09:29:32Z</time>
      </trkpt>
      <trkpt lat="43.62018" lon="3.69965">
        <ele>173.6</ele>
        <time>2011-05-29T09:29:33Z</time>
      </trkpt>
      <trkpt lat="43.62014" lon="3.6997">
        <ele>173.9</ele>
        <time>2011-05-29T09:29:34Z</time>
      </trkpt>
      <trkpt lat="43.62011" lon="3.69976">
        <ele>174.1</ele>
        <time>2011-05-29T09:29:35Z</time>
      </trkpt>
      <trkpt lat="43.62007" lon="3.69981">
        <ele>174.4</ele>
        <time>2011-05-29T09:29:36Z</time>
      </trkpt>
      <trkpt lat="43.62003" lon="3.69986">
        <ele>174.6</ele>
        <time>2011-05-29T09:29:37Z</time>
      </trkpt>
      <trkpt lat="43.62" lon="3.69991">
        <ele>174.9</ele>
        <time>2011-05-29T09:29:38Z</time>
      </trkpt>
      <trkpt lat="43.61996" lon="3.69996">
        <ele>175.1</ele>
        <time>2011-05-29T09:29:39Z</time>
      </trkpt>
      <trkpt lat="43.61991" lon="3.70005">
        <ele>175.4</ele>
        <time>2011-05-29T09:29:41Z</time>
      </trkpt>
      <trkpt lat="43.61989" lon="3.70016">
        <ele>175.6</ele>
        <time>2011-05-29T09:29:43Z</time>
      </trkpt>
      <trkpt lat="43.61992" lon="3.70027">
        <ele>175.6</ele>
        <time>2011-05-29T09:29:45Z</time>
      </trkpt>
      <trkpt lat="43.61992" lon="3.7004">
        <ele>175.8</ele>
        <time>2011-05-29T09:29:48Z</time>
      </trkpt>
      <trkpt lat="43.61989" lon="3.7005">
        <ele>176</ele>
        <time>2011-05-29T09:29:52Z</time>
      </trkpt>
      <trkpt lat="43.61986" lon="3.7006">
        <ele>176.2</ele>
        <time>2011-05-29T09:29:55Z</time>
      </trkpt>
      <trkpt lat="43.61983" lon="3.7007">
        <ele>176.4</ele>
        <time>2011-05-29T09:29:58Z</time>
      </trkpt>
      <trkpt lat="43.6198" lon="3.70079">
        <ele>176.7</ele>
        <time>2011-05-29T09:30:01Z</time>
      </trkpt>
      <trkpt lat="43.61976" lon="3.70087">
        <ele>177</ele>
        <time>2011-05-29T09:30:04Z</time>
      </trkpt>
      <trkpt lat="43.61971" lon="3.70094">
        <ele>177.4</ele>
        <time>2011-05-29T09:30:07Z</time>
      </trkpt>
      <trkpt lat="43.61966" lon="3.70102">
        <ele>177.8</ele>
        <time>2011-05-29T09:30:10Z</time>
      </trkpt>
      <trkpt lat="43.61962" lon="3.70111">
        <ele>178.2</ele>
        <time>2011-05-29T09:30:13Z</time>
      </trkpt>
      <trkpt lat="43.61958" lon="3.70121">
        <ele>178.7</ele>
        <time>2011-05-29T09:30:16Z</time>
      </trkpt>
      <trkpt lat="43.61954" lon="3.70132">
        <ele>179.2</ele>
        <time>2011-05-29T09:30:19Z</time>
      </trkpt>
      <trkpt lat="43.6195" lon="3.70143">
        <ele>179.7</ele>
        <time>2011-05-29T09:30:22Z</time>
      </trkpt>
      <trkpt lat="43.61948" lon="3.70146">
        <ele>179.8</ele>
        <time>2011-05-29T09:30:23Z</time>
      </trkpt>
      <trkpt lat="43.61943" lon="3.7016">
        <ele>180.5</ele>
        <time>2011-05-29T09:30:27Z</time>
      </trkpt>
      <trkpt lat="43.6194" lon="3.70167">
        <ele>180.9</ele>
        <time>2011-05-29T09:30:29Z</time>
      </trkpt>
      <trkpt lat="43.61936" lon="3.70175">
        <ele>181.1</ele>
        <time>2011-05-29T09:30:31Z</time>
      </trkpt>
      <trkpt lat="43.61933" lon="3.70184">
        <ele>181.3</ele>
        <time>2011-05-29T09:30:33Z</time>
      </trkpt>
      <trkpt lat="43.6193" lon="3.70193">
        <ele>181.6</ele>
        <time>2011-05-29T09:30:35Z</time>
      </trkpt>
      <trkpt lat="43.61926" lon="3.70201">
        <ele>181.8</ele>
        <time>2011-05-29T09:30:37Z</time>
      </trkpt>
      <trkpt lat="43.61922" lon="3.70209">
        <ele>182.1</ele>
        <time>2011-05-29T09:30:39Z</time>
      </trkpt>
      <trkpt lat="43.61919" lon="3.70216">
        <ele>182.5</ele>
        <time>2011-05-29T09:30:41Z</time>
      </trkpt>
      <trkpt lat="43.61915" lon="3.70224">
        <ele>182.8</ele>
        <time>2011-05-29T09:30:43Z</time>
      </trkpt>
      <trkpt lat="43.61912" lon="3.70231">
        <ele>183.1</ele>
        <time>2011-05-29T09:30:45Z</time>
      </trkpt>
      <trkpt lat="43.61909" lon="3.70238">
        <ele>183.5</ele>
        <time>2011-05-29T09:30:47Z</time>
      </trkpt>
      <trkpt lat="43.61906" lon="3.70246">
        <ele>183.9</ele>
        <time>2011-05-29T09:30:49Z</time>
      </trkpt>
      <trkpt lat="43.61903" lon="3.70253">
        <ele>184.2</ele>
        <time>2011-05-29T09:30:51Z</time>
      </trkpt>
      <trkpt lat="43.61898" lon="3.70263">
        <ele>184.7</ele>
        <time>2011-05-29T09:30:54Z</time>
      </trkpt>
      <trkpt lat="43.61894" lon="3.70273">
        <ele>185.1</ele>
        <time>2011-05-29T09:30:57Z</time>
      </trkpt>
      <trkpt lat="43.61889" lon="3.70283">
        <ele>185.6</ele>
        <time>2011-05-29T09:31:01Z</time>
      </trkpt>
      <trkpt lat="43.61885" lon="3.70294">
        <ele>186</ele>
        <time>2011-05-29T09:31:05Z</time>
      </trkpt>
      <trkpt lat="43.6188" lon="3.70304">
        <ele>186.4</ele>
        <time>2011-05-29T09:31:09Z</time>
      </trkpt>
      <trkpt lat="43.61876" lon="3.70314">
        <ele>186.8</ele>
        <time>2011-05-29T09:31:13Z</time>
      </trkpt>
      <trkpt lat="43.61871" lon="3.70323">
        <ele>187.2</ele>
        <time>2011-05-29T09:31:16Z</time>
      </trkpt>
      <trkpt lat="43.61867" lon="3.70332">
        <ele>187.6</ele>
        <time>2011-05-29T09:31:19Z</time>
      </trkpt>
      <trkpt lat="43.61862" lon="3.70342">
        <ele>187.9</ele>
        <time>2011-05-29T09:31:22Z</time>
      </trkpt>
      <trkpt lat="43.61857" lon="3.70351">
        <ele>188.2</ele>
        <time>2011-05-29T09:31:25Z</time>
      </trkpt>
      <trkpt lat="43.61855" lon="3.70354">
        <ele>188.3</ele>
        <time>2011-05-29T09:31:26Z</time>
      </trkpt>
      <trkpt lat="43.61847" lon="3.70367">
        <ele>188.7</ele>
        <time>2011-05-29T09:31:30Z</time>
      </trkpt>
      <trkpt lat="43.61843" lon="3.70373">
        <ele>188.9</ele>
        <time>2011-05-29T09:31:32Z</time>
      </trkpt>
      <trkpt lat="43.61838" lon="3.7038">
        <ele>189.1</ele>
        <time>2011-05-29T09:31:34Z</time>
      </trkpt>
      <trkpt lat="43.61834" lon="3.70387">
        <ele>189.3</ele>
        <time>2011-05-29T09:31:36Z</time>
      </trkpt>
      <trkpt lat="43.61828" lon="3.70394">
        <ele>189.7</ele>
        <time>2011-05-29T09:31:38Z</time>
      </trkpt>
      <trkpt lat="43.61823" lon="3.70401">
        <ele>190.1</ele>
        <time>2011-05-29T09:31:40Z</time>
      </trkpt>
      <trkpt lat="43.61819" lon="3.70408">
        <ele>190.6</ele>
        <time>2011-05-29T09:31:42Z</time>
      </trkpt>
      <trkpt lat="43.61814" lon="3.70414">
        <ele>191.1</ele>
        <time>2011-05-29T09:31:44Z</time>
      </trkpt>
      <trkpt lat="43.61808" lon="3.7042">
        <ele>191.5</ele>
        <time>2011-05-29T09:31:46Z</time>
      </trkpt>
      <trkpt lat="43.61803" lon="3.70427">
        <ele>191.8</ele>
        <time>2011-05-29T09:31:48Z</time>
      </trkpt>
      <trkpt lat="43.61797" lon="3.70433">
        <ele>192.1</ele>
        <time>2011-05-29T09:31:50Z</time>
      </trkpt>
      <trkpt lat="43.6179" lon="3.70438">
        <ele>192.5</ele>
        <time>2011-05-29T09:31:52Z</time>
      </trkpt>
      <trkpt lat="43.61783" lon="3.70444">
        <ele>192.9</ele>
        <time>2011-05-29T09:31:54Z</time>
      </trkpt>
      <trkpt lat="43.61776" lon="3.70449">
        <ele>193.4</ele>
        <time>2011-05-29T09:31:56Z</time>
      </trkpt>
      <trkpt lat="43.61769" lon="3.70453">
        <ele>193.9</ele>
        <time>2011-05-29T09:31:58Z</time>
      </trkpt>
      <trkpt lat="43.61762" lon="3.70457">
        <ele>194.3</ele>
        <time>2011-05-29T09:32:00Z</time>
      </trkpt>
      <trkpt lat="43.61755" lon="3.70462">
        <ele>194.8</ele>
        <time>2011-05-29T09:32:02Z</time>
      </trkpt>
      <trkpt lat="43.61748" lon="3.70467">
        <ele>195</ele>
        <time>2011-05-29T09:32:04Z</time>
      </trkpt>
      <trkpt lat="43.61742" lon="3.70471">
        <ele>194.5</ele>
        <time>2011-05-29T09:32:06Z</time>
      </trkpt>
      <trkpt lat="43.61735" lon="3.70475">
        <ele>194.2</ele>
        <time>2011-05-29T09:32:08Z</time>
      </trkpt>
      <trkpt lat="43.61729" lon="3.70479">
        <ele>193.9</ele>
        <time>2011-05-29T09:32:10Z</time>
      </trkpt>
      <trkpt lat="43.61722" lon="3.70484">
        <ele>193.6</ele>
        <time>2011-05-29T09:32:12Z</time>
      </trkpt>
      <trkpt lat="43.61715" lon="3.70489">
        <ele>193.3</ele>
        <time>2011-05-29T09:32:14Z</time>
      </trkpt>
      <trkpt lat="43.61708" lon="3.70494">
        <ele>193.1</ele>
        <time>2011-05-29T09:32:16Z</time>
      </trkpt>
      <trkpt lat="43.61701" lon="3.70499">
        <ele>193</ele>
        <time>2011-05-29T09:32:18Z</time>
      </trkpt>
      <trkpt lat="43.61694" lon="3.70504">
        <ele>192.8</ele>
        <time>2011-05-29T09:32:20Z</time>
      </trkpt>
      <trkpt lat="43.61686" lon="3.70509">
        <ele>192.7</ele>
        <time>2011-05-29T09:32:22Z</time>
      </trkpt>
      <trkpt lat="43.61679" lon="3.70514">
        <ele>192.6</ele>
        <time>2011-05-29T09:32:24Z</time>
      </trkpt>
      <trkpt lat="43.61671" lon="3.70518">
        <ele>192.5</ele>
        <time>2011-05-29T09:32:26Z</time>
      </trkpt>
      <trkpt lat="43.61667" lon="3.7052">
        <ele>192.5</ele>
        <time>2011-05-29T09:32:27Z</time>
      </trkpt>
      <trkpt lat="43.61656" lon="3.70526">
        <ele>191.8</ele>
        <time>2011-05-29T09:32:30Z</time>
      </trkpt>
      <trkpt lat="43.61648" lon="3.7053">
        <ele>191.4</ele>
        <time>2011-05-29T09:32:32Z</time>
      </trkpt>
      <trkpt lat="43.6164" lon="3.70534">
        <ele>191.1</ele>
        <time>2011-05-29T09:32:34Z</time>
      </trkpt>
      <trkpt lat="43.61632" lon="3.70539">
        <ele>190.7</ele>
        <time>2011-05-29T09:32:36Z</time>
      </trkpt>
      <trkpt lat="43.61624" lon="3.70543">
        <ele>190.5</ele>
        <time>2011-05-29T09:32:38Z</time>
      </trkpt>
      <trkpt lat="43.6162" lon="3.70545">
        <ele>190.4</ele>
        <time>2011-05-29T09:32:39Z</time>
      </trkpt>
      <trkpt lat="43.61615" lon="3.70548">
        <ele>190.3</ele>
        <time>2011-05-29T09:32:40Z</time>
      </trkpt>
      <trkpt lat="43.61608" lon="3.70555">
        <ele>190.2</ele>
        <time>2011-05-29T09:32:42Z</time>
      </trkpt>
      <trkpt lat="43.61604" lon="3.70564">
        <ele>190.4</ele>
        <time>2011-05-29T09:32:44Z</time>
      </trkpt>
      <trkpt lat="43.61602" lon="3.70573">
        <ele>190.7</ele>
        <time>2011-05-29T09:32:46Z</time>
      </trkpt>
      <trkpt lat="43.61601" lon="3.70583">
        <ele>191</ele>
        <time>2011-05-29T09:32:48Z</time>
      </trkpt>
      <trkpt lat="43.61601" lon="3.70593">
        <ele>191.5</ele>
        <time>2011-05-29T09:32:50Z</time>
      </trkpt>
      <trkpt lat="43.61599" lon="3.70603">
        <ele>192</ele>
        <time>2011-05-29T09:32:52Z</time>
      </trkpt>
      <trkpt lat="43.61598" lon="3.70612">
        <ele>192.5</ele>
        <time>2011-05-29T09:32:54Z</time>
      </trkpt>
      <trkpt lat="43.61597" lon="3.70622">
        <ele>193</ele>
        <time>2011-05-29T09:32:56Z</time>
      </trkpt>
      <trkpt lat="43.61596" lon="3.70634">
        <ele>193.7</ele>
        <time>2011-05-29T09:32:58Z</time>
      </trkpt>
      <trkpt lat="43.61595" lon="3.7064">
        <ele>194</ele>
        <time>2011-05-29T09:32:59Z</time>
      </trkpt>
      <trkpt lat="43.61594" lon="3.70646">
        <ele>194.4</ele>
        <time>2011-05-29T09:33:00Z</time>
      </trkpt>
      <trkpt lat="43.61594" lon="3.70653">
        <ele>194.8</ele>
        <time>2011-05-29T09:33:01Z</time>
      </trkpt>
      <trkpt lat="43.61593" lon="3.70659">
        <ele>195.1</ele>
        <time>2011-05-29T09:33:02Z</time>
      </trkpt>
      <trkpt lat="43.61592" lon="3.70665">
        <ele>195.5</ele>
        <time>2011-05-29T09:33:03Z</time>
      </trkpt>
      <trkpt lat="43.61591" lon="3.70671">
        <ele>195.5</ele>
        <time>2011-05-29T09:33:04Z</time>
      </trkpt>
      <trkpt lat="43.6159" lon="3.70678">
        <ele>195.3</ele>
        <time>2011-05-29T09:33:05Z</time>
      </trkpt>
      <trkpt lat="43.6159" lon="3.70684">
        <ele>195.1</ele>
        <time>2011-05-29T09:33:06Z</time>
      </trkpt>
      <trkpt lat="43.61589" lon="3.70691">
        <ele>194.9</ele>
        <time>2011-05-29T09:33:07Z</time>
      </trkpt>
      <trkpt lat="43.61588" lon="3.70697">
        <ele>194.7</ele>
        <time>2011-05-29T09:33:08Z</time>
      </trkpt>
      <trkpt lat="43.61588" lon="3.70703">
        <ele>194.5</ele>
        <time>2011-05-29T09:33:09Z</time>
      </trkpt>
      <trkpt lat="43.61587" lon="3.7071">
        <ele>194.3</ele>
        <time>2011-05-29T09:33:10Z</time>
      </trkpt>
      <trkpt lat="43.61587" lon="3.70716">
        <ele>194.1</ele>
        <time>2011-05-29T09:33:11Z</time>
      </trkpt>
      <trkpt lat="43.61586" lon="3.70723">
        <ele>193.9</ele>
        <time>2011-05-29T09:33:12Z</time>
      </trkpt>
      <trkpt lat="43.61586" lon="3.70729">
        <ele>193.7</ele>
        <time>2011-05-29T09:33:13Z</time>
      </trkpt>
      <trkpt lat="43.61585" lon="3.70736">
        <ele>193.5</ele>
        <time>2011-05-29T09:33:14Z</time>
      </trkpt>
      <trkpt lat="43.61585" lon="3.70742">
        <ele>193.2</ele>
        <time>2011-05-29T09:33:15Z</time>
      </trkpt>
      <trkpt lat="43.61585" lon="3.70748">
        <ele>193</ele>
        <time>2011-05-29T09:33:16Z</time>
      </trkpt>
      <trkpt lat="43.61584" lon="3.70754">
        <ele>192.8</ele>
        <time>2011-05-29T09:33:17Z</time>
      </trkpt>
      <trkpt lat="43.61583" lon="3.70761">
        <ele>192.5</ele>
        <time>2011-05-29T09:33:18Z</time>
      </trkpt>
      <trkpt lat="43.61582" lon="3.70767">
        <ele>192.2</ele>
        <time>2011-05-29T09:33:19Z</time>
      </trkpt>
      <trkpt lat="43.61582" lon="3.70774">
        <ele>191.9</ele>
        <time>2011-05-29T09:33:20Z</time>
      </trkpt>
      <trkpt lat="43.61581" lon="3.7078">
        <ele>191.6</ele>
        <time>2011-05-29T09:33:21Z</time>
      </trkpt>
      <trkpt lat="43.6158" lon="3.70787">
        <ele>191.3</ele>
        <time>2011-05-29T09:33:22Z</time>
      </trkpt>
      <trkpt lat="43.61579" lon="3.70793">
        <ele>191.1</ele>
        <time>2011-05-29T09:33:23Z</time>
      </trkpt>
      <trkpt lat="43.61579" lon="3.708">
        <ele>190.8</ele>
        <time>2011-05-29T09:33:24Z</time>
      </trkpt>
      <trkpt lat="43.61578" lon="3.70807">
        <ele>190.5</ele>
        <time>2011-05-29T09:33:25Z</time>
      </trkpt>
      <trkpt lat="43.61577" lon="3.70815">
        <ele>190.2</ele>
        <time>2011-05-29T09:33:26Z</time>
      </trkpt>
      <trkpt lat="43.61577" lon="3.70823">
        <ele>189.8</ele>
        <time>2011-05-29T09:33:27Z</time>
      </trkpt>
      <trkpt lat="43.61576" lon="3.70831">
        <ele>189.5</ele>
        <time>2011-05-29T09:33:28Z</time>
      </trkpt>
      <trkpt lat="43.61574" lon="3.70839">
        <ele>189.2</ele>
        <time>2011-05-29T09:33:29Z</time>
      </trkpt>
      <trkpt lat="43.61571" lon="3.70846">
        <ele>189.2</ele>
        <time>2011-05-29T09:33:30Z</time>
      </trkpt>
      <trkpt lat="43.61567" lon="3.70852">
        <ele>189.1</ele>
        <time>2011-05-29T09:33:31Z</time>
      </trkpt>
      <trkpt lat="43.61563" lon="3.70858">
        <ele>189.2</ele>
        <time>2011-05-29T09:33:32Z</time>
      </trkpt>
      <trkpt lat="43.61558" lon="3.70863">
        <ele>189.3</ele>
        <time>2011-05-29T09:33:33Z</time>
      </trkpt>
      <trkpt lat="43.61553" lon="3.70869">
        <ele>189.3</ele>
        <time>2011-05-29T09:33:34Z</time>
      </trkpt>
      <trkpt lat="43.61549" lon="3.70875">
        <ele>189.4</ele>
        <time>2011-05-29T09:33:35Z</time>
      </trkpt>
      <trkpt lat="43.61545" lon="3.7088">
        <ele>189.4</ele>
        <time>2011-05-29T09:33:36Z</time>
      </trkpt>
      <trkpt lat="43.61541" lon="3.70886">
        <ele>189.5</ele>
        <time>2011-05-29T09:33:37Z</time>
      </trkpt>
      <trkpt lat="43.61537" lon="3.70891">
        <ele>189.5</ele>
        <time>2011-05-29T09:33:38Z</time>
      </trkpt>
      <trkpt lat="43.61533" lon="3.70896">
        <ele>189.6</ele>
        <time>2011-05-29T09:33:39Z</time>
      </trkpt>
      <trkpt lat="43.6153" lon="3.70901">
        <ele>189.7</ele>
        <time>2011-05-29T09:33:40Z</time>
      </trkpt>
      <trkpt lat="43.61526" lon="3.70905">
        <ele>189.7</ele>
        <time>2011-05-29T09:33:41Z</time>
      </trkpt>
      <trkpt lat="43.61522" lon="3.7091">
        <ele>189.9</ele>
        <time>2011-05-29T09:33:42Z</time>
      </trkpt>
      <trkpt lat="43.61518" lon="3.70914">
        <ele>190</ele>
        <time>2011-05-29T09:33:43Z</time>
      </trkpt>
      <trkpt lat="43.61514" lon="3.70918">
        <ele>190.1</ele>
        <time>2011-05-29T09:33:44Z</time>
      </trkpt>
      <trkpt lat="43.6151" lon="3.70921">
        <ele>190.2</ele>
        <time>2011-05-29T09:33:45Z</time>
      </trkpt>
      <trkpt lat="43.61506" lon="3.70924">
        <ele>190.4</ele>
        <time>2011-05-29T09:33:46Z</time>
      </trkpt>
      <trkpt lat="43.61502" lon="3.70927">
        <ele>190.5</ele>
        <time>2011-05-29T09:33:47Z</time>
      </trkpt>
      <trkpt lat="43.61498" lon="3.7093">
        <ele>190.5</ele>
        <time>2011-05-29T09:33:48Z</time>
      </trkpt>
      <trkpt lat="43.61494" lon="3.70934">
        <ele>190.3</ele>
        <time>2011-05-29T09:33:49Z</time>
      </trkpt>
      <trkpt lat="43.6149" lon="3.70938">
        <ele>190.1</ele>
        <time>2011-05-29T09:33:50Z</time>
      </trkpt>
      <trkpt lat="43.61487" lon="3.70942">
        <ele>189.9</ele>
        <time>2011-05-29T09:33:51Z</time>
      </trkpt>
      <trkpt lat="43.61483" lon="3.70946">
        <ele>189.8</ele>
        <time>2011-05-29T09:33:52Z</time>
      </trkpt>
      <trkpt lat="43.6148" lon="3.70951">
        <ele>189.6</ele>
        <time>2011-05-29T09:33:53Z</time>
      </trkpt>
      <trkpt lat="43.61474" lon="3.7096">
        <ele>189.3</ele>
        <time>2011-05-29T09:33:55Z</time>
      </trkpt>
      <trkpt lat="43.61469" lon="3.70969">
        <ele>189.1</ele>
        <time>2011-05-29T09:33:57Z</time>
      </trkpt>
      <trkpt lat="43.61466" lon="3.70974">
        <ele>189</ele>
        <time>2011-05-29T09:33:58Z</time>
      </trkpt>
      <trkpt lat="43.61463" lon="3.70979">
        <ele>188.9</ele>
        <time>2011-05-29T09:33:59Z</time>
      </trkpt>
      <trkpt lat="43.6146" lon="3.70985">
        <ele>188.8</ele>
        <time>2011-05-29T09:34:00Z</time>
      </trkpt>
      <trkpt lat="43.61457" lon="3.7099">
        <ele>188.7</ele>
        <time>2011-05-29T09:34:01Z</time>
      </trkpt>
      <trkpt lat="43.61454" lon="3.70996">
        <ele>188.6</ele>
        <time>2011-05-29T09:34:02Z</time>
      </trkpt>
      <trkpt lat="43.6145" lon="3.71001">
        <ele>188.6</ele>
        <time>2011-05-29T09:34:03Z</time>
      </trkpt>
      <trkpt lat="43.61447" lon="3.71007">
        <ele>188.5</ele>
        <time>2011-05-29T09:34:04Z</time>
      </trkpt>
      <trkpt lat="43.61444" lon="3.71012">
        <ele>188.4</ele>
        <time>2011-05-29T09:34:05Z</time>
      </trkpt>
      <trkpt lat="43.61441" lon="3.71018">
        <ele>188.3</ele>
        <time>2011-05-29T09:34:06Z</time>
      </trkpt>
      <trkpt lat="43.61438" lon="3.71023">
        <ele>188.3</ele>
        <time>2011-05-29T09:34:07Z</time>
      </trkpt>
      <trkpt lat="43.61436" lon="3.71029">
        <ele>188.2</ele>
        <time>2011-05-29T09:34:08Z</time>
      </trkpt>
      <trkpt lat="43.61433" lon="3.71035">
        <ele>188.1</ele>
        <time>2011-05-29T09:34:09Z</time>
      </trkpt>
      <trkpt lat="43.61429" lon="3.71045">
        <ele>187.9</ele>
        <time>2011-05-29T09:34:11Z</time>
      </trkpt>
      <trkpt lat="43.61425" lon="3.71056">
        <ele>187.6</ele>
        <time>2011-05-29T09:34:16Z</time>
      </trkpt>
      <trkpt lat="43.61419" lon="3.71065">
        <ele>187.4</ele>
        <time>2011-05-29T09:35:43Z</time>
      </trkpt>
      <trkpt lat="43.61417" lon="3.71066">
        <ele>187.4</ele>
        <time>2011-05-29T09:35:44Z</time>
      </trkpt>
      <trkpt lat="43.61407" lon="3.71072">
        <ele>187.1</ele>
        <time>2011-05-29T09:35:48Z</time>
      </trkpt>
      <trkpt lat="43.614" lon="3.71077">
        <ele>186.9</ele>
        <time>2011-05-29T09:35:50Z</time>
      </trkpt>
      <trkpt lat="43.61393" lon="3.71081">
        <ele>186.7</ele>
        <time>2011-05-29T09:35:52Z</time>
      </trkpt>
      <trkpt lat="43.61386" lon="3.71087">
        <ele>186.7</ele>
        <time>2011-05-29T09:35:54Z</time>
      </trkpt>
      <trkpt lat="43.61379" lon="3.71094">
        <ele>186.7</ele>
        <time>2011-05-29T09:35:56Z</time>
      </trkpt>
      <trkpt lat="43.61371" lon="3.71101">
        <ele>186.8</ele>
        <time>2011-05-29T09:35:58Z</time>
      </trkpt>
      <trkpt lat="43.61368" lon="3.71105">
        <ele>186.9</ele>
        <time>2011-05-29T09:35:59Z</time>
      </trkpt>
      <trkpt lat="43.61364" lon="3.71109">
        <ele>187</ele>
        <time>2011-05-29T09:36:00Z</time>
      </trkpt>
      <trkpt lat="43.61361" lon="3.71113">
        <ele>187.2</ele>
        <time>2011-05-29T09:36:01Z</time>
      </trkpt>
      <trkpt lat="43.61357" lon="3.71117">
        <ele>187.3</ele>
        <time>2011-05-29T09:36:02Z</time>
      </trkpt>
      <trkpt lat="43.6135" lon="3.71124">
        <ele>187.7</ele>
        <time>2011-05-29T09:36:04Z</time>
      </trkpt>
      <trkpt lat="43.61343" lon="3.71131">
        <ele>188.1</ele>
        <time>2011-05-29T09:36:06Z</time>
      </trkpt>
      <trkpt lat="43.61336" lon="3.71138">
        <ele>188.6</ele>
        <time>2011-05-29T09:36:08Z</time>
      </trkpt>
      <trkpt lat="43.61329" lon="3.71146">
        <ele>188.9</ele>
        <time>2011-05-29T09:36:10Z</time>
      </trkpt>
      <trkpt lat="43.61322" lon="3.71153">
        <ele>189.1</ele>
        <time>2011-05-29T09:36:12Z</time>
      </trkpt>
      <trkpt lat="43.61316" lon="3.71159">
        <ele>189.4</ele>
        <time>2011-05-29T09:36:14Z</time>
      </trkpt>
      <trkpt lat="43.61309" lon="3.71166">
        <ele>189.7</ele>
        <time>2011-05-29T09:36:16Z</time>
      </trkpt>
      <trkpt lat="43.61303" lon="3.71173">
        <ele>189.9</ele>
        <time>2011-05-29T09:36:18Z</time>
      </trkpt>
      <trkpt lat="43.61297" lon="3.7118">
        <ele>190.2</ele>
        <time>2011-05-29T09:36:20Z</time>
      </trkpt>
      <trkpt lat="43.61291" lon="3.71186">
        <ele>190.4</ele>
        <time>2011-05-29T09:36:22Z</time>
      </trkpt>
      <trkpt lat="43.61284" lon="3.71193">
        <ele>190.7</ele>
        <time>2011-05-29T09:36:24Z</time>
      </trkpt>
      <trkpt lat="43.61278" lon="3.712">
        <ele>191</ele>
        <time>2011-05-29T09:36:26Z</time>
      </trkpt>
      <trkpt lat="43.61271" lon="3.71207">
        <ele>191.4</ele>
        <time>2011-05-29T09:36:28Z</time>
      </trkpt>
      <trkpt lat="43.61265" lon="3.71214">
        <ele>191.8</ele>
        <time>2011-05-29T09:36:30Z</time>
      </trkpt>
      <trkpt lat="43.61259" lon="3.7122">
        <ele>192.2</ele>
        <time>2011-05-29T09:36:32Z</time>
      </trkpt>
      <trkpt lat="43.61253" lon="3.71226">
        <ele>192.6</ele>
        <time>2011-05-29T09:36:34Z</time>
      </trkpt>
      <trkpt lat="43.61246" lon="3.71233">
        <ele>192.9</ele>
        <time>2011-05-29T09:36:36Z</time>
      </trkpt>
      <trkpt lat="43.61241" lon="3.71239">
        <ele>193.2</ele>
        <time>2011-05-29T09:36:38Z</time>
      </trkpt>
      <trkpt lat="43.61235" lon="3.71245">
        <ele>193.5</ele>
        <time>2011-05-29T09:36:40Z</time>
      </trkpt>
      <trkpt lat="43.61229" lon="3.71251">
        <ele>193.8</ele>
        <time>2011-05-29T09:36:42Z</time>
      </trkpt>
      <trkpt lat="43.61223" lon="3.71257">
        <ele>193.9</ele>
        <time>2011-05-29T09:36:44Z</time>
      </trkpt>
      <trkpt lat="43.6122" lon="3.7126">
        <ele>193.9</ele>
        <time>2011-05-29T09:36:45Z</time>
      </trkpt>
      <trkpt lat="43.61212" lon="3.7127">
        <ele>194</ele>
        <time>2011-05-29T09:36:48Z</time>
      </trkpt>
      <trkpt lat="43.61206" lon="3.71276">
        <ele>194.1</ele>
        <time>2011-05-29T09:36:50Z</time>
      </trkpt>
      <trkpt lat="43.61201" lon="3.71284">
        <ele>194.2</ele>
        <time>2011-05-29T09:36:52Z</time>
      </trkpt>
      <trkpt lat="43.61197" lon="3.71292">
        <ele>194.4</ele>
        <time>2011-05-29T09:36:54Z</time>
      </trkpt>
      <trkpt lat="43.61193" lon="3.713">
        <ele>194.5</ele>
        <time>2011-05-29T09:36:56Z</time>
      </trkpt>
      <trkpt lat="43.6119" lon="3.71308">
        <ele>194.7</ele>
        <time>2011-05-29T09:36:58Z</time>
      </trkpt>
      <trkpt lat="43.61187" lon="3.71317">
        <ele>194.8</ele>
        <time>2011-05-29T09:37:00Z</time>
      </trkpt>
      <trkpt lat="43.61185" lon="3.71325">
        <ele>195</ele>
        <time>2011-05-29T09:37:02Z</time>
      </trkpt>
      <trkpt lat="43.61183" lon="3.71333">
        <ele>195.2</ele>
        <time>2011-05-29T09:37:04Z</time>
      </trkpt>
      <trkpt lat="43.6118" lon="3.71342">
        <ele>195</ele>
        <time>2011-05-29T09:37:06Z</time>
      </trkpt>
      <trkpt lat="43.61178" lon="3.71352">
        <ele>194.8</ele>
        <time>2011-05-29T09:37:08Z</time>
      </trkpt>
      <trkpt lat="43.61175" lon="3.71362">
        <ele>194.7</ele>
        <time>2011-05-29T09:37:10Z</time>
      </trkpt>
      <trkpt lat="43.61172" lon="3.71372">
        <ele>194.5</ele>
        <time>2011-05-29T09:37:12Z</time>
      </trkpt>
      <trkpt lat="43.6117" lon="3.71382">
        <ele>194.4</ele>
        <time>2011-05-29T09:37:14Z</time>
      </trkpt>
      <trkpt lat="43.61167" lon="3.71393">
        <ele>194.3</ele>
        <time>2011-05-29T09:37:16Z</time>
      </trkpt>
      <trkpt lat="43.61164" lon="3.71404">
        <ele>194.6</ele>
        <time>2011-05-29T09:37:18Z</time>
      </trkpt>
      <trkpt lat="43.61162" lon="3.7141">
        <ele>194.8</ele>
        <time>2011-05-29T09:37:19Z</time>
      </trkpt>
      <trkpt lat="43.61161" lon="3.71416">
        <ele>195</ele>
        <time>2011-05-29T09:37:20Z</time>
      </trkpt>
      <trkpt lat="43.61159" lon="3.71422">
        <ele>195.1</ele>
        <time>2011-05-29T09:37:21Z</time>
      </trkpt>
      <trkpt lat="43.61158" lon="3.71428">
        <ele>195.2</ele>
        <time>2011-05-29T09:37:22Z</time>
      </trkpt>
      <trkpt lat="43.61156" lon="3.71433">
        <ele>195.3</ele>
        <time>2011-05-29T09:37:23Z</time>
      </trkpt>
      <trkpt lat="43.61155" lon="3.71439">
        <ele>195.4</ele>
        <time>2011-05-29T09:37:24Z</time>
      </trkpt>
      <trkpt lat="43.61153" lon="3.71445">
        <ele>195.5</ele>
        <time>2011-05-29T09:37:25Z</time>
      </trkpt>
      <trkpt lat="43.61152" lon="3.71451">
        <ele>195.6</ele>
        <time>2011-05-29T09:37:26Z</time>
      </trkpt>
      <trkpt lat="43.6115" lon="3.71457">
        <ele>195.7</ele>
        <time>2011-05-29T09:37:27Z</time>
      </trkpt>
      <trkpt lat="43.61149" lon="3.71463">
        <ele>195.8</ele>
        <time>2011-05-29T09:37:28Z</time>
      </trkpt>
      <trkpt lat="43.61147" lon="3.71469">
        <ele>195.9</ele>
        <time>2011-05-29T09:37:29Z</time>
      </trkpt>
      <trkpt lat="43.61146" lon="3.71475">
        <ele>195.9</ele>
        <time>2011-05-29T09:37:30Z</time>
      </trkpt>
      <trkpt lat="43.61144" lon="3.71481">
        <ele>196</ele>
        <time>2011-05-29T09:37:31Z</time>
      </trkpt>
      <trkpt lat="43.61143" lon="3.71487">
        <ele>196.1</ele>
        <time>2011-05-29T09:37:32Z</time>
      </trkpt>
      <trkpt lat="43.61141" lon="3.71493">
        <ele>196.2</ele>
        <time>2011-05-29T09:37:33Z</time>
      </trkpt>
      <trkpt lat="43.61139" lon="3.71499">
        <ele>196.3</ele>
        <time>2011-05-29T09:37:34Z</time>
      </trkpt>
      <trkpt lat="43.61138" lon="3.71505">
        <ele>196.1</ele>
        <time>2011-05-29T09:37:35Z</time>
      </trkpt>
      <trkpt lat="43.61136" lon="3.71511">
        <ele>196</ele>
        <time>2011-05-29T09:37:36Z</time>
      </trkpt>
      <trkpt lat="43.61134" lon="3.71517">
        <ele>195.8</ele>
        <time>2011-05-29T09:37:37Z</time>
      </trkpt>
      <trkpt lat="43.61132" lon="3.71523">
        <ele>195.7</ele>
        <time>2011-05-29T09:37:38Z</time>
      </trkpt>
      <trkpt lat="43.6113" lon="3.71529">
        <ele>195.6</ele>
        <time>2011-05-29T09:37:39Z</time>
      </trkpt>
      <trkpt lat="43.61129" lon="3.71535">
        <ele>195.4</ele>
        <time>2011-05-29T09:37:40Z</time>
      </trkpt>
      <trkpt lat="43.61127" lon="3.71541">
        <ele>195.3</ele>
        <time>2011-05-29T09:37:41Z</time>
      </trkpt>
      <trkpt lat="43.61124" lon="3.71547">
        <ele>195.2</ele>
        <time>2011-05-29T09:37:42Z</time>
      </trkpt>
      <trkpt lat="43.61122" lon="3.71553">
        <ele>195.2</ele>
        <time>2011-05-29T09:37:43Z</time>
      </trkpt>
      <trkpt lat="43.61119" lon="3.71559">
        <ele>195.2</ele>
        <time>2011-05-29T09:37:44Z</time>
      </trkpt>
      <trkpt lat="43.61117" lon="3.71565">
        <ele>195.2</ele>
        <time>2011-05-29T09:37:45Z</time>
      </trkpt>
      <trkpt lat="43.61114" lon="3.7157">
        <ele>195.2</ele>
        <time>2011-05-29T09:37:46Z</time>
      </trkpt>
      <trkpt lat="43.61111" lon="3.71576">
        <ele>195.2</ele>
        <time>2011-05-29T09:37:47Z</time>
      </trkpt>
      <trkpt lat="43.61108" lon="3.71582">
        <ele>195.2</ele>
        <time>2011-05-29T09:37:48Z</time>
      </trkpt>
      <trkpt lat="43.61105" lon="3.71588">
        <ele>195.2</ele>
        <time>2011-05-29T09:37:49Z</time>
      </trkpt>
      <trkpt lat="43.61102" lon="3.71594">
        <ele>195.2</ele>
        <time>2011-05-29T09:37:50Z</time>
      </trkpt>
      <trkpt lat="43.61099" lon="3.716">
        <ele>195.2</ele>
        <time>2011-05-29T09:37:51Z</time>
      </trkpt>
      <trkpt lat="43.61095" lon="3.71605">
        <ele>195.3</ele>
        <time>2011-05-29T09:37:52Z</time>
      </trkpt>
      <trkpt lat="43.61091" lon="3.7161">
        <ele>195.5</ele>
        <time>2011-05-29T09:37:53Z</time>
      </trkpt>
      <trkpt lat="43.61087" lon="3.71615">
        <ele>195.8</ele>
        <time>2011-05-29T09:37:54Z</time>
      </trkpt>
      <trkpt lat="43.61082" lon="3.71619">
        <ele>196.1</ele>
        <time>2011-05-29T09:37:55Z</time>
      </trkpt>
      <trkpt lat="43.61078" lon="3.71623">
        <ele>196.1</ele>
        <time>2011-05-29T09:37:56Z</time>
      </trkpt>
      <trkpt lat="43.61072" lon="3.71626">
        <ele>196.2</ele>
        <time>2011-05-29T09:37:57Z</time>
      </trkpt>
      <trkpt lat="43.61067" lon="3.71629">
        <ele>196.4</ele>
        <time>2011-05-29T09:37:58Z</time>
      </trkpt>
      <trkpt lat="43.61062" lon="3.71632">
        <ele>196.6</ele>
        <time>2011-05-29T09:37:59Z</time>
      </trkpt>
      <trkpt lat="43.61056" lon="3.71634">
        <ele>196.8</ele>
        <time>2011-05-29T09:38:00Z</time>
      </trkpt>
      <trkpt lat="43.6105" lon="3.71637">
        <ele>197</ele>
        <time>2011-05-29T09:38:01Z</time>
      </trkpt>
      <trkpt lat="43.61045" lon="3.71641">
        <ele>197.1</ele>
        <time>2011-05-29T09:38:02Z</time>
      </trkpt>
      <trkpt lat="43.61041" lon="3.71645">
        <ele>197.2</ele>
        <time>2011-05-29T09:38:03Z</time>
      </trkpt>
      <trkpt lat="43.61037" lon="3.7165">
        <ele>197.1</ele>
        <time>2011-05-29T09:38:04Z</time>
      </trkpt>
      <trkpt lat="43.61033" lon="3.71656">
        <ele>197</ele>
        <time>2011-05-29T09:38:05Z</time>
      </trkpt>
      <trkpt lat="43.6103" lon="3.71663">
        <ele>196.7</ele>
        <time>2011-05-29T09:38:06Z</time>
      </trkpt>
      <trkpt lat="43.61028" lon="3.7167">
        <ele>196.6</ele>
        <time>2011-05-29T09:38:07Z</time>
      </trkpt>
      <trkpt lat="43.61026" lon="3.71678">
        <ele>196.6</ele>
        <time>2011-05-29T09:38:08Z</time>
      </trkpt>
      <trkpt lat="43.61024" lon="3.71685">
        <ele>196.7</ele>
        <time>2011-05-29T09:38:09Z</time>
      </trkpt>
      <trkpt lat="43.61022" lon="3.71693">
        <ele>196.7</ele>
        <time>2011-05-29T09:38:10Z</time>
      </trkpt>
      <trkpt lat="43.61021" lon="3.717">
        <ele>196.7</ele>
        <time>2011-05-29T09:38:11Z</time>
      </trkpt>
      <trkpt lat="43.61019" lon="3.71708">
        <ele>196.6</ele>
        <time>2011-05-29T09:38:12Z</time>
      </trkpt>
      <trkpt lat="43.61017" lon="3.71715">
        <ele>196.6</ele>
        <time>2011-05-29T09:38:13Z</time>
      </trkpt>
      <trkpt lat="43.61016" lon="3.71722">
        <ele>196.6</ele>
        <time>2011-05-29T09:38:14Z</time>
      </trkpt>
      <trkpt lat="43.61014" lon="3.71729">
        <ele>196.6</ele>
        <time>2011-05-29T09:38:15Z</time>
      </trkpt>
      <trkpt lat="43.61013" lon="3.71736">
        <ele>196.5</ele>
        <time>2011-05-29T09:38:16Z</time>
      </trkpt>
      <trkpt lat="43.61011" lon="3.71743">
        <ele>196.5</ele>
        <time>2011-05-29T09:38:17Z</time>
      </trkpt>
      <trkpt lat="43.6101" lon="3.7175">
        <ele>196.4</ele>
        <time>2011-05-29T09:38:18Z</time>
      </trkpt>
      <trkpt lat="43.61008" lon="3.71756">
        <ele>196.6</ele>
        <time>2011-05-29T09:38:19Z</time>
      </trkpt>
      <trkpt lat="43.61007" lon="3.71763">
        <ele>196.7</ele>
        <time>2011-05-29T09:38:20Z</time>
      </trkpt>
      <trkpt lat="43.61006" lon="3.7177">
        <ele>196.8</ele>
        <time>2011-05-29T09:38:21Z</time>
      </trkpt>
      <trkpt lat="43.61005" lon="3.71776">
        <ele>196.9</ele>
        <time>2011-05-29T09:38:22Z</time>
      </trkpt>
      <trkpt lat="43.61004" lon="3.71783">
        <ele>197</ele>
        <time>2011-05-29T09:38:23Z</time>
      </trkpt>
      <trkpt lat="43.61004" lon="3.7179">
        <ele>197</ele>
        <time>2011-05-29T09:38:24Z</time>
      </trkpt>
      <trkpt lat="43.61004" lon="3.71796">
        <ele>197</ele>
        <time>2011-05-29T09:38:25Z</time>
      </trkpt>
      <trkpt lat="43.61004" lon="3.71803">
        <ele>197.1</ele>
        <time>2011-05-29T09:38:26Z</time>
      </trkpt>
      <trkpt lat="43.61005" lon="3.7181">
        <ele>197.2</ele>
        <time>2011-05-29T09:38:27Z</time>
      </trkpt>
      <trkpt lat="43.61005" lon="3.71817">
        <ele>197.2</ele>
        <time>2011-05-29T09:38:28Z</time>
      </trkpt>
      <trkpt lat="43.61005" lon="3.71824">
        <ele>197.3</ele>
        <time>2011-05-29T09:38:29Z</time>
      </trkpt>
      <trkpt lat="43.61006" lon="3.7183">
        <ele>197.4</ele>
        <time>2011-05-29T09:38:30Z</time>
      </trkpt>
      <trkpt lat="43.61007" lon="3.71837">
        <ele>197.4</ele>
        <time>2011-05-29T09:38:31Z</time>
      </trkpt>
      <trkpt lat="43.61008" lon="3.71844">
        <ele>197.2</ele>
        <time>2011-05-29T09:38:32Z</time>
      </trkpt>
      <trkpt lat="43.61008" lon="3.7185">
        <ele>197.1</ele>
        <time>2011-05-29T09:38:33Z</time>
      </trkpt>
      <trkpt lat="43.61008" lon="3.71857">
        <ele>196.9</ele>
        <time>2011-05-29T09:38:34Z</time>
      </trkpt>
      <trkpt lat="43.61009" lon="3.71863">
        <ele>196.7</ele>
        <time>2011-05-29T09:38:35Z</time>
      </trkpt>
      <trkpt lat="43.61009" lon="3.7187">
        <ele>196.6</ele>
        <time>2011-05-29T09:38:36Z</time>
      </trkpt>
      <trkpt lat="43.6101" lon="3.71877">
        <ele>196.4</ele>
        <time>2011-05-29T09:38:37Z</time>
      </trkpt>
      <trkpt lat="43.6101" lon="3.71883">
        <ele>196.3</ele>
        <time>2011-05-29T09:38:38Z</time>
      </trkpt>
      <trkpt lat="43.6101" lon="3.7189">
        <ele>196.1</ele>
        <time>2011-05-29T09:38:39Z</time>
      </trkpt>
      <trkpt lat="43.6101" lon="3.71897">
        <ele>195.9</ele>
        <time>2011-05-29T09:38:40Z</time>
      </trkpt>
      <trkpt lat="43.61011" lon="3.71904">
        <ele>195.8</ele>
        <time>2011-05-29T09:38:41Z</time>
      </trkpt>
      <trkpt lat="43.6101" lon="3.7191">
        <ele>195.5</ele>
        <time>2011-05-29T09:38:42Z</time>
      </trkpt>
      <trkpt lat="43.6101" lon="3.71918">
        <ele>195.3</ele>
        <time>2011-05-29T09:38:43Z</time>
      </trkpt>
      <trkpt lat="43.6101" lon="3.71925">
        <ele>195.3</ele>
        <time>2011-05-29T09:38:44Z</time>
      </trkpt>
      <trkpt lat="43.6101" lon="3.71932">
        <ele>195.4</ele>
        <time>2011-05-29T09:38:45Z</time>
      </trkpt>
      <trkpt lat="43.61009" lon="3.7194">
        <ele>195.3</ele>
        <time>2011-05-29T09:38:46Z</time>
      </trkpt>
      <trkpt lat="43.61009" lon="3.71948">
        <ele>195.3</ele>
        <time>2011-05-29T09:38:47Z</time>
      </trkpt>
      <trkpt lat="43.61008" lon="3.71957">
        <ele>195.4</ele>
        <time>2011-05-29T09:38:48Z</time>
      </trkpt>
      <trkpt lat="43.61008" lon="3.71965">
        <ele>195.4</ele>
        <time>2011-05-29T09:38:49Z</time>
      </trkpt>
      <trkpt lat="43.61007" lon="3.71973">
        <ele>195.4</ele>
        <time>2011-05-29T09:38:50Z</time>
      </trkpt>
      <trkpt lat="43.61006" lon="3.71982">
        <ele>195.4</ele>
        <time>2011-05-29T09:38:51Z</time>
      </trkpt>
      <trkpt lat="43.61006" lon="3.71991">
        <ele>195.4</ele>
        <time>2011-05-29T09:38:52Z</time>
      </trkpt>
      <trkpt lat="43.61005" lon="3.71999">
        <ele>195.4</ele>
        <time>2011-05-29T09:38:53Z</time>
      </trkpt>
      <trkpt lat="43.61004" lon="3.72008">
        <ele>195.5</ele>
        <time>2011-05-29T09:38:54Z</time>
      </trkpt>
      <trkpt lat="43.61003" lon="3.72017">
        <ele>195.6</ele>
        <time>2011-05-29T09:38:55Z</time>
      </trkpt>
      <trkpt lat="43.61001" lon="3.72026">
        <ele>195.7</ele>
        <time>2011-05-29T09:38:56Z</time>
      </trkpt>
      <trkpt lat="43.60999" lon="3.72034">
        <ele>195.8</ele>
        <time>2011-05-29T09:38:57Z</time>
      </trkpt>
      <trkpt lat="43.60997" lon="3.72043">
        <ele>195.8</ele>
        <time>2011-05-29T09:38:58Z</time>
      </trkpt>
      <trkpt lat="43.60995" lon="3.72052">
        <ele>195.9</ele>
        <time>2011-05-29T09:38:59Z</time>
      </trkpt>
      <trkpt lat="43.60994" lon="3.72061">
        <ele>196.1</ele>
        <time>2011-05-29T09:39:00Z</time>
      </trkpt>
      <trkpt lat="43.60992" lon="3.7207">
        <ele>196.2</ele>
        <time>2011-05-29T09:39:01Z</time>
      </trkpt>
      <trkpt lat="43.6099" lon="3.72078">
        <ele>196.4</ele>
        <time>2011-05-29T09:39:02Z</time>
      </trkpt>
      <trkpt lat="43.60988" lon="3.72087">
        <ele>196.6</ele>
        <time>2011-05-29T09:39:03Z</time>
      </trkpt>
      <trkpt lat="43.60986" lon="3.72096">
        <ele>196.8</ele>
        <time>2011-05-29T09:39:04Z</time>
      </trkpt>
      <trkpt lat="43.60985" lon="3.72105">
        <ele>197.1</ele>
        <time>2011-05-29T09:39:05Z</time>
      </trkpt>
      <trkpt lat="43.60983" lon="3.72114">
        <ele>197.4</ele>
        <time>2011-05-29T09:39:06Z</time>
      </trkpt>
      <trkpt lat="43.60981" lon="3.72123">
        <ele>197.7</ele>
        <time>2011-05-29T09:39:07Z</time>
      </trkpt>
      <trkpt lat="43.60979" lon="3.72132">
        <ele>198.1</ele>
        <time>2011-05-29T09:39:08Z</time>
      </trkpt>
      <trkpt lat="43.60977" lon="3.72141">
        <ele>198.4</ele>
        <time>2011-05-29T09:39:09Z</time>
      </trkpt>
      <trkpt lat="43.60975" lon="3.7215">
        <ele>198.8</ele>
        <time>2011-05-29T09:39:10Z</time>
      </trkpt>
      <trkpt lat="43.60974" lon="3.72159">
        <ele>199.3</ele>
        <time>2011-05-29T09:39:11Z</time>
      </trkpt>
      <trkpt lat="43.60972" lon="3.72168">
        <ele>199.6</ele>
        <time>2011-05-29T09:39:12Z</time>
      </trkpt>
      <trkpt lat="43.6097" lon="3.72177">
        <ele>199</ele>
        <time>2011-05-29T09:39:13Z</time>
      </trkpt>
      <trkpt lat="43.60968" lon="3.72185">
        <ele>198.5</ele>
        <time>2011-05-29T09:39:14Z</time>
      </trkpt>
      <trkpt lat="43.60966" lon="3.72194">
        <ele>197.9</ele>
        <time>2011-05-29T09:39:15Z</time>
      </trkpt>
      <trkpt lat="43.60964" lon="3.72203">
        <ele>197.3</ele>
        <time>2011-05-29T09:39:16Z</time>
      </trkpt>
      <trkpt lat="43.60962" lon="3.72211">
        <ele>196.8</ele>
        <time>2011-05-29T09:39:17Z</time>
      </trkpt>
      <trkpt lat="43.6096" lon="3.7222">
        <ele>196.2</ele>
        <time>2011-05-29T09:39:18Z</time>
      </trkpt>
      <trkpt lat="43.60957" lon="3.72228">
        <ele>195.6</ele>
        <time>2011-05-29T09:39:19Z</time>
      </trkpt>
      <trkpt lat="43.60953" lon="3.72236">
        <ele>195</ele>
        <time>2011-05-29T09:39:20Z</time>
      </trkpt>
      <trkpt lat="43.60948" lon="3.72244">
        <ele>194.4</ele>
        <time>2011-05-29T09:39:21Z</time>
      </trkpt>
      <trkpt lat="43.60942" lon="3.7225">
        <ele>194</ele>
        <time>2011-05-29T09:39:22Z</time>
      </trkpt>
      <trkpt lat="43.60936" lon="3.72255">
        <ele>193.3</ele>
        <time>2011-05-29T09:39:23Z</time>
      </trkpt>
      <trkpt lat="43.60928" lon="3.72258">
        <ele>192.8</ele>
        <time>2011-05-29T09:39:24Z</time>
      </trkpt>
      <trkpt lat="43.60921" lon="3.72261">
        <ele>192.4</ele>
        <time>2011-05-29T09:39:25Z</time>
      </trkpt>
      <trkpt lat="43.60913" lon="3.72263">
        <ele>191.7</ele>
        <time>2011-05-29T09:39:26Z</time>
      </trkpt>
      <trkpt lat="43.60905" lon="3.72264">
        <ele>190.8</ele>
        <time>2011-05-29T09:39:27Z</time>
      </trkpt>
      <trkpt lat="43.60896" lon="3.72264">
        <ele>190.2</ele>
        <time>2011-05-29T09:39:28Z</time>
      </trkpt>
      <trkpt lat="43.60888" lon="3.7226">
        <ele>190.1</ele>
        <time>2011-05-29T09:39:29Z</time>
      </trkpt>
      <trkpt lat="43.60881" lon="3.72255">
        <ele>190.2</ele>
        <time>2011-05-29T09:39:30Z</time>
      </trkpt>
      <trkpt lat="43.60874" lon="3.72248">
        <ele>190.6</ele>
        <time>2011-05-29T09:39:31Z</time>
      </trkpt>
      <trkpt lat="43.60867" lon="3.72241">
        <ele>191</ele>
        <time>2011-05-29T09:39:32Z</time>
      </trkpt>
      <trkpt lat="43.60861" lon="3.72233">
        <ele>191.4</ele>
        <time>2011-05-29T09:39:33Z</time>
      </trkpt>
      <trkpt lat="43.60855" lon="3.72225">
        <ele>192</ele>
        <time>2011-05-29T09:39:34Z</time>
      </trkpt>
      <trkpt lat="43.60848" lon="3.72218">
        <ele>192.5</ele>
        <time>2011-05-29T09:39:35Z</time>
      </trkpt>
      <trkpt lat="43.60841" lon="3.72212">
        <ele>192.9</ele>
        <time>2011-05-29T09:39:36Z</time>
      </trkpt>
      <trkpt lat="43.60833" lon="3.72207">
        <ele>193.2</ele>
        <time>2011-05-29T09:39:37Z</time>
      </trkpt>
      <trkpt lat="43.60826" lon="3.72203">
        <ele>193.3</ele>
        <time>2011-05-29T09:39:38Z</time>
      </trkpt>
      <trkpt lat="43.60818" lon="3.72201">
        <ele>193.2</ele>
        <time>2011-05-29T09:39:39Z</time>
      </trkpt>
      <trkpt lat="43.6081" lon="3.722">
        <ele>192.9</ele>
        <time>2011-05-29T09:39:40Z</time>
      </trkpt>
      <trkpt lat="43.60802" lon="3.722">
        <ele>192.5</ele>
        <time>2011-05-29T09:39:41Z</time>
      </trkpt>
      <trkpt lat="43.60794" lon="3.72202">
        <ele>191.8</ele>
        <time>2011-05-29T09:39:42Z</time>
      </trkpt>
      <trkpt lat="43.60787" lon="3.72205">
        <ele>191</ele>
        <time>2011-05-29T09:39:43Z</time>
      </trkpt>
      <trkpt lat="43.60779" lon="3.72209">
        <ele>190</ele>
        <time>2011-05-29T09:39:44Z</time>
      </trkpt>
      <trkpt lat="43.60772" lon="3.72215">
        <ele>188.8</ele>
        <time>2011-05-29T09:39:45Z</time>
      </trkpt>
      <trkpt lat="43.60764" lon="3.7222">
        <ele>187.7</ele>
        <time>2011-05-29T09:39:46Z</time>
      </trkpt>
      <trkpt lat="43.60757" lon="3.72225">
        <ele>186.6</ele>
        <time>2011-05-29T09:39:47Z</time>
      </trkpt>
      <trkpt lat="43.6075" lon="3.72231">
        <ele>185.5</ele>
        <time>2011-05-29T09:39:48Z</time>
      </trkpt>
      <trkpt lat="43.60743" lon="3.72237">
        <ele>184.2</ele>
        <time>2011-05-29T09:39:49Z</time>
      </trkpt>
      <trkpt lat="43.60737" lon="3.72242">
        <ele>183.1</ele>
        <time>2011-05-29T09:39:50Z</time>
      </trkpt>
      <trkpt lat="43.60731" lon="3.72248">
        <ele>182.1</ele>
        <time>2011-05-29T09:39:51Z</time>
      </trkpt>
      <trkpt lat="43.60725" lon="3.72253">
        <ele>181.2</ele>
        <time>2011-05-29T09:39:52Z</time>
      </trkpt>
      <trkpt lat="43.60719" lon="3.7226">
        <ele>180.4</ele>
        <time>2011-05-29T09:39:53Z</time>
      </trkpt>
      <trkpt lat="43.60714" lon="3.72266">
        <ele>179.8</ele>
        <time>2011-05-29T09:39:54Z</time>
      </trkpt>
      <trkpt lat="43.60711" lon="3.72275">
        <ele>179.2</ele>
        <time>2011-05-29T09:39:56Z</time>
      </trkpt>
      <trkpt lat="43.60708" lon="3.72283">
        <ele>178.7</ele>
        <time>2011-05-29T09:39:58Z</time>
      </trkpt>
      <trkpt lat="43.607" lon="3.72288">
        <ele>178.6</ele>
        <time>2011-05-29T09:40:06Z</time>
      </trkpt>
      <trkpt lat="43.60695" lon="3.7228">
        <ele>178.8</ele>
        <time>2011-05-29T09:40:11Z</time>
      </trkpt>
      <trkpt lat="43.60691" lon="3.72271">
        <ele>179</ele>
        <time>2011-05-29T09:40:14Z</time>
      </trkpt>
      <trkpt lat="43.60693" lon="3.72262">
        <ele>179.3</ele>
        <time>2011-05-29T09:40:17Z</time>
      </trkpt>
      <trkpt lat="43.60695" lon="3.72254">
        <ele>179.6</ele>
        <time>2011-05-29T09:40:19Z</time>
      </trkpt>
      <trkpt lat="43.60696" lon="3.72244">
        <ele>179.9</ele>
        <time>2011-05-29T09:40:21Z</time>
      </trkpt>
      <trkpt lat="43.60696" lon="3.72232">
        <ele>180.3</ele>
        <time>2011-05-29T09:40:23Z</time>
      </trkpt>
      <trkpt lat="43.60695" lon="3.7222">
        <ele>180.6</ele>
        <time>2011-05-29T09:40:25Z</time>
      </trkpt>
      <trkpt lat="43.60693" lon="3.72214">
        <ele>180.5</ele>
        <time>2011-05-29T09:40:26Z</time>
      </trkpt>
      <trkpt lat="43.6069" lon="3.72208">
        <ele>180.2</ele>
        <time>2011-05-29T09:40:27Z</time>
      </trkpt>
      <trkpt lat="43.60687" lon="3.72202">
        <ele>179.8</ele>
        <time>2011-05-29T09:40:28Z</time>
      </trkpt>
      <trkpt lat="43.60684" lon="3.72196">
        <ele>179.4</ele>
        <time>2011-05-29T09:40:29Z</time>
      </trkpt>
      <trkpt lat="43.60681" lon="3.72189">
        <ele>179</ele>
        <time>2011-05-29T09:40:30Z</time>
      </trkpt>
      <trkpt lat="43.60678" lon="3.72182">
        <ele>178.5</ele>
        <time>2011-05-29T09:40:31Z</time>
      </trkpt>
      <trkpt lat="43.60676" lon="3.72175">
        <ele>178</ele>
        <time>2011-05-29T09:40:32Z</time>
      </trkpt>
      <trkpt lat="43.60675" lon="3.72168">
        <ele>177.7</ele>
        <time>2011-05-29T09:40:33Z</time>
      </trkpt>
      <trkpt lat="43.60673" lon="3.7216">
        <ele>177.9</ele>
        <time>2011-05-29T09:40:34Z</time>
      </trkpt>
      <trkpt lat="43.6067" lon="3.72152">
        <ele>178</ele>
        <time>2011-05-29T09:40:35Z</time>
      </trkpt>
      <trkpt lat="43.60667" lon="3.72145">
        <ele>177.9</ele>
        <time>2011-05-29T09:40:36Z</time>
      </trkpt>
      <trkpt lat="43.60664" lon="3.72139">
        <ele>178</ele>
        <time>2011-05-29T09:40:37Z</time>
      </trkpt>
      <trkpt lat="43.60659" lon="3.72134">
        <ele>177.9</ele>
        <time>2011-05-29T09:40:38Z</time>
      </trkpt>
      <trkpt lat="43.60654" lon="3.7213">
        <ele>177.6</ele>
        <time>2011-05-29T09:40:39Z</time>
      </trkpt>
      <trkpt lat="43.60649" lon="3.72127">
        <ele>177.2</ele>
        <time>2011-05-29T09:40:40Z</time>
      </trkpt>
      <trkpt lat="43.60644" lon="3.72124">
        <ele>176.8</ele>
        <time>2011-05-29T09:40:41Z</time>
      </trkpt>
      <trkpt lat="43.60639" lon="3.72121">
        <ele>176.4</ele>
        <time>2011-05-29T09:40:42Z</time>
      </trkpt>
      <trkpt lat="43.60634" lon="3.72118">
        <ele>176</ele>
        <time>2011-05-29T09:40:43Z</time>
      </trkpt>
      <trkpt lat="43.6063" lon="3.72115">
        <ele>175.7</ele>
        <time>2011-05-29T09:40:44Z</time>
      </trkpt>
      <trkpt lat="43.60624" lon="3.72108">
        <ele>175.4</ele>
        <time>2011-05-29T09:40:46Z</time>
      </trkpt>
      <trkpt lat="43.60619" lon="3.72101">
        <ele>175.1</ele>
        <time>2011-05-29T09:40:49Z</time>
      </trkpt>
      <trkpt lat="43.60613" lon="3.72094">
        <ele>174.7</ele>
        <time>2011-05-29T09:40:53Z</time>
      </trkpt>
      <trkpt lat="43.60612" lon="3.72092">
        <ele>174.7</ele>
        <time>2011-05-29T09:40:54Z</time>
      </trkpt>
      <trkpt lat="43.60604" lon="3.72081">
        <ele>174.4</ele>
        <time>2011-05-29T09:40:58Z</time>
      </trkpt>
      <trkpt lat="43.606" lon="3.72074">
        <ele>174.8</ele>
        <time>2011-05-29T09:41:00Z</time>
      </trkpt>
      <trkpt lat="43.60595" lon="3.72066">
        <ele>175</ele>
        <time>2011-05-29T09:41:02Z</time>
      </trkpt>
      <trkpt lat="43.6059" lon="3.72058">
        <ele>175.4</ele>
        <time>2011-05-29T09:41:04Z</time>
      </trkpt>
      <trkpt lat="43.60587" lon="3.72053">
        <ele>175.7</ele>
        <time>2011-05-29T09:41:05Z</time>
      </trkpt>
      <trkpt lat="43.60584" lon="3.72047">
        <ele>175.9</ele>
        <time>2011-05-29T09:41:06Z</time>
      </trkpt>
      <trkpt lat="43.60581" lon="3.72041">
        <ele>176.5</ele>
        <time>2011-05-29T09:41:07Z</time>
      </trkpt>
      <trkpt lat="43.60577" lon="3.72036">
        <ele>177.2</ele>
        <time>2011-05-29T09:41:08Z</time>
      </trkpt>
      <trkpt lat="43.60573" lon="3.7203">
        <ele>177.9</ele>
        <time>2011-05-29T09:41:09Z</time>
      </trkpt>
      <trkpt lat="43.60569" lon="3.72025">
        <ele>178.5</ele>
        <time>2011-05-29T09:41:10Z</time>
      </trkpt>
      <trkpt lat="43.60565" lon="3.72021">
        <ele>178.9</ele>
        <time>2011-05-29T09:41:11Z</time>
      </trkpt>
      <trkpt lat="43.60561" lon="3.72016">
        <ele>179.4</ele>
        <time>2011-05-29T09:41:12Z</time>
      </trkpt>
      <trkpt lat="43.60557" lon="3.7201">
        <ele>179.9</ele>
        <time>2011-05-29T09:41:13Z</time>
      </trkpt>
      <trkpt lat="43.60551" lon="3.72002">
        <ele>180.6</ele>
        <time>2011-05-29T09:41:15Z</time>
      </trkpt>
      <trkpt lat="43.60545" lon="3.72">
        <ele>180.7</ele>
        <time>2011-05-29T09:41:17Z</time>
      </trkpt>
      <trkpt lat="43.60538" lon="3.72">
        <ele>180.4</ele>
        <time>2011-05-29T09:41:19Z</time>
      </trkpt>
      <trkpt lat="43.60533" lon="3.7201">
        <ele>179.3</ele>
        <time>2011-05-29T09:41:23Z</time>
      </trkpt>
      <trkpt lat="43.60535" lon="3.72018">
        <ele>178.7</ele>
        <time>2011-05-29T09:41:25Z</time>
      </trkpt>
      <trkpt lat="43.60537" lon="3.72029">
        <ele>177.7</ele>
        <time>2011-05-29T09:41:27Z</time>
      </trkpt>
      <trkpt lat="43.60536" lon="3.72041">
        <ele>176.6</ele>
        <time>2011-05-29T09:41:29Z</time>
      </trkpt>
      <trkpt lat="43.60536" lon="3.72051">
        <ele>175.7</ele>
        <time>2011-05-29T09:41:31Z</time>
      </trkpt>
      <trkpt lat="43.6054" lon="3.72062">
        <ele>174.6</ele>
        <time>2011-05-29T09:41:33Z</time>
      </trkpt>
      <trkpt lat="43.60544" lon="3.72066">
        <ele>174.1</ele>
        <time>2011-05-29T09:41:34Z</time>
      </trkpt>
      <trkpt lat="43.60547" lon="3.72071">
        <ele>173.6</ele>
        <time>2011-05-29T09:41:35Z</time>
      </trkpt>
      <trkpt lat="43.60551" lon="3.72076">
        <ele>173</ele>
        <time>2011-05-29T09:41:36Z</time>
      </trkpt>
      <trkpt lat="43.60553" lon="3.72082">
        <ele>172.2</ele>
        <time>2011-05-29T09:41:37Z</time>
      </trkpt>
      <trkpt lat="43.60556" lon="3.72089">
        <ele>171.7</ele>
        <time>2011-05-29T09:41:38Z</time>
      </trkpt>
      <trkpt lat="43.60559" lon="3.72096">
        <ele>171.3</ele>
        <time>2011-05-29T09:41:39Z</time>
      </trkpt>
      <trkpt lat="43.60562" lon="3.72104">
        <ele>170.8</ele>
        <time>2011-05-29T09:41:40Z</time>
      </trkpt>
      <trkpt lat="43.60566" lon="3.72112">
        <ele>170.4</ele>
        <time>2011-05-29T09:41:41Z</time>
      </trkpt>
      <trkpt lat="43.60569" lon="3.7212">
        <ele>170</ele>
        <time>2011-05-29T09:41:42Z</time>
      </trkpt>
      <trkpt lat="43.6057" lon="3.72129">
        <ele>169.6</ele>
        <time>2011-05-29T09:41:43Z</time>
      </trkpt>
      <trkpt lat="43.60572" lon="3.72139">
        <ele>169.2</ele>
        <time>2011-05-29T09:41:44Z</time>
      </trkpt>
      <trkpt lat="43.60573" lon="3.72148">
        <ele>168.8</ele>
        <time>2011-05-29T09:41:45Z</time>
      </trkpt>
      <trkpt lat="43.60573" lon="3.72157">
        <ele>168.4</ele>
        <time>2011-05-29T09:41:46Z</time>
      </trkpt>
      <trkpt lat="43.60571" lon="3.72165">
        <ele>168.1</ele>
        <time>2011-05-29T09:41:47Z</time>
      </trkpt>
      <trkpt lat="43.60568" lon="3.72172">
        <ele>167.9</ele>
        <time>2011-05-29T09:41:48Z</time>
      </trkpt>
      <trkpt lat="43.60567" lon="3.72179">
        <ele>167.6</ele>
        <time>2011-05-29T09:41:49Z</time>
      </trkpt>
      <trkpt lat="43.60566" lon="3.72187">
        <ele>167.4</ele>
        <time>2011-05-29T09:41:50Z</time>
      </trkpt>
      <trkpt lat="43.60565" lon="3.72195">
        <ele>167.2</ele>
        <time>2011-05-29T09:41:51Z</time>
      </trkpt>
      <trkpt lat="43.60563" lon="3.72204">
        <ele>166.9</ele>
        <time>2011-05-29T09:41:52Z</time>
      </trkpt>
      <trkpt lat="43.6056" lon="3.72212">
        <ele>166.6</ele>
        <time>2011-05-29T09:41:53Z</time>
      </trkpt>
      <trkpt lat="43.60557" lon="3.7222">
        <ele>166.3</ele>
        <time>2011-05-29T09:41:54Z</time>
      </trkpt>
      <trkpt lat="43.60553" lon="3.72229">
        <ele>166</ele>
        <time>2011-05-29T09:41:55Z</time>
      </trkpt>
      <trkpt lat="43.6055" lon="3.72237">
        <ele>165.6</ele>
        <time>2011-05-29T09:41:56Z</time>
      </trkpt>
      <trkpt lat="43.60546" lon="3.72247">
        <ele>165.2</ele>
        <time>2011-05-29T09:41:57Z</time>
      </trkpt>
      <trkpt lat="43.60542" lon="3.72256">
        <ele>164.9</ele>
        <time>2011-05-29T09:41:58Z</time>
      </trkpt>
      <trkpt lat="43.60537" lon="3.72265">
        <ele>164.5</ele>
        <time>2011-05-29T09:41:59Z</time>
      </trkpt>
      <trkpt lat="43.60532" lon="3.72273">
        <ele>164</ele>
        <time>2011-05-29T09:42:00Z</time>
      </trkpt>
      <trkpt lat="43.60528" lon="3.72282">
        <ele>163.5</ele>
        <time>2011-05-29T09:42:01Z</time>
      </trkpt>
      <trkpt lat="43.60523" lon="3.7229">
        <ele>162.9</ele>
        <time>2011-05-29T09:42:02Z</time>
      </trkpt>
      <trkpt lat="43.60519" lon="3.72299">
        <ele>162.3</ele>
        <time>2011-05-29T09:42:03Z</time>
      </trkpt>
      <trkpt lat="43.60514" lon="3.72307">
        <ele>161.6</ele>
        <time>2011-05-29T09:42:04Z</time>
      </trkpt>
      <trkpt lat="43.6051" lon="3.72316">
        <ele>160.8</ele>
        <time>2011-05-29T09:42:05Z</time>
      </trkpt>
      <trkpt lat="43.60506" lon="3.72325">
        <ele>160</ele>
        <time>2011-05-29T09:42:06Z</time>
      </trkpt>
      <trkpt lat="43.60502" lon="3.72334">
        <ele>159.2</ele>
        <time>2011-05-29T09:42:07Z</time>
      </trkpt>
      <trkpt lat="43.60498" lon="3.72343">
        <ele>159.2</ele>
        <time>2011-05-29T09:42:08Z</time>
      </trkpt>
      <trkpt lat="43.60494" lon="3.72351">
        <ele>159.4</ele>
        <time>2011-05-29T09:42:09Z</time>
      </trkpt>
      <trkpt lat="43.6049" lon="3.7236">
        <ele>159.6</ele>
        <time>2011-05-29T09:42:10Z</time>
      </trkpt>
      <trkpt lat="43.60485" lon="3.72369">
        <ele>159.7</ele>
        <time>2011-05-29T09:42:11Z</time>
      </trkpt>
      <trkpt lat="43.6048" lon="3.72377">
        <ele>159.7</ele>
        <time>2011-05-29T09:42:12Z</time>
      </trkpt>
      <trkpt lat="43.60475" lon="3.72385">
        <ele>159.7</ele>
        <time>2011-05-29T09:42:13Z</time>
      </trkpt>
      <trkpt lat="43.60472" lon="3.72393">
        <ele>159.6</ele>
        <time>2011-05-29T09:42:14Z</time>
      </trkpt>
      <trkpt lat="43.60471" lon="3.72401">
        <ele>159.5</ele>
        <time>2011-05-29T09:42:15Z</time>
      </trkpt>
      <trkpt lat="43.60468" lon="3.72409">
        <ele>159.3</ele>
        <time>2011-05-29T09:42:16Z</time>
      </trkpt>
      <trkpt lat="43.60464" lon="3.72417">
        <ele>159.1</ele>
        <time>2011-05-29T09:42:17Z</time>
      </trkpt>
      <trkpt lat="43.60458" lon="3.72423">
        <ele>159.1</ele>
        <time>2011-05-29T09:42:18Z</time>
      </trkpt>
      <trkpt lat="43.60453" lon="3.72429">
        <ele>158.9</ele>
        <time>2011-05-29T09:42:19Z</time>
      </trkpt>
      <trkpt lat="43.60447" lon="3.72435">
        <ele>158.7</ele>
        <time>2011-05-29T09:42:20Z</time>
      </trkpt>
      <trkpt lat="43.60442" lon="3.72441">
        <ele>158.4</ele>
        <time>2011-05-29T09:42:21Z</time>
      </trkpt>
      <trkpt lat="43.60436" lon="3.72445">
        <ele>158.1</ele>
        <time>2011-05-29T09:42:22Z</time>
      </trkpt>
      <trkpt lat="43.60429" lon="3.72447">
        <ele>157.6</ele>
        <time>2011-05-29T09:42:23Z</time>
      </trkpt>
      <trkpt lat="43.60422" lon="3.72449">
        <ele>157.2</ele>
        <time>2011-05-29T09:42:24Z</time>
      </trkpt>
      <trkpt lat="43.60415" lon="3.72452">
        <ele>156.8</ele>
        <time>2011-05-29T09:42:25Z</time>
      </trkpt>
      <trkpt lat="43.60408" lon="3.72456">
        <ele>156.8</ele>
        <time>2011-05-29T09:42:26Z</time>
      </trkpt>
      <trkpt lat="43.60401" lon="3.72461">
        <ele>156.8</ele>
        <time>2011-05-29T09:42:27Z</time>
      </trkpt>
      <trkpt lat="43.60394" lon="3.72467">
        <ele>156.6</ele>
        <time>2011-05-29T09:42:28Z</time>
      </trkpt>
      <trkpt lat="43.60387" lon="3.72471">
        <ele>156.4</ele>
        <time>2011-05-29T09:42:29Z</time>
      </trkpt>
      <trkpt lat="43.6038" lon="3.72475">
        <ele>156.2</ele>
        <time>2011-05-29T09:42:30Z</time>
      </trkpt>
      <trkpt lat="43.60374" lon="3.7248">
        <ele>156</ele>
        <time>2011-05-29T09:42:31Z</time>
      </trkpt>
      <trkpt lat="43.60367" lon="3.72485">
        <ele>155.6</ele>
        <time>2011-05-29T09:42:32Z</time>
      </trkpt>
      <trkpt lat="43.60362" lon="3.7249">
        <ele>155.2</ele>
        <time>2011-05-29T09:42:33Z</time>
      </trkpt>
      <trkpt lat="43.60355" lon="3.72495">
        <ele>154.7</ele>
        <time>2011-05-29T09:42:34Z</time>
      </trkpt>
      <trkpt lat="43.60348" lon="3.725">
        <ele>154.2</ele>
        <time>2011-05-29T09:42:35Z</time>
      </trkpt>
      <trkpt lat="43.60341" lon="3.72504">
        <ele>154.2</ele>
        <time>2011-05-29T09:42:36Z</time>
      </trkpt>
      <trkpt lat="43.60334" lon="3.72509">
        <ele>154.1</ele>
        <time>2011-05-29T09:42:37Z</time>
      </trkpt>
      <trkpt lat="43.60327" lon="3.72515">
        <ele>154.3</ele>
        <time>2011-05-29T09:42:38Z</time>
      </trkpt>
      <trkpt lat="43.6032" lon="3.72521">
        <ele>154.3</ele>
        <time>2011-05-29T09:42:39Z</time>
      </trkpt>
      <trkpt lat="43.60313" lon="3.72526">
        <ele>154.2</ele>
        <time>2011-05-29T09:42:40Z</time>
      </trkpt>
      <trkpt lat="43.60305" lon="3.7253">
        <ele>154</ele>
        <time>2011-05-29T09:42:41Z</time>
      </trkpt>
      <trkpt lat="43.60297" lon="3.72534">
        <ele>153.7</ele>
        <time>2011-05-29T09:42:42Z</time>
      </trkpt>
      <trkpt lat="43.60289" lon="3.72539">
        <ele>153.4</ele>
        <time>2011-05-29T09:42:43Z</time>
      </trkpt>
      <trkpt lat="43.60282" lon="3.72544">
        <ele>152.8</ele>
        <time>2011-05-29T09:42:44Z</time>
      </trkpt>
      <trkpt lat="43.60274" lon="3.72549">
        <ele>152.1</ele>
        <time>2011-05-29T09:42:45Z</time>
      </trkpt>
      <trkpt lat="43.60267" lon="3.72555">
        <ele>151.3</ele>
        <time>2011-05-29T09:42:46Z</time>
      </trkpt>
      <trkpt lat="43.6026" lon="3.72561">
        <ele>150.3</ele>
        <time>2011-05-29T09:42:47Z</time>
      </trkpt>
      <trkpt lat="43.60253" lon="3.72566">
        <ele>149.3</ele>
        <time>2011-05-29T09:42:48Z</time>
      </trkpt>
      <trkpt lat="43.60246" lon="3.72572">
        <ele>148.4</ele>
        <time>2011-05-29T09:42:49Z</time>
      </trkpt>
      <trkpt lat="43.6024" lon="3.72578">
        <ele>147.7</ele>
        <time>2011-05-29T09:42:50Z</time>
      </trkpt>
      <trkpt lat="43.60233" lon="3.72584">
        <ele>147</ele>
        <time>2011-05-29T09:42:51Z</time>
      </trkpt>
      <trkpt lat="43.60226" lon="3.72591">
        <ele>147</ele>
        <time>2011-05-29T09:42:52Z</time>
      </trkpt>
      <trkpt lat="43.6022" lon="3.72597">
        <ele>146.9</ele>
        <time>2011-05-29T09:42:53Z</time>
      </trkpt>
      <trkpt lat="43.60213" lon="3.72603">
        <ele>146.6</ele>
        <time>2011-05-29T09:42:54Z</time>
      </trkpt>
      <trkpt lat="43.60208" lon="3.72609">
        <ele>146.4</ele>
        <time>2011-05-29T09:42:55Z</time>
      </trkpt>
      <trkpt lat="43.60202" lon="3.72615">
        <ele>146</ele>
        <time>2011-05-29T09:42:56Z</time>
      </trkpt>
      <trkpt lat="43.60196" lon="3.72621">
        <ele>145.5</ele>
        <time>2011-05-29T09:42:57Z</time>
      </trkpt>
      <trkpt lat="43.6019" lon="3.72627">
        <ele>145</ele>
        <time>2011-05-29T09:42:58Z</time>
      </trkpt>
      <trkpt lat="43.60184" lon="3.72632">
        <ele>144.5</ele>
        <time>2011-05-29T09:42:59Z</time>
      </trkpt>
      <trkpt lat="43.60179" lon="3.72638">
        <ele>143.9</ele>
        <time>2011-05-29T09:43:00Z</time>
      </trkpt>
      <trkpt lat="43.60174" lon="3.72644">
        <ele>143.1</ele>
        <time>2011-05-29T09:43:01Z</time>
      </trkpt>
      <trkpt lat="43.60169" lon="3.7265">
        <ele>142.3</ele>
        <time>2011-05-29T09:43:02Z</time>
      </trkpt>
      <trkpt lat="43.60164" lon="3.72657">
        <ele>141.6</ele>
        <time>2011-05-29T09:43:03Z</time>
      </trkpt>
      <trkpt lat="43.6016" lon="3.72664">
        <ele>141.1</ele>
        <time>2011-05-29T09:43:04Z</time>
      </trkpt>
      <trkpt lat="43.60155" lon="3.72671">
        <ele>140.7</ele>
        <time>2011-05-29T09:43:05Z</time>
      </trkpt>
      <trkpt lat="43.60151" lon="3.72678">
        <ele>140.5</ele>
        <time>2011-05-29T09:43:06Z</time>
      </trkpt>
      <trkpt lat="43.60147" lon="3.72684">
        <ele>140.3</ele>
        <time>2011-05-29T09:43:07Z</time>
      </trkpt>
      <trkpt lat="43.60143" lon="3.72691">
        <ele>140</ele>
        <time>2011-05-29T09:43:08Z</time>
      </trkpt>
      <trkpt lat="43.60138" lon="3.72697">
        <ele>139.8</ele>
        <time>2011-05-29T09:43:09Z</time>
      </trkpt>
      <trkpt lat="43.60134" lon="3.72703">
        <ele>139.6</ele>
        <time>2011-05-29T09:43:10Z</time>
      </trkpt>
      <trkpt lat="43.60129" lon="3.72709">
        <ele>139.3</ele>
        <time>2011-05-29T09:43:11Z</time>
      </trkpt>
      <trkpt lat="43.60124" lon="3.72715">
        <ele>139</ele>
        <time>2011-05-29T09:43:12Z</time>
      </trkpt>
      <trkpt lat="43.60119" lon="3.72722">
        <ele>138.7</ele>
        <time>2011-05-29T09:43:13Z</time>
      </trkpt>
      <trkpt lat="43.60114" lon="3.72727">
        <ele>138.4</ele>
        <time>2011-05-29T09:43:14Z</time>
      </trkpt>
      <trkpt lat="43.60108" lon="3.72733">
        <ele>138.2</ele>
        <time>2011-05-29T09:43:15Z</time>
      </trkpt>
      <trkpt lat="43.60102" lon="3.72737">
        <ele>137.9</ele>
        <time>2011-05-29T09:43:16Z</time>
      </trkpt>
      <trkpt lat="43.60096" lon="3.72742">
        <ele>137.6</ele>
        <time>2011-05-29T09:43:17Z</time>
      </trkpt>
      <trkpt lat="43.6009" lon="3.72747">
        <ele>137.3</ele>
        <time>2011-05-29T09:43:18Z</time>
      </trkpt>
      <trkpt lat="43.60084" lon="3.72752">
        <ele>137</ele>
        <time>2011-05-29T09:43:19Z</time>
      </trkpt>
      <trkpt lat="43.60079" lon="3.72755">
        <ele>136.7</ele>
        <time>2011-05-29T09:43:20Z</time>
      </trkpt>
      <trkpt lat="43.60073" lon="3.72757">
        <ele>136.5</ele>
        <time>2011-05-29T09:43:21Z</time>
      </trkpt>
      <trkpt lat="43.60068" lon="3.7276">
        <ele>136.3</ele>
        <time>2011-05-29T09:43:22Z</time>
      </trkpt>
      <trkpt lat="43.60059" lon="3.72757">
        <ele>136.2</ele>
        <time>2011-05-29T09:43:24Z</time>
      </trkpt>
      <trkpt lat="43.60055" lon="3.72748">
        <ele>136.4</ele>
        <time>2011-05-29T09:43:26Z</time>
      </trkpt>
      <trkpt lat="43.60052" lon="3.72742">
        <ele>136.6</ele>
        <time>2011-05-29T09:43:27Z</time>
      </trkpt>
      <trkpt lat="43.60048" lon="3.72737">
        <ele>136.7</ele>
        <time>2011-05-29T09:43:28Z</time>
      </trkpt>
      <trkpt lat="43.60045" lon="3.72731">
        <ele>136.9</ele>
        <time>2011-05-29T09:43:29Z</time>
      </trkpt>
      <trkpt lat="43.60042" lon="3.72725">
        <ele>137</ele>
        <time>2011-05-29T09:43:30Z</time>
      </trkpt>
      <trkpt lat="43.60038" lon="3.7272">
        <ele>137.2</ele>
        <time>2011-05-29T09:43:31Z</time>
      </trkpt>
      <trkpt lat="43.60033" lon="3.72715">
        <ele>137.3</ele>
        <time>2011-05-29T09:43:32Z</time>
      </trkpt>
      <trkpt lat="43.60029" lon="3.72711">
        <ele>137.4</ele>
        <time>2011-05-29T09:43:33Z</time>
      </trkpt>
      <trkpt lat="43.60024" lon="3.72708">
        <ele>137.4</ele>
        <time>2011-05-29T09:43:34Z</time>
      </trkpt>
      <trkpt lat="43.60017" lon="3.72707">
        <ele>137.4</ele>
        <time>2011-05-29T09:43:36Z</time>
      </trkpt>
      <trkpt lat="43.60009" lon="3.72714">
        <ele>136.9</ele>
        <time>2011-05-29T09:44:20Z</time>
      </trkpt>
      <trkpt lat="43.60009" lon="3.72714">
        <ele>136.9</ele>
        <time>2011-05-29T09:44:21Z</time>
      </trkpt>
      <trkpt lat="43.59994" lon="3.72714">
        <ele>136.7</ele>
        <time>2011-05-29T09:44:56Z</time>
      </trkpt>
      <trkpt lat="43.59988" lon="3.72708">
        <ele>136.9</ele>
        <time>2011-05-29T09:45:00Z</time>
      </trkpt>
      <trkpt lat="43.59981" lon="3.72701">
        <ele>137.2</ele>
        <time>2011-05-29T09:45:04Z</time>
      </trkpt>
      <trkpt lat="43.59974" lon="3.72694">
        <ele>137.5</ele>
        <time>2011-05-29T09:45:07Z</time>
      </trkpt>
      <trkpt lat="43.59967" lon="3.72688">
        <ele>137.7</ele>
        <time>2011-05-29T09:45:10Z</time>
      </trkpt>
      <trkpt lat="43.5996" lon="3.72681">
        <ele>137.9</ele>
        <time>2011-05-29T09:45:13Z</time>
      </trkpt>
      <trkpt lat="43.59955" lon="3.72676">
        <ele>138.1</ele>
        <time>2011-05-29T09:45:15Z</time>
      </trkpt>
      <trkpt lat="43.5995" lon="3.72671">
        <ele>138.2</ele>
        <time>2011-05-29T09:45:17Z</time>
      </trkpt>
      <trkpt lat="43.59944" lon="3.72666">
        <ele>138.4</ele>
        <time>2011-05-29T09:45:19Z</time>
      </trkpt>
      <trkpt lat="43.59939" lon="3.72661">
        <ele>138.6</ele>
        <time>2011-05-29T09:45:21Z</time>
      </trkpt>
      <trkpt lat="43.59933" lon="3.72654">
        <ele>138.9</ele>
        <time>2011-05-29T09:45:23Z</time>
      </trkpt>
      <trkpt lat="43.59931" lon="3.72651">
        <ele>139</ele>
        <time>2011-05-29T09:45:24Z</time>
      </trkpt>
      <trkpt lat="43.59922" lon="3.72639">
        <ele>139.5</ele>
        <time>2011-05-29T09:45:27Z</time>
      </trkpt>
      <trkpt lat="43.59916" lon="3.7263">
        <ele>139.8</ele>
        <time>2011-05-29T09:45:29Z</time>
      </trkpt>
      <trkpt lat="43.59913" lon="3.72626">
        <ele>140</ele>
        <time>2011-05-29T09:45:30Z</time>
      </trkpt>
      <trkpt lat="43.5991" lon="3.72621">
        <ele>140.2</ele>
        <time>2011-05-29T09:45:31Z</time>
      </trkpt>
      <trkpt lat="43.59906" lon="3.72617">
        <ele>140.4</ele>
        <time>2011-05-29T09:45:32Z</time>
      </trkpt>
      <trkpt lat="43.59903" lon="3.72612">
        <ele>140.5</ele>
        <time>2011-05-29T09:45:33Z</time>
      </trkpt>
      <trkpt lat="43.599" lon="3.72608">
        <ele>140.7</ele>
        <time>2011-05-29T09:45:34Z</time>
      </trkpt>
      <trkpt lat="43.59896" lon="3.72604">
        <ele>140.8</ele>
        <time>2011-05-29T09:45:35Z</time>
      </trkpt>
      <trkpt lat="43.59892" lon="3.726">
        <ele>140.8</ele>
        <time>2011-05-29T09:45:36Z</time>
      </trkpt>
      <trkpt lat="43.59887" lon="3.72597">
        <ele>140.9</ele>
        <time>2011-05-29T09:45:37Z</time>
      </trkpt>
      <trkpt lat="43.59883" lon="3.72594">
        <ele>140.9</ele>
        <time>2011-05-29T09:45:38Z</time>
      </trkpt>
      <trkpt lat="43.59878" lon="3.72591">
        <ele>140.9</ele>
        <time>2011-05-29T09:45:39Z</time>
      </trkpt>
      <trkpt lat="43.59873" lon="3.72588">
        <ele>140.8</ele>
        <time>2011-05-29T09:45:40Z</time>
      </trkpt>
      <trkpt lat="43.59869" lon="3.72587">
        <ele>140.8</ele>
        <time>2011-05-29T09:45:41Z</time>
      </trkpt>
      <trkpt lat="43.59864" lon="3.72588">
        <ele>140.7</ele>
        <time>2011-05-29T09:45:42Z</time>
      </trkpt>
      <trkpt lat="43.59859" lon="3.72589">
        <ele>140.5</ele>
        <time>2011-05-29T09:45:43Z</time>
      </trkpt>
      <trkpt lat="43.59855" lon="3.7259">
        <ele>140.4</ele>
        <time>2011-05-29T09:45:44Z</time>
      </trkpt>
      <trkpt lat="43.5985" lon="3.72591">
        <ele>140.3</ele>
        <time>2011-05-29T09:45:45Z</time>
      </trkpt>
      <trkpt lat="43.59846" lon="3.72593">
        <ele>140.2</ele>
        <time>2011-05-29T09:45:46Z</time>
      </trkpt>
      <trkpt lat="43.59841" lon="3.72595">
        <ele>140.1</ele>
        <time>2011-05-29T09:45:47Z</time>
      </trkpt>
      <trkpt lat="43.59833" lon="3.72598">
        <ele>140</ele>
        <time>2011-05-29T09:45:49Z</time>
      </trkpt>
      <trkpt lat="43.59824" lon="3.72601">
        <ele>140.1</ele>
        <time>2011-05-29T09:45:51Z</time>
      </trkpt>
      <trkpt lat="43.5982" lon="3.72602">
        <ele>140.1</ele>
        <time>2011-05-29T09:45:52Z</time>
      </trkpt>
      <trkpt lat="43.59815" lon="3.72603">
        <ele>140.2</ele>
        <time>2011-05-29T09:45:53Z</time>
      </trkpt>
      <trkpt lat="43.5981" lon="3.72604">
        <ele>140.2</ele>
        <time>2011-05-29T09:45:54Z</time>
      </trkpt>
      <trkpt lat="43.59805" lon="3.72605">
        <ele>140.3</ele>
        <time>2011-05-29T09:45:55Z</time>
      </trkpt>
      <trkpt lat="43.598" lon="3.72606">
        <ele>140.3</ele>
        <time>2011-05-29T09:45:56Z</time>
      </trkpt>
      <trkpt lat="43.59795" lon="3.72607">
        <ele>140.4</ele>
        <time>2011-05-29T09:45:57Z</time>
      </trkpt>
      <trkpt lat="43.5979" lon="3.72608">
        <ele>140.5</ele>
        <time>2011-05-29T09:45:58Z</time>
      </trkpt>
      <trkpt lat="43.59785" lon="3.72609">
        <ele>140.5</ele>
        <time>2011-05-29T09:45:59Z</time>
      </trkpt>
      <trkpt lat="43.59781" lon="3.7261">
        <ele>140.6</ele>
        <time>2011-05-29T09:46:00Z</time>
      </trkpt>
      <trkpt lat="43.59776" lon="3.72612">
        <ele>140.7</ele>
        <time>2011-05-29T09:46:01Z</time>
      </trkpt>
      <trkpt lat="43.59771" lon="3.72613">
        <ele>140.8</ele>
        <time>2011-05-29T09:46:02Z</time>
      </trkpt>
      <trkpt lat="43.59767" lon="3.72615">
        <ele>140.9</ele>
        <time>2011-05-29T09:46:03Z</time>
      </trkpt>
      <trkpt lat="43.59762" lon="3.72617">
        <ele>141</ele>
        <time>2011-05-29T09:46:04Z</time>
      </trkpt>
      <trkpt lat="43.59757" lon="3.72619">
        <ele>141.2</ele>
        <time>2011-05-29T09:46:05Z</time>
      </trkpt>
      <trkpt lat="43.59753" lon="3.72621">
        <ele>141.3</ele>
        <time>2011-05-29T09:46:06Z</time>
      </trkpt>
      <trkpt lat="43.59748" lon="3.72624">
        <ele>141.5</ele>
        <time>2011-05-29T09:46:07Z</time>
      </trkpt>
      <trkpt lat="43.59744" lon="3.72626">
        <ele>141.7</ele>
        <time>2011-05-29T09:46:08Z</time>
      </trkpt>
      <trkpt lat="43.5974" lon="3.72629">
        <ele>141.9</ele>
        <time>2011-05-29T09:46:09Z</time>
      </trkpt>
      <trkpt lat="43.59735" lon="3.72632">
        <ele>142.1</ele>
        <time>2011-05-29T09:46:10Z</time>
      </trkpt>
      <trkpt lat="43.59727" lon="3.72637">
        <ele>142.4</ele>
        <time>2011-05-29T09:46:12Z</time>
      </trkpt>
      <trkpt lat="43.59719" lon="3.72642">
        <ele>142.7</ele>
        <time>2011-05-29T09:46:14Z</time>
      </trkpt>
      <trkpt lat="43.59715" lon="3.72645">
        <ele>142.8</ele>
        <time>2011-05-29T09:46:15Z</time>
      </trkpt>
      <trkpt lat="43.59711" lon="3.72648">
        <ele>142.9</ele>
        <time>2011-05-29T09:46:16Z</time>
      </trkpt>
      <trkpt lat="43.59707" lon="3.7265">
        <ele>142.9</ele>
        <time>2011-05-29T09:46:17Z</time>
      </trkpt>
      <trkpt lat="43.59702" lon="3.72653">
        <ele>143</ele>
        <time>2011-05-29T09:46:18Z</time>
      </trkpt>
      <trkpt lat="43.59698" lon="3.72656">
        <ele>143</ele>
        <time>2011-05-29T09:46:19Z</time>
      </trkpt>
      <trkpt lat="43.59694" lon="3.72659">
        <ele>143</ele>
        <time>2011-05-29T09:46:20Z</time>
      </trkpt>
      <trkpt lat="43.5969" lon="3.72662">
        <ele>143</ele>
        <time>2011-05-29T09:46:21Z</time>
      </trkpt>
      <trkpt lat="43.59685" lon="3.72665">
        <ele>143</ele>
        <time>2011-05-29T09:46:22Z</time>
      </trkpt>
      <trkpt lat="43.59681" lon="3.72668">
        <ele>143</ele>
        <time>2011-05-29T09:46:23Z</time>
      </trkpt>
      <trkpt lat="43.59677" lon="3.72672">
        <ele>143</ele>
        <time>2011-05-29T09:46:24Z</time>
      </trkpt>
      <trkpt lat="43.59673" lon="3.72676">
        <ele>143</ele>
        <time>2011-05-29T09:46:25Z</time>
      </trkpt>
      <trkpt lat="43.59669" lon="3.72681">
        <ele>143</ele>
        <time>2011-05-29T09:46:26Z</time>
      </trkpt>
      <trkpt lat="43.59665" lon="3.72686">
        <ele>143</ele>
        <time>2011-05-29T09:46:27Z</time>
      </trkpt>
      <trkpt lat="43.59662" lon="3.72691">
        <ele>143</ele>
        <time>2011-05-29T09:46:28Z</time>
      </trkpt>
      <trkpt lat="43.59657" lon="3.72697">
        <ele>142.9</ele>
        <time>2011-05-29T09:46:29Z</time>
      </trkpt>
      <trkpt lat="43.59653" lon="3.72703">
        <ele>142.8</ele>
        <time>2011-05-29T09:46:30Z</time>
      </trkpt>
      <trkpt lat="43.59649" lon="3.7271">
        <ele>142.7</ele>
        <time>2011-05-29T09:46:31Z</time>
      </trkpt>
      <trkpt lat="43.59645" lon="3.72716">
        <ele>142.5</ele>
        <time>2011-05-29T09:46:32Z</time>
      </trkpt>
      <trkpt lat="43.5964" lon="3.72723">
        <ele>142.2</ele>
        <time>2011-05-29T09:46:33Z</time>
      </trkpt>
      <trkpt lat="43.59635" lon="3.72729">
        <ele>142</ele>
        <time>2011-05-29T09:46:34Z</time>
      </trkpt>
      <trkpt lat="43.59629" lon="3.72735">
        <ele>141.6</ele>
        <time>2011-05-29T09:46:35Z</time>
      </trkpt>
      <trkpt lat="43.59623" lon="3.7274">
        <ele>141.2</ele>
        <time>2011-05-29T09:46:36Z</time>
      </trkpt>
      <trkpt lat="43.59616" lon="3.72745">
        <ele>140.8</ele>
        <time>2011-05-29T09:46:37Z</time>
      </trkpt>
      <trkpt lat="43.5961" lon="3.7275">
        <ele>140.3</ele>
        <time>2011-05-29T09:46:38Z</time>
      </trkpt>
      <trkpt lat="43.59602" lon="3.72754">
        <ele>140</ele>
        <time>2011-05-29T09:46:39Z</time>
      </trkpt>
      <trkpt lat="43.59595" lon="3.72756">
        <ele>139.6</ele>
        <time>2011-05-29T09:46:40Z</time>
      </trkpt>
      <trkpt lat="43.59587" lon="3.72757">
        <ele>139.2</ele>
        <time>2011-05-29T09:46:41Z</time>
      </trkpt>
      <trkpt lat="43.59579" lon="3.72758">
        <ele>138.7</ele>
        <time>2011-05-29T09:46:42Z</time>
      </trkpt>
      <trkpt lat="43.59571" lon="3.72762">
        <ele>138.3</ele>
        <time>2011-05-29T09:46:43Z</time>
      </trkpt>
      <trkpt lat="43.59564" lon="3.72767">
        <ele>137.9</ele>
        <time>2011-05-29T09:46:44Z</time>
      </trkpt>
      <trkpt lat="43.59556" lon="3.72771">
        <ele>137.5</ele>
        <time>2011-05-29T09:46:45Z</time>
      </trkpt>
      <trkpt lat="43.59549" lon="3.72774">
        <ele>137.2</ele>
        <time>2011-05-29T09:46:46Z</time>
      </trkpt>
      <trkpt lat="43.59541" lon="3.72777">
        <ele>136.8</ele>
        <time>2011-05-29T09:46:47Z</time>
      </trkpt>
      <trkpt lat="43.59533" lon="3.7278">
        <ele>136.4</ele>
        <time>2011-05-29T09:46:48Z</time>
      </trkpt>
      <trkpt lat="43.59525" lon="3.72783">
        <ele>136.1</ele>
        <time>2011-05-29T09:46:49Z</time>
      </trkpt>
      <trkpt lat="43.59518" lon="3.72785">
        <ele>135.7</ele>
        <time>2011-05-29T09:46:50Z</time>
      </trkpt>
      <trkpt lat="43.59511" lon="3.72789">
        <ele>135.5</ele>
        <time>2011-05-29T09:46:51Z</time>
      </trkpt>
      <trkpt lat="43.59507" lon="3.72794">
        <ele>135.4</ele>
        <time>2011-05-29T09:46:52Z</time>
      </trkpt>
      <trkpt lat="43.59502" lon="3.72802">
        <ele>135.3</ele>
        <time>2011-05-29T09:46:54Z</time>
      </trkpt>
      <trkpt lat="43.59496" lon="3.72804">
        <ele>135.1</ele>
        <time>2011-05-29T09:46:56Z</time>
      </trkpt>
      <trkpt lat="43.5949" lon="3.7281">
        <ele>135</ele>
        <time>2011-05-29T09:46:58Z</time>
      </trkpt>
      <trkpt lat="43.59487" lon="3.7282">
        <ele>135</ele>
        <time>2011-05-29T09:47:00Z</time>
      </trkpt>
      <trkpt lat="43.59484" lon="3.7283">
        <ele>135.1</ele>
        <time>2011-05-29T09:47:02Z</time>
      </trkpt>
      <trkpt lat="43.59481" lon="3.7284">
        <ele>135.4</ele>
        <time>2011-05-29T09:47:04Z</time>
      </trkpt>
      <trkpt lat="43.59478" lon="3.72849">
        <ele>135.6</ele>
        <time>2011-05-29T09:47:06Z</time>
      </trkpt>
      <trkpt lat="43.59475" lon="3.72858">
        <ele>135.9</ele>
        <time>2011-05-29T09:47:08Z</time>
      </trkpt>
      <trkpt lat="43.59472" lon="3.72868">
        <ele>136.1</ele>
        <time>2011-05-29T09:47:10Z</time>
      </trkpt>
      <trkpt lat="43.59468" lon="3.72878">
        <ele>136.4</ele>
        <time>2011-05-29T09:47:12Z</time>
      </trkpt>
      <trkpt lat="43.59465" lon="3.72883">
        <ele>136.5</ele>
        <time>2011-05-29T09:47:13Z</time>
      </trkpt>
      <trkpt lat="43.59463" lon="3.72889">
        <ele>136.6</ele>
        <time>2011-05-29T09:47:14Z</time>
      </trkpt>
      <trkpt lat="43.59461" lon="3.72895">
        <ele>136.7</ele>
        <time>2011-05-29T09:47:15Z</time>
      </trkpt>
      <trkpt lat="43.59458" lon="3.729">
        <ele>136.8</ele>
        <time>2011-05-29T09:47:16Z</time>
      </trkpt>
      <trkpt lat="43.59456" lon="3.72907">
        <ele>136.9</ele>
        <time>2011-05-29T09:47:17Z</time>
      </trkpt>
      <trkpt lat="43.59454" lon="3.72913">
        <ele>137.1</ele>
        <time>2011-05-29T09:47:18Z</time>
      </trkpt>
      <trkpt lat="43.59452" lon="3.72924">
        <ele>137.5</ele>
        <time>2011-05-29T09:47:20Z</time>
      </trkpt>
      <trkpt lat="43.59451" lon="3.72935">
        <ele>138</ele>
        <time>2011-05-29T09:47:22Z</time>
      </trkpt>
      <trkpt lat="43.59451" lon="3.72944">
        <ele>138.6</ele>
        <time>2011-05-29T09:47:24Z</time>
      </trkpt>
      <trkpt lat="43.59451" lon="3.72954">
        <ele>139.1</ele>
        <time>2011-05-29T09:47:26Z</time>
      </trkpt>
      <trkpt lat="43.59451" lon="3.72964">
        <ele>139.7</ele>
        <time>2011-05-29T09:47:28Z</time>
      </trkpt>
      <trkpt lat="43.59451" lon="3.7297">
        <ele>140</ele>
        <time>2011-05-29T09:47:29Z</time>
      </trkpt>
      <trkpt lat="43.59453" lon="3.72985">
        <ele>140.9</ele>
        <time>2011-05-29T09:47:32Z</time>
      </trkpt>
      <trkpt lat="43.59459" lon="3.72993">
        <ele>141.6</ele>
        <time>2011-05-29T09:47:34Z</time>
      </trkpt>
      <trkpt lat="43.59466" lon="3.72997">
        <ele>142.2</ele>
        <time>2011-05-29T09:47:36Z</time>
      </trkpt>
      <trkpt lat="43.59473" lon="3.72999">
        <ele>142.7</ele>
        <time>2011-05-29T09:47:38Z</time>
      </trkpt>
      <trkpt lat="43.59481" lon="3.73001">
        <ele>143.1</ele>
        <time>2011-05-29T09:47:40Z</time>
      </trkpt>
      <trkpt lat="43.59488" lon="3.73003">
        <ele>143.6</ele>
        <time>2011-05-29T09:47:42Z</time>
      </trkpt>
      <trkpt lat="43.59495" lon="3.73005">
        <ele>144.1</ele>
        <time>2011-05-29T09:47:44Z</time>
      </trkpt>
      <trkpt lat="43.59502" lon="3.73008">
        <ele>144.6</ele>
        <time>2011-05-29T09:47:46Z</time>
      </trkpt>
      <trkpt lat="43.59509" lon="3.73011">
        <ele>144.9</ele>
        <time>2011-05-29T09:47:48Z</time>
      </trkpt>
      <trkpt lat="43.59516" lon="3.73014">
        <ele>145.2</ele>
        <time>2011-05-29T09:47:50Z</time>
      </trkpt>
      <trkpt lat="43.59523" lon="3.73018">
        <ele>145.4</ele>
        <time>2011-05-29T09:47:52Z</time>
      </trkpt>
      <trkpt lat="43.59528" lon="3.73027">
        <ele>146</ele>
        <time>2011-05-29T09:47:55Z</time>
      </trkpt>
      <trkpt lat="43.59526" lon="3.73034">
        <ele>146.5</ele>
        <time>2011-05-29T09:47:57Z</time>
      </trkpt>
      <trkpt lat="43.59521" lon="3.7304">
        <ele>146.9</ele>
        <time>2011-05-29T09:47:59Z</time>
      </trkpt>
      <trkpt lat="43.59515" lon="3.73045">
        <ele>147.2</ele>
        <time>2011-05-29T09:48:01Z</time>
      </trkpt>
      <trkpt lat="43.5951" lon="3.73049">
        <ele>147.5</ele>
        <time>2011-05-29T09:48:03Z</time>
      </trkpt>
      <trkpt lat="43.59504" lon="3.73053">
        <ele>147.8</ele>
        <time>2011-05-29T09:48:05Z</time>
      </trkpt>
      <trkpt lat="43.59498" lon="3.73057">
        <ele>148</ele>
        <time>2011-05-29T09:48:07Z</time>
      </trkpt>
      <trkpt lat="43.59491" lon="3.73061">
        <ele>148.1</ele>
        <time>2011-05-29T09:48:09Z</time>
      </trkpt>
      <trkpt lat="43.59485" lon="3.73065">
        <ele>148.1</ele>
        <time>2011-05-29T09:48:11Z</time>
      </trkpt>
      <trkpt lat="43.59478" lon="3.73069">
        <ele>148.1</ele>
        <time>2011-05-29T09:48:13Z</time>
      </trkpt>
      <trkpt lat="43.5947" lon="3.73074">
        <ele>148.2</ele>
        <time>2011-05-29T09:48:15Z</time>
      </trkpt>
      <trkpt lat="43.59463" lon="3.73078">
        <ele>148.2</ele>
        <time>2011-05-29T09:48:17Z</time>
      </trkpt>
      <trkpt lat="43.59456" lon="3.73082">
        <ele>148.3</ele>
        <time>2011-05-29T09:48:19Z</time>
      </trkpt>
      <trkpt lat="43.59448" lon="3.73085">
        <ele>148.3</ele>
        <time>2011-05-29T09:48:21Z</time>
      </trkpt>
      <trkpt lat="43.5944" lon="3.7309">
        <ele>148.5</ele>
        <time>2011-05-29T09:48:23Z</time>
      </trkpt>
      <trkpt lat="43.59432" lon="3.73093">
        <ele>148.5</ele>
        <time>2011-05-29T09:48:25Z</time>
      </trkpt>
      <trkpt lat="43.59428" lon="3.73095">
        <ele>148.5</ele>
        <time>2011-05-29T09:48:26Z</time>
      </trkpt>
      <trkpt lat="43.59423" lon="3.73097">
        <ele>148.5</ele>
        <time>2011-05-29T09:48:27Z</time>
      </trkpt>
      <trkpt lat="43.59418" lon="3.73099">
        <ele>148.5</ele>
        <time>2011-05-29T09:48:28Z</time>
      </trkpt>
      <trkpt lat="43.59413" lon="3.73101">
        <ele>148.7</ele>
        <time>2011-05-29T09:48:29Z</time>
      </trkpt>
      <trkpt lat="43.59408" lon="3.73103">
        <ele>148.9</ele>
        <time>2011-05-29T09:48:30Z</time>
      </trkpt>
      <trkpt lat="43.59402" lon="3.73106">
        <ele>149.1</ele>
        <time>2011-05-29T09:48:31Z</time>
      </trkpt>
      <trkpt lat="43.59397" lon="3.73108">
        <ele>149.3</ele>
        <time>2011-05-29T09:48:32Z</time>
      </trkpt>
      <trkpt lat="43.59391" lon="3.7311">
        <ele>149.4</ele>
        <time>2011-05-29T09:48:33Z</time>
      </trkpt>
      <trkpt lat="43.59385" lon="3.73112">
        <ele>149.6</ele>
        <time>2011-05-29T09:48:34Z</time>
      </trkpt>
      <trkpt lat="43.59379" lon="3.73114">
        <ele>149.8</ele>
        <time>2011-05-29T09:48:35Z</time>
      </trkpt>
      <trkpt lat="43.59373" lon="3.73116">
        <ele>149.9</ele>
        <time>2011-05-29T09:48:36Z</time>
      </trkpt>
      <trkpt lat="43.59368" lon="3.73118">
        <ele>150</ele>
        <time>2011-05-29T09:48:37Z</time>
      </trkpt>
      <trkpt lat="43.59362" lon="3.73119">
        <ele>150.2</ele>
        <time>2011-05-29T09:48:38Z</time>
      </trkpt>
      <trkpt lat="43.59357" lon="3.73121">
        <ele>150.3</ele>
        <time>2011-05-29T09:48:39Z</time>
      </trkpt>
      <trkpt lat="43.59352" lon="3.73122">
        <ele>150.4</ele>
        <time>2011-05-29T09:48:40Z</time>
      </trkpt>
      <trkpt lat="43.59347" lon="3.73124">
        <ele>150.5</ele>
        <time>2011-05-29T09:48:41Z</time>
      </trkpt>
      <trkpt lat="43.59343" lon="3.73125">
        <ele>150.5</ele>
        <time>2011-05-29T09:48:42Z</time>
      </trkpt>
      <trkpt lat="43.59338" lon="3.73126">
        <ele>150.6</ele>
        <time>2011-05-29T09:48:43Z</time>
      </trkpt>
      <trkpt lat="43.59333" lon="3.73127">
        <ele>150.6</ele>
        <time>2011-05-29T09:48:44Z</time>
      </trkpt>
      <trkpt lat="43.59329" lon="3.73128">
        <ele>150.6</ele>
        <time>2011-05-29T09:48:45Z</time>
      </trkpt>
      <trkpt lat="43.59324" lon="3.73129">
        <ele>150.5</ele>
        <time>2011-05-29T09:48:46Z</time>
      </trkpt>
      <trkpt lat="43.59315" lon="3.73131">
        <ele>150.4</ele>
        <time>2011-05-29T09:48:48Z</time>
      </trkpt>
      <trkpt lat="43.59307" lon="3.73134">
        <ele>150.2</ele>
        <time>2011-05-29T09:48:50Z</time>
      </trkpt>
      <trkpt lat="43.59301" lon="3.7314">
        <ele>150.5</ele>
        <time>2011-05-29T09:48:52Z</time>
      </trkpt>
      <trkpt lat="43.59297" lon="3.73151">
        <ele>151.1</ele>
        <time>2011-05-29T09:48:55Z</time>
      </trkpt>
      <trkpt lat="43.59294" lon="3.73162">
        <ele>151.7</ele>
        <time>2011-05-29T09:48:58Z</time>
      </trkpt>
      <trkpt lat="43.5929" lon="3.7317">
        <ele>151.9</ele>
        <time>2011-05-29T09:49:00Z</time>
      </trkpt>
      <trkpt lat="43.59286" lon="3.73179">
        <ele>151.8</ele>
        <time>2011-05-29T09:49:02Z</time>
      </trkpt>
      <trkpt lat="43.59281" lon="3.73189">
        <ele>151.5</ele>
        <time>2011-05-29T09:49:04Z</time>
      </trkpt>
      <trkpt lat="43.59278" lon="3.73194">
        <ele>151.4</ele>
        <time>2011-05-29T09:49:05Z</time>
      </trkpt>
      <trkpt lat="43.59276" lon="3.732">
        <ele>151.2</ele>
        <time>2011-05-29T09:49:06Z</time>
      </trkpt>
      <trkpt lat="43.59273" lon="3.73207">
        <ele>151</ele>
        <time>2011-05-29T09:49:07Z</time>
      </trkpt>
      <trkpt lat="43.5927" lon="3.73213">
        <ele>150.8</ele>
        <time>2011-05-29T09:49:08Z</time>
      </trkpt>
      <trkpt lat="43.59267" lon="3.7322">
        <ele>150.6</ele>
        <time>2011-05-29T09:49:09Z</time>
      </trkpt>
      <trkpt lat="43.59264" lon="3.73225">
        <ele>150.3</ele>
        <time>2011-05-29T09:49:10Z</time>
      </trkpt>
      <trkpt lat="43.59261" lon="3.73231">
        <ele>150.1</ele>
        <time>2011-05-29T09:49:11Z</time>
      </trkpt>
      <trkpt lat="43.59258" lon="3.73237">
        <ele>149.8</ele>
        <time>2011-05-29T09:49:12Z</time>
      </trkpt>
      <trkpt lat="43.59255" lon="3.73243">
        <ele>149.5</ele>
        <time>2011-05-29T09:49:13Z</time>
      </trkpt>
      <trkpt lat="43.59251" lon="3.73248">
        <ele>149.1</ele>
        <time>2011-05-29T09:49:14Z</time>
      </trkpt>
      <trkpt lat="43.59248" lon="3.73254">
        <ele>148.9</ele>
        <time>2011-05-29T09:49:15Z</time>
      </trkpt>
      <trkpt lat="43.59244" lon="3.73259">
        <ele>148.7</ele>
        <time>2011-05-29T09:49:16Z</time>
      </trkpt>
      <trkpt lat="43.59241" lon="3.73265">
        <ele>148.4</ele>
        <time>2011-05-29T09:49:17Z</time>
      </trkpt>
      <trkpt lat="43.59237" lon="3.73272">
        <ele>148.1</ele>
        <time>2011-05-29T09:49:18Z</time>
      </trkpt>
      <trkpt lat="43.59233" lon="3.7328">
        <ele>147.8</ele>
        <time>2011-05-29T09:49:19Z</time>
      </trkpt>
      <trkpt lat="43.59229" lon="3.73287">
        <ele>147.4</ele>
        <time>2011-05-29T09:49:20Z</time>
      </trkpt>
      <trkpt lat="43.59224" lon="3.73295">
        <ele>147</ele>
        <time>2011-05-29T09:49:21Z</time>
      </trkpt>
      <trkpt lat="43.59219" lon="3.73302">
        <ele>146.5</ele>
        <time>2011-05-29T09:49:22Z</time>
      </trkpt>
      <trkpt lat="43.59214" lon="3.7331">
        <ele>146.1</ele>
        <time>2011-05-29T09:49:23Z</time>
      </trkpt>
      <trkpt lat="43.59208" lon="3.73317">
        <ele>145.6</ele>
        <time>2011-05-29T09:49:24Z</time>
      </trkpt>
      <trkpt lat="43.59202" lon="3.73323">
        <ele>145.2</ele>
        <time>2011-05-29T09:49:25Z</time>
      </trkpt>
      <trkpt lat="43.59195" lon="3.73328">
        <ele>144.7</ele>
        <time>2011-05-29T09:49:26Z</time>
      </trkpt>
      <trkpt lat="43.59188" lon="3.73334">
        <ele>144.3</ele>
        <time>2011-05-29T09:49:27Z</time>
      </trkpt>
      <trkpt lat="43.59181" lon="3.73339">
        <ele>144.2</ele>
        <time>2011-05-29T09:49:28Z</time>
      </trkpt>
      <trkpt lat="43.59173" lon="3.73343">
        <ele>144.1</ele>
        <time>2011-05-29T09:49:29Z</time>
      </trkpt>
      <trkpt lat="43.59166" lon="3.73348">
        <ele>144</ele>
        <time>2011-05-29T09:49:30Z</time>
      </trkpt>
      <trkpt lat="43.59159" lon="3.73353">
        <ele>143.6</ele>
        <time>2011-05-29T09:49:31Z</time>
      </trkpt>
      <trkpt lat="43.59153" lon="3.73358">
        <ele>143.1</ele>
        <time>2011-05-29T09:49:32Z</time>
      </trkpt>
      <trkpt lat="43.59146" lon="3.73363">
        <ele>142.6</ele>
        <time>2011-05-29T09:49:33Z</time>
      </trkpt>
      <trkpt lat="43.59139" lon="3.73367">
        <ele>142.1</ele>
        <time>2011-05-29T09:49:34Z</time>
      </trkpt>
      <trkpt lat="43.59133" lon="3.73371">
        <ele>141.5</ele>
        <time>2011-05-29T09:49:35Z</time>
      </trkpt>
      <trkpt lat="43.59127" lon="3.73375">
        <ele>140.9</ele>
        <time>2011-05-29T09:49:36Z</time>
      </trkpt>
      <trkpt lat="43.5912" lon="3.73379">
        <ele>140.2</ele>
        <time>2011-05-29T09:49:37Z</time>
      </trkpt>
      <trkpt lat="43.59114" lon="3.73383">
        <ele>139.5</ele>
        <time>2011-05-29T09:49:38Z</time>
      </trkpt>
      <trkpt lat="43.59107" lon="3.73386">
        <ele>138.7</ele>
        <time>2011-05-29T09:49:39Z</time>
      </trkpt>
      <trkpt lat="43.591" lon="3.73389">
        <ele>137.8</ele>
        <time>2011-05-29T09:49:40Z</time>
      </trkpt>
      <trkpt lat="43.59094" lon="3.73394">
        <ele>136.9</ele>
        <time>2011-05-29T09:49:41Z</time>
      </trkpt>
      <trkpt lat="43.59088" lon="3.73399">
        <ele>136</ele>
        <time>2011-05-29T09:49:42Z</time>
      </trkpt>
      <trkpt lat="43.59082" lon="3.73403">
        <ele>135.1</ele>
        <time>2011-05-29T09:49:43Z</time>
      </trkpt>
      <trkpt lat="43.59075" lon="3.73407">
        <ele>134.3</ele>
        <time>2011-05-29T09:49:44Z</time>
      </trkpt>
      <trkpt lat="43.59068" lon="3.7341">
        <ele>133.6</ele>
        <time>2011-05-29T09:49:45Z</time>
      </trkpt>
      <trkpt lat="43.59061" lon="3.73413">
        <ele>132.9</ele>
        <time>2011-05-29T09:49:46Z</time>
      </trkpt>
      <trkpt lat="43.59054" lon="3.73416">
        <ele>132.2</ele>
        <time>2011-05-29T09:49:47Z</time>
      </trkpt>
      <trkpt lat="43.59046" lon="3.7342">
        <ele>132</ele>
        <time>2011-05-29T09:49:48Z</time>
      </trkpt>
      <trkpt lat="43.59039" lon="3.73422">
        <ele>131.7</ele>
        <time>2011-05-29T09:49:49Z</time>
      </trkpt>
      <trkpt lat="43.59031" lon="3.73424">
        <ele>131.4</ele>
        <time>2011-05-29T09:49:50Z</time>
      </trkpt>
      <trkpt lat="43.59023" lon="3.73424">
        <ele>130.9</ele>
        <time>2011-05-29T09:49:51Z</time>
      </trkpt>
      <trkpt lat="43.59015" lon="3.73424">
        <ele>130.4</ele>
        <time>2011-05-29T09:49:52Z</time>
      </trkpt>
      <trkpt lat="43.59007" lon="3.73424">
        <ele>129.9</ele>
        <time>2011-05-29T09:49:53Z</time>
      </trkpt>
      <trkpt lat="43.58999" lon="3.73423">
        <ele>129.4</ele>
        <time>2011-05-29T09:49:54Z</time>
      </trkpt>
      <trkpt lat="43.58992" lon="3.73423">
        <ele>129.1</ele>
        <time>2011-05-29T09:49:55Z</time>
      </trkpt>
      <trkpt lat="43.58985" lon="3.73425">
        <ele>129</ele>
        <time>2011-05-29T09:49:56Z</time>
      </trkpt>
      <trkpt lat="43.58978" lon="3.73428">
        <ele>129</ele>
        <time>2011-05-29T09:49:57Z</time>
      </trkpt>
      <trkpt lat="43.58973" lon="3.73431">
        <ele>129</ele>
        <time>2011-05-29T09:49:58Z</time>
      </trkpt>
      <trkpt lat="43.58967" lon="3.73436">
        <ele>129</ele>
        <time>2011-05-29T09:49:59Z</time>
      </trkpt>
      <trkpt lat="43.58961" lon="3.7344">
        <ele>129</ele>
        <time>2011-05-29T09:50:00Z</time>
      </trkpt>
      <trkpt lat="43.58957" lon="3.73444">
        <ele>129.1</ele>
        <time>2011-05-29T09:50:01Z</time>
      </trkpt>
      <trkpt lat="43.58953" lon="3.73449">
        <ele>129.2</ele>
        <time>2011-05-29T09:50:02Z</time>
      </trkpt>
      <trkpt lat="43.58949" lon="3.73453">
        <ele>129.2</ele>
        <time>2011-05-29T09:50:03Z</time>
      </trkpt>
      <trkpt lat="43.58946" lon="3.73458">
        <ele>129.4</ele>
        <time>2011-05-29T09:50:04Z</time>
      </trkpt>
      <trkpt lat="43.58943" lon="3.73464">
        <ele>129.5</ele>
        <time>2011-05-29T09:50:05Z</time>
      </trkpt>
      <trkpt lat="43.58939" lon="3.7347">
        <ele>129.7</ele>
        <time>2011-05-29T09:50:06Z</time>
      </trkpt>
      <trkpt lat="43.58936" lon="3.73475">
        <ele>129.8</ele>
        <time>2011-05-29T09:50:07Z</time>
      </trkpt>
      <trkpt lat="43.58932" lon="3.73481">
        <ele>129.9</ele>
        <time>2011-05-29T09:50:08Z</time>
      </trkpt>
      <trkpt lat="43.58929" lon="3.73487">
        <ele>130</ele>
        <time>2011-05-29T09:50:09Z</time>
      </trkpt>
      <trkpt lat="43.58925" lon="3.73492">
        <ele>130.1</ele>
        <time>2011-05-29T09:50:10Z</time>
      </trkpt>
      <trkpt lat="43.58922" lon="3.73498">
        <ele>130.2</ele>
        <time>2011-05-29T09:50:11Z</time>
      </trkpt>
      <trkpt lat="43.58918" lon="3.73504">
        <ele>130.3</ele>
        <time>2011-05-29T09:50:12Z</time>
      </trkpt>
      <trkpt lat="43.58915" lon="3.7351">
        <ele>130.5</ele>
        <time>2011-05-29T09:50:13Z</time>
      </trkpt>
      <trkpt lat="43.58911" lon="3.73515">
        <ele>130.7</ele>
        <time>2011-05-29T09:50:14Z</time>
      </trkpt>
      <trkpt lat="43.58908" lon="3.73521">
        <ele>130.8</ele>
        <time>2011-05-29T09:50:15Z</time>
      </trkpt>
      <trkpt lat="43.58905" lon="3.73526">
        <ele>130.9</ele>
        <time>2011-05-29T09:50:16Z</time>
      </trkpt>
      <trkpt lat="43.58902" lon="3.73532">
        <ele>131</ele>
        <time>2011-05-29T09:50:17Z</time>
      </trkpt>
      <trkpt lat="43.58897" lon="3.73541">
        <ele>131.1</ele>
        <time>2011-05-29T09:50:19Z</time>
      </trkpt>
      <trkpt lat="43.58891" lon="3.7354">
        <ele>130.7</ele>
        <time>2011-05-29T09:50:21Z</time>
      </trkpt>
      <trkpt lat="43.58884" lon="3.7354">
        <ele>130.3</ele>
        <time>2011-05-29T09:50:23Z</time>
      </trkpt>
      <trkpt lat="43.58877" lon="3.73547">
        <ele>130</ele>
        <time>2011-05-29T09:50:25Z</time>
      </trkpt>
      <trkpt lat="43.5887" lon="3.73553">
        <ele>129.7</ele>
        <time>2011-05-29T09:50:27Z</time>
      </trkpt>
      <trkpt lat="43.58861" lon="3.73556">
        <ele>129.1</ele>
        <time>2011-05-29T09:50:29Z</time>
      </trkpt>
      <trkpt lat="43.58857" lon="3.73559">
        <ele>128.9</ele>
        <time>2011-05-29T09:50:30Z</time>
      </trkpt>
      <trkpt lat="43.58853" lon="3.73562">
        <ele>128.6</ele>
        <time>2011-05-29T09:50:31Z</time>
      </trkpt>
      <trkpt lat="43.58849" lon="3.73566">
        <ele>128.3</ele>
        <time>2011-05-29T09:50:32Z</time>
      </trkpt>
      <trkpt lat="43.58845" lon="3.73571">
        <ele>128</ele>
        <time>2011-05-29T09:50:33Z</time>
      </trkpt>
      <trkpt lat="43.58842" lon="3.73577">
        <ele>127.8</ele>
        <time>2011-05-29T09:50:34Z</time>
      </trkpt>
      <trkpt lat="43.58838" lon="3.73584">
        <ele>127.4</ele>
        <time>2011-05-29T09:50:35Z</time>
      </trkpt>
      <trkpt lat="43.58833" lon="3.73588">
        <ele>126.9</ele>
        <time>2011-05-29T09:50:36Z</time>
      </trkpt>
      <trkpt lat="43.58827" lon="3.73592">
        <ele>126.8</ele>
        <time>2011-05-29T09:50:37Z</time>
      </trkpt>
      <trkpt lat="43.58821" lon="3.73598">
        <ele>126.5</ele>
        <time>2011-05-29T09:50:38Z</time>
      </trkpt>
      <trkpt lat="43.58816" lon="3.73605">
        <ele>126.2</ele>
        <time>2011-05-29T09:50:39Z</time>
      </trkpt>
      <trkpt lat="43.5881" lon="3.7361">
        <ele>125.8</ele>
        <time>2011-05-29T09:50:40Z</time>
      </trkpt>
      <trkpt lat="43.58804" lon="3.73616">
        <ele>125.3</ele>
        <time>2011-05-29T09:50:41Z</time>
      </trkpt>
      <trkpt lat="43.58798" lon="3.73621">
        <ele>124.8</ele>
        <time>2011-05-29T09:50:42Z</time>
      </trkpt>
      <trkpt lat="43.58792" lon="3.73626">
        <ele>124.2</ele>
        <time>2011-05-29T09:50:43Z</time>
      </trkpt>
      <trkpt lat="43.58785" lon="3.73628">
        <ele>123.7</ele>
        <time>2011-05-29T09:50:44Z</time>
      </trkpt>
      <trkpt lat="43.58777" lon="3.73629">
        <ele>123.2</ele>
        <time>2011-05-29T09:50:45Z</time>
      </trkpt>
      <trkpt lat="43.5877" lon="3.73631">
        <ele>122.6</ele>
        <time>2011-05-29T09:50:46Z</time>
      </trkpt>
      <trkpt lat="43.58763" lon="3.73634">
        <ele>122</ele>
        <time>2011-05-29T09:50:47Z</time>
      </trkpt>
      <trkpt lat="43.58757" lon="3.7364">
        <ele>121.1</ele>
        <time>2011-05-29T09:50:48Z</time>
      </trkpt>
      <trkpt lat="43.58751" lon="3.73645">
        <ele>120.2</ele>
        <time>2011-05-29T09:50:49Z</time>
      </trkpt>
      <trkpt lat="43.58745" lon="3.7365">
        <ele>119.3</ele>
        <time>2011-05-29T09:50:50Z</time>
      </trkpt>
      <trkpt lat="43.5874" lon="3.73654">
        <ele>118.6</ele>
        <time>2011-05-29T09:50:51Z</time>
      </trkpt>
      <trkpt lat="43.58735" lon="3.73655">
        <ele>118.2</ele>
        <time>2011-05-29T09:50:52Z</time>
      </trkpt>
      <trkpt lat="43.5873" lon="3.73654">
        <ele>118</ele>
        <time>2011-05-29T09:50:53Z</time>
      </trkpt>
      <trkpt lat="43.58725" lon="3.73652">
        <ele>117.8</ele>
        <time>2011-05-29T09:50:54Z</time>
      </trkpt>
      <trkpt lat="43.5872" lon="3.7365">
        <ele>117.7</ele>
        <time>2011-05-29T09:50:55Z</time>
      </trkpt>
      <trkpt lat="43.58714" lon="3.73647">
        <ele>117.6</ele>
        <time>2011-05-29T09:50:56Z</time>
      </trkpt>
      <trkpt lat="43.58708" lon="3.73645">
        <ele>117.5</ele>
        <time>2011-05-29T09:50:57Z</time>
      </trkpt>
      <trkpt lat="43.58703" lon="3.73641">
        <ele>117.5</ele>
        <time>2011-05-29T09:50:58Z</time>
      </trkpt>
      <trkpt lat="43.58699" lon="3.73636">
        <ele>117.6</ele>
        <time>2011-05-29T09:50:59Z</time>
      </trkpt>
      <trkpt lat="43.58694" lon="3.73632">
        <ele>117.6</ele>
        <time>2011-05-29T09:51:00Z</time>
      </trkpt>
      <trkpt lat="43.58689" lon="3.73628">
        <ele>117.7</ele>
        <time>2011-05-29T09:51:01Z</time>
      </trkpt>
      <trkpt lat="43.58684" lon="3.73624">
        <ele>117.7</ele>
        <time>2011-05-29T09:51:02Z</time>
      </trkpt>
      <trkpt lat="43.58678" lon="3.7362">
        <ele>117.7</ele>
        <time>2011-05-29T09:51:03Z</time>
      </trkpt>
      <trkpt lat="43.58673" lon="3.73616">
        <ele>117.7</ele>
        <time>2011-05-29T09:51:04Z</time>
      </trkpt>
      <trkpt lat="43.58667" lon="3.73613">
        <ele>117.6</ele>
        <time>2011-05-29T09:51:05Z</time>
      </trkpt>
      <trkpt lat="43.58661" lon="3.73612">
        <ele>117.4</ele>
        <time>2011-05-29T09:51:06Z</time>
      </trkpt>
      <trkpt lat="43.58655" lon="3.73612">
        <ele>117.2</ele>
        <time>2011-05-29T09:51:07Z</time>
      </trkpt>
      <trkpt lat="43.58648" lon="3.73613">
        <ele>117</ele>
        <time>2011-05-29T09:51:08Z</time>
      </trkpt>
      <trkpt lat="43.58643" lon="3.73616">
        <ele>116.6</ele>
        <time>2011-05-29T09:51:09Z</time>
      </trkpt>
      <trkpt lat="43.58635" lon="3.73619">
        <ele>116.2</ele>
        <time>2011-05-29T09:51:11Z</time>
      </trkpt>
      <trkpt lat="43.58627" lon="3.73619">
        <ele>116.1</ele>
        <time>2011-05-29T09:51:14Z</time>
      </trkpt>
      <trkpt lat="43.58618" lon="3.73618">
        <ele>115.9</ele>
        <time>2011-05-29T09:51:29Z</time>
      </trkpt>
      <trkpt lat="43.58612" lon="3.73612">
        <ele>115.9</ele>
        <time>2011-05-29T09:56:22Z</time>
      </trkpt>
      <trkpt lat="43.5861" lon="3.73611">
        <ele>115.9</ele>
        <time>2011-05-29T09:56:23Z</time>
      </trkpt>
      <trkpt lat="43.58597" lon="3.73604">
        <ele>115.5</ele>
        <time>2011-05-29T09:56:28Z</time>
      </trkpt>
      <trkpt lat="43.58591" lon="3.73601">
        <ele>115.3</ele>
        <time>2011-05-29T09:56:30Z</time>
      </trkpt>
      <trkpt lat="43.58584" lon="3.73598">
        <ele>115</ele>
        <time>2011-05-29T09:56:32Z</time>
      </trkpt>
      <trkpt lat="43.58578" lon="3.73595">
        <ele>114.9</ele>
        <time>2011-05-29T09:56:34Z</time>
      </trkpt>
      <trkpt lat="43.5857" lon="3.73591">
        <ele>114.7</ele>
        <time>2011-05-29T09:56:36Z</time>
      </trkpt>
      <trkpt lat="43.58563" lon="3.73589">
        <ele>114.6</ele>
        <time>2011-05-29T09:56:38Z</time>
      </trkpt>
      <trkpt lat="43.58555" lon="3.73586">
        <ele>114.4</ele>
        <time>2011-05-29T09:56:40Z</time>
      </trkpt>
      <trkpt lat="43.58549" lon="3.73583">
        <ele>114.2</ele>
        <time>2011-05-29T09:56:42Z</time>
      </trkpt>
      <trkpt lat="43.58542" lon="3.73585">
        <ele>114</ele>
        <time>2011-05-29T09:56:44Z</time>
      </trkpt>
      <trkpt lat="43.58537" lon="3.73593">
        <ele>114.1</ele>
        <time>2011-05-29T09:56:46Z</time>
      </trkpt>
      <trkpt lat="43.58534" lon="3.73604">
        <ele>114.2</ele>
        <time>2011-05-29T09:56:48Z</time>
      </trkpt>
      <trkpt lat="43.5853" lon="3.73614">
        <ele>114.4</ele>
        <time>2011-05-29T09:56:50Z</time>
      </trkpt>
      <trkpt lat="43.58525" lon="3.73623">
        <ele>114.6</ele>
        <time>2011-05-29T09:56:52Z</time>
      </trkpt>
      <trkpt lat="43.58521" lon="3.73631">
        <ele>114.8</ele>
        <time>2011-05-29T09:56:54Z</time>
      </trkpt>
      <trkpt lat="43.58516" lon="3.7364">
        <ele>115</ele>
        <time>2011-05-29T09:56:56Z</time>
      </trkpt>
      <trkpt lat="43.58512" lon="3.73649">
        <ele>115.3</ele>
        <time>2011-05-29T09:56:58Z</time>
      </trkpt>
      <trkpt lat="43.58507" lon="3.73657">
        <ele>115.6</ele>
        <time>2011-05-29T09:57:00Z</time>
      </trkpt>
      <trkpt lat="43.58503" lon="3.73664">
        <ele>115.9</ele>
        <time>2011-05-29T09:57:02Z</time>
      </trkpt>
      <trkpt lat="43.58498" lon="3.73672">
        <ele>116</ele>
        <time>2011-05-29T09:57:04Z</time>
      </trkpt>
      <trkpt lat="43.58494" lon="3.73679">
        <ele>115.8</ele>
        <time>2011-05-29T09:57:06Z</time>
      </trkpt>
      <trkpt lat="43.58489" lon="3.73686">
        <ele>115.7</ele>
        <time>2011-05-29T09:57:08Z</time>
      </trkpt>
      <trkpt lat="43.58485" lon="3.73693">
        <ele>115.5</ele>
        <time>2011-05-29T09:57:10Z</time>
      </trkpt>
      <trkpt lat="43.5848" lon="3.73701">
        <ele>115.4</ele>
        <time>2011-05-29T09:57:12Z</time>
      </trkpt>
      <trkpt lat="43.58476" lon="3.73709">
        <ele>115.3</ele>
        <time>2011-05-29T09:57:14Z</time>
      </trkpt>
      <trkpt lat="43.58473" lon="3.73718">
        <ele>115.3</ele>
        <time>2011-05-29T09:57:16Z</time>
      </trkpt>
      <trkpt lat="43.58468" lon="3.73727">
        <ele>115.2</ele>
        <time>2011-05-29T09:57:18Z</time>
      </trkpt>
      <trkpt lat="43.58466" lon="3.73732">
        <ele>115.1</ele>
        <time>2011-05-29T09:57:19Z</time>
      </trkpt>
      <trkpt lat="43.58462" lon="3.73737">
        <ele>115</ele>
        <time>2011-05-29T09:57:20Z</time>
      </trkpt>
      <trkpt lat="43.58459" lon="3.73743">
        <ele>114.8</ele>
        <time>2011-05-29T09:57:21Z</time>
      </trkpt>
      <trkpt lat="43.58455" lon="3.73748">
        <ele>114.7</ele>
        <time>2011-05-29T09:57:22Z</time>
      </trkpt>
      <trkpt lat="43.58451" lon="3.73755">
        <ele>114.2</ele>
        <time>2011-05-29T09:57:23Z</time>
      </trkpt>
      <trkpt lat="43.58448" lon="3.73761">
        <ele>113.6</ele>
        <time>2011-05-29T09:57:24Z</time>
      </trkpt>
      <trkpt lat="43.58444" lon="3.73767">
        <ele>113</ele>
        <time>2011-05-29T09:57:25Z</time>
      </trkpt>
      <trkpt lat="43.58439" lon="3.73773">
        <ele>112.3</ele>
        <time>2011-05-29T09:57:26Z</time>
      </trkpt>
      <trkpt lat="43.58435" lon="3.7378">
        <ele>111.6</ele>
        <time>2011-05-29T09:57:27Z</time>
      </trkpt>
      <trkpt lat="43.58431" lon="3.73789">
        <ele>110.8</ele>
        <time>2011-05-29T09:57:28Z</time>
      </trkpt>
      <trkpt lat="43.58429" lon="3.73798">
        <ele>110.1</ele>
        <time>2011-05-29T09:57:29Z</time>
      </trkpt>
      <trkpt lat="43.58428" lon="3.73808">
        <ele>109.4</ele>
        <time>2011-05-29T09:57:30Z</time>
      </trkpt>
      <trkpt lat="43.58427" lon="3.73819">
        <ele>108.7</ele>
        <time>2011-05-29T09:57:31Z</time>
      </trkpt>
      <trkpt lat="43.58426" lon="3.73829">
        <ele>108</ele>
        <time>2011-05-29T09:57:32Z</time>
      </trkpt>
      <trkpt lat="43.58425" lon="3.73841">
        <ele>107.5</ele>
        <time>2011-05-29T09:57:33Z</time>
      </trkpt>
      <trkpt lat="43.58425" lon="3.73853">
        <ele>107.1</ele>
        <time>2011-05-29T09:57:34Z</time>
      </trkpt>
      <trkpt lat="43.58424" lon="3.73865">
        <ele>106.7</ele>
        <time>2011-05-29T09:57:35Z</time>
      </trkpt>
      <trkpt lat="43.58423" lon="3.73878">
        <ele>106.2</ele>
        <time>2011-05-29T09:57:36Z</time>
      </trkpt>
      <trkpt lat="43.58422" lon="3.7389">
        <ele>105.8</ele>
        <time>2011-05-29T09:57:37Z</time>
      </trkpt>
      <trkpt lat="43.58419" lon="3.73903">
        <ele>105.4</ele>
        <time>2011-05-29T09:57:38Z</time>
      </trkpt>
      <trkpt lat="43.58417" lon="3.73915">
        <ele>105</ele>
        <time>2011-05-29T09:57:39Z</time>
      </trkpt>
      <trkpt lat="43.58416" lon="3.73928">
        <ele>104.2</ele>
        <time>2011-05-29T09:57:40Z</time>
      </trkpt>
      <trkpt lat="43.58415" lon="3.73941">
        <ele>103.4</ele>
        <time>2011-05-29T09:57:41Z</time>
      </trkpt>
      <trkpt lat="43.58413" lon="3.73953">
        <ele>102.5</ele>
        <time>2011-05-29T09:57:42Z</time>
      </trkpt>
      <trkpt lat="43.5841" lon="3.73965">
        <ele>101.5</ele>
        <time>2011-05-29T09:57:43Z</time>
      </trkpt>
      <trkpt lat="43.58406" lon="3.73977">
        <ele>100.5</ele>
        <time>2011-05-29T09:57:44Z</time>
      </trkpt>
      <trkpt lat="43.58401" lon="3.73987">
        <ele>99.6</ele>
        <time>2011-05-29T09:57:45Z</time>
      </trkpt>
      <trkpt lat="43.58396" lon="3.73997">
        <ele>98.9</ele>
        <time>2011-05-29T09:57:46Z</time>
      </trkpt>
      <trkpt lat="43.5839" lon="3.74007">
        <ele>98.3</ele>
        <time>2011-05-29T09:57:47Z</time>
      </trkpt>
      <trkpt lat="43.58385" lon="3.74016">
        <ele>97.8</ele>
        <time>2011-05-29T09:57:48Z</time>
      </trkpt>
      <trkpt lat="43.5838" lon="3.74026">
        <ele>97.5</ele>
        <time>2011-05-29T09:57:49Z</time>
      </trkpt>
      <trkpt lat="43.58375" lon="3.74035">
        <ele>97.3</ele>
        <time>2011-05-29T09:57:50Z</time>
      </trkpt>
      <trkpt lat="43.58371" lon="3.74046">
        <ele>97.2</ele>
        <time>2011-05-29T09:57:51Z</time>
      </trkpt>
      <trkpt lat="43.58367" lon="3.74056">
        <ele>97.1</ele>
        <time>2011-05-29T09:57:52Z</time>
      </trkpt>
      <trkpt lat="43.58363" lon="3.74065">
        <ele>97.2</ele>
        <time>2011-05-29T09:57:53Z</time>
      </trkpt>
      <trkpt lat="43.58359" lon="3.74073">
        <ele>97.3</ele>
        <time>2011-05-29T09:57:54Z</time>
      </trkpt>
      <trkpt lat="43.58354" lon="3.74081">
        <ele>97.5</ele>
        <time>2011-05-29T09:57:55Z</time>
      </trkpt>
      <trkpt lat="43.58349" lon="3.74087">
        <ele>97.6</ele>
        <time>2011-05-29T09:57:56Z</time>
      </trkpt>
      <trkpt lat="43.58345" lon="3.74094">
        <ele>97.6</ele>
        <time>2011-05-29T09:57:57Z</time>
      </trkpt>
      <trkpt lat="43.5834" lon="3.741">
        <ele>97.8</ele>
        <time>2011-05-29T09:57:58Z</time>
      </trkpt>
      <trkpt lat="43.58335" lon="3.74105">
        <ele>97.9</ele>
        <time>2011-05-29T09:57:59Z</time>
      </trkpt>
      <trkpt lat="43.58331" lon="3.74111">
        <ele>98</ele>
        <time>2011-05-29T09:58:00Z</time>
      </trkpt>
      <trkpt lat="43.58327" lon="3.74116">
        <ele>98</ele>
        <time>2011-05-29T09:58:01Z</time>
      </trkpt>
      <trkpt lat="43.58323" lon="3.7412">
        <ele>98.1</ele>
        <time>2011-05-29T09:58:02Z</time>
      </trkpt>
      <trkpt lat="43.58318" lon="3.74122">
        <ele>98.1</ele>
        <time>2011-05-29T09:58:03Z</time>
      </trkpt>
      <trkpt lat="43.5831" lon="3.74121">
        <ele>98.1</ele>
        <time>2011-05-29T09:58:05Z</time>
      </trkpt>
      <trkpt lat="43.58301" lon="3.74124">
        <ele>98.2</ele>
        <time>2011-05-29T09:58:07Z</time>
      </trkpt>
      <trkpt lat="43.58294" lon="3.74131">
        <ele>98.3</ele>
        <time>2011-05-29T09:58:09Z</time>
      </trkpt>
      <trkpt lat="43.58289" lon="3.74141">
        <ele>98.4</ele>
        <time>2011-05-29T09:58:11Z</time>
      </trkpt>
      <trkpt lat="43.58287" lon="3.74146">
        <ele>98.4</ele>
        <time>2011-05-29T09:58:12Z</time>
      </trkpt>
      <trkpt lat="43.58284" lon="3.74152">
        <ele>98.5</ele>
        <time>2011-05-29T09:58:13Z</time>
      </trkpt>
      <trkpt lat="43.58282" lon="3.74157">
        <ele>98.6</ele>
        <time>2011-05-29T09:58:14Z</time>
      </trkpt>
      <trkpt lat="43.58279" lon="3.74164">
        <ele>98.6</ele>
        <time>2011-05-29T09:58:15Z</time>
      </trkpt>
      <trkpt lat="43.58277" lon="3.7417">
        <ele>98.5</ele>
        <time>2011-05-29T09:58:16Z</time>
      </trkpt>
      <trkpt lat="43.58275" lon="3.74177">
        <ele>98.1</ele>
        <time>2011-05-29T09:58:17Z</time>
      </trkpt>
      <trkpt lat="43.58273" lon="3.74185">
        <ele>97.7</ele>
        <time>2011-05-29T09:58:18Z</time>
      </trkpt>
      <trkpt lat="43.58271" lon="3.74194">
        <ele>97.3</ele>
        <time>2011-05-29T09:58:19Z</time>
      </trkpt>
      <trkpt lat="43.58269" lon="3.74203">
        <ele>96.8</ele>
        <time>2011-05-29T09:58:20Z</time>
      </trkpt>
      <trkpt lat="43.58267" lon="3.74212">
        <ele>96.3</ele>
        <time>2011-05-29T09:58:21Z</time>
      </trkpt>
      <trkpt lat="43.58265" lon="3.74222">
        <ele>95.7</ele>
        <time>2011-05-29T09:58:22Z</time>
      </trkpt>
      <trkpt lat="43.58263" lon="3.74231">
        <ele>95.2</ele>
        <time>2011-05-29T09:58:23Z</time>
      </trkpt>
      <trkpt lat="43.5826" lon="3.74241">
        <ele>94.6</ele>
        <time>2011-05-29T09:58:24Z</time>
      </trkpt>
      <trkpt lat="43.58257" lon="3.7425">
        <ele>94.1</ele>
        <time>2011-05-29T09:58:25Z</time>
      </trkpt>
      <trkpt lat="43.58254" lon="3.74259">
        <ele>93.6</ele>
        <time>2011-05-29T09:58:26Z</time>
      </trkpt>
      <trkpt lat="43.58251" lon="3.74269">
        <ele>93.1</ele>
        <time>2011-05-29T09:58:27Z</time>
      </trkpt>
      <trkpt lat="43.58248" lon="3.74278">
        <ele>92.6</ele>
        <time>2011-05-29T09:58:28Z</time>
      </trkpt>
      <trkpt lat="43.58245" lon="3.74288">
        <ele>92.2</ele>
        <time>2011-05-29T09:58:29Z</time>
      </trkpt>
      <trkpt lat="43.58242" lon="3.74298">
        <ele>91.7</ele>
        <time>2011-05-29T09:58:30Z</time>
      </trkpt>
      <trkpt lat="43.58239" lon="3.74308">
        <ele>91.1</ele>
        <time>2011-05-29T09:58:31Z</time>
      </trkpt>
      <trkpt lat="43.58235" lon="3.74318">
        <ele>90.6</ele>
        <time>2011-05-29T09:58:32Z</time>
      </trkpt>
      <trkpt lat="43.5823" lon="3.74328">
        <ele>90.1</ele>
        <time>2011-05-29T09:58:33Z</time>
      </trkpt>
      <trkpt lat="43.58226" lon="3.74338">
        <ele>89.6</ele>
        <time>2011-05-29T09:58:34Z</time>
      </trkpt>
      <trkpt lat="43.58221" lon="3.74348">
        <ele>89.4</ele>
        <time>2011-05-29T09:58:35Z</time>
      </trkpt>
      <trkpt lat="43.58217" lon="3.74357">
        <ele>89.2</ele>
        <time>2011-05-29T09:58:36Z</time>
      </trkpt>
      <trkpt lat="43.58212" lon="3.74367">
        <ele>89</ele>
        <time>2011-05-29T09:58:37Z</time>
      </trkpt>
      <trkpt lat="43.58208" lon="3.74378">
        <ele>88.7</ele>
        <time>2011-05-29T09:58:38Z</time>
      </trkpt>
      <trkpt lat="43.58204" lon="3.74388">
        <ele>88.4</ele>
        <time>2011-05-29T09:58:39Z</time>
      </trkpt>
      <trkpt lat="43.58201" lon="3.74398">
        <ele>88.2</ele>
        <time>2011-05-29T09:58:40Z</time>
      </trkpt>
      <trkpt lat="43.58197" lon="3.74409">
        <ele>87.9</ele>
        <time>2011-05-29T09:58:41Z</time>
      </trkpt>
      <trkpt lat="43.58194" lon="3.74418">
        <ele>87.6</ele>
        <time>2011-05-29T09:58:42Z</time>
      </trkpt>
      <trkpt lat="43.5819" lon="3.74428">
        <ele>87.5</ele>
        <time>2011-05-29T09:58:43Z</time>
      </trkpt>
      <trkpt lat="43.58185" lon="3.74436">
        <ele>87.3</ele>
        <time>2011-05-29T09:58:44Z</time>
      </trkpt>
      <trkpt lat="43.58179" lon="3.74443">
        <ele>87.2</ele>
        <time>2011-05-29T09:58:45Z</time>
      </trkpt>
      <trkpt lat="43.58173" lon="3.74449">
        <ele>87.1</ele>
        <time>2011-05-29T09:58:46Z</time>
      </trkpt>
      <trkpt lat="43.58166" lon="3.74453">
        <ele>87</ele>
        <time>2011-05-29T09:58:47Z</time>
      </trkpt>
      <trkpt lat="43.58159" lon="3.74457">
        <ele>86.8</ele>
        <time>2011-05-29T09:58:48Z</time>
      </trkpt>
      <trkpt lat="43.58152" lon="3.74461">
        <ele>86.6</ele>
        <time>2011-05-29T09:58:49Z</time>
      </trkpt>
      <trkpt lat="43.58145" lon="3.74465">
        <ele>86.4</ele>
        <time>2011-05-29T09:58:50Z</time>
      </trkpt>
      <trkpt lat="43.58137" lon="3.74468">
        <ele>86.1</ele>
        <time>2011-05-29T09:58:51Z</time>
      </trkpt>
      <trkpt lat="43.5813" lon="3.74471">
        <ele>85.8</ele>
        <time>2011-05-29T09:58:52Z</time>
      </trkpt>
      <trkpt lat="43.58122" lon="3.74475">
        <ele>85.5</ele>
        <time>2011-05-29T09:58:53Z</time>
      </trkpt>
      <trkpt lat="43.58115" lon="3.74479">
        <ele>85.1</ele>
        <time>2011-05-29T09:58:54Z</time>
      </trkpt>
      <trkpt lat="43.58107" lon="3.74483">
        <ele>84.7</ele>
        <time>2011-05-29T09:58:55Z</time>
      </trkpt>
      <trkpt lat="43.58101" lon="3.74489">
        <ele>84.2</ele>
        <time>2011-05-29T09:58:56Z</time>
      </trkpt>
      <trkpt lat="43.58094" lon="3.74495">
        <ele>83.7</ele>
        <time>2011-05-29T09:58:57Z</time>
      </trkpt>
      <trkpt lat="43.58088" lon="3.74502">
        <ele>83.1</ele>
        <time>2011-05-29T09:58:58Z</time>
      </trkpt>
      <trkpt lat="43.58083" lon="3.74509">
        <ele>82.3</ele>
        <time>2011-05-29T09:58:59Z</time>
      </trkpt>
      <trkpt lat="43.58077" lon="3.74516">
        <ele>81.3</ele>
        <time>2011-05-29T09:59:00Z</time>
      </trkpt>
      <trkpt lat="43.58072" lon="3.74523">
        <ele>80.2</ele>
        <time>2011-05-29T09:59:01Z</time>
      </trkpt>
      <trkpt lat="43.58067" lon="3.7453">
        <ele>79.2</ele>
        <time>2011-05-29T09:59:02Z</time>
      </trkpt>
      <trkpt lat="43.58062" lon="3.74536">
        <ele>78.3</ele>
        <time>2011-05-29T09:59:03Z</time>
      </trkpt>
      <trkpt lat="43.58058" lon="3.7454">
        <ele>77.5</ele>
        <time>2011-05-29T09:59:04Z</time>
      </trkpt>
      <trkpt lat="43.58051" lon="3.74548">
        <ele>76.3</ele>
        <time>2011-05-29T09:59:06Z</time>
      </trkpt>
      <trkpt lat="43.58053" lon="3.74558">
        <ele>75.6</ele>
        <time>2011-05-29T09:59:09Z</time>
      </trkpt>
      <trkpt lat="43.58056" lon="3.74564">
        <ele>75.5</ele>
        <time>2011-05-29T09:59:11Z</time>
      </trkpt>
      <trkpt lat="43.58061" lon="3.74573">
        <ele>75.4</ele>
        <time>2011-05-29T09:59:13Z</time>
      </trkpt>
      <trkpt lat="43.58063" lon="3.74583">
        <ele>74.8</ele>
        <time>2011-05-29T09:59:15Z</time>
      </trkpt>
      <trkpt lat="43.58061" lon="3.74595">
        <ele>73.8</ele>
        <time>2011-05-29T09:59:23Z</time>
      </trkpt>
      <trkpt lat="43.58061" lon="3.74605">
        <ele>73</ele>
        <time>2011-05-29T09:59:27Z</time>
      </trkpt>
      <trkpt lat="43.5806" lon="3.74611">
        <ele>72.5</ele>
        <time>2011-05-29T09:59:28Z</time>
      </trkpt>
      <trkpt lat="43.58058" lon="3.74618">
        <ele>71.8</ele>
        <time>2011-05-29T09:59:29Z</time>
      </trkpt>
      <trkpt lat="43.58057" lon="3.7463">
        <ele>70.8</ele>
        <time>2011-05-29T09:59:31Z</time>
      </trkpt>
      <trkpt lat="43.58059" lon="3.7464">
        <ele>70.3</ele>
        <time>2011-05-29T09:59:33Z</time>
      </trkpt>
      <trkpt lat="43.58065" lon="3.74647">
        <ele>70.4</ele>
        <time>2011-05-29T09:59:35Z</time>
      </trkpt>
      <trkpt lat="43.58071" lon="3.74651">
        <ele>70.8</ele>
        <time>2011-05-29T09:59:37Z</time>
      </trkpt>
      <trkpt lat="43.58073" lon="3.74662">
        <ele>70.2</ele>
        <time>2011-05-29T09:59:41Z</time>
      </trkpt>
      <trkpt lat="43.5808" lon="3.74669">
        <ele>70.4</ele>
        <time>2011-05-29T09:59:46Z</time>
      </trkpt>
      <trkpt lat="43.58085" lon="3.74676">
        <ele>70.4</ele>
        <time>2011-05-29T09:59:49Z</time>
      </trkpt>
      <trkpt lat="43.58091" lon="3.74684">
        <ele>70.3</ele>
        <time>2011-05-29T09:59:52Z</time>
      </trkpt>
      <trkpt lat="43.58097" lon="3.74693">
        <ele>70.3</ele>
        <time>2011-05-29T09:59:55Z</time>
      </trkpt>
      <trkpt lat="43.58094" lon="3.74697">
        <ele>69.6</ele>
        <time>2011-05-29T10:00:30Z</time>
      </trkpt>
    </trkseg>
  </trk>
</gpx>